<?xml version="1.0" encoding="UTF-8" standalone="no" ?>
<gpx xmlns="http://www.topografix.com/GPX/1/1" xmlns:xsi="http://www.w3.org/2001/XMLSchema-instance" xsi:schemaLocation="http://www.topografix.com/GPX/1/1 http://www.topografix.com/GPX/1/1/gpx.xsd" version="1.1" creator="VisuGPX - https://www.visugpx.com">
  <metadata>
    <name>Enduro VTT-Villefranche</name>
    <desc><![CDATA[Proposition trace Enduro VTT-Villefranche]]></desc>
  </metadata>
  <trk>
    <name><![CDATA[Proposition de tracé enduro sur Villefranche.]]></name>
    <trkseg>
      <trkpt lat="44.33385" lon="2.03318">
        <ele>254.3</ele>
        <time>2016-01-03T07:58:51Z</time>
      </trkpt>
      <trkpt lat="44.3338" lon="2.03316">
        <ele>254.1</ele>
        <time>2016-01-03T07:58:55Z</time>
      </trkpt>
      <trkpt lat="44.33378" lon="2.03312">
        <ele>253.7</ele>
        <time>2016-01-03T07:58:57Z</time>
      </trkpt>
      <trkpt lat="44.33375" lon="2.03311">
        <ele>253.5</ele>
        <time>2016-01-03T07:58:58Z</time>
      </trkpt>
      <trkpt lat="44.33372" lon="2.03309">
        <ele>254.1</ele>
        <time>2016-01-03T07:58:59Z</time>
      </trkpt>
      <trkpt lat="44.33369" lon="2.03307">
        <ele>254.6</ele>
        <time>2016-01-03T07:59:00Z</time>
      </trkpt>
      <trkpt lat="44.33366" lon="2.03306">
        <ele>255.1</ele>
        <time>2016-01-03T07:59:01Z</time>
      </trkpt>
      <trkpt lat="44.33361" lon="2.03302">
        <ele>255.8</ele>
        <time>2016-01-03T07:59:03Z</time>
      </trkpt>
      <trkpt lat="44.33359" lon="2.033">
        <ele>256.1</ele>
        <time>2016-01-03T07:59:04Z</time>
      </trkpt>
      <trkpt lat="44.33357" lon="2.03298">
        <ele>256.5</ele>
        <time>2016-01-03T07:59:05Z</time>
      </trkpt>
      <trkpt lat="44.33354" lon="2.03295">
        <ele>256.9</ele>
        <time>2016-01-03T07:59:06Z</time>
      </trkpt>
      <trkpt lat="44.33351" lon="2.03293">
        <ele>257.4</ele>
        <time>2016-01-03T07:59:07Z</time>
      </trkpt>
      <trkpt lat="44.33348" lon="2.0329">
        <ele>257.9</ele>
        <time>2016-01-03T07:59:08Z</time>
      </trkpt>
      <trkpt lat="44.33345" lon="2.03286">
        <ele>258.3</ele>
        <time>2016-01-03T07:59:09Z</time>
      </trkpt>
      <trkpt lat="44.33342" lon="2.03282">
        <ele>258.5</ele>
        <time>2016-01-03T07:59:10Z</time>
      </trkpt>
      <trkpt lat="44.3334" lon="2.03278">
        <ele>258.6</ele>
        <time>2016-01-03T07:59:11Z</time>
      </trkpt>
      <trkpt lat="44.33337" lon="2.03274">
        <ele>258.6</ele>
        <time>2016-01-03T07:59:12Z</time>
      </trkpt>
      <trkpt lat="44.33335" lon="2.0327">
        <ele>258.7</ele>
        <time>2016-01-03T07:59:13Z</time>
      </trkpt>
      <trkpt lat="44.33332" lon="2.03267">
        <ele>259</ele>
        <time>2016-01-03T07:59:14Z</time>
      </trkpt>
      <trkpt lat="44.33329" lon="2.03264">
        <ele>259.2</ele>
        <time>2016-01-03T07:59:15Z</time>
      </trkpt>
      <trkpt lat="44.33327" lon="2.03261">
        <ele>259.1</ele>
        <time>2016-01-03T07:59:16Z</time>
      </trkpt>
      <trkpt lat="44.33324" lon="2.03258">
        <ele>259.2</ele>
        <time>2016-01-03T07:59:17Z</time>
      </trkpt>
      <trkpt lat="44.33321" lon="2.03255">
        <ele>259.1</ele>
        <time>2016-01-03T07:59:18Z</time>
      </trkpt>
      <trkpt lat="44.3332" lon="2.0325">
        <ele>258.6</ele>
        <time>2016-01-03T07:59:20Z</time>
      </trkpt>
      <trkpt lat="44.33317" lon="2.03244">
        <ele>258.1</ele>
        <time>2016-01-03T07:59:22Z</time>
      </trkpt>
      <trkpt lat="44.33316" lon="2.03241">
        <ele>257.8</ele>
        <time>2016-01-03T07:59:23Z</time>
      </trkpt>
      <trkpt lat="44.33314" lon="2.03237">
        <ele>257.3</ele>
        <time>2016-01-03T07:59:24Z</time>
      </trkpt>
      <trkpt lat="44.33312" lon="2.03232">
        <ele>256.7</ele>
        <time>2016-01-03T07:59:25Z</time>
      </trkpt>
      <trkpt lat="44.3331" lon="2.03227">
        <ele>256</ele>
        <time>2016-01-03T07:59:26Z</time>
      </trkpt>
      <trkpt lat="44.33309" lon="2.03222">
        <ele>255.2</ele>
        <time>2016-01-03T07:59:27Z</time>
      </trkpt>
      <trkpt lat="44.33308" lon="2.03217">
        <ele>254.4</ele>
        <time>2016-01-03T07:59:28Z</time>
      </trkpt>
      <trkpt lat="44.33307" lon="2.03212">
        <ele>253.5</ele>
        <time>2016-01-03T07:59:29Z</time>
      </trkpt>
      <trkpt lat="44.33304" lon="2.03207">
        <ele>252.9</ele>
        <time>2016-01-03T07:59:30Z</time>
      </trkpt>
      <trkpt lat="44.33301" lon="2.03201">
        <ele>253</ele>
        <time>2016-01-03T07:59:31Z</time>
      </trkpt>
      <trkpt lat="44.33298" lon="2.03197">
        <ele>253.1</ele>
        <time>2016-01-03T07:59:32Z</time>
      </trkpt>
      <trkpt lat="44.33296" lon="2.03195">
        <ele>253.2</ele>
        <time>2016-01-03T07:59:33Z</time>
      </trkpt>
      <trkpt lat="44.33292" lon="2.03195">
        <ele>253.5</ele>
        <time>2016-01-03T07:59:35Z</time>
      </trkpt>
      <trkpt lat="44.33289" lon="2.03194">
        <ele>254.2</ele>
        <time>2016-01-03T07:59:37Z</time>
      </trkpt>
      <trkpt lat="44.33286" lon="2.03194">
        <ele>255.1</ele>
        <time>2016-01-03T07:59:40Z</time>
      </trkpt>
      <trkpt lat="44.33282" lon="2.03194">
        <ele>256</ele>
        <time>2016-01-03T07:59:44Z</time>
      </trkpt>
      <trkpt lat="44.33279" lon="2.0319">
        <ele>256.6</ele>
        <time>2016-01-03T07:59:47Z</time>
      </trkpt>
      <trkpt lat="44.33276" lon="2.03184">
        <ele>256.9</ele>
        <time>2016-01-03T07:59:49Z</time>
      </trkpt>
      <trkpt lat="44.33274" lon="2.03181">
        <ele>257.2</ele>
        <time>2016-01-03T07:59:50Z</time>
      </trkpt>
      <trkpt lat="44.33271" lon="2.03178">
        <ele>257.4</ele>
        <time>2016-01-03T07:59:51Z</time>
      </trkpt>
      <trkpt lat="44.33269" lon="2.03175">
        <ele>257.6</ele>
        <time>2016-01-03T07:59:52Z</time>
      </trkpt>
      <trkpt lat="44.33267" lon="2.03172">
        <ele>257.6</ele>
        <time>2016-01-03T07:59:53Z</time>
      </trkpt>
      <trkpt lat="44.33264" lon="2.03167">
        <ele>257.6</ele>
        <time>2016-01-03T07:59:55Z</time>
      </trkpt>
      <trkpt lat="44.33259" lon="2.03163">
        <ele>258.1</ele>
        <time>2016-01-03T07:59:56Z</time>
      </trkpt>
      <trkpt lat="44.33256" lon="2.0316">
        <ele>258.1</ele>
        <time>2016-01-03T07:59:57Z</time>
      </trkpt>
      <trkpt lat="44.33255" lon="2.03156">
        <ele>257.9</ele>
        <time>2016-01-03T07:59:58Z</time>
      </trkpt>
      <trkpt lat="44.33252" lon="2.03153">
        <ele>257.9</ele>
        <time>2016-01-03T07:59:59Z</time>
      </trkpt>
      <trkpt lat="44.3325" lon="2.0315">
        <ele>257.7</ele>
        <time>2016-01-03T08:00:00Z</time>
      </trkpt>
      <trkpt lat="44.33247" lon="2.03147">
        <ele>257.6</ele>
        <time>2016-01-03T08:00:01Z</time>
      </trkpt>
      <trkpt lat="44.33245" lon="2.03144">
        <ele>257.2</ele>
        <time>2016-01-03T08:00:02Z</time>
      </trkpt>
      <trkpt lat="44.33242" lon="2.03141">
        <ele>257</ele>
        <time>2016-01-03T08:00:03Z</time>
      </trkpt>
      <trkpt lat="44.33239" lon="2.03138">
        <ele>256.7</ele>
        <time>2016-01-03T08:00:04Z</time>
      </trkpt>
      <trkpt lat="44.33237" lon="2.03136">
        <ele>256.4</ele>
        <time>2016-01-03T08:00:05Z</time>
      </trkpt>
      <trkpt lat="44.33235" lon="2.03132">
        <ele>255.9</ele>
        <time>2016-01-03T08:00:06Z</time>
      </trkpt>
      <trkpt lat="44.33233" lon="2.03129">
        <ele>255.3</ele>
        <time>2016-01-03T08:00:07Z</time>
      </trkpt>
      <trkpt lat="44.33229" lon="2.03126">
        <ele>254.9</ele>
        <time>2016-01-03T08:00:08Z</time>
      </trkpt>
      <trkpt lat="44.33226" lon="2.03122">
        <ele>254.8</ele>
        <time>2016-01-03T08:00:09Z</time>
      </trkpt>
      <trkpt lat="44.33222" lon="2.03119">
        <ele>254.7</ele>
        <time>2016-01-03T08:00:10Z</time>
      </trkpt>
      <trkpt lat="44.33219" lon="2.03115">
        <ele>254.7</ele>
        <time>2016-01-03T08:00:11Z</time>
      </trkpt>
      <trkpt lat="44.33216" lon="2.03111">
        <ele>254.6</ele>
        <time>2016-01-03T08:00:12Z</time>
      </trkpt>
      <trkpt lat="44.33211" lon="2.03107">
        <ele>254.6</ele>
        <time>2016-01-03T08:00:13Z</time>
      </trkpt>
      <trkpt lat="44.33209" lon="2.03103">
        <ele>254.4</ele>
        <time>2016-01-03T08:00:14Z</time>
      </trkpt>
      <trkpt lat="44.33208" lon="2.03097">
        <ele>254.1</ele>
        <time>2016-01-03T08:00:15Z</time>
      </trkpt>
      <trkpt lat="44.33206" lon="2.03093">
        <ele>254.3</ele>
        <time>2016-01-03T08:00:16Z</time>
      </trkpt>
      <trkpt lat="44.33204" lon="2.03089">
        <ele>254.5</ele>
        <time>2016-01-03T08:00:17Z</time>
      </trkpt>
      <trkpt lat="44.33201" lon="2.03085">
        <ele>254.8</ele>
        <time>2016-01-03T08:00:18Z</time>
      </trkpt>
      <trkpt lat="44.33199" lon="2.03082">
        <ele>255</ele>
        <time>2016-01-03T08:00:19Z</time>
      </trkpt>
      <trkpt lat="44.33196" lon="2.03078">
        <ele>255.2</ele>
        <time>2016-01-03T08:00:20Z</time>
      </trkpt>
      <trkpt lat="44.33193" lon="2.03074">
        <ele>255.5</ele>
        <time>2016-01-03T08:00:21Z</time>
      </trkpt>
      <trkpt lat="44.3319" lon="2.03071">
        <ele>255.7</ele>
        <time>2016-01-03T08:00:22Z</time>
      </trkpt>
      <trkpt lat="44.33187" lon="2.03067">
        <ele>255.7</ele>
        <time>2016-01-03T08:00:23Z</time>
      </trkpt>
      <trkpt lat="44.33183" lon="2.03062">
        <ele>255.8</ele>
        <time>2016-01-03T08:00:24Z</time>
      </trkpt>
      <trkpt lat="44.33179" lon="2.03059">
        <ele>256.1</ele>
        <time>2016-01-03T08:00:25Z</time>
      </trkpt>
      <trkpt lat="44.33174" lon="2.03055">
        <ele>256.3</ele>
        <time>2016-01-03T08:00:26Z</time>
      </trkpt>
      <trkpt lat="44.33168" lon="2.03051">
        <ele>256.5</ele>
        <time>2016-01-03T08:00:27Z</time>
      </trkpt>
      <trkpt lat="44.33164" lon="2.03047">
        <ele>256.3</ele>
        <time>2016-01-03T08:00:28Z</time>
      </trkpt>
      <trkpt lat="44.33161" lon="2.03043">
        <ele>255.9</ele>
        <time>2016-01-03T08:00:29Z</time>
      </trkpt>
      <trkpt lat="44.33156" lon="2.03038">
        <ele>256.1</ele>
        <time>2016-01-03T08:00:30Z</time>
      </trkpt>
      <trkpt lat="44.33152" lon="2.03034">
        <ele>256.3</ele>
        <time>2016-01-03T08:00:31Z</time>
      </trkpt>
      <trkpt lat="44.33147" lon="2.03029">
        <ele>256.6</ele>
        <time>2016-01-03T08:00:32Z</time>
      </trkpt>
      <trkpt lat="44.33139" lon="2.03025">
        <ele>257.2</ele>
        <time>2016-01-03T08:00:33Z</time>
      </trkpt>
      <trkpt lat="44.33137" lon="2.03021">
        <ele>257</ele>
        <time>2016-01-03T08:00:34Z</time>
      </trkpt>
      <trkpt lat="44.33138" lon="2.03016">
        <ele>256.6</ele>
        <time>2016-01-03T08:00:35Z</time>
      </trkpt>
      <trkpt lat="44.33138" lon="2.03011">
        <ele>256.3</ele>
        <time>2016-01-03T08:00:36Z</time>
      </trkpt>
      <trkpt lat="44.33137" lon="2.03006">
        <ele>256</ele>
        <time>2016-01-03T08:00:37Z</time>
      </trkpt>
      <trkpt lat="44.33136" lon="2.03001">
        <ele>255.8</ele>
        <time>2016-01-03T08:00:38Z</time>
      </trkpt>
      <trkpt lat="44.33135" lon="2.02996">
        <ele>255.5</ele>
        <time>2016-01-03T08:00:39Z</time>
      </trkpt>
      <trkpt lat="44.33133" lon="2.02992">
        <ele>255.2</ele>
        <time>2016-01-03T08:00:40Z</time>
      </trkpt>
      <trkpt lat="44.33132" lon="2.02987">
        <ele>254.9</ele>
        <time>2016-01-03T08:00:41Z</time>
      </trkpt>
      <trkpt lat="44.33131" lon="2.02983">
        <ele>254.7</ele>
        <time>2016-01-03T08:00:42Z</time>
      </trkpt>
      <trkpt lat="44.3313" lon="2.0298">
        <ele>254.5</ele>
        <time>2016-01-03T08:00:43Z</time>
      </trkpt>
      <trkpt lat="44.33127" lon="2.02973">
        <ele>254.1</ele>
        <time>2016-01-03T08:00:45Z</time>
      </trkpt>
      <trkpt lat="44.33127" lon="2.02967">
        <ele>253.6</ele>
        <time>2016-01-03T08:00:46Z</time>
      </trkpt>
      <trkpt lat="44.33127" lon="2.02963">
        <ele>253.3</ele>
        <time>2016-01-03T08:00:47Z</time>
      </trkpt>
      <trkpt lat="44.33124" lon="2.02959">
        <ele>253.5</ele>
        <time>2016-01-03T08:00:48Z</time>
      </trkpt>
      <trkpt lat="44.33122" lon="2.02954">
        <ele>254.5</ele>
        <time>2016-01-03T08:00:49Z</time>
      </trkpt>
      <trkpt lat="44.3312" lon="2.02949">
        <ele>255.4</ele>
        <time>2016-01-03T08:00:50Z</time>
      </trkpt>
      <trkpt lat="44.33119" lon="2.02944">
        <ele>256</ele>
        <time>2016-01-03T08:00:51Z</time>
      </trkpt>
      <trkpt lat="44.33115" lon="2.02938">
        <ele>257.3</ele>
        <time>2016-01-03T08:00:52Z</time>
      </trkpt>
      <trkpt lat="44.33113" lon="2.02933">
        <ele>258.3</ele>
        <time>2016-01-03T08:00:53Z</time>
      </trkpt>
      <trkpt lat="44.33109" lon="2.02927">
        <ele>259.7</ele>
        <time>2016-01-03T08:00:54Z</time>
      </trkpt>
      <trkpt lat="44.33106" lon="2.0292">
        <ele>261</ele>
        <time>2016-01-03T08:00:55Z</time>
      </trkpt>
      <trkpt lat="44.33103" lon="2.02913">
        <ele>262</ele>
        <time>2016-01-03T08:00:56Z</time>
      </trkpt>
      <trkpt lat="44.33101" lon="2.02905">
        <ele>262.9</ele>
        <time>2016-01-03T08:00:57Z</time>
      </trkpt>
      <trkpt lat="44.33097" lon="2.02896">
        <ele>264.2</ele>
        <time>2016-01-03T08:00:58Z</time>
      </trkpt>
      <trkpt lat="44.33095" lon="2.02887">
        <ele>264.7</ele>
        <time>2016-01-03T08:00:59Z</time>
      </trkpt>
      <trkpt lat="44.33094" lon="2.02878">
        <ele>265.1</ele>
        <time>2016-01-03T08:01:00Z</time>
      </trkpt>
      <trkpt lat="44.33092" lon="2.0287">
        <ele>265.3</ele>
        <time>2016-01-03T08:01:01Z</time>
      </trkpt>
      <trkpt lat="44.33089" lon="2.02861">
        <ele>265.7</ele>
        <time>2016-01-03T08:01:02Z</time>
      </trkpt>
      <trkpt lat="44.33084" lon="2.02853">
        <ele>266.5</ele>
        <time>2016-01-03T08:01:03Z</time>
      </trkpt>
      <trkpt lat="44.3308" lon="2.02846">
        <ele>267.1</ele>
        <time>2016-01-03T08:01:04Z</time>
      </trkpt>
      <trkpt lat="44.33078" lon="2.02838">
        <ele>267.1</ele>
        <time>2016-01-03T08:01:05Z</time>
      </trkpt>
      <trkpt lat="44.33077" lon="2.0283">
        <ele>266.9</ele>
        <time>2016-01-03T08:01:06Z</time>
      </trkpt>
      <trkpt lat="44.33076" lon="2.02824">
        <ele>266.6</ele>
        <time>2016-01-03T08:01:07Z</time>
      </trkpt>
      <trkpt lat="44.33077" lon="2.0282">
        <ele>266.2</ele>
        <time>2016-01-03T08:01:08Z</time>
      </trkpt>
      <trkpt lat="44.33079" lon="2.02817">
        <ele>265.6</ele>
        <time>2016-01-03T08:01:09Z</time>
      </trkpt>
      <trkpt lat="44.33081" lon="2.02813">
        <ele>264.9</ele>
        <time>2016-01-03T08:01:10Z</time>
      </trkpt>
      <trkpt lat="44.33083" lon="2.0281">
        <ele>264.1</ele>
        <time>2016-01-03T08:01:11Z</time>
      </trkpt>
      <trkpt lat="44.33087" lon="2.02804">
        <ele>262.9</ele>
        <time>2016-01-03T08:01:12Z</time>
      </trkpt>
      <trkpt lat="44.3309" lon="2.02799">
        <ele>262.1</ele>
        <time>2016-01-03T08:01:13Z</time>
      </trkpt>
      <trkpt lat="44.33092" lon="2.02793">
        <ele>261.5</ele>
        <time>2016-01-03T08:01:14Z</time>
      </trkpt>
      <trkpt lat="44.33093" lon="2.02788">
        <ele>260.8</ele>
        <time>2016-01-03T08:01:15Z</time>
      </trkpt>
      <trkpt lat="44.33093" lon="2.02781">
        <ele>260.1</ele>
        <time>2016-01-03T08:01:16Z</time>
      </trkpt>
      <trkpt lat="44.33093" lon="2.02774">
        <ele>259.4</ele>
        <time>2016-01-03T08:01:17Z</time>
      </trkpt>
      <trkpt lat="44.33092" lon="2.02767">
        <ele>258.8</ele>
        <time>2016-01-03T08:01:18Z</time>
      </trkpt>
      <trkpt lat="44.33092" lon="2.02761">
        <ele>258.2</ele>
        <time>2016-01-03T08:01:19Z</time>
      </trkpt>
      <trkpt lat="44.33093" lon="2.02752">
        <ele>257.2</ele>
        <time>2016-01-03T08:01:20Z</time>
      </trkpt>
      <trkpt lat="44.33092" lon="2.02744">
        <ele>256.4</ele>
        <time>2016-01-03T08:01:21Z</time>
      </trkpt>
      <trkpt lat="44.33093" lon="2.02737">
        <ele>255.6</ele>
        <time>2016-01-03T08:01:22Z</time>
      </trkpt>
      <trkpt lat="44.33092" lon="2.02731">
        <ele>255.1</ele>
        <time>2016-01-03T08:01:23Z</time>
      </trkpt>
      <trkpt lat="44.33091" lon="2.02723">
        <ele>254.4</ele>
        <time>2016-01-03T08:01:25Z</time>
      </trkpt>
      <trkpt lat="44.33084" lon="2.02719">
        <ele>254.6</ele>
        <time>2016-01-03T08:01:27Z</time>
      </trkpt>
      <trkpt lat="44.33078" lon="2.02717">
        <ele>255</ele>
        <time>2016-01-03T08:01:28Z</time>
      </trkpt>
      <trkpt lat="44.33074" lon="2.02715">
        <ele>255.1</ele>
        <time>2016-01-03T08:01:29Z</time>
      </trkpt>
      <trkpt lat="44.33069" lon="2.02712">
        <ele>255.3</ele>
        <time>2016-01-03T08:01:30Z</time>
      </trkpt>
      <trkpt lat="44.33064" lon="2.02711">
        <ele>255.5</ele>
        <time>2016-01-03T08:01:31Z</time>
      </trkpt>
      <trkpt lat="44.33059" lon="2.0271">
        <ele>255.8</ele>
        <time>2016-01-03T08:01:32Z</time>
      </trkpt>
      <trkpt lat="44.33054" lon="2.02708">
        <ele>255.9</ele>
        <time>2016-01-03T08:01:33Z</time>
      </trkpt>
      <trkpt lat="44.33052" lon="2.02704">
        <ele>255.9</ele>
        <time>2016-01-03T08:01:34Z</time>
      </trkpt>
      <trkpt lat="44.33044" lon="2.02698">
        <ele>256.1</ele>
        <time>2016-01-03T08:01:35Z</time>
      </trkpt>
      <trkpt lat="44.33041" lon="2.02696">
        <ele>256.2</ele>
        <time>2016-01-03T08:01:36Z</time>
      </trkpt>
      <trkpt lat="44.33036" lon="2.02692">
        <ele>257.4</ele>
        <time>2016-01-03T08:01:37Z</time>
      </trkpt>
      <trkpt lat="44.33033" lon="2.0269">
        <ele>257.9</ele>
        <time>2016-01-03T08:01:38Z</time>
      </trkpt>
      <trkpt lat="44.33027" lon="2.02685">
        <ele>258.8</ele>
        <time>2016-01-03T08:01:40Z</time>
      </trkpt>
      <trkpt lat="44.33025" lon="2.02682">
        <ele>259.1</ele>
        <time>2016-01-03T08:01:41Z</time>
      </trkpt>
      <trkpt lat="44.33021" lon="2.02677">
        <ele>259.6</ele>
        <time>2016-01-03T08:01:43Z</time>
      </trkpt>
      <trkpt lat="44.33019" lon="2.02673">
        <ele>259.7</ele>
        <time>2016-01-03T08:01:45Z</time>
      </trkpt>
      <trkpt lat="44.33016" lon="2.02669">
        <ele>260.1</ele>
        <time>2016-01-03T08:01:47Z</time>
      </trkpt>
      <trkpt lat="44.33015" lon="2.02666">
        <ele>260.1</ele>
        <time>2016-01-03T08:01:49Z</time>
      </trkpt>
      <trkpt lat="44.33015" lon="2.02662">
        <ele>259.6</ele>
        <time>2016-01-03T08:01:51Z</time>
      </trkpt>
      <trkpt lat="44.33016" lon="2.02657">
        <ele>259</ele>
        <time>2016-01-03T08:01:53Z</time>
      </trkpt>
      <trkpt lat="44.33014" lon="2.02653">
        <ele>259</ele>
        <time>2016-01-03T08:01:55Z</time>
      </trkpt>
      <trkpt lat="44.33012" lon="2.02649">
        <ele>259</ele>
        <time>2016-01-03T08:01:56Z</time>
      </trkpt>
      <trkpt lat="44.33009" lon="2.02645">
        <ele>259.2</ele>
        <time>2016-01-03T08:01:57Z</time>
      </trkpt>
      <trkpt lat="44.33006" lon="2.02642">
        <ele>259.5</ele>
        <time>2016-01-03T08:01:58Z</time>
      </trkpt>
      <trkpt lat="44.33004" lon="2.02638">
        <ele>259.6</ele>
        <time>2016-01-03T08:01:59Z</time>
      </trkpt>
      <trkpt lat="44.33002" lon="2.02634">
        <ele>259.6</ele>
        <time>2016-01-03T08:02:00Z</time>
      </trkpt>
      <trkpt lat="44.33001" lon="2.0263">
        <ele>259.4</ele>
        <time>2016-01-03T08:02:01Z</time>
      </trkpt>
      <trkpt lat="44.33" lon="2.02626">
        <ele>259.1</ele>
        <time>2016-01-03T08:02:02Z</time>
      </trkpt>
      <trkpt lat="44.32999" lon="2.02622">
        <ele>258.9</ele>
        <time>2016-01-03T08:02:03Z</time>
      </trkpt>
      <trkpt lat="44.32994" lon="2.02615">
        <ele>259.4</ele>
        <time>2016-01-03T08:02:05Z</time>
      </trkpt>
      <trkpt lat="44.32991" lon="2.02612">
        <ele>259.6</ele>
        <time>2016-01-03T08:02:06Z</time>
      </trkpt>
      <trkpt lat="44.32988" lon="2.02608">
        <ele>259.9</ele>
        <time>2016-01-03T08:02:08Z</time>
      </trkpt>
      <trkpt lat="44.32988" lon="2.02604">
        <ele>259.7</ele>
        <time>2016-01-03T08:02:10Z</time>
      </trkpt>
      <trkpt lat="44.32986" lon="2.026">
        <ele>259.7</ele>
        <time>2016-01-03T08:02:12Z</time>
      </trkpt>
      <trkpt lat="44.32984" lon="2.02596">
        <ele>259.5</ele>
        <time>2016-01-03T08:02:14Z</time>
      </trkpt>
      <trkpt lat="44.32982" lon="2.02591">
        <ele>259.6</ele>
        <time>2016-01-03T08:02:16Z</time>
      </trkpt>
      <trkpt lat="44.32977" lon="2.02586">
        <ele>260</ele>
        <time>2016-01-03T08:02:18Z</time>
      </trkpt>
      <trkpt lat="44.32974" lon="2.02583">
        <ele>260.2</ele>
        <time>2016-01-03T08:02:19Z</time>
      </trkpt>
      <trkpt lat="44.32972" lon="2.0258">
        <ele>260.4</ele>
        <time>2016-01-03T08:02:20Z</time>
      </trkpt>
      <trkpt lat="44.32966" lon="2.02576">
        <ele>260.9</ele>
        <time>2016-01-03T08:02:22Z</time>
      </trkpt>
      <trkpt lat="44.32963" lon="2.02575">
        <ele>261.4</ele>
        <time>2016-01-03T08:02:23Z</time>
      </trkpt>
      <trkpt lat="44.32958" lon="2.02573">
        <ele>262</ele>
        <time>2016-01-03T08:02:25Z</time>
      </trkpt>
      <trkpt lat="44.32955" lon="2.02569">
        <ele>263.5</ele>
        <time>2016-01-03T08:02:27Z</time>
      </trkpt>
      <trkpt lat="44.32953" lon="2.02565">
        <ele>263.9</ele>
        <time>2016-01-03T08:02:28Z</time>
      </trkpt>
      <trkpt lat="44.32952" lon="2.02561">
        <ele>264.3</ele>
        <time>2016-01-03T08:02:29Z</time>
      </trkpt>
      <trkpt lat="44.3295" lon="2.02557">
        <ele>264.6</ele>
        <time>2016-01-03T08:02:30Z</time>
      </trkpt>
      <trkpt lat="44.32949" lon="2.02553">
        <ele>264.6</ele>
        <time>2016-01-03T08:02:31Z</time>
      </trkpt>
      <trkpt lat="44.32947" lon="2.02547">
        <ele>265.1</ele>
        <time>2016-01-03T08:02:32Z</time>
      </trkpt>
      <trkpt lat="44.32945" lon="2.02542">
        <ele>265.7</ele>
        <time>2016-01-03T08:02:33Z</time>
      </trkpt>
      <trkpt lat="44.32944" lon="2.02537">
        <ele>266</ele>
        <time>2016-01-03T08:02:34Z</time>
      </trkpt>
      <trkpt lat="44.32943" lon="2.02532">
        <ele>266.2</ele>
        <time>2016-01-03T08:02:35Z</time>
      </trkpt>
      <trkpt lat="44.32939" lon="2.02524">
        <ele>267.7</ele>
        <time>2016-01-03T08:02:36Z</time>
      </trkpt>
      <trkpt lat="44.32937" lon="2.02518">
        <ele>268.2</ele>
        <time>2016-01-03T08:02:37Z</time>
      </trkpt>
      <trkpt lat="44.32934" lon="2.02513">
        <ele>269.4</ele>
        <time>2016-01-03T08:02:38Z</time>
      </trkpt>
      <trkpt lat="44.32933" lon="2.0251">
        <ele>269.9</ele>
        <time>2016-01-03T08:02:39Z</time>
      </trkpt>
      <trkpt lat="44.3293" lon="2.02504">
        <ele>270.7</ele>
        <time>2016-01-03T08:02:41Z</time>
      </trkpt>
      <trkpt lat="44.32929" lon="2.02501">
        <ele>271.2</ele>
        <time>2016-01-03T08:02:42Z</time>
      </trkpt>
      <trkpt lat="44.32928" lon="2.02497">
        <ele>271.6</ele>
        <time>2016-01-03T08:02:43Z</time>
      </trkpt>
      <trkpt lat="44.32926" lon="2.02493">
        <ele>272.2</ele>
        <time>2016-01-03T08:02:44Z</time>
      </trkpt>
      <trkpt lat="44.32924" lon="2.02488">
        <ele>272.7</ele>
        <time>2016-01-03T08:02:46Z</time>
      </trkpt>
      <trkpt lat="44.32921" lon="2.02484">
        <ele>273.7</ele>
        <time>2016-01-03T08:02:48Z</time>
      </trkpt>
      <trkpt lat="44.32919" lon="2.02479">
        <ele>274.3</ele>
        <time>2016-01-03T08:02:50Z</time>
      </trkpt>
      <trkpt lat="44.32919" lon="2.02474">
        <ele>274.2</ele>
        <time>2016-01-03T08:02:52Z</time>
      </trkpt>
      <trkpt lat="44.32918" lon="2.02468">
        <ele>274.2</ele>
        <time>2016-01-03T08:02:54Z</time>
      </trkpt>
      <trkpt lat="44.32919" lon="2.0246">
        <ele>273.2</ele>
        <time>2016-01-03T08:02:56Z</time>
      </trkpt>
      <trkpt lat="44.32919" lon="2.02456">
        <ele>272.9</ele>
        <time>2016-01-03T08:02:57Z</time>
      </trkpt>
      <trkpt lat="44.32918" lon="2.02452">
        <ele>273.1</ele>
        <time>2016-01-03T08:02:58Z</time>
      </trkpt>
      <trkpt lat="44.32917" lon="2.02447">
        <ele>273.1</ele>
        <time>2016-01-03T08:02:59Z</time>
      </trkpt>
      <trkpt lat="44.32916" lon="2.02444">
        <ele>273.2</ele>
        <time>2016-01-03T08:03:00Z</time>
      </trkpt>
      <trkpt lat="44.32914" lon="2.02437">
        <ele>273.7</ele>
        <time>2016-01-03T08:03:02Z</time>
      </trkpt>
      <trkpt lat="44.32912" lon="2.02435">
        <ele>274.4</ele>
        <time>2016-01-03T08:03:03Z</time>
      </trkpt>
      <trkpt lat="44.32911" lon="2.0243">
        <ele>274.5</ele>
        <time>2016-01-03T08:03:04Z</time>
      </trkpt>
      <trkpt lat="44.32909" lon="2.02427">
        <ele>275</ele>
        <time>2016-01-03T08:03:05Z</time>
      </trkpt>
      <trkpt lat="44.32907" lon="2.02424">
        <ele>275.6</ele>
        <time>2016-01-03T08:03:06Z</time>
      </trkpt>
      <trkpt lat="44.32905" lon="2.0242">
        <ele>276.2</ele>
        <time>2016-01-03T08:03:07Z</time>
      </trkpt>
      <trkpt lat="44.32902" lon="2.02415">
        <ele>276.8</ele>
        <time>2016-01-03T08:03:09Z</time>
      </trkpt>
      <trkpt lat="44.32899" lon="2.0241">
        <ele>277.5</ele>
        <time>2016-01-03T08:03:11Z</time>
      </trkpt>
      <trkpt lat="44.32897" lon="2.02406">
        <ele>278.2</ele>
        <time>2016-01-03T08:03:13Z</time>
      </trkpt>
      <trkpt lat="44.32896" lon="2.02401">
        <ele>278.1</ele>
        <time>2016-01-03T08:03:15Z</time>
      </trkpt>
      <trkpt lat="44.32894" lon="2.02397">
        <ele>278.6</ele>
        <time>2016-01-03T08:03:17Z</time>
      </trkpt>
      <trkpt lat="44.32892" lon="2.02393">
        <ele>278.8</ele>
        <time>2016-01-03T08:03:19Z</time>
      </trkpt>
      <trkpt lat="44.32891" lon="2.02388">
        <ele>278.9</ele>
        <time>2016-01-03T08:03:21Z</time>
      </trkpt>
      <trkpt lat="44.32889" lon="2.02384">
        <ele>279.2</ele>
        <time>2016-01-03T08:03:23Z</time>
      </trkpt>
      <trkpt lat="44.32888" lon="2.0238">
        <ele>279.5</ele>
        <time>2016-01-03T08:03:25Z</time>
      </trkpt>
      <trkpt lat="44.32887" lon="2.02375">
        <ele>279.2</ele>
        <time>2016-01-03T08:03:27Z</time>
      </trkpt>
      <trkpt lat="44.32886" lon="2.02367">
        <ele>278.7</ele>
        <time>2016-01-03T08:03:29Z</time>
      </trkpt>
      <trkpt lat="44.32884" lon="2.02361">
        <ele>278.5</ele>
        <time>2016-01-03T08:03:31Z</time>
      </trkpt>
      <trkpt lat="44.32882" lon="2.02357">
        <ele>278.6</ele>
        <time>2016-01-03T08:03:33Z</time>
      </trkpt>
      <trkpt lat="44.3288" lon="2.02352">
        <ele>279</ele>
        <time>2016-01-03T08:03:35Z</time>
      </trkpt>
      <trkpt lat="44.32879" lon="2.02348">
        <ele>278.7</ele>
        <time>2016-01-03T08:03:37Z</time>
      </trkpt>
      <trkpt lat="44.32877" lon="2.02345">
        <ele>279</ele>
        <time>2016-01-03T08:03:39Z</time>
      </trkpt>
      <trkpt lat="44.32875" lon="2.0234">
        <ele>279</ele>
        <time>2016-01-03T08:03:41Z</time>
      </trkpt>
      <trkpt lat="44.32873" lon="2.02336">
        <ele>279</ele>
        <time>2016-01-03T08:03:43Z</time>
      </trkpt>
      <trkpt lat="44.32868" lon="2.02332">
        <ele>279.8</ele>
        <time>2016-01-03T08:03:46Z</time>
      </trkpt>
      <trkpt lat="44.32866" lon="2.02327">
        <ele>279.7</ele>
        <time>2016-01-03T08:03:48Z</time>
      </trkpt>
      <trkpt lat="44.32865" lon="2.02323">
        <ele>279.5</ele>
        <time>2016-01-03T08:03:50Z</time>
      </trkpt>
      <trkpt lat="44.32862" lon="2.02319">
        <ele>279.8</ele>
        <time>2016-01-03T08:03:52Z</time>
      </trkpt>
      <trkpt lat="44.32861" lon="2.02309">
        <ele>278.7</ele>
        <time>2016-01-03T08:03:55Z</time>
      </trkpt>
      <trkpt lat="44.32861" lon="2.02305">
        <ele>278.1</ele>
        <time>2016-01-03T08:03:57Z</time>
      </trkpt>
      <trkpt lat="44.32861" lon="2.023">
        <ele>277.7</ele>
        <time>2016-01-03T08:03:59Z</time>
      </trkpt>
      <trkpt lat="44.3286" lon="2.02296">
        <ele>277.2</ele>
        <time>2016-01-03T08:04:00Z</time>
      </trkpt>
      <trkpt lat="44.32861" lon="2.0229">
        <ele>276.2</ele>
        <time>2016-01-03T08:04:02Z</time>
      </trkpt>
      <trkpt lat="44.3286" lon="2.02286">
        <ele>275.8</ele>
        <time>2016-01-03T08:04:04Z</time>
      </trkpt>
      <trkpt lat="44.32861" lon="2.02282">
        <ele>274.8</ele>
        <time>2016-01-03T08:04:06Z</time>
      </trkpt>
      <trkpt lat="44.3286" lon="2.02278">
        <ele>274.8</ele>
        <time>2016-01-03T08:04:08Z</time>
      </trkpt>
      <trkpt lat="44.32858" lon="2.02273">
        <ele>274.6</ele>
        <time>2016-01-03T08:04:10Z</time>
      </trkpt>
      <trkpt lat="44.32859" lon="2.02269">
        <ele>273.9</ele>
        <time>2016-01-03T08:04:12Z</time>
      </trkpt>
      <trkpt lat="44.32858" lon="2.02264">
        <ele>273.3</ele>
        <time>2016-01-03T08:04:15Z</time>
      </trkpt>
      <trkpt lat="44.32858" lon="2.0226">
        <ele>272.7</ele>
        <time>2016-01-03T08:04:17Z</time>
      </trkpt>
      <trkpt lat="44.32859" lon="2.02256">
        <ele>271.8</ele>
        <time>2016-01-03T08:04:19Z</time>
      </trkpt>
      <trkpt lat="44.32857" lon="2.02252">
        <ele>271.9</ele>
        <time>2016-01-03T08:04:22Z</time>
      </trkpt>
      <trkpt lat="44.32854" lon="2.02249">
        <ele>272.5</ele>
        <time>2016-01-03T08:04:25Z</time>
      </trkpt>
      <trkpt lat="44.32852" lon="2.02245">
        <ele>272.8</ele>
        <time>2016-01-03T08:04:28Z</time>
      </trkpt>
      <trkpt lat="44.32849" lon="2.02243">
        <ele>273.3</ele>
        <time>2016-01-03T08:04:30Z</time>
      </trkpt>
      <trkpt lat="44.32848" lon="2.02238">
        <ele>273.2</ele>
        <time>2016-01-03T08:04:34Z</time>
      </trkpt>
      <trkpt lat="44.32846" lon="2.02234">
        <ele>273.4</ele>
        <time>2016-01-03T08:04:37Z</time>
      </trkpt>
      <trkpt lat="44.32845" lon="2.0223">
        <ele>273</ele>
        <time>2016-01-03T08:04:40Z</time>
      </trkpt>
      <trkpt lat="44.3284" lon="2.02227">
        <ele>274.6</ele>
        <time>2016-01-03T08:04:44Z</time>
      </trkpt>
      <trkpt lat="44.32837" lon="2.02223">
        <ele>275</ele>
        <time>2016-01-03T08:04:47Z</time>
      </trkpt>
      <trkpt lat="44.32834" lon="2.02219">
        <ele>275.7</ele>
        <time>2016-01-03T08:04:50Z</time>
      </trkpt>
      <trkpt lat="44.32829" lon="2.02215">
        <ele>276.9</ele>
        <time>2016-01-03T08:04:52Z</time>
      </trkpt>
      <trkpt lat="44.32825" lon="2.02213">
        <ele>278.4</ele>
        <time>2016-01-03T08:04:54Z</time>
      </trkpt>
      <trkpt lat="44.32825" lon="2.02209">
        <ele>277.6</ele>
        <time>2016-01-03T08:04:56Z</time>
      </trkpt>
      <trkpt lat="44.32823" lon="2.02207">
        <ele>278.3</ele>
        <time>2016-01-03T08:04:58Z</time>
      </trkpt>
      <trkpt lat="44.32822" lon="2.02202">
        <ele>278.2</ele>
        <time>2016-01-03T08:05:00Z</time>
      </trkpt>
      <trkpt lat="44.32819" lon="2.022">
        <ele>279.3</ele>
        <time>2016-01-03T08:05:02Z</time>
      </trkpt>
      <trkpt lat="44.32816" lon="2.02196">
        <ele>279.9</ele>
        <time>2016-01-03T08:05:05Z</time>
      </trkpt>
      <trkpt lat="44.32816" lon="2.02191">
        <ele>279.7</ele>
        <time>2016-01-03T08:05:08Z</time>
      </trkpt>
      <trkpt lat="44.32815" lon="2.02185">
        <ele>279.7</ele>
        <time>2016-01-03T08:05:11Z</time>
      </trkpt>
      <trkpt lat="44.32812" lon="2.02184">
        <ele>280.8</ele>
        <time>2016-01-03T08:05:12Z</time>
      </trkpt>
      <trkpt lat="44.32808" lon="2.02178">
        <ele>281.8</ele>
        <time>2016-01-03T08:05:15Z</time>
      </trkpt>
      <trkpt lat="44.32806" lon="2.02174">
        <ele>282.3</ele>
        <time>2016-01-03T08:05:18Z</time>
      </trkpt>
      <trkpt lat="44.32804" lon="2.02171">
        <ele>282.8</ele>
        <time>2016-01-03T08:05:20Z</time>
      </trkpt>
      <trkpt lat="44.32802" lon="2.02168">
        <ele>283.4</ele>
        <time>2016-01-03T08:05:22Z</time>
      </trkpt>
      <trkpt lat="44.328" lon="2.02165">
        <ele>283.9</ele>
        <time>2016-01-03T08:05:25Z</time>
      </trkpt>
      <trkpt lat="44.32798" lon="2.02162">
        <ele>284.4</ele>
        <time>2016-01-03T08:05:28Z</time>
      </trkpt>
      <trkpt lat="44.32796" lon="2.02159">
        <ele>284.9</ele>
        <time>2016-01-03T08:05:29Z</time>
      </trkpt>
      <trkpt lat="44.32793" lon="2.02158">
        <ele>285.9</ele>
        <time>2016-01-03T08:05:30Z</time>
      </trkpt>
      <trkpt lat="44.32791" lon="2.02155">
        <ele>286.2</ele>
        <time>2016-01-03T08:05:31Z</time>
      </trkpt>
      <trkpt lat="44.32789" lon="2.02151">
        <ele>285.9</ele>
        <time>2016-01-03T08:05:34Z</time>
      </trkpt>
      <trkpt lat="44.32787" lon="2.02148">
        <ele>285.8</ele>
        <time>2016-01-03T08:05:36Z</time>
      </trkpt>
      <trkpt lat="44.32785" lon="2.02144">
        <ele>285.5</ele>
        <time>2016-01-03T08:05:39Z</time>
      </trkpt>
      <trkpt lat="44.32783" lon="2.02141">
        <ele>285.3</ele>
        <time>2016-01-03T08:05:41Z</time>
      </trkpt>
      <trkpt lat="44.32782" lon="2.02137">
        <ele>285</ele>
        <time>2016-01-03T08:05:43Z</time>
      </trkpt>
      <trkpt lat="44.32779" lon="2.02135">
        <ele>284.9</ele>
        <time>2016-01-03T08:05:46Z</time>
      </trkpt>
      <trkpt lat="44.32776" lon="2.02135">
        <ele>285</ele>
        <time>2016-01-03T08:05:47Z</time>
      </trkpt>
      <trkpt lat="44.32775" lon="2.02129">
        <ele>284.5</ele>
        <time>2016-01-03T08:05:50Z</time>
      </trkpt>
      <trkpt lat="44.32773" lon="2.02124">
        <ele>284.2</ele>
        <time>2016-01-03T08:05:52Z</time>
      </trkpt>
      <trkpt lat="44.32772" lon="2.02117">
        <ele>283.6</ele>
        <time>2016-01-03T08:05:54Z</time>
      </trkpt>
      <trkpt lat="44.32772" lon="2.02113">
        <ele>283.3</ele>
        <time>2016-01-03T08:05:55Z</time>
      </trkpt>
      <trkpt lat="44.32771" lon="2.02108">
        <ele>282.9</ele>
        <time>2016-01-03T08:05:56Z</time>
      </trkpt>
      <trkpt lat="44.32769" lon="2.02101">
        <ele>282.4</ele>
        <time>2016-01-03T08:05:57Z</time>
      </trkpt>
      <trkpt lat="44.32768" lon="2.02095">
        <ele>281.9</ele>
        <time>2016-01-03T08:05:58Z</time>
      </trkpt>
      <trkpt lat="44.32769" lon="2.02089">
        <ele>281.4</ele>
        <time>2016-01-03T08:05:59Z</time>
      </trkpt>
      <trkpt lat="44.32772" lon="2.02079">
        <ele>280.6</ele>
        <time>2016-01-03T08:06:00Z</time>
      </trkpt>
      <trkpt lat="44.32773" lon="2.02071">
        <ele>280.1</ele>
        <time>2016-01-03T08:06:01Z</time>
      </trkpt>
      <trkpt lat="44.32775" lon="2.02063">
        <ele>279.4</ele>
        <time>2016-01-03T08:06:02Z</time>
      </trkpt>
      <trkpt lat="44.32777" lon="2.02053">
        <ele>278.7</ele>
        <time>2016-01-03T08:06:03Z</time>
      </trkpt>
      <trkpt lat="44.32779" lon="2.02041">
        <ele>277.8</ele>
        <time>2016-01-03T08:06:04Z</time>
      </trkpt>
      <trkpt lat="44.32782" lon="2.02028">
        <ele>277</ele>
        <time>2016-01-03T08:06:05Z</time>
      </trkpt>
      <trkpt lat="44.32783" lon="2.02017">
        <ele>276.4</ele>
        <time>2016-01-03T08:06:06Z</time>
      </trkpt>
      <trkpt lat="44.32785" lon="2.02005">
        <ele>275.7</ele>
        <time>2016-01-03T08:06:07Z</time>
      </trkpt>
      <trkpt lat="44.32785" lon="2.01994">
        <ele>275</ele>
        <time>2016-01-03T08:06:08Z</time>
      </trkpt>
      <trkpt lat="44.32785" lon="2.01982">
        <ele>274.2</ele>
        <time>2016-01-03T08:06:09Z</time>
      </trkpt>
      <trkpt lat="44.32784" lon="2.0197">
        <ele>273.5</ele>
        <time>2016-01-03T08:06:10Z</time>
      </trkpt>
      <trkpt lat="44.32781" lon="2.01959">
        <ele>272.7</ele>
        <time>2016-01-03T08:06:11Z</time>
      </trkpt>
      <trkpt lat="44.32781" lon="2.01947">
        <ele>272</ele>
        <time>2016-01-03T08:06:12Z</time>
      </trkpt>
      <trkpt lat="44.32781" lon="2.01935">
        <ele>271.4</ele>
        <time>2016-01-03T08:06:13Z</time>
      </trkpt>
      <trkpt lat="44.32782" lon="2.01924">
        <ele>271</ele>
        <time>2016-01-03T08:06:14Z</time>
      </trkpt>
      <trkpt lat="44.32787" lon="2.01911">
        <ele>270.5</ele>
        <time>2016-01-03T08:06:15Z</time>
      </trkpt>
      <trkpt lat="44.32791" lon="2.019">
        <ele>270.2</ele>
        <time>2016-01-03T08:06:16Z</time>
      </trkpt>
      <trkpt lat="44.32795" lon="2.01888">
        <ele>269.1</ele>
        <time>2016-01-03T08:06:17Z</time>
      </trkpt>
      <trkpt lat="44.32798" lon="2.01876">
        <ele>268</ele>
        <time>2016-01-03T08:06:18Z</time>
      </trkpt>
      <trkpt lat="44.328" lon="2.01863">
        <ele>267.4</ele>
        <time>2016-01-03T08:06:19Z</time>
      </trkpt>
      <trkpt lat="44.32801" lon="2.01851">
        <ele>267.1</ele>
        <time>2016-01-03T08:06:20Z</time>
      </trkpt>
      <trkpt lat="44.32799" lon="2.01838">
        <ele>267.2</ele>
        <time>2016-01-03T08:06:21Z</time>
      </trkpt>
      <trkpt lat="44.328" lon="2.01824">
        <ele>266.7</ele>
        <time>2016-01-03T08:06:22Z</time>
      </trkpt>
      <trkpt lat="44.32801" lon="2.01812">
        <ele>266.4</ele>
        <time>2016-01-03T08:06:23Z</time>
      </trkpt>
      <trkpt lat="44.32801" lon="2.01801">
        <ele>266.1</ele>
        <time>2016-01-03T08:06:24Z</time>
      </trkpt>
      <trkpt lat="44.32803" lon="2.01784">
        <ele>265.8</ele>
        <time>2016-01-03T08:06:25Z</time>
      </trkpt>
      <trkpt lat="44.32802" lon="2.01773">
        <ele>265.9</ele>
        <time>2016-01-03T08:06:26Z</time>
      </trkpt>
      <trkpt lat="44.32804" lon="2.01759">
        <ele>265.7</ele>
        <time>2016-01-03T08:06:27Z</time>
      </trkpt>
      <trkpt lat="44.32802" lon="2.01753">
        <ele>265.9</ele>
        <time>2016-01-03T08:06:28Z</time>
      </trkpt>
      <trkpt lat="44.32802" lon="2.01746">
        <ele>266</ele>
        <time>2016-01-03T08:06:29Z</time>
      </trkpt>
      <trkpt lat="44.32799" lon="2.0174">
        <ele>266.2</ele>
        <time>2016-01-03T08:06:30Z</time>
      </trkpt>
      <trkpt lat="44.32799" lon="2.01734">
        <ele>266.3</ele>
        <time>2016-01-03T08:06:31Z</time>
      </trkpt>
      <trkpt lat="44.32798" lon="2.01726">
        <ele>266.3</ele>
        <time>2016-01-03T08:06:32Z</time>
      </trkpt>
      <trkpt lat="44.32796" lon="2.01719">
        <ele>266.6</ele>
        <time>2016-01-03T08:06:33Z</time>
      </trkpt>
      <trkpt lat="44.32796" lon="2.01712">
        <ele>266.6</ele>
        <time>2016-01-03T08:06:34Z</time>
      </trkpt>
      <trkpt lat="44.32792" lon="2.01707">
        <ele>266.9</ele>
        <time>2016-01-03T08:06:35Z</time>
      </trkpt>
      <trkpt lat="44.32791" lon="2.01701">
        <ele>266.7</ele>
        <time>2016-01-03T08:06:36Z</time>
      </trkpt>
      <trkpt lat="44.32789" lon="2.01695">
        <ele>266.4</ele>
        <time>2016-01-03T08:06:37Z</time>
      </trkpt>
      <trkpt lat="44.32788" lon="2.0169">
        <ele>266.2</ele>
        <time>2016-01-03T08:06:38Z</time>
      </trkpt>
      <trkpt lat="44.32787" lon="2.01684">
        <ele>265.9</ele>
        <time>2016-01-03T08:06:39Z</time>
      </trkpt>
      <trkpt lat="44.32786" lon="2.01678">
        <ele>265.6</ele>
        <time>2016-01-03T08:06:40Z</time>
      </trkpt>
      <trkpt lat="44.32785" lon="2.01671">
        <ele>265.3</ele>
        <time>2016-01-03T08:06:41Z</time>
      </trkpt>
      <trkpt lat="44.32784" lon="2.01664">
        <ele>265</ele>
        <time>2016-01-03T08:06:42Z</time>
      </trkpt>
      <trkpt lat="44.32784" lon="2.01657">
        <ele>264.7</ele>
        <time>2016-01-03T08:06:43Z</time>
      </trkpt>
      <trkpt lat="44.32784" lon="2.0165">
        <ele>264.5</ele>
        <time>2016-01-03T08:06:44Z</time>
      </trkpt>
      <trkpt lat="44.32784" lon="2.01642">
        <ele>264.2</ele>
        <time>2016-01-03T08:06:45Z</time>
      </trkpt>
      <trkpt lat="44.32783" lon="2.01635">
        <ele>263.9</ele>
        <time>2016-01-03T08:06:46Z</time>
      </trkpt>
      <trkpt lat="44.32782" lon="2.01627">
        <ele>263.5</ele>
        <time>2016-01-03T08:06:47Z</time>
      </trkpt>
      <trkpt lat="44.32782" lon="2.0162">
        <ele>263.1</ele>
        <time>2016-01-03T08:06:48Z</time>
      </trkpt>
      <trkpt lat="44.32782" lon="2.01612">
        <ele>262.5</ele>
        <time>2016-01-03T08:06:49Z</time>
      </trkpt>
      <trkpt lat="44.32781" lon="2.01605">
        <ele>262</ele>
        <time>2016-01-03T08:06:50Z</time>
      </trkpt>
      <trkpt lat="44.3278" lon="2.01597">
        <ele>261.4</ele>
        <time>2016-01-03T08:06:51Z</time>
      </trkpt>
      <trkpt lat="44.32778" lon="2.0159">
        <ele>260.8</ele>
        <time>2016-01-03T08:06:52Z</time>
      </trkpt>
      <trkpt lat="44.32776" lon="2.01582">
        <ele>260.2</ele>
        <time>2016-01-03T08:06:53Z</time>
      </trkpt>
      <trkpt lat="44.32774" lon="2.01573">
        <ele>259.6</ele>
        <time>2016-01-03T08:06:54Z</time>
      </trkpt>
      <trkpt lat="44.32773" lon="2.01563">
        <ele>258.9</ele>
        <time>2016-01-03T08:06:55Z</time>
      </trkpt>
      <trkpt lat="44.32772" lon="2.01553">
        <ele>258.2</ele>
        <time>2016-01-03T08:06:56Z</time>
      </trkpt>
      <trkpt lat="44.32773" lon="2.01542">
        <ele>257.5</ele>
        <time>2016-01-03T08:06:57Z</time>
      </trkpt>
      <trkpt lat="44.32775" lon="2.0153">
        <ele>256.9</ele>
        <time>2016-01-03T08:06:58Z</time>
      </trkpt>
      <trkpt lat="44.32775" lon="2.0152">
        <ele>256.4</ele>
        <time>2016-01-03T08:06:59Z</time>
      </trkpt>
      <trkpt lat="44.32777" lon="2.01506">
        <ele>255.7</ele>
        <time>2016-01-03T08:07:00Z</time>
      </trkpt>
      <trkpt lat="44.32776" lon="2.01499">
        <ele>255.2</ele>
        <time>2016-01-03T08:07:01Z</time>
      </trkpt>
      <trkpt lat="44.32772" lon="2.01493">
        <ele>254.9</ele>
        <time>2016-01-03T08:07:02Z</time>
      </trkpt>
      <trkpt lat="44.32768" lon="2.01489">
        <ele>254.6</ele>
        <time>2016-01-03T08:07:03Z</time>
      </trkpt>
      <trkpt lat="44.32762" lon="2.01488">
        <ele>254.5</ele>
        <time>2016-01-03T08:07:04Z</time>
      </trkpt>
      <trkpt lat="44.32757" lon="2.01487">
        <ele>254.4</ele>
        <time>2016-01-03T08:07:05Z</time>
      </trkpt>
      <trkpt lat="44.32753" lon="2.01485">
        <ele>254.3</ele>
        <time>2016-01-03T08:07:06Z</time>
      </trkpt>
      <trkpt lat="44.32748" lon="2.01484">
        <ele>254.2</ele>
        <time>2016-01-03T08:07:07Z</time>
      </trkpt>
      <trkpt lat="44.32743" lon="2.01483">
        <ele>254.1</ele>
        <time>2016-01-03T08:07:08Z</time>
      </trkpt>
      <trkpt lat="44.32738" lon="2.01483">
        <ele>254.1</ele>
        <time>2016-01-03T08:07:09Z</time>
      </trkpt>
      <trkpt lat="44.32733" lon="2.01483">
        <ele>254.1</ele>
        <time>2016-01-03T08:07:10Z</time>
      </trkpt>
      <trkpt lat="44.32729" lon="2.01484">
        <ele>254.1</ele>
        <time>2016-01-03T08:07:11Z</time>
      </trkpt>
      <trkpt lat="44.32723" lon="2.01485">
        <ele>254.1</ele>
        <time>2016-01-03T08:07:12Z</time>
      </trkpt>
      <trkpt lat="44.32719" lon="2.01486">
        <ele>254.1</ele>
        <time>2016-01-03T08:07:13Z</time>
      </trkpt>
      <trkpt lat="44.32713" lon="2.01486">
        <ele>254</ele>
        <time>2016-01-03T08:07:14Z</time>
      </trkpt>
      <trkpt lat="44.32707" lon="2.01486">
        <ele>253.9</ele>
        <time>2016-01-03T08:07:15Z</time>
      </trkpt>
      <trkpt lat="44.327" lon="2.01485">
        <ele>253.6</ele>
        <time>2016-01-03T08:07:16Z</time>
      </trkpt>
      <trkpt lat="44.32694" lon="2.01486">
        <ele>253.3</ele>
        <time>2016-01-03T08:07:17Z</time>
      </trkpt>
      <trkpt lat="44.32688" lon="2.01488">
        <ele>253.1</ele>
        <time>2016-01-03T08:07:18Z</time>
      </trkpt>
      <trkpt lat="44.32681" lon="2.01489">
        <ele>252.8</ele>
        <time>2016-01-03T08:07:19Z</time>
      </trkpt>
      <trkpt lat="44.32675" lon="2.0149">
        <ele>252.6</ele>
        <time>2016-01-03T08:07:20Z</time>
      </trkpt>
      <trkpt lat="44.32669" lon="2.01491">
        <ele>252.4</ele>
        <time>2016-01-03T08:07:21Z</time>
      </trkpt>
      <trkpt lat="44.32663" lon="2.01492">
        <ele>252.2</ele>
        <time>2016-01-03T08:07:22Z</time>
      </trkpt>
      <trkpt lat="44.32658" lon="2.01494">
        <ele>252</ele>
        <time>2016-01-03T08:07:23Z</time>
      </trkpt>
      <trkpt lat="44.32651" lon="2.01495">
        <ele>251.8</ele>
        <time>2016-01-03T08:07:24Z</time>
      </trkpt>
      <trkpt lat="44.32645" lon="2.01496">
        <ele>251.6</ele>
        <time>2016-01-03T08:07:25Z</time>
      </trkpt>
      <trkpt lat="44.32639" lon="2.01498">
        <ele>251.5</ele>
        <time>2016-01-03T08:07:26Z</time>
      </trkpt>
      <trkpt lat="44.32634" lon="2.01501">
        <ele>251.4</ele>
        <time>2016-01-03T08:07:27Z</time>
      </trkpt>
      <trkpt lat="44.32628" lon="2.01503">
        <ele>251.4</ele>
        <time>2016-01-03T08:07:28Z</time>
      </trkpt>
      <trkpt lat="44.32622" lon="2.01505">
        <ele>251.2</ele>
        <time>2016-01-03T08:07:29Z</time>
      </trkpt>
      <trkpt lat="44.32618" lon="2.01507">
        <ele>251.2</ele>
        <time>2016-01-03T08:07:30Z</time>
      </trkpt>
      <trkpt lat="44.32611" lon="2.01508">
        <ele>250.9</ele>
        <time>2016-01-03T08:07:31Z</time>
      </trkpt>
      <trkpt lat="44.32605" lon="2.01509">
        <ele>250.8</ele>
        <time>2016-01-03T08:07:32Z</time>
      </trkpt>
      <trkpt lat="44.326" lon="2.01511">
        <ele>250.6</ele>
        <time>2016-01-03T08:07:33Z</time>
      </trkpt>
      <trkpt lat="44.32595" lon="2.01514">
        <ele>250.5</ele>
        <time>2016-01-03T08:07:34Z</time>
      </trkpt>
      <trkpt lat="44.3259" lon="2.01518">
        <ele>250.5</ele>
        <time>2016-01-03T08:07:35Z</time>
      </trkpt>
      <trkpt lat="44.32584" lon="2.01521">
        <ele>250.4</ele>
        <time>2016-01-03T08:07:36Z</time>
      </trkpt>
      <trkpt lat="44.32579" lon="2.01526">
        <ele>250.4</ele>
        <time>2016-01-03T08:07:37Z</time>
      </trkpt>
      <trkpt lat="44.32574" lon="2.01529">
        <ele>250.3</ele>
        <time>2016-01-03T08:07:38Z</time>
      </trkpt>
      <trkpt lat="44.32569" lon="2.01532">
        <ele>250.2</ele>
        <time>2016-01-03T08:07:39Z</time>
      </trkpt>
      <trkpt lat="44.32564" lon="2.01535">
        <ele>250</ele>
        <time>2016-01-03T08:07:40Z</time>
      </trkpt>
      <trkpt lat="44.32559" lon="2.01537">
        <ele>249.8</ele>
        <time>2016-01-03T08:07:41Z</time>
      </trkpt>
      <trkpt lat="44.32554" lon="2.01541">
        <ele>249.7</ele>
        <time>2016-01-03T08:07:42Z</time>
      </trkpt>
      <trkpt lat="44.32548" lon="2.01543">
        <ele>249.4</ele>
        <time>2016-01-03T08:07:43Z</time>
      </trkpt>
      <trkpt lat="44.32544" lon="2.01546">
        <ele>249.3</ele>
        <time>2016-01-03T08:07:44Z</time>
      </trkpt>
      <trkpt lat="44.32539" lon="2.01549">
        <ele>249.1</ele>
        <time>2016-01-03T08:07:45Z</time>
      </trkpt>
      <trkpt lat="44.32533" lon="2.01551">
        <ele>249</ele>
        <time>2016-01-03T08:07:46Z</time>
      </trkpt>
      <trkpt lat="44.32528" lon="2.01553">
        <ele>248.9</ele>
        <time>2016-01-03T08:07:47Z</time>
      </trkpt>
      <trkpt lat="44.32523" lon="2.01557">
        <ele>248.9</ele>
        <time>2016-01-03T08:07:48Z</time>
      </trkpt>
      <trkpt lat="44.32518" lon="2.0156">
        <ele>248.8</ele>
        <time>2016-01-03T08:07:49Z</time>
      </trkpt>
      <trkpt lat="44.32513" lon="2.0156">
        <ele>248.6</ele>
        <time>2016-01-03T08:07:50Z</time>
      </trkpt>
      <trkpt lat="44.32507" lon="2.01561">
        <ele>248.5</ele>
        <time>2016-01-03T08:07:51Z</time>
      </trkpt>
      <trkpt lat="44.32502" lon="2.01564">
        <ele>248.4</ele>
        <time>2016-01-03T08:07:52Z</time>
      </trkpt>
      <trkpt lat="44.32497" lon="2.01565">
        <ele>248.2</ele>
        <time>2016-01-03T08:07:53Z</time>
      </trkpt>
      <trkpt lat="44.32491" lon="2.01567">
        <ele>248.1</ele>
        <time>2016-01-03T08:07:54Z</time>
      </trkpt>
      <trkpt lat="44.32485" lon="2.0157">
        <ele>248</ele>
        <time>2016-01-03T08:07:55Z</time>
      </trkpt>
      <trkpt lat="44.32481" lon="2.01573">
        <ele>247.9</ele>
        <time>2016-01-03T08:07:56Z</time>
      </trkpt>
      <trkpt lat="44.32477" lon="2.01576">
        <ele>247.9</ele>
        <time>2016-01-03T08:07:57Z</time>
      </trkpt>
      <trkpt lat="44.32472" lon="2.01579">
        <ele>247.8</ele>
        <time>2016-01-03T08:07:58Z</time>
      </trkpt>
      <trkpt lat="44.32467" lon="2.01582">
        <ele>247.8</ele>
        <time>2016-01-03T08:07:59Z</time>
      </trkpt>
      <trkpt lat="44.32462" lon="2.01585">
        <ele>247.7</ele>
        <time>2016-01-03T08:08:00Z</time>
      </trkpt>
      <trkpt lat="44.32457" lon="2.01587">
        <ele>247.6</ele>
        <time>2016-01-03T08:08:01Z</time>
      </trkpt>
      <trkpt lat="44.32451" lon="2.01589">
        <ele>247.6</ele>
        <time>2016-01-03T08:08:02Z</time>
      </trkpt>
      <trkpt lat="44.32446" lon="2.0159">
        <ele>247.6</ele>
        <time>2016-01-03T08:08:03Z</time>
      </trkpt>
      <trkpt lat="44.32441" lon="2.01591">
        <ele>247.6</ele>
        <time>2016-01-03T08:08:04Z</time>
      </trkpt>
      <trkpt lat="44.32436" lon="2.01592">
        <ele>247.6</ele>
        <time>2016-01-03T08:08:05Z</time>
      </trkpt>
      <trkpt lat="44.32431" lon="2.01595">
        <ele>247.6</ele>
        <time>2016-01-03T08:08:06Z</time>
      </trkpt>
      <trkpt lat="44.32425" lon="2.01598">
        <ele>247.6</ele>
        <time>2016-01-03T08:08:07Z</time>
      </trkpt>
      <trkpt lat="44.32419" lon="2.016">
        <ele>247.6</ele>
        <time>2016-01-03T08:08:08Z</time>
      </trkpt>
      <trkpt lat="44.32413" lon="2.01603">
        <ele>247.6</ele>
        <time>2016-01-03T08:08:09Z</time>
      </trkpt>
      <trkpt lat="44.32408" lon="2.01606">
        <ele>247.7</ele>
        <time>2016-01-03T08:08:10Z</time>
      </trkpt>
      <trkpt lat="44.32403" lon="2.01609">
        <ele>247.7</ele>
        <time>2016-01-03T08:08:11Z</time>
      </trkpt>
      <trkpt lat="44.32397" lon="2.01611">
        <ele>247.8</ele>
        <time>2016-01-03T08:08:12Z</time>
      </trkpt>
      <trkpt lat="44.32391" lon="2.01614">
        <ele>247.8</ele>
        <time>2016-01-03T08:08:13Z</time>
      </trkpt>
      <trkpt lat="44.32385" lon="2.01617">
        <ele>247.8</ele>
        <time>2016-01-03T08:08:14Z</time>
      </trkpt>
      <trkpt lat="44.3238" lon="2.01621">
        <ele>247.9</ele>
        <time>2016-01-03T08:08:15Z</time>
      </trkpt>
      <trkpt lat="44.32374" lon="2.01625">
        <ele>248</ele>
        <time>2016-01-03T08:08:16Z</time>
      </trkpt>
      <trkpt lat="44.32369" lon="2.01626">
        <ele>247.9</ele>
        <time>2016-01-03T08:08:17Z</time>
      </trkpt>
      <trkpt lat="44.32364" lon="2.01627">
        <ele>247.9</ele>
        <time>2016-01-03T08:08:18Z</time>
      </trkpt>
      <trkpt lat="44.32359" lon="2.0163">
        <ele>247.9</ele>
        <time>2016-01-03T08:08:19Z</time>
      </trkpt>
      <trkpt lat="44.32353" lon="2.01631">
        <ele>247.9</ele>
        <time>2016-01-03T08:08:20Z</time>
      </trkpt>
      <trkpt lat="44.32348" lon="2.01633">
        <ele>247.8</ele>
        <time>2016-01-03T08:08:21Z</time>
      </trkpt>
      <trkpt lat="44.32344" lon="2.01637">
        <ele>247.9</ele>
        <time>2016-01-03T08:08:22Z</time>
      </trkpt>
      <trkpt lat="44.32339" lon="2.01639">
        <ele>247.8</ele>
        <time>2016-01-03T08:08:23Z</time>
      </trkpt>
      <trkpt lat="44.32336" lon="2.01641">
        <ele>247.8</ele>
        <time>2016-01-03T08:08:24Z</time>
      </trkpt>
      <trkpt lat="44.32331" lon="2.01644">
        <ele>247.8</ele>
        <time>2016-01-03T08:08:25Z</time>
      </trkpt>
      <trkpt lat="44.32327" lon="2.01647">
        <ele>247.8</ele>
        <time>2016-01-03T08:08:26Z</time>
      </trkpt>
      <trkpt lat="44.32323" lon="2.0165">
        <ele>247.8</ele>
        <time>2016-01-03T08:08:27Z</time>
      </trkpt>
      <trkpt lat="44.3232" lon="2.01651">
        <ele>247.8</ele>
        <time>2016-01-03T08:08:28Z</time>
      </trkpt>
      <trkpt lat="44.32315" lon="2.01657">
        <ele>247.8</ele>
        <time>2016-01-03T08:08:29Z</time>
      </trkpt>
      <trkpt lat="44.3231" lon="2.01659">
        <ele>247.7</ele>
        <time>2016-01-03T08:08:30Z</time>
      </trkpt>
      <trkpt lat="44.32306" lon="2.01661">
        <ele>247.7</ele>
        <time>2016-01-03T08:08:31Z</time>
      </trkpt>
      <trkpt lat="44.32302" lon="2.01663">
        <ele>247.6</ele>
        <time>2016-01-03T08:08:32Z</time>
      </trkpt>
      <trkpt lat="44.32298" lon="2.01665">
        <ele>247.6</ele>
        <time>2016-01-03T08:08:33Z</time>
      </trkpt>
      <trkpt lat="44.32294" lon="2.01667">
        <ele>247.5</ele>
        <time>2016-01-03T08:08:34Z</time>
      </trkpt>
      <trkpt lat="44.32289" lon="2.0167">
        <ele>247.5</ele>
        <time>2016-01-03T08:08:35Z</time>
      </trkpt>
      <trkpt lat="44.32284" lon="2.01672">
        <ele>247.4</ele>
        <time>2016-01-03T08:08:36Z</time>
      </trkpt>
      <trkpt lat="44.32279" lon="2.01675">
        <ele>247.3</ele>
        <time>2016-01-03T08:08:37Z</time>
      </trkpt>
      <trkpt lat="44.32274" lon="2.01677">
        <ele>247.3</ele>
        <time>2016-01-03T08:08:38Z</time>
      </trkpt>
      <trkpt lat="44.32269" lon="2.0168">
        <ele>247.2</ele>
        <time>2016-01-03T08:08:39Z</time>
      </trkpt>
      <trkpt lat="44.32264" lon="2.01682">
        <ele>247.1</ele>
        <time>2016-01-03T08:08:40Z</time>
      </trkpt>
      <trkpt lat="44.32259" lon="2.01683">
        <ele>247.1</ele>
        <time>2016-01-03T08:08:41Z</time>
      </trkpt>
      <trkpt lat="44.32253" lon="2.01686">
        <ele>247</ele>
        <time>2016-01-03T08:08:42Z</time>
      </trkpt>
      <trkpt lat="44.32248" lon="2.01688">
        <ele>247</ele>
        <time>2016-01-03T08:08:43Z</time>
      </trkpt>
      <trkpt lat="44.32243" lon="2.0169">
        <ele>246.9</ele>
        <time>2016-01-03T08:08:44Z</time>
      </trkpt>
      <trkpt lat="44.32238" lon="2.01692">
        <ele>246.9</ele>
        <time>2016-01-03T08:08:45Z</time>
      </trkpt>
      <trkpt lat="44.32234" lon="2.01695">
        <ele>246.9</ele>
        <time>2016-01-03T08:08:46Z</time>
      </trkpt>
      <trkpt lat="44.3223" lon="2.01697">
        <ele>246.9</ele>
        <time>2016-01-03T08:08:47Z</time>
      </trkpt>
      <trkpt lat="44.32226" lon="2.01699">
        <ele>246.9</ele>
        <time>2016-01-03T08:08:48Z</time>
      </trkpt>
      <trkpt lat="44.32221" lon="2.01701">
        <ele>246.9</ele>
        <time>2016-01-03T08:08:49Z</time>
      </trkpt>
      <trkpt lat="44.32217" lon="2.01703">
        <ele>246.9</ele>
        <time>2016-01-03T08:08:50Z</time>
      </trkpt>
      <trkpt lat="44.32214" lon="2.01705">
        <ele>246.9</ele>
        <time>2016-01-03T08:08:51Z</time>
      </trkpt>
      <trkpt lat="44.32209" lon="2.01706">
        <ele>246.9</ele>
        <time>2016-01-03T08:08:52Z</time>
      </trkpt>
      <trkpt lat="44.32205" lon="2.01707">
        <ele>246.9</ele>
        <time>2016-01-03T08:08:53Z</time>
      </trkpt>
      <trkpt lat="44.32201" lon="2.01709">
        <ele>246.9</ele>
        <time>2016-01-03T08:08:54Z</time>
      </trkpt>
      <trkpt lat="44.32197" lon="2.01711">
        <ele>246.9</ele>
        <time>2016-01-03T08:08:55Z</time>
      </trkpt>
      <trkpt lat="44.32194" lon="2.01713">
        <ele>246.9</ele>
        <time>2016-01-03T08:08:56Z</time>
      </trkpt>
      <trkpt lat="44.3219" lon="2.01716">
        <ele>247</ele>
        <time>2016-01-03T08:08:57Z</time>
      </trkpt>
      <trkpt lat="44.32186" lon="2.01717">
        <ele>246.9</ele>
        <time>2016-01-03T08:08:58Z</time>
      </trkpt>
      <trkpt lat="44.32182" lon="2.01718">
        <ele>246.9</ele>
        <time>2016-01-03T08:08:59Z</time>
      </trkpt>
      <trkpt lat="44.32179" lon="2.0172">
        <ele>246.9</ele>
        <time>2016-01-03T08:09:00Z</time>
      </trkpt>
      <trkpt lat="44.32175" lon="2.0172">
        <ele>246.9</ele>
        <time>2016-01-03T08:09:01Z</time>
      </trkpt>
      <trkpt lat="44.32171" lon="2.01723">
        <ele>246.9</ele>
        <time>2016-01-03T08:09:02Z</time>
      </trkpt>
      <trkpt lat="44.32167" lon="2.01725">
        <ele>246.9</ele>
        <time>2016-01-03T08:09:03Z</time>
      </trkpt>
      <trkpt lat="44.32163" lon="2.01727">
        <ele>246.9</ele>
        <time>2016-01-03T08:09:04Z</time>
      </trkpt>
      <trkpt lat="44.32159" lon="2.01729">
        <ele>246.9</ele>
        <time>2016-01-03T08:09:05Z</time>
      </trkpt>
      <trkpt lat="44.32155" lon="2.01731">
        <ele>246.9</ele>
        <time>2016-01-03T08:09:06Z</time>
      </trkpt>
      <trkpt lat="44.32151" lon="2.01733">
        <ele>246.9</ele>
        <time>2016-01-03T08:09:07Z</time>
      </trkpt>
      <trkpt lat="44.32147" lon="2.01735">
        <ele>246.9</ele>
        <time>2016-01-03T08:09:08Z</time>
      </trkpt>
      <trkpt lat="44.32144" lon="2.01737">
        <ele>246.9</ele>
        <time>2016-01-03T08:09:09Z</time>
      </trkpt>
      <trkpt lat="44.3214" lon="2.01739">
        <ele>246.9</ele>
        <time>2016-01-03T08:09:10Z</time>
      </trkpt>
      <trkpt lat="44.32136" lon="2.0174">
        <ele>246.9</ele>
        <time>2016-01-03T08:09:11Z</time>
      </trkpt>
      <trkpt lat="44.32132" lon="2.01742">
        <ele>246.9</ele>
        <time>2016-01-03T08:09:12Z</time>
      </trkpt>
      <trkpt lat="44.32128" lon="2.01744">
        <ele>246.9</ele>
        <time>2016-01-03T08:09:13Z</time>
      </trkpt>
      <trkpt lat="44.32124" lon="2.01746">
        <ele>246.9</ele>
        <time>2016-01-03T08:09:14Z</time>
      </trkpt>
      <trkpt lat="44.3212" lon="2.01748">
        <ele>246.9</ele>
        <time>2016-01-03T08:09:15Z</time>
      </trkpt>
      <trkpt lat="44.32117" lon="2.01749">
        <ele>246.9</ele>
        <time>2016-01-03T08:09:16Z</time>
      </trkpt>
      <trkpt lat="44.32113" lon="2.01751">
        <ele>246.9</ele>
        <time>2016-01-03T08:09:17Z</time>
      </trkpt>
      <trkpt lat="44.32109" lon="2.01753">
        <ele>246.9</ele>
        <time>2016-01-03T08:09:18Z</time>
      </trkpt>
      <trkpt lat="44.32105" lon="2.01754">
        <ele>246.9</ele>
        <time>2016-01-03T08:09:19Z</time>
      </trkpt>
      <trkpt lat="44.32101" lon="2.01756">
        <ele>246.9</ele>
        <time>2016-01-03T08:09:20Z</time>
      </trkpt>
      <trkpt lat="44.32098" lon="2.01758">
        <ele>246.9</ele>
        <time>2016-01-03T08:09:21Z</time>
      </trkpt>
      <trkpt lat="44.32094" lon="2.0176">
        <ele>246.9</ele>
        <time>2016-01-03T08:09:22Z</time>
      </trkpt>
      <trkpt lat="44.3209" lon="2.01762">
        <ele>246.9</ele>
        <time>2016-01-03T08:09:23Z</time>
      </trkpt>
      <trkpt lat="44.32086" lon="2.01764">
        <ele>246.9</ele>
        <time>2016-01-03T08:09:24Z</time>
      </trkpt>
      <trkpt lat="44.32082" lon="2.01766">
        <ele>246.9</ele>
        <time>2016-01-03T08:09:25Z</time>
      </trkpt>
      <trkpt lat="44.32079" lon="2.01768">
        <ele>246.9</ele>
        <time>2016-01-03T08:09:26Z</time>
      </trkpt>
      <trkpt lat="44.32075" lon="2.0177">
        <ele>246.9</ele>
        <time>2016-01-03T08:09:27Z</time>
      </trkpt>
      <trkpt lat="44.32071" lon="2.01771">
        <ele>246.8</ele>
        <time>2016-01-03T08:09:28Z</time>
      </trkpt>
      <trkpt lat="44.32068" lon="2.01771">
        <ele>246.8</ele>
        <time>2016-01-03T08:09:29Z</time>
      </trkpt>
      <trkpt lat="44.32064" lon="2.01773">
        <ele>246.8</ele>
        <time>2016-01-03T08:09:30Z</time>
      </trkpt>
      <trkpt lat="44.3206" lon="2.01774">
        <ele>246.8</ele>
        <time>2016-01-03T08:09:31Z</time>
      </trkpt>
      <trkpt lat="44.32057" lon="2.01775">
        <ele>246.8</ele>
        <time>2016-01-03T08:09:32Z</time>
      </trkpt>
      <trkpt lat="44.32053" lon="2.01778">
        <ele>246.8</ele>
        <time>2016-01-03T08:09:33Z</time>
      </trkpt>
      <trkpt lat="44.32049" lon="2.0178">
        <ele>246.8</ele>
        <time>2016-01-03T08:09:34Z</time>
      </trkpt>
      <trkpt lat="44.32045" lon="2.01781">
        <ele>246.8</ele>
        <time>2016-01-03T08:09:35Z</time>
      </trkpt>
      <trkpt lat="44.32042" lon="2.01783">
        <ele>246.8</ele>
        <time>2016-01-03T08:09:36Z</time>
      </trkpt>
      <trkpt lat="44.32038" lon="2.01785">
        <ele>246.8</ele>
        <time>2016-01-03T08:09:37Z</time>
      </trkpt>
      <trkpt lat="44.32034" lon="2.01787">
        <ele>246.8</ele>
        <time>2016-01-03T08:09:38Z</time>
      </trkpt>
      <trkpt lat="44.32031" lon="2.01789">
        <ele>246.8</ele>
        <time>2016-01-03T08:09:39Z</time>
      </trkpt>
      <trkpt lat="44.32027" lon="2.0179">
        <ele>246.8</ele>
        <time>2016-01-03T08:09:40Z</time>
      </trkpt>
      <trkpt lat="44.32023" lon="2.01791">
        <ele>246.8</ele>
        <time>2016-01-03T08:09:41Z</time>
      </trkpt>
      <trkpt lat="44.3202" lon="2.01792">
        <ele>246.8</ele>
        <time>2016-01-03T08:09:42Z</time>
      </trkpt>
      <trkpt lat="44.32016" lon="2.01794">
        <ele>246.8</ele>
        <time>2016-01-03T08:09:43Z</time>
      </trkpt>
      <trkpt lat="44.32013" lon="2.01795">
        <ele>246.8</ele>
        <time>2016-01-03T08:09:44Z</time>
      </trkpt>
      <trkpt lat="44.32009" lon="2.01796">
        <ele>246.8</ele>
        <time>2016-01-03T08:09:45Z</time>
      </trkpt>
      <trkpt lat="44.32005" lon="2.01798">
        <ele>246.8</ele>
        <time>2016-01-03T08:09:46Z</time>
      </trkpt>
      <trkpt lat="44.32" lon="2.018">
        <ele>246.8</ele>
        <time>2016-01-03T08:09:47Z</time>
      </trkpt>
      <trkpt lat="44.31996" lon="2.01802">
        <ele>246.8</ele>
        <time>2016-01-03T08:09:48Z</time>
      </trkpt>
      <trkpt lat="44.31991" lon="2.01804">
        <ele>246.8</ele>
        <time>2016-01-03T08:09:49Z</time>
      </trkpt>
      <trkpt lat="44.31987" lon="2.01807">
        <ele>246.8</ele>
        <time>2016-01-03T08:09:50Z</time>
      </trkpt>
      <trkpt lat="44.31982" lon="2.0181">
        <ele>246.8</ele>
        <time>2016-01-03T08:09:51Z</time>
      </trkpt>
      <trkpt lat="44.31978" lon="2.01812">
        <ele>246.8</ele>
        <time>2016-01-03T08:09:52Z</time>
      </trkpt>
      <trkpt lat="44.31973" lon="2.01814">
        <ele>246.8</ele>
        <time>2016-01-03T08:09:53Z</time>
      </trkpt>
      <trkpt lat="44.31968" lon="2.01816">
        <ele>246.8</ele>
        <time>2016-01-03T08:09:54Z</time>
      </trkpt>
      <trkpt lat="44.31963" lon="2.01819">
        <ele>246.7</ele>
        <time>2016-01-03T08:09:55Z</time>
      </trkpt>
      <trkpt lat="44.31959" lon="2.01821">
        <ele>246.7</ele>
        <time>2016-01-03T08:09:56Z</time>
      </trkpt>
      <trkpt lat="44.31955" lon="2.01824">
        <ele>246.7</ele>
        <time>2016-01-03T08:09:57Z</time>
      </trkpt>
      <trkpt lat="44.3195" lon="2.01827">
        <ele>246.8</ele>
        <time>2016-01-03T08:09:58Z</time>
      </trkpt>
      <trkpt lat="44.31945" lon="2.01829">
        <ele>246.8</ele>
        <time>2016-01-03T08:09:59Z</time>
      </trkpt>
      <trkpt lat="44.3194" lon="2.01831">
        <ele>246.8</ele>
        <time>2016-01-03T08:10:00Z</time>
      </trkpt>
      <trkpt lat="44.31935" lon="2.01833">
        <ele>246.9</ele>
        <time>2016-01-03T08:10:01Z</time>
      </trkpt>
      <trkpt lat="44.3193" lon="2.01835">
        <ele>246.9</ele>
        <time>2016-01-03T08:10:02Z</time>
      </trkpt>
      <trkpt lat="44.31925" lon="2.01838">
        <ele>246.9</ele>
        <time>2016-01-03T08:10:03Z</time>
      </trkpt>
      <trkpt lat="44.3192" lon="2.01841">
        <ele>247</ele>
        <time>2016-01-03T08:10:04Z</time>
      </trkpt>
      <trkpt lat="44.31915" lon="2.01844">
        <ele>247.1</ele>
        <time>2016-01-03T08:10:05Z</time>
      </trkpt>
      <trkpt lat="44.31911" lon="2.01847">
        <ele>247.1</ele>
        <time>2016-01-03T08:10:06Z</time>
      </trkpt>
      <trkpt lat="44.31906" lon="2.0185">
        <ele>247.2</ele>
        <time>2016-01-03T08:10:07Z</time>
      </trkpt>
      <trkpt lat="44.319" lon="2.01852">
        <ele>247.3</ele>
        <time>2016-01-03T08:10:08Z</time>
      </trkpt>
      <trkpt lat="44.31895" lon="2.01855">
        <ele>247.3</ele>
        <time>2016-01-03T08:10:09Z</time>
      </trkpt>
      <trkpt lat="44.31891" lon="2.01857">
        <ele>247.4</ele>
        <time>2016-01-03T08:10:10Z</time>
      </trkpt>
      <trkpt lat="44.31886" lon="2.0186">
        <ele>247.5</ele>
        <time>2016-01-03T08:10:11Z</time>
      </trkpt>
      <trkpt lat="44.31881" lon="2.01862">
        <ele>247.5</ele>
        <time>2016-01-03T08:10:12Z</time>
      </trkpt>
      <trkpt lat="44.31876" lon="2.01864">
        <ele>247.6</ele>
        <time>2016-01-03T08:10:13Z</time>
      </trkpt>
      <trkpt lat="44.31872" lon="2.01867">
        <ele>247.7</ele>
        <time>2016-01-03T08:10:14Z</time>
      </trkpt>
      <trkpt lat="44.31867" lon="2.01868">
        <ele>247.7</ele>
        <time>2016-01-03T08:10:15Z</time>
      </trkpt>
      <trkpt lat="44.31863" lon="2.0187">
        <ele>247.7</ele>
        <time>2016-01-03T08:10:16Z</time>
      </trkpt>
      <trkpt lat="44.31858" lon="2.01872">
        <ele>247.7</ele>
        <time>2016-01-03T08:10:17Z</time>
      </trkpt>
      <trkpt lat="44.31854" lon="2.01874">
        <ele>247.7</ele>
        <time>2016-01-03T08:10:18Z</time>
      </trkpt>
      <trkpt lat="44.3185" lon="2.01876">
        <ele>247.7</ele>
        <time>2016-01-03T08:10:19Z</time>
      </trkpt>
      <trkpt lat="44.31845" lon="2.01878">
        <ele>247.7</ele>
        <time>2016-01-03T08:10:20Z</time>
      </trkpt>
      <trkpt lat="44.31841" lon="2.0188">
        <ele>247.6</ele>
        <time>2016-01-03T08:10:21Z</time>
      </trkpt>
      <trkpt lat="44.31837" lon="2.01881">
        <ele>247.6</ele>
        <time>2016-01-03T08:10:22Z</time>
      </trkpt>
      <trkpt lat="44.31832" lon="2.01883">
        <ele>247.6</ele>
        <time>2016-01-03T08:10:23Z</time>
      </trkpt>
      <trkpt lat="44.31828" lon="2.01885">
        <ele>247.5</ele>
        <time>2016-01-03T08:10:24Z</time>
      </trkpt>
      <trkpt lat="44.31823" lon="2.01887">
        <ele>247.5</ele>
        <time>2016-01-03T08:10:25Z</time>
      </trkpt>
      <trkpt lat="44.31819" lon="2.01889">
        <ele>247.5</ele>
        <time>2016-01-03T08:10:26Z</time>
      </trkpt>
      <trkpt lat="44.31814" lon="2.0189">
        <ele>247.4</ele>
        <time>2016-01-03T08:10:27Z</time>
      </trkpt>
      <trkpt lat="44.31809" lon="2.01893">
        <ele>247.4</ele>
        <time>2016-01-03T08:10:28Z</time>
      </trkpt>
      <trkpt lat="44.31805" lon="2.01895">
        <ele>247.4</ele>
        <time>2016-01-03T08:10:29Z</time>
      </trkpt>
      <trkpt lat="44.318" lon="2.01897">
        <ele>247.4</ele>
        <time>2016-01-03T08:10:30Z</time>
      </trkpt>
      <trkpt lat="44.31795" lon="2.019">
        <ele>247.3</ele>
        <time>2016-01-03T08:10:31Z</time>
      </trkpt>
      <trkpt lat="44.31791" lon="2.01902">
        <ele>247.3</ele>
        <time>2016-01-03T08:10:32Z</time>
      </trkpt>
      <trkpt lat="44.31786" lon="2.01904">
        <ele>247.2</ele>
        <time>2016-01-03T08:10:33Z</time>
      </trkpt>
      <trkpt lat="44.31781" lon="2.01906">
        <ele>247.1</ele>
        <time>2016-01-03T08:10:34Z</time>
      </trkpt>
      <trkpt lat="44.31777" lon="2.01909">
        <ele>247</ele>
        <time>2016-01-03T08:10:35Z</time>
      </trkpt>
      <trkpt lat="44.31772" lon="2.01912">
        <ele>247</ele>
        <time>2016-01-03T08:10:36Z</time>
      </trkpt>
      <trkpt lat="44.31768" lon="2.01914">
        <ele>246.9</ele>
        <time>2016-01-03T08:10:37Z</time>
      </trkpt>
      <trkpt lat="44.31764" lon="2.01916">
        <ele>246.8</ele>
        <time>2016-01-03T08:10:38Z</time>
      </trkpt>
      <trkpt lat="44.31759" lon="2.01917">
        <ele>246.7</ele>
        <time>2016-01-03T08:10:39Z</time>
      </trkpt>
      <trkpt lat="44.31754" lon="2.0192">
        <ele>246.7</ele>
        <time>2016-01-03T08:10:40Z</time>
      </trkpt>
      <trkpt lat="44.3175" lon="2.01923">
        <ele>246.6</ele>
        <time>2016-01-03T08:10:41Z</time>
      </trkpt>
      <trkpt lat="44.31745" lon="2.01925">
        <ele>246.6</ele>
        <time>2016-01-03T08:10:42Z</time>
      </trkpt>
      <trkpt lat="44.3174" lon="2.01928">
        <ele>246.6</ele>
        <time>2016-01-03T08:10:43Z</time>
      </trkpt>
      <trkpt lat="44.31736" lon="2.0193">
        <ele>246.5</ele>
        <time>2016-01-03T08:10:44Z</time>
      </trkpt>
      <trkpt lat="44.31731" lon="2.01932">
        <ele>246.5</ele>
        <time>2016-01-03T08:10:45Z</time>
      </trkpt>
      <trkpt lat="44.31727" lon="2.01934">
        <ele>246.5</ele>
        <time>2016-01-03T08:10:46Z</time>
      </trkpt>
      <trkpt lat="44.31722" lon="2.01936">
        <ele>246.4</ele>
        <time>2016-01-03T08:10:47Z</time>
      </trkpt>
      <trkpt lat="44.31718" lon="2.01937">
        <ele>246.4</ele>
        <time>2016-01-03T08:10:48Z</time>
      </trkpt>
      <trkpt lat="44.31714" lon="2.01938">
        <ele>246.3</ele>
        <time>2016-01-03T08:10:49Z</time>
      </trkpt>
      <trkpt lat="44.31709" lon="2.01939">
        <ele>246.3</ele>
        <time>2016-01-03T08:10:50Z</time>
      </trkpt>
      <trkpt lat="44.31705" lon="2.01941">
        <ele>246.2</ele>
        <time>2016-01-03T08:10:51Z</time>
      </trkpt>
      <trkpt lat="44.317" lon="2.01943">
        <ele>246.1</ele>
        <time>2016-01-03T08:10:52Z</time>
      </trkpt>
      <trkpt lat="44.31695" lon="2.01945">
        <ele>245.9</ele>
        <time>2016-01-03T08:10:53Z</time>
      </trkpt>
      <trkpt lat="44.31691" lon="2.01948">
        <ele>245.8</ele>
        <time>2016-01-03T08:10:54Z</time>
      </trkpt>
      <trkpt lat="44.31686" lon="2.01951">
        <ele>245.7</ele>
        <time>2016-01-03T08:10:55Z</time>
      </trkpt>
      <trkpt lat="44.31682" lon="2.01954">
        <ele>245.6</ele>
        <time>2016-01-03T08:10:56Z</time>
      </trkpt>
      <trkpt lat="44.31678" lon="2.01956">
        <ele>245.5</ele>
        <time>2016-01-03T08:10:57Z</time>
      </trkpt>
      <trkpt lat="44.31673" lon="2.01959">
        <ele>245.3</ele>
        <time>2016-01-03T08:10:58Z</time>
      </trkpt>
      <trkpt lat="44.31669" lon="2.01961">
        <ele>245.2</ele>
        <time>2016-01-03T08:10:59Z</time>
      </trkpt>
      <trkpt lat="44.31665" lon="2.01963">
        <ele>245</ele>
        <time>2016-01-03T08:11:00Z</time>
      </trkpt>
      <trkpt lat="44.3166" lon="2.01965">
        <ele>244.9</ele>
        <time>2016-01-03T08:11:01Z</time>
      </trkpt>
      <trkpt lat="44.31656" lon="2.01967">
        <ele>244.8</ele>
        <time>2016-01-03T08:11:02Z</time>
      </trkpt>
      <trkpt lat="44.31652" lon="2.01969">
        <ele>244.7</ele>
        <time>2016-01-03T08:11:03Z</time>
      </trkpt>
      <trkpt lat="44.31648" lon="2.01972">
        <ele>244.6</ele>
        <time>2016-01-03T08:11:04Z</time>
      </trkpt>
      <trkpt lat="44.31645" lon="2.01974">
        <ele>244.5</ele>
        <time>2016-01-03T08:11:05Z</time>
      </trkpt>
      <trkpt lat="44.31641" lon="2.01976">
        <ele>244.4</ele>
        <time>2016-01-03T08:11:06Z</time>
      </trkpt>
      <trkpt lat="44.31637" lon="2.01978">
        <ele>244.3</ele>
        <time>2016-01-03T08:11:07Z</time>
      </trkpt>
      <trkpt lat="44.31633" lon="2.0198">
        <ele>244.1</ele>
        <time>2016-01-03T08:11:08Z</time>
      </trkpt>
      <trkpt lat="44.31629" lon="2.01982">
        <ele>244</ele>
        <time>2016-01-03T08:11:09Z</time>
      </trkpt>
      <trkpt lat="44.31625" lon="2.01984">
        <ele>243.9</ele>
        <time>2016-01-03T08:11:10Z</time>
      </trkpt>
      <trkpt lat="44.31621" lon="2.01986">
        <ele>244</ele>
        <time>2016-01-03T08:11:11Z</time>
      </trkpt>
      <trkpt lat="44.31617" lon="2.01988">
        <ele>244.1</ele>
        <time>2016-01-03T08:11:12Z</time>
      </trkpt>
      <trkpt lat="44.31614" lon="2.0199">
        <ele>244.3</ele>
        <time>2016-01-03T08:11:13Z</time>
      </trkpt>
      <trkpt lat="44.3161" lon="2.01992">
        <ele>244.4</ele>
        <time>2016-01-03T08:11:14Z</time>
      </trkpt>
      <trkpt lat="44.31607" lon="2.01994">
        <ele>244.5</ele>
        <time>2016-01-03T08:11:15Z</time>
      </trkpt>
      <trkpt lat="44.31603" lon="2.01996">
        <ele>244.6</ele>
        <time>2016-01-03T08:11:16Z</time>
      </trkpt>
      <trkpt lat="44.316" lon="2.01998">
        <ele>244.7</ele>
        <time>2016-01-03T08:11:17Z</time>
      </trkpt>
      <trkpt lat="44.31596" lon="2.02">
        <ele>244.9</ele>
        <time>2016-01-03T08:11:18Z</time>
      </trkpt>
      <trkpt lat="44.31592" lon="2.02002">
        <ele>245</ele>
        <time>2016-01-03T08:11:19Z</time>
      </trkpt>
      <trkpt lat="44.31589" lon="2.02003">
        <ele>245.1</ele>
        <time>2016-01-03T08:11:20Z</time>
      </trkpt>
      <trkpt lat="44.31585" lon="2.02005">
        <ele>245.2</ele>
        <time>2016-01-03T08:11:21Z</time>
      </trkpt>
      <trkpt lat="44.31581" lon="2.02007">
        <ele>245.4</ele>
        <time>2016-01-03T08:11:22Z</time>
      </trkpt>
      <trkpt lat="44.31578" lon="2.02009">
        <ele>245.5</ele>
        <time>2016-01-03T08:11:23Z</time>
      </trkpt>
      <trkpt lat="44.31574" lon="2.02011">
        <ele>245.6</ele>
        <time>2016-01-03T08:11:24Z</time>
      </trkpt>
      <trkpt lat="44.31571" lon="2.02012">
        <ele>245.8</ele>
        <time>2016-01-03T08:11:25Z</time>
      </trkpt>
      <trkpt lat="44.31567" lon="2.02014">
        <ele>245.9</ele>
        <time>2016-01-03T08:11:26Z</time>
      </trkpt>
      <trkpt lat="44.31564" lon="2.02015">
        <ele>246</ele>
        <time>2016-01-03T08:11:27Z</time>
      </trkpt>
      <trkpt lat="44.31561" lon="2.02017">
        <ele>246.2</ele>
        <time>2016-01-03T08:11:28Z</time>
      </trkpt>
      <trkpt lat="44.31558" lon="2.02019">
        <ele>246.3</ele>
        <time>2016-01-03T08:11:29Z</time>
      </trkpt>
      <trkpt lat="44.31554" lon="2.02021">
        <ele>246.5</ele>
        <time>2016-01-03T08:11:30Z</time>
      </trkpt>
      <trkpt lat="44.3155" lon="2.02025">
        <ele>246.8</ele>
        <time>2016-01-03T08:11:31Z</time>
      </trkpt>
      <trkpt lat="44.31547" lon="2.02026">
        <ele>247</ele>
        <time>2016-01-03T08:11:32Z</time>
      </trkpt>
      <trkpt lat="44.31544" lon="2.02027">
        <ele>247.1</ele>
        <time>2016-01-03T08:11:33Z</time>
      </trkpt>
      <trkpt lat="44.31541" lon="2.0203">
        <ele>247.3</ele>
        <time>2016-01-03T08:11:34Z</time>
      </trkpt>
      <trkpt lat="44.31538" lon="2.02032">
        <ele>247.4</ele>
        <time>2016-01-03T08:11:35Z</time>
      </trkpt>
      <trkpt lat="44.31534" lon="2.02035">
        <ele>247.6</ele>
        <time>2016-01-03T08:11:36Z</time>
      </trkpt>
      <trkpt lat="44.31531" lon="2.02037">
        <ele>247.7</ele>
        <time>2016-01-03T08:11:37Z</time>
      </trkpt>
      <trkpt lat="44.31528" lon="2.02039">
        <ele>247.8</ele>
        <time>2016-01-03T08:11:38Z</time>
      </trkpt>
      <trkpt lat="44.31524" lon="2.02041">
        <ele>247.9</ele>
        <time>2016-01-03T08:11:39Z</time>
      </trkpt>
      <trkpt lat="44.3152" lon="2.02042">
        <ele>248</ele>
        <time>2016-01-03T08:11:40Z</time>
      </trkpt>
      <trkpt lat="44.31517" lon="2.02044">
        <ele>248.1</ele>
        <time>2016-01-03T08:11:41Z</time>
      </trkpt>
      <trkpt lat="44.31513" lon="2.02045">
        <ele>248.2</ele>
        <time>2016-01-03T08:11:42Z</time>
      </trkpt>
      <trkpt lat="44.3151" lon="2.02047">
        <ele>248.3</ele>
        <time>2016-01-03T08:11:43Z</time>
      </trkpt>
      <trkpt lat="44.31506" lon="2.02048">
        <ele>248.4</ele>
        <time>2016-01-03T08:11:44Z</time>
      </trkpt>
      <trkpt lat="44.31503" lon="2.0205">
        <ele>248.5</ele>
        <time>2016-01-03T08:11:45Z</time>
      </trkpt>
      <trkpt lat="44.31499" lon="2.02051">
        <ele>248.6</ele>
        <time>2016-01-03T08:11:46Z</time>
      </trkpt>
      <trkpt lat="44.31495" lon="2.02052">
        <ele>248.6</ele>
        <time>2016-01-03T08:11:47Z</time>
      </trkpt>
      <trkpt lat="44.31491" lon="2.02053">
        <ele>248.7</ele>
        <time>2016-01-03T08:11:48Z</time>
      </trkpt>
      <trkpt lat="44.31487" lon="2.02053">
        <ele>248.7</ele>
        <time>2016-01-03T08:11:49Z</time>
      </trkpt>
      <trkpt lat="44.31483" lon="2.02053">
        <ele>248.7</ele>
        <time>2016-01-03T08:11:50Z</time>
      </trkpt>
      <trkpt lat="44.31479" lon="2.02052">
        <ele>248.6</ele>
        <time>2016-01-03T08:11:51Z</time>
      </trkpt>
      <trkpt lat="44.31475" lon="2.02052">
        <ele>248.6</ele>
        <time>2016-01-03T08:11:52Z</time>
      </trkpt>
      <trkpt lat="44.31471" lon="2.02052">
        <ele>248.6</ele>
        <time>2016-01-03T08:11:53Z</time>
      </trkpt>
      <trkpt lat="44.31467" lon="2.0205">
        <ele>248.5</ele>
        <time>2016-01-03T08:11:54Z</time>
      </trkpt>
      <trkpt lat="44.31462" lon="2.02049">
        <ele>248.4</ele>
        <time>2016-01-03T08:11:55Z</time>
      </trkpt>
      <trkpt lat="44.31457" lon="2.02047">
        <ele>248.3</ele>
        <time>2016-01-03T08:11:56Z</time>
      </trkpt>
      <trkpt lat="44.31452" lon="2.02045">
        <ele>248</ele>
        <time>2016-01-03T08:11:57Z</time>
      </trkpt>
      <trkpt lat="44.31445" lon="2.02043">
        <ele>247.8</ele>
        <time>2016-01-03T08:11:58Z</time>
      </trkpt>
      <trkpt lat="44.31439" lon="2.02042">
        <ele>247.5</ele>
        <time>2016-01-03T08:11:59Z</time>
      </trkpt>
      <trkpt lat="44.31434" lon="2.0204">
        <ele>247.3</ele>
        <time>2016-01-03T08:12:00Z</time>
      </trkpt>
      <trkpt lat="44.31428" lon="2.02039">
        <ele>247.2</ele>
        <time>2016-01-03T08:12:01Z</time>
      </trkpt>
      <trkpt lat="44.31422" lon="2.02037">
        <ele>246.9</ele>
        <time>2016-01-03T08:12:02Z</time>
      </trkpt>
      <trkpt lat="44.31415" lon="2.02036">
        <ele>246.7</ele>
        <time>2016-01-03T08:12:03Z</time>
      </trkpt>
      <trkpt lat="44.31409" lon="2.02035">
        <ele>246.5</ele>
        <time>2016-01-03T08:12:04Z</time>
      </trkpt>
      <trkpt lat="44.31402" lon="2.02033">
        <ele>246.3</ele>
        <time>2016-01-03T08:12:05Z</time>
      </trkpt>
      <trkpt lat="44.31395" lon="2.02032">
        <ele>246</ele>
        <time>2016-01-03T08:12:06Z</time>
      </trkpt>
      <trkpt lat="44.31389" lon="2.0203">
        <ele>245.8</ele>
        <time>2016-01-03T08:12:07Z</time>
      </trkpt>
      <trkpt lat="44.31383" lon="2.02027">
        <ele>245.5</ele>
        <time>2016-01-03T08:12:08Z</time>
      </trkpt>
      <trkpt lat="44.31377" lon="2.02024">
        <ele>245.2</ele>
        <time>2016-01-03T08:12:09Z</time>
      </trkpt>
      <trkpt lat="44.31371" lon="2.02022">
        <ele>245.1</ele>
        <time>2016-01-03T08:12:10Z</time>
      </trkpt>
      <trkpt lat="44.31365" lon="2.0202">
        <ele>245</ele>
        <time>2016-01-03T08:12:11Z</time>
      </trkpt>
      <trkpt lat="44.31358" lon="2.02018">
        <ele>244.9</ele>
        <time>2016-01-03T08:12:12Z</time>
      </trkpt>
      <trkpt lat="44.31351" lon="2.02016">
        <ele>244.8</ele>
        <time>2016-01-03T08:12:13Z</time>
      </trkpt>
      <trkpt lat="44.31344" lon="2.02014">
        <ele>244.8</ele>
        <time>2016-01-03T08:12:14Z</time>
      </trkpt>
      <trkpt lat="44.31339" lon="2.02013">
        <ele>244.8</ele>
        <time>2016-01-03T08:12:15Z</time>
      </trkpt>
      <trkpt lat="44.31334" lon="2.02011">
        <ele>244.7</ele>
        <time>2016-01-03T08:12:16Z</time>
      </trkpt>
      <trkpt lat="44.31327" lon="2.02009">
        <ele>244.6</ele>
        <time>2016-01-03T08:12:17Z</time>
      </trkpt>
      <trkpt lat="44.31321" lon="2.02007">
        <ele>244.6</ele>
        <time>2016-01-03T08:12:18Z</time>
      </trkpt>
      <trkpt lat="44.31313" lon="2.02004">
        <ele>244.5</ele>
        <time>2016-01-03T08:12:19Z</time>
      </trkpt>
      <trkpt lat="44.31306" lon="2.02">
        <ele>244.4</ele>
        <time>2016-01-03T08:12:20Z</time>
      </trkpt>
      <trkpt lat="44.31299" lon="2.01998">
        <ele>244.4</ele>
        <time>2016-01-03T08:12:21Z</time>
      </trkpt>
      <trkpt lat="44.31293" lon="2.01995">
        <ele>244.3</ele>
        <time>2016-01-03T08:12:22Z</time>
      </trkpt>
      <trkpt lat="44.31286" lon="2.01993">
        <ele>244.2</ele>
        <time>2016-01-03T08:12:23Z</time>
      </trkpt>
      <trkpt lat="44.3128" lon="2.01992">
        <ele>244.2</ele>
        <time>2016-01-03T08:12:24Z</time>
      </trkpt>
      <trkpt lat="44.31273" lon="2.0199">
        <ele>244.1</ele>
        <time>2016-01-03T08:12:25Z</time>
      </trkpt>
      <trkpt lat="44.31266" lon="2.0199">
        <ele>244.1</ele>
        <time>2016-01-03T08:12:26Z</time>
      </trkpt>
      <trkpt lat="44.31259" lon="2.0199">
        <ele>244</ele>
        <time>2016-01-03T08:12:27Z</time>
      </trkpt>
      <trkpt lat="44.31251" lon="2.0199">
        <ele>244</ele>
        <time>2016-01-03T08:12:28Z</time>
      </trkpt>
      <trkpt lat="44.31244" lon="2.01991">
        <ele>244.1</ele>
        <time>2016-01-03T08:12:29Z</time>
      </trkpt>
      <trkpt lat="44.31237" lon="2.01993">
        <ele>244.1</ele>
        <time>2016-01-03T08:12:30Z</time>
      </trkpt>
      <trkpt lat="44.31231" lon="2.01994">
        <ele>244.2</ele>
        <time>2016-01-03T08:12:31Z</time>
      </trkpt>
      <trkpt lat="44.31224" lon="2.01996">
        <ele>244.3</ele>
        <time>2016-01-03T08:12:32Z</time>
      </trkpt>
      <trkpt lat="44.31218" lon="2.01996">
        <ele>244.2</ele>
        <time>2016-01-03T08:12:33Z</time>
      </trkpt>
      <trkpt lat="44.31211" lon="2.01996">
        <ele>244.3</ele>
        <time>2016-01-03T08:12:34Z</time>
      </trkpt>
      <trkpt lat="44.31205" lon="2.01997">
        <ele>244.4</ele>
        <time>2016-01-03T08:12:35Z</time>
      </trkpt>
      <trkpt lat="44.312" lon="2.01998">
        <ele>244.7</ele>
        <time>2016-01-03T08:12:36Z</time>
      </trkpt>
      <trkpt lat="44.31194" lon="2.01999">
        <ele>245</ele>
        <time>2016-01-03T08:12:37Z</time>
      </trkpt>
      <trkpt lat="44.3119" lon="2.02">
        <ele>245.3</ele>
        <time>2016-01-03T08:12:38Z</time>
      </trkpt>
      <trkpt lat="44.31186" lon="2.02">
        <ele>245.5</ele>
        <time>2016-01-03T08:12:39Z</time>
      </trkpt>
      <trkpt lat="44.31181" lon="2.02">
        <ele>245.7</ele>
        <time>2016-01-03T08:12:40Z</time>
      </trkpt>
      <trkpt lat="44.31177" lon="2.02001">
        <ele>245.9</ele>
        <time>2016-01-03T08:12:41Z</time>
      </trkpt>
      <trkpt lat="44.31174" lon="2.02001">
        <ele>246</ele>
        <time>2016-01-03T08:12:42Z</time>
      </trkpt>
      <trkpt lat="44.31168" lon="2.01999">
        <ele>246</ele>
        <time>2016-01-03T08:12:43Z</time>
      </trkpt>
      <trkpt lat="44.31164" lon="2.01998">
        <ele>246.1</ele>
        <time>2016-01-03T08:12:44Z</time>
      </trkpt>
      <trkpt lat="44.31159" lon="2.01997">
        <ele>246.2</ele>
        <time>2016-01-03T08:12:45Z</time>
      </trkpt>
      <trkpt lat="44.31154" lon="2.01996">
        <ele>246.2</ele>
        <time>2016-01-03T08:12:46Z</time>
      </trkpt>
      <trkpt lat="44.3115" lon="2.01995">
        <ele>246.3</ele>
        <time>2016-01-03T08:12:47Z</time>
      </trkpt>
      <trkpt lat="44.31147" lon="2.01995">
        <ele>246.4</ele>
        <time>2016-01-03T08:12:48Z</time>
      </trkpt>
      <trkpt lat="44.31143" lon="2.01995">
        <ele>246.5</ele>
        <time>2016-01-03T08:12:49Z</time>
      </trkpt>
      <trkpt lat="44.31139" lon="2.01994">
        <ele>246.5</ele>
        <time>2016-01-03T08:12:50Z</time>
      </trkpt>
      <trkpt lat="44.31135" lon="2.01994">
        <ele>246.6</ele>
        <time>2016-01-03T08:12:51Z</time>
      </trkpt>
      <trkpt lat="44.31132" lon="2.01994">
        <ele>246.7</ele>
        <time>2016-01-03T08:12:52Z</time>
      </trkpt>
      <trkpt lat="44.31129" lon="2.01994">
        <ele>246.8</ele>
        <time>2016-01-03T08:12:53Z</time>
      </trkpt>
      <trkpt lat="44.31126" lon="2.01994">
        <ele>246.9</ele>
        <time>2016-01-03T08:12:54Z</time>
      </trkpt>
      <trkpt lat="44.31123" lon="2.01993">
        <ele>247</ele>
        <time>2016-01-03T08:12:55Z</time>
      </trkpt>
      <trkpt lat="44.31117" lon="2.01994">
        <ele>247.5</ele>
        <time>2016-01-03T08:12:57Z</time>
      </trkpt>
      <trkpt lat="44.31113" lon="2.01994">
        <ele>247.8</ele>
        <time>2016-01-03T08:12:58Z</time>
      </trkpt>
      <trkpt lat="44.31109" lon="2.01995">
        <ele>248.2</ele>
        <time>2016-01-03T08:12:59Z</time>
      </trkpt>
      <trkpt lat="44.31104" lon="2.01995">
        <ele>248.5</ele>
        <time>2016-01-03T08:13:00Z</time>
      </trkpt>
      <trkpt lat="44.311" lon="2.01995">
        <ele>248.8</ele>
        <time>2016-01-03T08:13:01Z</time>
      </trkpt>
      <trkpt lat="44.31095" lon="2.01996">
        <ele>249.3</ele>
        <time>2016-01-03T08:13:02Z</time>
      </trkpt>
      <trkpt lat="44.3109" lon="2.01996">
        <ele>249.6</ele>
        <time>2016-01-03T08:13:03Z</time>
      </trkpt>
      <trkpt lat="44.31086" lon="2.01996">
        <ele>249.8</ele>
        <time>2016-01-03T08:13:04Z</time>
      </trkpt>
      <trkpt lat="44.31082" lon="2.01995">
        <ele>249.9</ele>
        <time>2016-01-03T08:13:05Z</time>
      </trkpt>
      <trkpt lat="44.31079" lon="2.01995">
        <ele>250</ele>
        <time>2016-01-03T08:13:06Z</time>
      </trkpt>
      <trkpt lat="44.31076" lon="2.01993">
        <ele>249.9</ele>
        <time>2016-01-03T08:13:07Z</time>
      </trkpt>
      <trkpt lat="44.31071" lon="2.01993">
        <ele>250.1</ele>
        <time>2016-01-03T08:13:09Z</time>
      </trkpt>
      <trkpt lat="44.31067" lon="2.01992">
        <ele>250.1</ele>
        <time>2016-01-03T08:13:11Z</time>
      </trkpt>
      <trkpt lat="44.31063" lon="2.0199">
        <ele>249.8</ele>
        <time>2016-01-03T08:13:13Z</time>
      </trkpt>
      <trkpt lat="44.3106" lon="2.01989">
        <ele>249.9</ele>
        <time>2016-01-03T08:13:14Z</time>
      </trkpt>
      <trkpt lat="44.31057" lon="2.01988">
        <ele>249.8</ele>
        <time>2016-01-03T08:13:15Z</time>
      </trkpt>
      <trkpt lat="44.31052" lon="2.01988">
        <ele>250</ele>
        <time>2016-01-03T08:13:17Z</time>
      </trkpt>
      <trkpt lat="44.31049" lon="2.01987">
        <ele>249.9</ele>
        <time>2016-01-03T08:13:18Z</time>
      </trkpt>
      <trkpt lat="44.31045" lon="2.01986">
        <ele>249.8</ele>
        <time>2016-01-03T08:13:20Z</time>
      </trkpt>
      <trkpt lat="44.31041" lon="2.01982">
        <ele>248.9</ele>
        <time>2016-01-03T08:13:22Z</time>
      </trkpt>
      <trkpt lat="44.31039" lon="2.01978">
        <ele>248.2</ele>
        <time>2016-01-03T08:13:23Z</time>
      </trkpt>
      <trkpt lat="44.31035" lon="2.01975">
        <ele>247.4</ele>
        <time>2016-01-03T08:13:24Z</time>
      </trkpt>
      <trkpt lat="44.31033" lon="2.01972">
        <ele>246.9</ele>
        <time>2016-01-03T08:13:25Z</time>
      </trkpt>
      <trkpt lat="44.3103" lon="2.0197">
        <ele>246.7</ele>
        <time>2016-01-03T08:13:27Z</time>
      </trkpt>
      <trkpt lat="44.31025" lon="2.0197">
        <ele>247.3</ele>
        <time>2016-01-03T08:13:29Z</time>
      </trkpt>
      <trkpt lat="44.31022" lon="2.0197">
        <ele>247.7</ele>
        <time>2016-01-03T08:13:31Z</time>
      </trkpt>
      <trkpt lat="44.31017" lon="2.0197">
        <ele>248.4</ele>
        <time>2016-01-03T08:13:33Z</time>
      </trkpt>
      <trkpt lat="44.31013" lon="2.01971">
        <ele>249.2</ele>
        <time>2016-01-03T08:13:35Z</time>
      </trkpt>
      <trkpt lat="44.31009" lon="2.01971">
        <ele>249.5</ele>
        <time>2016-01-03T08:13:37Z</time>
      </trkpt>
      <trkpt lat="44.31005" lon="2.0197">
        <ele>249.8</ele>
        <time>2016-01-03T08:13:40Z</time>
      </trkpt>
      <trkpt lat="44.31001" lon="2.0197">
        <ele>250.1</ele>
        <time>2016-01-03T08:13:42Z</time>
      </trkpt>
      <trkpt lat="44.30997" lon="2.01968">
        <ele>250</ele>
        <time>2016-01-03T08:13:44Z</time>
      </trkpt>
      <trkpt lat="44.30993" lon="2.01965">
        <ele>249.5</ele>
        <time>2016-01-03T08:13:46Z</time>
      </trkpt>
      <trkpt lat="44.30988" lon="2.01962">
        <ele>249.1</ele>
        <time>2016-01-03T08:13:48Z</time>
      </trkpt>
      <trkpt lat="44.30986" lon="2.01961">
        <ele>248.9</ele>
        <time>2016-01-03T08:13:49Z</time>
      </trkpt>
      <trkpt lat="44.30983" lon="2.0196">
        <ele>248.9</ele>
        <time>2016-01-03T08:13:50Z</time>
      </trkpt>
      <trkpt lat="44.30979" lon="2.01958">
        <ele>248.8</ele>
        <time>2016-01-03T08:13:51Z</time>
      </trkpt>
      <trkpt lat="44.30975" lon="2.01957">
        <ele>249</ele>
        <time>2016-01-03T08:13:52Z</time>
      </trkpt>
      <trkpt lat="44.30971" lon="2.01954">
        <ele>249.2</ele>
        <time>2016-01-03T08:13:53Z</time>
      </trkpt>
      <trkpt lat="44.30967" lon="2.01952">
        <ele>249.4</ele>
        <time>2016-01-03T08:13:54Z</time>
      </trkpt>
      <trkpt lat="44.30963" lon="2.01948">
        <ele>249.5</ele>
        <time>2016-01-03T08:13:55Z</time>
      </trkpt>
      <trkpt lat="44.30958" lon="2.01945">
        <ele>249.6</ele>
        <time>2016-01-03T08:13:56Z</time>
      </trkpt>
      <trkpt lat="44.30954" lon="2.01942">
        <ele>249.5</ele>
        <time>2016-01-03T08:13:57Z</time>
      </trkpt>
      <trkpt lat="44.30949" lon="2.01937">
        <ele>249.4</ele>
        <time>2016-01-03T08:13:58Z</time>
      </trkpt>
      <trkpt lat="44.30944" lon="2.01933">
        <ele>249.3</ele>
        <time>2016-01-03T08:13:59Z</time>
      </trkpt>
      <trkpt lat="44.30939" lon="2.01928">
        <ele>249</ele>
        <time>2016-01-03T08:14:00Z</time>
      </trkpt>
      <trkpt lat="44.30935" lon="2.01922">
        <ele>248.5</ele>
        <time>2016-01-03T08:14:01Z</time>
      </trkpt>
      <trkpt lat="44.30929" lon="2.01917">
        <ele>248.1</ele>
        <time>2016-01-03T08:14:02Z</time>
      </trkpt>
      <trkpt lat="44.30923" lon="2.0191">
        <ele>247.4</ele>
        <time>2016-01-03T08:14:03Z</time>
      </trkpt>
      <trkpt lat="44.30918" lon="2.01904">
        <ele>246.7</ele>
        <time>2016-01-03T08:14:04Z</time>
      </trkpt>
      <trkpt lat="44.30913" lon="2.01897">
        <ele>246</ele>
        <time>2016-01-03T08:14:05Z</time>
      </trkpt>
      <trkpt lat="44.30908" lon="2.01891">
        <ele>245.1</ele>
        <time>2016-01-03T08:14:06Z</time>
      </trkpt>
      <trkpt lat="44.30903" lon="2.01884">
        <ele>244.1</ele>
        <time>2016-01-03T08:14:07Z</time>
      </trkpt>
      <trkpt lat="44.30897" lon="2.01877">
        <ele>243.1</ele>
        <time>2016-01-03T08:14:08Z</time>
      </trkpt>
      <trkpt lat="44.3089" lon="2.01871">
        <ele>242.6</ele>
        <time>2016-01-03T08:14:09Z</time>
      </trkpt>
      <trkpt lat="44.30884" lon="2.01865">
        <ele>242.3</ele>
        <time>2016-01-03T08:14:10Z</time>
      </trkpt>
      <trkpt lat="44.30878" lon="2.01861">
        <ele>242.1</ele>
        <time>2016-01-03T08:14:11Z</time>
      </trkpt>
      <trkpt lat="44.3087" lon="2.01857">
        <ele>242.1</ele>
        <time>2016-01-03T08:14:12Z</time>
      </trkpt>
      <trkpt lat="44.30863" lon="2.01855">
        <ele>242.3</ele>
        <time>2016-01-03T08:14:13Z</time>
      </trkpt>
      <trkpt lat="44.30856" lon="2.01852">
        <ele>242.5</ele>
        <time>2016-01-03T08:14:14Z</time>
      </trkpt>
      <trkpt lat="44.30848" lon="2.01848">
        <ele>242.6</ele>
        <time>2016-01-03T08:14:15Z</time>
      </trkpt>
      <trkpt lat="44.30842" lon="2.01846">
        <ele>242.7</ele>
        <time>2016-01-03T08:14:16Z</time>
      </trkpt>
      <trkpt lat="44.30835" lon="2.01843">
        <ele>242.8</ele>
        <time>2016-01-03T08:14:17Z</time>
      </trkpt>
      <trkpt lat="44.30828" lon="2.01841">
        <ele>242.9</ele>
        <time>2016-01-03T08:14:18Z</time>
      </trkpt>
      <trkpt lat="44.30822" lon="2.0184">
        <ele>243</ele>
        <time>2016-01-03T08:14:19Z</time>
      </trkpt>
      <trkpt lat="44.30815" lon="2.01838">
        <ele>243.1</ele>
        <time>2016-01-03T08:14:20Z</time>
      </trkpt>
      <trkpt lat="44.3081" lon="2.01836">
        <ele>243.1</ele>
        <time>2016-01-03T08:14:21Z</time>
      </trkpt>
      <trkpt lat="44.30804" lon="2.01833">
        <ele>243</ele>
        <time>2016-01-03T08:14:22Z</time>
      </trkpt>
      <trkpt lat="44.30799" lon="2.01831">
        <ele>243</ele>
        <time>2016-01-03T08:14:23Z</time>
      </trkpt>
      <trkpt lat="44.30795" lon="2.01829">
        <ele>242.9</ele>
        <time>2016-01-03T08:14:24Z</time>
      </trkpt>
      <trkpt lat="44.3079" lon="2.01826">
        <ele>242.9</ele>
        <time>2016-01-03T08:14:25Z</time>
      </trkpt>
      <trkpt lat="44.30785" lon="2.01824">
        <ele>243</ele>
        <time>2016-01-03T08:14:26Z</time>
      </trkpt>
      <trkpt lat="44.30781" lon="2.01822">
        <ele>243.1</ele>
        <time>2016-01-03T08:14:27Z</time>
      </trkpt>
      <trkpt lat="44.30776" lon="2.0182">
        <ele>243.2</ele>
        <time>2016-01-03T08:14:28Z</time>
      </trkpt>
      <trkpt lat="44.30772" lon="2.01818">
        <ele>243.3</ele>
        <time>2016-01-03T08:14:29Z</time>
      </trkpt>
      <trkpt lat="44.30768" lon="2.01815">
        <ele>243.2</ele>
        <time>2016-01-03T08:14:30Z</time>
      </trkpt>
      <trkpt lat="44.30765" lon="2.01813">
        <ele>243.1</ele>
        <time>2016-01-03T08:14:31Z</time>
      </trkpt>
      <trkpt lat="44.30761" lon="2.01811">
        <ele>243.2</ele>
        <time>2016-01-03T08:14:32Z</time>
      </trkpt>
      <trkpt lat="44.30757" lon="2.01809">
        <ele>243.2</ele>
        <time>2016-01-03T08:14:33Z</time>
      </trkpt>
      <trkpt lat="44.30753" lon="2.01807">
        <ele>243.1</ele>
        <time>2016-01-03T08:14:34Z</time>
      </trkpt>
      <trkpt lat="44.30749" lon="2.01805">
        <ele>243</ele>
        <time>2016-01-03T08:14:35Z</time>
      </trkpt>
      <trkpt lat="44.30745" lon="2.01803">
        <ele>242.9</ele>
        <time>2016-01-03T08:14:36Z</time>
      </trkpt>
      <trkpt lat="44.30741" lon="2.01801">
        <ele>242.9</ele>
        <time>2016-01-03T08:14:37Z</time>
      </trkpt>
      <trkpt lat="44.30738" lon="2.01799">
        <ele>242.7</ele>
        <time>2016-01-03T08:14:38Z</time>
      </trkpt>
      <trkpt lat="44.30735" lon="2.01798">
        <ele>242.8</ele>
        <time>2016-01-03T08:14:39Z</time>
      </trkpt>
      <trkpt lat="44.30731" lon="2.01797">
        <ele>242.8</ele>
        <time>2016-01-03T08:14:40Z</time>
      </trkpt>
      <trkpt lat="44.30727" lon="2.01795">
        <ele>242.6</ele>
        <time>2016-01-03T08:14:41Z</time>
      </trkpt>
      <trkpt lat="44.30724" lon="2.01792">
        <ele>242.3</ele>
        <time>2016-01-03T08:14:42Z</time>
      </trkpt>
      <trkpt lat="44.30721" lon="2.0179">
        <ele>242.3</ele>
        <time>2016-01-03T08:14:43Z</time>
      </trkpt>
      <trkpt lat="44.30719" lon="2.01787">
        <ele>242.4</ele>
        <time>2016-01-03T08:14:44Z</time>
      </trkpt>
      <trkpt lat="44.30716" lon="2.01784">
        <ele>242.5</ele>
        <time>2016-01-03T08:14:45Z</time>
      </trkpt>
      <trkpt lat="44.30713" lon="2.01781">
        <ele>242.5</ele>
        <time>2016-01-03T08:14:46Z</time>
      </trkpt>
      <trkpt lat="44.3071" lon="2.01778">
        <ele>242.6</ele>
        <time>2016-01-03T08:14:47Z</time>
      </trkpt>
      <trkpt lat="44.30708" lon="2.01776">
        <ele>242.7</ele>
        <time>2016-01-03T08:14:48Z</time>
      </trkpt>
      <trkpt lat="44.30705" lon="2.01773">
        <ele>242.8</ele>
        <time>2016-01-03T08:14:49Z</time>
      </trkpt>
      <trkpt lat="44.30703" lon="2.0177">
        <ele>242.8</ele>
        <time>2016-01-03T08:14:50Z</time>
      </trkpt>
      <trkpt lat="44.30701" lon="2.01766">
        <ele>242.9</ele>
        <time>2016-01-03T08:14:51Z</time>
      </trkpt>
      <trkpt lat="44.30698" lon="2.01762">
        <ele>243</ele>
        <time>2016-01-03T08:14:52Z</time>
      </trkpt>
      <trkpt lat="44.30695" lon="2.01758">
        <ele>243.1</ele>
        <time>2016-01-03T08:14:53Z</time>
      </trkpt>
      <trkpt lat="44.30691" lon="2.01755">
        <ele>243.2</ele>
        <time>2016-01-03T08:14:54Z</time>
      </trkpt>
      <trkpt lat="44.30688" lon="2.01751">
        <ele>243.3</ele>
        <time>2016-01-03T08:14:55Z</time>
      </trkpt>
      <trkpt lat="44.30685" lon="2.01749">
        <ele>243.4</ele>
        <time>2016-01-03T08:14:56Z</time>
      </trkpt>
      <trkpt lat="44.30682" lon="2.01746">
        <ele>243.4</ele>
        <time>2016-01-03T08:14:57Z</time>
      </trkpt>
      <trkpt lat="44.30679" lon="2.01743">
        <ele>243.5</ele>
        <time>2016-01-03T08:14:58Z</time>
      </trkpt>
      <trkpt lat="44.30675" lon="2.01739">
        <ele>243.5</ele>
        <time>2016-01-03T08:15:00Z</time>
      </trkpt>
      <trkpt lat="44.30672" lon="2.01735">
        <ele>243.5</ele>
        <time>2016-01-03T08:15:01Z</time>
      </trkpt>
      <trkpt lat="44.30669" lon="2.01732">
        <ele>243.5</ele>
        <time>2016-01-03T08:15:02Z</time>
      </trkpt>
      <trkpt lat="44.30665" lon="2.01728">
        <ele>243.5</ele>
        <time>2016-01-03T08:15:03Z</time>
      </trkpt>
      <trkpt lat="44.30662" lon="2.01724">
        <ele>243.5</ele>
        <time>2016-01-03T08:15:04Z</time>
      </trkpt>
      <trkpt lat="44.30659" lon="2.01721">
        <ele>243.5</ele>
        <time>2016-01-03T08:15:05Z</time>
      </trkpt>
      <trkpt lat="44.30656" lon="2.01718">
        <ele>243.4</ele>
        <time>2016-01-03T08:15:06Z</time>
      </trkpt>
      <trkpt lat="44.30654" lon="2.01715">
        <ele>243.4</ele>
        <time>2016-01-03T08:15:07Z</time>
      </trkpt>
      <trkpt lat="44.30651" lon="2.01712">
        <ele>243.3</ele>
        <time>2016-01-03T08:15:08Z</time>
      </trkpt>
      <trkpt lat="44.30649" lon="2.0171">
        <ele>243.2</ele>
        <time>2016-01-03T08:15:09Z</time>
      </trkpt>
      <trkpt lat="44.30646" lon="2.01707">
        <ele>243.1</ele>
        <time>2016-01-03T08:15:10Z</time>
      </trkpt>
      <trkpt lat="44.30644" lon="2.01703">
        <ele>243</ele>
        <time>2016-01-03T08:15:11Z</time>
      </trkpt>
      <trkpt lat="44.30641" lon="2.01699">
        <ele>243</ele>
        <time>2016-01-03T08:15:12Z</time>
      </trkpt>
      <trkpt lat="44.30638" lon="2.01695">
        <ele>242.8</ele>
        <time>2016-01-03T08:15:13Z</time>
      </trkpt>
      <trkpt lat="44.30636" lon="2.01691">
        <ele>242.7</ele>
        <time>2016-01-03T08:15:14Z</time>
      </trkpt>
      <trkpt lat="44.30634" lon="2.01687">
        <ele>242.5</ele>
        <time>2016-01-03T08:15:15Z</time>
      </trkpt>
      <trkpt lat="44.30631" lon="2.01684">
        <ele>242.4</ele>
        <time>2016-01-03T08:15:16Z</time>
      </trkpt>
      <trkpt lat="44.30627" lon="2.0168">
        <ele>242.2</ele>
        <time>2016-01-03T08:15:17Z</time>
      </trkpt>
      <trkpt lat="44.30624" lon="2.01676">
        <ele>242</ele>
        <time>2016-01-03T08:15:18Z</time>
      </trkpt>
      <trkpt lat="44.30621" lon="2.01672">
        <ele>241.7</ele>
        <time>2016-01-03T08:15:19Z</time>
      </trkpt>
      <trkpt lat="44.30617" lon="2.01668">
        <ele>241.4</ele>
        <time>2016-01-03T08:15:20Z</time>
      </trkpt>
      <trkpt lat="44.30614" lon="2.01664">
        <ele>241.1</ele>
        <time>2016-01-03T08:15:21Z</time>
      </trkpt>
      <trkpt lat="44.3061" lon="2.01661">
        <ele>240.8</ele>
        <time>2016-01-03T08:15:22Z</time>
      </trkpt>
      <trkpt lat="44.30607" lon="2.01657">
        <ele>240.5</ele>
        <time>2016-01-03T08:15:23Z</time>
      </trkpt>
      <trkpt lat="44.30603" lon="2.01654">
        <ele>240.2</ele>
        <time>2016-01-03T08:15:24Z</time>
      </trkpt>
      <trkpt lat="44.306" lon="2.01651">
        <ele>239.9</ele>
        <time>2016-01-03T08:15:25Z</time>
      </trkpt>
      <trkpt lat="44.30596" lon="2.01648">
        <ele>239.7</ele>
        <time>2016-01-03T08:15:26Z</time>
      </trkpt>
      <trkpt lat="44.30592" lon="2.01645">
        <ele>239.4</ele>
        <time>2016-01-03T08:15:27Z</time>
      </trkpt>
      <trkpt lat="44.30588" lon="2.01643">
        <ele>239.2</ele>
        <time>2016-01-03T08:15:28Z</time>
      </trkpt>
      <trkpt lat="44.30583" lon="2.01642">
        <ele>239</ele>
        <time>2016-01-03T08:15:29Z</time>
      </trkpt>
      <trkpt lat="44.30579" lon="2.0164">
        <ele>238.8</ele>
        <time>2016-01-03T08:15:30Z</time>
      </trkpt>
      <trkpt lat="44.30575" lon="2.01639">
        <ele>238.6</ele>
        <time>2016-01-03T08:15:31Z</time>
      </trkpt>
      <trkpt lat="44.30571" lon="2.01637">
        <ele>238.4</ele>
        <time>2016-01-03T08:15:32Z</time>
      </trkpt>
      <trkpt lat="44.30566" lon="2.01636">
        <ele>238.2</ele>
        <time>2016-01-03T08:15:33Z</time>
      </trkpt>
      <trkpt lat="44.30561" lon="2.01635">
        <ele>238</ele>
        <time>2016-01-03T08:15:34Z</time>
      </trkpt>
      <trkpt lat="44.30557" lon="2.01634">
        <ele>237.9</ele>
        <time>2016-01-03T08:15:35Z</time>
      </trkpt>
      <trkpt lat="44.30552" lon="2.01633">
        <ele>237.7</ele>
        <time>2016-01-03T08:15:36Z</time>
      </trkpt>
      <trkpt lat="44.30548" lon="2.01632">
        <ele>237.6</ele>
        <time>2016-01-03T08:15:37Z</time>
      </trkpt>
      <trkpt lat="44.30543" lon="2.01632">
        <ele>237.4</ele>
        <time>2016-01-03T08:15:38Z</time>
      </trkpt>
      <trkpt lat="44.30537" lon="2.01631">
        <ele>237.6</ele>
        <time>2016-01-03T08:15:39Z</time>
      </trkpt>
      <trkpt lat="44.30533" lon="2.0163">
        <ele>237.8</ele>
        <time>2016-01-03T08:15:40Z</time>
      </trkpt>
      <trkpt lat="44.30528" lon="2.0163">
        <ele>237.9</ele>
        <time>2016-01-03T08:15:41Z</time>
      </trkpt>
      <trkpt lat="44.30524" lon="2.01629">
        <ele>238.1</ele>
        <time>2016-01-03T08:15:42Z</time>
      </trkpt>
      <trkpt lat="44.30519" lon="2.01628">
        <ele>238.3</ele>
        <time>2016-01-03T08:15:43Z</time>
      </trkpt>
      <trkpt lat="44.30514" lon="2.01628">
        <ele>238.5</ele>
        <time>2016-01-03T08:15:44Z</time>
      </trkpt>
      <trkpt lat="44.30509" lon="2.01627">
        <ele>238.7</ele>
        <time>2016-01-03T08:15:45Z</time>
      </trkpt>
      <trkpt lat="44.30504" lon="2.01626">
        <ele>238.9</ele>
        <time>2016-01-03T08:15:46Z</time>
      </trkpt>
      <trkpt lat="44.30499" lon="2.01625">
        <ele>239.1</ele>
        <time>2016-01-03T08:15:47Z</time>
      </trkpt>
      <trkpt lat="44.30494" lon="2.01625">
        <ele>239.3</ele>
        <time>2016-01-03T08:15:48Z</time>
      </trkpt>
      <trkpt lat="44.30488" lon="2.01624">
        <ele>239.5</ele>
        <time>2016-01-03T08:15:49Z</time>
      </trkpt>
      <trkpt lat="44.30483" lon="2.01623">
        <ele>239.8</ele>
        <time>2016-01-03T08:15:50Z</time>
      </trkpt>
      <trkpt lat="44.30478" lon="2.01623">
        <ele>240</ele>
        <time>2016-01-03T08:15:51Z</time>
      </trkpt>
      <trkpt lat="44.30473" lon="2.01622">
        <ele>240.2</ele>
        <time>2016-01-03T08:15:52Z</time>
      </trkpt>
      <trkpt lat="44.30468" lon="2.01621">
        <ele>240.4</ele>
        <time>2016-01-03T08:15:53Z</time>
      </trkpt>
      <trkpt lat="44.30463" lon="2.0162">
        <ele>240.6</ele>
        <time>2016-01-03T08:15:54Z</time>
      </trkpt>
      <trkpt lat="44.30458" lon="2.0162">
        <ele>240.8</ele>
        <time>2016-01-03T08:15:55Z</time>
      </trkpt>
      <trkpt lat="44.30453" lon="2.01619">
        <ele>240.7</ele>
        <time>2016-01-03T08:15:56Z</time>
      </trkpt>
      <trkpt lat="44.30448" lon="2.01619">
        <ele>240.7</ele>
        <time>2016-01-03T08:15:57Z</time>
      </trkpt>
      <trkpt lat="44.30443" lon="2.01619">
        <ele>240.6</ele>
        <time>2016-01-03T08:15:58Z</time>
      </trkpt>
      <trkpt lat="44.30438" lon="2.01619">
        <ele>240.6</ele>
        <time>2016-01-03T08:15:59Z</time>
      </trkpt>
      <trkpt lat="44.30434" lon="2.01619">
        <ele>240.5</ele>
        <time>2016-01-03T08:16:00Z</time>
      </trkpt>
      <trkpt lat="44.30429" lon="2.0162">
        <ele>240.5</ele>
        <time>2016-01-03T08:16:01Z</time>
      </trkpt>
      <trkpt lat="44.30424" lon="2.01621">
        <ele>240.5</ele>
        <time>2016-01-03T08:16:02Z</time>
      </trkpt>
      <trkpt lat="44.3042" lon="2.01622">
        <ele>240.4</ele>
        <time>2016-01-03T08:16:03Z</time>
      </trkpt>
      <trkpt lat="44.30415" lon="2.01622">
        <ele>240.4</ele>
        <time>2016-01-03T08:16:04Z</time>
      </trkpt>
      <trkpt lat="44.30411" lon="2.01623">
        <ele>240.4</ele>
        <time>2016-01-03T08:16:05Z</time>
      </trkpt>
      <trkpt lat="44.30406" lon="2.01624">
        <ele>240.3</ele>
        <time>2016-01-03T08:16:06Z</time>
      </trkpt>
      <trkpt lat="44.30402" lon="2.01625">
        <ele>240.3</ele>
        <time>2016-01-03T08:16:07Z</time>
      </trkpt>
      <trkpt lat="44.30398" lon="2.01625">
        <ele>240.3</ele>
        <time>2016-01-03T08:16:08Z</time>
      </trkpt>
      <trkpt lat="44.30394" lon="2.01626">
        <ele>240.3</ele>
        <time>2016-01-03T08:16:09Z</time>
      </trkpt>
      <trkpt lat="44.3039" lon="2.01627">
        <ele>240.3</ele>
        <time>2016-01-03T08:16:10Z</time>
      </trkpt>
      <trkpt lat="44.30386" lon="2.01627">
        <ele>240.3</ele>
        <time>2016-01-03T08:16:11Z</time>
      </trkpt>
      <trkpt lat="44.30382" lon="2.01628">
        <ele>240.4</ele>
        <time>2016-01-03T08:16:12Z</time>
      </trkpt>
      <trkpt lat="44.30378" lon="2.01628">
        <ele>240.3</ele>
        <time>2016-01-03T08:16:13Z</time>
      </trkpt>
      <trkpt lat="44.30373" lon="2.01629">
        <ele>240.4</ele>
        <time>2016-01-03T08:16:14Z</time>
      </trkpt>
      <trkpt lat="44.30369" lon="2.01629">
        <ele>240.4</ele>
        <time>2016-01-03T08:16:15Z</time>
      </trkpt>
      <trkpt lat="44.30365" lon="2.01629">
        <ele>240.4</ele>
        <time>2016-01-03T08:16:16Z</time>
      </trkpt>
      <trkpt lat="44.30361" lon="2.0163">
        <ele>240.5</ele>
        <time>2016-01-03T08:16:17Z</time>
      </trkpt>
      <trkpt lat="44.30357" lon="2.0163">
        <ele>240.5</ele>
        <time>2016-01-03T08:16:18Z</time>
      </trkpt>
      <trkpt lat="44.30353" lon="2.01631">
        <ele>240.6</ele>
        <time>2016-01-03T08:16:19Z</time>
      </trkpt>
      <trkpt lat="44.30349" lon="2.01631">
        <ele>240.6</ele>
        <time>2016-01-03T08:16:20Z</time>
      </trkpt>
      <trkpt lat="44.30345" lon="2.01631">
        <ele>240.6</ele>
        <time>2016-01-03T08:16:21Z</time>
      </trkpt>
      <trkpt lat="44.30342" lon="2.01632">
        <ele>240.7</ele>
        <time>2016-01-03T08:16:22Z</time>
      </trkpt>
      <trkpt lat="44.30338" lon="2.01632">
        <ele>240.7</ele>
        <time>2016-01-03T08:16:23Z</time>
      </trkpt>
      <trkpt lat="44.30334" lon="2.01632">
        <ele>240.7</ele>
        <time>2016-01-03T08:16:24Z</time>
      </trkpt>
      <trkpt lat="44.30331" lon="2.01632">
        <ele>240.8</ele>
        <time>2016-01-03T08:16:25Z</time>
      </trkpt>
      <trkpt lat="44.30327" lon="2.01633">
        <ele>240.9</ele>
        <time>2016-01-03T08:16:26Z</time>
      </trkpt>
      <trkpt lat="44.30323" lon="2.01633">
        <ele>240.9</ele>
        <time>2016-01-03T08:16:27Z</time>
      </trkpt>
      <trkpt lat="44.30319" lon="2.01633">
        <ele>240.9</ele>
        <time>2016-01-03T08:16:28Z</time>
      </trkpt>
      <trkpt lat="44.30315" lon="2.01633">
        <ele>240.9</ele>
        <time>2016-01-03T08:16:29Z</time>
      </trkpt>
      <trkpt lat="44.30311" lon="2.01634">
        <ele>241</ele>
        <time>2016-01-03T08:16:30Z</time>
      </trkpt>
      <trkpt lat="44.30308" lon="2.01634">
        <ele>241</ele>
        <time>2016-01-03T08:16:31Z</time>
      </trkpt>
      <trkpt lat="44.30304" lon="2.01634">
        <ele>241</ele>
        <time>2016-01-03T08:16:32Z</time>
      </trkpt>
      <trkpt lat="44.303" lon="2.01634">
        <ele>241.1</ele>
        <time>2016-01-03T08:16:33Z</time>
      </trkpt>
      <trkpt lat="44.30297" lon="2.01634">
        <ele>241.1</ele>
        <time>2016-01-03T08:16:34Z</time>
      </trkpt>
      <trkpt lat="44.30293" lon="2.01634">
        <ele>241.1</ele>
        <time>2016-01-03T08:16:35Z</time>
      </trkpt>
      <trkpt lat="44.30289" lon="2.01634">
        <ele>241.1</ele>
        <time>2016-01-03T08:16:36Z</time>
      </trkpt>
      <trkpt lat="44.30286" lon="2.01634">
        <ele>241.1</ele>
        <time>2016-01-03T08:16:37Z</time>
      </trkpt>
      <trkpt lat="44.30282" lon="2.01634">
        <ele>241.1</ele>
        <time>2016-01-03T08:16:38Z</time>
      </trkpt>
      <trkpt lat="44.30278" lon="2.01635">
        <ele>241.2</ele>
        <time>2016-01-03T08:16:39Z</time>
      </trkpt>
      <trkpt lat="44.30275" lon="2.01635">
        <ele>241.2</ele>
        <time>2016-01-03T08:16:40Z</time>
      </trkpt>
      <trkpt lat="44.30271" lon="2.01635">
        <ele>241.2</ele>
        <time>2016-01-03T08:16:41Z</time>
      </trkpt>
      <trkpt lat="44.30268" lon="2.01635">
        <ele>241.2</ele>
        <time>2016-01-03T08:16:42Z</time>
      </trkpt>
      <trkpt lat="44.30264" lon="2.01634">
        <ele>241.2</ele>
        <time>2016-01-03T08:16:43Z</time>
      </trkpt>
      <trkpt lat="44.30261" lon="2.01634">
        <ele>241.1</ele>
        <time>2016-01-03T08:16:44Z</time>
      </trkpt>
      <trkpt lat="44.30257" lon="2.01634">
        <ele>241.1</ele>
        <time>2016-01-03T08:16:45Z</time>
      </trkpt>
      <trkpt lat="44.30253" lon="2.01633">
        <ele>241</ele>
        <time>2016-01-03T08:16:46Z</time>
      </trkpt>
      <trkpt lat="44.30249" lon="2.01633">
        <ele>241</ele>
        <time>2016-01-03T08:16:47Z</time>
      </trkpt>
      <trkpt lat="44.30245" lon="2.01632">
        <ele>240.9</ele>
        <time>2016-01-03T08:16:48Z</time>
      </trkpt>
      <trkpt lat="44.30241" lon="2.01631">
        <ele>240.7</ele>
        <time>2016-01-03T08:16:49Z</time>
      </trkpt>
      <trkpt lat="44.30238" lon="2.0163">
        <ele>240.6</ele>
        <time>2016-01-03T08:16:50Z</time>
      </trkpt>
      <trkpt lat="44.30234" lon="2.01629">
        <ele>240.5</ele>
        <time>2016-01-03T08:16:51Z</time>
      </trkpt>
      <trkpt lat="44.3023" lon="2.01627">
        <ele>240.3</ele>
        <time>2016-01-03T08:16:52Z</time>
      </trkpt>
      <trkpt lat="44.30227" lon="2.01625">
        <ele>240</ele>
        <time>2016-01-03T08:16:53Z</time>
      </trkpt>
      <trkpt lat="44.30223" lon="2.01623">
        <ele>240</ele>
        <time>2016-01-03T08:16:54Z</time>
      </trkpt>
      <trkpt lat="44.30219" lon="2.01621">
        <ele>239.9</ele>
        <time>2016-01-03T08:16:55Z</time>
      </trkpt>
      <trkpt lat="44.30215" lon="2.0162">
        <ele>239.9</ele>
        <time>2016-01-03T08:16:56Z</time>
      </trkpt>
      <trkpt lat="44.30211" lon="2.01618">
        <ele>239.9</ele>
        <time>2016-01-03T08:16:57Z</time>
      </trkpt>
      <trkpt lat="44.30207" lon="2.01616">
        <ele>239.9</ele>
        <time>2016-01-03T08:16:58Z</time>
      </trkpt>
      <trkpt lat="44.30203" lon="2.01613">
        <ele>240</ele>
        <time>2016-01-03T08:16:59Z</time>
      </trkpt>
      <trkpt lat="44.30199" lon="2.01611">
        <ele>240</ele>
        <time>2016-01-03T08:17:00Z</time>
      </trkpt>
      <trkpt lat="44.30196" lon="2.01608">
        <ele>240</ele>
        <time>2016-01-03T08:17:01Z</time>
      </trkpt>
      <trkpt lat="44.30193" lon="2.01606">
        <ele>240.1</ele>
        <time>2016-01-03T08:17:02Z</time>
      </trkpt>
      <trkpt lat="44.30189" lon="2.01603">
        <ele>240.1</ele>
        <time>2016-01-03T08:17:03Z</time>
      </trkpt>
      <trkpt lat="44.30185" lon="2.016">
        <ele>240.1</ele>
        <time>2016-01-03T08:17:04Z</time>
      </trkpt>
      <trkpt lat="44.30182" lon="2.01598">
        <ele>240.1</ele>
        <time>2016-01-03T08:17:05Z</time>
      </trkpt>
      <trkpt lat="44.30178" lon="2.01595">
        <ele>240.1</ele>
        <time>2016-01-03T08:17:06Z</time>
      </trkpt>
      <trkpt lat="44.30175" lon="2.01593">
        <ele>240.1</ele>
        <time>2016-01-03T08:17:07Z</time>
      </trkpt>
      <trkpt lat="44.30171" lon="2.0159">
        <ele>240.1</ele>
        <time>2016-01-03T08:17:08Z</time>
      </trkpt>
      <trkpt lat="44.30167" lon="2.01588">
        <ele>240.1</ele>
        <time>2016-01-03T08:17:09Z</time>
      </trkpt>
      <trkpt lat="44.30163" lon="2.01585">
        <ele>240.1</ele>
        <time>2016-01-03T08:17:10Z</time>
      </trkpt>
      <trkpt lat="44.30159" lon="2.01583">
        <ele>240.1</ele>
        <time>2016-01-03T08:17:11Z</time>
      </trkpt>
      <trkpt lat="44.30155" lon="2.0158">
        <ele>240</ele>
        <time>2016-01-03T08:17:12Z</time>
      </trkpt>
      <trkpt lat="44.30152" lon="2.01577">
        <ele>240</ele>
        <time>2016-01-03T08:17:13Z</time>
      </trkpt>
      <trkpt lat="44.30148" lon="2.01575">
        <ele>240</ele>
        <time>2016-01-03T08:17:14Z</time>
      </trkpt>
      <trkpt lat="44.30144" lon="2.01572">
        <ele>239.9</ele>
        <time>2016-01-03T08:17:15Z</time>
      </trkpt>
      <trkpt lat="44.30141" lon="2.0157">
        <ele>239.9</ele>
        <time>2016-01-03T08:17:16Z</time>
      </trkpt>
      <trkpt lat="44.30137" lon="2.01567">
        <ele>239.8</ele>
        <time>2016-01-03T08:17:17Z</time>
      </trkpt>
      <trkpt lat="44.30134" lon="2.01564">
        <ele>239.7</ele>
        <time>2016-01-03T08:17:18Z</time>
      </trkpt>
      <trkpt lat="44.30131" lon="2.01562">
        <ele>239.7</ele>
        <time>2016-01-03T08:17:19Z</time>
      </trkpt>
      <trkpt lat="44.30127" lon="2.01559">
        <ele>239.6</ele>
        <time>2016-01-03T08:17:20Z</time>
      </trkpt>
      <trkpt lat="44.30124" lon="2.01557">
        <ele>239.6</ele>
        <time>2016-01-03T08:17:21Z</time>
      </trkpt>
      <trkpt lat="44.3012" lon="2.01555">
        <ele>239.7</ele>
        <time>2016-01-03T08:17:22Z</time>
      </trkpt>
      <trkpt lat="44.30117" lon="2.01552">
        <ele>239.7</ele>
        <time>2016-01-03T08:17:23Z</time>
      </trkpt>
      <trkpt lat="44.30114" lon="2.0155">
        <ele>239.7</ele>
        <time>2016-01-03T08:17:24Z</time>
      </trkpt>
      <trkpt lat="44.3011" lon="2.01547">
        <ele>239.8</ele>
        <time>2016-01-03T08:17:25Z</time>
      </trkpt>
      <trkpt lat="44.30107" lon="2.01545">
        <ele>239.8</ele>
        <time>2016-01-03T08:17:26Z</time>
      </trkpt>
      <trkpt lat="44.30103" lon="2.01542">
        <ele>239.8</ele>
        <time>2016-01-03T08:17:27Z</time>
      </trkpt>
      <trkpt lat="44.301" lon="2.01539">
        <ele>239.8</ele>
        <time>2016-01-03T08:17:28Z</time>
      </trkpt>
      <trkpt lat="44.30096" lon="2.01536">
        <ele>239.9</ele>
        <time>2016-01-03T08:17:29Z</time>
      </trkpt>
      <trkpt lat="44.30092" lon="2.01534">
        <ele>239.9</ele>
        <time>2016-01-03T08:17:30Z</time>
      </trkpt>
      <trkpt lat="44.30089" lon="2.01531">
        <ele>239.9</ele>
        <time>2016-01-03T08:17:31Z</time>
      </trkpt>
      <trkpt lat="44.30085" lon="2.01529">
        <ele>240</ele>
        <time>2016-01-03T08:17:32Z</time>
      </trkpt>
      <trkpt lat="44.30082" lon="2.01526">
        <ele>240</ele>
        <time>2016-01-03T08:17:33Z</time>
      </trkpt>
      <trkpt lat="44.30079" lon="2.01523">
        <ele>239.9</ele>
        <time>2016-01-03T08:17:34Z</time>
      </trkpt>
      <trkpt lat="44.30075" lon="2.0152">
        <ele>239.9</ele>
        <time>2016-01-03T08:17:35Z</time>
      </trkpt>
      <trkpt lat="44.30072" lon="2.01517">
        <ele>239.9</ele>
        <time>2016-01-03T08:17:36Z</time>
      </trkpt>
      <trkpt lat="44.30069" lon="2.01515">
        <ele>239.9</ele>
        <time>2016-01-03T08:17:37Z</time>
      </trkpt>
      <trkpt lat="44.30066" lon="2.01512">
        <ele>239.9</ele>
        <time>2016-01-03T08:17:38Z</time>
      </trkpt>
      <trkpt lat="44.30062" lon="2.0151">
        <ele>239.9</ele>
        <time>2016-01-03T08:17:39Z</time>
      </trkpt>
      <trkpt lat="44.30059" lon="2.01507">
        <ele>239.9</ele>
        <time>2016-01-03T08:17:40Z</time>
      </trkpt>
      <trkpt lat="44.30056" lon="2.01505">
        <ele>239.9</ele>
        <time>2016-01-03T08:17:41Z</time>
      </trkpt>
      <trkpt lat="44.30052" lon="2.01503">
        <ele>239.9</ele>
        <time>2016-01-03T08:17:42Z</time>
      </trkpt>
      <trkpt lat="44.30049" lon="2.015">
        <ele>239.8</ele>
        <time>2016-01-03T08:17:43Z</time>
      </trkpt>
      <trkpt lat="44.30045" lon="2.01498">
        <ele>239.8</ele>
        <time>2016-01-03T08:17:44Z</time>
      </trkpt>
      <trkpt lat="44.30042" lon="2.01495">
        <ele>239.8</ele>
        <time>2016-01-03T08:17:45Z</time>
      </trkpt>
      <trkpt lat="44.30038" lon="2.01492">
        <ele>239.7</ele>
        <time>2016-01-03T08:17:46Z</time>
      </trkpt>
      <trkpt lat="44.30034" lon="2.0149">
        <ele>239.7</ele>
        <time>2016-01-03T08:17:47Z</time>
      </trkpt>
      <trkpt lat="44.3003" lon="2.01487">
        <ele>239.7</ele>
        <time>2016-01-03T08:17:48Z</time>
      </trkpt>
      <trkpt lat="44.30026" lon="2.01485">
        <ele>239.7</ele>
        <time>2016-01-03T08:17:49Z</time>
      </trkpt>
      <trkpt lat="44.30021" lon="2.01482">
        <ele>239.6</ele>
        <time>2016-01-03T08:17:50Z</time>
      </trkpt>
      <trkpt lat="44.30017" lon="2.01479">
        <ele>239.6</ele>
        <time>2016-01-03T08:17:51Z</time>
      </trkpt>
      <trkpt lat="44.30013" lon="2.01476">
        <ele>239.5</ele>
        <time>2016-01-03T08:17:52Z</time>
      </trkpt>
      <trkpt lat="44.30009" lon="2.01473">
        <ele>239.5</ele>
        <time>2016-01-03T08:17:53Z</time>
      </trkpt>
      <trkpt lat="44.30004" lon="2.0147">
        <ele>239.5</ele>
        <time>2016-01-03T08:17:54Z</time>
      </trkpt>
      <trkpt lat="44.29999" lon="2.01468">
        <ele>239.5</ele>
        <time>2016-01-03T08:17:55Z</time>
      </trkpt>
      <trkpt lat="44.29995" lon="2.01465">
        <ele>239.4</ele>
        <time>2016-01-03T08:17:56Z</time>
      </trkpt>
      <trkpt lat="44.29991" lon="2.01462">
        <ele>239.4</ele>
        <time>2016-01-03T08:17:57Z</time>
      </trkpt>
      <trkpt lat="44.29987" lon="2.01459">
        <ele>239.4</ele>
        <time>2016-01-03T08:17:58Z</time>
      </trkpt>
      <trkpt lat="44.29982" lon="2.01456">
        <ele>239.4</ele>
        <time>2016-01-03T08:17:59Z</time>
      </trkpt>
      <trkpt lat="44.29978" lon="2.01454">
        <ele>239.4</ele>
        <time>2016-01-03T08:18:00Z</time>
      </trkpt>
      <trkpt lat="44.29973" lon="2.01451">
        <ele>239.5</ele>
        <time>2016-01-03T08:18:01Z</time>
      </trkpt>
      <trkpt lat="44.29969" lon="2.01448">
        <ele>239.5</ele>
        <time>2016-01-03T08:18:02Z</time>
      </trkpt>
      <trkpt lat="44.29964" lon="2.01446">
        <ele>239.6</ele>
        <time>2016-01-03T08:18:03Z</time>
      </trkpt>
      <trkpt lat="44.2996" lon="2.01443">
        <ele>239.6</ele>
        <time>2016-01-03T08:18:04Z</time>
      </trkpt>
      <trkpt lat="44.29956" lon="2.01441">
        <ele>239.7</ele>
        <time>2016-01-03T08:18:05Z</time>
      </trkpt>
      <trkpt lat="44.29952" lon="2.01438">
        <ele>239.8</ele>
        <time>2016-01-03T08:18:06Z</time>
      </trkpt>
      <trkpt lat="44.29948" lon="2.01436">
        <ele>240</ele>
        <time>2016-01-03T08:18:07Z</time>
      </trkpt>
      <trkpt lat="44.29944" lon="2.01433">
        <ele>240.1</ele>
        <time>2016-01-03T08:18:08Z</time>
      </trkpt>
      <trkpt lat="44.2994" lon="2.01431">
        <ele>240.3</ele>
        <time>2016-01-03T08:18:09Z</time>
      </trkpt>
      <trkpt lat="44.29935" lon="2.01429">
        <ele>240.4</ele>
        <time>2016-01-03T08:18:10Z</time>
      </trkpt>
      <trkpt lat="44.29931" lon="2.01427">
        <ele>240.5</ele>
        <time>2016-01-03T08:18:11Z</time>
      </trkpt>
      <trkpt lat="44.29928" lon="2.01425">
        <ele>240.6</ele>
        <time>2016-01-03T08:18:12Z</time>
      </trkpt>
      <trkpt lat="44.29923" lon="2.01423">
        <ele>240.7</ele>
        <time>2016-01-03T08:18:13Z</time>
      </trkpt>
      <trkpt lat="44.29919" lon="2.01421">
        <ele>240.8</ele>
        <time>2016-01-03T08:18:14Z</time>
      </trkpt>
      <trkpt lat="44.29915" lon="2.01418">
        <ele>240.9</ele>
        <time>2016-01-03T08:18:15Z</time>
      </trkpt>
      <trkpt lat="44.29911" lon="2.01417">
        <ele>241</ele>
        <time>2016-01-03T08:18:16Z</time>
      </trkpt>
      <trkpt lat="44.29907" lon="2.01415">
        <ele>241.1</ele>
        <time>2016-01-03T08:18:17Z</time>
      </trkpt>
      <trkpt lat="44.29904" lon="2.01413">
        <ele>241.1</ele>
        <time>2016-01-03T08:18:18Z</time>
      </trkpt>
      <trkpt lat="44.299" lon="2.01412">
        <ele>241.2</ele>
        <time>2016-01-03T08:18:19Z</time>
      </trkpt>
      <trkpt lat="44.29895" lon="2.01411">
        <ele>241.4</ele>
        <time>2016-01-03T08:18:20Z</time>
      </trkpt>
      <trkpt lat="44.29891" lon="2.01409">
        <ele>241.4</ele>
        <time>2016-01-03T08:18:21Z</time>
      </trkpt>
      <trkpt lat="44.29887" lon="2.01408">
        <ele>241.5</ele>
        <time>2016-01-03T08:18:22Z</time>
      </trkpt>
      <trkpt lat="44.29882" lon="2.01407">
        <ele>241.7</ele>
        <time>2016-01-03T08:18:23Z</time>
      </trkpt>
      <trkpt lat="44.29878" lon="2.01406">
        <ele>241.7</ele>
        <time>2016-01-03T08:18:24Z</time>
      </trkpt>
      <trkpt lat="44.29873" lon="2.01404">
        <ele>241.7</ele>
        <time>2016-01-03T08:18:25Z</time>
      </trkpt>
      <trkpt lat="44.29869" lon="2.01403">
        <ele>241.6</ele>
        <time>2016-01-03T08:18:26Z</time>
      </trkpt>
      <trkpt lat="44.29865" lon="2.01401">
        <ele>241.5</ele>
        <time>2016-01-03T08:18:27Z</time>
      </trkpt>
      <trkpt lat="44.29861" lon="2.014">
        <ele>241.4</ele>
        <time>2016-01-03T08:18:28Z</time>
      </trkpt>
      <trkpt lat="44.29858" lon="2.01398">
        <ele>241.3</ele>
        <time>2016-01-03T08:18:29Z</time>
      </trkpt>
      <trkpt lat="44.29854" lon="2.01397">
        <ele>241.3</ele>
        <time>2016-01-03T08:18:30Z</time>
      </trkpt>
      <trkpt lat="44.2985" lon="2.01396">
        <ele>241.2</ele>
        <time>2016-01-03T08:18:31Z</time>
      </trkpt>
      <trkpt lat="44.29847" lon="2.01395">
        <ele>241.1</ele>
        <time>2016-01-03T08:18:32Z</time>
      </trkpt>
      <trkpt lat="44.29843" lon="2.01393">
        <ele>241</ele>
        <time>2016-01-03T08:18:33Z</time>
      </trkpt>
      <trkpt lat="44.2984" lon="2.01392">
        <ele>240.9</ele>
        <time>2016-01-03T08:18:34Z</time>
      </trkpt>
      <trkpt lat="44.29836" lon="2.01391">
        <ele>240.9</ele>
        <time>2016-01-03T08:18:35Z</time>
      </trkpt>
      <trkpt lat="44.29833" lon="2.01389">
        <ele>240.8</ele>
        <time>2016-01-03T08:18:36Z</time>
      </trkpt>
      <trkpt lat="44.29829" lon="2.01388">
        <ele>240.7</ele>
        <time>2016-01-03T08:18:37Z</time>
      </trkpt>
      <trkpt lat="44.29825" lon="2.01387">
        <ele>240.6</ele>
        <time>2016-01-03T08:18:38Z</time>
      </trkpt>
      <trkpt lat="44.29821" lon="2.01386">
        <ele>240.6</ele>
        <time>2016-01-03T08:18:39Z</time>
      </trkpt>
      <trkpt lat="44.29818" lon="2.01385">
        <ele>240.5</ele>
        <time>2016-01-03T08:18:40Z</time>
      </trkpt>
      <trkpt lat="44.29815" lon="2.01384">
        <ele>240.5</ele>
        <time>2016-01-03T08:18:41Z</time>
      </trkpt>
      <trkpt lat="44.29811" lon="2.01384">
        <ele>240.4</ele>
        <time>2016-01-03T08:18:42Z</time>
      </trkpt>
      <trkpt lat="44.29808" lon="2.01383">
        <ele>240.4</ele>
        <time>2016-01-03T08:18:43Z</time>
      </trkpt>
      <trkpt lat="44.29804" lon="2.01383">
        <ele>240.4</ele>
        <time>2016-01-03T08:18:44Z</time>
      </trkpt>
      <trkpt lat="44.298" lon="2.01383">
        <ele>240.4</ele>
        <time>2016-01-03T08:18:45Z</time>
      </trkpt>
      <trkpt lat="44.29796" lon="2.01383">
        <ele>240.4</ele>
        <time>2016-01-03T08:18:46Z</time>
      </trkpt>
      <trkpt lat="44.29792" lon="2.01383">
        <ele>240.4</ele>
        <time>2016-01-03T08:18:47Z</time>
      </trkpt>
      <trkpt lat="44.29788" lon="2.01383">
        <ele>240.5</ele>
        <time>2016-01-03T08:18:48Z</time>
      </trkpt>
      <trkpt lat="44.29784" lon="2.01384">
        <ele>240.5</ele>
        <time>2016-01-03T08:18:49Z</time>
      </trkpt>
      <trkpt lat="44.29781" lon="2.01384">
        <ele>240.6</ele>
        <time>2016-01-03T08:18:50Z</time>
      </trkpt>
      <trkpt lat="44.29777" lon="2.01385">
        <ele>240.7</ele>
        <time>2016-01-03T08:18:51Z</time>
      </trkpt>
      <trkpt lat="44.29774" lon="2.01386">
        <ele>240.8</ele>
        <time>2016-01-03T08:18:52Z</time>
      </trkpt>
      <trkpt lat="44.2977" lon="2.01387">
        <ele>241</ele>
        <time>2016-01-03T08:18:53Z</time>
      </trkpt>
      <trkpt lat="44.29766" lon="2.01388">
        <ele>241.1</ele>
        <time>2016-01-03T08:18:54Z</time>
      </trkpt>
      <trkpt lat="44.29763" lon="2.01389">
        <ele>241.2</ele>
        <time>2016-01-03T08:18:55Z</time>
      </trkpt>
      <trkpt lat="44.29759" lon="2.01389">
        <ele>241.3</ele>
        <time>2016-01-03T08:18:56Z</time>
      </trkpt>
      <trkpt lat="44.29755" lon="2.0139">
        <ele>241.4</ele>
        <time>2016-01-03T08:18:57Z</time>
      </trkpt>
      <trkpt lat="44.29751" lon="2.0139">
        <ele>241.5</ele>
        <time>2016-01-03T08:18:58Z</time>
      </trkpt>
      <trkpt lat="44.29747" lon="2.01391">
        <ele>241.6</ele>
        <time>2016-01-03T08:18:59Z</time>
      </trkpt>
      <trkpt lat="44.29743" lon="2.01391">
        <ele>241.7</ele>
        <time>2016-01-03T08:19:00Z</time>
      </trkpt>
      <trkpt lat="44.29739" lon="2.01391">
        <ele>241.8</ele>
        <time>2016-01-03T08:19:01Z</time>
      </trkpt>
      <trkpt lat="44.29734" lon="2.01391">
        <ele>241.8</ele>
        <time>2016-01-03T08:19:02Z</time>
      </trkpt>
      <trkpt lat="44.29731" lon="2.0139">
        <ele>241.9</ele>
        <time>2016-01-03T08:19:03Z</time>
      </trkpt>
      <trkpt lat="44.29727" lon="2.01389">
        <ele>241.8</ele>
        <time>2016-01-03T08:19:04Z</time>
      </trkpt>
      <trkpt lat="44.29723" lon="2.01387">
        <ele>241.8</ele>
        <time>2016-01-03T08:19:05Z</time>
      </trkpt>
      <trkpt lat="44.29719" lon="2.01385">
        <ele>241.7</ele>
        <time>2016-01-03T08:19:06Z</time>
      </trkpt>
      <trkpt lat="44.29715" lon="2.01382">
        <ele>241.5</ele>
        <time>2016-01-03T08:19:07Z</time>
      </trkpt>
      <trkpt lat="44.29712" lon="2.01379">
        <ele>241.3</ele>
        <time>2016-01-03T08:19:08Z</time>
      </trkpt>
      <trkpt lat="44.29708" lon="2.01375">
        <ele>241</ele>
        <time>2016-01-03T08:19:09Z</time>
      </trkpt>
      <trkpt lat="44.29705" lon="2.01371">
        <ele>241.1</ele>
        <time>2016-01-03T08:19:10Z</time>
      </trkpt>
      <trkpt lat="44.29702" lon="2.01367">
        <ele>241.1</ele>
        <time>2016-01-03T08:19:11Z</time>
      </trkpt>
      <trkpt lat="44.297" lon="2.01362">
        <ele>241.1</ele>
        <time>2016-01-03T08:19:12Z</time>
      </trkpt>
      <trkpt lat="44.29697" lon="2.01358">
        <ele>241.1</ele>
        <time>2016-01-03T08:19:13Z</time>
      </trkpt>
      <trkpt lat="44.29694" lon="2.01353">
        <ele>241.1</ele>
        <time>2016-01-03T08:19:14Z</time>
      </trkpt>
      <trkpt lat="44.29691" lon="2.01348">
        <ele>241.1</ele>
        <time>2016-01-03T08:19:15Z</time>
      </trkpt>
      <trkpt lat="44.29688" lon="2.01343">
        <ele>241</ele>
        <time>2016-01-03T08:19:16Z</time>
      </trkpt>
      <trkpt lat="44.29684" lon="2.01338">
        <ele>241</ele>
        <time>2016-01-03T08:19:17Z</time>
      </trkpt>
      <trkpt lat="44.29681" lon="2.01333">
        <ele>240.8</ele>
        <time>2016-01-03T08:19:18Z</time>
      </trkpt>
      <trkpt lat="44.29677" lon="2.01329">
        <ele>240.7</ele>
        <time>2016-01-03T08:19:19Z</time>
      </trkpt>
      <trkpt lat="44.29673" lon="2.01326">
        <ele>240.5</ele>
        <time>2016-01-03T08:19:20Z</time>
      </trkpt>
      <trkpt lat="44.29669" lon="2.01323">
        <ele>240.3</ele>
        <time>2016-01-03T08:19:21Z</time>
      </trkpt>
      <trkpt lat="44.29665" lon="2.0132">
        <ele>240.1</ele>
        <time>2016-01-03T08:19:22Z</time>
      </trkpt>
      <trkpt lat="44.29661" lon="2.01319">
        <ele>239.8</ele>
        <time>2016-01-03T08:19:23Z</time>
      </trkpt>
      <trkpt lat="44.29656" lon="2.01318">
        <ele>239.6</ele>
        <time>2016-01-03T08:19:24Z</time>
      </trkpt>
      <trkpt lat="44.29652" lon="2.01317">
        <ele>239.3</ele>
        <time>2016-01-03T08:19:25Z</time>
      </trkpt>
      <trkpt lat="44.29647" lon="2.01316">
        <ele>239.1</ele>
        <time>2016-01-03T08:19:26Z</time>
      </trkpt>
      <trkpt lat="44.29643" lon="2.01315">
        <ele>238.8</ele>
        <time>2016-01-03T08:19:27Z</time>
      </trkpt>
      <trkpt lat="44.29639" lon="2.01315">
        <ele>238.6</ele>
        <time>2016-01-03T08:19:28Z</time>
      </trkpt>
      <trkpt lat="44.29634" lon="2.01315">
        <ele>238.3</ele>
        <time>2016-01-03T08:19:29Z</time>
      </trkpt>
      <trkpt lat="44.29629" lon="2.01315">
        <ele>238.1</ele>
        <time>2016-01-03T08:19:30Z</time>
      </trkpt>
      <trkpt lat="44.29623" lon="2.01315">
        <ele>237.9</ele>
        <time>2016-01-03T08:19:31Z</time>
      </trkpt>
      <trkpt lat="44.29617" lon="2.01315">
        <ele>238.2</ele>
        <time>2016-01-03T08:19:32Z</time>
      </trkpt>
      <trkpt lat="44.29611" lon="2.01315">
        <ele>238.5</ele>
        <time>2016-01-03T08:19:33Z</time>
      </trkpt>
      <trkpt lat="44.29606" lon="2.01316">
        <ele>238.7</ele>
        <time>2016-01-03T08:19:34Z</time>
      </trkpt>
      <trkpt lat="44.296" lon="2.01316">
        <ele>239</ele>
        <time>2016-01-03T08:19:35Z</time>
      </trkpt>
      <trkpt lat="44.29593" lon="2.01317">
        <ele>239.3</ele>
        <time>2016-01-03T08:19:36Z</time>
      </trkpt>
      <trkpt lat="44.29587" lon="2.01317">
        <ele>239.6</ele>
        <time>2016-01-03T08:19:37Z</time>
      </trkpt>
      <trkpt lat="44.29581" lon="2.01317">
        <ele>239.9</ele>
        <time>2016-01-03T08:19:38Z</time>
      </trkpt>
      <trkpt lat="44.29576" lon="2.01317">
        <ele>240.2</ele>
        <time>2016-01-03T08:19:39Z</time>
      </trkpt>
      <trkpt lat="44.2957" lon="2.01317">
        <ele>240.5</ele>
        <time>2016-01-03T08:19:40Z</time>
      </trkpt>
      <trkpt lat="44.29565" lon="2.01317">
        <ele>240.7</ele>
        <time>2016-01-03T08:19:41Z</time>
      </trkpt>
      <trkpt lat="44.29559" lon="2.01316">
        <ele>240.9</ele>
        <time>2016-01-03T08:19:42Z</time>
      </trkpt>
      <trkpt lat="44.29554" lon="2.01316">
        <ele>241.1</ele>
        <time>2016-01-03T08:19:43Z</time>
      </trkpt>
      <trkpt lat="44.29548" lon="2.01316">
        <ele>241.3</ele>
        <time>2016-01-03T08:19:44Z</time>
      </trkpt>
      <trkpt lat="44.29543" lon="2.01315">
        <ele>241.5</ele>
        <time>2016-01-03T08:19:45Z</time>
      </trkpt>
      <trkpt lat="44.29538" lon="2.01315">
        <ele>241.9</ele>
        <time>2016-01-03T08:19:46Z</time>
      </trkpt>
      <trkpt lat="44.29533" lon="2.01314">
        <ele>242.3</ele>
        <time>2016-01-03T08:19:47Z</time>
      </trkpt>
      <trkpt lat="44.29529" lon="2.01313">
        <ele>242.6</ele>
        <time>2016-01-03T08:19:48Z</time>
      </trkpt>
      <trkpt lat="44.29524" lon="2.01312">
        <ele>243</ele>
        <time>2016-01-03T08:19:49Z</time>
      </trkpt>
      <trkpt lat="44.29519" lon="2.0131">
        <ele>243.3</ele>
        <time>2016-01-03T08:19:50Z</time>
      </trkpt>
      <trkpt lat="44.29515" lon="2.01309">
        <ele>243.6</ele>
        <time>2016-01-03T08:19:51Z</time>
      </trkpt>
      <trkpt lat="44.29511" lon="2.01307">
        <ele>243.8</ele>
        <time>2016-01-03T08:19:52Z</time>
      </trkpt>
      <trkpt lat="44.29507" lon="2.01306">
        <ele>244</ele>
        <time>2016-01-03T08:19:53Z</time>
      </trkpt>
      <trkpt lat="44.29504" lon="2.01304">
        <ele>244</ele>
        <time>2016-01-03T08:19:54Z</time>
      </trkpt>
      <trkpt lat="44.29499" lon="2.01301">
        <ele>244.3</ele>
        <time>2016-01-03T08:19:55Z</time>
      </trkpt>
      <trkpt lat="44.29494" lon="2.01298">
        <ele>244.3</ele>
        <time>2016-01-03T08:19:56Z</time>
      </trkpt>
      <trkpt lat="44.29491" lon="2.01294">
        <ele>244.2</ele>
        <time>2016-01-03T08:19:57Z</time>
      </trkpt>
      <trkpt lat="44.29488" lon="2.01291">
        <ele>244.1</ele>
        <time>2016-01-03T08:19:58Z</time>
      </trkpt>
      <trkpt lat="44.29484" lon="2.01288">
        <ele>244.2</ele>
        <time>2016-01-03T08:19:59Z</time>
      </trkpt>
      <trkpt lat="44.29481" lon="2.01284">
        <ele>244.2</ele>
        <time>2016-01-03T08:20:00Z</time>
      </trkpt>
      <trkpt lat="44.29478" lon="2.0128">
        <ele>244.2</ele>
        <time>2016-01-03T08:20:01Z</time>
      </trkpt>
      <trkpt lat="44.29475" lon="2.01276">
        <ele>244.1</ele>
        <time>2016-01-03T08:20:02Z</time>
      </trkpt>
      <trkpt lat="44.29472" lon="2.01272">
        <ele>244</ele>
        <time>2016-01-03T08:20:03Z</time>
      </trkpt>
      <trkpt lat="44.2947" lon="2.01268">
        <ele>243.8</ele>
        <time>2016-01-03T08:20:04Z</time>
      </trkpt>
      <trkpt lat="44.29467" lon="2.01263">
        <ele>243.7</ele>
        <time>2016-01-03T08:20:05Z</time>
      </trkpt>
      <trkpt lat="44.29464" lon="2.0126">
        <ele>243.5</ele>
        <time>2016-01-03T08:20:06Z</time>
      </trkpt>
      <trkpt lat="44.29461" lon="2.01256">
        <ele>243.4</ele>
        <time>2016-01-03T08:20:07Z</time>
      </trkpt>
      <trkpt lat="44.29458" lon="2.01252">
        <ele>243.2</ele>
        <time>2016-01-03T08:20:08Z</time>
      </trkpt>
      <trkpt lat="44.29455" lon="2.01248">
        <ele>243</ele>
        <time>2016-01-03T08:20:09Z</time>
      </trkpt>
      <trkpt lat="44.29453" lon="2.01244">
        <ele>242.7</ele>
        <time>2016-01-03T08:20:10Z</time>
      </trkpt>
      <trkpt lat="44.2945" lon="2.0124">
        <ele>242.4</ele>
        <time>2016-01-03T08:20:11Z</time>
      </trkpt>
      <trkpt lat="44.29448" lon="2.01237">
        <ele>242.1</ele>
        <time>2016-01-03T08:20:12Z</time>
      </trkpt>
      <trkpt lat="44.29446" lon="2.01233">
        <ele>241.9</ele>
        <time>2016-01-03T08:20:13Z</time>
      </trkpt>
      <trkpt lat="44.29444" lon="2.0123">
        <ele>241.6</ele>
        <time>2016-01-03T08:20:14Z</time>
      </trkpt>
      <trkpt lat="44.29441" lon="2.01226">
        <ele>241.3</ele>
        <time>2016-01-03T08:20:15Z</time>
      </trkpt>
      <trkpt lat="44.29439" lon="2.01222">
        <ele>241</ele>
        <time>2016-01-03T08:20:16Z</time>
      </trkpt>
      <trkpt lat="44.29436" lon="2.01219">
        <ele>240.7</ele>
        <time>2016-01-03T08:20:17Z</time>
      </trkpt>
      <trkpt lat="44.29434" lon="2.01216">
        <ele>240.4</ele>
        <time>2016-01-03T08:20:18Z</time>
      </trkpt>
      <trkpt lat="44.29432" lon="2.01212">
        <ele>240.1</ele>
        <time>2016-01-03T08:20:19Z</time>
      </trkpt>
      <trkpt lat="44.2943" lon="2.01209">
        <ele>239.7</ele>
        <time>2016-01-03T08:20:20Z</time>
      </trkpt>
      <trkpt lat="44.29427" lon="2.01205">
        <ele>239.6</ele>
        <time>2016-01-03T08:20:21Z</time>
      </trkpt>
      <trkpt lat="44.29425" lon="2.01202">
        <ele>239.6</ele>
        <time>2016-01-03T08:20:22Z</time>
      </trkpt>
      <trkpt lat="44.29422" lon="2.01199">
        <ele>239.5</ele>
        <time>2016-01-03T08:20:23Z</time>
      </trkpt>
      <trkpt lat="44.29419" lon="2.01195">
        <ele>239.5</ele>
        <time>2016-01-03T08:20:24Z</time>
      </trkpt>
      <trkpt lat="44.29416" lon="2.01192">
        <ele>239.4</ele>
        <time>2016-01-03T08:20:25Z</time>
      </trkpt>
      <trkpt lat="44.29411" lon="2.01188">
        <ele>239.4</ele>
        <time>2016-01-03T08:20:26Z</time>
      </trkpt>
      <trkpt lat="44.29407" lon="2.01184">
        <ele>239.4</ele>
        <time>2016-01-03T08:20:27Z</time>
      </trkpt>
      <trkpt lat="44.29404" lon="2.01182">
        <ele>239.3</ele>
        <time>2016-01-03T08:20:28Z</time>
      </trkpt>
      <trkpt lat="44.29399" lon="2.01179">
        <ele>239.4</ele>
        <time>2016-01-03T08:20:29Z</time>
      </trkpt>
      <trkpt lat="44.29394" lon="2.01177">
        <ele>239.4</ele>
        <time>2016-01-03T08:20:30Z</time>
      </trkpt>
      <trkpt lat="44.29389" lon="2.01175">
        <ele>239.4</ele>
        <time>2016-01-03T08:20:31Z</time>
      </trkpt>
      <trkpt lat="44.29384" lon="2.01173">
        <ele>239.5</ele>
        <time>2016-01-03T08:20:32Z</time>
      </trkpt>
      <trkpt lat="44.29378" lon="2.01172">
        <ele>239.6</ele>
        <time>2016-01-03T08:20:33Z</time>
      </trkpt>
      <trkpt lat="44.29372" lon="2.01172">
        <ele>239.8</ele>
        <time>2016-01-03T08:20:34Z</time>
      </trkpt>
      <trkpt lat="44.29366" lon="2.01171">
        <ele>239.9</ele>
        <time>2016-01-03T08:20:35Z</time>
      </trkpt>
      <trkpt lat="44.29361" lon="2.01171">
        <ele>240</ele>
        <time>2016-01-03T08:20:36Z</time>
      </trkpt>
      <trkpt lat="44.29356" lon="2.01171">
        <ele>240.2</ele>
        <time>2016-01-03T08:20:37Z</time>
      </trkpt>
      <trkpt lat="44.29351" lon="2.01172">
        <ele>240.3</ele>
        <time>2016-01-03T08:20:38Z</time>
      </trkpt>
      <trkpt lat="44.29345" lon="2.01172">
        <ele>240.5</ele>
        <time>2016-01-03T08:20:39Z</time>
      </trkpt>
      <trkpt lat="44.2934" lon="2.01173">
        <ele>240.7</ele>
        <time>2016-01-03T08:20:40Z</time>
      </trkpt>
      <trkpt lat="44.29334" lon="2.01174">
        <ele>240.9</ele>
        <time>2016-01-03T08:20:41Z</time>
      </trkpt>
      <trkpt lat="44.29329" lon="2.01174">
        <ele>241.1</ele>
        <time>2016-01-03T08:20:42Z</time>
      </trkpt>
      <trkpt lat="44.29324" lon="2.01175">
        <ele>241.3</ele>
        <time>2016-01-03T08:20:43Z</time>
      </trkpt>
      <trkpt lat="44.29319" lon="2.01176">
        <ele>241.5</ele>
        <time>2016-01-03T08:20:44Z</time>
      </trkpt>
      <trkpt lat="44.29313" lon="2.01176">
        <ele>241.6</ele>
        <time>2016-01-03T08:20:45Z</time>
      </trkpt>
      <trkpt lat="44.29307" lon="2.01177">
        <ele>241.9</ele>
        <time>2016-01-03T08:20:46Z</time>
      </trkpt>
      <trkpt lat="44.29302" lon="2.01177">
        <ele>242.1</ele>
        <time>2016-01-03T08:20:47Z</time>
      </trkpt>
      <trkpt lat="44.29297" lon="2.01177">
        <ele>242.2</ele>
        <time>2016-01-03T08:20:48Z</time>
      </trkpt>
      <trkpt lat="44.29292" lon="2.01176">
        <ele>242.3</ele>
        <time>2016-01-03T08:20:49Z</time>
      </trkpt>
      <trkpt lat="44.29288" lon="2.01175">
        <ele>242.6</ele>
        <time>2016-01-03T08:20:50Z</time>
      </trkpt>
      <trkpt lat="44.29284" lon="2.01174">
        <ele>243</ele>
        <time>2016-01-03T08:20:51Z</time>
      </trkpt>
      <trkpt lat="44.29279" lon="2.01173">
        <ele>243.4</ele>
        <time>2016-01-03T08:20:52Z</time>
      </trkpt>
      <trkpt lat="44.29275" lon="2.01171">
        <ele>243.7</ele>
        <time>2016-01-03T08:20:53Z</time>
      </trkpt>
      <trkpt lat="44.29271" lon="2.01169">
        <ele>243.9</ele>
        <time>2016-01-03T08:20:54Z</time>
      </trkpt>
      <trkpt lat="44.29266" lon="2.01166">
        <ele>244.2</ele>
        <time>2016-01-03T08:20:55Z</time>
      </trkpt>
      <trkpt lat="44.29262" lon="2.01164">
        <ele>244.4</ele>
        <time>2016-01-03T08:20:56Z</time>
      </trkpt>
      <trkpt lat="44.29257" lon="2.01162">
        <ele>244.6</ele>
        <time>2016-01-03T08:20:57Z</time>
      </trkpt>
      <trkpt lat="44.29253" lon="2.0116">
        <ele>244.9</ele>
        <time>2016-01-03T08:20:58Z</time>
      </trkpt>
      <trkpt lat="44.29249" lon="2.01158">
        <ele>245</ele>
        <time>2016-01-03T08:20:59Z</time>
      </trkpt>
      <trkpt lat="44.29246" lon="2.01156">
        <ele>245.1</ele>
        <time>2016-01-03T08:21:00Z</time>
      </trkpt>
      <trkpt lat="44.29242" lon="2.01154">
        <ele>245.3</ele>
        <time>2016-01-03T08:21:01Z</time>
      </trkpt>
      <trkpt lat="44.29238" lon="2.01151">
        <ele>245.3</ele>
        <time>2016-01-03T08:21:02Z</time>
      </trkpt>
      <trkpt lat="44.29235" lon="2.01149">
        <ele>245.3</ele>
        <time>2016-01-03T08:21:03Z</time>
      </trkpt>
      <trkpt lat="44.2923" lon="2.01147">
        <ele>245.5</ele>
        <time>2016-01-03T08:21:04Z</time>
      </trkpt>
      <trkpt lat="44.29226" lon="2.01145">
        <ele>245.5</ele>
        <time>2016-01-03T08:21:05Z</time>
      </trkpt>
      <trkpt lat="44.29222" lon="2.01142">
        <ele>245.5</ele>
        <time>2016-01-03T08:21:06Z</time>
      </trkpt>
      <trkpt lat="44.29218" lon="2.0114">
        <ele>245.5</ele>
        <time>2016-01-03T08:21:07Z</time>
      </trkpt>
      <trkpt lat="44.29213" lon="2.01137">
        <ele>245.5</ele>
        <time>2016-01-03T08:21:08Z</time>
      </trkpt>
      <trkpt lat="44.2921" lon="2.01136">
        <ele>245.5</ele>
        <time>2016-01-03T08:21:09Z</time>
      </trkpt>
      <trkpt lat="44.29206" lon="2.01134">
        <ele>245.6</ele>
        <time>2016-01-03T08:21:10Z</time>
      </trkpt>
      <trkpt lat="44.29203" lon="2.01133">
        <ele>245.5</ele>
        <time>2016-01-03T08:21:11Z</time>
      </trkpt>
      <trkpt lat="44.292" lon="2.01131">
        <ele>245.5</ele>
        <time>2016-01-03T08:21:12Z</time>
      </trkpt>
      <trkpt lat="44.29196" lon="2.01128">
        <ele>245.3</ele>
        <time>2016-01-03T08:21:13Z</time>
      </trkpt>
      <trkpt lat="44.29192" lon="2.01127">
        <ele>245.4</ele>
        <time>2016-01-03T08:21:14Z</time>
      </trkpt>
      <trkpt lat="44.29188" lon="2.01126">
        <ele>245.3</ele>
        <time>2016-01-03T08:21:15Z</time>
      </trkpt>
      <trkpt lat="44.29185" lon="2.01124">
        <ele>245.3</ele>
        <time>2016-01-03T08:21:16Z</time>
      </trkpt>
      <trkpt lat="44.29183" lon="2.01122">
        <ele>245.3</ele>
        <time>2016-01-03T08:21:17Z</time>
      </trkpt>
      <trkpt lat="44.29179" lon="2.01123">
        <ele>245.6</ele>
        <time>2016-01-03T08:21:19Z</time>
      </trkpt>
      <trkpt lat="44.29174" lon="2.01121">
        <ele>245.7</ele>
        <time>2016-01-03T08:21:21Z</time>
      </trkpt>
      <trkpt lat="44.2917" lon="2.0112">
        <ele>245.7</ele>
        <time>2016-01-03T08:21:22Z</time>
      </trkpt>
      <trkpt lat="44.29167" lon="2.01118">
        <ele>245.6</ele>
        <time>2016-01-03T08:21:23Z</time>
      </trkpt>
      <trkpt lat="44.29164" lon="2.01117">
        <ele>245.6</ele>
        <time>2016-01-03T08:21:24Z</time>
      </trkpt>
      <trkpt lat="44.29161" lon="2.01115">
        <ele>245.6</ele>
        <time>2016-01-03T08:21:25Z</time>
      </trkpt>
      <trkpt lat="44.29157" lon="2.01112">
        <ele>245.4</ele>
        <time>2016-01-03T08:21:27Z</time>
      </trkpt>
      <trkpt lat="44.29153" lon="2.0111">
        <ele>245.3</ele>
        <time>2016-01-03T08:21:28Z</time>
      </trkpt>
      <trkpt lat="44.29148" lon="2.01107">
        <ele>245.1</ele>
        <time>2016-01-03T08:21:29Z</time>
      </trkpt>
      <trkpt lat="44.29145" lon="2.01105">
        <ele>245</ele>
        <time>2016-01-03T08:21:30Z</time>
      </trkpt>
      <trkpt lat="44.29142" lon="2.01102">
        <ele>244.8</ele>
        <time>2016-01-03T08:21:31Z</time>
      </trkpt>
      <trkpt lat="44.29139" lon="2.011">
        <ele>244.6</ele>
        <time>2016-01-03T08:21:32Z</time>
      </trkpt>
      <trkpt lat="44.29136" lon="2.01098">
        <ele>244.4</ele>
        <time>2016-01-03T08:21:33Z</time>
      </trkpt>
      <trkpt lat="44.29132" lon="2.01097">
        <ele>244.3</ele>
        <time>2016-01-03T08:21:34Z</time>
      </trkpt>
      <trkpt lat="44.29129" lon="2.01095">
        <ele>244.2</ele>
        <time>2016-01-03T08:21:35Z</time>
      </trkpt>
      <trkpt lat="44.29126" lon="2.01094">
        <ele>244</ele>
        <time>2016-01-03T08:21:36Z</time>
      </trkpt>
      <trkpt lat="44.29124" lon="2.01091">
        <ele>243.9</ele>
        <time>2016-01-03T08:21:37Z</time>
      </trkpt>
      <trkpt lat="44.29121" lon="2.01089">
        <ele>243.7</ele>
        <time>2016-01-03T08:21:38Z</time>
      </trkpt>
      <trkpt lat="44.29117" lon="2.01085">
        <ele>243.6</ele>
        <time>2016-01-03T08:21:39Z</time>
      </trkpt>
      <trkpt lat="44.29112" lon="2.01081">
        <ele>243.4</ele>
        <time>2016-01-03T08:21:40Z</time>
      </trkpt>
      <trkpt lat="44.29107" lon="2.01077">
        <ele>243.1</ele>
        <time>2016-01-03T08:21:41Z</time>
      </trkpt>
      <trkpt lat="44.29104" lon="2.01075">
        <ele>243</ele>
        <time>2016-01-03T08:21:42Z</time>
      </trkpt>
      <trkpt lat="44.29099" lon="2.01074">
        <ele>243.2</ele>
        <time>2016-01-03T08:21:43Z</time>
      </trkpt>
      <trkpt lat="44.29094" lon="2.01073">
        <ele>243.3</ele>
        <time>2016-01-03T08:21:44Z</time>
      </trkpt>
      <trkpt lat="44.29088" lon="2.01069">
        <ele>243.2</ele>
        <time>2016-01-03T08:21:45Z</time>
      </trkpt>
      <trkpt lat="44.29082" lon="2.01067">
        <ele>243.1</ele>
        <time>2016-01-03T08:21:46Z</time>
      </trkpt>
      <trkpt lat="44.29077" lon="2.01065">
        <ele>243</ele>
        <time>2016-01-03T08:21:47Z</time>
      </trkpt>
      <trkpt lat="44.29072" lon="2.01064">
        <ele>243.1</ele>
        <time>2016-01-03T08:21:48Z</time>
      </trkpt>
      <trkpt lat="44.29066" lon="2.01062">
        <ele>243</ele>
        <time>2016-01-03T08:21:49Z</time>
      </trkpt>
      <trkpt lat="44.29062" lon="2.0106">
        <ele>242.9</ele>
        <time>2016-01-03T08:21:50Z</time>
      </trkpt>
      <trkpt lat="44.29057" lon="2.01059">
        <ele>242.8</ele>
        <time>2016-01-03T08:21:51Z</time>
      </trkpt>
      <trkpt lat="44.29054" lon="2.01058">
        <ele>242.8</ele>
        <time>2016-01-03T08:21:52Z</time>
      </trkpt>
      <trkpt lat="44.2905" lon="2.01057">
        <ele>242.8</ele>
        <time>2016-01-03T08:21:53Z</time>
      </trkpt>
      <trkpt lat="44.29046" lon="2.01057">
        <ele>242.8</ele>
        <time>2016-01-03T08:21:54Z</time>
      </trkpt>
      <trkpt lat="44.29043" lon="2.01056">
        <ele>242.9</ele>
        <time>2016-01-03T08:21:55Z</time>
      </trkpt>
      <trkpt lat="44.2904" lon="2.01055">
        <ele>242.9</ele>
        <time>2016-01-03T08:21:56Z</time>
      </trkpt>
      <trkpt lat="44.29036" lon="2.01055">
        <ele>243.5</ele>
        <time>2016-01-03T08:21:57Z</time>
      </trkpt>
      <trkpt lat="44.29033" lon="2.01054">
        <ele>243.6</ele>
        <time>2016-01-03T08:21:58Z</time>
      </trkpt>
      <trkpt lat="44.29029" lon="2.01051">
        <ele>243.5</ele>
        <time>2016-01-03T08:21:59Z</time>
      </trkpt>
      <trkpt lat="44.29026" lon="2.01049">
        <ele>243.3</ele>
        <time>2016-01-03T08:22:00Z</time>
      </trkpt>
      <trkpt lat="44.29023" lon="2.01048">
        <ele>243.3</ele>
        <time>2016-01-03T08:22:01Z</time>
      </trkpt>
      <trkpt lat="44.29017" lon="2.01047">
        <ele>244</ele>
        <time>2016-01-03T08:22:03Z</time>
      </trkpt>
      <trkpt lat="44.29014" lon="2.01046">
        <ele>244.2</ele>
        <time>2016-01-03T08:22:04Z</time>
      </trkpt>
      <trkpt lat="44.29011" lon="2.01046">
        <ele>244.3</ele>
        <time>2016-01-03T08:22:05Z</time>
      </trkpt>
      <trkpt lat="44.29008" lon="2.01045">
        <ele>244.6</ele>
        <time>2016-01-03T08:22:06Z</time>
      </trkpt>
      <trkpt lat="44.29005" lon="2.01044">
        <ele>244.7</ele>
        <time>2016-01-03T08:22:07Z</time>
      </trkpt>
      <trkpt lat="44.29002" lon="2.01043">
        <ele>244.8</ele>
        <time>2016-01-03T08:22:08Z</time>
      </trkpt>
      <trkpt lat="44.28999" lon="2.01042">
        <ele>244.8</ele>
        <time>2016-01-03T08:22:09Z</time>
      </trkpt>
      <trkpt lat="44.28997" lon="2.01041">
        <ele>244.8</ele>
        <time>2016-01-03T08:22:10Z</time>
      </trkpt>
      <trkpt lat="44.28994" lon="2.0104">
        <ele>245.1</ele>
        <time>2016-01-03T08:22:11Z</time>
      </trkpt>
      <trkpt lat="44.28991" lon="2.01039">
        <ele>245.4</ele>
        <time>2016-01-03T08:22:12Z</time>
      </trkpt>
      <trkpt lat="44.28987" lon="2.01038">
        <ele>245.8</ele>
        <time>2016-01-03T08:22:13Z</time>
      </trkpt>
      <trkpt lat="44.28984" lon="2.01037">
        <ele>246.1</ele>
        <time>2016-01-03T08:22:14Z</time>
      </trkpt>
      <trkpt lat="44.28981" lon="2.01036">
        <ele>246.3</ele>
        <time>2016-01-03T08:22:15Z</time>
      </trkpt>
      <trkpt lat="44.28978" lon="2.01035">
        <ele>246.5</ele>
        <time>2016-01-03T08:22:16Z</time>
      </trkpt>
      <trkpt lat="44.28975" lon="2.01034">
        <ele>246.8</ele>
        <time>2016-01-03T08:22:17Z</time>
      </trkpt>
      <trkpt lat="44.28972" lon="2.01033">
        <ele>247</ele>
        <time>2016-01-03T08:22:18Z</time>
      </trkpt>
      <trkpt lat="44.28969" lon="2.01032">
        <ele>247.3</ele>
        <time>2016-01-03T08:22:19Z</time>
      </trkpt>
      <trkpt lat="44.28966" lon="2.0103">
        <ele>247.4</ele>
        <time>2016-01-03T08:22:20Z</time>
      </trkpt>
      <trkpt lat="44.28963" lon="2.01029">
        <ele>247.6</ele>
        <time>2016-01-03T08:22:21Z</time>
      </trkpt>
      <trkpt lat="44.28958" lon="2.01028">
        <ele>248</ele>
        <time>2016-01-03T08:22:23Z</time>
      </trkpt>
      <trkpt lat="44.28956" lon="2.01027">
        <ele>248.2</ele>
        <time>2016-01-03T08:22:24Z</time>
      </trkpt>
      <trkpt lat="44.28951" lon="2.01026">
        <ele>248.8</ele>
        <time>2016-01-03T08:22:26Z</time>
      </trkpt>
      <trkpt lat="44.28947" lon="2.01023">
        <ele>249</ele>
        <time>2016-01-03T08:22:28Z</time>
      </trkpt>
      <trkpt lat="44.28941" lon="2.01021">
        <ele>249.5</ele>
        <time>2016-01-03T08:22:30Z</time>
      </trkpt>
      <trkpt lat="44.28936" lon="2.01019">
        <ele>249.9</ele>
        <time>2016-01-03T08:22:32Z</time>
      </trkpt>
      <trkpt lat="44.28934" lon="2.01019">
        <ele>250.2</ele>
        <time>2016-01-03T08:22:33Z</time>
      </trkpt>
      <trkpt lat="44.28929" lon="2.01018">
        <ele>250.7</ele>
        <time>2016-01-03T08:22:35Z</time>
      </trkpt>
      <trkpt lat="44.28925" lon="2.01016">
        <ele>251</ele>
        <time>2016-01-03T08:22:37Z</time>
      </trkpt>
      <trkpt lat="44.28922" lon="2.01015">
        <ele>251.3</ele>
        <time>2016-01-03T08:22:38Z</time>
      </trkpt>
      <trkpt lat="44.28919" lon="2.01014">
        <ele>251.5</ele>
        <time>2016-01-03T08:22:39Z</time>
      </trkpt>
      <trkpt lat="44.28916" lon="2.01012">
        <ele>251.5</ele>
        <time>2016-01-03T08:22:40Z</time>
      </trkpt>
      <trkpt lat="44.28912" lon="2.01011">
        <ele>252</ele>
        <time>2016-01-03T08:22:42Z</time>
      </trkpt>
      <trkpt lat="44.28907" lon="2.01008">
        <ele>252.1</ele>
        <time>2016-01-03T08:22:44Z</time>
      </trkpt>
      <trkpt lat="44.28902" lon="2.01005">
        <ele>252.3</ele>
        <time>2016-01-03T08:22:46Z</time>
      </trkpt>
      <trkpt lat="44.28897" lon="2.01002">
        <ele>252.5</ele>
        <time>2016-01-03T08:22:48Z</time>
      </trkpt>
      <trkpt lat="44.28895" lon="2.01001">
        <ele>252.6</ele>
        <time>2016-01-03T08:22:49Z</time>
      </trkpt>
      <trkpt lat="44.2889" lon="2.00999">
        <ele>252.9</ele>
        <time>2016-01-03T08:22:51Z</time>
      </trkpt>
      <trkpt lat="44.28886" lon="2.00998">
        <ele>253.1</ele>
        <time>2016-01-03T08:22:53Z</time>
      </trkpt>
      <trkpt lat="44.28882" lon="2.00996">
        <ele>253.3</ele>
        <time>2016-01-03T08:22:55Z</time>
      </trkpt>
      <trkpt lat="44.28879" lon="2.00994">
        <ele>253.4</ele>
        <time>2016-01-03T08:22:56Z</time>
      </trkpt>
      <trkpt lat="44.28876" lon="2.00993">
        <ele>253.5</ele>
        <time>2016-01-03T08:22:57Z</time>
      </trkpt>
      <trkpt lat="44.28871" lon="2.00992">
        <ele>254.6</ele>
        <time>2016-01-03T08:22:59Z</time>
      </trkpt>
      <trkpt lat="44.28867" lon="2.0099">
        <ele>255.6</ele>
        <time>2016-01-03T08:23:01Z</time>
      </trkpt>
      <trkpt lat="44.28864" lon="2.00989">
        <ele>256.2</ele>
        <time>2016-01-03T08:23:02Z</time>
      </trkpt>
      <trkpt lat="44.2886" lon="2.00987">
        <ele>257.2</ele>
        <time>2016-01-03T08:23:04Z</time>
      </trkpt>
      <trkpt lat="44.28855" lon="2.00986">
        <ele>258.4</ele>
        <time>2016-01-03T08:23:06Z</time>
      </trkpt>
      <trkpt lat="44.2885" lon="2.00986">
        <ele>259.8</ele>
        <time>2016-01-03T08:23:08Z</time>
      </trkpt>
      <trkpt lat="44.28845" lon="2.00987">
        <ele>261.6</ele>
        <time>2016-01-03T08:23:10Z</time>
      </trkpt>
      <trkpt lat="44.28842" lon="2.00987">
        <ele>262.4</ele>
        <time>2016-01-03T08:23:11Z</time>
      </trkpt>
      <trkpt lat="44.28839" lon="2.00987">
        <ele>263.5</ele>
        <time>2016-01-03T08:23:12Z</time>
      </trkpt>
      <trkpt lat="44.28836" lon="2.00988">
        <ele>264.6</ele>
        <time>2016-01-03T08:23:13Z</time>
      </trkpt>
      <trkpt lat="44.28833" lon="2.00989">
        <ele>265.7</ele>
        <time>2016-01-03T08:23:14Z</time>
      </trkpt>
      <trkpt lat="44.2883" lon="2.00988">
        <ele>266.5</ele>
        <time>2016-01-03T08:23:15Z</time>
      </trkpt>
      <trkpt lat="44.28827" lon="2.00987">
        <ele>267.2</ele>
        <time>2016-01-03T08:23:16Z</time>
      </trkpt>
      <trkpt lat="44.28824" lon="2.00985">
        <ele>267.7</ele>
        <time>2016-01-03T08:23:17Z</time>
      </trkpt>
      <trkpt lat="44.2882" lon="2.00983">
        <ele>268</ele>
        <time>2016-01-03T08:23:18Z</time>
      </trkpt>
      <trkpt lat="44.28818" lon="2.0098">
        <ele>267.9</ele>
        <time>2016-01-03T08:23:19Z</time>
      </trkpt>
      <trkpt lat="44.28815" lon="2.00978">
        <ele>268</ele>
        <time>2016-01-03T08:23:20Z</time>
      </trkpt>
      <trkpt lat="44.28813" lon="2.00975">
        <ele>267.9</ele>
        <time>2016-01-03T08:23:21Z</time>
      </trkpt>
      <trkpt lat="44.2881" lon="2.00973">
        <ele>267.9</ele>
        <time>2016-01-03T08:23:22Z</time>
      </trkpt>
      <trkpt lat="44.28806" lon="2.00968">
        <ele>267.6</ele>
        <time>2016-01-03T08:23:24Z</time>
      </trkpt>
      <trkpt lat="44.28804" lon="2.00966">
        <ele>267.6</ele>
        <time>2016-01-03T08:23:25Z</time>
      </trkpt>
      <trkpt lat="44.28801" lon="2.00964">
        <ele>267.6</ele>
        <time>2016-01-03T08:23:26Z</time>
      </trkpt>
      <trkpt lat="44.28799" lon="2.00962">
        <ele>267.4</ele>
        <time>2016-01-03T08:23:27Z</time>
      </trkpt>
      <trkpt lat="44.28796" lon="2.0096">
        <ele>267.4</ele>
        <time>2016-01-03T08:23:28Z</time>
      </trkpt>
      <trkpt lat="44.28793" lon="2.00958">
        <ele>267.4</ele>
        <time>2016-01-03T08:23:29Z</time>
      </trkpt>
      <trkpt lat="44.28791" lon="2.00956">
        <ele>267.5</ele>
        <time>2016-01-03T08:23:30Z</time>
      </trkpt>
      <trkpt lat="44.28789" lon="2.00953">
        <ele>267.7</ele>
        <time>2016-01-03T08:23:31Z</time>
      </trkpt>
      <trkpt lat="44.28786" lon="2.0095">
        <ele>267.8</ele>
        <time>2016-01-03T08:23:32Z</time>
      </trkpt>
      <trkpt lat="44.28783" lon="2.00948">
        <ele>268.4</ele>
        <time>2016-01-03T08:23:33Z</time>
      </trkpt>
      <trkpt lat="44.28781" lon="2.00946">
        <ele>268.8</ele>
        <time>2016-01-03T08:23:34Z</time>
      </trkpt>
      <trkpt lat="44.28778" lon="2.00944">
        <ele>269.1</ele>
        <time>2016-01-03T08:23:35Z</time>
      </trkpt>
      <trkpt lat="44.28776" lon="2.00942">
        <ele>269.5</ele>
        <time>2016-01-03T08:23:36Z</time>
      </trkpt>
      <trkpt lat="44.28773" lon="2.00939">
        <ele>269.7</ele>
        <time>2016-01-03T08:23:37Z</time>
      </trkpt>
      <trkpt lat="44.28771" lon="2.00937">
        <ele>270.1</ele>
        <time>2016-01-03T08:23:38Z</time>
      </trkpt>
      <trkpt lat="44.28768" lon="2.00934">
        <ele>270.4</ele>
        <time>2016-01-03T08:23:39Z</time>
      </trkpt>
      <trkpt lat="44.28765" lon="2.00932">
        <ele>270.8</ele>
        <time>2016-01-03T08:23:40Z</time>
      </trkpt>
      <trkpt lat="44.28763" lon="2.00929">
        <ele>271</ele>
        <time>2016-01-03T08:23:41Z</time>
      </trkpt>
      <trkpt lat="44.28761" lon="2.00927">
        <ele>271.2</ele>
        <time>2016-01-03T08:23:42Z</time>
      </trkpt>
      <trkpt lat="44.28759" lon="2.00924">
        <ele>271.4</ele>
        <time>2016-01-03T08:23:43Z</time>
      </trkpt>
      <trkpt lat="44.28756" lon="2.00922">
        <ele>271.7</ele>
        <time>2016-01-03T08:23:44Z</time>
      </trkpt>
      <trkpt lat="44.28754" lon="2.0092">
        <ele>272.1</ele>
        <time>2016-01-03T08:23:45Z</time>
      </trkpt>
      <trkpt lat="44.28751" lon="2.00917">
        <ele>272.3</ele>
        <time>2016-01-03T08:23:46Z</time>
      </trkpt>
      <trkpt lat="44.28749" lon="2.00914">
        <ele>272.5</ele>
        <time>2016-01-03T08:23:47Z</time>
      </trkpt>
      <trkpt lat="44.28746" lon="2.00911">
        <ele>272.8</ele>
        <time>2016-01-03T08:23:48Z</time>
      </trkpt>
      <trkpt lat="44.28743" lon="2.00908">
        <ele>273.2</ele>
        <time>2016-01-03T08:23:49Z</time>
      </trkpt>
      <trkpt lat="44.28741" lon="2.00905">
        <ele>273.4</ele>
        <time>2016-01-03T08:23:50Z</time>
      </trkpt>
      <trkpt lat="44.28738" lon="2.00902">
        <ele>273.7</ele>
        <time>2016-01-03T08:23:51Z</time>
      </trkpt>
      <trkpt lat="44.28736" lon="2.00899">
        <ele>273.8</ele>
        <time>2016-01-03T08:23:52Z</time>
      </trkpt>
      <trkpt lat="44.28734" lon="2.00897">
        <ele>274.1</ele>
        <time>2016-01-03T08:23:53Z</time>
      </trkpt>
      <trkpt lat="44.28732" lon="2.00894">
        <ele>274.3</ele>
        <time>2016-01-03T08:23:54Z</time>
      </trkpt>
      <trkpt lat="44.2873" lon="2.00891">
        <ele>274.4</ele>
        <time>2016-01-03T08:23:55Z</time>
      </trkpt>
      <trkpt lat="44.28727" lon="2.00889">
        <ele>274.7</ele>
        <time>2016-01-03T08:23:56Z</time>
      </trkpt>
      <trkpt lat="44.28725" lon="2.00886">
        <ele>274.9</ele>
        <time>2016-01-03T08:23:57Z</time>
      </trkpt>
      <trkpt lat="44.28723" lon="2.00883">
        <ele>275</ele>
        <time>2016-01-03T08:23:58Z</time>
      </trkpt>
      <trkpt lat="44.28721" lon="2.0088">
        <ele>275.2</ele>
        <time>2016-01-03T08:23:59Z</time>
      </trkpt>
      <trkpt lat="44.28719" lon="2.00878">
        <ele>275.5</ele>
        <time>2016-01-03T08:24:00Z</time>
      </trkpt>
      <trkpt lat="44.28717" lon="2.00875">
        <ele>275.7</ele>
        <time>2016-01-03T08:24:01Z</time>
      </trkpt>
      <trkpt lat="44.28713" lon="2.0087">
        <ele>275.9</ele>
        <time>2016-01-03T08:24:03Z</time>
      </trkpt>
      <trkpt lat="44.2871" lon="2.00864">
        <ele>276.1</ele>
        <time>2016-01-03T08:24:05Z</time>
      </trkpt>
      <trkpt lat="44.28707" lon="2.00862">
        <ele>276.2</ele>
        <time>2016-01-03T08:24:06Z</time>
      </trkpt>
      <trkpt lat="44.28705" lon="2.00859">
        <ele>276.1</ele>
        <time>2016-01-03T08:24:07Z</time>
      </trkpt>
      <trkpt lat="44.28703" lon="2.00856">
        <ele>276</ele>
        <time>2016-01-03T08:24:08Z</time>
      </trkpt>
      <trkpt lat="44.28702" lon="2.00853">
        <ele>275.7</ele>
        <time>2016-01-03T08:24:09Z</time>
      </trkpt>
      <trkpt lat="44.287" lon="2.0085">
        <ele>275.7</ele>
        <time>2016-01-03T08:24:10Z</time>
      </trkpt>
      <trkpt lat="44.28698" lon="2.00847">
        <ele>275.5</ele>
        <time>2016-01-03T08:24:11Z</time>
      </trkpt>
      <trkpt lat="44.28696" lon="2.00845">
        <ele>275.5</ele>
        <time>2016-01-03T08:24:12Z</time>
      </trkpt>
      <trkpt lat="44.28694" lon="2.00842">
        <ele>275.4</ele>
        <time>2016-01-03T08:24:13Z</time>
      </trkpt>
      <trkpt lat="44.28692" lon="2.00839">
        <ele>275.3</ele>
        <time>2016-01-03T08:24:14Z</time>
      </trkpt>
      <trkpt lat="44.28689" lon="2.00833">
        <ele>274.8</ele>
        <time>2016-01-03T08:24:16Z</time>
      </trkpt>
      <trkpt lat="44.28686" lon="2.0083">
        <ele>274.9</ele>
        <time>2016-01-03T08:24:17Z</time>
      </trkpt>
      <trkpt lat="44.28685" lon="2.00827">
        <ele>274.7</ele>
        <time>2016-01-03T08:24:18Z</time>
      </trkpt>
      <trkpt lat="44.28682" lon="2.00825">
        <ele>274.8</ele>
        <time>2016-01-03T08:24:19Z</time>
      </trkpt>
      <trkpt lat="44.2868" lon="2.00822">
        <ele>274.9</ele>
        <time>2016-01-03T08:24:20Z</time>
      </trkpt>
      <trkpt lat="44.28678" lon="2.00818">
        <ele>274.7</ele>
        <time>2016-01-03T08:24:21Z</time>
      </trkpt>
      <trkpt lat="44.28677" lon="2.00815">
        <ele>274.4</ele>
        <time>2016-01-03T08:24:22Z</time>
      </trkpt>
      <trkpt lat="44.28675" lon="2.00812">
        <ele>274.3</ele>
        <time>2016-01-03T08:24:23Z</time>
      </trkpt>
      <trkpt lat="44.28673" lon="2.00809">
        <ele>274.1</ele>
        <time>2016-01-03T08:24:24Z</time>
      </trkpt>
      <trkpt lat="44.28671" lon="2.00805">
        <ele>274</ele>
        <time>2016-01-03T08:24:25Z</time>
      </trkpt>
      <trkpt lat="44.28669" lon="2.00802">
        <ele>273.8</ele>
        <time>2016-01-03T08:24:26Z</time>
      </trkpt>
      <trkpt lat="44.28667" lon="2.00799">
        <ele>273.8</ele>
        <time>2016-01-03T08:24:27Z</time>
      </trkpt>
      <trkpt lat="44.28666" lon="2.00795">
        <ele>273.6</ele>
        <time>2016-01-03T08:24:28Z</time>
      </trkpt>
      <trkpt lat="44.28664" lon="2.00792">
        <ele>273.4</ele>
        <time>2016-01-03T08:24:29Z</time>
      </trkpt>
      <trkpt lat="44.28662" lon="2.00788">
        <ele>273.4</ele>
        <time>2016-01-03T08:24:30Z</time>
      </trkpt>
      <trkpt lat="44.2866" lon="2.00785">
        <ele>273.4</ele>
        <time>2016-01-03T08:24:31Z</time>
      </trkpt>
      <trkpt lat="44.28658" lon="2.00782">
        <ele>273.4</ele>
        <time>2016-01-03T08:24:32Z</time>
      </trkpt>
      <trkpt lat="44.28657" lon="2.00778">
        <ele>273.3</ele>
        <time>2016-01-03T08:24:33Z</time>
      </trkpt>
      <trkpt lat="44.28656" lon="2.00775">
        <ele>273.1</ele>
        <time>2016-01-03T08:24:34Z</time>
      </trkpt>
      <trkpt lat="44.28653" lon="2.00771">
        <ele>273.2</ele>
        <time>2016-01-03T08:24:35Z</time>
      </trkpt>
      <trkpt lat="44.28652" lon="2.00768">
        <ele>273.2</ele>
        <time>2016-01-03T08:24:36Z</time>
      </trkpt>
      <trkpt lat="44.2865" lon="2.00764">
        <ele>273.1</ele>
        <time>2016-01-03T08:24:37Z</time>
      </trkpt>
      <trkpt lat="44.28648" lon="2.0076">
        <ele>273</ele>
        <time>2016-01-03T08:24:38Z</time>
      </trkpt>
      <trkpt lat="44.28646" lon="2.00756">
        <ele>273.1</ele>
        <time>2016-01-03T08:24:39Z</time>
      </trkpt>
      <trkpt lat="44.28644" lon="2.00753">
        <ele>273.1</ele>
        <time>2016-01-03T08:24:40Z</time>
      </trkpt>
      <trkpt lat="44.28643" lon="2.0075">
        <ele>273</ele>
        <time>2016-01-03T08:24:41Z</time>
      </trkpt>
      <trkpt lat="44.28641" lon="2.00746">
        <ele>273</ele>
        <time>2016-01-03T08:24:42Z</time>
      </trkpt>
      <trkpt lat="44.28639" lon="2.00742">
        <ele>273</ele>
        <time>2016-01-03T08:24:43Z</time>
      </trkpt>
      <trkpt lat="44.28637" lon="2.00739">
        <ele>273</ele>
        <time>2016-01-03T08:24:44Z</time>
      </trkpt>
      <trkpt lat="44.28636" lon="2.00735">
        <ele>272.9</ele>
        <time>2016-01-03T08:24:45Z</time>
      </trkpt>
      <trkpt lat="44.28634" lon="2.00732">
        <ele>272.9</ele>
        <time>2016-01-03T08:24:46Z</time>
      </trkpt>
      <trkpt lat="44.28632" lon="2.00726">
        <ele>272.6</ele>
        <time>2016-01-03T08:24:48Z</time>
      </trkpt>
      <trkpt lat="44.2863" lon="2.00719">
        <ele>272.2</ele>
        <time>2016-01-03T08:24:50Z</time>
      </trkpt>
      <trkpt lat="44.28627" lon="2.00712">
        <ele>271.9</ele>
        <time>2016-01-03T08:24:52Z</time>
      </trkpt>
      <trkpt lat="44.28626" lon="2.00709">
        <ele>271.8</ele>
        <time>2016-01-03T08:24:53Z</time>
      </trkpt>
      <trkpt lat="44.28624" lon="2.00706">
        <ele>271.8</ele>
        <time>2016-01-03T08:24:54Z</time>
      </trkpt>
      <trkpt lat="44.28622" lon="2.00703">
        <ele>271.5</ele>
        <time>2016-01-03T08:24:55Z</time>
      </trkpt>
      <trkpt lat="44.2862" lon="2.00697">
        <ele>270.9</ele>
        <time>2016-01-03T08:24:57Z</time>
      </trkpt>
      <trkpt lat="44.28616" lon="2.00692">
        <ele>270.6</ele>
        <time>2016-01-03T08:24:59Z</time>
      </trkpt>
      <trkpt lat="44.28612" lon="2.00687">
        <ele>270.3</ele>
        <time>2016-01-03T08:25:01Z</time>
      </trkpt>
      <trkpt lat="44.28608" lon="2.00683">
        <ele>270</ele>
        <time>2016-01-03T08:25:03Z</time>
      </trkpt>
      <trkpt lat="44.28605" lon="2.00677">
        <ele>269.5</ele>
        <time>2016-01-03T08:25:05Z</time>
      </trkpt>
      <trkpt lat="44.28602" lon="2.00672">
        <ele>269.2</ele>
        <time>2016-01-03T08:25:07Z</time>
      </trkpt>
      <trkpt lat="44.28599" lon="2.00668">
        <ele>268.9</ele>
        <time>2016-01-03T08:25:09Z</time>
      </trkpt>
      <trkpt lat="44.28595" lon="2.00663">
        <ele>268.6</ele>
        <time>2016-01-03T08:25:11Z</time>
      </trkpt>
      <trkpt lat="44.28591" lon="2.00658">
        <ele>268.2</ele>
        <time>2016-01-03T08:25:13Z</time>
      </trkpt>
      <trkpt lat="44.28589" lon="2.00654">
        <ele>268</ele>
        <time>2016-01-03T08:25:14Z</time>
      </trkpt>
      <trkpt lat="44.28587" lon="2.00651">
        <ele>267.8</ele>
        <time>2016-01-03T08:25:15Z</time>
      </trkpt>
      <trkpt lat="44.28584" lon="2.00647">
        <ele>267.5</ele>
        <time>2016-01-03T08:25:16Z</time>
      </trkpt>
      <trkpt lat="44.28582" lon="2.00643">
        <ele>267.3</ele>
        <time>2016-01-03T08:25:17Z</time>
      </trkpt>
      <trkpt lat="44.28579" lon="2.00639">
        <ele>267</ele>
        <time>2016-01-03T08:25:18Z</time>
      </trkpt>
      <trkpt lat="44.28576" lon="2.00634">
        <ele>266.8</ele>
        <time>2016-01-03T08:25:19Z</time>
      </trkpt>
      <trkpt lat="44.28573" lon="2.00629">
        <ele>266.5</ele>
        <time>2016-01-03T08:25:20Z</time>
      </trkpt>
      <trkpt lat="44.28569" lon="2.00625">
        <ele>266.3</ele>
        <time>2016-01-03T08:25:21Z</time>
      </trkpt>
      <trkpt lat="44.28566" lon="2.0062">
        <ele>266.4</ele>
        <time>2016-01-03T08:25:22Z</time>
      </trkpt>
      <trkpt lat="44.28563" lon="2.00614">
        <ele>266.5</ele>
        <time>2016-01-03T08:25:23Z</time>
      </trkpt>
      <trkpt lat="44.28559" lon="2.00609">
        <ele>266.6</ele>
        <time>2016-01-03T08:25:24Z</time>
      </trkpt>
      <trkpt lat="44.28555" lon="2.00603">
        <ele>266.7</ele>
        <time>2016-01-03T08:25:25Z</time>
      </trkpt>
      <trkpt lat="44.28551" lon="2.00597">
        <ele>266.9</ele>
        <time>2016-01-03T08:25:26Z</time>
      </trkpt>
      <trkpt lat="44.28547" lon="2.00592">
        <ele>267.1</ele>
        <time>2016-01-03T08:25:27Z</time>
      </trkpt>
      <trkpt lat="44.28544" lon="2.00586">
        <ele>267.4</ele>
        <time>2016-01-03T08:25:28Z</time>
      </trkpt>
      <trkpt lat="44.28539" lon="2.0058">
        <ele>267.3</ele>
        <time>2016-01-03T08:25:29Z</time>
      </trkpt>
      <trkpt lat="44.28536" lon="2.00573">
        <ele>267</ele>
        <time>2016-01-03T08:25:30Z</time>
      </trkpt>
      <trkpt lat="44.28533" lon="2.00566">
        <ele>266.6</ele>
        <time>2016-01-03T08:25:31Z</time>
      </trkpt>
      <trkpt lat="44.28529" lon="2.00559">
        <ele>266.2</ele>
        <time>2016-01-03T08:25:32Z</time>
      </trkpt>
      <trkpt lat="44.28526" lon="2.0055">
        <ele>265.7</ele>
        <time>2016-01-03T08:25:33Z</time>
      </trkpt>
      <trkpt lat="44.28523" lon="2.00542">
        <ele>265.2</ele>
        <time>2016-01-03T08:25:34Z</time>
      </trkpt>
      <trkpt lat="44.28521" lon="2.00533">
        <ele>264.4</ele>
        <time>2016-01-03T08:25:35Z</time>
      </trkpt>
      <trkpt lat="44.28519" lon="2.00524">
        <ele>263.7</ele>
        <time>2016-01-03T08:25:36Z</time>
      </trkpt>
      <trkpt lat="44.28517" lon="2.00515">
        <ele>262.9</ele>
        <time>2016-01-03T08:25:37Z</time>
      </trkpt>
      <trkpt lat="44.28516" lon="2.00507">
        <ele>262.3</ele>
        <time>2016-01-03T08:25:38Z</time>
      </trkpt>
      <trkpt lat="44.28513" lon="2.00499">
        <ele>261.5</ele>
        <time>2016-01-03T08:25:39Z</time>
      </trkpt>
      <trkpt lat="44.28509" lon="2.00491">
        <ele>260.7</ele>
        <time>2016-01-03T08:25:40Z</time>
      </trkpt>
      <trkpt lat="44.28502" lon="2.00486">
        <ele>259.8</ele>
        <time>2016-01-03T08:25:41Z</time>
      </trkpt>
      <trkpt lat="44.28495" lon="2.00482">
        <ele>259</ele>
        <time>2016-01-03T08:25:42Z</time>
      </trkpt>
      <trkpt lat="44.28487" lon="2.00479">
        <ele>258.2</ele>
        <time>2016-01-03T08:25:43Z</time>
      </trkpt>
      <trkpt lat="44.28479" lon="2.00476">
        <ele>257.4</ele>
        <time>2016-01-03T08:25:44Z</time>
      </trkpt>
      <trkpt lat="44.2847" lon="2.00473">
        <ele>256.6</ele>
        <time>2016-01-03T08:25:45Z</time>
      </trkpt>
      <trkpt lat="44.28462" lon="2.00468">
        <ele>255.7</ele>
        <time>2016-01-03T08:25:46Z</time>
      </trkpt>
      <trkpt lat="44.28454" lon="2.00464">
        <ele>255.2</ele>
        <time>2016-01-03T08:25:47Z</time>
      </trkpt>
      <trkpt lat="44.28446" lon="2.00458">
        <ele>254.8</ele>
        <time>2016-01-03T08:25:48Z</time>
      </trkpt>
      <trkpt lat="44.28438" lon="2.00453">
        <ele>254.6</ele>
        <time>2016-01-03T08:25:49Z</time>
      </trkpt>
      <trkpt lat="44.2843" lon="2.00449">
        <ele>254.4</ele>
        <time>2016-01-03T08:25:50Z</time>
      </trkpt>
      <trkpt lat="44.28422" lon="2.00446">
        <ele>254.2</ele>
        <time>2016-01-03T08:25:51Z</time>
      </trkpt>
      <trkpt lat="44.28413" lon="2.00445">
        <ele>254</ele>
        <time>2016-01-03T08:25:52Z</time>
      </trkpt>
      <trkpt lat="44.28404" lon="2.00443">
        <ele>253.9</ele>
        <time>2016-01-03T08:25:53Z</time>
      </trkpt>
      <trkpt lat="44.28395" lon="2.00442">
        <ele>253.7</ele>
        <time>2016-01-03T08:25:54Z</time>
      </trkpt>
      <trkpt lat="44.28387" lon="2.00443">
        <ele>253.6</ele>
        <time>2016-01-03T08:25:55Z</time>
      </trkpt>
      <trkpt lat="44.2838" lon="2.00444">
        <ele>253.5</ele>
        <time>2016-01-03T08:25:56Z</time>
      </trkpt>
      <trkpt lat="44.28373" lon="2.00445">
        <ele>253.4</ele>
        <time>2016-01-03T08:25:57Z</time>
      </trkpt>
      <trkpt lat="44.28366" lon="2.00447">
        <ele>253.2</ele>
        <time>2016-01-03T08:25:58Z</time>
      </trkpt>
      <trkpt lat="44.28359" lon="2.00448">
        <ele>253.1</ele>
        <time>2016-01-03T08:25:59Z</time>
      </trkpt>
      <trkpt lat="44.28353" lon="2.0045">
        <ele>252.9</ele>
        <time>2016-01-03T08:26:00Z</time>
      </trkpt>
      <trkpt lat="44.28347" lon="2.00452">
        <ele>252.8</ele>
        <time>2016-01-03T08:26:01Z</time>
      </trkpt>
      <trkpt lat="44.28343" lon="2.00453">
        <ele>252.6</ele>
        <time>2016-01-03T08:26:02Z</time>
      </trkpt>
      <trkpt lat="44.28339" lon="2.00454">
        <ele>252.5</ele>
        <time>2016-01-03T08:26:03Z</time>
      </trkpt>
      <trkpt lat="44.28335" lon="2.00455">
        <ele>252.4</ele>
        <time>2016-01-03T08:26:04Z</time>
      </trkpt>
      <trkpt lat="44.28332" lon="2.00456">
        <ele>252.3</ele>
        <time>2016-01-03T08:26:05Z</time>
      </trkpt>
      <trkpt lat="44.28329" lon="2.00457">
        <ele>252.3</ele>
        <time>2016-01-03T08:26:06Z</time>
      </trkpt>
      <trkpt lat="44.28326" lon="2.00459">
        <ele>252.2</ele>
        <time>2016-01-03T08:26:07Z</time>
      </trkpt>
      <trkpt lat="44.28324" lon="2.00462">
        <ele>252.3</ele>
        <time>2016-01-03T08:26:08Z</time>
      </trkpt>
      <trkpt lat="44.28322" lon="2.00465">
        <ele>252.5</ele>
        <time>2016-01-03T08:26:09Z</time>
      </trkpt>
      <trkpt lat="44.28321" lon="2.00469">
        <ele>252.6</ele>
        <time>2016-01-03T08:26:10Z</time>
      </trkpt>
      <trkpt lat="44.2832" lon="2.00475">
        <ele>252.9</ele>
        <time>2016-01-03T08:26:12Z</time>
      </trkpt>
      <trkpt lat="44.2832" lon="2.0048">
        <ele>253.1</ele>
        <time>2016-01-03T08:26:13Z</time>
      </trkpt>
      <trkpt lat="44.28319" lon="2.00484">
        <ele>253.3</ele>
        <time>2016-01-03T08:26:14Z</time>
      </trkpt>
      <trkpt lat="44.28318" lon="2.00488">
        <ele>253.5</ele>
        <time>2016-01-03T08:26:15Z</time>
      </trkpt>
      <trkpt lat="44.28318" lon="2.00492">
        <ele>253.7</ele>
        <time>2016-01-03T08:26:16Z</time>
      </trkpt>
      <trkpt lat="44.28316" lon="2.00499">
        <ele>253.9</ele>
        <time>2016-01-03T08:26:18Z</time>
      </trkpt>
      <trkpt lat="44.28314" lon="2.00505">
        <ele>254.2</ele>
        <time>2016-01-03T08:26:20Z</time>
      </trkpt>
      <trkpt lat="44.28312" lon="2.00508">
        <ele>254.2</ele>
        <time>2016-01-03T08:26:21Z</time>
      </trkpt>
      <trkpt lat="44.28311" lon="2.00512">
        <ele>254.4</ele>
        <time>2016-01-03T08:26:22Z</time>
      </trkpt>
      <trkpt lat="44.2831" lon="2.00516">
        <ele>254.5</ele>
        <time>2016-01-03T08:26:23Z</time>
      </trkpt>
      <trkpt lat="44.28309" lon="2.0052">
        <ele>254.7</ele>
        <time>2016-01-03T08:26:24Z</time>
      </trkpt>
      <trkpt lat="44.28307" lon="2.00526">
        <ele>254.9</ele>
        <time>2016-01-03T08:26:26Z</time>
      </trkpt>
      <trkpt lat="44.28306" lon="2.00533">
        <ele>255.3</ele>
        <time>2016-01-03T08:26:28Z</time>
      </trkpt>
      <trkpt lat="44.28305" lon="2.00541">
        <ele>255.6</ele>
        <time>2016-01-03T08:26:30Z</time>
      </trkpt>
      <trkpt lat="44.28304" lon="2.00548">
        <ele>255.7</ele>
        <time>2016-01-03T08:26:32Z</time>
      </trkpt>
      <trkpt lat="44.28303" lon="2.00552">
        <ele>255.8</ele>
        <time>2016-01-03T08:26:33Z</time>
      </trkpt>
      <trkpt lat="44.28303" lon="2.00556">
        <ele>255.9</ele>
        <time>2016-01-03T08:26:34Z</time>
      </trkpt>
      <trkpt lat="44.28303" lon="2.00561">
        <ele>256</ele>
        <time>2016-01-03T08:26:35Z</time>
      </trkpt>
      <trkpt lat="44.28303" lon="2.00565">
        <ele>256.1</ele>
        <time>2016-01-03T08:26:36Z</time>
      </trkpt>
      <trkpt lat="44.28303" lon="2.00569">
        <ele>256.2</ele>
        <time>2016-01-03T08:26:37Z</time>
      </trkpt>
      <trkpt lat="44.28304" lon="2.00574">
        <ele>256.3</ele>
        <time>2016-01-03T08:26:38Z</time>
      </trkpt>
      <trkpt lat="44.28304" lon="2.00578">
        <ele>256.4</ele>
        <time>2016-01-03T08:26:39Z</time>
      </trkpt>
      <trkpt lat="44.28304" lon="2.00585">
        <ele>256.6</ele>
        <time>2016-01-03T08:26:41Z</time>
      </trkpt>
      <trkpt lat="44.28305" lon="2.00592">
        <ele>256.8</ele>
        <time>2016-01-03T08:26:43Z</time>
      </trkpt>
      <trkpt lat="44.28305" lon="2.00599">
        <ele>257</ele>
        <time>2016-01-03T08:26:45Z</time>
      </trkpt>
      <trkpt lat="44.28306" lon="2.00604">
        <ele>257.2</ele>
        <time>2016-01-03T08:26:47Z</time>
      </trkpt>
      <trkpt lat="44.28307" lon="2.00611">
        <ele>257.4</ele>
        <time>2016-01-03T08:26:49Z</time>
      </trkpt>
      <trkpt lat="44.2831" lon="2.00617">
        <ele>257.7</ele>
        <time>2016-01-03T08:26:51Z</time>
      </trkpt>
      <trkpt lat="44.28312" lon="2.00623">
        <ele>257.9</ele>
        <time>2016-01-03T08:26:53Z</time>
      </trkpt>
      <trkpt lat="44.28313" lon="2.00628">
        <ele>258.2</ele>
        <time>2016-01-03T08:26:55Z</time>
      </trkpt>
      <trkpt lat="44.28316" lon="2.00636">
        <ele>258.8</ele>
        <time>2016-01-03T08:26:57Z</time>
      </trkpt>
      <trkpt lat="44.28317" lon="2.00641">
        <ele>259</ele>
        <time>2016-01-03T08:26:58Z</time>
      </trkpt>
      <trkpt lat="44.28319" lon="2.00644">
        <ele>259.3</ele>
        <time>2016-01-03T08:26:59Z</time>
      </trkpt>
      <trkpt lat="44.2832" lon="2.00648">
        <ele>259.5</ele>
        <time>2016-01-03T08:27:00Z</time>
      </trkpt>
      <trkpt lat="44.28322" lon="2.00653">
        <ele>259.9</ele>
        <time>2016-01-03T08:27:02Z</time>
      </trkpt>
      <trkpt lat="44.28325" lon="2.00658">
        <ele>260.2</ele>
        <time>2016-01-03T08:27:04Z</time>
      </trkpt>
      <trkpt lat="44.28327" lon="2.00662">
        <ele>260.4</ele>
        <time>2016-01-03T08:27:05Z</time>
      </trkpt>
      <trkpt lat="44.28329" lon="2.00665">
        <ele>260.6</ele>
        <time>2016-01-03T08:27:06Z</time>
      </trkpt>
      <trkpt lat="44.28331" lon="2.00669">
        <ele>260.8</ele>
        <time>2016-01-03T08:27:07Z</time>
      </trkpt>
      <trkpt lat="44.28334" lon="2.00673">
        <ele>261</ele>
        <time>2016-01-03T08:27:08Z</time>
      </trkpt>
      <trkpt lat="44.28337" lon="2.00677">
        <ele>261.2</ele>
        <time>2016-01-03T08:27:10Z</time>
      </trkpt>
      <trkpt lat="44.2834" lon="2.00681">
        <ele>261.4</ele>
        <time>2016-01-03T08:27:12Z</time>
      </trkpt>
      <trkpt lat="44.28344" lon="2.00687">
        <ele>261.6</ele>
        <time>2016-01-03T08:27:14Z</time>
      </trkpt>
      <trkpt lat="44.28347" lon="2.00691">
        <ele>261.8</ele>
        <time>2016-01-03T08:27:16Z</time>
      </trkpt>
      <trkpt lat="44.2835" lon="2.00694">
        <ele>261.9</ele>
        <time>2016-01-03T08:27:17Z</time>
      </trkpt>
      <trkpt lat="44.28353" lon="2.00698">
        <ele>262</ele>
        <time>2016-01-03T08:27:18Z</time>
      </trkpt>
      <trkpt lat="44.28357" lon="2.00702">
        <ele>262.1</ele>
        <time>2016-01-03T08:27:20Z</time>
      </trkpt>
      <trkpt lat="44.2836" lon="2.00708">
        <ele>262.2</ele>
        <time>2016-01-03T08:27:22Z</time>
      </trkpt>
      <trkpt lat="44.28363" lon="2.00714">
        <ele>262.3</ele>
        <time>2016-01-03T08:27:24Z</time>
      </trkpt>
      <trkpt lat="44.28367" lon="2.00719">
        <ele>262.3</ele>
        <time>2016-01-03T08:27:26Z</time>
      </trkpt>
      <trkpt lat="44.28369" lon="2.00723">
        <ele>262.3</ele>
        <time>2016-01-03T08:27:27Z</time>
      </trkpt>
      <trkpt lat="44.28371" lon="2.00727">
        <ele>262.3</ele>
        <time>2016-01-03T08:27:28Z</time>
      </trkpt>
      <trkpt lat="44.28373" lon="2.00731">
        <ele>262.3</ele>
        <time>2016-01-03T08:27:29Z</time>
      </trkpt>
      <trkpt lat="44.28375" lon="2.00736">
        <ele>262.3</ele>
        <time>2016-01-03T08:27:30Z</time>
      </trkpt>
      <trkpt lat="44.28377" lon="2.00739">
        <ele>262.6</ele>
        <time>2016-01-03T08:27:31Z</time>
      </trkpt>
      <trkpt lat="44.28378" lon="2.00743">
        <ele>262.8</ele>
        <time>2016-01-03T08:27:32Z</time>
      </trkpt>
      <trkpt lat="44.28379" lon="2.00747">
        <ele>263</ele>
        <time>2016-01-03T08:27:33Z</time>
      </trkpt>
      <trkpt lat="44.2838" lon="2.00751">
        <ele>263.2</ele>
        <time>2016-01-03T08:27:34Z</time>
      </trkpt>
      <trkpt lat="44.28381" lon="2.00756">
        <ele>263.5</ele>
        <time>2016-01-03T08:27:35Z</time>
      </trkpt>
      <trkpt lat="44.28382" lon="2.0076">
        <ele>263.7</ele>
        <time>2016-01-03T08:27:36Z</time>
      </trkpt>
      <trkpt lat="44.28383" lon="2.00764">
        <ele>263.8</ele>
        <time>2016-01-03T08:27:37Z</time>
      </trkpt>
      <trkpt lat="44.28383" lon="2.00768">
        <ele>264</ele>
        <time>2016-01-03T08:27:38Z</time>
      </trkpt>
      <trkpt lat="44.28384" lon="2.00772">
        <ele>264.1</ele>
        <time>2016-01-03T08:27:39Z</time>
      </trkpt>
      <trkpt lat="44.28384" lon="2.00776">
        <ele>264.2</ele>
        <time>2016-01-03T08:27:40Z</time>
      </trkpt>
      <trkpt lat="44.28384" lon="2.0078">
        <ele>264.4</ele>
        <time>2016-01-03T08:27:41Z</time>
      </trkpt>
      <trkpt lat="44.28385" lon="2.00787">
        <ele>264.5</ele>
        <time>2016-01-03T08:27:43Z</time>
      </trkpt>
      <trkpt lat="44.28384" lon="2.00793">
        <ele>264.6</ele>
        <time>2016-01-03T08:27:45Z</time>
      </trkpt>
      <trkpt lat="44.28384" lon="2.008">
        <ele>265.1</ele>
        <time>2016-01-03T08:27:47Z</time>
      </trkpt>
      <trkpt lat="44.28385" lon="2.00808">
        <ele>265.6</ele>
        <time>2016-01-03T08:27:49Z</time>
      </trkpt>
      <trkpt lat="44.28385" lon="2.00812">
        <ele>265.8</ele>
        <time>2016-01-03T08:27:50Z</time>
      </trkpt>
      <trkpt lat="44.28385" lon="2.00816">
        <ele>266.1</ele>
        <time>2016-01-03T08:27:51Z</time>
      </trkpt>
      <trkpt lat="44.28385" lon="2.00821">
        <ele>266.4</ele>
        <time>2016-01-03T08:27:52Z</time>
      </trkpt>
      <trkpt lat="44.28385" lon="2.00826">
        <ele>266.7</ele>
        <time>2016-01-03T08:27:53Z</time>
      </trkpt>
      <trkpt lat="44.28385" lon="2.0083">
        <ele>267</ele>
        <time>2016-01-03T08:27:54Z</time>
      </trkpt>
      <trkpt lat="44.28385" lon="2.00834">
        <ele>267.2</ele>
        <time>2016-01-03T08:27:55Z</time>
      </trkpt>
      <trkpt lat="44.28384" lon="2.00843">
        <ele>267.5</ele>
        <time>2016-01-03T08:27:57Z</time>
      </trkpt>
      <trkpt lat="44.28383" lon="2.00848">
        <ele>267.7</ele>
        <time>2016-01-03T08:27:58Z</time>
      </trkpt>
      <trkpt lat="44.28383" lon="2.00852">
        <ele>267.9</ele>
        <time>2016-01-03T08:27:59Z</time>
      </trkpt>
      <trkpt lat="44.28383" lon="2.00856">
        <ele>268.1</ele>
        <time>2016-01-03T08:28:00Z</time>
      </trkpt>
      <trkpt lat="44.28382" lon="2.00861">
        <ele>268.3</ele>
        <time>2016-01-03T08:28:01Z</time>
      </trkpt>
      <trkpt lat="44.28382" lon="2.00866">
        <ele>268.5</ele>
        <time>2016-01-03T08:28:02Z</time>
      </trkpt>
      <trkpt lat="44.28381" lon="2.0087">
        <ele>268.7</ele>
        <time>2016-01-03T08:28:03Z</time>
      </trkpt>
      <trkpt lat="44.2838" lon="2.00877">
        <ele>269.1</ele>
        <time>2016-01-03T08:28:05Z</time>
      </trkpt>
      <trkpt lat="44.28377" lon="2.00883">
        <ele>269.2</ele>
        <time>2016-01-03T08:28:07Z</time>
      </trkpt>
      <trkpt lat="44.28375" lon="2.00889">
        <ele>269.8</ele>
        <time>2016-01-03T08:28:09Z</time>
      </trkpt>
      <trkpt lat="44.28372" lon="2.00895">
        <ele>271</ele>
        <time>2016-01-03T08:28:11Z</time>
      </trkpt>
      <trkpt lat="44.28369" lon="2.009">
        <ele>272.3</ele>
        <time>2016-01-03T08:28:13Z</time>
      </trkpt>
      <trkpt lat="44.28368" lon="2.00906">
        <ele>273.3</ele>
        <time>2016-01-03T08:28:15Z</time>
      </trkpt>
      <trkpt lat="44.28365" lon="2.0091">
        <ele>274.5</ele>
        <time>2016-01-03T08:28:17Z</time>
      </trkpt>
      <trkpt lat="44.28363" lon="2.00915">
        <ele>275.9</ele>
        <time>2016-01-03T08:28:19Z</time>
      </trkpt>
      <trkpt lat="44.28361" lon="2.00918">
        <ele>276.7</ele>
        <time>2016-01-03T08:28:20Z</time>
      </trkpt>
      <trkpt lat="44.28358" lon="2.00923">
        <ele>278</ele>
        <time>2016-01-03T08:28:22Z</time>
      </trkpt>
      <trkpt lat="44.28357" lon="2.0093">
        <ele>279.2</ele>
        <time>2016-01-03T08:28:24Z</time>
      </trkpt>
      <trkpt lat="44.28356" lon="2.00935">
        <ele>280.2</ele>
        <time>2016-01-03T08:28:26Z</time>
      </trkpt>
      <trkpt lat="44.28352" lon="2.00942">
        <ele>282.3</ele>
        <time>2016-01-03T08:28:28Z</time>
      </trkpt>
      <trkpt lat="44.28351" lon="2.00946">
        <ele>283.1</ele>
        <time>2016-01-03T08:28:29Z</time>
      </trkpt>
      <trkpt lat="44.28349" lon="2.00952">
        <ele>284.5</ele>
        <time>2016-01-03T08:28:31Z</time>
      </trkpt>
      <trkpt lat="44.28348" lon="2.00957">
        <ele>285.6</ele>
        <time>2016-01-03T08:28:33Z</time>
      </trkpt>
      <trkpt lat="44.28346" lon="2.00963">
        <ele>286.7</ele>
        <time>2016-01-03T08:28:35Z</time>
      </trkpt>
      <trkpt lat="44.28345" lon="2.0097">
        <ele>287.6</ele>
        <time>2016-01-03T08:28:37Z</time>
      </trkpt>
      <trkpt lat="44.28345" lon="2.00974">
        <ele>288</ele>
        <time>2016-01-03T08:28:38Z</time>
      </trkpt>
      <trkpt lat="44.28345" lon="2.00982">
        <ele>288.7</ele>
        <time>2016-01-03T08:28:40Z</time>
      </trkpt>
      <trkpt lat="44.28344" lon="2.00989">
        <ele>289.5</ele>
        <time>2016-01-03T08:28:42Z</time>
      </trkpt>
      <trkpt lat="44.28344" lon="2.00994">
        <ele>289.9</ele>
        <time>2016-01-03T08:28:43Z</time>
      </trkpt>
      <trkpt lat="44.28344" lon="2.01001">
        <ele>290.7</ele>
        <time>2016-01-03T08:28:45Z</time>
      </trkpt>
      <trkpt lat="44.28344" lon="2.01005">
        <ele>291</ele>
        <time>2016-01-03T08:28:46Z</time>
      </trkpt>
      <trkpt lat="44.28343" lon="2.0101">
        <ele>291.6</ele>
        <time>2016-01-03T08:28:48Z</time>
      </trkpt>
      <trkpt lat="44.28343" lon="2.01015">
        <ele>292.2</ele>
        <time>2016-01-03T08:28:50Z</time>
      </trkpt>
      <trkpt lat="44.28342" lon="2.01021">
        <ele>292.9</ele>
        <time>2016-01-03T08:28:52Z</time>
      </trkpt>
      <trkpt lat="44.28341" lon="2.01026">
        <ele>293.5</ele>
        <time>2016-01-03T08:28:54Z</time>
      </trkpt>
      <trkpt lat="44.28341" lon="2.0103">
        <ele>294.1</ele>
        <time>2016-01-03T08:28:56Z</time>
      </trkpt>
      <trkpt lat="44.2834" lon="2.01035">
        <ele>294.7</ele>
        <time>2016-01-03T08:28:58Z</time>
      </trkpt>
      <trkpt lat="44.28338" lon="2.0104">
        <ele>295.6</ele>
        <time>2016-01-03T08:29:00Z</time>
      </trkpt>
      <trkpt lat="44.28336" lon="2.01046">
        <ele>296.2</ele>
        <time>2016-01-03T08:29:02Z</time>
      </trkpt>
      <trkpt lat="44.28335" lon="2.01052">
        <ele>296.7</ele>
        <time>2016-01-03T08:29:04Z</time>
      </trkpt>
      <trkpt lat="44.28334" lon="2.01059">
        <ele>296.9</ele>
        <time>2016-01-03T08:29:06Z</time>
      </trkpt>
      <trkpt lat="44.28333" lon="2.01066">
        <ele>297.2</ele>
        <time>2016-01-03T08:29:08Z</time>
      </trkpt>
      <trkpt lat="44.28331" lon="2.01071">
        <ele>297.6</ele>
        <time>2016-01-03T08:29:10Z</time>
      </trkpt>
      <trkpt lat="44.28329" lon="2.01076">
        <ele>297.8</ele>
        <time>2016-01-03T08:29:12Z</time>
      </trkpt>
      <trkpt lat="44.28328" lon="2.01081">
        <ele>297.9</ele>
        <time>2016-01-03T08:29:14Z</time>
      </trkpt>
      <trkpt lat="44.28327" lon="2.01087">
        <ele>298</ele>
        <time>2016-01-03T08:29:16Z</time>
      </trkpt>
      <trkpt lat="44.28325" lon="2.0109">
        <ele>298.3</ele>
        <time>2016-01-03T08:29:18Z</time>
      </trkpt>
      <trkpt lat="44.28323" lon="2.01093">
        <ele>298.5</ele>
        <time>2016-01-03T08:29:20Z</time>
      </trkpt>
      <trkpt lat="44.28322" lon="2.01096">
        <ele>298.6</ele>
        <time>2016-01-03T08:29:22Z</time>
      </trkpt>
      <trkpt lat="44.28319" lon="2.01099">
        <ele>299</ele>
        <time>2016-01-03T08:29:24Z</time>
      </trkpt>
      <trkpt lat="44.28316" lon="2.01103">
        <ele>299.1</ele>
        <time>2016-01-03T08:29:26Z</time>
      </trkpt>
      <trkpt lat="44.28314" lon="2.01108">
        <ele>299.2</ele>
        <time>2016-01-03T08:29:28Z</time>
      </trkpt>
      <trkpt lat="44.28312" lon="2.01115">
        <ele>299</ele>
        <time>2016-01-03T08:29:30Z</time>
      </trkpt>
      <trkpt lat="44.2831" lon="2.01119">
        <ele>299.1</ele>
        <time>2016-01-03T08:29:32Z</time>
      </trkpt>
      <trkpt lat="44.28308" lon="2.01121">
        <ele>299.1</ele>
        <time>2016-01-03T08:29:34Z</time>
      </trkpt>
      <trkpt lat="44.28305" lon="2.01125">
        <ele>299.1</ele>
        <time>2016-01-03T08:29:36Z</time>
      </trkpt>
      <trkpt lat="44.28302" lon="2.0113">
        <ele>299.1</ele>
        <time>2016-01-03T08:29:38Z</time>
      </trkpt>
      <trkpt lat="44.283" lon="2.01133">
        <ele>299.1</ele>
        <time>2016-01-03T08:29:40Z</time>
      </trkpt>
      <trkpt lat="44.28298" lon="2.01138">
        <ele>299</ele>
        <time>2016-01-03T08:29:42Z</time>
      </trkpt>
      <trkpt lat="44.28295" lon="2.01143">
        <ele>298.9</ele>
        <time>2016-01-03T08:29:44Z</time>
      </trkpt>
      <trkpt lat="44.28293" lon="2.01147">
        <ele>298.7</ele>
        <time>2016-01-03T08:29:46Z</time>
      </trkpt>
      <trkpt lat="44.28291" lon="2.01152">
        <ele>298.9</ele>
        <time>2016-01-03T08:29:48Z</time>
      </trkpt>
      <trkpt lat="44.28289" lon="2.01156">
        <ele>299.4</ele>
        <time>2016-01-03T08:29:50Z</time>
      </trkpt>
      <trkpt lat="44.28287" lon="2.01162">
        <ele>300</ele>
        <time>2016-01-03T08:29:52Z</time>
      </trkpt>
      <trkpt lat="44.28286" lon="2.01167">
        <ele>300.2</ele>
        <time>2016-01-03T08:29:54Z</time>
      </trkpt>
      <trkpt lat="44.28284" lon="2.01172">
        <ele>301</ele>
        <time>2016-01-03T08:29:56Z</time>
      </trkpt>
      <trkpt lat="44.28283" lon="2.01179">
        <ele>301.2</ele>
        <time>2016-01-03T08:29:58Z</time>
      </trkpt>
      <trkpt lat="44.28281" lon="2.01184">
        <ele>301.5</ele>
        <time>2016-01-03T08:30:00Z</time>
      </trkpt>
      <trkpt lat="44.2828" lon="2.01187">
        <ele>301.9</ele>
        <time>2016-01-03T08:30:01Z</time>
      </trkpt>
      <trkpt lat="44.28277" lon="2.01193">
        <ele>302.6</ele>
        <time>2016-01-03T08:30:03Z</time>
      </trkpt>
      <trkpt lat="44.28277" lon="2.01198">
        <ele>302.5</ele>
        <time>2016-01-03T08:30:05Z</time>
      </trkpt>
      <trkpt lat="44.28275" lon="2.01203">
        <ele>303</ele>
        <time>2016-01-03T08:30:07Z</time>
      </trkpt>
      <trkpt lat="44.28273" lon="2.01207">
        <ele>303.5</ele>
        <time>2016-01-03T08:30:09Z</time>
      </trkpt>
      <trkpt lat="44.28272" lon="2.01211">
        <ele>304</ele>
        <time>2016-01-03T08:30:11Z</time>
      </trkpt>
      <trkpt lat="44.2827" lon="2.01216">
        <ele>304.6</ele>
        <time>2016-01-03T08:30:13Z</time>
      </trkpt>
      <trkpt lat="44.28269" lon="2.0122">
        <ele>305.4</ele>
        <time>2016-01-03T08:30:15Z</time>
      </trkpt>
      <trkpt lat="44.28267" lon="2.01225">
        <ele>306.1</ele>
        <time>2016-01-03T08:30:17Z</time>
      </trkpt>
      <trkpt lat="44.28265" lon="2.0123">
        <ele>306.8</ele>
        <time>2016-01-03T08:30:19Z</time>
      </trkpt>
      <trkpt lat="44.28264" lon="2.01236">
        <ele>307.2</ele>
        <time>2016-01-03T08:30:21Z</time>
      </trkpt>
      <trkpt lat="44.28262" lon="2.0124">
        <ele>307.9</ele>
        <time>2016-01-03T08:30:23Z</time>
      </trkpt>
      <trkpt lat="44.28261" lon="2.01246">
        <ele>308.2</ele>
        <time>2016-01-03T08:30:25Z</time>
      </trkpt>
      <trkpt lat="44.2826" lon="2.0125">
        <ele>308.5</ele>
        <time>2016-01-03T08:30:27Z</time>
      </trkpt>
      <trkpt lat="44.28257" lon="2.01254">
        <ele>309.2</ele>
        <time>2016-01-03T08:30:29Z</time>
      </trkpt>
      <trkpt lat="44.28256" lon="2.01259">
        <ele>309.3</ele>
        <time>2016-01-03T08:30:31Z</time>
      </trkpt>
      <trkpt lat="44.28255" lon="2.01263">
        <ele>309.4</ele>
        <time>2016-01-03T08:30:32Z</time>
      </trkpt>
      <trkpt lat="44.28254" lon="2.01268">
        <ele>309.7</ele>
        <time>2016-01-03T08:30:34Z</time>
      </trkpt>
      <trkpt lat="44.28252" lon="2.01274">
        <ele>309.8</ele>
        <time>2016-01-03T08:30:36Z</time>
      </trkpt>
      <trkpt lat="44.28251" lon="2.0128">
        <ele>309.9</ele>
        <time>2016-01-03T08:30:38Z</time>
      </trkpt>
      <trkpt lat="44.28249" lon="2.01285">
        <ele>310</ele>
        <time>2016-01-03T08:30:40Z</time>
      </trkpt>
      <trkpt lat="44.28249" lon="2.01292">
        <ele>309.8</ele>
        <time>2016-01-03T08:30:42Z</time>
      </trkpt>
      <trkpt lat="44.28247" lon="2.01298">
        <ele>309.9</ele>
        <time>2016-01-03T08:30:44Z</time>
      </trkpt>
      <trkpt lat="44.28247" lon="2.01304">
        <ele>309.8</ele>
        <time>2016-01-03T08:30:46Z</time>
      </trkpt>
      <trkpt lat="44.28245" lon="2.0131">
        <ele>309.9</ele>
        <time>2016-01-03T08:30:48Z</time>
      </trkpt>
      <trkpt lat="44.28244" lon="2.01315">
        <ele>309.9</ele>
        <time>2016-01-03T08:30:50Z</time>
      </trkpt>
      <trkpt lat="44.28244" lon="2.01321">
        <ele>309.8</ele>
        <time>2016-01-03T08:30:52Z</time>
      </trkpt>
      <trkpt lat="44.28243" lon="2.01327">
        <ele>309.7</ele>
        <time>2016-01-03T08:30:54Z</time>
      </trkpt>
      <trkpt lat="44.28241" lon="2.01332">
        <ele>309.8</ele>
        <time>2016-01-03T08:30:56Z</time>
      </trkpt>
      <trkpt lat="44.28239" lon="2.01336">
        <ele>309.7</ele>
        <time>2016-01-03T08:30:58Z</time>
      </trkpt>
      <trkpt lat="44.28238" lon="2.01341">
        <ele>309.7</ele>
        <time>2016-01-03T08:31:00Z</time>
      </trkpt>
      <trkpt lat="44.28236" lon="2.01346">
        <ele>309.6</ele>
        <time>2016-01-03T08:31:02Z</time>
      </trkpt>
      <trkpt lat="44.28234" lon="2.01349">
        <ele>309.6</ele>
        <time>2016-01-03T08:31:04Z</time>
      </trkpt>
      <trkpt lat="44.28231" lon="2.01354">
        <ele>309.6</ele>
        <time>2016-01-03T08:31:06Z</time>
      </trkpt>
      <trkpt lat="44.2823" lon="2.01359">
        <ele>309.4</ele>
        <time>2016-01-03T08:31:08Z</time>
      </trkpt>
      <trkpt lat="44.28228" lon="2.01365">
        <ele>309.1</ele>
        <time>2016-01-03T08:31:10Z</time>
      </trkpt>
      <trkpt lat="44.28226" lon="2.01371">
        <ele>308.8</ele>
        <time>2016-01-03T08:31:12Z</time>
      </trkpt>
      <trkpt lat="44.28225" lon="2.01376">
        <ele>308.6</ele>
        <time>2016-01-03T08:31:14Z</time>
      </trkpt>
      <trkpt lat="44.28224" lon="2.01381">
        <ele>308.7</ele>
        <time>2016-01-03T08:31:16Z</time>
      </trkpt>
      <trkpt lat="44.28222" lon="2.01385">
        <ele>308.8</ele>
        <time>2016-01-03T08:31:18Z</time>
      </trkpt>
      <trkpt lat="44.28221" lon="2.0139">
        <ele>308.9</ele>
        <time>2016-01-03T08:31:20Z</time>
      </trkpt>
      <trkpt lat="44.2822" lon="2.01396">
        <ele>309</ele>
        <time>2016-01-03T08:31:22Z</time>
      </trkpt>
      <trkpt lat="44.2822" lon="2.01403">
        <ele>309</ele>
        <time>2016-01-03T08:31:24Z</time>
      </trkpt>
      <trkpt lat="44.28218" lon="2.01408">
        <ele>309</ele>
        <time>2016-01-03T08:31:26Z</time>
      </trkpt>
      <trkpt lat="44.28217" lon="2.01414">
        <ele>309</ele>
        <time>2016-01-03T08:31:28Z</time>
      </trkpt>
      <trkpt lat="44.28216" lon="2.01419">
        <ele>309</ele>
        <time>2016-01-03T08:31:30Z</time>
      </trkpt>
      <trkpt lat="44.28216" lon="2.01424">
        <ele>308.9</ele>
        <time>2016-01-03T08:31:32Z</time>
      </trkpt>
      <trkpt lat="44.28214" lon="2.01428">
        <ele>308.9</ele>
        <time>2016-01-03T08:31:34Z</time>
      </trkpt>
      <trkpt lat="44.28214" lon="2.01434">
        <ele>308.8</ele>
        <time>2016-01-03T08:31:36Z</time>
      </trkpt>
      <trkpt lat="44.28212" lon="2.01439">
        <ele>308.6</ele>
        <time>2016-01-03T08:31:38Z</time>
      </trkpt>
      <trkpt lat="44.28212" lon="2.01443">
        <ele>308.5</ele>
        <time>2016-01-03T08:31:40Z</time>
      </trkpt>
      <trkpt lat="44.28211" lon="2.01448">
        <ele>308.4</ele>
        <time>2016-01-03T08:31:42Z</time>
      </trkpt>
      <trkpt lat="44.28211" lon="2.01453">
        <ele>308.4</ele>
        <time>2016-01-03T08:31:44Z</time>
      </trkpt>
      <trkpt lat="44.28211" lon="2.01459">
        <ele>308.4</ele>
        <time>2016-01-03T08:31:46Z</time>
      </trkpt>
      <trkpt lat="44.28212" lon="2.01465">
        <ele>308.4</ele>
        <time>2016-01-03T08:31:48Z</time>
      </trkpt>
      <trkpt lat="44.28211" lon="2.0147">
        <ele>308.2</ele>
        <time>2016-01-03T08:31:50Z</time>
      </trkpt>
      <trkpt lat="44.28211" lon="2.01475">
        <ele>308.1</ele>
        <time>2016-01-03T08:31:52Z</time>
      </trkpt>
      <trkpt lat="44.28211" lon="2.0148">
        <ele>308</ele>
        <time>2016-01-03T08:31:54Z</time>
      </trkpt>
      <trkpt lat="44.28212" lon="2.01486">
        <ele>308</ele>
        <time>2016-01-03T08:31:56Z</time>
      </trkpt>
      <trkpt lat="44.28212" lon="2.01491">
        <ele>308</ele>
        <time>2016-01-03T08:31:58Z</time>
      </trkpt>
      <trkpt lat="44.28213" lon="2.01498">
        <ele>308</ele>
        <time>2016-01-03T08:32:00Z</time>
      </trkpt>
      <trkpt lat="44.28212" lon="2.01502">
        <ele>307.7</ele>
        <time>2016-01-03T08:32:02Z</time>
      </trkpt>
      <trkpt lat="44.28211" lon="2.01506">
        <ele>307.5</ele>
        <time>2016-01-03T08:32:04Z</time>
      </trkpt>
      <trkpt lat="44.28209" lon="2.01511">
        <ele>306.8</ele>
        <time>2016-01-03T08:32:06Z</time>
      </trkpt>
      <trkpt lat="44.28208" lon="2.01515">
        <ele>306.7</ele>
        <time>2016-01-03T08:32:08Z</time>
      </trkpt>
      <trkpt lat="44.28207" lon="2.01521">
        <ele>307.2</ele>
        <time>2016-01-03T08:32:10Z</time>
      </trkpt>
      <trkpt lat="44.28205" lon="2.01527">
        <ele>307.9</ele>
        <time>2016-01-03T08:32:12Z</time>
      </trkpt>
      <trkpt lat="44.28204" lon="2.01533">
        <ele>308.3</ele>
        <time>2016-01-03T08:32:14Z</time>
      </trkpt>
      <trkpt lat="44.28203" lon="2.0154">
        <ele>308.5</ele>
        <time>2016-01-03T08:32:16Z</time>
      </trkpt>
      <trkpt lat="44.28201" lon="2.01545">
        <ele>309.3</ele>
        <time>2016-01-03T08:32:18Z</time>
      </trkpt>
      <trkpt lat="44.282" lon="2.01552">
        <ele>310.2</ele>
        <time>2016-01-03T08:32:20Z</time>
      </trkpt>
      <trkpt lat="44.28198" lon="2.01557">
        <ele>311</ele>
        <time>2016-01-03T08:32:22Z</time>
      </trkpt>
      <trkpt lat="44.28197" lon="2.01562">
        <ele>311.5</ele>
        <time>2016-01-03T08:32:24Z</time>
      </trkpt>
      <trkpt lat="44.28196" lon="2.01568">
        <ele>312.2</ele>
        <time>2016-01-03T08:32:26Z</time>
      </trkpt>
      <trkpt lat="44.28194" lon="2.01574">
        <ele>313.1</ele>
        <time>2016-01-03T08:32:28Z</time>
      </trkpt>
      <trkpt lat="44.28193" lon="2.01578">
        <ele>313.5</ele>
        <time>2016-01-03T08:32:29Z</time>
      </trkpt>
      <trkpt lat="44.28192" lon="2.01581">
        <ele>314.1</ele>
        <time>2016-01-03T08:32:30Z</time>
      </trkpt>
      <trkpt lat="44.2819" lon="2.01585">
        <ele>314.7</ele>
        <time>2016-01-03T08:32:31Z</time>
      </trkpt>
      <trkpt lat="44.28189" lon="2.01588">
        <ele>315.2</ele>
        <time>2016-01-03T08:32:32Z</time>
      </trkpt>
      <trkpt lat="44.28188" lon="2.01592">
        <ele>315.7</ele>
        <time>2016-01-03T08:32:33Z</time>
      </trkpt>
      <trkpt lat="44.28186" lon="2.016">
        <ele>316.3</ele>
        <time>2016-01-03T08:32:35Z</time>
      </trkpt>
      <trkpt lat="44.28184" lon="2.01604">
        <ele>316.8</ele>
        <time>2016-01-03T08:32:36Z</time>
      </trkpt>
      <trkpt lat="44.2818" lon="2.01608">
        <ele>317.9</ele>
        <time>2016-01-03T08:32:38Z</time>
      </trkpt>
      <trkpt lat="44.28177" lon="2.01609">
        <ele>318.6</ele>
        <time>2016-01-03T08:32:39Z</time>
      </trkpt>
      <trkpt lat="44.28173" lon="2.01613">
        <ele>319.5</ele>
        <time>2016-01-03T08:32:41Z</time>
      </trkpt>
      <trkpt lat="44.28171" lon="2.01616">
        <ele>320</ele>
        <time>2016-01-03T08:32:42Z</time>
      </trkpt>
      <trkpt lat="44.28169" lon="2.01621">
        <ele>320.1</ele>
        <time>2016-01-03T08:32:43Z</time>
      </trkpt>
      <trkpt lat="44.28165" lon="2.01627">
        <ele>320.8</ele>
        <time>2016-01-03T08:32:45Z</time>
      </trkpt>
      <trkpt lat="44.28163" lon="2.0163">
        <ele>321.4</ele>
        <time>2016-01-03T08:32:46Z</time>
      </trkpt>
      <trkpt lat="44.2816" lon="2.01634">
        <ele>321.9</ele>
        <time>2016-01-03T08:32:47Z</time>
      </trkpt>
      <trkpt lat="44.28157" lon="2.01637">
        <ele>322.5</ele>
        <time>2016-01-03T08:32:48Z</time>
      </trkpt>
      <trkpt lat="44.28155" lon="2.01642">
        <ele>322.9</ele>
        <time>2016-01-03T08:32:49Z</time>
      </trkpt>
      <trkpt lat="44.28153" lon="2.01646">
        <ele>323.3</ele>
        <time>2016-01-03T08:32:50Z</time>
      </trkpt>
      <trkpt lat="44.28151" lon="2.01651">
        <ele>323.6</ele>
        <time>2016-01-03T08:32:51Z</time>
      </trkpt>
      <trkpt lat="44.28148" lon="2.01657">
        <ele>324</ele>
        <time>2016-01-03T08:32:52Z</time>
      </trkpt>
      <trkpt lat="44.28146" lon="2.01662">
        <ele>324.2</ele>
        <time>2016-01-03T08:32:53Z</time>
      </trkpt>
      <trkpt lat="44.28144" lon="2.01667">
        <ele>324.3</ele>
        <time>2016-01-03T08:32:54Z</time>
      </trkpt>
      <trkpt lat="44.28142" lon="2.01673">
        <ele>324.4</ele>
        <time>2016-01-03T08:32:55Z</time>
      </trkpt>
      <trkpt lat="44.2814" lon="2.01679">
        <ele>324.4</ele>
        <time>2016-01-03T08:32:56Z</time>
      </trkpt>
      <trkpt lat="44.28139" lon="2.01685">
        <ele>324.4</ele>
        <time>2016-01-03T08:32:57Z</time>
      </trkpt>
      <trkpt lat="44.28137" lon="2.0169">
        <ele>324.3</ele>
        <time>2016-01-03T08:32:58Z</time>
      </trkpt>
      <trkpt lat="44.28135" lon="2.01695">
        <ele>324.3</ele>
        <time>2016-01-03T08:32:59Z</time>
      </trkpt>
      <trkpt lat="44.28134" lon="2.017">
        <ele>324.1</ele>
        <time>2016-01-03T08:33:00Z</time>
      </trkpt>
      <trkpt lat="44.28133" lon="2.01706">
        <ele>323.9</ele>
        <time>2016-01-03T08:33:01Z</time>
      </trkpt>
      <trkpt lat="44.28132" lon="2.01711">
        <ele>323.8</ele>
        <time>2016-01-03T08:33:02Z</time>
      </trkpt>
      <trkpt lat="44.28132" lon="2.01717">
        <ele>323.8</ele>
        <time>2016-01-03T08:33:03Z</time>
      </trkpt>
      <trkpt lat="44.28132" lon="2.01722">
        <ele>323.8</ele>
        <time>2016-01-03T08:33:04Z</time>
      </trkpt>
      <trkpt lat="44.28132" lon="2.01728">
        <ele>323.8</ele>
        <time>2016-01-03T08:33:05Z</time>
      </trkpt>
      <trkpt lat="44.28133" lon="2.01734">
        <ele>323.8</ele>
        <time>2016-01-03T08:33:06Z</time>
      </trkpt>
      <trkpt lat="44.28132" lon="2.01739">
        <ele>323.7</ele>
        <time>2016-01-03T08:33:07Z</time>
      </trkpt>
      <trkpt lat="44.28132" lon="2.01744">
        <ele>323.7</ele>
        <time>2016-01-03T08:33:08Z</time>
      </trkpt>
      <trkpt lat="44.28132" lon="2.01749">
        <ele>323.7</ele>
        <time>2016-01-03T08:33:09Z</time>
      </trkpt>
      <trkpt lat="44.28131" lon="2.01753">
        <ele>323.7</ele>
        <time>2016-01-03T08:33:10Z</time>
      </trkpt>
      <trkpt lat="44.28132" lon="2.01757">
        <ele>323.7</ele>
        <time>2016-01-03T08:33:11Z</time>
      </trkpt>
      <trkpt lat="44.28132" lon="2.01761">
        <ele>323.7</ele>
        <time>2016-01-03T08:33:12Z</time>
      </trkpt>
      <trkpt lat="44.28133" lon="2.01765">
        <ele>323.7</ele>
        <time>2016-01-03T08:33:13Z</time>
      </trkpt>
      <trkpt lat="44.28134" lon="2.01769">
        <ele>323.7</ele>
        <time>2016-01-03T08:33:14Z</time>
      </trkpt>
      <trkpt lat="44.28135" lon="2.01773">
        <ele>323.8</ele>
        <time>2016-01-03T08:33:15Z</time>
      </trkpt>
      <trkpt lat="44.28136" lon="2.01779">
        <ele>323.9</ele>
        <time>2016-01-03T08:33:17Z</time>
      </trkpt>
      <trkpt lat="44.28138" lon="2.01786">
        <ele>324</ele>
        <time>2016-01-03T08:33:19Z</time>
      </trkpt>
      <trkpt lat="44.28139" lon="2.01792">
        <ele>324.2</ele>
        <time>2016-01-03T08:33:21Z</time>
      </trkpt>
      <trkpt lat="44.28141" lon="2.01795">
        <ele>324.3</ele>
        <time>2016-01-03T08:33:24Z</time>
      </trkpt>
      <trkpt lat="44.28145" lon="2.01799">
        <ele>324.6</ele>
        <time>2016-01-03T08:33:27Z</time>
      </trkpt>
      <trkpt lat="44.28149" lon="2.01802">
        <ele>324.8</ele>
        <time>2016-01-03T08:33:29Z</time>
      </trkpt>
      <trkpt lat="44.28151" lon="2.01806">
        <ele>324.9</ele>
        <time>2016-01-03T08:33:32Z</time>
      </trkpt>
      <trkpt lat="44.28155" lon="2.01809">
        <ele>325</ele>
        <time>2016-01-03T08:33:35Z</time>
      </trkpt>
      <trkpt lat="44.28157" lon="2.01812">
        <ele>325.1</ele>
        <time>2016-01-03T08:33:37Z</time>
      </trkpt>
      <trkpt lat="44.28159" lon="2.01818">
        <ele>325</ele>
        <time>2016-01-03T08:33:38Z</time>
      </trkpt>
      <trkpt lat="44.2816" lon="2.01821">
        <ele>325</ele>
        <time>2016-01-03T08:33:39Z</time>
      </trkpt>
      <trkpt lat="44.28162" lon="2.01825">
        <ele>324.9</ele>
        <time>2016-01-03T08:33:41Z</time>
      </trkpt>
      <trkpt lat="44.28165" lon="2.01828">
        <ele>324.9</ele>
        <time>2016-01-03T08:33:44Z</time>
      </trkpt>
      <trkpt lat="44.28168" lon="2.0183">
        <ele>324.9</ele>
        <time>2016-01-03T08:33:46Z</time>
      </trkpt>
      <trkpt lat="44.28171" lon="2.01834">
        <ele>324.9</ele>
        <time>2016-01-03T08:33:48Z</time>
      </trkpt>
      <trkpt lat="44.28175" lon="2.01838">
        <ele>324.8</ele>
        <time>2016-01-03T08:33:50Z</time>
      </trkpt>
      <trkpt lat="44.28178" lon="2.01843">
        <ele>324.6</ele>
        <time>2016-01-03T08:33:52Z</time>
      </trkpt>
      <trkpt lat="44.28181" lon="2.01846">
        <ele>324.4</ele>
        <time>2016-01-03T08:33:54Z</time>
      </trkpt>
      <trkpt lat="44.28185" lon="2.01851">
        <ele>324.1</ele>
        <time>2016-01-03T08:33:56Z</time>
      </trkpt>
      <trkpt lat="44.28188" lon="2.01855">
        <ele>323.9</ele>
        <time>2016-01-03T08:33:58Z</time>
      </trkpt>
      <trkpt lat="44.28191" lon="2.01858">
        <ele>323.7</ele>
        <time>2016-01-03T08:34:00Z</time>
      </trkpt>
      <trkpt lat="44.28193" lon="2.01862">
        <ele>323.4</ele>
        <time>2016-01-03T08:34:01Z</time>
      </trkpt>
      <trkpt lat="44.28195" lon="2.01865">
        <ele>323.1</ele>
        <time>2016-01-03T08:34:02Z</time>
      </trkpt>
      <trkpt lat="44.28197" lon="2.01869">
        <ele>322.8</ele>
        <time>2016-01-03T08:34:03Z</time>
      </trkpt>
      <trkpt lat="44.28198" lon="2.01872">
        <ele>322.5</ele>
        <time>2016-01-03T08:34:04Z</time>
      </trkpt>
      <trkpt lat="44.28201" lon="2.01876">
        <ele>322.2</ele>
        <time>2016-01-03T08:34:06Z</time>
      </trkpt>
      <trkpt lat="44.28204" lon="2.0188">
        <ele>322.1</ele>
        <time>2016-01-03T08:34:08Z</time>
      </trkpt>
      <trkpt lat="44.28209" lon="2.01886">
        <ele>321.9</ele>
        <time>2016-01-03T08:34:10Z</time>
      </trkpt>
      <trkpt lat="44.28212" lon="2.01896">
        <ele>322.3</ele>
        <time>2016-01-03T08:34:11Z</time>
      </trkpt>
      <trkpt lat="44.28214" lon="2.019">
        <ele>322.5</ele>
        <time>2016-01-03T08:34:12Z</time>
      </trkpt>
      <trkpt lat="44.28217" lon="2.01905">
        <ele>322.8</ele>
        <time>2016-01-03T08:34:13Z</time>
      </trkpt>
      <trkpt lat="44.2822" lon="2.01912">
        <ele>323.1</ele>
        <time>2016-01-03T08:34:14Z</time>
      </trkpt>
      <trkpt lat="44.28223" lon="2.01915">
        <ele>323.3</ele>
        <time>2016-01-03T08:34:15Z</time>
      </trkpt>
      <trkpt lat="44.28226" lon="2.01919">
        <ele>323.4</ele>
        <time>2016-01-03T08:34:16Z</time>
      </trkpt>
      <trkpt lat="44.28228" lon="2.01922">
        <ele>323.6</ele>
        <time>2016-01-03T08:34:17Z</time>
      </trkpt>
      <trkpt lat="44.2823" lon="2.01925">
        <ele>323.6</ele>
        <time>2016-01-03T08:34:18Z</time>
      </trkpt>
      <trkpt lat="44.28234" lon="2.0193">
        <ele>323.7</ele>
        <time>2016-01-03T08:34:20Z</time>
      </trkpt>
      <trkpt lat="44.28236" lon="2.01933">
        <ele>323.7</ele>
        <time>2016-01-03T08:34:21Z</time>
      </trkpt>
      <trkpt lat="44.28239" lon="2.01938">
        <ele>323.6</ele>
        <time>2016-01-03T08:34:23Z</time>
      </trkpt>
      <trkpt lat="44.28243" lon="2.01942">
        <ele>323.5</ele>
        <time>2016-01-03T08:34:25Z</time>
      </trkpt>
      <trkpt lat="44.28245" lon="2.01946">
        <ele>323.4</ele>
        <time>2016-01-03T08:34:27Z</time>
      </trkpt>
      <trkpt lat="44.28248" lon="2.0195">
        <ele>323.2</ele>
        <time>2016-01-03T08:34:29Z</time>
      </trkpt>
      <trkpt lat="44.28251" lon="2.01955">
        <ele>322.9</ele>
        <time>2016-01-03T08:34:31Z</time>
      </trkpt>
      <trkpt lat="44.28254" lon="2.01957">
        <ele>322.8</ele>
        <time>2016-01-03T08:34:33Z</time>
      </trkpt>
      <trkpt lat="44.28257" lon="2.01961">
        <ele>322.9</ele>
        <time>2016-01-03T08:34:35Z</time>
      </trkpt>
      <trkpt lat="44.2826" lon="2.01966">
        <ele>323.2</ele>
        <time>2016-01-03T08:34:37Z</time>
      </trkpt>
      <trkpt lat="44.28261" lon="2.0197">
        <ele>323.4</ele>
        <time>2016-01-03T08:34:39Z</time>
      </trkpt>
      <trkpt lat="44.28263" lon="2.01975">
        <ele>323.7</ele>
        <time>2016-01-03T08:34:41Z</time>
      </trkpt>
      <trkpt lat="44.28265" lon="2.0198">
        <ele>323.8</ele>
        <time>2016-01-03T08:34:42Z</time>
      </trkpt>
      <trkpt lat="44.28268" lon="2.01988">
        <ele>324.1</ele>
        <time>2016-01-03T08:34:44Z</time>
      </trkpt>
      <trkpt lat="44.2827" lon="2.01991">
        <ele>324.2</ele>
        <time>2016-01-03T08:34:45Z</time>
      </trkpt>
      <trkpt lat="44.28272" lon="2.01996">
        <ele>324.2</ele>
        <time>2016-01-03T08:34:47Z</time>
      </trkpt>
      <trkpt lat="44.28274" lon="2.01999">
        <ele>324.2</ele>
        <time>2016-01-03T08:34:49Z</time>
      </trkpt>
      <trkpt lat="44.28277" lon="2.02005">
        <ele>324.2</ele>
        <time>2016-01-03T08:34:51Z</time>
      </trkpt>
      <trkpt lat="44.28279" lon="2.0201">
        <ele>324.2</ele>
        <time>2016-01-03T08:34:53Z</time>
      </trkpt>
      <trkpt lat="44.2828" lon="2.02013">
        <ele>324.1</ele>
        <time>2016-01-03T08:34:54Z</time>
      </trkpt>
      <trkpt lat="44.28282" lon="2.02017">
        <ele>324</ele>
        <time>2016-01-03T08:34:56Z</time>
      </trkpt>
      <trkpt lat="44.28283" lon="2.02022">
        <ele>324</ele>
        <time>2016-01-03T08:34:58Z</time>
      </trkpt>
      <trkpt lat="44.28283" lon="2.02026">
        <ele>324</ele>
        <time>2016-01-03T08:35:00Z</time>
      </trkpt>
      <trkpt lat="44.28283" lon="2.02031">
        <ele>324</ele>
        <time>2016-01-03T08:35:02Z</time>
      </trkpt>
      <trkpt lat="44.28283" lon="2.02038">
        <ele>324</ele>
        <time>2016-01-03T08:35:04Z</time>
      </trkpt>
      <trkpt lat="44.28284" lon="2.02045">
        <ele>323.9</ele>
        <time>2016-01-03T08:35:06Z</time>
      </trkpt>
      <trkpt lat="44.28284" lon="2.02049">
        <ele>323.8</ele>
        <time>2016-01-03T08:35:07Z</time>
      </trkpt>
      <trkpt lat="44.28285" lon="2.02053">
        <ele>323.7</ele>
        <time>2016-01-03T08:35:08Z</time>
      </trkpt>
      <trkpt lat="44.28285" lon="2.02057">
        <ele>323.6</ele>
        <time>2016-01-03T08:35:09Z</time>
      </trkpt>
      <trkpt lat="44.28286" lon="2.02061">
        <ele>323.5</ele>
        <time>2016-01-03T08:35:10Z</time>
      </trkpt>
      <trkpt lat="44.28286" lon="2.02065">
        <ele>323.3</ele>
        <time>2016-01-03T08:35:11Z</time>
      </trkpt>
      <trkpt lat="44.28288" lon="2.02069">
        <ele>323</ele>
        <time>2016-01-03T08:35:12Z</time>
      </trkpt>
      <trkpt lat="44.28289" lon="2.02074">
        <ele>322.6</ele>
        <time>2016-01-03T08:35:13Z</time>
      </trkpt>
      <trkpt lat="44.28292" lon="2.02078">
        <ele>322.2</ele>
        <time>2016-01-03T08:35:14Z</time>
      </trkpt>
      <trkpt lat="44.28294" lon="2.02082">
        <ele>322.5</ele>
        <time>2016-01-03T08:35:15Z</time>
      </trkpt>
      <trkpt lat="44.28297" lon="2.02086">
        <ele>322.9</ele>
        <time>2016-01-03T08:35:16Z</time>
      </trkpt>
      <trkpt lat="44.28299" lon="2.0209">
        <ele>323.4</ele>
        <time>2016-01-03T08:35:17Z</time>
      </trkpt>
      <trkpt lat="44.28302" lon="2.02096">
        <ele>323.8</ele>
        <time>2016-01-03T08:35:18Z</time>
      </trkpt>
      <trkpt lat="44.28305" lon="2.02101">
        <ele>324.3</ele>
        <time>2016-01-03T08:35:19Z</time>
      </trkpt>
      <trkpt lat="44.28307" lon="2.02105">
        <ele>324.7</ele>
        <time>2016-01-03T08:35:20Z</time>
      </trkpt>
      <trkpt lat="44.2831" lon="2.02109">
        <ele>325.2</ele>
        <time>2016-01-03T08:35:21Z</time>
      </trkpt>
      <trkpt lat="44.28313" lon="2.02113">
        <ele>325.7</ele>
        <time>2016-01-03T08:35:22Z</time>
      </trkpt>
      <trkpt lat="44.28316" lon="2.02118">
        <ele>326.1</ele>
        <time>2016-01-03T08:35:23Z</time>
      </trkpt>
      <trkpt lat="44.28318" lon="2.02121">
        <ele>326.5</ele>
        <time>2016-01-03T08:35:24Z</time>
      </trkpt>
      <trkpt lat="44.28321" lon="2.02124">
        <ele>327</ele>
        <time>2016-01-03T08:35:25Z</time>
      </trkpt>
      <trkpt lat="44.28323" lon="2.02127">
        <ele>327.4</ele>
        <time>2016-01-03T08:35:26Z</time>
      </trkpt>
      <trkpt lat="44.28328" lon="2.0213">
        <ele>328.1</ele>
        <time>2016-01-03T08:35:28Z</time>
      </trkpt>
      <trkpt lat="44.28332" lon="2.02133">
        <ele>328.6</ele>
        <time>2016-01-03T08:35:30Z</time>
      </trkpt>
      <trkpt lat="44.28334" lon="2.02135">
        <ele>328.9</ele>
        <time>2016-01-03T08:35:31Z</time>
      </trkpt>
      <trkpt lat="44.28337" lon="2.02137">
        <ele>329.3</ele>
        <time>2016-01-03T08:35:32Z</time>
      </trkpt>
      <trkpt lat="44.28341" lon="2.02141">
        <ele>329.8</ele>
        <time>2016-01-03T08:35:34Z</time>
      </trkpt>
      <trkpt lat="44.28346" lon="2.02144">
        <ele>330.4</ele>
        <time>2016-01-03T08:35:36Z</time>
      </trkpt>
      <trkpt lat="44.28349" lon="2.02145">
        <ele>330.9</ele>
        <time>2016-01-03T08:35:38Z</time>
      </trkpt>
      <trkpt lat="44.28353" lon="2.02148">
        <ele>331.3</ele>
        <time>2016-01-03T08:35:40Z</time>
      </trkpt>
      <trkpt lat="44.28357" lon="2.02153">
        <ele>331.4</ele>
        <time>2016-01-03T08:35:42Z</time>
      </trkpt>
      <trkpt lat="44.28361" lon="2.02156">
        <ele>331.7</ele>
        <time>2016-01-03T08:35:43Z</time>
      </trkpt>
      <trkpt lat="44.28366" lon="2.0216">
        <ele>331.9</ele>
        <time>2016-01-03T08:35:45Z</time>
      </trkpt>
      <trkpt lat="44.28369" lon="2.02166">
        <ele>331.8</ele>
        <time>2016-01-03T08:35:46Z</time>
      </trkpt>
      <trkpt lat="44.28372" lon="2.0217">
        <ele>331.7</ele>
        <time>2016-01-03T08:35:48Z</time>
      </trkpt>
      <trkpt lat="44.28376" lon="2.02172">
        <ele>331.9</ele>
        <time>2016-01-03T08:35:50Z</time>
      </trkpt>
      <trkpt lat="44.28378" lon="2.02177">
        <ele>331.6</ele>
        <time>2016-01-03T08:35:52Z</time>
      </trkpt>
      <trkpt lat="44.2838" lon="2.02181">
        <ele>331.6</ele>
        <time>2016-01-03T08:35:54Z</time>
      </trkpt>
      <trkpt lat="44.28384" lon="2.02184">
        <ele>331.7</ele>
        <time>2016-01-03T08:35:56Z</time>
      </trkpt>
      <trkpt lat="44.28387" lon="2.02188">
        <ele>331.8</ele>
        <time>2016-01-03T08:35:58Z</time>
      </trkpt>
      <trkpt lat="44.2839" lon="2.02192">
        <ele>331.8</ele>
        <time>2016-01-03T08:35:59Z</time>
      </trkpt>
      <trkpt lat="44.28392" lon="2.02196">
        <ele>331.8</ele>
        <time>2016-01-03T08:36:01Z</time>
      </trkpt>
      <trkpt lat="44.28395" lon="2.02198">
        <ele>332</ele>
        <time>2016-01-03T08:36:03Z</time>
      </trkpt>
      <trkpt lat="44.28398" lon="2.02203">
        <ele>332</ele>
        <time>2016-01-03T08:36:05Z</time>
      </trkpt>
      <trkpt lat="44.28403" lon="2.02212">
        <ele>332.2</ele>
        <time>2016-01-03T08:36:07Z</time>
      </trkpt>
      <trkpt lat="44.28406" lon="2.02217">
        <ele>332.5</ele>
        <time>2016-01-03T08:36:08Z</time>
      </trkpt>
      <trkpt lat="44.28409" lon="2.02222">
        <ele>332.9</ele>
        <time>2016-01-03T08:36:09Z</time>
      </trkpt>
      <trkpt lat="44.28412" lon="2.02225">
        <ele>333.2</ele>
        <time>2016-01-03T08:36:10Z</time>
      </trkpt>
      <trkpt lat="44.28416" lon="2.0223">
        <ele>333.7</ele>
        <time>2016-01-03T08:36:12Z</time>
      </trkpt>
      <trkpt lat="44.2842" lon="2.02239">
        <ele>333.9</ele>
        <time>2016-01-03T08:36:14Z</time>
      </trkpt>
      <trkpt lat="44.28423" lon="2.02243">
        <ele>334.1</ele>
        <time>2016-01-03T08:36:15Z</time>
      </trkpt>
      <trkpt lat="44.28426" lon="2.02245">
        <ele>334.5</ele>
        <time>2016-01-03T08:36:17Z</time>
      </trkpt>
      <trkpt lat="44.28428" lon="2.02248">
        <ele>334.6</ele>
        <time>2016-01-03T08:36:19Z</time>
      </trkpt>
      <trkpt lat="44.28431" lon="2.02252">
        <ele>334.7</ele>
        <time>2016-01-03T08:36:21Z</time>
      </trkpt>
      <trkpt lat="44.28435" lon="2.02255">
        <ele>335.1</ele>
        <time>2016-01-03T08:36:23Z</time>
      </trkpt>
      <trkpt lat="44.28439" lon="2.02256">
        <ele>335.7</ele>
        <time>2016-01-03T08:36:25Z</time>
      </trkpt>
      <trkpt lat="44.28444" lon="2.02254">
        <ele>336.5</ele>
        <time>2016-01-03T08:36:27Z</time>
      </trkpt>
      <trkpt lat="44.28448" lon="2.02253">
        <ele>337.2</ele>
        <time>2016-01-03T08:36:29Z</time>
      </trkpt>
      <trkpt lat="44.28452" lon="2.02249">
        <ele>338.2</ele>
        <time>2016-01-03T08:36:31Z</time>
      </trkpt>
      <trkpt lat="44.28455" lon="2.02247">
        <ele>338.9</ele>
        <time>2016-01-03T08:36:33Z</time>
      </trkpt>
      <trkpt lat="44.28459" lon="2.02244">
        <ele>339.6</ele>
        <time>2016-01-03T08:36:36Z</time>
      </trkpt>
      <trkpt lat="44.28461" lon="2.0224">
        <ele>340.3</ele>
        <time>2016-01-03T08:36:38Z</time>
      </trkpt>
      <trkpt lat="44.28465" lon="2.02237">
        <ele>340.9</ele>
        <time>2016-01-03T08:36:41Z</time>
      </trkpt>
      <trkpt lat="44.28469" lon="2.02235">
        <ele>341.6</ele>
        <time>2016-01-03T08:36:43Z</time>
      </trkpt>
      <trkpt lat="44.28473" lon="2.02233">
        <ele>342.2</ele>
        <time>2016-01-03T08:36:46Z</time>
      </trkpt>
      <trkpt lat="44.28477" lon="2.02231">
        <ele>342.8</ele>
        <time>2016-01-03T08:36:48Z</time>
      </trkpt>
      <trkpt lat="44.28481" lon="2.02229">
        <ele>343.5</ele>
        <time>2016-01-03T08:36:50Z</time>
      </trkpt>
      <trkpt lat="44.28485" lon="2.02227">
        <ele>344.2</ele>
        <time>2016-01-03T08:36:52Z</time>
      </trkpt>
      <trkpt lat="44.28489" lon="2.02225">
        <ele>344.8</ele>
        <time>2016-01-03T08:36:54Z</time>
      </trkpt>
      <trkpt lat="44.28492" lon="2.02224">
        <ele>345.1</ele>
        <time>2016-01-03T08:36:56Z</time>
      </trkpt>
      <trkpt lat="44.28497" lon="2.02218">
        <ele>346.2</ele>
        <time>2016-01-03T08:36:58Z</time>
      </trkpt>
      <trkpt lat="44.285" lon="2.0222">
        <ele>346.3</ele>
        <time>2016-01-03T08:37:01Z</time>
      </trkpt>
      <trkpt lat="44.28502" lon="2.02217">
        <ele>346.9</ele>
        <time>2016-01-03T08:37:02Z</time>
      </trkpt>
      <trkpt lat="44.28505" lon="2.02218">
        <ele>347.1</ele>
        <time>2016-01-03T08:37:04Z</time>
      </trkpt>
      <trkpt lat="44.28507" lon="2.02222">
        <ele>347</ele>
        <time>2016-01-03T08:37:07Z</time>
      </trkpt>
      <trkpt lat="44.2851" lon="2.02225">
        <ele>346.9</ele>
        <time>2016-01-03T08:37:09Z</time>
      </trkpt>
      <trkpt lat="44.28512" lon="2.02227">
        <ele>347</ele>
        <time>2016-01-03T08:37:12Z</time>
      </trkpt>
      <trkpt lat="44.28516" lon="2.02224">
        <ele>347.7</ele>
        <time>2016-01-03T08:37:16Z</time>
      </trkpt>
      <trkpt lat="44.28517" lon="2.02228">
        <ele>347.4</ele>
        <time>2016-01-03T08:37:18Z</time>
      </trkpt>
      <trkpt lat="44.28518" lon="2.02234">
        <ele>347</ele>
        <time>2016-01-03T08:37:20Z</time>
      </trkpt>
      <trkpt lat="44.28519" lon="2.02239">
        <ele>346.6</ele>
        <time>2016-01-03T08:37:22Z</time>
      </trkpt>
      <trkpt lat="44.28518" lon="2.02243">
        <ele>346.1</ele>
        <time>2016-01-03T08:37:24Z</time>
      </trkpt>
      <trkpt lat="44.28518" lon="2.02248">
        <ele>345.6</ele>
        <time>2016-01-03T08:37:26Z</time>
      </trkpt>
      <trkpt lat="44.28521" lon="2.02257">
        <ele>345.1</ele>
        <time>2016-01-03T08:37:28Z</time>
      </trkpt>
      <trkpt lat="44.28522" lon="2.02261">
        <ele>344.8</ele>
        <time>2016-01-03T08:37:30Z</time>
      </trkpt>
      <trkpt lat="44.28524" lon="2.02268">
        <ele>344.4</ele>
        <time>2016-01-03T08:37:32Z</time>
      </trkpt>
      <trkpt lat="44.28525" lon="2.02272">
        <ele>344.1</ele>
        <time>2016-01-03T08:37:34Z</time>
      </trkpt>
      <trkpt lat="44.28526" lon="2.02277">
        <ele>343.8</ele>
        <time>2016-01-03T08:37:37Z</time>
      </trkpt>
      <trkpt lat="44.28528" lon="2.02281">
        <ele>343.5</ele>
        <time>2016-01-03T08:37:39Z</time>
      </trkpt>
      <trkpt lat="44.28529" lon="2.02284">
        <ele>343.4</ele>
        <time>2016-01-03T08:37:41Z</time>
      </trkpt>
      <trkpt lat="44.28531" lon="2.02289">
        <ele>343.1</ele>
        <time>2016-01-03T08:37:44Z</time>
      </trkpt>
      <trkpt lat="44.28534" lon="2.02294">
        <ele>343</ele>
        <time>2016-01-03T08:37:46Z</time>
      </trkpt>
      <trkpt lat="44.28536" lon="2.02299">
        <ele>343</ele>
        <time>2016-01-03T08:37:48Z</time>
      </trkpt>
      <trkpt lat="44.28539" lon="2.02303">
        <ele>343</ele>
        <time>2016-01-03T08:37:51Z</time>
      </trkpt>
      <trkpt lat="44.28541" lon="2.02306">
        <ele>343.1</ele>
        <time>2016-01-03T08:37:53Z</time>
      </trkpt>
      <trkpt lat="44.28544" lon="2.02309">
        <ele>343.4</ele>
        <time>2016-01-03T08:37:55Z</time>
      </trkpt>
      <trkpt lat="44.28548" lon="2.02313">
        <ele>343.7</ele>
        <time>2016-01-03T08:37:57Z</time>
      </trkpt>
      <trkpt lat="44.28552" lon="2.02317">
        <ele>344.2</ele>
        <time>2016-01-03T08:37:59Z</time>
      </trkpt>
      <trkpt lat="44.28555" lon="2.0232">
        <ele>344.5</ele>
        <time>2016-01-03T08:38:00Z</time>
      </trkpt>
      <trkpt lat="44.28557" lon="2.02322">
        <ele>344.7</ele>
        <time>2016-01-03T08:38:01Z</time>
      </trkpt>
      <trkpt lat="44.2856" lon="2.02324">
        <ele>345</ele>
        <time>2016-01-03T08:38:02Z</time>
      </trkpt>
      <trkpt lat="44.28564" lon="2.02327">
        <ele>345.6</ele>
        <time>2016-01-03T08:38:04Z</time>
      </trkpt>
      <trkpt lat="44.28568" lon="2.02329">
        <ele>346.2</ele>
        <time>2016-01-03T08:38:06Z</time>
      </trkpt>
      <trkpt lat="44.28572" lon="2.02332">
        <ele>346.7</ele>
        <time>2016-01-03T08:38:08Z</time>
      </trkpt>
      <trkpt lat="44.28576" lon="2.02334">
        <ele>347.3</ele>
        <time>2016-01-03T08:38:10Z</time>
      </trkpt>
      <trkpt lat="44.2858" lon="2.02336">
        <ele>347.8</ele>
        <time>2016-01-03T08:38:12Z</time>
      </trkpt>
      <trkpt lat="44.28583" lon="2.02338">
        <ele>348.3</ele>
        <time>2016-01-03T08:38:14Z</time>
      </trkpt>
      <trkpt lat="44.28587" lon="2.02339">
        <ele>348.9</ele>
        <time>2016-01-03T08:38:16Z</time>
      </trkpt>
      <trkpt lat="44.2859" lon="2.0234">
        <ele>349.4</ele>
        <time>2016-01-03T08:38:18Z</time>
      </trkpt>
      <trkpt lat="44.28594" lon="2.0234">
        <ele>350</ele>
        <time>2016-01-03T08:38:20Z</time>
      </trkpt>
      <trkpt lat="44.28597" lon="2.02341">
        <ele>350.5</ele>
        <time>2016-01-03T08:38:22Z</time>
      </trkpt>
      <trkpt lat="44.286" lon="2.02342">
        <ele>351</ele>
        <time>2016-01-03T08:38:24Z</time>
      </trkpt>
      <trkpt lat="44.28604" lon="2.02342">
        <ele>351.6</ele>
        <time>2016-01-03T08:38:26Z</time>
      </trkpt>
      <trkpt lat="44.28607" lon="2.02342">
        <ele>352.2</ele>
        <time>2016-01-03T08:38:28Z</time>
      </trkpt>
      <trkpt lat="44.28611" lon="2.02342">
        <ele>352.7</ele>
        <time>2016-01-03T08:38:30Z</time>
      </trkpt>
      <trkpt lat="44.28614" lon="2.02342">
        <ele>353.2</ele>
        <time>2016-01-03T08:38:32Z</time>
      </trkpt>
      <trkpt lat="44.28617" lon="2.02343">
        <ele>353.8</ele>
        <time>2016-01-03T08:38:35Z</time>
      </trkpt>
      <trkpt lat="44.28621" lon="2.02345">
        <ele>354.3</ele>
        <time>2016-01-03T08:38:38Z</time>
      </trkpt>
      <trkpt lat="44.28624" lon="2.02346">
        <ele>354.8</ele>
        <time>2016-01-03T08:38:40Z</time>
      </trkpt>
      <trkpt lat="44.28627" lon="2.02347">
        <ele>355.2</ele>
        <time>2016-01-03T08:38:42Z</time>
      </trkpt>
      <trkpt lat="44.28629" lon="2.02347">
        <ele>355.5</ele>
        <time>2016-01-03T08:38:44Z</time>
      </trkpt>
      <trkpt lat="44.28633" lon="2.02347">
        <ele>355.8</ele>
        <time>2016-01-03T08:38:46Z</time>
      </trkpt>
      <trkpt lat="44.28637" lon="2.02347">
        <ele>356.2</ele>
        <time>2016-01-03T08:38:48Z</time>
      </trkpt>
      <trkpt lat="44.28639" lon="2.02349">
        <ele>356.5</ele>
        <time>2016-01-03T08:38:49Z</time>
      </trkpt>
      <trkpt lat="44.28643" lon="2.02346">
        <ele>357</ele>
        <time>2016-01-03T08:38:51Z</time>
      </trkpt>
      <trkpt lat="44.28647" lon="2.02344">
        <ele>357.5</ele>
        <time>2016-01-03T08:38:53Z</time>
      </trkpt>
      <trkpt lat="44.28649" lon="2.02343">
        <ele>357.9</ele>
        <time>2016-01-03T08:38:55Z</time>
      </trkpt>
      <trkpt lat="44.28652" lon="2.02342">
        <ele>358.3</ele>
        <time>2016-01-03T08:38:57Z</time>
      </trkpt>
      <trkpt lat="44.28655" lon="2.02341">
        <ele>358.6</ele>
        <time>2016-01-03T08:38:59Z</time>
      </trkpt>
      <trkpt lat="44.28659" lon="2.02339">
        <ele>359.2</ele>
        <time>2016-01-03T08:39:02Z</time>
      </trkpt>
      <trkpt lat="44.28662" lon="2.02337">
        <ele>359.7</ele>
        <time>2016-01-03T08:39:04Z</time>
      </trkpt>
      <trkpt lat="44.28664" lon="2.02335">
        <ele>360.1</ele>
        <time>2016-01-03T08:39:06Z</time>
      </trkpt>
      <trkpt lat="44.28667" lon="2.02332">
        <ele>360.7</ele>
        <time>2016-01-03T08:39:08Z</time>
      </trkpt>
      <trkpt lat="44.2867" lon="2.02329">
        <ele>361.2</ele>
        <time>2016-01-03T08:39:10Z</time>
      </trkpt>
      <trkpt lat="44.28673" lon="2.02326">
        <ele>361.8</ele>
        <time>2016-01-03T08:39:12Z</time>
      </trkpt>
      <trkpt lat="44.28676" lon="2.02324">
        <ele>362.4</ele>
        <time>2016-01-03T08:39:14Z</time>
      </trkpt>
      <trkpt lat="44.28678" lon="2.02321">
        <ele>362.9</ele>
        <time>2016-01-03T08:39:16Z</time>
      </trkpt>
      <trkpt lat="44.28681" lon="2.02319">
        <ele>363.4</ele>
        <time>2016-01-03T08:39:18Z</time>
      </trkpt>
      <trkpt lat="44.28684" lon="2.02316">
        <ele>364.1</ele>
        <time>2016-01-03T08:39:21Z</time>
      </trkpt>
      <trkpt lat="44.28687" lon="2.02312">
        <ele>364.8</ele>
        <time>2016-01-03T08:39:23Z</time>
      </trkpt>
      <trkpt lat="44.28689" lon="2.02309">
        <ele>365.5</ele>
        <time>2016-01-03T08:39:25Z</time>
      </trkpt>
      <trkpt lat="44.28693" lon="2.02304">
        <ele>366.4</ele>
        <time>2016-01-03T08:39:27Z</time>
      </trkpt>
      <trkpt lat="44.28695" lon="2.023">
        <ele>367.1</ele>
        <time>2016-01-03T08:39:29Z</time>
      </trkpt>
      <trkpt lat="44.28697" lon="2.02297">
        <ele>367.7</ele>
        <time>2016-01-03T08:39:31Z</time>
      </trkpt>
      <trkpt lat="44.287" lon="2.02294">
        <ele>368.5</ele>
        <time>2016-01-03T08:39:33Z</time>
      </trkpt>
      <trkpt lat="44.28702" lon="2.0229">
        <ele>369</ele>
        <time>2016-01-03T08:39:35Z</time>
      </trkpt>
      <trkpt lat="44.28705" lon="2.02288">
        <ele>369.2</ele>
        <time>2016-01-03T08:39:37Z</time>
      </trkpt>
      <trkpt lat="44.28707" lon="2.02284">
        <ele>369.4</ele>
        <time>2016-01-03T08:39:39Z</time>
      </trkpt>
      <trkpt lat="44.2871" lon="2.02282">
        <ele>369.6</ele>
        <time>2016-01-03T08:39:41Z</time>
      </trkpt>
      <trkpt lat="44.28714" lon="2.02282">
        <ele>369.7</ele>
        <time>2016-01-03T08:39:44Z</time>
      </trkpt>
      <trkpt lat="44.28717" lon="2.02283">
        <ele>370</ele>
        <time>2016-01-03T08:39:46Z</time>
      </trkpt>
      <trkpt lat="44.2872" lon="2.0228">
        <ele>370.1</ele>
        <time>2016-01-03T08:39:48Z</time>
      </trkpt>
      <trkpt lat="44.28725" lon="2.02284">
        <ele>370.5</ele>
        <time>2016-01-03T08:39:51Z</time>
      </trkpt>
      <trkpt lat="44.28729" lon="2.02278">
        <ele>370.7</ele>
        <time>2016-01-03T08:39:53Z</time>
      </trkpt>
      <trkpt lat="44.28732" lon="2.02273">
        <ele>370.8</ele>
        <time>2016-01-03T08:39:54Z</time>
      </trkpt>
      <trkpt lat="44.28735" lon="2.02273">
        <ele>371.1</ele>
        <time>2016-01-03T08:39:56Z</time>
      </trkpt>
      <trkpt lat="44.28738" lon="2.02273">
        <ele>371.4</ele>
        <time>2016-01-03T08:39:58Z</time>
      </trkpt>
      <trkpt lat="44.28742" lon="2.02273">
        <ele>371.7</ele>
        <time>2016-01-03T08:40:00Z</time>
      </trkpt>
      <trkpt lat="44.28745" lon="2.02274">
        <ele>371.9</ele>
        <time>2016-01-03T08:40:02Z</time>
      </trkpt>
      <trkpt lat="44.28749" lon="2.02273">
        <ele>372.2</ele>
        <time>2016-01-03T08:40:04Z</time>
      </trkpt>
      <trkpt lat="44.28753" lon="2.0227">
        <ele>372.6</ele>
        <time>2016-01-03T08:40:06Z</time>
      </trkpt>
      <trkpt lat="44.28756" lon="2.02268">
        <ele>373</ele>
        <time>2016-01-03T08:40:08Z</time>
      </trkpt>
      <trkpt lat="44.2876" lon="2.02255">
        <ele>373.8</ele>
        <time>2016-01-03T08:40:11Z</time>
      </trkpt>
      <trkpt lat="44.28763" lon="2.02243">
        <ele>374.7</ele>
        <time>2016-01-03T08:40:13Z</time>
      </trkpt>
      <trkpt lat="44.28763" lon="2.02238">
        <ele>374.9</ele>
        <time>2016-01-03T08:40:14Z</time>
      </trkpt>
      <trkpt lat="44.28764" lon="2.02234">
        <ele>375.2</ele>
        <time>2016-01-03T08:40:15Z</time>
      </trkpt>
      <trkpt lat="44.28764" lon="2.02227">
        <ele>375.5</ele>
        <time>2016-01-03T08:40:17Z</time>
      </trkpt>
      <trkpt lat="44.28764" lon="2.02221">
        <ele>375.7</ele>
        <time>2016-01-03T08:40:19Z</time>
      </trkpt>
      <trkpt lat="44.28764" lon="2.02215">
        <ele>376</ele>
        <time>2016-01-03T08:40:21Z</time>
      </trkpt>
      <trkpt lat="44.28764" lon="2.02211">
        <ele>376.2</ele>
        <time>2016-01-03T08:40:22Z</time>
      </trkpt>
      <trkpt lat="44.28764" lon="2.02205">
        <ele>376.2</ele>
        <time>2016-01-03T08:40:24Z</time>
      </trkpt>
      <trkpt lat="44.28763" lon="2.02201">
        <ele>376.1</ele>
        <time>2016-01-03T08:40:26Z</time>
      </trkpt>
      <trkpt lat="44.28764" lon="2.02197">
        <ele>376.2</ele>
        <time>2016-01-03T08:40:28Z</time>
      </trkpt>
      <trkpt lat="44.28767" lon="2.02194">
        <ele>376.6</ele>
        <time>2016-01-03T08:40:32Z</time>
      </trkpt>
      <trkpt lat="44.28767" lon="2.0219">
        <ele>376.7</ele>
        <time>2016-01-03T08:40:35Z</time>
      </trkpt>
      <trkpt lat="44.2877" lon="2.02188">
        <ele>377.1</ele>
        <time>2016-01-03T08:40:37Z</time>
      </trkpt>
      <trkpt lat="44.28772" lon="2.02183">
        <ele>377.4</ele>
        <time>2016-01-03T08:40:40Z</time>
      </trkpt>
      <trkpt lat="44.28772" lon="2.02177">
        <ele>377.5</ele>
        <time>2016-01-03T08:40:42Z</time>
      </trkpt>
      <trkpt lat="44.28774" lon="2.02171">
        <ele>377.6</ele>
        <time>2016-01-03T08:40:44Z</time>
      </trkpt>
      <trkpt lat="44.28775" lon="2.02165">
        <ele>377.7</ele>
        <time>2016-01-03T08:40:46Z</time>
      </trkpt>
      <trkpt lat="44.28776" lon="2.02158">
        <ele>377.7</ele>
        <time>2016-01-03T08:40:48Z</time>
      </trkpt>
      <trkpt lat="44.28775" lon="2.02152">
        <ele>377.6</ele>
        <time>2016-01-03T08:40:50Z</time>
      </trkpt>
      <trkpt lat="44.28776" lon="2.02144">
        <ele>377.5</ele>
        <time>2016-01-03T08:40:52Z</time>
      </trkpt>
      <trkpt lat="44.28777" lon="2.02137">
        <ele>377.5</ele>
        <time>2016-01-03T08:40:53Z</time>
      </trkpt>
      <trkpt lat="44.28777" lon="2.02133">
        <ele>377.5</ele>
        <time>2016-01-03T08:40:54Z</time>
      </trkpt>
      <trkpt lat="44.28777" lon="2.02128">
        <ele>377.5</ele>
        <time>2016-01-03T08:40:55Z</time>
      </trkpt>
      <trkpt lat="44.28777" lon="2.02121">
        <ele>377.7</ele>
        <time>2016-01-03T08:40:57Z</time>
      </trkpt>
      <trkpt lat="44.28777" lon="2.02116">
        <ele>378.1</ele>
        <time>2016-01-03T08:40:58Z</time>
      </trkpt>
      <trkpt lat="44.28776" lon="2.02112">
        <ele>378.5</ele>
        <time>2016-01-03T08:40:59Z</time>
      </trkpt>
      <trkpt lat="44.28776" lon="2.02107">
        <ele>379</ele>
        <time>2016-01-03T08:41:00Z</time>
      </trkpt>
      <trkpt lat="44.28775" lon="2.02103">
        <ele>379.3</ele>
        <time>2016-01-03T08:41:01Z</time>
      </trkpt>
      <trkpt lat="44.28775" lon="2.02099">
        <ele>379.6</ele>
        <time>2016-01-03T08:41:02Z</time>
      </trkpt>
      <trkpt lat="44.28774" lon="2.02093">
        <ele>380.1</ele>
        <time>2016-01-03T08:41:03Z</time>
      </trkpt>
      <trkpt lat="44.28775" lon="2.02087">
        <ele>380.8</ele>
        <time>2016-01-03T08:41:04Z</time>
      </trkpt>
      <trkpt lat="44.28776" lon="2.02082">
        <ele>381.4</ele>
        <time>2016-01-03T08:41:06Z</time>
      </trkpt>
      <trkpt lat="44.28777" lon="2.02077">
        <ele>382</ele>
        <time>2016-01-03T08:41:08Z</time>
      </trkpt>
      <trkpt lat="44.28779" lon="2.02073">
        <ele>382.6</ele>
        <time>2016-01-03T08:41:09Z</time>
      </trkpt>
      <trkpt lat="44.2878" lon="2.02064">
        <ele>383.5</ele>
        <time>2016-01-03T08:41:11Z</time>
      </trkpt>
      <trkpt lat="44.28781" lon="2.0206">
        <ele>383.9</ele>
        <time>2016-01-03T08:41:14Z</time>
      </trkpt>
      <trkpt lat="44.28781" lon="2.02057">
        <ele>384.3</ele>
        <time>2016-01-03T08:41:15Z</time>
      </trkpt>
      <trkpt lat="44.28782" lon="2.02049">
        <ele>385</ele>
        <time>2016-01-03T08:41:17Z</time>
      </trkpt>
      <trkpt lat="44.28783" lon="2.02045">
        <ele>385.4</ele>
        <time>2016-01-03T08:41:18Z</time>
      </trkpt>
      <trkpt lat="44.28783" lon="2.0204">
        <ele>386</ele>
        <time>2016-01-03T08:41:19Z</time>
      </trkpt>
      <trkpt lat="44.28781" lon="2.02032">
        <ele>387.7</ele>
        <time>2016-01-03T08:41:21Z</time>
      </trkpt>
      <trkpt lat="44.2878" lon="2.02029">
        <ele>388.5</ele>
        <time>2016-01-03T08:41:22Z</time>
      </trkpt>
      <trkpt lat="44.2878" lon="2.02022">
        <ele>389.9</ele>
        <time>2016-01-03T08:41:24Z</time>
      </trkpt>
      <trkpt lat="44.28777" lon="2.02018">
        <ele>390.8</ele>
        <time>2016-01-03T08:41:26Z</time>
      </trkpt>
      <trkpt lat="44.28776" lon="2.02013">
        <ele>391.8</ele>
        <time>2016-01-03T08:41:28Z</time>
      </trkpt>
      <trkpt lat="44.28775" lon="2.02008">
        <ele>392.9</ele>
        <time>2016-01-03T08:41:30Z</time>
      </trkpt>
      <trkpt lat="44.28774" lon="2.02003">
        <ele>394</ele>
        <time>2016-01-03T08:41:32Z</time>
      </trkpt>
      <trkpt lat="44.28774" lon="2.01997">
        <ele>395.1</ele>
        <time>2016-01-03T08:41:34Z</time>
      </trkpt>
      <trkpt lat="44.28773" lon="2.01992">
        <ele>396.3</ele>
        <time>2016-01-03T08:41:36Z</time>
      </trkpt>
      <trkpt lat="44.28773" lon="2.01988">
        <ele>397.2</ele>
        <time>2016-01-03T08:41:38Z</time>
      </trkpt>
      <trkpt lat="44.28773" lon="2.01984">
        <ele>398.1</ele>
        <time>2016-01-03T08:41:41Z</time>
      </trkpt>
      <trkpt lat="44.28773" lon="2.01975">
        <ele>400</ele>
        <time>2016-01-03T08:41:45Z</time>
      </trkpt>
      <trkpt lat="44.28772" lon="2.0197">
        <ele>401.1</ele>
        <time>2016-01-03T08:41:47Z</time>
      </trkpt>
      <trkpt lat="44.28771" lon="2.01966">
        <ele>402</ele>
        <time>2016-01-03T08:41:49Z</time>
      </trkpt>
      <trkpt lat="44.28769" lon="2.01961">
        <ele>402.7</ele>
        <time>2016-01-03T08:41:52Z</time>
      </trkpt>
      <trkpt lat="44.28767" lon="2.01958">
        <ele>403.3</ele>
        <time>2016-01-03T08:41:54Z</time>
      </trkpt>
      <trkpt lat="44.28765" lon="2.01954">
        <ele>404.2</ele>
        <time>2016-01-03T08:41:57Z</time>
      </trkpt>
      <trkpt lat="44.28763" lon="2.0195">
        <ele>405</ele>
        <time>2016-01-03T08:42:00Z</time>
      </trkpt>
      <trkpt lat="44.28761" lon="2.01947">
        <ele>405.5</ele>
        <time>2016-01-03T08:42:02Z</time>
      </trkpt>
      <trkpt lat="44.28759" lon="2.01944">
        <ele>406.3</ele>
        <time>2016-01-03T08:42:04Z</time>
      </trkpt>
      <trkpt lat="44.28756" lon="2.01937">
        <ele>407.6</ele>
        <time>2016-01-03T08:42:06Z</time>
      </trkpt>
      <trkpt lat="44.28753" lon="2.01933">
        <ele>408.5</ele>
        <time>2016-01-03T08:42:08Z</time>
      </trkpt>
      <trkpt lat="44.2875" lon="2.0193">
        <ele>408.9</ele>
        <time>2016-01-03T08:42:11Z</time>
      </trkpt>
      <trkpt lat="44.28748" lon="2.01929">
        <ele>409.1</ele>
        <time>2016-01-03T08:42:13Z</time>
      </trkpt>
      <trkpt lat="44.28745" lon="2.01927">
        <ele>409.5</ele>
        <time>2016-01-03T08:42:15Z</time>
      </trkpt>
      <trkpt lat="44.28741" lon="2.01924">
        <ele>409.9</ele>
        <time>2016-01-03T08:42:18Z</time>
      </trkpt>
      <trkpt lat="44.28739" lon="2.01922">
        <ele>410.2</ele>
        <time>2016-01-03T08:42:20Z</time>
      </trkpt>
      <trkpt lat="44.28736" lon="2.0192">
        <ele>410.5</ele>
        <time>2016-01-03T08:42:23Z</time>
      </trkpt>
      <trkpt lat="44.28732" lon="2.01917">
        <ele>410.9</ele>
        <time>2016-01-03T08:42:25Z</time>
      </trkpt>
      <trkpt lat="44.2873" lon="2.01915">
        <ele>411.4</ele>
        <time>2016-01-03T08:42:26Z</time>
      </trkpt>
      <trkpt lat="44.28728" lon="2.01912">
        <ele>412</ele>
        <time>2016-01-03T08:42:28Z</time>
      </trkpt>
      <trkpt lat="44.28726" lon="2.01909">
        <ele>412.5</ele>
        <time>2016-01-03T08:42:30Z</time>
      </trkpt>
      <trkpt lat="44.28724" lon="2.01908">
        <ele>412.8</ele>
        <time>2016-01-03T08:42:32Z</time>
      </trkpt>
      <trkpt lat="44.28721" lon="2.01905">
        <ele>413.2</ele>
        <time>2016-01-03T08:42:35Z</time>
      </trkpt>
      <trkpt lat="44.28717" lon="2.01903">
        <ele>413.6</ele>
        <time>2016-01-03T08:42:37Z</time>
      </trkpt>
      <trkpt lat="44.28714" lon="2.01901">
        <ele>413.9</ele>
        <time>2016-01-03T08:42:39Z</time>
      </trkpt>
      <trkpt lat="44.28711" lon="2.01899">
        <ele>414.2</ele>
        <time>2016-01-03T08:42:41Z</time>
      </trkpt>
      <trkpt lat="44.28708" lon="2.019">
        <ele>413.7</ele>
        <time>2016-01-03T08:42:42Z</time>
      </trkpt>
      <trkpt lat="44.28705" lon="2.019">
        <ele>413.3</ele>
        <time>2016-01-03T08:42:44Z</time>
      </trkpt>
      <trkpt lat="44.28701" lon="2.01898">
        <ele>413.2</ele>
        <time>2016-01-03T08:42:46Z</time>
      </trkpt>
      <trkpt lat="44.28675" lon="2.01887">
        <ele>412.2</ele>
        <time>2016-01-03T08:43:09Z</time>
      </trkpt>
      <trkpt lat="44.28674" lon="2.01883">
        <ele>412.9</ele>
        <time>2016-01-03T08:43:10Z</time>
      </trkpt>
      <trkpt lat="44.28673" lon="2.01879">
        <ele>413.9</ele>
        <time>2016-01-03T08:43:12Z</time>
      </trkpt>
      <trkpt lat="44.28671" lon="2.01875">
        <ele>414.6</ele>
        <time>2016-01-03T08:43:15Z</time>
      </trkpt>
      <trkpt lat="44.28665" lon="2.01871">
        <ele>414.1</ele>
        <time>2016-01-03T08:43:17Z</time>
      </trkpt>
      <trkpt lat="44.28662" lon="2.01869">
        <ele>413.8</ele>
        <time>2016-01-03T08:43:18Z</time>
      </trkpt>
      <trkpt lat="44.2866" lon="2.01866">
        <ele>413.9</ele>
        <time>2016-01-03T08:43:22Z</time>
      </trkpt>
      <trkpt lat="44.28657" lon="2.0186">
        <ele>413.9</ele>
        <time>2016-01-03T08:43:28Z</time>
      </trkpt>
      <trkpt lat="44.28652" lon="2.01858">
        <ele>413.4</ele>
        <time>2016-01-03T08:43:30Z</time>
      </trkpt>
      <trkpt lat="44.28649" lon="2.01854">
        <ele>413.3</ele>
        <time>2016-01-03T08:43:32Z</time>
      </trkpt>
      <trkpt lat="44.28647" lon="2.01851">
        <ele>413.3</ele>
        <time>2016-01-03T08:43:34Z</time>
      </trkpt>
      <trkpt lat="44.28646" lon="2.01847">
        <ele>413.4</ele>
        <time>2016-01-03T08:43:36Z</time>
      </trkpt>
      <trkpt lat="44.28644" lon="2.01844">
        <ele>413.4</ele>
        <time>2016-01-03T08:43:39Z</time>
      </trkpt>
      <trkpt lat="44.28641" lon="2.0184">
        <ele>413.3</ele>
        <time>2016-01-03T08:43:43Z</time>
      </trkpt>
      <trkpt lat="44.2864" lon="2.01837">
        <ele>413.4</ele>
        <time>2016-01-03T08:43:45Z</time>
      </trkpt>
      <trkpt lat="44.28638" lon="2.01833">
        <ele>413.5</ele>
        <time>2016-01-03T08:43:47Z</time>
      </trkpt>
      <trkpt lat="44.28636" lon="2.01831">
        <ele>413.3</ele>
        <time>2016-01-03T08:43:49Z</time>
      </trkpt>
      <trkpt lat="44.28633" lon="2.01828">
        <ele>413.2</ele>
        <time>2016-01-03T08:43:51Z</time>
      </trkpt>
      <trkpt lat="44.28631" lon="2.01824">
        <ele>413.2</ele>
        <time>2016-01-03T08:43:53Z</time>
      </trkpt>
      <trkpt lat="44.2863" lon="2.0182">
        <ele>413.3</ele>
        <time>2016-01-03T08:43:56Z</time>
      </trkpt>
      <trkpt lat="44.2863" lon="2.01815">
        <ele>413.8</ele>
        <time>2016-01-03T08:44:00Z</time>
      </trkpt>
      <trkpt lat="44.28628" lon="2.0181">
        <ele>413.9</ele>
        <time>2016-01-03T08:44:02Z</time>
      </trkpt>
      <trkpt lat="44.28626" lon="2.01808">
        <ele>413.8</ele>
        <time>2016-01-03T08:44:04Z</time>
      </trkpt>
      <trkpt lat="44.28622" lon="2.01805">
        <ele>413.4</ele>
        <time>2016-01-03T08:44:06Z</time>
      </trkpt>
      <trkpt lat="44.28622" lon="2.01809">
        <ele>413</ele>
        <time>2016-01-03T08:44:19Z</time>
      </trkpt>
      <trkpt lat="44.28624" lon="2.01812">
        <ele>413.2</ele>
        <time>2016-01-03T08:44:23Z</time>
      </trkpt>
      <trkpt lat="44.28626" lon="2.01808">
        <ele>413.8</ele>
        <time>2016-01-03T08:44:31Z</time>
      </trkpt>
      <trkpt lat="44.28627" lon="2.01805">
        <ele>414.3</ele>
        <time>2016-01-03T08:44:33Z</time>
      </trkpt>
      <trkpt lat="44.28628" lon="2.018">
        <ele>414.8</ele>
        <time>2016-01-03T08:44:35Z</time>
      </trkpt>
      <trkpt lat="44.2863" lon="2.01796">
        <ele>415.4</ele>
        <time>2016-01-03T08:44:36Z</time>
      </trkpt>
      <trkpt lat="44.28632" lon="2.01792">
        <ele>416.1</ele>
        <time>2016-01-03T08:44:38Z</time>
      </trkpt>
      <trkpt lat="44.28634" lon="2.01787">
        <ele>416.6</ele>
        <time>2016-01-03T08:44:41Z</time>
      </trkpt>
      <trkpt lat="44.28635" lon="2.01782">
        <ele>417</ele>
        <time>2016-01-03T08:44:45Z</time>
      </trkpt>
      <trkpt lat="44.28636" lon="2.01778">
        <ele>417.2</ele>
        <time>2016-01-03T08:44:47Z</time>
      </trkpt>
      <trkpt lat="44.28637" lon="2.01773">
        <ele>417.5</ele>
        <time>2016-01-03T08:44:50Z</time>
      </trkpt>
      <trkpt lat="44.28638" lon="2.01768">
        <ele>417.9</ele>
        <time>2016-01-03T08:44:52Z</time>
      </trkpt>
      <trkpt lat="44.2864" lon="2.01763">
        <ele>418.3</ele>
        <time>2016-01-03T08:44:54Z</time>
      </trkpt>
      <trkpt lat="44.28641" lon="2.01758">
        <ele>418.6</ele>
        <time>2016-01-03T08:44:57Z</time>
      </trkpt>
      <trkpt lat="44.28641" lon="2.01753">
        <ele>418.8</ele>
        <time>2016-01-03T08:45:00Z</time>
      </trkpt>
      <trkpt lat="44.28642" lon="2.01748">
        <ele>419.1</ele>
        <time>2016-01-03T08:45:02Z</time>
      </trkpt>
      <trkpt lat="44.28643" lon="2.01743">
        <ele>419.4</ele>
        <time>2016-01-03T08:45:05Z</time>
      </trkpt>
      <trkpt lat="44.28644" lon="2.01738">
        <ele>419.7</ele>
        <time>2016-01-03T08:45:07Z</time>
      </trkpt>
      <trkpt lat="44.28645" lon="2.01733">
        <ele>419.9</ele>
        <time>2016-01-03T08:45:10Z</time>
      </trkpt>
      <trkpt lat="44.28645" lon="2.01726">
        <ele>420.1</ele>
        <time>2016-01-03T08:45:12Z</time>
      </trkpt>
      <trkpt lat="44.28646" lon="2.01721">
        <ele>420.4</ele>
        <time>2016-01-03T08:45:14Z</time>
      </trkpt>
      <trkpt lat="44.28647" lon="2.01717">
        <ele>420.6</ele>
        <time>2016-01-03T08:45:16Z</time>
      </trkpt>
      <trkpt lat="44.28647" lon="2.01712">
        <ele>420.7</ele>
        <time>2016-01-03T08:45:18Z</time>
      </trkpt>
      <trkpt lat="44.28648" lon="2.01708">
        <ele>420.9</ele>
        <time>2016-01-03T08:45:20Z</time>
      </trkpt>
      <trkpt lat="44.2865" lon="2.01703">
        <ele>420.9</ele>
        <time>2016-01-03T08:45:22Z</time>
      </trkpt>
      <trkpt lat="44.28651" lon="2.01696">
        <ele>420.8</ele>
        <time>2016-01-03T08:45:24Z</time>
      </trkpt>
      <trkpt lat="44.28651" lon="2.01691">
        <ele>420.7</ele>
        <time>2016-01-03T08:45:26Z</time>
      </trkpt>
      <trkpt lat="44.28653" lon="2.01687">
        <ele>420.7</ele>
        <time>2016-01-03T08:45:28Z</time>
      </trkpt>
      <trkpt lat="44.28655" lon="2.01686">
        <ele>420.9</ele>
        <time>2016-01-03T08:45:33Z</time>
      </trkpt>
      <trkpt lat="44.28658" lon="2.01685">
        <ele>421</ele>
        <time>2016-01-03T08:45:35Z</time>
      </trkpt>
      <trkpt lat="44.28661" lon="2.01684">
        <ele>421.2</ele>
        <time>2016-01-03T08:45:38Z</time>
      </trkpt>
      <trkpt lat="44.28664" lon="2.01685">
        <ele>421.4</ele>
        <time>2016-01-03T08:45:40Z</time>
      </trkpt>
      <trkpt lat="44.28668" lon="2.01684">
        <ele>421.6</ele>
        <time>2016-01-03T08:45:43Z</time>
      </trkpt>
      <trkpt lat="44.28671" lon="2.01682">
        <ele>421.6</ele>
        <time>2016-01-03T08:45:45Z</time>
      </trkpt>
      <trkpt lat="44.28674" lon="2.01679">
        <ele>421.7</ele>
        <time>2016-01-03T08:45:47Z</time>
      </trkpt>
      <trkpt lat="44.28677" lon="2.01678">
        <ele>421.8</ele>
        <time>2016-01-03T08:45:49Z</time>
      </trkpt>
      <trkpt lat="44.2868" lon="2.01678">
        <ele>421.9</ele>
        <time>2016-01-03T08:45:51Z</time>
      </trkpt>
      <trkpt lat="44.28684" lon="2.01677">
        <ele>422.1</ele>
        <time>2016-01-03T08:45:54Z</time>
      </trkpt>
      <trkpt lat="44.28688" lon="2.01675">
        <ele>422.2</ele>
        <time>2016-01-03T08:45:56Z</time>
      </trkpt>
      <trkpt lat="44.28692" lon="2.01676">
        <ele>422.4</ele>
        <time>2016-01-03T08:45:58Z</time>
      </trkpt>
      <trkpt lat="44.28696" lon="2.01677">
        <ele>422.7</ele>
        <time>2016-01-03T08:46:00Z</time>
      </trkpt>
      <trkpt lat="44.28699" lon="2.01678">
        <ele>423</ele>
        <time>2016-01-03T08:46:02Z</time>
      </trkpt>
      <trkpt lat="44.28702" lon="2.01678">
        <ele>423.1</ele>
        <time>2016-01-03T08:46:04Z</time>
      </trkpt>
      <trkpt lat="44.28705" lon="2.01679">
        <ele>423.4</ele>
        <time>2016-01-03T08:46:06Z</time>
      </trkpt>
      <trkpt lat="44.2871" lon="2.01676">
        <ele>423.3</ele>
        <time>2016-01-03T08:46:08Z</time>
      </trkpt>
      <trkpt lat="44.28712" lon="2.01672">
        <ele>423</ele>
        <time>2016-01-03T08:46:10Z</time>
      </trkpt>
      <trkpt lat="44.28716" lon="2.0167">
        <ele>422.8</ele>
        <time>2016-01-03T08:46:13Z</time>
      </trkpt>
      <trkpt lat="44.2872" lon="2.01671">
        <ele>422.9</ele>
        <time>2016-01-03T08:46:15Z</time>
      </trkpt>
      <trkpt lat="44.28724" lon="2.01673">
        <ele>423</ele>
        <time>2016-01-03T08:46:17Z</time>
      </trkpt>
      <trkpt lat="44.28727" lon="2.01674">
        <ele>423.1</ele>
        <time>2016-01-03T08:46:19Z</time>
      </trkpt>
      <trkpt lat="44.28731" lon="2.01674">
        <ele>423.2</ele>
        <time>2016-01-03T08:46:22Z</time>
      </trkpt>
      <trkpt lat="44.28734" lon="2.01675">
        <ele>423.3</ele>
        <time>2016-01-03T08:46:24Z</time>
      </trkpt>
      <trkpt lat="44.28738" lon="2.01676">
        <ele>423.4</ele>
        <time>2016-01-03T08:46:26Z</time>
      </trkpt>
      <trkpt lat="44.28741" lon="2.01677">
        <ele>423.5</ele>
        <time>2016-01-03T08:46:28Z</time>
      </trkpt>
      <trkpt lat="44.28744" lon="2.01678">
        <ele>423.6</ele>
        <time>2016-01-03T08:46:30Z</time>
      </trkpt>
      <trkpt lat="44.28747" lon="2.01679">
        <ele>423.7</ele>
        <time>2016-01-03T08:46:32Z</time>
      </trkpt>
      <trkpt lat="44.2875" lon="2.0168">
        <ele>423.8</ele>
        <time>2016-01-03T08:46:34Z</time>
      </trkpt>
      <trkpt lat="44.28753" lon="2.01682">
        <ele>423.9</ele>
        <time>2016-01-03T08:46:36Z</time>
      </trkpt>
      <trkpt lat="44.28756" lon="2.01684">
        <ele>424.2</ele>
        <time>2016-01-03T08:46:38Z</time>
      </trkpt>
      <trkpt lat="44.28758" lon="2.01688">
        <ele>424.6</ele>
        <time>2016-01-03T08:46:39Z</time>
      </trkpt>
      <trkpt lat="44.28764" lon="2.01694">
        <ele>425.3</ele>
        <time>2016-01-03T08:46:41Z</time>
      </trkpt>
      <trkpt lat="44.28767" lon="2.01696">
        <ele>425.5</ele>
        <time>2016-01-03T08:46:43Z</time>
      </trkpt>
      <trkpt lat="44.28771" lon="2.01696">
        <ele>425.5</ele>
        <time>2016-01-03T08:46:45Z</time>
      </trkpt>
      <trkpt lat="44.28775" lon="2.01697">
        <ele>425.6</ele>
        <time>2016-01-03T08:46:47Z</time>
      </trkpt>
      <trkpt lat="44.2878" lon="2.01702">
        <ele>426.2</ele>
        <time>2016-01-03T08:46:49Z</time>
      </trkpt>
      <trkpt lat="44.28783" lon="2.01705">
        <ele>426.5</ele>
        <time>2016-01-03T08:46:50Z</time>
      </trkpt>
      <trkpt lat="44.28787" lon="2.01709">
        <ele>427</ele>
        <time>2016-01-03T08:46:52Z</time>
      </trkpt>
      <trkpt lat="44.2879" lon="2.01712">
        <ele>427.1</ele>
        <time>2016-01-03T08:46:53Z</time>
      </trkpt>
      <trkpt lat="44.28793" lon="2.01712">
        <ele>427.2</ele>
        <time>2016-01-03T08:46:55Z</time>
      </trkpt>
      <trkpt lat="44.28797" lon="2.01716">
        <ele>427.6</ele>
        <time>2016-01-03T08:46:57Z</time>
      </trkpt>
      <trkpt lat="44.288" lon="2.0172">
        <ele>427.8</ele>
        <time>2016-01-03T08:46:58Z</time>
      </trkpt>
      <trkpt lat="44.28804" lon="2.01722">
        <ele>428.1</ele>
        <time>2016-01-03T08:47:00Z</time>
      </trkpt>
      <trkpt lat="44.28808" lon="2.01724">
        <ele>428.3</ele>
        <time>2016-01-03T08:47:02Z</time>
      </trkpt>
      <trkpt lat="44.28812" lon="2.01724">
        <ele>428.5</ele>
        <time>2016-01-03T08:47:04Z</time>
      </trkpt>
      <trkpt lat="44.28817" lon="2.01726">
        <ele>428.7</ele>
        <time>2016-01-03T08:47:06Z</time>
      </trkpt>
      <trkpt lat="44.28821" lon="2.01728">
        <ele>428.9</ele>
        <time>2016-01-03T08:47:08Z</time>
      </trkpt>
      <trkpt lat="44.28826" lon="2.01732">
        <ele>429.3</ele>
        <time>2016-01-03T08:47:10Z</time>
      </trkpt>
      <trkpt lat="44.28831" lon="2.01735">
        <ele>429.5</ele>
        <time>2016-01-03T08:47:12Z</time>
      </trkpt>
      <trkpt lat="44.28835" lon="2.01736">
        <ele>429.7</ele>
        <time>2016-01-03T08:47:14Z</time>
      </trkpt>
      <trkpt lat="44.28839" lon="2.01737">
        <ele>429.9</ele>
        <time>2016-01-03T08:47:16Z</time>
      </trkpt>
      <trkpt lat="44.28842" lon="2.01738">
        <ele>430</ele>
        <time>2016-01-03T08:47:18Z</time>
      </trkpt>
      <trkpt lat="44.28847" lon="2.0174">
        <ele>430.2</ele>
        <time>2016-01-03T08:47:20Z</time>
      </trkpt>
      <trkpt lat="44.28851" lon="2.01741">
        <ele>430.4</ele>
        <time>2016-01-03T08:47:22Z</time>
      </trkpt>
      <trkpt lat="44.28856" lon="2.0174">
        <ele>430.6</ele>
        <time>2016-01-03T08:47:24Z</time>
      </trkpt>
      <trkpt lat="44.28861" lon="2.0174">
        <ele>430.7</ele>
        <time>2016-01-03T08:47:26Z</time>
      </trkpt>
      <trkpt lat="44.28866" lon="2.01741">
        <ele>430.9</ele>
        <time>2016-01-03T08:47:28Z</time>
      </trkpt>
      <trkpt lat="44.28871" lon="2.0174">
        <ele>431</ele>
        <time>2016-01-03T08:47:30Z</time>
      </trkpt>
      <trkpt lat="44.28875" lon="2.01741">
        <ele>431.2</ele>
        <time>2016-01-03T08:47:32Z</time>
      </trkpt>
      <trkpt lat="44.28879" lon="2.01741">
        <ele>431.3</ele>
        <time>2016-01-03T08:47:34Z</time>
      </trkpt>
      <trkpt lat="44.28884" lon="2.01741">
        <ele>431.5</ele>
        <time>2016-01-03T08:47:36Z</time>
      </trkpt>
      <trkpt lat="44.28888" lon="2.01741">
        <ele>431.6</ele>
        <time>2016-01-03T08:47:38Z</time>
      </trkpt>
      <trkpt lat="44.28892" lon="2.01741">
        <ele>431.8</ele>
        <time>2016-01-03T08:47:40Z</time>
      </trkpt>
      <trkpt lat="44.28895" lon="2.0174">
        <ele>431.9</ele>
        <time>2016-01-03T08:47:42Z</time>
      </trkpt>
      <trkpt lat="44.28899" lon="2.01739">
        <ele>432</ele>
        <time>2016-01-03T08:47:44Z</time>
      </trkpt>
      <trkpt lat="44.28902" lon="2.01739">
        <ele>432.1</ele>
        <time>2016-01-03T08:47:46Z</time>
      </trkpt>
      <trkpt lat="44.28907" lon="2.01739">
        <ele>432.2</ele>
        <time>2016-01-03T08:47:48Z</time>
      </trkpt>
      <trkpt lat="44.2891" lon="2.01739">
        <ele>432.4</ele>
        <time>2016-01-03T08:47:50Z</time>
      </trkpt>
      <trkpt lat="44.28913" lon="2.01742">
        <ele>432.6</ele>
        <time>2016-01-03T08:47:52Z</time>
      </trkpt>
      <trkpt lat="44.28914" lon="2.01746">
        <ele>432.8</ele>
        <time>2016-01-03T08:47:54Z</time>
      </trkpt>
      <trkpt lat="44.28916" lon="2.01749">
        <ele>432.9</ele>
        <time>2016-01-03T08:47:56Z</time>
      </trkpt>
      <trkpt lat="44.2892" lon="2.01752">
        <ele>433.2</ele>
        <time>2016-01-03T08:47:59Z</time>
      </trkpt>
      <trkpt lat="44.28922" lon="2.01749">
        <ele>433.2</ele>
        <time>2016-01-03T08:51:19Z</time>
      </trkpt>
      <trkpt lat="44.28922" lon="2.01754">
        <ele>433.3</ele>
        <time>2016-01-03T08:51:28Z</time>
      </trkpt>
      <trkpt lat="44.28922" lon="2.01758">
        <ele>433.5</ele>
        <time>2016-01-03T08:51:31Z</time>
      </trkpt>
      <trkpt lat="44.28921" lon="2.01761">
        <ele>433.6</ele>
        <time>2016-01-03T08:52:36Z</time>
      </trkpt>
      <trkpt lat="44.28921" lon="2.01766">
        <ele>433.7</ele>
        <time>2016-01-03T08:52:38Z</time>
      </trkpt>
      <trkpt lat="44.28921" lon="2.0177">
        <ele>433.9</ele>
        <time>2016-01-03T08:52:39Z</time>
      </trkpt>
      <trkpt lat="44.28922" lon="2.01774">
        <ele>434</ele>
        <time>2016-01-03T08:52:40Z</time>
      </trkpt>
      <trkpt lat="44.28922" lon="2.01779">
        <ele>434.2</ele>
        <time>2016-01-03T08:52:41Z</time>
      </trkpt>
      <trkpt lat="44.28922" lon="2.01787">
        <ele>434.5</ele>
        <time>2016-01-03T08:52:43Z</time>
      </trkpt>
      <trkpt lat="44.28923" lon="2.01791">
        <ele>434.7</ele>
        <time>2016-01-03T08:52:44Z</time>
      </trkpt>
      <trkpt lat="44.28924" lon="2.01799">
        <ele>434.7</ele>
        <time>2016-01-03T08:52:46Z</time>
      </trkpt>
      <trkpt lat="44.28924" lon="2.01803">
        <ele>434.6</ele>
        <time>2016-01-03T08:52:47Z</time>
      </trkpt>
      <trkpt lat="44.28926" lon="2.01807">
        <ele>434.6</ele>
        <time>2016-01-03T08:52:48Z</time>
      </trkpt>
      <trkpt lat="44.28928" lon="2.01811">
        <ele>434.7</ele>
        <time>2016-01-03T08:52:49Z</time>
      </trkpt>
      <trkpt lat="44.28931" lon="2.01815">
        <ele>434.7</ele>
        <time>2016-01-03T08:52:50Z</time>
      </trkpt>
      <trkpt lat="44.28935" lon="2.01818">
        <ele>434.8</ele>
        <time>2016-01-03T08:52:51Z</time>
      </trkpt>
      <trkpt lat="44.28939" lon="2.01821">
        <ele>435</ele>
        <time>2016-01-03T08:52:52Z</time>
      </trkpt>
      <trkpt lat="44.28943" lon="2.01824">
        <ele>435</ele>
        <time>2016-01-03T08:52:53Z</time>
      </trkpt>
      <trkpt lat="44.28945" lon="2.01825">
        <ele>435.1</ele>
        <time>2016-01-03T08:52:54Z</time>
      </trkpt>
      <trkpt lat="44.2895" lon="2.01826">
        <ele>435.3</ele>
        <time>2016-01-03T08:52:55Z</time>
      </trkpt>
      <trkpt lat="44.28955" lon="2.01828">
        <ele>435.4</ele>
        <time>2016-01-03T08:52:56Z</time>
      </trkpt>
      <trkpt lat="44.28961" lon="2.01829">
        <ele>435.4</ele>
        <time>2016-01-03T08:52:57Z</time>
      </trkpt>
      <trkpt lat="44.28968" lon="2.01831">
        <ele>434.8</ele>
        <time>2016-01-03T08:52:58Z</time>
      </trkpt>
      <trkpt lat="44.28976" lon="2.01832">
        <ele>434.2</ele>
        <time>2016-01-03T08:52:59Z</time>
      </trkpt>
      <trkpt lat="44.28984" lon="2.01833">
        <ele>433.7</ele>
        <time>2016-01-03T08:53:00Z</time>
      </trkpt>
      <trkpt lat="44.28992" lon="2.01835">
        <ele>433</ele>
        <time>2016-01-03T08:53:01Z</time>
      </trkpt>
      <trkpt lat="44.29001" lon="2.01838">
        <ele>432.4</ele>
        <time>2016-01-03T08:53:02Z</time>
      </trkpt>
      <trkpt lat="44.2901" lon="2.0184">
        <ele>431.7</ele>
        <time>2016-01-03T08:53:03Z</time>
      </trkpt>
      <trkpt lat="44.29019" lon="2.01842">
        <ele>431</ele>
        <time>2016-01-03T08:53:04Z</time>
      </trkpt>
      <trkpt lat="44.29027" lon="2.01844">
        <ele>430.4</ele>
        <time>2016-01-03T08:53:05Z</time>
      </trkpt>
      <trkpt lat="44.29034" lon="2.01846">
        <ele>429.9</ele>
        <time>2016-01-03T08:53:06Z</time>
      </trkpt>
      <trkpt lat="44.2904" lon="2.01848">
        <ele>429.5</ele>
        <time>2016-01-03T08:53:07Z</time>
      </trkpt>
      <trkpt lat="44.29044" lon="2.0185">
        <ele>428.7</ele>
        <time>2016-01-03T08:53:08Z</time>
      </trkpt>
      <trkpt lat="44.29047" lon="2.01853">
        <ele>428</ele>
        <time>2016-01-03T08:53:09Z</time>
      </trkpt>
      <trkpt lat="44.2905" lon="2.01851">
        <ele>427.4</ele>
        <time>2016-01-03T08:53:10Z</time>
      </trkpt>
      <trkpt lat="44.29049" lon="2.01856">
        <ele>427.6</ele>
        <time>2016-01-03T08:53:11Z</time>
      </trkpt>
      <trkpt lat="44.29048" lon="2.01864">
        <ele>427.7</ele>
        <time>2016-01-03T08:53:12Z</time>
      </trkpt>
      <trkpt lat="44.29047" lon="2.01872">
        <ele>427.9</ele>
        <time>2016-01-03T08:53:13Z</time>
      </trkpt>
      <trkpt lat="44.29046" lon="2.01882">
        <ele>427.7</ele>
        <time>2016-01-03T08:53:14Z</time>
      </trkpt>
      <trkpt lat="44.29045" lon="2.01895">
        <ele>427</ele>
        <time>2016-01-03T08:53:15Z</time>
      </trkpt>
      <trkpt lat="44.29043" lon="2.01905">
        <ele>426.5</ele>
        <time>2016-01-03T08:53:16Z</time>
      </trkpt>
      <trkpt lat="44.29042" lon="2.01916">
        <ele>426</ele>
        <time>2016-01-03T08:53:17Z</time>
      </trkpt>
      <trkpt lat="44.2904" lon="2.01927">
        <ele>425.4</ele>
        <time>2016-01-03T08:53:18Z</time>
      </trkpt>
      <trkpt lat="44.29037" lon="2.01938">
        <ele>424.8</ele>
        <time>2016-01-03T08:53:19Z</time>
      </trkpt>
      <trkpt lat="44.29034" lon="2.01948">
        <ele>424.3</ele>
        <time>2016-01-03T08:53:20Z</time>
      </trkpt>
      <trkpt lat="44.29029" lon="2.01956">
        <ele>423.9</ele>
        <time>2016-01-03T08:53:21Z</time>
      </trkpt>
      <trkpt lat="44.29026" lon="2.01962">
        <ele>423.5</ele>
        <time>2016-01-03T08:53:22Z</time>
      </trkpt>
      <trkpt lat="44.29025" lon="2.01968">
        <ele>422.9</ele>
        <time>2016-01-03T08:53:23Z</time>
      </trkpt>
      <trkpt lat="44.29024" lon="2.01972">
        <ele>422.4</ele>
        <time>2016-01-03T08:53:24Z</time>
      </trkpt>
      <trkpt lat="44.29026" lon="2.01977">
        <ele>421.8</ele>
        <time>2016-01-03T08:53:25Z</time>
      </trkpt>
      <trkpt lat="44.29028" lon="2.01983">
        <ele>421</ele>
        <time>2016-01-03T08:53:26Z</time>
      </trkpt>
      <trkpt lat="44.29033" lon="2.0199">
        <ele>420</ele>
        <time>2016-01-03T08:53:27Z</time>
      </trkpt>
      <trkpt lat="44.29037" lon="2.01997">
        <ele>419</ele>
        <time>2016-01-03T08:53:28Z</time>
      </trkpt>
      <trkpt lat="44.2904" lon="2.02004">
        <ele>418.1</ele>
        <time>2016-01-03T08:53:29Z</time>
      </trkpt>
      <trkpt lat="44.29044" lon="2.02013">
        <ele>416.9</ele>
        <time>2016-01-03T08:53:30Z</time>
      </trkpt>
      <trkpt lat="44.29047" lon="2.02021">
        <ele>415.7</ele>
        <time>2016-01-03T08:53:31Z</time>
      </trkpt>
      <trkpt lat="44.29051" lon="2.02025">
        <ele>414.8</ele>
        <time>2016-01-03T08:53:32Z</time>
      </trkpt>
      <trkpt lat="44.29056" lon="2.02027">
        <ele>414.1</ele>
        <time>2016-01-03T08:53:33Z</time>
      </trkpt>
      <trkpt lat="44.29062" lon="2.02027">
        <ele>413.5</ele>
        <time>2016-01-03T08:53:34Z</time>
      </trkpt>
      <trkpt lat="44.29068" lon="2.02025">
        <ele>413.1</ele>
        <time>2016-01-03T08:53:35Z</time>
      </trkpt>
      <trkpt lat="44.29074" lon="2.02024">
        <ele>412.6</ele>
        <time>2016-01-03T08:53:36Z</time>
      </trkpt>
      <trkpt lat="44.2908" lon="2.02022">
        <ele>412.2</ele>
        <time>2016-01-03T08:53:37Z</time>
      </trkpt>
      <trkpt lat="44.29086" lon="2.0202">
        <ele>411.7</ele>
        <time>2016-01-03T08:53:38Z</time>
      </trkpt>
      <trkpt lat="44.29092" lon="2.02017">
        <ele>411.3</ele>
        <time>2016-01-03T08:53:39Z</time>
      </trkpt>
      <trkpt lat="44.29099" lon="2.02017">
        <ele>410.5</ele>
        <time>2016-01-03T08:53:40Z</time>
      </trkpt>
      <trkpt lat="44.29106" lon="2.02016">
        <ele>409.9</ele>
        <time>2016-01-03T08:53:41Z</time>
      </trkpt>
      <trkpt lat="44.29113" lon="2.02014">
        <ele>409.3</ele>
        <time>2016-01-03T08:53:42Z</time>
      </trkpt>
      <trkpt lat="44.2912" lon="2.02013">
        <ele>408.6</ele>
        <time>2016-01-03T08:53:43Z</time>
      </trkpt>
      <trkpt lat="44.29127" lon="2.02014">
        <ele>407.8</ele>
        <time>2016-01-03T08:53:44Z</time>
      </trkpt>
      <trkpt lat="44.29133" lon="2.02015">
        <ele>406.8</ele>
        <time>2016-01-03T08:53:45Z</time>
      </trkpt>
      <trkpt lat="44.2914" lon="2.02017">
        <ele>405.9</ele>
        <time>2016-01-03T08:53:46Z</time>
      </trkpt>
      <trkpt lat="44.29147" lon="2.02021">
        <ele>404.8</ele>
        <time>2016-01-03T08:53:47Z</time>
      </trkpt>
      <trkpt lat="44.29153" lon="2.02025">
        <ele>403.9</ele>
        <time>2016-01-03T08:53:48Z</time>
      </trkpt>
      <trkpt lat="44.2916" lon="2.0203">
        <ele>403</ele>
        <time>2016-01-03T08:53:49Z</time>
      </trkpt>
      <trkpt lat="44.29166" lon="2.02035">
        <ele>402.2</ele>
        <time>2016-01-03T08:53:50Z</time>
      </trkpt>
      <trkpt lat="44.29172" lon="2.02039">
        <ele>401.5</ele>
        <time>2016-01-03T08:53:51Z</time>
      </trkpt>
      <trkpt lat="44.29178" lon="2.02044">
        <ele>400.8</ele>
        <time>2016-01-03T08:53:52Z</time>
      </trkpt>
      <trkpt lat="44.29184" lon="2.0205">
        <ele>400</ele>
        <time>2016-01-03T08:53:53Z</time>
      </trkpt>
      <trkpt lat="44.29189" lon="2.02054">
        <ele>399.4</ele>
        <time>2016-01-03T08:53:54Z</time>
      </trkpt>
      <trkpt lat="44.29194" lon="2.02059">
        <ele>398.9</ele>
        <time>2016-01-03T08:53:55Z</time>
      </trkpt>
      <trkpt lat="44.29199" lon="2.02064">
        <ele>398.4</ele>
        <time>2016-01-03T08:53:56Z</time>
      </trkpt>
      <trkpt lat="44.29204" lon="2.02068">
        <ele>398</ele>
        <time>2016-01-03T08:53:57Z</time>
      </trkpt>
      <trkpt lat="44.29208" lon="2.02072">
        <ele>397.6</ele>
        <time>2016-01-03T08:53:58Z</time>
      </trkpt>
      <trkpt lat="44.29213" lon="2.02075">
        <ele>397.5</ele>
        <time>2016-01-03T08:53:59Z</time>
      </trkpt>
      <trkpt lat="44.29217" lon="2.02078">
        <ele>397.4</ele>
        <time>2016-01-03T08:54:00Z</time>
      </trkpt>
      <trkpt lat="44.29221" lon="2.02081">
        <ele>397.3</ele>
        <time>2016-01-03T08:54:01Z</time>
      </trkpt>
      <trkpt lat="44.29225" lon="2.02084">
        <ele>397.3</ele>
        <time>2016-01-03T08:54:02Z</time>
      </trkpt>
      <trkpt lat="44.29228" lon="2.02087">
        <ele>397.3</ele>
        <time>2016-01-03T08:54:03Z</time>
      </trkpt>
      <trkpt lat="44.29232" lon="2.0209">
        <ele>397.3</ele>
        <time>2016-01-03T08:54:04Z</time>
      </trkpt>
      <trkpt lat="44.29235" lon="2.02093">
        <ele>397.4</ele>
        <time>2016-01-03T08:54:05Z</time>
      </trkpt>
      <trkpt lat="44.29238" lon="2.02096">
        <ele>397.4</ele>
        <time>2016-01-03T08:54:06Z</time>
      </trkpt>
      <trkpt lat="44.2924" lon="2.02098">
        <ele>397.5</ele>
        <time>2016-01-03T08:54:07Z</time>
      </trkpt>
      <trkpt lat="44.29243" lon="2.021">
        <ele>397.6</ele>
        <time>2016-01-03T08:54:08Z</time>
      </trkpt>
      <trkpt lat="44.29245" lon="2.02103">
        <ele>397.7</ele>
        <time>2016-01-03T08:54:09Z</time>
      </trkpt>
      <trkpt lat="44.29248" lon="2.02106">
        <ele>397.8</ele>
        <time>2016-01-03T08:54:10Z</time>
      </trkpt>
      <trkpt lat="44.2925" lon="2.02108">
        <ele>397.9</ele>
        <time>2016-01-03T08:54:11Z</time>
      </trkpt>
      <trkpt lat="44.29253" lon="2.02111">
        <ele>398</ele>
        <time>2016-01-03T08:54:12Z</time>
      </trkpt>
      <trkpt lat="44.29255" lon="2.02113">
        <ele>398.2</ele>
        <time>2016-01-03T08:54:13Z</time>
      </trkpt>
      <trkpt lat="44.29257" lon="2.02116">
        <ele>398.4</ele>
        <time>2016-01-03T08:54:14Z</time>
      </trkpt>
      <trkpt lat="44.29259" lon="2.02118">
        <ele>398.5</ele>
        <time>2016-01-03T08:54:15Z</time>
      </trkpt>
      <trkpt lat="44.29263" lon="2.02122">
        <ele>398.8</ele>
        <time>2016-01-03T08:54:17Z</time>
      </trkpt>
      <trkpt lat="44.29267" lon="2.02127">
        <ele>399.2</ele>
        <time>2016-01-03T08:54:19Z</time>
      </trkpt>
      <trkpt lat="44.29269" lon="2.0213">
        <ele>399.4</ele>
        <time>2016-01-03T08:54:20Z</time>
      </trkpt>
      <trkpt lat="44.29271" lon="2.02133">
        <ele>399.6</ele>
        <time>2016-01-03T08:54:21Z</time>
      </trkpt>
      <trkpt lat="44.29273" lon="2.02136">
        <ele>399.8</ele>
        <time>2016-01-03T08:54:22Z</time>
      </trkpt>
      <trkpt lat="44.29275" lon="2.02138">
        <ele>400</ele>
        <time>2016-01-03T08:54:23Z</time>
      </trkpt>
      <trkpt lat="44.29279" lon="2.02143">
        <ele>400.4</ele>
        <time>2016-01-03T08:54:25Z</time>
      </trkpt>
      <trkpt lat="44.29283" lon="2.02147">
        <ele>400.8</ele>
        <time>2016-01-03T08:54:27Z</time>
      </trkpt>
      <trkpt lat="44.29285" lon="2.0215">
        <ele>401.1</ele>
        <time>2016-01-03T08:54:28Z</time>
      </trkpt>
      <trkpt lat="44.29287" lon="2.02153">
        <ele>401.4</ele>
        <time>2016-01-03T08:54:29Z</time>
      </trkpt>
      <trkpt lat="44.29289" lon="2.02157">
        <ele>401.7</ele>
        <time>2016-01-03T08:54:30Z</time>
      </trkpt>
      <trkpt lat="44.29291" lon="2.02161">
        <ele>402.1</ele>
        <time>2016-01-03T08:54:31Z</time>
      </trkpt>
      <trkpt lat="44.29294" lon="2.02164">
        <ele>402.4</ele>
        <time>2016-01-03T08:54:32Z</time>
      </trkpt>
      <trkpt lat="44.29296" lon="2.02168">
        <ele>402.6</ele>
        <time>2016-01-03T08:54:33Z</time>
      </trkpt>
      <trkpt lat="44.29298" lon="2.02171">
        <ele>402.8</ele>
        <time>2016-01-03T08:54:34Z</time>
      </trkpt>
      <trkpt lat="44.29302" lon="2.02175">
        <ele>403</ele>
        <time>2016-01-03T08:54:35Z</time>
      </trkpt>
      <trkpt lat="44.29304" lon="2.02179">
        <ele>403.3</ele>
        <time>2016-01-03T08:54:36Z</time>
      </trkpt>
      <trkpt lat="44.29306" lon="2.02183">
        <ele>403.6</ele>
        <time>2016-01-03T08:54:37Z</time>
      </trkpt>
      <trkpt lat="44.29309" lon="2.02186">
        <ele>403.8</ele>
        <time>2016-01-03T08:54:38Z</time>
      </trkpt>
      <trkpt lat="44.29311" lon="2.0219">
        <ele>404.1</ele>
        <time>2016-01-03T08:54:39Z</time>
      </trkpt>
      <trkpt lat="44.29314" lon="2.02194">
        <ele>404.3</ele>
        <time>2016-01-03T08:54:40Z</time>
      </trkpt>
      <trkpt lat="44.29316" lon="2.02198">
        <ele>404.6</ele>
        <time>2016-01-03T08:54:41Z</time>
      </trkpt>
      <trkpt lat="44.29319" lon="2.02202">
        <ele>404.9</ele>
        <time>2016-01-03T08:54:42Z</time>
      </trkpt>
      <trkpt lat="44.29321" lon="2.02205">
        <ele>405.1</ele>
        <time>2016-01-03T08:54:43Z</time>
      </trkpt>
      <trkpt lat="44.29323" lon="2.02209">
        <ele>405.4</ele>
        <time>2016-01-03T08:54:44Z</time>
      </trkpt>
      <trkpt lat="44.29326" lon="2.02212">
        <ele>405.4</ele>
        <time>2016-01-03T08:54:45Z</time>
      </trkpt>
      <trkpt lat="44.29328" lon="2.02216">
        <ele>405.4</ele>
        <time>2016-01-03T08:54:46Z</time>
      </trkpt>
      <trkpt lat="44.2933" lon="2.02221">
        <ele>405.5</ele>
        <time>2016-01-03T08:54:47Z</time>
      </trkpt>
      <trkpt lat="44.29331" lon="2.02224">
        <ele>405.5</ele>
        <time>2016-01-03T08:54:48Z</time>
      </trkpt>
      <trkpt lat="44.29333" lon="2.02228">
        <ele>405.5</ele>
        <time>2016-01-03T08:54:49Z</time>
      </trkpt>
      <trkpt lat="44.29335" lon="2.02231">
        <ele>405.5</ele>
        <time>2016-01-03T08:54:50Z</time>
      </trkpt>
      <trkpt lat="44.29337" lon="2.02234">
        <ele>405.5</ele>
        <time>2016-01-03T08:54:51Z</time>
      </trkpt>
      <trkpt lat="44.2934" lon="2.02237">
        <ele>405.6</ele>
        <time>2016-01-03T08:54:52Z</time>
      </trkpt>
      <trkpt lat="44.29343" lon="2.0224">
        <ele>405.6</ele>
        <time>2016-01-03T08:54:53Z</time>
      </trkpt>
      <trkpt lat="44.29345" lon="2.02245">
        <ele>405.6</ele>
        <time>2016-01-03T08:54:55Z</time>
      </trkpt>
      <trkpt lat="44.29347" lon="2.02248">
        <ele>405.7</ele>
        <time>2016-01-03T08:54:56Z</time>
      </trkpt>
      <trkpt lat="44.2935" lon="2.02251">
        <ele>405.7</ele>
        <time>2016-01-03T08:54:57Z</time>
      </trkpt>
      <trkpt lat="44.29352" lon="2.02253">
        <ele>405.7</ele>
        <time>2016-01-03T08:54:58Z</time>
      </trkpt>
      <trkpt lat="44.29356" lon="2.02257">
        <ele>405.8</ele>
        <time>2016-01-03T08:55:00Z</time>
      </trkpt>
      <trkpt lat="44.29359" lon="2.02263">
        <ele>405.8</ele>
        <time>2016-01-03T08:55:02Z</time>
      </trkpt>
      <trkpt lat="44.29362" lon="2.02265">
        <ele>405.8</ele>
        <time>2016-01-03T08:55:03Z</time>
      </trkpt>
      <trkpt lat="44.29367" lon="2.02265">
        <ele>405.9</ele>
        <time>2016-01-03T08:55:05Z</time>
      </trkpt>
      <trkpt lat="44.2937" lon="2.02264">
        <ele>405.9</ele>
        <time>2016-01-03T08:55:06Z</time>
      </trkpt>
      <trkpt lat="44.29372" lon="2.0226">
        <ele>406</ele>
        <time>2016-01-03T08:55:07Z</time>
      </trkpt>
      <trkpt lat="44.29374" lon="2.02257">
        <ele>406</ele>
        <time>2016-01-03T08:55:08Z</time>
      </trkpt>
      <trkpt lat="44.29376" lon="2.02254">
        <ele>406.1</ele>
        <time>2016-01-03T08:55:09Z</time>
      </trkpt>
      <trkpt lat="44.29379" lon="2.0225">
        <ele>406.2</ele>
        <time>2016-01-03T08:55:10Z</time>
      </trkpt>
      <trkpt lat="44.29382" lon="2.02245">
        <ele>406.3</ele>
        <time>2016-01-03T08:55:11Z</time>
      </trkpt>
      <trkpt lat="44.29384" lon="2.02242">
        <ele>406.4</ele>
        <time>2016-01-03T08:55:12Z</time>
      </trkpt>
      <trkpt lat="44.29386" lon="2.02239">
        <ele>406.5</ele>
        <time>2016-01-03T08:55:13Z</time>
      </trkpt>
      <trkpt lat="44.29388" lon="2.02236">
        <ele>406.6</ele>
        <time>2016-01-03T08:55:14Z</time>
      </trkpt>
      <trkpt lat="44.2939" lon="2.02232">
        <ele>406.6</ele>
        <time>2016-01-03T08:55:15Z</time>
      </trkpt>
      <trkpt lat="44.29392" lon="2.02228">
        <ele>406.7</ele>
        <time>2016-01-03T08:55:16Z</time>
      </trkpt>
      <trkpt lat="44.29395" lon="2.02223">
        <ele>406.8</ele>
        <time>2016-01-03T08:55:17Z</time>
      </trkpt>
      <trkpt lat="44.29397" lon="2.02219">
        <ele>406.8</ele>
        <time>2016-01-03T08:55:18Z</time>
      </trkpt>
      <trkpt lat="44.29399" lon="2.02214">
        <ele>406.9</ele>
        <time>2016-01-03T08:55:19Z</time>
      </trkpt>
      <trkpt lat="44.29402" lon="2.02209">
        <ele>407</ele>
        <time>2016-01-03T08:55:20Z</time>
      </trkpt>
      <trkpt lat="44.29405" lon="2.02203">
        <ele>406.8</ele>
        <time>2016-01-03T08:55:21Z</time>
      </trkpt>
      <trkpt lat="44.29408" lon="2.02199">
        <ele>406.7</ele>
        <time>2016-01-03T08:55:22Z</time>
      </trkpt>
      <trkpt lat="44.29411" lon="2.02195">
        <ele>406.7</ele>
        <time>2016-01-03T08:55:23Z</time>
      </trkpt>
      <trkpt lat="44.29414" lon="2.02189">
        <ele>406.5</ele>
        <time>2016-01-03T08:55:24Z</time>
      </trkpt>
      <trkpt lat="44.29417" lon="2.02184">
        <ele>406.5</ele>
        <time>2016-01-03T08:55:25Z</time>
      </trkpt>
      <trkpt lat="44.29422" lon="2.02179">
        <ele>406.6</ele>
        <time>2016-01-03T08:55:26Z</time>
      </trkpt>
      <trkpt lat="44.29426" lon="2.02176">
        <ele>406.7</ele>
        <time>2016-01-03T08:55:27Z</time>
      </trkpt>
      <trkpt lat="44.29431" lon="2.02173">
        <ele>406.9</ele>
        <time>2016-01-03T08:55:28Z</time>
      </trkpt>
      <trkpt lat="44.29436" lon="2.02169">
        <ele>407.1</ele>
        <time>2016-01-03T08:55:29Z</time>
      </trkpt>
      <trkpt lat="44.2944" lon="2.02166">
        <ele>407.3</ele>
        <time>2016-01-03T08:55:30Z</time>
      </trkpt>
      <trkpt lat="44.29445" lon="2.02162">
        <ele>407.5</ele>
        <time>2016-01-03T08:55:31Z</time>
      </trkpt>
      <trkpt lat="44.2945" lon="2.02159">
        <ele>407.8</ele>
        <time>2016-01-03T08:55:32Z</time>
      </trkpt>
      <trkpt lat="44.29454" lon="2.02154">
        <ele>408</ele>
        <time>2016-01-03T08:55:33Z</time>
      </trkpt>
      <trkpt lat="44.29457" lon="2.02149">
        <ele>408.2</ele>
        <time>2016-01-03T08:55:34Z</time>
      </trkpt>
      <trkpt lat="44.2946" lon="2.02144">
        <ele>408.3</ele>
        <time>2016-01-03T08:55:35Z</time>
      </trkpt>
      <trkpt lat="44.29465" lon="2.02139">
        <ele>408.4</ele>
        <time>2016-01-03T08:55:36Z</time>
      </trkpt>
      <trkpt lat="44.29467" lon="2.02134">
        <ele>408.4</ele>
        <time>2016-01-03T08:55:37Z</time>
      </trkpt>
      <trkpt lat="44.29471" lon="2.02129">
        <ele>408.5</ele>
        <time>2016-01-03T08:55:38Z</time>
      </trkpt>
      <trkpt lat="44.29474" lon="2.02122">
        <ele>408.5</ele>
        <time>2016-01-03T08:55:39Z</time>
      </trkpt>
      <trkpt lat="44.29478" lon="2.02115">
        <ele>408.6</ele>
        <time>2016-01-03T08:55:40Z</time>
      </trkpt>
      <trkpt lat="44.29481" lon="2.0211">
        <ele>408.7</ele>
        <time>2016-01-03T08:55:41Z</time>
      </trkpt>
      <trkpt lat="44.29483" lon="2.02105">
        <ele>408.7</ele>
        <time>2016-01-03T08:55:42Z</time>
      </trkpt>
      <trkpt lat="44.29485" lon="2.02101">
        <ele>408.7</ele>
        <time>2016-01-03T08:55:43Z</time>
      </trkpt>
      <trkpt lat="44.29487" lon="2.02096">
        <ele>408.7</ele>
        <time>2016-01-03T08:55:44Z</time>
      </trkpt>
      <trkpt lat="44.29489" lon="2.02091">
        <ele>408.7</ele>
        <time>2016-01-03T08:55:45Z</time>
      </trkpt>
      <trkpt lat="44.29491" lon="2.02087">
        <ele>408.6</ele>
        <time>2016-01-03T08:55:46Z</time>
      </trkpt>
      <trkpt lat="44.29494" lon="2.02084">
        <ele>408.6</ele>
        <time>2016-01-03T08:55:47Z</time>
      </trkpt>
      <trkpt lat="44.29496" lon="2.0208">
        <ele>408.6</ele>
        <time>2016-01-03T08:55:48Z</time>
      </trkpt>
      <trkpt lat="44.29498" lon="2.02076">
        <ele>408.6</ele>
        <time>2016-01-03T08:55:49Z</time>
      </trkpt>
      <trkpt lat="44.29501" lon="2.02071">
        <ele>408.5</ele>
        <time>2016-01-03T08:55:50Z</time>
      </trkpt>
      <trkpt lat="44.29503" lon="2.02069">
        <ele>408.5</ele>
        <time>2016-01-03T08:55:51Z</time>
      </trkpt>
      <trkpt lat="44.29508" lon="2.02065">
        <ele>408.5</ele>
        <time>2016-01-03T08:55:53Z</time>
      </trkpt>
      <trkpt lat="44.29512" lon="2.02063">
        <ele>408.5</ele>
        <time>2016-01-03T08:55:54Z</time>
      </trkpt>
      <trkpt lat="44.29516" lon="2.0206">
        <ele>408.5</ele>
        <time>2016-01-03T08:55:55Z</time>
      </trkpt>
      <trkpt lat="44.29521" lon="2.02059">
        <ele>408.5</ele>
        <time>2016-01-03T08:55:56Z</time>
      </trkpt>
      <trkpt lat="44.29526" lon="2.02056">
        <ele>408.4</ele>
        <time>2016-01-03T08:55:57Z</time>
      </trkpt>
      <trkpt lat="44.29531" lon="2.02053">
        <ele>408.4</ele>
        <time>2016-01-03T08:55:58Z</time>
      </trkpt>
      <trkpt lat="44.29535" lon="2.0205">
        <ele>408.3</ele>
        <time>2016-01-03T08:55:59Z</time>
      </trkpt>
      <trkpt lat="44.2954" lon="2.02046">
        <ele>408.2</ele>
        <time>2016-01-03T08:56:00Z</time>
      </trkpt>
      <trkpt lat="44.29546" lon="2.02043">
        <ele>407.8</ele>
        <time>2016-01-03T08:56:01Z</time>
      </trkpt>
      <trkpt lat="44.29552" lon="2.02038">
        <ele>407.1</ele>
        <time>2016-01-03T08:56:02Z</time>
      </trkpt>
      <trkpt lat="44.29559" lon="2.02033">
        <ele>406.4</ele>
        <time>2016-01-03T08:56:03Z</time>
      </trkpt>
      <trkpt lat="44.29566" lon="2.02028">
        <ele>405.6</ele>
        <time>2016-01-03T08:56:04Z</time>
      </trkpt>
      <trkpt lat="44.29575" lon="2.02021">
        <ele>404.6</ele>
        <time>2016-01-03T08:56:05Z</time>
      </trkpt>
      <trkpt lat="44.29584" lon="2.02011">
        <ele>403.2</ele>
        <time>2016-01-03T08:56:06Z</time>
      </trkpt>
      <trkpt lat="44.29593" lon="2.02002">
        <ele>402</ele>
        <time>2016-01-03T08:56:07Z</time>
      </trkpt>
      <trkpt lat="44.29602" lon="2.01995">
        <ele>400.8</ele>
        <time>2016-01-03T08:56:08Z</time>
      </trkpt>
      <trkpt lat="44.29611" lon="2.01987">
        <ele>399.5</ele>
        <time>2016-01-03T08:56:09Z</time>
      </trkpt>
      <trkpt lat="44.29621" lon="2.0198">
        <ele>398.1</ele>
        <time>2016-01-03T08:56:10Z</time>
      </trkpt>
      <trkpt lat="44.29631" lon="2.01972">
        <ele>396.4</ele>
        <time>2016-01-03T08:56:11Z</time>
      </trkpt>
      <trkpt lat="44.29641" lon="2.01964">
        <ele>394.5</ele>
        <time>2016-01-03T08:56:12Z</time>
      </trkpt>
      <trkpt lat="44.2965" lon="2.01959">
        <ele>392.9</ele>
        <time>2016-01-03T08:56:13Z</time>
      </trkpt>
      <trkpt lat="44.29657" lon="2.01956">
        <ele>391.3</ele>
        <time>2016-01-03T08:56:14Z</time>
      </trkpt>
      <trkpt lat="44.29664" lon="2.01953">
        <ele>389.8</ele>
        <time>2016-01-03T08:56:15Z</time>
      </trkpt>
      <trkpt lat="44.29672" lon="2.01953">
        <ele>388.7</ele>
        <time>2016-01-03T08:56:16Z</time>
      </trkpt>
      <trkpt lat="44.2968" lon="2.01954">
        <ele>387.7</ele>
        <time>2016-01-03T08:56:17Z</time>
      </trkpt>
      <trkpt lat="44.29687" lon="2.01954">
        <ele>386.8</ele>
        <time>2016-01-03T08:56:18Z</time>
      </trkpt>
      <trkpt lat="44.29693" lon="2.01957">
        <ele>386.6</ele>
        <time>2016-01-03T08:56:19Z</time>
      </trkpt>
      <trkpt lat="44.29698" lon="2.01961">
        <ele>386.8</ele>
        <time>2016-01-03T08:56:20Z</time>
      </trkpt>
      <trkpt lat="44.29702" lon="2.01967">
        <ele>387.3</ele>
        <time>2016-01-03T08:56:21Z</time>
      </trkpt>
      <trkpt lat="44.29706" lon="2.01972">
        <ele>388</ele>
        <time>2016-01-03T08:56:22Z</time>
      </trkpt>
      <trkpt lat="44.29707" lon="2.0198">
        <ele>389.2</ele>
        <time>2016-01-03T08:56:23Z</time>
      </trkpt>
      <trkpt lat="44.29709" lon="2.01987">
        <ele>390.3</ele>
        <time>2016-01-03T08:56:24Z</time>
      </trkpt>
      <trkpt lat="44.29711" lon="2.01996">
        <ele>391.7</ele>
        <time>2016-01-03T08:56:25Z</time>
      </trkpt>
      <trkpt lat="44.29711" lon="2.02004">
        <ele>393.1</ele>
        <time>2016-01-03T08:56:26Z</time>
      </trkpt>
      <trkpt lat="44.29713" lon="2.02012">
        <ele>394</ele>
        <time>2016-01-03T08:56:27Z</time>
      </trkpt>
      <trkpt lat="44.29715" lon="2.02016">
        <ele>394.5</ele>
        <time>2016-01-03T08:56:28Z</time>
      </trkpt>
      <trkpt lat="44.29719" lon="2.02021">
        <ele>394.5</ele>
        <time>2016-01-03T08:56:29Z</time>
      </trkpt>
      <trkpt lat="44.29723" lon="2.02025">
        <ele>394.3</ele>
        <time>2016-01-03T08:56:30Z</time>
      </trkpt>
      <trkpt lat="44.29727" lon="2.02029">
        <ele>394.1</ele>
        <time>2016-01-03T08:56:31Z</time>
      </trkpt>
      <trkpt lat="44.29732" lon="2.02035">
        <ele>393.9</ele>
        <time>2016-01-03T08:56:32Z</time>
      </trkpt>
      <trkpt lat="44.29737" lon="2.02041">
        <ele>393.6</ele>
        <time>2016-01-03T08:56:33Z</time>
      </trkpt>
      <trkpt lat="44.29741" lon="2.02045">
        <ele>393.3</ele>
        <time>2016-01-03T08:56:34Z</time>
      </trkpt>
      <trkpt lat="44.29746" lon="2.0205">
        <ele>392.9</ele>
        <time>2016-01-03T08:56:35Z</time>
      </trkpt>
      <trkpt lat="44.29751" lon="2.02056">
        <ele>392.7</ele>
        <time>2016-01-03T08:56:36Z</time>
      </trkpt>
      <trkpt lat="44.29758" lon="2.02063">
        <ele>392.3</ele>
        <time>2016-01-03T08:56:37Z</time>
      </trkpt>
      <trkpt lat="44.29763" lon="2.02069">
        <ele>392</ele>
        <time>2016-01-03T08:56:38Z</time>
      </trkpt>
      <trkpt lat="44.29767" lon="2.02073">
        <ele>391.8</ele>
        <time>2016-01-03T08:56:39Z</time>
      </trkpt>
      <trkpt lat="44.29772" lon="2.02078">
        <ele>391.7</ele>
        <time>2016-01-03T08:56:40Z</time>
      </trkpt>
      <trkpt lat="44.29776" lon="2.02084">
        <ele>391.6</ele>
        <time>2016-01-03T08:56:41Z</time>
      </trkpt>
      <trkpt lat="44.2978" lon="2.02089">
        <ele>391.6</ele>
        <time>2016-01-03T08:56:42Z</time>
      </trkpt>
      <trkpt lat="44.29787" lon="2.02095">
        <ele>391.3</ele>
        <time>2016-01-03T08:56:43Z</time>
      </trkpt>
      <trkpt lat="44.29793" lon="2.02099">
        <ele>390.7</ele>
        <time>2016-01-03T08:56:44Z</time>
      </trkpt>
      <trkpt lat="44.298" lon="2.02102">
        <ele>390.1</ele>
        <time>2016-01-03T08:56:45Z</time>
      </trkpt>
      <trkpt lat="44.29807" lon="2.02105">
        <ele>389.4</ele>
        <time>2016-01-03T08:56:46Z</time>
      </trkpt>
      <trkpt lat="44.29814" lon="2.02108">
        <ele>388.7</ele>
        <time>2016-01-03T08:56:47Z</time>
      </trkpt>
      <trkpt lat="44.29822" lon="2.02111">
        <ele>387.8</ele>
        <time>2016-01-03T08:56:48Z</time>
      </trkpt>
      <trkpt lat="44.29828" lon="2.02112">
        <ele>386.9</ele>
        <time>2016-01-03T08:56:49Z</time>
      </trkpt>
      <trkpt lat="44.29834" lon="2.02113">
        <ele>386.2</ele>
        <time>2016-01-03T08:56:50Z</time>
      </trkpt>
      <trkpt lat="44.2984" lon="2.02112">
        <ele>384.9</ele>
        <time>2016-01-03T08:56:51Z</time>
      </trkpt>
      <trkpt lat="44.29846" lon="2.0211">
        <ele>383.4</ele>
        <time>2016-01-03T08:56:52Z</time>
      </trkpt>
      <trkpt lat="44.29853" lon="2.02109">
        <ele>381.8</ele>
        <time>2016-01-03T08:56:53Z</time>
      </trkpt>
      <trkpt lat="44.29861" lon="2.02108">
        <ele>380.1</ele>
        <time>2016-01-03T08:56:54Z</time>
      </trkpt>
      <trkpt lat="44.29869" lon="2.02108">
        <ele>378.5</ele>
        <time>2016-01-03T08:56:55Z</time>
      </trkpt>
      <trkpt lat="44.29877" lon="2.02108">
        <ele>377.5</ele>
        <time>2016-01-03T08:56:56Z</time>
      </trkpt>
      <trkpt lat="44.29885" lon="2.02108">
        <ele>377.4</ele>
        <time>2016-01-03T08:56:57Z</time>
      </trkpt>
      <trkpt lat="44.29892" lon="2.0211">
        <ele>377.9</ele>
        <time>2016-01-03T08:56:58Z</time>
      </trkpt>
      <trkpt lat="44.29899" lon="2.0211">
        <ele>377.9</ele>
        <time>2016-01-03T08:56:59Z</time>
      </trkpt>
      <trkpt lat="44.29906" lon="2.02111">
        <ele>378.3</ele>
        <time>2016-01-03T08:57:00Z</time>
      </trkpt>
      <trkpt lat="44.29913" lon="2.02112">
        <ele>378.4</ele>
        <time>2016-01-03T08:57:01Z</time>
      </trkpt>
      <trkpt lat="44.29919" lon="2.0211">
        <ele>377.7</ele>
        <time>2016-01-03T08:57:02Z</time>
      </trkpt>
      <trkpt lat="44.29925" lon="2.02107">
        <ele>376.7</ele>
        <time>2016-01-03T08:57:03Z</time>
      </trkpt>
      <trkpt lat="44.29931" lon="2.02103">
        <ele>375.5</ele>
        <time>2016-01-03T08:57:04Z</time>
      </trkpt>
      <trkpt lat="44.29936" lon="2.02097">
        <ele>373.5</ele>
        <time>2016-01-03T08:57:05Z</time>
      </trkpt>
      <trkpt lat="44.29942" lon="2.02092">
        <ele>372</ele>
        <time>2016-01-03T08:57:06Z</time>
      </trkpt>
      <trkpt lat="44.2995" lon="2.02085">
        <ele>369.9</ele>
        <time>2016-01-03T08:57:07Z</time>
      </trkpt>
      <trkpt lat="44.29956" lon="2.02079">
        <ele>368.3</ele>
        <time>2016-01-03T08:57:08Z</time>
      </trkpt>
      <trkpt lat="44.29962" lon="2.02075">
        <ele>367.5</ele>
        <time>2016-01-03T08:57:09Z</time>
      </trkpt>
      <trkpt lat="44.29967" lon="2.02071">
        <ele>367</ele>
        <time>2016-01-03T08:57:10Z</time>
      </trkpt>
      <trkpt lat="44.29972" lon="2.02067">
        <ele>366.4</ele>
        <time>2016-01-03T08:57:11Z</time>
      </trkpt>
      <trkpt lat="44.29977" lon="2.02059">
        <ele>364.9</ele>
        <time>2016-01-03T08:57:12Z</time>
      </trkpt>
      <trkpt lat="44.29982" lon="2.02056">
        <ele>364.5</ele>
        <time>2016-01-03T08:57:13Z</time>
      </trkpt>
      <trkpt lat="44.29985" lon="2.02052">
        <ele>364.1</ele>
        <time>2016-01-03T08:57:14Z</time>
      </trkpt>
      <trkpt lat="44.29991" lon="2.02042">
        <ele>361.6</ele>
        <time>2016-01-03T08:57:15Z</time>
      </trkpt>
      <trkpt lat="44.29994" lon="2.02038">
        <ele>360.9</ele>
        <time>2016-01-03T08:57:16Z</time>
      </trkpt>
      <trkpt lat="44.30002" lon="2.02024">
        <ele>357.1</ele>
        <time>2016-01-03T08:57:17Z</time>
      </trkpt>
      <trkpt lat="44.30005" lon="2.02016">
        <ele>354.7</ele>
        <time>2016-01-03T08:57:18Z</time>
      </trkpt>
      <trkpt lat="44.3001" lon="2.0201">
        <ele>353.2</ele>
        <time>2016-01-03T08:57:19Z</time>
      </trkpt>
      <trkpt lat="44.30013" lon="2.02008">
        <ele>352.9</ele>
        <time>2016-01-03T08:57:20Z</time>
      </trkpt>
      <trkpt lat="44.30015" lon="2.02006">
        <ele>352.8</ele>
        <time>2016-01-03T08:57:21Z</time>
      </trkpt>
      <trkpt lat="44.30019" lon="2.02004">
        <ele>352.6</ele>
        <time>2016-01-03T08:57:22Z</time>
      </trkpt>
      <trkpt lat="44.30023" lon="2.02003">
        <ele>352.7</ele>
        <time>2016-01-03T08:57:23Z</time>
      </trkpt>
      <trkpt lat="44.30028" lon="2.02002">
        <ele>353</ele>
        <time>2016-01-03T08:57:24Z</time>
      </trkpt>
      <trkpt lat="44.30032" lon="2.01999">
        <ele>352.6</ele>
        <time>2016-01-03T08:57:25Z</time>
      </trkpt>
      <trkpt lat="44.30036" lon="2.01997">
        <ele>352.4</ele>
        <time>2016-01-03T08:57:26Z</time>
      </trkpt>
      <trkpt lat="44.30041" lon="2.01996">
        <ele>352.8</ele>
        <time>2016-01-03T08:57:27Z</time>
      </trkpt>
      <trkpt lat="44.30047" lon="2.01994">
        <ele>352.5</ele>
        <time>2016-01-03T08:57:28Z</time>
      </trkpt>
      <trkpt lat="44.30053" lon="2.01995">
        <ele>352.7</ele>
        <time>2016-01-03T08:57:29Z</time>
      </trkpt>
      <trkpt lat="44.30059" lon="2.01994">
        <ele>352.3</ele>
        <time>2016-01-03T08:57:30Z</time>
      </trkpt>
      <trkpt lat="44.30066" lon="2.01993">
        <ele>352</ele>
        <time>2016-01-03T08:57:31Z</time>
      </trkpt>
      <trkpt lat="44.30073" lon="2.01992">
        <ele>351.6</ele>
        <time>2016-01-03T08:57:32Z</time>
      </trkpt>
      <trkpt lat="44.30079" lon="2.01991">
        <ele>351.5</ele>
        <time>2016-01-03T08:57:33Z</time>
      </trkpt>
      <trkpt lat="44.30086" lon="2.01992">
        <ele>351.8</ele>
        <time>2016-01-03T08:57:34Z</time>
      </trkpt>
      <trkpt lat="44.30093" lon="2.01994">
        <ele>352.5</ele>
        <time>2016-01-03T08:57:35Z</time>
      </trkpt>
      <trkpt lat="44.30101" lon="2.01996">
        <ele>353</ele>
        <time>2016-01-03T08:57:36Z</time>
      </trkpt>
      <trkpt lat="44.30109" lon="2.01997">
        <ele>353.4</ele>
        <time>2016-01-03T08:57:37Z</time>
      </trkpt>
      <trkpt lat="44.30117" lon="2.01999">
        <ele>354.3</ele>
        <time>2016-01-03T08:57:38Z</time>
      </trkpt>
      <trkpt lat="44.30125" lon="2.02002">
        <ele>355.1</ele>
        <time>2016-01-03T08:57:39Z</time>
      </trkpt>
      <trkpt lat="44.30133" lon="2.02004">
        <ele>354.6</ele>
        <time>2016-01-03T08:57:40Z</time>
      </trkpt>
      <trkpt lat="44.30142" lon="2.02004">
        <ele>353</ele>
        <time>2016-01-03T08:57:41Z</time>
      </trkpt>
      <trkpt lat="44.3015" lon="2.02005">
        <ele>351.9</ele>
        <time>2016-01-03T08:57:42Z</time>
      </trkpt>
      <trkpt lat="44.30158" lon="2.02006">
        <ele>351.2</ele>
        <time>2016-01-03T08:57:43Z</time>
      </trkpt>
      <trkpt lat="44.30165" lon="2.02007">
        <ele>350.3</ele>
        <time>2016-01-03T08:57:44Z</time>
      </trkpt>
      <trkpt lat="44.30172" lon="2.02007">
        <ele>349</ele>
        <time>2016-01-03T08:57:45Z</time>
      </trkpt>
      <trkpt lat="44.30178" lon="2.02008">
        <ele>348.2</ele>
        <time>2016-01-03T08:57:46Z</time>
      </trkpt>
      <trkpt lat="44.30184" lon="2.02009">
        <ele>347.5</ele>
        <time>2016-01-03T08:57:47Z</time>
      </trkpt>
      <trkpt lat="44.30191" lon="2.02007">
        <ele>345.8</ele>
        <time>2016-01-03T08:57:48Z</time>
      </trkpt>
      <trkpt lat="44.30197" lon="2.02008">
        <ele>345.1</ele>
        <time>2016-01-03T08:57:49Z</time>
      </trkpt>
      <trkpt lat="44.30202" lon="2.02007">
        <ele>343.8</ele>
        <time>2016-01-03T08:57:50Z</time>
      </trkpt>
      <trkpt lat="44.30207" lon="2.02008">
        <ele>343.4</ele>
        <time>2016-01-03T08:57:51Z</time>
      </trkpt>
      <trkpt lat="44.30213" lon="2.02009">
        <ele>342.7</ele>
        <time>2016-01-03T08:57:52Z</time>
      </trkpt>
      <trkpt lat="44.3022" lon="2.02009">
        <ele>341.6</ele>
        <time>2016-01-03T08:57:53Z</time>
      </trkpt>
      <trkpt lat="44.30227" lon="2.02007">
        <ele>339.6</ele>
        <time>2016-01-03T08:57:54Z</time>
      </trkpt>
      <trkpt lat="44.30233" lon="2.02006">
        <ele>338.1</ele>
        <time>2016-01-03T08:57:55Z</time>
      </trkpt>
      <trkpt lat="44.30239" lon="2.02004">
        <ele>336.4</ele>
        <time>2016-01-03T08:57:56Z</time>
      </trkpt>
      <trkpt lat="44.30245" lon="2.02002">
        <ele>334.9</ele>
        <time>2016-01-03T08:57:57Z</time>
      </trkpt>
      <trkpt lat="44.30252" lon="2.02003">
        <ele>333.8</ele>
        <time>2016-01-03T08:57:58Z</time>
      </trkpt>
      <trkpt lat="44.30259" lon="2.02002">
        <ele>332.5</ele>
        <time>2016-01-03T08:57:59Z</time>
      </trkpt>
      <trkpt lat="44.30265" lon="2.02001">
        <ele>331</ele>
        <time>2016-01-03T08:58:00Z</time>
      </trkpt>
      <trkpt lat="44.3027" lon="2.02">
        <ele>329.8</ele>
        <time>2016-01-03T08:58:01Z</time>
      </trkpt>
      <trkpt lat="44.30276" lon="2.01998">
        <ele>328</ele>
        <time>2016-01-03T08:58:02Z</time>
      </trkpt>
      <trkpt lat="44.30283" lon="2.01996">
        <ele>326.5</ele>
        <time>2016-01-03T08:58:03Z</time>
      </trkpt>
      <trkpt lat="44.3029" lon="2.01993">
        <ele>324.3</ele>
        <time>2016-01-03T08:58:04Z</time>
      </trkpt>
      <trkpt lat="44.30297" lon="2.0199">
        <ele>322.7</ele>
        <time>2016-01-03T08:58:05Z</time>
      </trkpt>
      <trkpt lat="44.30304" lon="2.0199">
        <ele>321.9</ele>
        <time>2016-01-03T08:58:06Z</time>
      </trkpt>
      <trkpt lat="44.30313" lon="2.01986">
        <ele>320.3</ele>
        <time>2016-01-03T08:58:07Z</time>
      </trkpt>
      <trkpt lat="44.3032" lon="2.01986">
        <ele>319.6</ele>
        <time>2016-01-03T08:58:08Z</time>
      </trkpt>
      <trkpt lat="44.30328" lon="2.01984">
        <ele>318.4</ele>
        <time>2016-01-03T08:58:09Z</time>
      </trkpt>
      <trkpt lat="44.30336" lon="2.01984">
        <ele>317.5</ele>
        <time>2016-01-03T08:58:10Z</time>
      </trkpt>
      <trkpt lat="44.30343" lon="2.01985">
        <ele>317.4</ele>
        <time>2016-01-03T08:58:11Z</time>
      </trkpt>
      <trkpt lat="44.3035" lon="2.01986">
        <ele>317</ele>
        <time>2016-01-03T08:58:12Z</time>
      </trkpt>
      <trkpt lat="44.30358" lon="2.01988">
        <ele>317</ele>
        <time>2016-01-03T08:58:13Z</time>
      </trkpt>
      <trkpt lat="44.30365" lon="2.0199">
        <ele>316.7</ele>
        <time>2016-01-03T08:58:14Z</time>
      </trkpt>
      <trkpt lat="44.30372" lon="2.0199">
        <ele>316.3</ele>
        <time>2016-01-03T08:58:15Z</time>
      </trkpt>
      <trkpt lat="44.30378" lon="2.0199">
        <ele>315.7</ele>
        <time>2016-01-03T08:58:16Z</time>
      </trkpt>
      <trkpt lat="44.30383" lon="2.01988">
        <ele>314.2</ele>
        <time>2016-01-03T08:58:17Z</time>
      </trkpt>
      <trkpt lat="44.30388" lon="2.01981">
        <ele>311.9</ele>
        <time>2016-01-03T08:58:18Z</time>
      </trkpt>
      <trkpt lat="44.30392" lon="2.01974">
        <ele>309.7</ele>
        <time>2016-01-03T08:58:19Z</time>
      </trkpt>
      <trkpt lat="44.30394" lon="2.01934">
        <ele>300.7</ele>
        <time>2016-01-03T08:58:21Z</time>
      </trkpt>
      <trkpt lat="44.30396" lon="2.01921">
        <ele>297.6</ele>
        <time>2016-01-03T08:58:22Z</time>
      </trkpt>
      <trkpt lat="44.30396" lon="2.01913">
        <ele>295.9</ele>
        <time>2016-01-03T08:58:23Z</time>
      </trkpt>
      <trkpt lat="44.30393" lon="2.01906">
        <ele>294.7</ele>
        <time>2016-01-03T08:58:24Z</time>
      </trkpt>
      <trkpt lat="44.30389" lon="2.01901">
        <ele>294</ele>
        <time>2016-01-03T08:58:25Z</time>
      </trkpt>
      <trkpt lat="44.30384" lon="2.01895">
        <ele>293</ele>
        <time>2016-01-03T08:58:26Z</time>
      </trkpt>
      <trkpt lat="44.30378" lon="2.0189">
        <ele>292.2</ele>
        <time>2016-01-03T08:58:27Z</time>
      </trkpt>
      <trkpt lat="44.30372" lon="2.01884">
        <ele>291</ele>
        <time>2016-01-03T08:58:28Z</time>
      </trkpt>
      <trkpt lat="44.30366" lon="2.01878">
        <ele>289.7</ele>
        <time>2016-01-03T08:58:29Z</time>
      </trkpt>
      <trkpt lat="44.30361" lon="2.01873">
        <ele>288.4</ele>
        <time>2016-01-03T08:58:30Z</time>
      </trkpt>
      <trkpt lat="44.30356" lon="2.0187">
        <ele>287.5</ele>
        <time>2016-01-03T08:58:31Z</time>
      </trkpt>
      <trkpt lat="44.30351" lon="2.01868">
        <ele>286.8</ele>
        <time>2016-01-03T08:58:32Z</time>
      </trkpt>
      <trkpt lat="44.30347" lon="2.01865">
        <ele>285.9</ele>
        <time>2016-01-03T08:58:33Z</time>
      </trkpt>
      <trkpt lat="44.30348" lon="2.0186">
        <ele>284.7</ele>
        <time>2016-01-03T08:58:34Z</time>
      </trkpt>
      <trkpt lat="44.30353" lon="2.01858">
        <ele>284.2</ele>
        <time>2016-01-03T08:58:35Z</time>
      </trkpt>
      <trkpt lat="44.30357" lon="2.01857">
        <ele>284</ele>
        <time>2016-01-03T08:58:36Z</time>
      </trkpt>
      <trkpt lat="44.30363" lon="2.01856">
        <ele>283.9</ele>
        <time>2016-01-03T08:58:37Z</time>
      </trkpt>
      <trkpt lat="44.30369" lon="2.01856">
        <ele>283.9</ele>
        <time>2016-01-03T08:58:38Z</time>
      </trkpt>
      <trkpt lat="44.30375" lon="2.01855">
        <ele>283.7</ele>
        <time>2016-01-03T08:58:39Z</time>
      </trkpt>
      <trkpt lat="44.30381" lon="2.01855">
        <ele>283.3</ele>
        <time>2016-01-03T08:58:40Z</time>
      </trkpt>
      <trkpt lat="44.30388" lon="2.01854">
        <ele>282.8</ele>
        <time>2016-01-03T08:58:41Z</time>
      </trkpt>
      <trkpt lat="44.30394" lon="2.01853">
        <ele>282.1</ele>
        <time>2016-01-03T08:58:42Z</time>
      </trkpt>
      <trkpt lat="44.304" lon="2.01853">
        <ele>281.8</ele>
        <time>2016-01-03T08:58:43Z</time>
      </trkpt>
      <trkpt lat="44.30405" lon="2.01854">
        <ele>281.7</ele>
        <time>2016-01-03T08:58:44Z</time>
      </trkpt>
      <trkpt lat="44.30409" lon="2.01857">
        <ele>282.1</ele>
        <time>2016-01-03T08:58:45Z</time>
      </trkpt>
      <trkpt lat="44.30414" lon="2.01858">
        <ele>282.2</ele>
        <time>2016-01-03T08:58:46Z</time>
      </trkpt>
      <trkpt lat="44.30418" lon="2.01859">
        <ele>282.2</ele>
        <time>2016-01-03T08:58:47Z</time>
      </trkpt>
      <trkpt lat="44.30423" lon="2.01859">
        <ele>281.9</ele>
        <time>2016-01-03T08:58:48Z</time>
      </trkpt>
      <trkpt lat="44.30428" lon="2.01856">
        <ele>280.8</ele>
        <time>2016-01-03T08:58:49Z</time>
      </trkpt>
      <trkpt lat="44.30433" lon="2.01841">
        <ele>276.5</ele>
        <time>2016-01-03T08:58:50Z</time>
      </trkpt>
      <trkpt lat="44.30434" lon="2.01828">
        <ele>273.1</ele>
        <time>2016-01-03T08:58:51Z</time>
      </trkpt>
      <trkpt lat="44.30431" lon="2.01821">
        <ele>271.4</ele>
        <time>2016-01-03T08:58:52Z</time>
      </trkpt>
      <trkpt lat="44.3043" lon="2.01816">
        <ele>270.1</ele>
        <time>2016-01-03T08:58:53Z</time>
      </trkpt>
      <trkpt lat="44.3043" lon="2.0181">
        <ele>268.6</ele>
        <time>2016-01-03T08:58:55Z</time>
      </trkpt>
      <trkpt lat="44.30434" lon="2.01807">
        <ele>267.6</ele>
        <time>2016-01-03T08:58:57Z</time>
      </trkpt>
      <trkpt lat="44.30439" lon="2.01808">
        <ele>267.4</ele>
        <time>2016-01-03T08:58:58Z</time>
      </trkpt>
      <trkpt lat="44.30442" lon="2.01807">
        <ele>267.1</ele>
        <time>2016-01-03T08:58:59Z</time>
      </trkpt>
      <trkpt lat="44.30446" lon="2.01807">
        <ele>266.7</ele>
        <time>2016-01-03T08:59:00Z</time>
      </trkpt>
      <trkpt lat="44.3045" lon="2.01806">
        <ele>266.4</ele>
        <time>2016-01-03T08:59:01Z</time>
      </trkpt>
      <trkpt lat="44.30454" lon="2.01806">
        <ele>266</ele>
        <time>2016-01-03T08:59:02Z</time>
      </trkpt>
      <trkpt lat="44.30458" lon="2.01806">
        <ele>265.9</ele>
        <time>2016-01-03T08:59:03Z</time>
      </trkpt>
      <trkpt lat="44.30462" lon="2.01807">
        <ele>265.6</ele>
        <time>2016-01-03T08:59:04Z</time>
      </trkpt>
      <trkpt lat="44.30465" lon="2.01807">
        <ele>265.3</ele>
        <time>2016-01-03T08:59:05Z</time>
      </trkpt>
      <trkpt lat="44.30469" lon="2.01808">
        <ele>265.3</ele>
        <time>2016-01-03T08:59:06Z</time>
      </trkpt>
      <trkpt lat="44.30472" lon="2.0181">
        <ele>265.4</ele>
        <time>2016-01-03T08:59:07Z</time>
      </trkpt>
      <trkpt lat="44.30476" lon="2.01813">
        <ele>265.6</ele>
        <time>2016-01-03T08:59:08Z</time>
      </trkpt>
      <trkpt lat="44.30479" lon="2.01815">
        <ele>265.8</ele>
        <time>2016-01-03T08:59:09Z</time>
      </trkpt>
      <trkpt lat="44.30483" lon="2.01819">
        <ele>266.4</ele>
        <time>2016-01-03T08:59:11Z</time>
      </trkpt>
      <trkpt lat="44.30485" lon="2.01825">
        <ele>267.3</ele>
        <time>2016-01-03T08:59:13Z</time>
      </trkpt>
      <trkpt lat="44.30486" lon="2.01829">
        <ele>268</ele>
        <time>2016-01-03T08:59:14Z</time>
      </trkpt>
      <trkpt lat="44.30486" lon="2.01832">
        <ele>268.7</ele>
        <time>2016-01-03T08:59:15Z</time>
      </trkpt>
      <trkpt lat="44.30488" lon="2.01839">
        <ele>269.8</ele>
        <time>2016-01-03T08:59:17Z</time>
      </trkpt>
      <trkpt lat="44.3049" lon="2.01846">
        <ele>271.2</ele>
        <time>2016-01-03T08:59:19Z</time>
      </trkpt>
      <trkpt lat="44.30491" lon="2.0185">
        <ele>271.8</ele>
        <time>2016-01-03T08:59:20Z</time>
      </trkpt>
      <trkpt lat="44.30493" lon="2.01855">
        <ele>272.3</ele>
        <time>2016-01-03T08:59:21Z</time>
      </trkpt>
      <trkpt lat="44.30494" lon="2.01861">
        <ele>273.4</ele>
        <time>2016-01-03T08:59:23Z</time>
      </trkpt>
      <trkpt lat="44.30494" lon="2.01865">
        <ele>274.4</ele>
        <time>2016-01-03T08:59:25Z</time>
      </trkpt>
      <trkpt lat="44.30495" lon="2.0187">
        <ele>275</ele>
        <time>2016-01-03T08:59:26Z</time>
      </trkpt>
      <trkpt lat="44.30496" lon="2.01874">
        <ele>275.7</ele>
        <time>2016-01-03T08:59:27Z</time>
      </trkpt>
      <trkpt lat="44.30497" lon="2.01878">
        <ele>276.1</ele>
        <time>2016-01-03T08:59:28Z</time>
      </trkpt>
      <trkpt lat="44.30498" lon="2.01882">
        <ele>276.5</ele>
        <time>2016-01-03T08:59:29Z</time>
      </trkpt>
      <trkpt lat="44.30498" lon="2.01887">
        <ele>277</ele>
        <time>2016-01-03T08:59:30Z</time>
      </trkpt>
      <trkpt lat="44.30499" lon="2.01892">
        <ele>277.6</ele>
        <time>2016-01-03T08:59:31Z</time>
      </trkpt>
      <trkpt lat="44.305" lon="2.01896">
        <ele>277.8</ele>
        <time>2016-01-03T08:59:32Z</time>
      </trkpt>
      <trkpt lat="44.30501" lon="2.01901">
        <ele>278.1</ele>
        <time>2016-01-03T08:59:33Z</time>
      </trkpt>
      <trkpt lat="44.30502" lon="2.01908">
        <ele>278.9</ele>
        <time>2016-01-03T08:59:35Z</time>
      </trkpt>
      <trkpt lat="44.30503" lon="2.01912">
        <ele>279</ele>
        <time>2016-01-03T08:59:36Z</time>
      </trkpt>
      <trkpt lat="44.30504" lon="2.01917">
        <ele>279.6</ele>
        <time>2016-01-03T08:59:38Z</time>
      </trkpt>
      <trkpt lat="44.30504" lon="2.01922">
        <ele>280.2</ele>
        <time>2016-01-03T08:59:39Z</time>
      </trkpt>
      <trkpt lat="44.30505" lon="2.01927">
        <ele>280.5</ele>
        <time>2016-01-03T08:59:40Z</time>
      </trkpt>
      <trkpt lat="44.30505" lon="2.01931">
        <ele>281</ele>
        <time>2016-01-03T08:59:41Z</time>
      </trkpt>
      <trkpt lat="44.30507" lon="2.01934">
        <ele>280.9</ele>
        <time>2016-01-03T08:59:42Z</time>
      </trkpt>
      <trkpt lat="44.30505" lon="2.01939">
        <ele>282</ele>
        <time>2016-01-03T08:59:44Z</time>
      </trkpt>
      <trkpt lat="44.30504" lon="2.01943">
        <ele>282.9</ele>
        <time>2016-01-03T08:59:45Z</time>
      </trkpt>
      <trkpt lat="44.30506" lon="2.01948">
        <ele>283</ele>
        <time>2016-01-03T08:59:47Z</time>
      </trkpt>
      <trkpt lat="44.30509" lon="2.01951">
        <ele>282.2</ele>
        <time>2016-01-03T08:59:50Z</time>
      </trkpt>
      <trkpt lat="44.30513" lon="2.01953">
        <ele>281.5</ele>
        <time>2016-01-03T08:59:53Z</time>
      </trkpt>
      <trkpt lat="44.30516" lon="2.01952">
        <ele>280.2</ele>
        <time>2016-01-03T08:59:56Z</time>
      </trkpt>
      <trkpt lat="44.3052" lon="2.01951">
        <ele>279</ele>
        <time>2016-01-03T08:59:59Z</time>
      </trkpt>
      <trkpt lat="44.30523" lon="2.01949">
        <ele>278</ele>
        <time>2016-01-03T09:00:02Z</time>
      </trkpt>
      <trkpt lat="44.30527" lon="2.01946">
        <ele>276.3</ele>
        <time>2016-01-03T09:00:06Z</time>
      </trkpt>
      <trkpt lat="44.30531" lon="2.0194">
        <ele>274.6</ele>
        <time>2016-01-03T09:00:08Z</time>
      </trkpt>
      <trkpt lat="44.30534" lon="2.01939">
        <ele>273.6</ele>
        <time>2016-01-03T09:00:09Z</time>
      </trkpt>
      <trkpt lat="44.30538" lon="2.01936">
        <ele>272.3</ele>
        <time>2016-01-03T09:00:11Z</time>
      </trkpt>
      <trkpt lat="44.3054" lon="2.01934">
        <ele>271.4</ele>
        <time>2016-01-03T09:00:14Z</time>
      </trkpt>
      <trkpt lat="44.30543" lon="2.01932">
        <ele>270.9</ele>
        <time>2016-01-03T09:00:16Z</time>
      </trkpt>
      <trkpt lat="44.30546" lon="2.01929">
        <ele>270.9</ele>
        <time>2016-01-03T09:00:19Z</time>
      </trkpt>
      <trkpt lat="44.30548" lon="2.01926">
        <ele>270.8</ele>
        <time>2016-01-03T09:00:22Z</time>
      </trkpt>
      <trkpt lat="44.30551" lon="2.01923">
        <ele>270.8</ele>
        <time>2016-01-03T09:00:24Z</time>
      </trkpt>
      <trkpt lat="44.30555" lon="2.0192">
        <ele>270.8</ele>
        <time>2016-01-03T09:00:26Z</time>
      </trkpt>
      <trkpt lat="44.30559" lon="2.01918">
        <ele>270.9</ele>
        <time>2016-01-03T09:00:28Z</time>
      </trkpt>
      <trkpt lat="44.30563" lon="2.01917">
        <ele>271</ele>
        <time>2016-01-03T09:00:30Z</time>
      </trkpt>
      <trkpt lat="44.30565" lon="2.01915">
        <ele>271</ele>
        <time>2016-01-03T09:00:33Z</time>
      </trkpt>
      <trkpt lat="44.30567" lon="2.01911">
        <ele>270.6</ele>
        <time>2016-01-03T09:00:36Z</time>
      </trkpt>
      <trkpt lat="44.30569" lon="2.01908">
        <ele>270.4</ele>
        <time>2016-01-03T09:00:39Z</time>
      </trkpt>
      <trkpt lat="44.30572" lon="2.01905">
        <ele>270.1</ele>
        <time>2016-01-03T09:00:43Z</time>
      </trkpt>
      <trkpt lat="44.30575" lon="2.01905">
        <ele>270.4</ele>
        <time>2016-01-03T09:00:48Z</time>
      </trkpt>
      <trkpt lat="44.30577" lon="2.01904">
        <ele>270.4</ele>
        <time>2016-01-03T09:00:54Z</time>
      </trkpt>
      <trkpt lat="44.30579" lon="2.01901">
        <ele>270</ele>
        <time>2016-01-03T09:00:58Z</time>
      </trkpt>
      <trkpt lat="44.30585" lon="2.01903">
        <ele>270.6</ele>
        <time>2016-01-03T09:01:16Z</time>
      </trkpt>
      <trkpt lat="44.30587" lon="2.01909">
        <ele>271.6</ele>
        <time>2016-01-03T09:01:39Z</time>
      </trkpt>
      <trkpt lat="44.30586" lon="2.01913">
        <ele>272.1</ele>
        <time>2016-01-03T09:01:46Z</time>
      </trkpt>
      <trkpt lat="44.30587" lon="2.01917">
        <ele>272.8</ele>
        <time>2016-01-03T09:01:51Z</time>
      </trkpt>
      <trkpt lat="44.30589" lon="2.0192">
        <ele>273.4</ele>
        <time>2016-01-03T09:01:55Z</time>
      </trkpt>
      <trkpt lat="44.30591" lon="2.01922">
        <ele>273.9</ele>
        <time>2016-01-03T09:01:57Z</time>
      </trkpt>
      <trkpt lat="44.30594" lon="2.01925">
        <ele>274.5</ele>
        <time>2016-01-03T09:02:00Z</time>
      </trkpt>
      <trkpt lat="44.30597" lon="2.01925">
        <ele>274.9</ele>
        <time>2016-01-03T09:02:03Z</time>
      </trkpt>
      <trkpt lat="44.306" lon="2.01924">
        <ele>274.9</ele>
        <time>2016-01-03T09:02:07Z</time>
      </trkpt>
      <trkpt lat="44.30604" lon="2.01926">
        <ele>275.5</ele>
        <time>2016-01-03T09:02:12Z</time>
      </trkpt>
      <trkpt lat="44.30606" lon="2.01928">
        <ele>276.1</ele>
        <time>2016-01-03T09:02:15Z</time>
      </trkpt>
      <trkpt lat="44.30609" lon="2.0193">
        <ele>276.7</ele>
        <time>2016-01-03T09:02:19Z</time>
      </trkpt>
      <trkpt lat="44.30612" lon="2.01931">
        <ele>277.2</ele>
        <time>2016-01-03T09:02:23Z</time>
      </trkpt>
      <trkpt lat="44.30615" lon="2.01933">
        <ele>277.8</ele>
        <time>2016-01-03T09:02:29Z</time>
      </trkpt>
      <trkpt lat="44.30617" lon="2.01936">
        <ele>278.5</ele>
        <time>2016-01-03T09:02:38Z</time>
      </trkpt>
      <trkpt lat="44.3062" lon="2.01938">
        <ele>279.2</ele>
        <time>2016-01-03T09:02:43Z</time>
      </trkpt>
      <trkpt lat="44.30623" lon="2.01939">
        <ele>279.8</ele>
        <time>2016-01-03T09:02:47Z</time>
      </trkpt>
      <trkpt lat="44.30626" lon="2.01939">
        <ele>280</ele>
        <time>2016-01-03T09:02:49Z</time>
      </trkpt>
      <trkpt lat="44.3063" lon="2.01941">
        <ele>280.5</ele>
        <time>2016-01-03T09:02:51Z</time>
      </trkpt>
      <trkpt lat="44.30634" lon="2.01941">
        <ele>280.5</ele>
        <time>2016-01-03T09:02:53Z</time>
      </trkpt>
      <trkpt lat="44.3064" lon="2.01942">
        <ele>280.7</ele>
        <time>2016-01-03T09:02:55Z</time>
      </trkpt>
      <trkpt lat="44.30643" lon="2.01942">
        <ele>280.8</ele>
        <time>2016-01-03T09:02:56Z</time>
      </trkpt>
      <trkpt lat="44.30647" lon="2.01942">
        <ele>280.9</ele>
        <time>2016-01-03T09:02:57Z</time>
      </trkpt>
      <trkpt lat="44.30651" lon="2.01943">
        <ele>281.1</ele>
        <time>2016-01-03T09:02:58Z</time>
      </trkpt>
      <trkpt lat="44.30656" lon="2.01944">
        <ele>281.5</ele>
        <time>2016-01-03T09:02:59Z</time>
      </trkpt>
      <trkpt lat="44.3066" lon="2.01946">
        <ele>282.1</ele>
        <time>2016-01-03T09:03:00Z</time>
      </trkpt>
      <trkpt lat="44.30665" lon="2.01948">
        <ele>282.7</ele>
        <time>2016-01-03T09:03:01Z</time>
      </trkpt>
      <trkpt lat="44.30671" lon="2.0195">
        <ele>283.4</ele>
        <time>2016-01-03T09:03:02Z</time>
      </trkpt>
      <trkpt lat="44.30677" lon="2.01953">
        <ele>284.3</ele>
        <time>2016-01-03T09:03:03Z</time>
      </trkpt>
      <trkpt lat="44.30683" lon="2.01955">
        <ele>285</ele>
        <time>2016-01-03T09:03:04Z</time>
      </trkpt>
      <trkpt lat="44.30689" lon="2.01958">
        <ele>286.3</ele>
        <time>2016-01-03T09:03:05Z</time>
      </trkpt>
      <trkpt lat="44.30696" lon="2.01961">
        <ele>287.4</ele>
        <time>2016-01-03T09:03:06Z</time>
      </trkpt>
      <trkpt lat="44.30703" lon="2.01963">
        <ele>288.5</ele>
        <time>2016-01-03T09:03:07Z</time>
      </trkpt>
      <trkpt lat="44.30709" lon="2.01964">
        <ele>289</ele>
        <time>2016-01-03T09:03:08Z</time>
      </trkpt>
      <trkpt lat="44.30715" lon="2.01966">
        <ele>288.9</ele>
        <time>2016-01-03T09:03:09Z</time>
      </trkpt>
      <trkpt lat="44.30722" lon="2.01969">
        <ele>288.9</ele>
        <time>2016-01-03T09:03:10Z</time>
      </trkpt>
      <trkpt lat="44.30728" lon="2.01971">
        <ele>288.9</ele>
        <time>2016-01-03T09:03:11Z</time>
      </trkpt>
      <trkpt lat="44.30734" lon="2.01974">
        <ele>289.3</ele>
        <time>2016-01-03T09:03:12Z</time>
      </trkpt>
      <trkpt lat="44.3074" lon="2.01978">
        <ele>289.9</ele>
        <time>2016-01-03T09:03:13Z</time>
      </trkpt>
      <trkpt lat="44.30745" lon="2.01979">
        <ele>289.6</ele>
        <time>2016-01-03T09:03:14Z</time>
      </trkpt>
      <trkpt lat="44.3075" lon="2.0198">
        <ele>289.5</ele>
        <time>2016-01-03T09:03:15Z</time>
      </trkpt>
      <trkpt lat="44.30755" lon="2.01981">
        <ele>289.4</ele>
        <time>2016-01-03T09:03:16Z</time>
      </trkpt>
      <trkpt lat="44.3076" lon="2.01983">
        <ele>289.4</ele>
        <time>2016-01-03T09:03:17Z</time>
      </trkpt>
      <trkpt lat="44.30766" lon="2.01985">
        <ele>289.8</ele>
        <time>2016-01-03T09:03:18Z</time>
      </trkpt>
      <trkpt lat="44.30771" lon="2.01988">
        <ele>290.1</ele>
        <time>2016-01-03T09:03:19Z</time>
      </trkpt>
      <trkpt lat="44.30778" lon="2.01989">
        <ele>290</ele>
        <time>2016-01-03T09:03:20Z</time>
      </trkpt>
      <trkpt lat="44.30783" lon="2.0199">
        <ele>289.5</ele>
        <time>2016-01-03T09:03:21Z</time>
      </trkpt>
      <trkpt lat="44.30788" lon="2.01991">
        <ele>289.5</ele>
        <time>2016-01-03T09:03:22Z</time>
      </trkpt>
      <trkpt lat="44.30793" lon="2.01993">
        <ele>289.8</ele>
        <time>2016-01-03T09:03:23Z</time>
      </trkpt>
      <trkpt lat="44.30798" lon="2.01994">
        <ele>289.1</ele>
        <time>2016-01-03T09:03:24Z</time>
      </trkpt>
      <trkpt lat="44.30803" lon="2.01996">
        <ele>288.8</ele>
        <time>2016-01-03T09:03:25Z</time>
      </trkpt>
      <trkpt lat="44.30809" lon="2.01998">
        <ele>288.5</ele>
        <time>2016-01-03T09:03:26Z</time>
      </trkpt>
      <trkpt lat="44.30814" lon="2.02001">
        <ele>288.8</ele>
        <time>2016-01-03T09:03:27Z</time>
      </trkpt>
      <trkpt lat="44.30819" lon="2.02003">
        <ele>288.7</ele>
        <time>2016-01-03T09:03:28Z</time>
      </trkpt>
      <trkpt lat="44.30823" lon="2.02005">
        <ele>288.8</ele>
        <time>2016-01-03T09:03:29Z</time>
      </trkpt>
      <trkpt lat="44.30827" lon="2.02008">
        <ele>289</ele>
        <time>2016-01-03T09:03:30Z</time>
      </trkpt>
      <trkpt lat="44.30831" lon="2.02009">
        <ele>288.8</ele>
        <time>2016-01-03T09:03:31Z</time>
      </trkpt>
      <trkpt lat="44.30836" lon="2.02011">
        <ele>288.5</ele>
        <time>2016-01-03T09:03:32Z</time>
      </trkpt>
      <trkpt lat="44.3084" lon="2.02011">
        <ele>287.9</ele>
        <time>2016-01-03T09:03:33Z</time>
      </trkpt>
      <trkpt lat="44.30844" lon="2.02011">
        <ele>286.8</ele>
        <time>2016-01-03T09:03:34Z</time>
      </trkpt>
      <trkpt lat="44.30849" lon="2.02012">
        <ele>286</ele>
        <time>2016-01-03T09:03:35Z</time>
      </trkpt>
      <trkpt lat="44.30856" lon="2.02013">
        <ele>285.4</ele>
        <time>2016-01-03T09:03:36Z</time>
      </trkpt>
      <trkpt lat="44.30862" lon="2.02015">
        <ele>284.7</ele>
        <time>2016-01-03T09:03:37Z</time>
      </trkpt>
      <trkpt lat="44.30867" lon="2.02016">
        <ele>284.1</ele>
        <time>2016-01-03T09:03:38Z</time>
      </trkpt>
      <trkpt lat="44.30872" lon="2.02016">
        <ele>283.2</ele>
        <time>2016-01-03T09:03:39Z</time>
      </trkpt>
      <trkpt lat="44.30878" lon="2.02018">
        <ele>282.9</ele>
        <time>2016-01-03T09:03:40Z</time>
      </trkpt>
      <trkpt lat="44.30884" lon="2.0202">
        <ele>283</ele>
        <time>2016-01-03T09:03:41Z</time>
      </trkpt>
      <trkpt lat="44.3089" lon="2.02021">
        <ele>282.6</ele>
        <time>2016-01-03T09:03:42Z</time>
      </trkpt>
      <trkpt lat="44.30896" lon="2.02022">
        <ele>282.3</ele>
        <time>2016-01-03T09:03:43Z</time>
      </trkpt>
      <trkpt lat="44.30902" lon="2.02023">
        <ele>282</ele>
        <time>2016-01-03T09:03:44Z</time>
      </trkpt>
      <trkpt lat="44.30909" lon="2.02025">
        <ele>281.9</ele>
        <time>2016-01-03T09:03:45Z</time>
      </trkpt>
      <trkpt lat="44.30915" lon="2.02026">
        <ele>281.5</ele>
        <time>2016-01-03T09:03:46Z</time>
      </trkpt>
      <trkpt lat="44.30922" lon="2.02032">
        <ele>283</ele>
        <time>2016-01-03T09:03:47Z</time>
      </trkpt>
      <trkpt lat="44.30929" lon="2.02035">
        <ele>283.4</ele>
        <time>2016-01-03T09:03:48Z</time>
      </trkpt>
      <trkpt lat="44.30936" lon="2.02037">
        <ele>283.3</ele>
        <time>2016-01-03T09:03:49Z</time>
      </trkpt>
      <trkpt lat="44.30942" lon="2.0204">
        <ele>283.3</ele>
        <time>2016-01-03T09:03:50Z</time>
      </trkpt>
      <trkpt lat="44.30949" lon="2.0204">
        <ele>282.6</ele>
        <time>2016-01-03T09:03:51Z</time>
      </trkpt>
      <trkpt lat="44.30956" lon="2.02043">
        <ele>282.8</ele>
        <time>2016-01-03T09:03:52Z</time>
      </trkpt>
      <trkpt lat="44.30963" lon="2.02047">
        <ele>283.4</ele>
        <time>2016-01-03T09:03:53Z</time>
      </trkpt>
      <trkpt lat="44.30969" lon="2.02049">
        <ele>283.2</ele>
        <time>2016-01-03T09:03:54Z</time>
      </trkpt>
      <trkpt lat="44.30976" lon="2.02051">
        <ele>282.5</ele>
        <time>2016-01-03T09:03:55Z</time>
      </trkpt>
      <trkpt lat="44.30981" lon="2.02053">
        <ele>282.6</ele>
        <time>2016-01-03T09:03:56Z</time>
      </trkpt>
      <trkpt lat="44.30988" lon="2.02056">
        <ele>282.5</ele>
        <time>2016-01-03T09:03:57Z</time>
      </trkpt>
      <trkpt lat="44.30994" lon="2.02059">
        <ele>282.6</ele>
        <time>2016-01-03T09:03:58Z</time>
      </trkpt>
      <trkpt lat="44.30999" lon="2.02061">
        <ele>282.6</ele>
        <time>2016-01-03T09:03:59Z</time>
      </trkpt>
      <trkpt lat="44.31004" lon="2.02064">
        <ele>282.7</ele>
        <time>2016-01-03T09:04:00Z</time>
      </trkpt>
      <trkpt lat="44.31009" lon="2.02067">
        <ele>282.8</ele>
        <time>2016-01-03T09:04:01Z</time>
      </trkpt>
      <trkpt lat="44.31016" lon="2.02068">
        <ele>282.2</ele>
        <time>2016-01-03T09:04:02Z</time>
      </trkpt>
      <trkpt lat="44.31022" lon="2.0207">
        <ele>281.6</ele>
        <time>2016-01-03T09:04:03Z</time>
      </trkpt>
      <trkpt lat="44.31029" lon="2.02072">
        <ele>281</ele>
        <time>2016-01-03T09:04:04Z</time>
      </trkpt>
      <trkpt lat="44.31037" lon="2.02072">
        <ele>279.5</ele>
        <time>2016-01-03T09:04:05Z</time>
      </trkpt>
      <trkpt lat="44.31044" lon="2.02073">
        <ele>278.5</ele>
        <time>2016-01-03T09:04:06Z</time>
      </trkpt>
      <trkpt lat="44.31051" lon="2.02075">
        <ele>278.1</ele>
        <time>2016-01-03T09:04:07Z</time>
      </trkpt>
      <trkpt lat="44.31059" lon="2.02078">
        <ele>278</ele>
        <time>2016-01-03T09:04:08Z</time>
      </trkpt>
      <trkpt lat="44.31066" lon="2.02081">
        <ele>278.2</ele>
        <time>2016-01-03T09:04:09Z</time>
      </trkpt>
      <trkpt lat="44.31072" lon="2.02083">
        <ele>277.7</ele>
        <time>2016-01-03T09:04:10Z</time>
      </trkpt>
      <trkpt lat="44.31078" lon="2.02084">
        <ele>277.3</ele>
        <time>2016-01-03T09:04:11Z</time>
      </trkpt>
      <trkpt lat="44.31085" lon="2.02088">
        <ele>277.5</ele>
        <time>2016-01-03T09:04:12Z</time>
      </trkpt>
      <trkpt lat="44.31092" lon="2.0209">
        <ele>276.8</ele>
        <time>2016-01-03T09:04:13Z</time>
      </trkpt>
      <trkpt lat="44.31099" lon="2.02091">
        <ele>276</ele>
        <time>2016-01-03T09:04:14Z</time>
      </trkpt>
      <trkpt lat="44.31105" lon="2.0209">
        <ele>274.7</ele>
        <time>2016-01-03T09:04:15Z</time>
      </trkpt>
      <trkpt lat="44.3111" lon="2.02089">
        <ele>273.6</ele>
        <time>2016-01-03T09:04:16Z</time>
      </trkpt>
      <trkpt lat="44.31117" lon="2.02092">
        <ele>273.2</ele>
        <time>2016-01-03T09:04:17Z</time>
      </trkpt>
      <trkpt lat="44.31124" lon="2.02094">
        <ele>272.8</ele>
        <time>2016-01-03T09:04:18Z</time>
      </trkpt>
      <trkpt lat="44.31129" lon="2.02096">
        <ele>272.3</ele>
        <time>2016-01-03T09:04:19Z</time>
      </trkpt>
      <trkpt lat="44.31136" lon="2.02097">
        <ele>271.6</ele>
        <time>2016-01-03T09:04:20Z</time>
      </trkpt>
      <trkpt lat="44.31143" lon="2.02099">
        <ele>271</ele>
        <time>2016-01-03T09:04:21Z</time>
      </trkpt>
      <trkpt lat="44.31151" lon="2.02101">
        <ele>270.1</ele>
        <time>2016-01-03T09:04:22Z</time>
      </trkpt>
      <trkpt lat="44.3116" lon="2.02101">
        <ele>268.7</ele>
        <time>2016-01-03T09:04:23Z</time>
      </trkpt>
      <trkpt lat="44.31169" lon="2.02102">
        <ele>267.1</ele>
        <time>2016-01-03T09:04:24Z</time>
      </trkpt>
      <trkpt lat="44.31177" lon="2.02101">
        <ele>265.5</ele>
        <time>2016-01-03T09:04:25Z</time>
      </trkpt>
      <trkpt lat="44.31182" lon="2.02101">
        <ele>264.6</ele>
        <time>2016-01-03T09:04:26Z</time>
      </trkpt>
      <trkpt lat="44.31187" lon="2.02102">
        <ele>263.8</ele>
        <time>2016-01-03T09:04:27Z</time>
      </trkpt>
      <trkpt lat="44.31193" lon="2.02104">
        <ele>263.2</ele>
        <time>2016-01-03T09:04:28Z</time>
      </trkpt>
      <trkpt lat="44.31198" lon="2.02107">
        <ele>263</ele>
        <time>2016-01-03T09:04:29Z</time>
      </trkpt>
      <trkpt lat="44.31203" lon="2.02109">
        <ele>262.6</ele>
        <time>2016-01-03T09:04:30Z</time>
      </trkpt>
      <trkpt lat="44.31208" lon="2.02111">
        <ele>262.1</ele>
        <time>2016-01-03T09:04:31Z</time>
      </trkpt>
      <trkpt lat="44.31213" lon="2.02113">
        <ele>261.9</ele>
        <time>2016-01-03T09:04:32Z</time>
      </trkpt>
      <trkpt lat="44.31219" lon="2.02115">
        <ele>261.8</ele>
        <time>2016-01-03T09:04:33Z</time>
      </trkpt>
      <trkpt lat="44.31226" lon="2.02116">
        <ele>261.4</ele>
        <time>2016-01-03T09:04:34Z</time>
      </trkpt>
      <trkpt lat="44.31231" lon="2.02117">
        <ele>260.9</ele>
        <time>2016-01-03T09:04:35Z</time>
      </trkpt>
      <trkpt lat="44.31237" lon="2.02118">
        <ele>260.6</ele>
        <time>2016-01-03T09:04:36Z</time>
      </trkpt>
      <trkpt lat="44.31242" lon="2.02119">
        <ele>260.3</ele>
        <time>2016-01-03T09:04:37Z</time>
      </trkpt>
      <trkpt lat="44.31246" lon="2.02119">
        <ele>259.8</ele>
        <time>2016-01-03T09:04:38Z</time>
      </trkpt>
      <trkpt lat="44.31251" lon="2.02118">
        <ele>259.2</ele>
        <time>2016-01-03T09:04:39Z</time>
      </trkpt>
      <trkpt lat="44.31257" lon="2.02119">
        <ele>258.8</ele>
        <time>2016-01-03T09:04:40Z</time>
      </trkpt>
      <trkpt lat="44.31262" lon="2.0212">
        <ele>258.4</ele>
        <time>2016-01-03T09:04:41Z</time>
      </trkpt>
      <trkpt lat="44.31269" lon="2.02121">
        <ele>257.9</ele>
        <time>2016-01-03T09:04:42Z</time>
      </trkpt>
      <trkpt lat="44.31276" lon="2.02123">
        <ele>257.4</ele>
        <time>2016-01-03T09:04:43Z</time>
      </trkpt>
      <trkpt lat="44.31283" lon="2.02125">
        <ele>257.1</ele>
        <time>2016-01-03T09:04:44Z</time>
      </trkpt>
      <trkpt lat="44.31288" lon="2.02126">
        <ele>256.8</ele>
        <time>2016-01-03T09:04:45Z</time>
      </trkpt>
      <trkpt lat="44.31294" lon="2.0213">
        <ele>257.2</ele>
        <time>2016-01-03T09:04:46Z</time>
      </trkpt>
      <trkpt lat="44.313" lon="2.02132">
        <ele>257.5</ele>
        <time>2016-01-03T09:04:47Z</time>
      </trkpt>
      <trkpt lat="44.31306" lon="2.02134">
        <ele>257.7</ele>
        <time>2016-01-03T09:04:48Z</time>
      </trkpt>
      <trkpt lat="44.31311" lon="2.02135">
        <ele>257.6</ele>
        <time>2016-01-03T09:04:49Z</time>
      </trkpt>
      <trkpt lat="44.31317" lon="2.02137">
        <ele>257.7</ele>
        <time>2016-01-03T09:04:50Z</time>
      </trkpt>
      <trkpt lat="44.31321" lon="2.02138">
        <ele>257.7</ele>
        <time>2016-01-03T09:04:51Z</time>
      </trkpt>
      <trkpt lat="44.31326" lon="2.02139">
        <ele>257.5</ele>
        <time>2016-01-03T09:04:52Z</time>
      </trkpt>
      <trkpt lat="44.31331" lon="2.0214">
        <ele>257.5</ele>
        <time>2016-01-03T09:04:53Z</time>
      </trkpt>
      <trkpt lat="44.31337" lon="2.02142">
        <ele>257.4</ele>
        <time>2016-01-03T09:04:54Z</time>
      </trkpt>
      <trkpt lat="44.31347" lon="2.02153">
        <ele>259.1</ele>
        <time>2016-01-03T09:04:55Z</time>
      </trkpt>
      <trkpt lat="44.31352" lon="2.02157">
        <ele>259.4</ele>
        <time>2016-01-03T09:04:56Z</time>
      </trkpt>
      <trkpt lat="44.31357" lon="2.02157">
        <ele>259</ele>
        <time>2016-01-03T09:04:57Z</time>
      </trkpt>
      <trkpt lat="44.31361" lon="2.02156">
        <ele>258.3</ele>
        <time>2016-01-03T09:04:58Z</time>
      </trkpt>
      <trkpt lat="44.31364" lon="2.02155">
        <ele>257.8</ele>
        <time>2016-01-03T09:04:59Z</time>
      </trkpt>
      <trkpt lat="44.31367" lon="2.02154">
        <ele>257.3</ele>
        <time>2016-01-03T09:05:00Z</time>
      </trkpt>
      <trkpt lat="44.31371" lon="2.02154">
        <ele>257</ele>
        <time>2016-01-03T09:05:01Z</time>
      </trkpt>
      <trkpt lat="44.31375" lon="2.02153">
        <ele>256.3</ele>
        <time>2016-01-03T09:05:02Z</time>
      </trkpt>
      <trkpt lat="44.31379" lon="2.02151">
        <ele>255.8</ele>
        <time>2016-01-03T09:05:03Z</time>
      </trkpt>
      <trkpt lat="44.31383" lon="2.0215">
        <ele>255.6</ele>
        <time>2016-01-03T09:05:04Z</time>
      </trkpt>
      <trkpt lat="44.31387" lon="2.02149">
        <ele>255.5</ele>
        <time>2016-01-03T09:05:05Z</time>
      </trkpt>
      <trkpt lat="44.31391" lon="2.02147">
        <ele>255.2</ele>
        <time>2016-01-03T09:05:06Z</time>
      </trkpt>
      <trkpt lat="44.31395" lon="2.02147">
        <ele>255.1</ele>
        <time>2016-01-03T09:05:07Z</time>
      </trkpt>
      <trkpt lat="44.31399" lon="2.02144">
        <ele>254.5</ele>
        <time>2016-01-03T09:05:08Z</time>
      </trkpt>
      <trkpt lat="44.31402" lon="2.02143">
        <ele>254.4</ele>
        <time>2016-01-03T09:05:09Z</time>
      </trkpt>
      <trkpt lat="44.31405" lon="2.02141">
        <ele>254.1</ele>
        <time>2016-01-03T09:05:10Z</time>
      </trkpt>
      <trkpt lat="44.31409" lon="2.02139">
        <ele>253.7</ele>
        <time>2016-01-03T09:05:11Z</time>
      </trkpt>
      <trkpt lat="44.31412" lon="2.02138">
        <ele>253.7</ele>
        <time>2016-01-03T09:05:12Z</time>
      </trkpt>
      <trkpt lat="44.31415" lon="2.02137">
        <ele>253.6</ele>
        <time>2016-01-03T09:05:13Z</time>
      </trkpt>
      <trkpt lat="44.31418" lon="2.02135">
        <ele>253.3</ele>
        <time>2016-01-03T09:05:14Z</time>
      </trkpt>
      <trkpt lat="44.31421" lon="2.02131">
        <ele>252.8</ele>
        <time>2016-01-03T09:05:15Z</time>
      </trkpt>
      <trkpt lat="44.31424" lon="2.02129">
        <ele>252.7</ele>
        <time>2016-01-03T09:05:16Z</time>
      </trkpt>
      <trkpt lat="44.31427" lon="2.02126">
        <ele>252.3</ele>
        <time>2016-01-03T09:05:17Z</time>
      </trkpt>
      <trkpt lat="44.3143" lon="2.02123">
        <ele>252.2</ele>
        <time>2016-01-03T09:05:18Z</time>
      </trkpt>
      <trkpt lat="44.31433" lon="2.02121">
        <ele>252.1</ele>
        <time>2016-01-03T09:05:19Z</time>
      </trkpt>
      <trkpt lat="44.31436" lon="2.02118">
        <ele>252.1</ele>
        <time>2016-01-03T09:05:20Z</time>
      </trkpt>
      <trkpt lat="44.31438" lon="2.02117">
        <ele>252</ele>
        <time>2016-01-03T09:05:21Z</time>
      </trkpt>
      <trkpt lat="44.31442" lon="2.02113">
        <ele>251.9</ele>
        <time>2016-01-03T09:05:23Z</time>
      </trkpt>
      <trkpt lat="44.31447" lon="2.02109">
        <ele>251.7</ele>
        <time>2016-01-03T09:05:25Z</time>
      </trkpt>
      <trkpt lat="44.3145" lon="2.02106">
        <ele>251.6</ele>
        <time>2016-01-03T09:05:27Z</time>
      </trkpt>
      <trkpt lat="44.31454" lon="2.02105">
        <ele>251.7</ele>
        <time>2016-01-03T09:05:29Z</time>
      </trkpt>
      <trkpt lat="44.31458" lon="2.02104">
        <ele>251.7</ele>
        <time>2016-01-03T09:05:31Z</time>
      </trkpt>
      <trkpt lat="44.31461" lon="2.021">
        <ele>251.5</ele>
        <time>2016-01-03T09:05:33Z</time>
      </trkpt>
      <trkpt lat="44.31464" lon="2.02099">
        <ele>251.4</ele>
        <time>2016-01-03T09:05:35Z</time>
      </trkpt>
      <trkpt lat="44.31468" lon="2.02098">
        <ele>251.4</ele>
        <time>2016-01-03T09:05:37Z</time>
      </trkpt>
      <trkpt lat="44.31471" lon="2.02097">
        <ele>251.3</ele>
        <time>2016-01-03T09:05:39Z</time>
      </trkpt>
      <trkpt lat="44.31474" lon="2.02096">
        <ele>251.3</ele>
        <time>2016-01-03T09:05:41Z</time>
      </trkpt>
      <trkpt lat="44.31477" lon="2.02095">
        <ele>251.2</ele>
        <time>2016-01-03T09:05:45Z</time>
      </trkpt>
      <trkpt lat="44.31486" lon="2.02089">
        <ele>250.8</ele>
        <time>2016-01-03T09:06:12Z</time>
      </trkpt>
      <trkpt lat="44.31488" lon="2.02096">
        <ele>251.3</ele>
        <time>2016-01-03T09:08:30Z</time>
      </trkpt>
      <trkpt lat="44.31487" lon="2.021">
        <ele>251.5</ele>
        <time>2016-01-03T09:08:33Z</time>
      </trkpt>
      <trkpt lat="44.31487" lon="2.02105">
        <ele>251.8</ele>
        <time>2016-01-03T09:08:37Z</time>
      </trkpt>
      <trkpt lat="44.31484" lon="2.0211">
        <ele>252.1</ele>
        <time>2016-01-03T09:08:40Z</time>
      </trkpt>
      <trkpt lat="44.31485" lon="2.02114">
        <ele>252.3</ele>
        <time>2016-01-03T09:08:43Z</time>
      </trkpt>
      <trkpt lat="44.31483" lon="2.02118">
        <ele>252.5</ele>
        <time>2016-01-03T09:08:46Z</time>
      </trkpt>
      <trkpt lat="44.31483" lon="2.02122">
        <ele>252.8</ele>
        <time>2016-01-03T09:08:48Z</time>
      </trkpt>
      <trkpt lat="44.31482" lon="2.02128">
        <ele>253.2</ele>
        <time>2016-01-03T09:08:50Z</time>
      </trkpt>
      <trkpt lat="44.31482" lon="2.02136">
        <ele>253.8</ele>
        <time>2016-01-03T09:08:53Z</time>
      </trkpt>
      <trkpt lat="44.31482" lon="2.02143">
        <ele>254.3</ele>
        <time>2016-01-03T09:08:55Z</time>
      </trkpt>
      <trkpt lat="44.31482" lon="2.0215">
        <ele>254.8</ele>
        <time>2016-01-03T09:08:57Z</time>
      </trkpt>
      <trkpt lat="44.31482" lon="2.02156">
        <ele>255.2</ele>
        <time>2016-01-03T09:08:59Z</time>
      </trkpt>
      <trkpt lat="44.31481" lon="2.02161">
        <ele>255.6</ele>
        <time>2016-01-03T09:09:01Z</time>
      </trkpt>
      <trkpt lat="44.31481" lon="2.02166">
        <ele>256</ele>
        <time>2016-01-03T09:09:03Z</time>
      </trkpt>
      <trkpt lat="44.31481" lon="2.02171">
        <ele>256.3</ele>
        <time>2016-01-03T09:09:05Z</time>
      </trkpt>
      <trkpt lat="44.31482" lon="2.02178">
        <ele>256.8</ele>
        <time>2016-01-03T09:09:06Z</time>
      </trkpt>
      <trkpt lat="44.31481" lon="2.02182">
        <ele>257.1</ele>
        <time>2016-01-03T09:09:07Z</time>
      </trkpt>
      <trkpt lat="44.3148" lon="2.02186">
        <ele>257.4</ele>
        <time>2016-01-03T09:09:08Z</time>
      </trkpt>
      <trkpt lat="44.3148" lon="2.02191">
        <ele>257.8</ele>
        <time>2016-01-03T09:09:10Z</time>
      </trkpt>
      <trkpt lat="44.3148" lon="2.02196">
        <ele>258.1</ele>
        <time>2016-01-03T09:09:13Z</time>
      </trkpt>
      <trkpt lat="44.31479" lon="2.022">
        <ele>258.4</ele>
        <time>2016-01-03T09:09:16Z</time>
      </trkpt>
      <trkpt lat="44.31481" lon="2.02205">
        <ele>258.7</ele>
        <time>2016-01-03T09:09:19Z</time>
      </trkpt>
      <trkpt lat="44.31484" lon="2.0221">
        <ele>259.3</ele>
        <time>2016-01-03T09:09:21Z</time>
      </trkpt>
      <trkpt lat="44.31488" lon="2.02212">
        <ele>259.7</ele>
        <time>2016-01-03T09:09:23Z</time>
      </trkpt>
      <trkpt lat="44.31493" lon="2.02216">
        <ele>260.4</ele>
        <time>2016-01-03T09:09:25Z</time>
      </trkpt>
      <trkpt lat="44.31497" lon="2.0222">
        <ele>261.1</ele>
        <time>2016-01-03T09:09:28Z</time>
      </trkpt>
      <trkpt lat="44.31498" lon="2.02225">
        <ele>262</ele>
        <time>2016-01-03T09:09:29Z</time>
      </trkpt>
      <trkpt lat="44.31503" lon="2.02225">
        <ele>261.8</ele>
        <time>2016-01-03T09:09:31Z</time>
      </trkpt>
      <trkpt lat="44.31508" lon="2.02228">
        <ele>262.2</ele>
        <time>2016-01-03T09:09:33Z</time>
      </trkpt>
      <trkpt lat="44.3151" lon="2.02229">
        <ele>262.4</ele>
        <time>2016-01-03T09:09:34Z</time>
      </trkpt>
      <trkpt lat="44.31513" lon="2.0223">
        <ele>262.3</ele>
        <time>2016-01-03T09:09:36Z</time>
      </trkpt>
      <trkpt lat="44.31516" lon="2.02228">
        <ele>261.9</ele>
        <time>2016-01-03T09:09:37Z</time>
      </trkpt>
      <trkpt lat="44.31519" lon="2.02227">
        <ele>261.7</ele>
        <time>2016-01-03T09:09:38Z</time>
      </trkpt>
      <trkpt lat="44.31524" lon="2.02224">
        <ele>261.2</ele>
        <time>2016-01-03T09:09:40Z</time>
      </trkpt>
      <trkpt lat="44.31526" lon="2.02223">
        <ele>261.1</ele>
        <time>2016-01-03T09:09:41Z</time>
      </trkpt>
      <trkpt lat="44.31531" lon="2.02221">
        <ele>260.7</ele>
        <time>2016-01-03T09:09:43Z</time>
      </trkpt>
      <trkpt lat="44.31534" lon="2.02221">
        <ele>260.6</ele>
        <time>2016-01-03T09:09:44Z</time>
      </trkpt>
      <trkpt lat="44.31538" lon="2.02221">
        <ele>260.6</ele>
        <time>2016-01-03T09:09:45Z</time>
      </trkpt>
      <trkpt lat="44.31542" lon="2.02222">
        <ele>260.7</ele>
        <time>2016-01-03T09:09:46Z</time>
      </trkpt>
      <trkpt lat="44.31546" lon="2.02223">
        <ele>260.7</ele>
        <time>2016-01-03T09:09:47Z</time>
      </trkpt>
      <trkpt lat="44.31547" lon="2.02229">
        <ele>261.3</ele>
        <time>2016-01-03T09:09:48Z</time>
      </trkpt>
      <trkpt lat="44.31551" lon="2.02233">
        <ele>261.8</ele>
        <time>2016-01-03T09:09:50Z</time>
      </trkpt>
      <trkpt lat="44.31555" lon="2.02239">
        <ele>262.4</ele>
        <time>2016-01-03T09:09:52Z</time>
      </trkpt>
      <trkpt lat="44.31557" lon="2.02242">
        <ele>262.7</ele>
        <time>2016-01-03T09:09:53Z</time>
      </trkpt>
      <trkpt lat="44.31559" lon="2.02245">
        <ele>262.9</ele>
        <time>2016-01-03T09:09:54Z</time>
      </trkpt>
      <trkpt lat="44.31564" lon="2.02249">
        <ele>263.2</ele>
        <time>2016-01-03T09:09:56Z</time>
      </trkpt>
      <trkpt lat="44.31566" lon="2.02251">
        <ele>263.3</ele>
        <time>2016-01-03T09:09:57Z</time>
      </trkpt>
      <trkpt lat="44.31569" lon="2.02253">
        <ele>263.4</ele>
        <time>2016-01-03T09:09:58Z</time>
      </trkpt>
      <trkpt lat="44.31572" lon="2.02255">
        <ele>263.6</ele>
        <time>2016-01-03T09:09:59Z</time>
      </trkpt>
      <trkpt lat="44.31576" lon="2.02258">
        <ele>263.8</ele>
        <time>2016-01-03T09:10:01Z</time>
      </trkpt>
      <trkpt lat="44.31579" lon="2.0226">
        <ele>263.9</ele>
        <time>2016-01-03T09:10:03Z</time>
      </trkpt>
      <trkpt lat="44.31583" lon="2.02264">
        <ele>264.2</ele>
        <time>2016-01-03T09:10:05Z</time>
      </trkpt>
      <trkpt lat="44.31586" lon="2.02266">
        <ele>264.3</ele>
        <time>2016-01-03T09:10:07Z</time>
      </trkpt>
      <trkpt lat="44.3159" lon="2.0227">
        <ele>264.5</ele>
        <time>2016-01-03T09:10:09Z</time>
      </trkpt>
      <trkpt lat="44.31593" lon="2.02273">
        <ele>264.7</ele>
        <time>2016-01-03T09:10:11Z</time>
      </trkpt>
      <trkpt lat="44.31595" lon="2.02291">
        <ele>266.4</ele>
        <time>2016-01-03T09:11:00Z</time>
      </trkpt>
      <trkpt lat="44.31598" lon="2.02292">
        <ele>266.4</ele>
        <time>2016-01-03T09:11:03Z</time>
      </trkpt>
      <trkpt lat="44.31602" lon="2.02292">
        <ele>266.2</ele>
        <time>2016-01-03T09:11:06Z</time>
      </trkpt>
      <trkpt lat="44.31607" lon="2.02292">
        <ele>265.9</ele>
        <time>2016-01-03T09:11:08Z</time>
      </trkpt>
      <trkpt lat="44.3161" lon="2.02292">
        <ele>265.7</ele>
        <time>2016-01-03T09:11:09Z</time>
      </trkpt>
      <trkpt lat="44.31613" lon="2.02292">
        <ele>265.7</ele>
        <time>2016-01-03T09:11:10Z</time>
      </trkpt>
      <trkpt lat="44.31619" lon="2.02294">
        <ele>265.9</ele>
        <time>2016-01-03T09:11:12Z</time>
      </trkpt>
      <trkpt lat="44.31622" lon="2.02296">
        <ele>266.1</ele>
        <time>2016-01-03T09:11:13Z</time>
      </trkpt>
      <trkpt lat="44.31626" lon="2.02298">
        <ele>266.5</ele>
        <time>2016-01-03T09:11:15Z</time>
      </trkpt>
      <trkpt lat="44.3163" lon="2.02299">
        <ele>266.8</ele>
        <time>2016-01-03T09:11:17Z</time>
      </trkpt>
      <trkpt lat="44.31634" lon="2.02301">
        <ele>267.3</ele>
        <time>2016-01-03T09:11:19Z</time>
      </trkpt>
      <trkpt lat="44.31639" lon="2.02303">
        <ele>267.8</ele>
        <time>2016-01-03T09:11:21Z</time>
      </trkpt>
      <trkpt lat="44.31642" lon="2.02305">
        <ele>268.2</ele>
        <time>2016-01-03T09:11:22Z</time>
      </trkpt>
      <trkpt lat="44.31645" lon="2.02306">
        <ele>268.5</ele>
        <time>2016-01-03T09:11:23Z</time>
      </trkpt>
      <trkpt lat="44.3165" lon="2.02308">
        <ele>268.9</ele>
        <time>2016-01-03T09:11:25Z</time>
      </trkpt>
      <trkpt lat="44.31654" lon="2.02307">
        <ele>268.7</ele>
        <time>2016-01-03T09:11:26Z</time>
      </trkpt>
      <trkpt lat="44.31659" lon="2.02307">
        <ele>268.9</ele>
        <time>2016-01-03T09:11:28Z</time>
      </trkpt>
      <trkpt lat="44.31662" lon="2.0231">
        <ele>269.4</ele>
        <time>2016-01-03T09:11:29Z</time>
      </trkpt>
      <trkpt lat="44.31665" lon="2.02312">
        <ele>269.8</ele>
        <time>2016-01-03T09:11:31Z</time>
      </trkpt>
      <trkpt lat="44.31669" lon="2.02313">
        <ele>270</ele>
        <time>2016-01-03T09:11:33Z</time>
      </trkpt>
      <trkpt lat="44.31671" lon="2.02312">
        <ele>269.8</ele>
        <time>2016-01-03T09:11:35Z</time>
      </trkpt>
      <trkpt lat="44.31671" lon="2.02305">
        <ele>268.5</ele>
        <time>2016-01-03T09:11:37Z</time>
      </trkpt>
      <trkpt lat="44.31672" lon="2.02301">
        <ele>267.7</ele>
        <time>2016-01-03T09:11:39Z</time>
      </trkpt>
      <trkpt lat="44.31675" lon="2.02303">
        <ele>268.2</ele>
        <time>2016-01-03T09:11:40Z</time>
      </trkpt>
      <trkpt lat="44.31679" lon="2.02304">
        <ele>268.4</ele>
        <time>2016-01-03T09:11:42Z</time>
      </trkpt>
      <trkpt lat="44.31684" lon="2.02312">
        <ele>269.8</ele>
        <time>2016-01-03T09:11:44Z</time>
      </trkpt>
      <trkpt lat="44.31687" lon="2.02314">
        <ele>270.1</ele>
        <time>2016-01-03T09:11:45Z</time>
      </trkpt>
      <trkpt lat="44.31692" lon="2.02316">
        <ele>270.4</ele>
        <time>2016-01-03T09:11:47Z</time>
      </trkpt>
      <trkpt lat="44.31698" lon="2.0232">
        <ele>270.8</ele>
        <time>2016-01-03T09:11:49Z</time>
      </trkpt>
      <trkpt lat="44.31702" lon="2.02322">
        <ele>271.1</ele>
        <time>2016-01-03T09:11:51Z</time>
      </trkpt>
      <trkpt lat="44.31706" lon="2.02322">
        <ele>271</ele>
        <time>2016-01-03T09:11:53Z</time>
      </trkpt>
      <trkpt lat="44.31712" lon="2.02322">
        <ele>270.8</ele>
        <time>2016-01-03T09:11:55Z</time>
      </trkpt>
      <trkpt lat="44.31714" lon="2.02321">
        <ele>270.6</ele>
        <time>2016-01-03T09:11:56Z</time>
      </trkpt>
      <trkpt lat="44.31718" lon="2.02322">
        <ele>270.6</ele>
        <time>2016-01-03T09:11:57Z</time>
      </trkpt>
      <trkpt lat="44.31721" lon="2.02324">
        <ele>270.6</ele>
        <time>2016-01-03T09:11:58Z</time>
      </trkpt>
      <trkpt lat="44.31727" lon="2.02326">
        <ele>270.5</ele>
        <time>2016-01-03T09:12:00Z</time>
      </trkpt>
      <trkpt lat="44.31729" lon="2.02326">
        <ele>270.5</ele>
        <time>2016-01-03T09:12:01Z</time>
      </trkpt>
      <trkpt lat="44.31732" lon="2.02326">
        <ele>270.3</ele>
        <time>2016-01-03T09:12:02Z</time>
      </trkpt>
      <trkpt lat="44.31735" lon="2.02327">
        <ele>270.3</ele>
        <time>2016-01-03T09:12:03Z</time>
      </trkpt>
      <trkpt lat="44.31739" lon="2.02327">
        <ele>270.1</ele>
        <time>2016-01-03T09:12:04Z</time>
      </trkpt>
      <trkpt lat="44.31742" lon="2.02327">
        <ele>270</ele>
        <time>2016-01-03T09:12:05Z</time>
      </trkpt>
      <trkpt lat="44.31748" lon="2.02329">
        <ele>269.9</ele>
        <time>2016-01-03T09:12:07Z</time>
      </trkpt>
      <trkpt lat="44.3175" lon="2.0233">
        <ele>269.8</ele>
        <time>2016-01-03T09:12:08Z</time>
      </trkpt>
      <trkpt lat="44.31754" lon="2.02331">
        <ele>269.8</ele>
        <time>2016-01-03T09:12:09Z</time>
      </trkpt>
      <trkpt lat="44.31757" lon="2.02332">
        <ele>269.7</ele>
        <time>2016-01-03T09:12:10Z</time>
      </trkpt>
      <trkpt lat="44.31762" lon="2.02333">
        <ele>269.6</ele>
        <time>2016-01-03T09:12:11Z</time>
      </trkpt>
      <trkpt lat="44.31766" lon="2.02335">
        <ele>269.5</ele>
        <time>2016-01-03T09:12:12Z</time>
      </trkpt>
      <trkpt lat="44.3177" lon="2.02335">
        <ele>269.4</ele>
        <time>2016-01-03T09:12:13Z</time>
      </trkpt>
      <trkpt lat="44.31773" lon="2.02336">
        <ele>269.3</ele>
        <time>2016-01-03T09:12:14Z</time>
      </trkpt>
      <trkpt lat="44.31778" lon="2.02335">
        <ele>268.9</ele>
        <time>2016-01-03T09:12:15Z</time>
      </trkpt>
      <trkpt lat="44.31782" lon="2.02336">
        <ele>268.8</ele>
        <time>2016-01-03T09:12:16Z</time>
      </trkpt>
      <trkpt lat="44.31785" lon="2.02336">
        <ele>268.6</ele>
        <time>2016-01-03T09:12:17Z</time>
      </trkpt>
      <trkpt lat="44.31789" lon="2.02338">
        <ele>268.6</ele>
        <time>2016-01-03T09:12:18Z</time>
      </trkpt>
      <trkpt lat="44.31791" lon="2.02341">
        <ele>268.7</ele>
        <time>2016-01-03T09:12:19Z</time>
      </trkpt>
      <trkpt lat="44.31793" lon="2.02345">
        <ele>269.1</ele>
        <time>2016-01-03T09:12:20Z</time>
      </trkpt>
      <trkpt lat="44.31794" lon="2.0235">
        <ele>269.6</ele>
        <time>2016-01-03T09:12:21Z</time>
      </trkpt>
      <trkpt lat="44.31795" lon="2.02356">
        <ele>270.2</ele>
        <time>2016-01-03T09:12:22Z</time>
      </trkpt>
      <trkpt lat="44.31797" lon="2.02359">
        <ele>270.5</ele>
        <time>2016-01-03T09:12:23Z</time>
      </trkpt>
      <trkpt lat="44.31799" lon="2.02363">
        <ele>270.9</ele>
        <time>2016-01-03T09:12:24Z</time>
      </trkpt>
      <trkpt lat="44.31802" lon="2.02363">
        <ele>271</ele>
        <time>2016-01-03T09:12:25Z</time>
      </trkpt>
      <trkpt lat="44.31807" lon="2.02361">
        <ele>270.8</ele>
        <time>2016-01-03T09:12:26Z</time>
      </trkpt>
      <trkpt lat="44.31811" lon="2.02359">
        <ele>270.7</ele>
        <time>2016-01-03T09:12:27Z</time>
      </trkpt>
      <trkpt lat="44.31814" lon="2.0236">
        <ele>270.8</ele>
        <time>2016-01-03T09:12:28Z</time>
      </trkpt>
      <trkpt lat="44.31818" lon="2.0236">
        <ele>270.8</ele>
        <time>2016-01-03T09:12:29Z</time>
      </trkpt>
      <trkpt lat="44.31822" lon="2.0236">
        <ele>270.8</ele>
        <time>2016-01-03T09:12:30Z</time>
      </trkpt>
      <trkpt lat="44.31826" lon="2.02358">
        <ele>270.7</ele>
        <time>2016-01-03T09:12:31Z</time>
      </trkpt>
      <trkpt lat="44.31829" lon="2.02357">
        <ele>270.6</ele>
        <time>2016-01-03T09:12:32Z</time>
      </trkpt>
      <trkpt lat="44.31833" lon="2.02355">
        <ele>270.4</ele>
        <time>2016-01-03T09:12:33Z</time>
      </trkpt>
      <trkpt lat="44.31837" lon="2.02353">
        <ele>270.2</ele>
        <time>2016-01-03T09:12:34Z</time>
      </trkpt>
      <trkpt lat="44.31842" lon="2.02352">
        <ele>270.2</ele>
        <time>2016-01-03T09:12:35Z</time>
      </trkpt>
      <trkpt lat="44.31847" lon="2.0235">
        <ele>270.1</ele>
        <time>2016-01-03T09:12:36Z</time>
      </trkpt>
      <trkpt lat="44.31852" lon="2.02347">
        <ele>269.8</ele>
        <time>2016-01-03T09:12:37Z</time>
      </trkpt>
      <trkpt lat="44.31857" lon="2.02346">
        <ele>269.7</ele>
        <time>2016-01-03T09:12:38Z</time>
      </trkpt>
      <trkpt lat="44.31862" lon="2.02344">
        <ele>269.6</ele>
        <time>2016-01-03T09:12:39Z</time>
      </trkpt>
      <trkpt lat="44.31868" lon="2.02343">
        <ele>269.5</ele>
        <time>2016-01-03T09:12:40Z</time>
      </trkpt>
      <trkpt lat="44.31874" lon="2.02342">
        <ele>269.4</ele>
        <time>2016-01-03T09:12:41Z</time>
      </trkpt>
      <trkpt lat="44.3188" lon="2.0234">
        <ele>269.3</ele>
        <time>2016-01-03T09:12:42Z</time>
      </trkpt>
      <trkpt lat="44.31886" lon="2.02339">
        <ele>269.3</ele>
        <time>2016-01-03T09:12:43Z</time>
      </trkpt>
      <trkpt lat="44.31892" lon="2.02345">
        <ele>269.9</ele>
        <time>2016-01-03T09:12:44Z</time>
      </trkpt>
      <trkpt lat="44.31898" lon="2.02348">
        <ele>270.3</ele>
        <time>2016-01-03T09:12:45Z</time>
      </trkpt>
      <trkpt lat="44.31902" lon="2.0235">
        <ele>270.6</ele>
        <time>2016-01-03T09:12:46Z</time>
      </trkpt>
      <trkpt lat="44.31907" lon="2.02351">
        <ele>270.8</ele>
        <time>2016-01-03T09:12:47Z</time>
      </trkpt>
      <trkpt lat="44.31912" lon="2.02353">
        <ele>271</ele>
        <time>2016-01-03T09:12:48Z</time>
      </trkpt>
      <trkpt lat="44.31917" lon="2.02354">
        <ele>271.2</ele>
        <time>2016-01-03T09:12:49Z</time>
      </trkpt>
      <trkpt lat="44.31921" lon="2.02353">
        <ele>271.2</ele>
        <time>2016-01-03T09:12:50Z</time>
      </trkpt>
      <trkpt lat="44.31926" lon="2.02353">
        <ele>271.2</ele>
        <time>2016-01-03T09:12:51Z</time>
      </trkpt>
      <trkpt lat="44.3193" lon="2.02351">
        <ele>271.1</ele>
        <time>2016-01-03T09:12:52Z</time>
      </trkpt>
      <trkpt lat="44.31934" lon="2.02351">
        <ele>271.1</ele>
        <time>2016-01-03T09:12:53Z</time>
      </trkpt>
      <trkpt lat="44.31937" lon="2.0235">
        <ele>271</ele>
        <time>2016-01-03T09:12:54Z</time>
      </trkpt>
      <trkpt lat="44.31941" lon="2.02349">
        <ele>271</ele>
        <time>2016-01-03T09:12:55Z</time>
      </trkpt>
      <trkpt lat="44.31945" lon="2.02349">
        <ele>271</ele>
        <time>2016-01-03T09:12:56Z</time>
      </trkpt>
      <trkpt lat="44.31948" lon="2.02348">
        <ele>271</ele>
        <time>2016-01-03T09:12:57Z</time>
      </trkpt>
      <trkpt lat="44.31951" lon="2.02348">
        <ele>271</ele>
        <time>2016-01-03T09:12:58Z</time>
      </trkpt>
      <trkpt lat="44.31957" lon="2.02349">
        <ele>271.1</ele>
        <time>2016-01-03T09:13:00Z</time>
      </trkpt>
      <trkpt lat="44.3196" lon="2.02349">
        <ele>271.2</ele>
        <time>2016-01-03T09:13:01Z</time>
      </trkpt>
      <trkpt lat="44.31964" lon="2.02349">
        <ele>271.1</ele>
        <time>2016-01-03T09:13:02Z</time>
      </trkpt>
      <trkpt lat="44.31966" lon="2.02349">
        <ele>271.2</ele>
        <time>2016-01-03T09:13:03Z</time>
      </trkpt>
      <trkpt lat="44.31972" lon="2.02351">
        <ele>271.4</ele>
        <time>2016-01-03T09:13:05Z</time>
      </trkpt>
      <trkpt lat="44.31976" lon="2.02356">
        <ele>271.8</ele>
        <time>2016-01-03T09:13:07Z</time>
      </trkpt>
      <trkpt lat="44.31979" lon="2.02358">
        <ele>272</ele>
        <time>2016-01-03T09:13:09Z</time>
      </trkpt>
      <trkpt lat="44.31982" lon="2.02362">
        <ele>272.4</ele>
        <time>2016-01-03T09:13:11Z</time>
      </trkpt>
      <trkpt lat="44.31987" lon="2.02367">
        <ele>272.8</ele>
        <time>2016-01-03T09:13:13Z</time>
      </trkpt>
      <trkpt lat="44.31991" lon="2.0237">
        <ele>273.1</ele>
        <time>2016-01-03T09:13:15Z</time>
      </trkpt>
      <trkpt lat="44.31995" lon="2.02372">
        <ele>273.3</ele>
        <time>2016-01-03T09:13:17Z</time>
      </trkpt>
      <trkpt lat="44.31997" lon="2.02377">
        <ele>273.8</ele>
        <time>2016-01-03T09:13:19Z</time>
      </trkpt>
      <trkpt lat="44.31999" lon="2.02381">
        <ele>274.2</ele>
        <time>2016-01-03T09:13:21Z</time>
      </trkpt>
      <trkpt lat="44.31999" lon="2.02387">
        <ele>274.8</ele>
        <time>2016-01-03T09:13:23Z</time>
      </trkpt>
      <trkpt lat="44.32" lon="2.02393">
        <ele>275.4</ele>
        <time>2016-01-03T09:13:25Z</time>
      </trkpt>
      <trkpt lat="44.32001" lon="2.02396">
        <ele>275.7</ele>
        <time>2016-01-03T09:13:26Z</time>
      </trkpt>
      <trkpt lat="44.32003" lon="2.02401">
        <ele>276.3</ele>
        <time>2016-01-03T09:13:28Z</time>
      </trkpt>
      <trkpt lat="44.32004" lon="2.02407">
        <ele>276.9</ele>
        <time>2016-01-03T09:13:30Z</time>
      </trkpt>
      <trkpt lat="44.32004" lon="2.02414">
        <ele>277.6</ele>
        <time>2016-01-03T09:13:32Z</time>
      </trkpt>
      <trkpt lat="44.32004" lon="2.0242">
        <ele>278.2</ele>
        <time>2016-01-03T09:13:34Z</time>
      </trkpt>
      <trkpt lat="44.32005" lon="2.02425">
        <ele>278.8</ele>
        <time>2016-01-03T09:13:36Z</time>
      </trkpt>
      <trkpt lat="44.32006" lon="2.02431">
        <ele>279.3</ele>
        <time>2016-01-03T09:13:38Z</time>
      </trkpt>
      <trkpt lat="44.32007" lon="2.02435">
        <ele>279.8</ele>
        <time>2016-01-03T09:13:40Z</time>
      </trkpt>
      <trkpt lat="44.32007" lon="2.02439">
        <ele>280.2</ele>
        <time>2016-01-03T09:13:42Z</time>
      </trkpt>
      <trkpt lat="44.32008" lon="2.02444">
        <ele>280.7</ele>
        <time>2016-01-03T09:13:44Z</time>
      </trkpt>
      <trkpt lat="44.3201" lon="2.02449">
        <ele>281.1</ele>
        <time>2016-01-03T09:13:46Z</time>
      </trkpt>
      <trkpt lat="44.32012" lon="2.02453">
        <ele>281.5</ele>
        <time>2016-01-03T09:13:48Z</time>
      </trkpt>
      <trkpt lat="44.32014" lon="2.02457">
        <ele>281.9</ele>
        <time>2016-01-03T09:13:50Z</time>
      </trkpt>
      <trkpt lat="44.32017" lon="2.02461">
        <ele>282.1</ele>
        <time>2016-01-03T09:13:52Z</time>
      </trkpt>
      <trkpt lat="44.32019" lon="2.02464">
        <ele>282.4</ele>
        <time>2016-01-03T09:13:54Z</time>
      </trkpt>
      <trkpt lat="44.32022" lon="2.02467">
        <ele>282.6</ele>
        <time>2016-01-03T09:13:56Z</time>
      </trkpt>
      <trkpt lat="44.32026" lon="2.0247">
        <ele>282.6</ele>
        <time>2016-01-03T09:13:58Z</time>
      </trkpt>
      <trkpt lat="44.3203" lon="2.02473">
        <ele>282.7</ele>
        <time>2016-01-03T09:14:00Z</time>
      </trkpt>
      <trkpt lat="44.32034" lon="2.02477">
        <ele>282.7</ele>
        <time>2016-01-03T09:14:02Z</time>
      </trkpt>
      <trkpt lat="44.32036" lon="2.0248">
        <ele>282.9</ele>
        <time>2016-01-03T09:14:03Z</time>
      </trkpt>
      <trkpt lat="44.3204" lon="2.02483">
        <ele>282.9</ele>
        <time>2016-01-03T09:14:05Z</time>
      </trkpt>
      <trkpt lat="44.32045" lon="2.02486">
        <ele>283</ele>
        <time>2016-01-03T09:14:07Z</time>
      </trkpt>
      <trkpt lat="44.32048" lon="2.02488">
        <ele>283.1</ele>
        <time>2016-01-03T09:14:09Z</time>
      </trkpt>
      <trkpt lat="44.32053" lon="2.02491">
        <ele>283.4</ele>
        <time>2016-01-03T09:14:11Z</time>
      </trkpt>
      <trkpt lat="44.32056" lon="2.02494">
        <ele>283.6</ele>
        <time>2016-01-03T09:14:13Z</time>
      </trkpt>
      <trkpt lat="44.32058" lon="2.02497">
        <ele>283.9</ele>
        <time>2016-01-03T09:14:16Z</time>
      </trkpt>
      <trkpt lat="44.32061" lon="2.025">
        <ele>284.1</ele>
        <time>2016-01-03T09:14:18Z</time>
      </trkpt>
      <trkpt lat="44.32064" lon="2.02502">
        <ele>284.3</ele>
        <time>2016-01-03T09:14:20Z</time>
      </trkpt>
      <trkpt lat="44.32067" lon="2.02504">
        <ele>284.5</ele>
        <time>2016-01-03T09:14:22Z</time>
      </trkpt>
      <trkpt lat="44.3207" lon="2.02506">
        <ele>284.7</ele>
        <time>2016-01-03T09:14:25Z</time>
      </trkpt>
      <trkpt lat="44.32073" lon="2.02508">
        <ele>284.9</ele>
        <time>2016-01-03T09:14:28Z</time>
      </trkpt>
      <trkpt lat="44.32076" lon="2.02512">
        <ele>285.3</ele>
        <time>2016-01-03T09:14:31Z</time>
      </trkpt>
      <trkpt lat="44.32078" lon="2.02515">
        <ele>285.7</ele>
        <time>2016-01-03T09:14:33Z</time>
      </trkpt>
      <trkpt lat="44.32081" lon="2.02518">
        <ele>286</ele>
        <time>2016-01-03T09:14:35Z</time>
      </trkpt>
      <trkpt lat="44.32084" lon="2.02521">
        <ele>286.4</ele>
        <time>2016-01-03T09:14:38Z</time>
      </trkpt>
      <trkpt lat="44.32088" lon="2.02523">
        <ele>286.6</ele>
        <time>2016-01-03T09:14:40Z</time>
      </trkpt>
      <trkpt lat="44.32092" lon="2.02526">
        <ele>287.1</ele>
        <time>2016-01-03T09:14:42Z</time>
      </trkpt>
      <trkpt lat="44.32095" lon="2.02528">
        <ele>287.4</ele>
        <time>2016-01-03T09:14:43Z</time>
      </trkpt>
      <trkpt lat="44.32097" lon="2.0253">
        <ele>287.6</ele>
        <time>2016-01-03T09:14:44Z</time>
      </trkpt>
      <trkpt lat="44.321" lon="2.02531">
        <ele>287.8</ele>
        <time>2016-01-03T09:14:45Z</time>
      </trkpt>
      <trkpt lat="44.32105" lon="2.02534">
        <ele>288.3</ele>
        <time>2016-01-03T09:14:47Z</time>
      </trkpt>
      <trkpt lat="44.32109" lon="2.02537">
        <ele>288.8</ele>
        <time>2016-01-03T09:14:49Z</time>
      </trkpt>
      <trkpt lat="44.32113" lon="2.02541">
        <ele>289.5</ele>
        <time>2016-01-03T09:14:51Z</time>
      </trkpt>
      <trkpt lat="44.32115" lon="2.02545">
        <ele>290.4</ele>
        <time>2016-01-03T09:14:53Z</time>
      </trkpt>
      <trkpt lat="44.32119" lon="2.02547">
        <ele>290.9</ele>
        <time>2016-01-03T09:14:55Z</time>
      </trkpt>
      <trkpt lat="44.32122" lon="2.02548">
        <ele>291.3</ele>
        <time>2016-01-03T09:14:57Z</time>
      </trkpt>
      <trkpt lat="44.32126" lon="2.02551">
        <ele>291.9</ele>
        <time>2016-01-03T09:15:00Z</time>
      </trkpt>
      <trkpt lat="44.32129" lon="2.02554">
        <ele>292.5</ele>
        <time>2016-01-03T09:15:02Z</time>
      </trkpt>
      <trkpt lat="44.32132" lon="2.02556">
        <ele>293</ele>
        <time>2016-01-03T09:15:04Z</time>
      </trkpt>
      <trkpt lat="44.32133" lon="2.02559">
        <ele>293.6</ele>
        <time>2016-01-03T09:15:06Z</time>
      </trkpt>
      <trkpt lat="44.32135" lon="2.02563">
        <ele>294.4</ele>
        <time>2016-01-03T09:15:08Z</time>
      </trkpt>
      <trkpt lat="44.32137" lon="2.02567">
        <ele>295.1</ele>
        <time>2016-01-03T09:15:11Z</time>
      </trkpt>
      <trkpt lat="44.3214" lon="2.02571">
        <ele>295.8</ele>
        <time>2016-01-03T09:15:14Z</time>
      </trkpt>
      <trkpt lat="44.32143" lon="2.02576">
        <ele>296.7</ele>
        <time>2016-01-03T09:15:16Z</time>
      </trkpt>
      <trkpt lat="44.32145" lon="2.02579">
        <ele>297.2</ele>
        <time>2016-01-03T09:15:18Z</time>
      </trkpt>
      <trkpt lat="44.32147" lon="2.02584">
        <ele>298</ele>
        <time>2016-01-03T09:15:20Z</time>
      </trkpt>
      <trkpt lat="44.32149" lon="2.02587">
        <ele>298.6</ele>
        <time>2016-01-03T09:15:22Z</time>
      </trkpt>
      <trkpt lat="44.32151" lon="2.02593">
        <ele>299.5</ele>
        <time>2016-01-03T09:15:26Z</time>
      </trkpt>
      <trkpt lat="44.32153" lon="2.02596">
        <ele>300</ele>
        <time>2016-01-03T09:15:29Z</time>
      </trkpt>
      <trkpt lat="44.32156" lon="2.026">
        <ele>300.5</ele>
        <time>2016-01-03T09:15:32Z</time>
      </trkpt>
      <trkpt lat="44.32159" lon="2.02604">
        <ele>301.1</ele>
        <time>2016-01-03T09:15:34Z</time>
      </trkpt>
      <trkpt lat="44.32162" lon="2.02607">
        <ele>301.4</ele>
        <time>2016-01-03T09:15:36Z</time>
      </trkpt>
      <trkpt lat="44.32164" lon="2.0261">
        <ele>301.7</ele>
        <time>2016-01-03T09:15:38Z</time>
      </trkpt>
      <trkpt lat="44.32167" lon="2.02611">
        <ele>301.5</ele>
        <time>2016-01-03T09:15:41Z</time>
      </trkpt>
      <trkpt lat="44.32171" lon="2.02612">
        <ele>301.5</ele>
        <time>2016-01-03T09:15:43Z</time>
      </trkpt>
      <trkpt lat="44.32174" lon="2.02614">
        <ele>301.6</ele>
        <time>2016-01-03T09:15:44Z</time>
      </trkpt>
      <trkpt lat="44.32177" lon="2.02613">
        <ele>301.2</ele>
        <time>2016-01-03T09:15:46Z</time>
      </trkpt>
      <trkpt lat="44.3218" lon="2.02612">
        <ele>300.8</ele>
        <time>2016-01-03T09:15:48Z</time>
      </trkpt>
      <trkpt lat="44.32184" lon="2.02611">
        <ele>300.3</ele>
        <time>2016-01-03T09:15:50Z</time>
      </trkpt>
      <trkpt lat="44.32189" lon="2.02611">
        <ele>299.8</ele>
        <time>2016-01-03T09:15:52Z</time>
      </trkpt>
      <trkpt lat="44.32193" lon="2.02611">
        <ele>299.5</ele>
        <time>2016-01-03T09:15:54Z</time>
      </trkpt>
      <trkpt lat="44.32196" lon="2.0261">
        <ele>299.2</ele>
        <time>2016-01-03T09:15:56Z</time>
      </trkpt>
      <trkpt lat="44.322" lon="2.0261">
        <ele>298.9</ele>
        <time>2016-01-03T09:15:58Z</time>
      </trkpt>
      <trkpt lat="44.32203" lon="2.0261">
        <ele>298.7</ele>
        <time>2016-01-03T09:16:00Z</time>
      </trkpt>
      <trkpt lat="44.32207" lon="2.02609">
        <ele>298.1</ele>
        <time>2016-01-03T09:16:02Z</time>
      </trkpt>
      <trkpt lat="44.32211" lon="2.02607">
        <ele>297.9</ele>
        <time>2016-01-03T09:16:04Z</time>
      </trkpt>
      <trkpt lat="44.32216" lon="2.02602">
        <ele>297.6</ele>
        <time>2016-01-03T09:16:06Z</time>
      </trkpt>
      <trkpt lat="44.32219" lon="2.026">
        <ele>297.5</ele>
        <time>2016-01-03T09:16:08Z</time>
      </trkpt>
      <trkpt lat="44.32223" lon="2.02598">
        <ele>297.4</ele>
        <time>2016-01-03T09:16:10Z</time>
      </trkpt>
      <trkpt lat="44.32227" lon="2.02596">
        <ele>297.4</ele>
        <time>2016-01-03T09:16:12Z</time>
      </trkpt>
      <trkpt lat="44.32231" lon="2.02595">
        <ele>297.5</ele>
        <time>2016-01-03T09:16:14Z</time>
      </trkpt>
      <trkpt lat="44.32235" lon="2.02594">
        <ele>297.5</ele>
        <time>2016-01-03T09:16:16Z</time>
      </trkpt>
      <trkpt lat="44.32239" lon="2.0259">
        <ele>297.2</ele>
        <time>2016-01-03T09:16:18Z</time>
      </trkpt>
      <trkpt lat="44.32242" lon="2.02589">
        <ele>297.3</ele>
        <time>2016-01-03T09:16:20Z</time>
      </trkpt>
      <trkpt lat="44.32246" lon="2.02587">
        <ele>297.3</ele>
        <time>2016-01-03T09:16:22Z</time>
      </trkpt>
      <trkpt lat="44.32249" lon="2.02585">
        <ele>297.2</ele>
        <time>2016-01-03T09:16:23Z</time>
      </trkpt>
      <trkpt lat="44.32252" lon="2.02586">
        <ele>297.4</ele>
        <time>2016-01-03T09:16:24Z</time>
      </trkpt>
      <trkpt lat="44.32257" lon="2.02587">
        <ele>297.8</ele>
        <time>2016-01-03T09:16:26Z</time>
      </trkpt>
      <trkpt lat="44.32259" lon="2.02589">
        <ele>298.2</ele>
        <time>2016-01-03T09:16:27Z</time>
      </trkpt>
      <trkpt lat="44.32264" lon="2.02588">
        <ele>298.2</ele>
        <time>2016-01-03T09:16:29Z</time>
      </trkpt>
      <trkpt lat="44.32268" lon="2.02586">
        <ele>298.2</ele>
        <time>2016-01-03T09:16:31Z</time>
      </trkpt>
      <trkpt lat="44.32272" lon="2.02584">
        <ele>298.1</ele>
        <time>2016-01-03T09:16:33Z</time>
      </trkpt>
      <trkpt lat="44.32275" lon="2.02583">
        <ele>298.1</ele>
        <time>2016-01-03T09:16:35Z</time>
      </trkpt>
      <trkpt lat="44.32278" lon="2.0258">
        <ele>297.9</ele>
        <time>2016-01-03T09:16:37Z</time>
      </trkpt>
      <trkpt lat="44.32282" lon="2.02578">
        <ele>297.9</ele>
        <time>2016-01-03T09:16:39Z</time>
      </trkpt>
      <trkpt lat="44.32285" lon="2.02577">
        <ele>297.9</ele>
        <time>2016-01-03T09:16:41Z</time>
      </trkpt>
      <trkpt lat="44.32288" lon="2.02574">
        <ele>297.6</ele>
        <time>2016-01-03T09:16:43Z</time>
      </trkpt>
      <trkpt lat="44.32291" lon="2.0257">
        <ele>297.4</ele>
        <time>2016-01-03T09:16:45Z</time>
      </trkpt>
      <trkpt lat="44.32294" lon="2.02568">
        <ele>297.3</ele>
        <time>2016-01-03T09:16:47Z</time>
      </trkpt>
      <trkpt lat="44.32298" lon="2.02567">
        <ele>297.4</ele>
        <time>2016-01-03T09:16:50Z</time>
      </trkpt>
      <trkpt lat="44.32302" lon="2.02567">
        <ele>297.7</ele>
        <time>2016-01-03T09:16:52Z</time>
      </trkpt>
      <trkpt lat="44.32305" lon="2.02566">
        <ele>297.8</ele>
        <time>2016-01-03T09:16:53Z</time>
      </trkpt>
      <trkpt lat="44.32308" lon="2.0256">
        <ele>297</ele>
        <time>2016-01-03T09:16:54Z</time>
      </trkpt>
      <trkpt lat="44.32313" lon="2.02558">
        <ele>297.1</ele>
        <time>2016-01-03T09:16:56Z</time>
      </trkpt>
      <trkpt lat="44.32317" lon="2.02559">
        <ele>297.4</ele>
        <time>2016-01-03T09:16:58Z</time>
      </trkpt>
      <trkpt lat="44.32321" lon="2.02561">
        <ele>297.9</ele>
        <time>2016-01-03T09:17:00Z</time>
      </trkpt>
      <trkpt lat="44.32325" lon="2.02564">
        <ele>298.6</ele>
        <time>2016-01-03T09:17:02Z</time>
      </trkpt>
      <trkpt lat="44.32328" lon="2.02567">
        <ele>299.3</ele>
        <time>2016-01-03T09:17:04Z</time>
      </trkpt>
      <trkpt lat="44.32332" lon="2.02568">
        <ele>299.7</ele>
        <time>2016-01-03T09:17:06Z</time>
      </trkpt>
      <trkpt lat="44.32336" lon="2.02567">
        <ele>299.8</ele>
        <time>2016-01-03T09:17:08Z</time>
      </trkpt>
      <trkpt lat="44.32339" lon="2.02567">
        <ele>299.9</ele>
        <time>2016-01-03T09:17:09Z</time>
      </trkpt>
      <trkpt lat="44.32341" lon="2.02565">
        <ele>299.7</ele>
        <time>2016-01-03T09:17:10Z</time>
      </trkpt>
      <trkpt lat="44.32346" lon="2.02564">
        <ele>299.8</ele>
        <time>2016-01-03T09:17:12Z</time>
      </trkpt>
      <trkpt lat="44.3235" lon="2.02562">
        <ele>299.6</ele>
        <time>2016-01-03T09:17:14Z</time>
      </trkpt>
      <trkpt lat="44.32355" lon="2.02562">
        <ele>299.9</ele>
        <time>2016-01-03T09:17:16Z</time>
      </trkpt>
      <trkpt lat="44.32359" lon="2.02562">
        <ele>300.1</ele>
        <time>2016-01-03T09:17:18Z</time>
      </trkpt>
      <trkpt lat="44.32363" lon="2.02562">
        <ele>300.3</ele>
        <time>2016-01-03T09:17:20Z</time>
      </trkpt>
      <trkpt lat="44.32367" lon="2.02561">
        <ele>300.5</ele>
        <time>2016-01-03T09:17:22Z</time>
      </trkpt>
      <trkpt lat="44.32371" lon="2.02562">
        <ele>300.9</ele>
        <time>2016-01-03T09:17:24Z</time>
      </trkpt>
      <trkpt lat="44.32376" lon="2.02563">
        <ele>301.3</ele>
        <time>2016-01-03T09:17:26Z</time>
      </trkpt>
      <trkpt lat="44.32379" lon="2.02565">
        <ele>301.8</ele>
        <time>2016-01-03T09:17:27Z</time>
      </trkpt>
      <trkpt lat="44.32383" lon="2.02565">
        <ele>302.1</ele>
        <time>2016-01-03T09:17:29Z</time>
      </trkpt>
      <trkpt lat="44.32387" lon="2.02565">
        <ele>302.3</ele>
        <time>2016-01-03T09:17:31Z</time>
      </trkpt>
      <trkpt lat="44.32391" lon="2.02565">
        <ele>302.5</ele>
        <time>2016-01-03T09:17:33Z</time>
      </trkpt>
      <trkpt lat="44.32395" lon="2.02566">
        <ele>302.7</ele>
        <time>2016-01-03T09:17:35Z</time>
      </trkpt>
      <trkpt lat="44.32399" lon="2.02565">
        <ele>302.9</ele>
        <time>2016-01-03T09:17:37Z</time>
      </trkpt>
      <trkpt lat="44.32404" lon="2.02566">
        <ele>303.1</ele>
        <time>2016-01-03T09:17:39Z</time>
      </trkpt>
      <trkpt lat="44.32408" lon="2.02565">
        <ele>303.1</ele>
        <time>2016-01-03T09:17:41Z</time>
      </trkpt>
      <trkpt lat="44.32412" lon="2.02564">
        <ele>303.1</ele>
        <time>2016-01-03T09:17:43Z</time>
      </trkpt>
      <trkpt lat="44.32415" lon="2.02564">
        <ele>303.3</ele>
        <time>2016-01-03T09:17:45Z</time>
      </trkpt>
      <trkpt lat="44.32419" lon="2.02566">
        <ele>303.7</ele>
        <time>2016-01-03T09:17:47Z</time>
      </trkpt>
      <trkpt lat="44.32422" lon="2.02566">
        <ele>304.1</ele>
        <time>2016-01-03T09:17:49Z</time>
      </trkpt>
      <trkpt lat="44.32427" lon="2.02567">
        <ele>304.5</ele>
        <time>2016-01-03T09:17:51Z</time>
      </trkpt>
      <trkpt lat="44.32431" lon="2.02567">
        <ele>304.6</ele>
        <time>2016-01-03T09:17:53Z</time>
      </trkpt>
      <trkpt lat="44.32436" lon="2.02569">
        <ele>305.2</ele>
        <time>2016-01-03T09:17:55Z</time>
      </trkpt>
      <trkpt lat="44.32439" lon="2.0257">
        <ele>305.5</ele>
        <time>2016-01-03T09:17:56Z</time>
      </trkpt>
      <trkpt lat="44.32443" lon="2.0257">
        <ele>305.7</ele>
        <time>2016-01-03T09:17:58Z</time>
      </trkpt>
      <trkpt lat="44.32446" lon="2.02567">
        <ele>305.3</ele>
        <time>2016-01-03T09:18:00Z</time>
      </trkpt>
      <trkpt lat="44.32449" lon="2.02564">
        <ele>304.8</ele>
        <time>2016-01-03T09:18:02Z</time>
      </trkpt>
      <trkpt lat="44.32452" lon="2.02562">
        <ele>304.4</ele>
        <time>2016-01-03T09:18:04Z</time>
      </trkpt>
      <trkpt lat="44.32455" lon="2.0256">
        <ele>304</ele>
        <time>2016-01-03T09:18:06Z</time>
      </trkpt>
      <trkpt lat="44.32458" lon="2.02558">
        <ele>303.8</ele>
        <time>2016-01-03T09:18:08Z</time>
      </trkpt>
      <trkpt lat="44.32462" lon="2.02557">
        <ele>303.7</ele>
        <time>2016-01-03T09:18:10Z</time>
      </trkpt>
      <trkpt lat="44.32465" lon="2.02556">
        <ele>303.8</ele>
        <time>2016-01-03T09:18:12Z</time>
      </trkpt>
      <trkpt lat="44.32469" lon="2.02557">
        <ele>304.5</ele>
        <time>2016-01-03T09:18:14Z</time>
      </trkpt>
      <trkpt lat="44.32472" lon="2.02561">
        <ele>305.6</ele>
        <time>2016-01-03T09:18:16Z</time>
      </trkpt>
      <trkpt lat="44.32473" lon="2.02566">
        <ele>306.8</ele>
        <time>2016-01-03T09:18:18Z</time>
      </trkpt>
      <trkpt lat="44.32471" lon="2.02572">
        <ele>307.9</ele>
        <time>2016-01-03T09:18:20Z</time>
      </trkpt>
      <trkpt lat="44.32468" lon="2.02575">
        <ele>308.4</ele>
        <time>2016-01-03T09:18:22Z</time>
      </trkpt>
      <trkpt lat="44.32464" lon="2.02577">
        <ele>308.5</ele>
        <time>2016-01-03T09:18:24Z</time>
      </trkpt>
      <trkpt lat="44.3246" lon="2.02579">
        <ele>308.5</ele>
        <time>2016-01-03T09:18:26Z</time>
      </trkpt>
      <trkpt lat="44.32456" lon="2.02577">
        <ele>308</ele>
        <time>2016-01-03T09:18:28Z</time>
      </trkpt>
      <trkpt lat="44.32451" lon="2.02579">
        <ele>308.2</ele>
        <time>2016-01-03T09:18:30Z</time>
      </trkpt>
      <trkpt lat="44.32449" lon="2.0258">
        <ele>308.3</ele>
        <time>2016-01-03T09:18:31Z</time>
      </trkpt>
      <trkpt lat="44.32446" lon="2.02581">
        <ele>308.3</ele>
        <time>2016-01-03T09:18:32Z</time>
      </trkpt>
      <trkpt lat="44.32441" lon="2.02582">
        <ele>308.4</ele>
        <time>2016-01-03T09:18:34Z</time>
      </trkpt>
      <trkpt lat="44.32438" lon="2.02583">
        <ele>308.5</ele>
        <time>2016-01-03T09:18:35Z</time>
      </trkpt>
      <trkpt lat="44.32435" lon="2.02584">
        <ele>308.5</ele>
        <time>2016-01-03T09:18:36Z</time>
      </trkpt>
      <trkpt lat="44.32431" lon="2.02586">
        <ele>308.8</ele>
        <time>2016-01-03T09:18:38Z</time>
      </trkpt>
      <trkpt lat="44.32426" lon="2.02588">
        <ele>308.9</ele>
        <time>2016-01-03T09:18:40Z</time>
      </trkpt>
      <trkpt lat="44.32423" lon="2.02589">
        <ele>309</ele>
        <time>2016-01-03T09:18:41Z</time>
      </trkpt>
      <trkpt lat="44.32421" lon="2.0259">
        <ele>309.1</ele>
        <time>2016-01-03T09:18:42Z</time>
      </trkpt>
      <trkpt lat="44.32418" lon="2.02591">
        <ele>309.2</ele>
        <time>2016-01-03T09:18:43Z</time>
      </trkpt>
      <trkpt lat="44.32413" lon="2.02593">
        <ele>309.3</ele>
        <time>2016-01-03T09:18:45Z</time>
      </trkpt>
      <trkpt lat="44.32408" lon="2.02595">
        <ele>309.6</ele>
        <time>2016-01-03T09:18:47Z</time>
      </trkpt>
      <trkpt lat="44.32403" lon="2.02598">
        <ele>309.9</ele>
        <time>2016-01-03T09:18:49Z</time>
      </trkpt>
      <trkpt lat="44.32399" lon="2.026">
        <ele>310.1</ele>
        <time>2016-01-03T09:18:51Z</time>
      </trkpt>
      <trkpt lat="44.32394" lon="2.02602">
        <ele>310.3</ele>
        <time>2016-01-03T09:18:53Z</time>
      </trkpt>
      <trkpt lat="44.32391" lon="2.02604">
        <ele>310.5</ele>
        <time>2016-01-03T09:18:54Z</time>
      </trkpt>
      <trkpt lat="44.32389" lon="2.02605">
        <ele>310.6</ele>
        <time>2016-01-03T09:18:55Z</time>
      </trkpt>
      <trkpt lat="44.32386" lon="2.02606">
        <ele>310.7</ele>
        <time>2016-01-03T09:18:56Z</time>
      </trkpt>
      <trkpt lat="44.32382" lon="2.02608">
        <ele>311</ele>
        <time>2016-01-03T09:18:58Z</time>
      </trkpt>
      <trkpt lat="44.32379" lon="2.0261">
        <ele>311.1</ele>
        <time>2016-01-03T09:18:59Z</time>
      </trkpt>
      <trkpt lat="44.32376" lon="2.02611">
        <ele>311.2</ele>
        <time>2016-01-03T09:19:00Z</time>
      </trkpt>
      <trkpt lat="44.32372" lon="2.02615">
        <ele>311.6</ele>
        <time>2016-01-03T09:19:02Z</time>
      </trkpt>
      <trkpt lat="44.32369" lon="2.02617">
        <ele>311.7</ele>
        <time>2016-01-03T09:19:03Z</time>
      </trkpt>
      <trkpt lat="44.32366" lon="2.02618">
        <ele>311.6</ele>
        <time>2016-01-03T09:19:04Z</time>
      </trkpt>
      <trkpt lat="44.32363" lon="2.0262">
        <ele>311.5</ele>
        <time>2016-01-03T09:19:05Z</time>
      </trkpt>
      <trkpt lat="44.3236" lon="2.02621">
        <ele>311.5</ele>
        <time>2016-01-03T09:19:06Z</time>
      </trkpt>
      <trkpt lat="44.32356" lon="2.02624">
        <ele>311.5</ele>
        <time>2016-01-03T09:19:08Z</time>
      </trkpt>
      <trkpt lat="44.32353" lon="2.02626">
        <ele>311.7</ele>
        <time>2016-01-03T09:19:10Z</time>
      </trkpt>
      <trkpt lat="44.32349" lon="2.02629">
        <ele>311.8</ele>
        <time>2016-01-03T09:19:12Z</time>
      </trkpt>
      <trkpt lat="44.32346" lon="2.02631">
        <ele>311.9</ele>
        <time>2016-01-03T09:19:14Z</time>
      </trkpt>
      <trkpt lat="44.32342" lon="2.02635">
        <ele>312.5</ele>
        <time>2016-01-03T09:19:16Z</time>
      </trkpt>
      <trkpt lat="44.32339" lon="2.02638">
        <ele>312.7</ele>
        <time>2016-01-03T09:19:18Z</time>
      </trkpt>
      <trkpt lat="44.32335" lon="2.02641">
        <ele>312.9</ele>
        <time>2016-01-03T09:19:20Z</time>
      </trkpt>
      <trkpt lat="44.32331" lon="2.02645">
        <ele>313.3</ele>
        <time>2016-01-03T09:19:22Z</time>
      </trkpt>
      <trkpt lat="44.32327" lon="2.02647">
        <ele>313.2</ele>
        <time>2016-01-03T09:19:24Z</time>
      </trkpt>
      <trkpt lat="44.32324" lon="2.0265">
        <ele>313.3</ele>
        <time>2016-01-03T09:19:26Z</time>
      </trkpt>
      <trkpt lat="44.3232" lon="2.02654">
        <ele>313.6</ele>
        <time>2016-01-03T09:19:28Z</time>
      </trkpt>
      <trkpt lat="44.32318" lon="2.02655">
        <ele>313.5</ele>
        <time>2016-01-03T09:19:29Z</time>
      </trkpt>
      <trkpt lat="44.32315" lon="2.02657">
        <ele>313.5</ele>
        <time>2016-01-03T09:19:30Z</time>
      </trkpt>
      <trkpt lat="44.3231" lon="2.0266">
        <ele>313.6</ele>
        <time>2016-01-03T09:19:32Z</time>
      </trkpt>
      <trkpt lat="44.32305" lon="2.02663">
        <ele>313.4</ele>
        <time>2016-01-03T09:19:34Z</time>
      </trkpt>
      <trkpt lat="44.32301" lon="2.02665">
        <ele>313.1</ele>
        <time>2016-01-03T09:19:35Z</time>
      </trkpt>
      <trkpt lat="44.32298" lon="2.02667">
        <ele>313</ele>
        <time>2016-01-03T09:19:36Z</time>
      </trkpt>
      <trkpt lat="44.32295" lon="2.0267">
        <ele>313.1</ele>
        <time>2016-01-03T09:19:38Z</time>
      </trkpt>
      <trkpt lat="44.3229" lon="2.02673">
        <ele>313.2</ele>
        <time>2016-01-03T09:19:40Z</time>
      </trkpt>
      <trkpt lat="44.32286" lon="2.02677">
        <ele>313.6</ele>
        <time>2016-01-03T09:19:42Z</time>
      </trkpt>
      <trkpt lat="44.32284" lon="2.02681">
        <ele>314.1</ele>
        <time>2016-01-03T09:19:44Z</time>
      </trkpt>
      <trkpt lat="44.3228" lon="2.02684">
        <ele>314.6</ele>
        <time>2016-01-03T09:19:46Z</time>
      </trkpt>
      <trkpt lat="44.32278" lon="2.02687">
        <ele>314.9</ele>
        <time>2016-01-03T09:19:47Z</time>
      </trkpt>
      <trkpt lat="44.32275" lon="2.02689">
        <ele>315.1</ele>
        <time>2016-01-03T09:19:48Z</time>
      </trkpt>
      <trkpt lat="44.32273" lon="2.02691">
        <ele>315.4</ele>
        <time>2016-01-03T09:19:49Z</time>
      </trkpt>
      <trkpt lat="44.32269" lon="2.02695">
        <ele>315.9</ele>
        <time>2016-01-03T09:19:51Z</time>
      </trkpt>
      <trkpt lat="44.32265" lon="2.02699">
        <ele>316.4</ele>
        <time>2016-01-03T09:19:53Z</time>
      </trkpt>
      <trkpt lat="44.32263" lon="2.02704">
        <ele>317.2</ele>
        <time>2016-01-03T09:19:55Z</time>
      </trkpt>
      <trkpt lat="44.32261" lon="2.02709">
        <ele>318</ele>
        <time>2016-01-03T09:19:57Z</time>
      </trkpt>
      <trkpt lat="44.32258" lon="2.02715">
        <ele>319.1</ele>
        <time>2016-01-03T09:19:59Z</time>
      </trkpt>
      <trkpt lat="44.32254" lon="2.02718">
        <ele>319.4</ele>
        <time>2016-01-03T09:20:00Z</time>
      </trkpt>
      <trkpt lat="44.32253" lon="2.02721">
        <ele>319.9</ele>
        <time>2016-01-03T09:20:01Z</time>
      </trkpt>
      <trkpt lat="44.3225" lon="2.02726">
        <ele>320.9</ele>
        <time>2016-01-03T09:20:03Z</time>
      </trkpt>
      <trkpt lat="44.32248" lon="2.02729">
        <ele>321.5</ele>
        <time>2016-01-03T09:20:04Z</time>
      </trkpt>
      <trkpt lat="44.32246" lon="2.02733">
        <ele>322.2</ele>
        <time>2016-01-03T09:20:05Z</time>
      </trkpt>
      <trkpt lat="44.32245" lon="2.02736">
        <ele>322.8</ele>
        <time>2016-01-03T09:20:06Z</time>
      </trkpt>
      <trkpt lat="44.32242" lon="2.02741">
        <ele>323.9</ele>
        <time>2016-01-03T09:20:08Z</time>
      </trkpt>
      <trkpt lat="44.32239" lon="2.02747">
        <ele>324.9</ele>
        <time>2016-01-03T09:20:10Z</time>
      </trkpt>
      <trkpt lat="44.32236" lon="2.02752">
        <ele>326</ele>
        <time>2016-01-03T09:20:12Z</time>
      </trkpt>
      <trkpt lat="44.32235" lon="2.02759">
        <ele>327.4</ele>
        <time>2016-01-03T09:20:14Z</time>
      </trkpt>
      <trkpt lat="44.32233" lon="2.02765">
        <ele>328.6</ele>
        <time>2016-01-03T09:20:16Z</time>
      </trkpt>
      <trkpt lat="44.32231" lon="2.02771">
        <ele>329.9</ele>
        <time>2016-01-03T09:20:18Z</time>
      </trkpt>
      <trkpt lat="44.32229" lon="2.02777">
        <ele>331.2</ele>
        <time>2016-01-03T09:20:20Z</time>
      </trkpt>
      <trkpt lat="44.32227" lon="2.02783">
        <ele>332.7</ele>
        <time>2016-01-03T09:20:22Z</time>
      </trkpt>
      <trkpt lat="44.32225" lon="2.02789">
        <ele>334.1</ele>
        <time>2016-01-03T09:20:24Z</time>
      </trkpt>
      <trkpt lat="44.32224" lon="2.02795">
        <ele>335.1</ele>
        <time>2016-01-03T09:20:26Z</time>
      </trkpt>
      <trkpt lat="44.32222" lon="2.02801">
        <ele>336</ele>
        <time>2016-01-03T09:20:28Z</time>
      </trkpt>
      <trkpt lat="44.32221" lon="2.02806">
        <ele>336.8</ele>
        <time>2016-01-03T09:20:30Z</time>
      </trkpt>
      <trkpt lat="44.3222" lon="2.02811">
        <ele>337.5</ele>
        <time>2016-01-03T09:20:32Z</time>
      </trkpt>
      <trkpt lat="44.32219" lon="2.02817">
        <ele>338.5</ele>
        <time>2016-01-03T09:20:34Z</time>
      </trkpt>
      <trkpt lat="44.32217" lon="2.02824">
        <ele>339.5</ele>
        <time>2016-01-03T09:20:36Z</time>
      </trkpt>
      <trkpt lat="44.32214" lon="2.02827">
        <ele>339.8</ele>
        <time>2016-01-03T09:20:38Z</time>
      </trkpt>
      <trkpt lat="44.32209" lon="2.02828">
        <ele>339.7</ele>
        <time>2016-01-03T09:20:40Z</time>
      </trkpt>
      <trkpt lat="44.32206" lon="2.02829">
        <ele>340.3</ele>
        <time>2016-01-03T09:20:42Z</time>
      </trkpt>
      <trkpt lat="44.32205" lon="2.02837">
        <ele>341.8</ele>
        <time>2016-01-03T09:20:44Z</time>
      </trkpt>
      <trkpt lat="44.32206" lon="2.02842">
        <ele>342.5</ele>
        <time>2016-01-03T09:20:45Z</time>
      </trkpt>
      <trkpt lat="44.32204" lon="2.02848">
        <ele>344</ele>
        <time>2016-01-03T09:20:47Z</time>
      </trkpt>
      <trkpt lat="44.32202" lon="2.02853">
        <ele>345.2</ele>
        <time>2016-01-03T09:20:49Z</time>
      </trkpt>
      <trkpt lat="44.322" lon="2.02858">
        <ele>346.4</ele>
        <time>2016-01-03T09:20:51Z</time>
      </trkpt>
      <trkpt lat="44.322" lon="2.02862">
        <ele>347</ele>
        <time>2016-01-03T09:20:52Z</time>
      </trkpt>
      <trkpt lat="44.322" lon="2.02866">
        <ele>347.8</ele>
        <time>2016-01-03T09:20:53Z</time>
      </trkpt>
      <trkpt lat="44.32199" lon="2.02872">
        <ele>349.1</ele>
        <time>2016-01-03T09:20:55Z</time>
      </trkpt>
      <trkpt lat="44.32196" lon="2.02877">
        <ele>350.4</ele>
        <time>2016-01-03T09:20:57Z</time>
      </trkpt>
      <trkpt lat="44.32193" lon="2.02881">
        <ele>351.6</ele>
        <time>2016-01-03T09:20:59Z</time>
      </trkpt>
      <trkpt lat="44.32191" lon="2.02885">
        <ele>352.6</ele>
        <time>2016-01-03T09:21:01Z</time>
      </trkpt>
      <trkpt lat="44.32188" lon="2.02888">
        <ele>353.6</ele>
        <time>2016-01-03T09:21:03Z</time>
      </trkpt>
      <trkpt lat="44.32185" lon="2.02887">
        <ele>354.4</ele>
        <time>2016-01-03T09:21:06Z</time>
      </trkpt>
      <trkpt lat="44.32182" lon="2.02885">
        <ele>354.9</ele>
        <time>2016-01-03T09:21:08Z</time>
      </trkpt>
      <trkpt lat="44.32179" lon="2.02884">
        <ele>355.7</ele>
        <time>2016-01-03T09:21:10Z</time>
      </trkpt>
      <trkpt lat="44.32176" lon="2.02884">
        <ele>356.5</ele>
        <time>2016-01-03T09:21:12Z</time>
      </trkpt>
      <trkpt lat="44.32172" lon="2.02883">
        <ele>357.5</ele>
        <time>2016-01-03T09:21:14Z</time>
      </trkpt>
      <trkpt lat="44.32168" lon="2.02883">
        <ele>358.4</ele>
        <time>2016-01-03T09:21:16Z</time>
      </trkpt>
      <trkpt lat="44.32165" lon="2.02883">
        <ele>359.3</ele>
        <time>2016-01-03T09:21:18Z</time>
      </trkpt>
      <trkpt lat="44.32163" lon="2.02882">
        <ele>360</ele>
        <time>2016-01-03T09:21:20Z</time>
      </trkpt>
      <trkpt lat="44.3216" lon="2.02879">
        <ele>360.3</ele>
        <time>2016-01-03T09:21:23Z</time>
      </trkpt>
      <trkpt lat="44.32158" lon="2.02877">
        <ele>360.6</ele>
        <time>2016-01-03T09:21:25Z</time>
      </trkpt>
      <trkpt lat="44.32155" lon="2.02872">
        <ele>360.5</ele>
        <time>2016-01-03T09:21:27Z</time>
      </trkpt>
      <trkpt lat="44.32153" lon="2.02868">
        <ele>360.1</ele>
        <time>2016-01-03T09:21:29Z</time>
      </trkpt>
      <trkpt lat="44.32151" lon="2.02863">
        <ele>359.7</ele>
        <time>2016-01-03T09:21:31Z</time>
      </trkpt>
      <trkpt lat="44.32148" lon="2.02859">
        <ele>359.7</ele>
        <time>2016-01-03T09:21:33Z</time>
      </trkpt>
      <trkpt lat="44.32145" lon="2.02854">
        <ele>359.3</ele>
        <time>2016-01-03T09:21:35Z</time>
      </trkpt>
      <trkpt lat="44.32143" lon="2.0285">
        <ele>358.9</ele>
        <time>2016-01-03T09:21:36Z</time>
      </trkpt>
      <trkpt lat="44.32142" lon="2.02846">
        <ele>358.3</ele>
        <time>2016-01-03T09:21:38Z</time>
      </trkpt>
      <trkpt lat="44.32141" lon="2.02841">
        <ele>357.6</ele>
        <time>2016-01-03T09:21:40Z</time>
      </trkpt>
      <trkpt lat="44.32141" lon="2.02835">
        <ele>356.3</ele>
        <time>2016-01-03T09:21:43Z</time>
      </trkpt>
      <trkpt lat="44.32141" lon="2.0283">
        <ele>355.1</ele>
        <time>2016-01-03T09:21:45Z</time>
      </trkpt>
      <trkpt lat="44.32139" lon="2.02823">
        <ele>354.2</ele>
        <time>2016-01-03T09:21:48Z</time>
      </trkpt>
      <trkpt lat="44.32138" lon="2.02817">
        <ele>353.1</ele>
        <time>2016-01-03T09:21:50Z</time>
      </trkpt>
      <trkpt lat="44.32137" lon="2.02813">
        <ele>352.4</ele>
        <time>2016-01-03T09:21:52Z</time>
      </trkpt>
      <trkpt lat="44.32136" lon="2.02807">
        <ele>351.1</ele>
        <time>2016-01-03T09:21:54Z</time>
      </trkpt>
      <trkpt lat="44.32135" lon="2.028">
        <ele>349.8</ele>
        <time>2016-01-03T09:21:56Z</time>
      </trkpt>
      <trkpt lat="44.32135" lon="2.02795">
        <ele>348.8</ele>
        <time>2016-01-03T09:21:58Z</time>
      </trkpt>
      <trkpt lat="44.32132" lon="2.02791">
        <ele>348.5</ele>
        <time>2016-01-03T09:22:00Z</time>
      </trkpt>
      <trkpt lat="44.32128" lon="2.02787">
        <ele>348.3</ele>
        <time>2016-01-03T09:22:02Z</time>
      </trkpt>
      <trkpt lat="44.32126" lon="2.02785">
        <ele>348.1</ele>
        <time>2016-01-03T09:22:03Z</time>
      </trkpt>
      <trkpt lat="44.32123" lon="2.02782">
        <ele>347</ele>
        <time>2016-01-03T09:22:04Z</time>
      </trkpt>
      <trkpt lat="44.32119" lon="2.02778">
        <ele>345.2</ele>
        <time>2016-01-03T09:22:06Z</time>
      </trkpt>
      <trkpt lat="44.32116" lon="2.02775">
        <ele>343.9</ele>
        <time>2016-01-03T09:22:08Z</time>
      </trkpt>
      <trkpt lat="44.32114" lon="2.02771">
        <ele>342.3</ele>
        <time>2016-01-03T09:22:11Z</time>
      </trkpt>
      <trkpt lat="44.32112" lon="2.02767">
        <ele>340.9</ele>
        <time>2016-01-03T09:22:12Z</time>
      </trkpt>
      <trkpt lat="44.32111" lon="2.02762">
        <ele>339.4</ele>
        <time>2016-01-03T09:22:13Z</time>
      </trkpt>
      <trkpt lat="44.32108" lon="2.02758">
        <ele>337.8</ele>
        <time>2016-01-03T09:22:14Z</time>
      </trkpt>
      <trkpt lat="44.32106" lon="2.02754">
        <ele>336.6</ele>
        <time>2016-01-03T09:22:15Z</time>
      </trkpt>
      <trkpt lat="44.321" lon="2.02754">
        <ele>335.4</ele>
        <time>2016-01-03T09:22:17Z</time>
      </trkpt>
      <trkpt lat="44.32097" lon="2.02753">
        <ele>334.6</ele>
        <time>2016-01-03T09:22:18Z</time>
      </trkpt>
      <trkpt lat="44.32093" lon="2.02753">
        <ele>333.9</ele>
        <time>2016-01-03T09:22:20Z</time>
      </trkpt>
      <trkpt lat="44.3209" lon="2.02755">
        <ele>333.7</ele>
        <time>2016-01-03T09:22:22Z</time>
      </trkpt>
      <trkpt lat="44.32086" lon="2.02754">
        <ele>333</ele>
        <time>2016-01-03T09:22:23Z</time>
      </trkpt>
      <trkpt lat="44.32082" lon="2.02756">
        <ele>332.6</ele>
        <time>2016-01-03T09:22:25Z</time>
      </trkpt>
      <trkpt lat="44.32079" lon="2.02757">
        <ele>332.3</ele>
        <time>2016-01-03T09:22:26Z</time>
      </trkpt>
      <trkpt lat="44.32077" lon="2.02758">
        <ele>332</ele>
        <time>2016-01-03T09:22:27Z</time>
      </trkpt>
      <trkpt lat="44.32072" lon="2.02761">
        <ele>331.8</ele>
        <time>2016-01-03T09:22:29Z</time>
      </trkpt>
      <trkpt lat="44.32069" lon="2.02764">
        <ele>331.9</ele>
        <time>2016-01-03T09:22:31Z</time>
      </trkpt>
      <trkpt lat="44.32066" lon="2.02768">
        <ele>332.2</ele>
        <time>2016-01-03T09:22:33Z</time>
      </trkpt>
      <trkpt lat="44.32063" lon="2.02771">
        <ele>332.3</ele>
        <time>2016-01-03T09:22:35Z</time>
      </trkpt>
      <trkpt lat="44.32059" lon="2.02774">
        <ele>332.2</ele>
        <time>2016-01-03T09:22:37Z</time>
      </trkpt>
      <trkpt lat="44.32055" lon="2.02778">
        <ele>332.1</ele>
        <time>2016-01-03T09:22:39Z</time>
      </trkpt>
      <trkpt lat="44.32052" lon="2.02783">
        <ele>332.4</ele>
        <time>2016-01-03T09:22:41Z</time>
      </trkpt>
      <trkpt lat="44.32049" lon="2.02787">
        <ele>332.6</ele>
        <time>2016-01-03T09:22:43Z</time>
      </trkpt>
      <trkpt lat="44.32045" lon="2.02792">
        <ele>332.7</ele>
        <time>2016-01-03T09:22:45Z</time>
      </trkpt>
      <trkpt lat="44.32042" lon="2.02792">
        <ele>332</ele>
        <time>2016-01-03T09:22:47Z</time>
      </trkpt>
      <trkpt lat="44.32037" lon="2.02788">
        <ele>331.3</ele>
        <time>2016-01-03T09:22:49Z</time>
      </trkpt>
      <trkpt lat="44.3203" lon="2.02801">
        <ele>333.9</ele>
        <time>2016-01-03T09:22:54Z</time>
      </trkpt>
      <trkpt lat="44.32027" lon="2.02802">
        <ele>334.2</ele>
        <time>2016-01-03T09:22:55Z</time>
      </trkpt>
      <trkpt lat="44.32025" lon="2.02805">
        <ele>334.6</ele>
        <time>2016-01-03T09:22:56Z</time>
      </trkpt>
      <trkpt lat="44.32022" lon="2.0281">
        <ele>335.6</ele>
        <time>2016-01-03T09:22:58Z</time>
      </trkpt>
      <trkpt lat="44.32021" lon="2.02813">
        <ele>336.2</ele>
        <time>2016-01-03T09:22:59Z</time>
      </trkpt>
      <trkpt lat="44.32019" lon="2.02817">
        <ele>336.9</ele>
        <time>2016-01-03T09:23:00Z</time>
      </trkpt>
      <trkpt lat="44.32017" lon="2.0282">
        <ele>337.4</ele>
        <time>2016-01-03T09:23:02Z</time>
      </trkpt>
      <trkpt lat="44.32014" lon="2.02826">
        <ele>338.4</ele>
        <time>2016-01-03T09:23:04Z</time>
      </trkpt>
      <trkpt lat="44.32012" lon="2.02831">
        <ele>339.1</ele>
        <time>2016-01-03T09:23:06Z</time>
      </trkpt>
      <trkpt lat="44.3201" lon="2.02839">
        <ele>340.3</ele>
        <time>2016-01-03T09:23:08Z</time>
      </trkpt>
      <trkpt lat="44.32009" lon="2.02843">
        <ele>341</ele>
        <time>2016-01-03T09:23:09Z</time>
      </trkpt>
      <trkpt lat="44.32009" lon="2.02849">
        <ele>342.1</ele>
        <time>2016-01-03T09:23:10Z</time>
      </trkpt>
      <trkpt lat="44.32009" lon="2.02855">
        <ele>343.2</ele>
        <time>2016-01-03T09:23:11Z</time>
      </trkpt>
      <trkpt lat="44.32008" lon="2.0286">
        <ele>344</ele>
        <time>2016-01-03T09:23:12Z</time>
      </trkpt>
      <trkpt lat="44.32006" lon="2.02867">
        <ele>344.8</ele>
        <time>2016-01-03T09:23:14Z</time>
      </trkpt>
      <trkpt lat="44.32003" lon="2.02873">
        <ele>345.5</ele>
        <time>2016-01-03T09:23:16Z</time>
      </trkpt>
      <trkpt lat="44.32001" lon="2.02877">
        <ele>345.9</ele>
        <time>2016-01-03T09:23:17Z</time>
      </trkpt>
      <trkpt lat="44.31999" lon="2.02882">
        <ele>346.4</ele>
        <time>2016-01-03T09:23:19Z</time>
      </trkpt>
      <trkpt lat="44.31997" lon="2.02887">
        <ele>346.9</ele>
        <time>2016-01-03T09:23:21Z</time>
      </trkpt>
      <trkpt lat="44.31995" lon="2.02893">
        <ele>347.5</ele>
        <time>2016-01-03T09:23:23Z</time>
      </trkpt>
      <trkpt lat="44.31994" lon="2.02897">
        <ele>348</ele>
        <time>2016-01-03T09:23:24Z</time>
      </trkpt>
      <trkpt lat="44.31993" lon="2.02905">
        <ele>348.9</ele>
        <time>2016-01-03T09:23:26Z</time>
      </trkpt>
      <trkpt lat="44.31992" lon="2.02911">
        <ele>349.7</ele>
        <time>2016-01-03T09:23:27Z</time>
      </trkpt>
      <trkpt lat="44.3199" lon="2.02917">
        <ele>350.3</ele>
        <time>2016-01-03T09:23:29Z</time>
      </trkpt>
      <trkpt lat="44.31989" lon="2.02922">
        <ele>350.8</ele>
        <time>2016-01-03T09:23:31Z</time>
      </trkpt>
      <trkpt lat="44.31988" lon="2.02928">
        <ele>351.4</ele>
        <time>2016-01-03T09:23:33Z</time>
      </trkpt>
      <trkpt lat="44.31987" lon="2.02934">
        <ele>351.9</ele>
        <time>2016-01-03T09:23:35Z</time>
      </trkpt>
      <trkpt lat="44.31987" lon="2.02937">
        <ele>352.6</ele>
        <time>2016-01-03T09:23:36Z</time>
      </trkpt>
      <trkpt lat="44.31985" lon="2.02939">
        <ele>352.3</ele>
        <time>2016-01-03T09:23:38Z</time>
      </trkpt>
      <trkpt lat="44.31981" lon="2.02939">
        <ele>351.7</ele>
        <time>2016-01-03T09:23:40Z</time>
      </trkpt>
      <trkpt lat="44.31977" lon="2.02942">
        <ele>351.4</ele>
        <time>2016-01-03T09:23:42Z</time>
      </trkpt>
      <trkpt lat="44.31975" lon="2.02949">
        <ele>351.9</ele>
        <time>2016-01-03T09:23:44Z</time>
      </trkpt>
      <trkpt lat="44.31975" lon="2.02953">
        <ele>352.5</ele>
        <time>2016-01-03T09:23:45Z</time>
      </trkpt>
      <trkpt lat="44.31974" lon="2.0296">
        <ele>353.3</ele>
        <time>2016-01-03T09:23:47Z</time>
      </trkpt>
      <trkpt lat="44.31974" lon="2.02964">
        <ele>353.8</ele>
        <time>2016-01-03T09:23:48Z</time>
      </trkpt>
      <trkpt lat="44.31973" lon="2.02971">
        <ele>354.7</ele>
        <time>2016-01-03T09:23:50Z</time>
      </trkpt>
      <trkpt lat="44.31972" lon="2.02978">
        <ele>355.5</ele>
        <time>2016-01-03T09:23:52Z</time>
      </trkpt>
      <trkpt lat="44.31972" lon="2.02983">
        <ele>356.1</ele>
        <time>2016-01-03T09:23:54Z</time>
      </trkpt>
      <trkpt lat="44.31971" lon="2.02988">
        <ele>356.7</ele>
        <time>2016-01-03T09:23:56Z</time>
      </trkpt>
      <trkpt lat="44.31968" lon="2.02993">
        <ele>356.9</ele>
        <time>2016-01-03T09:23:58Z</time>
      </trkpt>
      <trkpt lat="44.31969" lon="2.02999">
        <ele>357.9</ele>
        <time>2016-01-03T09:24:00Z</time>
      </trkpt>
      <trkpt lat="44.31967" lon="2.03004">
        <ele>358.3</ele>
        <time>2016-01-03T09:24:02Z</time>
      </trkpt>
      <trkpt lat="44.31967" lon="2.03009">
        <ele>359.1</ele>
        <time>2016-01-03T09:24:05Z</time>
      </trkpt>
      <trkpt lat="44.31972" lon="2.03006">
        <ele>359.5</ele>
        <time>2016-01-03T09:24:09Z</time>
      </trkpt>
      <trkpt lat="44.31972" lon="2.03002">
        <ele>358.9</ele>
        <time>2016-01-03T09:24:10Z</time>
      </trkpt>
      <trkpt lat="44.31975" lon="2.03003">
        <ele>359.8</ele>
        <time>2016-01-03T09:24:14Z</time>
      </trkpt>
      <trkpt lat="44.31977" lon="2.03007">
        <ele>360.7</ele>
        <time>2016-01-03T09:24:17Z</time>
      </trkpt>
      <trkpt lat="44.31979" lon="2.03008">
        <ele>361.5</ele>
        <time>2016-01-03T09:24:18Z</time>
      </trkpt>
      <trkpt lat="44.31982" lon="2.03002">
        <ele>361.1</ele>
        <time>2016-01-03T09:24:19Z</time>
      </trkpt>
      <trkpt lat="44.31985" lon="2.02998">
        <ele>361.1</ele>
        <time>2016-01-03T09:24:21Z</time>
      </trkpt>
      <trkpt lat="44.31988" lon="2.02992">
        <ele>360.8</ele>
        <time>2016-01-03T09:24:23Z</time>
      </trkpt>
      <trkpt lat="44.3199" lon="2.02986">
        <ele>360.3</ele>
        <time>2016-01-03T09:24:25Z</time>
      </trkpt>
      <trkpt lat="44.31992" lon="2.02982">
        <ele>360.1</ele>
        <time>2016-01-03T09:24:27Z</time>
      </trkpt>
      <trkpt lat="44.31994" lon="2.02977">
        <ele>359.7</ele>
        <time>2016-01-03T09:24:30Z</time>
      </trkpt>
      <trkpt lat="44.31995" lon="2.02973">
        <ele>359.3</ele>
        <time>2016-01-03T09:24:31Z</time>
      </trkpt>
      <trkpt lat="44.31997" lon="2.02968">
        <ele>358.9</ele>
        <time>2016-01-03T09:24:32Z</time>
      </trkpt>
      <trkpt lat="44.31999" lon="2.02966">
        <ele>358.9</ele>
        <time>2016-01-03T09:24:35Z</time>
      </trkpt>
      <trkpt lat="44.32001" lon="2.02968">
        <ele>359.7</ele>
        <time>2016-01-03T09:24:40Z</time>
      </trkpt>
      <trkpt lat="44.32003" lon="2.02962">
        <ele>359.1</ele>
        <time>2016-01-03T09:24:42Z</time>
      </trkpt>
      <trkpt lat="44.32007" lon="2.02954">
        <ele>358.7</ele>
        <time>2016-01-03T09:24:46Z</time>
      </trkpt>
      <trkpt lat="44.32007" lon="2.02949">
        <ele>357.8</ele>
        <time>2016-01-03T09:24:48Z</time>
      </trkpt>
      <trkpt lat="44.32006" lon="2.02941">
        <ele>356.4</ele>
        <time>2016-01-03T09:24:53Z</time>
      </trkpt>
      <trkpt lat="44.32009" lon="2.0294">
        <ele>356.7</ele>
        <time>2016-01-03T09:24:55Z</time>
      </trkpt>
      <trkpt lat="44.32009" lon="2.02935">
        <ele>356.1</ele>
        <time>2016-01-03T09:24:58Z</time>
      </trkpt>
      <trkpt lat="44.32012" lon="2.02931">
        <ele>355.9</ele>
        <time>2016-01-03T09:25:00Z</time>
      </trkpt>
      <trkpt lat="44.32014" lon="2.02927">
        <ele>355.7</ele>
        <time>2016-01-03T09:25:03Z</time>
      </trkpt>
      <trkpt lat="44.32016" lon="2.02923">
        <ele>355.3</ele>
        <time>2016-01-03T09:25:05Z</time>
      </trkpt>
      <trkpt lat="44.32019" lon="2.02918">
        <ele>355</ele>
        <time>2016-01-03T09:25:06Z</time>
      </trkpt>
      <trkpt lat="44.32021" lon="2.02913">
        <ele>354.4</ele>
        <time>2016-01-03T09:25:07Z</time>
      </trkpt>
      <trkpt lat="44.32023" lon="2.02905">
        <ele>353.6</ele>
        <time>2016-01-03T09:25:08Z</time>
      </trkpt>
      <trkpt lat="44.32025" lon="2.02898">
        <ele>352.7</ele>
        <time>2016-01-03T09:25:09Z</time>
      </trkpt>
      <trkpt lat="44.32028" lon="2.02901">
        <ele>353.5</ele>
        <time>2016-01-03T09:25:13Z</time>
      </trkpt>
      <trkpt lat="44.32027" lon="2.02906">
        <ele>354.2</ele>
        <time>2016-01-03T09:25:14Z</time>
      </trkpt>
      <trkpt lat="44.3203" lon="2.02901">
        <ele>354</ele>
        <time>2016-01-03T09:25:19Z</time>
      </trkpt>
      <trkpt lat="44.32032" lon="2.02895">
        <ele>353.2</ele>
        <time>2016-01-03T09:25:22Z</time>
      </trkpt>
      <trkpt lat="44.32033" lon="2.029">
        <ele>354.2</ele>
        <time>2016-01-03T09:25:24Z</time>
      </trkpt>
      <trkpt lat="44.32034" lon="2.02905">
        <ele>355.3</ele>
        <time>2016-01-03T09:25:26Z</time>
      </trkpt>
      <trkpt lat="44.3204" lon="2.02904">
        <ele>356</ele>
        <time>2016-01-03T09:25:30Z</time>
      </trkpt>
      <trkpt lat="44.32042" lon="2.02901">
        <ele>355.7</ele>
        <time>2016-01-03T09:25:32Z</time>
      </trkpt>
      <trkpt lat="44.32045" lon="2.02896">
        <ele>355.4</ele>
        <time>2016-01-03T09:25:34Z</time>
      </trkpt>
      <trkpt lat="44.32047" lon="2.0289">
        <ele>354.9</ele>
        <time>2016-01-03T09:25:36Z</time>
      </trkpt>
      <trkpt lat="44.32049" lon="2.02887">
        <ele>354.7</ele>
        <time>2016-01-03T09:25:38Z</time>
      </trkpt>
      <trkpt lat="44.32051" lon="2.02883">
        <ele>354.5</ele>
        <time>2016-01-03T09:25:40Z</time>
      </trkpt>
      <trkpt lat="44.32053" lon="2.0288">
        <ele>354.2</ele>
        <time>2016-01-03T09:25:41Z</time>
      </trkpt>
      <trkpt lat="44.32055" lon="2.02876">
        <ele>354</ele>
        <time>2016-01-03T09:25:43Z</time>
      </trkpt>
      <trkpt lat="44.32058" lon="2.02874">
        <ele>354.4</ele>
        <time>2016-01-03T09:25:46Z</time>
      </trkpt>
      <trkpt lat="44.32061" lon="2.02874">
        <ele>355.1</ele>
        <time>2016-01-03T09:25:49Z</time>
      </trkpt>
      <trkpt lat="44.32066" lon="2.02875">
        <ele>356.2</ele>
        <time>2016-01-03T09:25:52Z</time>
      </trkpt>
      <trkpt lat="44.3207" lon="2.02876">
        <ele>357.2</ele>
        <time>2016-01-03T09:25:54Z</time>
      </trkpt>
      <trkpt lat="44.32075" lon="2.02874">
        <ele>357.9</ele>
        <time>2016-01-03T09:25:56Z</time>
      </trkpt>
      <trkpt lat="44.32076" lon="2.02881">
        <ele>359.3</ele>
        <time>2016-01-03T09:25:59Z</time>
      </trkpt>
      <trkpt lat="44.32074" lon="2.02886">
        <ele>359.8</ele>
        <time>2016-01-03T09:26:01Z</time>
      </trkpt>
      <trkpt lat="44.32078" lon="2.02886">
        <ele>360.7</ele>
        <time>2016-01-03T09:26:03Z</time>
      </trkpt>
      <trkpt lat="44.32083" lon="2.02887">
        <ele>361.8</ele>
        <time>2016-01-03T09:26:06Z</time>
      </trkpt>
      <trkpt lat="44.32085" lon="2.02884">
        <ele>361.9</ele>
        <time>2016-01-03T09:26:08Z</time>
      </trkpt>
      <trkpt lat="44.32084" lon="2.02891">
        <ele>362.7</ele>
        <time>2016-01-03T09:26:09Z</time>
      </trkpt>
      <trkpt lat="44.32087" lon="2.0289">
        <ele>363.2</ele>
        <time>2016-01-03T09:26:10Z</time>
      </trkpt>
      <trkpt lat="44.32088" lon="2.02885">
        <ele>362.7</ele>
        <time>2016-01-03T09:26:12Z</time>
      </trkpt>
      <trkpt lat="44.3209" lon="2.02882">
        <ele>362.5</ele>
        <time>2016-01-03T09:26:13Z</time>
      </trkpt>
      <trkpt lat="44.32091" lon="2.02878">
        <ele>362</ele>
        <time>2016-01-03T09:26:14Z</time>
      </trkpt>
      <trkpt lat="44.32089" lon="2.02882">
        <ele>362.3</ele>
        <time>2016-01-03T09:26:19Z</time>
      </trkpt>
      <trkpt lat="44.32087" lon="2.02886">
        <ele>362.4</ele>
        <time>2016-01-03T09:26:21Z</time>
      </trkpt>
      <trkpt lat="44.32084" lon="2.02888">
        <ele>362.3</ele>
        <time>2016-01-03T09:26:23Z</time>
      </trkpt>
      <trkpt lat="44.32082" lon="2.02887">
        <ele>361.6</ele>
        <time>2016-01-03T09:26:27Z</time>
      </trkpt>
      <trkpt lat="44.32075" lon="2.02891">
        <ele>360.9</ele>
        <time>2016-01-03T09:27:03Z</time>
      </trkpt>
      <trkpt lat="44.32075" lon="2.02896">
        <ele>361.6</ele>
        <time>2016-01-03T09:27:06Z</time>
      </trkpt>
      <trkpt lat="44.32072" lon="2.02898">
        <ele>361.4</ele>
        <time>2016-01-03T09:27:08Z</time>
      </trkpt>
      <trkpt lat="44.3207" lon="2.02903">
        <ele>361.8</ele>
        <time>2016-01-03T09:27:10Z</time>
      </trkpt>
      <trkpt lat="44.32068" lon="2.02907">
        <ele>361.9</ele>
        <time>2016-01-03T09:27:12Z</time>
      </trkpt>
      <trkpt lat="44.32066" lon="2.0291">
        <ele>362.1</ele>
        <time>2016-01-03T09:27:14Z</time>
      </trkpt>
      <trkpt lat="44.32064" lon="2.02914">
        <ele>362.4</ele>
        <time>2016-01-03T09:27:16Z</time>
      </trkpt>
      <trkpt lat="44.32062" lon="2.02918">
        <ele>362.8</ele>
        <time>2016-01-03T09:27:18Z</time>
      </trkpt>
      <trkpt lat="44.32062" lon="2.02923">
        <ele>363.6</ele>
        <time>2016-01-03T09:27:20Z</time>
      </trkpt>
      <trkpt lat="44.32063" lon="2.02928">
        <ele>364.6</ele>
        <time>2016-01-03T09:27:24Z</time>
      </trkpt>
      <trkpt lat="44.32065" lon="2.02933">
        <ele>365.9</ele>
        <time>2016-01-03T09:27:26Z</time>
      </trkpt>
      <trkpt lat="44.32066" lon="2.02938">
        <ele>367</ele>
        <time>2016-01-03T09:27:28Z</time>
      </trkpt>
      <trkpt lat="44.32069" lon="2.02943">
        <ele>368.4</ele>
        <time>2016-01-03T09:27:30Z</time>
      </trkpt>
      <trkpt lat="44.32072" lon="2.02948">
        <ele>369.8</ele>
        <time>2016-01-03T09:27:32Z</time>
      </trkpt>
      <trkpt lat="44.32075" lon="2.02954">
        <ele>371.3</ele>
        <time>2016-01-03T09:27:34Z</time>
      </trkpt>
      <trkpt lat="44.32077" lon="2.0296">
        <ele>372.6</ele>
        <time>2016-01-03T09:27:36Z</time>
      </trkpt>
      <trkpt lat="44.32078" lon="2.02964">
        <ele>373.2</ele>
        <time>2016-01-03T09:27:39Z</time>
      </trkpt>
      <trkpt lat="44.32077" lon="2.02968">
        <ele>373.7</ele>
        <time>2016-01-03T09:27:43Z</time>
      </trkpt>
      <trkpt lat="44.32076" lon="2.02972">
        <ele>374</ele>
        <time>2016-01-03T09:27:47Z</time>
      </trkpt>
      <trkpt lat="44.32077" lon="2.02979">
        <ele>375.1</ele>
        <time>2016-01-03T09:27:49Z</time>
      </trkpt>
      <trkpt lat="44.32077" lon="2.02985">
        <ele>375.9</ele>
        <time>2016-01-03T09:27:52Z</time>
      </trkpt>
      <trkpt lat="44.32075" lon="2.02988">
        <ele>376.2</ele>
        <time>2016-01-03T09:27:54Z</time>
      </trkpt>
      <trkpt lat="44.32074" lon="2.02991">
        <ele>376.4</ele>
        <time>2016-01-03T09:27:57Z</time>
      </trkpt>
      <trkpt lat="44.32071" lon="2.02994">
        <ele>376.4</ele>
        <time>2016-01-03T09:27:59Z</time>
      </trkpt>
      <trkpt lat="44.3207" lon="2.02999">
        <ele>376.9</ele>
        <time>2016-01-03T09:28:02Z</time>
      </trkpt>
      <trkpt lat="44.32067" lon="2.03002">
        <ele>376.9</ele>
        <time>2016-01-03T09:28:04Z</time>
      </trkpt>
      <trkpt lat="44.32065" lon="2.03005">
        <ele>377</ele>
        <time>2016-01-03T09:28:06Z</time>
      </trkpt>
      <trkpt lat="44.32063" lon="2.03009">
        <ele>377.3</ele>
        <time>2016-01-03T09:28:08Z</time>
      </trkpt>
      <trkpt lat="44.32061" lon="2.03013">
        <ele>377.8</ele>
        <time>2016-01-03T09:28:11Z</time>
      </trkpt>
      <trkpt lat="44.32059" lon="2.03018">
        <ele>378.3</ele>
        <time>2016-01-03T09:28:14Z</time>
      </trkpt>
      <trkpt lat="44.32056" lon="2.03022">
        <ele>378.3</ele>
        <time>2016-01-03T09:28:16Z</time>
      </trkpt>
      <trkpt lat="44.32053" lon="2.03025">
        <ele>378.5</ele>
        <time>2016-01-03T09:28:19Z</time>
      </trkpt>
      <trkpt lat="44.32052" lon="2.03029">
        <ele>379</ele>
        <time>2016-01-03T09:28:22Z</time>
      </trkpt>
      <trkpt lat="44.3205" lon="2.03032">
        <ele>379.2</ele>
        <time>2016-01-03T09:28:26Z</time>
      </trkpt>
      <trkpt lat="44.32053" lon="2.03033">
        <ele>379.8</ele>
        <time>2016-01-03T09:28:28Z</time>
      </trkpt>
      <trkpt lat="44.3205" lon="2.03034">
        <ele>379.5</ele>
        <time>2016-01-03T09:28:29Z</time>
      </trkpt>
      <trkpt lat="44.32047" lon="2.03037">
        <ele>379.8</ele>
        <time>2016-01-03T09:28:34Z</time>
      </trkpt>
      <trkpt lat="44.32046" lon="2.0304">
        <ele>380.2</ele>
        <time>2016-01-03T09:28:36Z</time>
      </trkpt>
      <trkpt lat="44.32045" lon="2.03044">
        <ele>380.9</ele>
        <time>2016-01-03T09:28:38Z</time>
      </trkpt>
      <trkpt lat="44.32046" lon="2.03052">
        <ele>382.5</ele>
        <time>2016-01-03T09:28:40Z</time>
      </trkpt>
      <trkpt lat="44.32047" lon="2.03056">
        <ele>383.5</ele>
        <time>2016-01-03T09:28:41Z</time>
      </trkpt>
      <trkpt lat="44.3205" lon="2.03062">
        <ele>385</ele>
        <time>2016-01-03T09:28:43Z</time>
      </trkpt>
      <trkpt lat="44.32053" lon="2.03064">
        <ele>385.6</ele>
        <time>2016-01-03T09:28:45Z</time>
      </trkpt>
      <trkpt lat="44.32056" lon="2.03065">
        <ele>386</ele>
        <time>2016-01-03T09:28:47Z</time>
      </trkpt>
      <trkpt lat="44.32059" lon="2.0306">
        <ele>385.3</ele>
        <time>2016-01-03T09:28:49Z</time>
      </trkpt>
      <trkpt lat="44.32056" lon="2.03061">
        <ele>385.3</ele>
        <time>2016-01-03T09:28:51Z</time>
      </trkpt>
      <trkpt lat="44.32053" lon="2.03064">
        <ele>385.6</ele>
        <time>2016-01-03T09:28:53Z</time>
      </trkpt>
      <trkpt lat="44.32052" lon="2.03071">
        <ele>386.8</ele>
        <time>2016-01-03T09:28:55Z</time>
      </trkpt>
      <trkpt lat="44.32052" lon="2.03075">
        <ele>387.8</ele>
        <time>2016-01-03T09:28:57Z</time>
      </trkpt>
      <trkpt lat="44.3205" lon="2.0308">
        <ele>388.6</ele>
        <time>2016-01-03T09:28:59Z</time>
      </trkpt>
      <trkpt lat="44.32049" lon="2.03084">
        <ele>389.3</ele>
        <time>2016-01-03T09:29:01Z</time>
      </trkpt>
      <trkpt lat="44.32046" lon="2.03086">
        <ele>389.8</ele>
        <time>2016-01-03T09:29:04Z</time>
      </trkpt>
      <trkpt lat="44.32045" lon="2.03091">
        <ele>390.7</ele>
        <time>2016-01-03T09:29:06Z</time>
      </trkpt>
      <trkpt lat="44.32046" lon="2.03097">
        <ele>392.1</ele>
        <time>2016-01-03T09:29:08Z</time>
      </trkpt>
      <trkpt lat="44.32048" lon="2.03103">
        <ele>393.2</ele>
        <time>2016-01-03T09:29:09Z</time>
      </trkpt>
      <trkpt lat="44.32052" lon="2.03097">
        <ele>392</ele>
        <time>2016-01-03T09:29:12Z</time>
      </trkpt>
      <trkpt lat="44.32053" lon="2.03092">
        <ele>391.1</ele>
        <time>2016-01-03T09:29:14Z</time>
      </trkpt>
      <trkpt lat="44.32053" lon="2.03096">
        <ele>391.9</ele>
        <time>2016-01-03T09:29:19Z</time>
      </trkpt>
      <trkpt lat="44.32054" lon="2.031">
        <ele>392.7</ele>
        <time>2016-01-03T09:29:27Z</time>
      </trkpt>
      <trkpt lat="44.32053" lon="2.03105">
        <ele>393.7</ele>
        <time>2016-01-03T09:29:28Z</time>
      </trkpt>
      <trkpt lat="44.3205" lon="2.03107">
        <ele>394.1</ele>
        <time>2016-01-03T09:29:30Z</time>
      </trkpt>
      <trkpt lat="44.32047" lon="2.03107">
        <ele>394</ele>
        <time>2016-01-03T09:29:31Z</time>
      </trkpt>
      <trkpt lat="44.32044" lon="2.03107">
        <ele>394.1</ele>
        <time>2016-01-03T09:29:32Z</time>
      </trkpt>
      <trkpt lat="44.32031" lon="2.03148">
        <ele>402.7</ele>
        <time>2016-01-03T09:30:25Z</time>
      </trkpt>
      <trkpt lat="44.32032" lon="2.03153">
        <ele>404.2</ele>
        <time>2016-01-03T09:30:28Z</time>
      </trkpt>
      <trkpt lat="44.32032" lon="2.03157">
        <ele>405.6</ele>
        <time>2016-01-03T09:30:32Z</time>
      </trkpt>
      <trkpt lat="44.3203" lon="2.03161">
        <ele>406.5</ele>
        <time>2016-01-03T09:30:36Z</time>
      </trkpt>
      <trkpt lat="44.32029" lon="2.03169">
        <ele>408.6</ele>
        <time>2016-01-03T09:30:56Z</time>
      </trkpt>
      <trkpt lat="44.32027" lon="2.03174">
        <ele>409.8</ele>
        <time>2016-01-03T09:31:03Z</time>
      </trkpt>
      <trkpt lat="44.32025" lon="2.03177">
        <ele>410.6</ele>
        <time>2016-01-03T09:31:05Z</time>
      </trkpt>
      <trkpt lat="44.32026" lon="2.03181">
        <ele>412</ele>
        <time>2016-01-03T09:31:11Z</time>
      </trkpt>
      <trkpt lat="44.32028" lon="2.03187">
        <ele>414.1</ele>
        <time>2016-01-03T09:31:16Z</time>
      </trkpt>
      <trkpt lat="44.32029" lon="2.03192">
        <ele>415.8</ele>
        <time>2016-01-03T09:31:18Z</time>
      </trkpt>
      <trkpt lat="44.32029" lon="2.03197">
        <ele>417.3</ele>
        <time>2016-01-03T09:31:21Z</time>
      </trkpt>
      <trkpt lat="44.3203" lon="2.03201">
        <ele>418.8</ele>
        <time>2016-01-03T09:31:25Z</time>
      </trkpt>
      <trkpt lat="44.32031" lon="2.03204">
        <ele>420.1</ele>
        <time>2016-01-03T09:31:28Z</time>
      </trkpt>
      <trkpt lat="44.32033" lon="2.03208">
        <ele>421.6</ele>
        <time>2016-01-03T09:31:30Z</time>
      </trkpt>
      <trkpt lat="44.32035" lon="2.0321">
        <ele>422.5</ele>
        <time>2016-01-03T09:31:38Z</time>
      </trkpt>
      <trkpt lat="44.32032" lon="2.03212">
        <ele>422.5</ele>
        <time>2016-01-03T09:31:43Z</time>
      </trkpt>
      <trkpt lat="44.32029" lon="2.03217">
        <ele>423.3</ele>
        <time>2016-01-03T09:31:50Z</time>
      </trkpt>
      <trkpt lat="44.32025" lon="2.0322">
        <ele>423.5</ele>
        <time>2016-01-03T09:31:53Z</time>
      </trkpt>
      <trkpt lat="44.32025" lon="2.03224">
        <ele>424.6</ele>
        <time>2016-01-03T09:31:55Z</time>
      </trkpt>
      <trkpt lat="44.32024" lon="2.03227">
        <ele>425.5</ele>
        <time>2016-01-03T09:31:58Z</time>
      </trkpt>
      <trkpt lat="44.32021" lon="2.03226">
        <ele>424.7</ele>
        <time>2016-01-03T09:32:05Z</time>
      </trkpt>
      <trkpt lat="44.32019" lon="2.03227">
        <ele>424.7</ele>
        <time>2016-01-03T09:32:08Z</time>
      </trkpt>
      <trkpt lat="44.32022" lon="2.03228">
        <ele>425.5</ele>
        <time>2016-01-03T09:32:22Z</time>
      </trkpt>
      <trkpt lat="44.32024" lon="2.03226">
        <ele>425.2</ele>
        <time>2016-01-03T09:32:24Z</time>
      </trkpt>
      <trkpt lat="44.31977" lon="2.03345">
        <ele>455.2</ele>
        <time>2016-01-03T09:35:08Z</time>
      </trkpt>
      <trkpt lat="44.31975" lon="2.0335">
        <ele>456.6</ele>
        <time>2016-01-03T09:35:11Z</time>
      </trkpt>
      <trkpt lat="44.31975" lon="2.03355">
        <ele>458</ele>
        <time>2016-01-03T09:35:13Z</time>
      </trkpt>
      <trkpt lat="44.31975" lon="2.0336">
        <ele>459.2</ele>
        <time>2016-01-03T09:35:15Z</time>
      </trkpt>
      <trkpt lat="44.31975" lon="2.03364">
        <ele>460.2</ele>
        <time>2016-01-03T09:35:18Z</time>
      </trkpt>
      <trkpt lat="44.31972" lon="2.03359">
        <ele>459.1</ele>
        <time>2016-01-03T09:35:22Z</time>
      </trkpt>
      <trkpt lat="44.31972" lon="2.03353">
        <ele>457.8</ele>
        <time>2016-01-03T09:35:24Z</time>
      </trkpt>
      <trkpt lat="44.31968" lon="2.03355">
        <ele>458.5</ele>
        <time>2016-01-03T09:35:26Z</time>
      </trkpt>
      <trkpt lat="44.31968" lon="2.03359">
        <ele>459.6</ele>
        <time>2016-01-03T09:35:27Z</time>
      </trkpt>
      <trkpt lat="44.31958" lon="2.03376">
        <ele>465.1</ele>
        <time>2016-01-03T09:35:49Z</time>
      </trkpt>
      <trkpt lat="44.31956" lon="2.03379">
        <ele>465.2</ele>
        <time>2016-01-03T09:35:53Z</time>
      </trkpt>
      <trkpt lat="44.31954" lon="2.03382">
        <ele>465.4</ele>
        <time>2016-01-03T09:35:56Z</time>
      </trkpt>
      <trkpt lat="44.31951" lon="2.03383">
        <ele>465.4</ele>
        <time>2016-01-03T09:35:59Z</time>
      </trkpt>
      <trkpt lat="44.31948" lon="2.03383">
        <ele>465.2</ele>
        <time>2016-01-03T09:36:01Z</time>
      </trkpt>
      <trkpt lat="44.31945" lon="2.03385">
        <ele>465.3</ele>
        <time>2016-01-03T09:36:03Z</time>
      </trkpt>
      <trkpt lat="44.3193" lon="2.03413">
        <ele>468.3</ele>
        <time>2016-01-03T09:36:16Z</time>
      </trkpt>
      <trkpt lat="44.31927" lon="2.03415">
        <ele>468.6</ele>
        <time>2016-01-03T09:36:17Z</time>
      </trkpt>
      <trkpt lat="44.31924" lon="2.03415">
        <ele>468.7</ele>
        <time>2016-01-03T09:36:18Z</time>
      </trkpt>
      <trkpt lat="44.3192" lon="2.03416">
        <ele>468.9</ele>
        <time>2016-01-03T09:36:19Z</time>
      </trkpt>
      <trkpt lat="44.31918" lon="2.03421">
        <ele>469.6</ele>
        <time>2016-01-03T09:36:23Z</time>
      </trkpt>
      <trkpt lat="44.31917" lon="2.03425">
        <ele>470.3</ele>
        <time>2016-01-03T09:36:25Z</time>
      </trkpt>
      <trkpt lat="44.31915" lon="2.03428">
        <ele>470.8</ele>
        <time>2016-01-03T09:36:26Z</time>
      </trkpt>
      <trkpt lat="44.31911" lon="2.03417">
        <ele>469.1</ele>
        <time>2016-01-03T09:36:32Z</time>
      </trkpt>
      <trkpt lat="44.31909" lon="2.03419">
        <ele>469.5</ele>
        <time>2016-01-03T09:36:35Z</time>
      </trkpt>
      <trkpt lat="44.31903" lon="2.03421">
        <ele>469.9</ele>
        <time>2016-01-03T09:36:38Z</time>
      </trkpt>
      <trkpt lat="44.319" lon="2.03425">
        <ele>470.8</ele>
        <time>2016-01-03T09:36:40Z</time>
      </trkpt>
      <trkpt lat="44.31897" lon="2.03426">
        <ele>471.1</ele>
        <time>2016-01-03T09:36:42Z</time>
      </trkpt>
      <trkpt lat="44.31894" lon="2.03429">
        <ele>471.7</ele>
        <time>2016-01-03T09:36:45Z</time>
      </trkpt>
      <trkpt lat="44.31892" lon="2.03433">
        <ele>472.6</ele>
        <time>2016-01-03T09:36:48Z</time>
      </trkpt>
      <trkpt lat="44.31893" lon="2.03438">
        <ele>473.5</ele>
        <time>2016-01-03T09:36:50Z</time>
      </trkpt>
      <trkpt lat="44.31893" lon="2.03442">
        <ele>474.3</ele>
        <time>2016-01-03T09:36:53Z</time>
      </trkpt>
      <trkpt lat="44.31891" lon="2.03447">
        <ele>475.3</ele>
        <time>2016-01-03T09:36:56Z</time>
      </trkpt>
      <trkpt lat="44.31889" lon="2.0345">
        <ele>476.1</ele>
        <time>2016-01-03T09:36:59Z</time>
      </trkpt>
      <trkpt lat="44.31888" lon="2.03454">
        <ele>476.9</ele>
        <time>2016-01-03T09:37:01Z</time>
      </trkpt>
      <trkpt lat="44.31885" lon="2.03456">
        <ele>477.7</ele>
        <time>2016-01-03T09:37:03Z</time>
      </trkpt>
      <trkpt lat="44.31882" lon="2.03457">
        <ele>478.1</ele>
        <time>2016-01-03T09:37:05Z</time>
      </trkpt>
      <trkpt lat="44.3188" lon="2.0346">
        <ele>478.8</ele>
        <time>2016-01-03T09:37:07Z</time>
      </trkpt>
      <trkpt lat="44.31877" lon="2.03462">
        <ele>479.4</ele>
        <time>2016-01-03T09:37:09Z</time>
      </trkpt>
      <trkpt lat="44.31869" lon="2.03482">
        <ele>482.9</ele>
        <time>2016-01-03T09:37:19Z</time>
      </trkpt>
      <trkpt lat="44.31866" lon="2.03482">
        <ele>483</ele>
        <time>2016-01-03T09:37:21Z</time>
      </trkpt>
      <trkpt lat="44.31865" lon="2.03486">
        <ele>483.6</ele>
        <time>2016-01-03T09:37:23Z</time>
      </trkpt>
      <trkpt lat="44.31862" lon="2.03491">
        <ele>484.4</ele>
        <time>2016-01-03T09:37:28Z</time>
      </trkpt>
      <trkpt lat="44.31859" lon="2.03495">
        <ele>485.1</ele>
        <time>2016-01-03T09:37:30Z</time>
      </trkpt>
      <trkpt lat="44.3187" lon="2.03552">
        <ele>493</ele>
        <time>2016-01-03T09:38:07Z</time>
      </trkpt>
      <trkpt lat="44.31873" lon="2.03557">
        <ele>493.3</ele>
        <time>2016-01-03T09:38:09Z</time>
      </trkpt>
      <trkpt lat="44.31875" lon="2.0356">
        <ele>493.5</ele>
        <time>2016-01-03T09:38:12Z</time>
      </trkpt>
      <trkpt lat="44.31877" lon="2.03563">
        <ele>493.5</ele>
        <time>2016-01-03T09:38:15Z</time>
      </trkpt>
      <trkpt lat="44.3188" lon="2.03567">
        <ele>493.4</ele>
        <time>2016-01-03T09:38:19Z</time>
      </trkpt>
      <trkpt lat="44.31882" lon="2.03571">
        <ele>493.4</ele>
        <time>2016-01-03T09:38:21Z</time>
      </trkpt>
      <trkpt lat="44.31884" lon="2.03575">
        <ele>493.4</ele>
        <time>2016-01-03T09:38:23Z</time>
      </trkpt>
      <trkpt lat="44.31886" lon="2.0358">
        <ele>493.6</ele>
        <time>2016-01-03T09:38:25Z</time>
      </trkpt>
      <trkpt lat="44.31888" lon="2.03591">
        <ele>494.2</ele>
        <time>2016-01-03T09:38:27Z</time>
      </trkpt>
      <trkpt lat="44.31888" lon="2.03597">
        <ele>494.7</ele>
        <time>2016-01-03T09:38:30Z</time>
      </trkpt>
      <trkpt lat="44.31889" lon="2.03603">
        <ele>495.2</ele>
        <time>2016-01-03T09:38:36Z</time>
      </trkpt>
      <trkpt lat="44.3189" lon="2.0361">
        <ele>495.7</ele>
        <time>2016-01-03T09:38:37Z</time>
      </trkpt>
      <trkpt lat="44.31895" lon="2.03619">
        <ele>495.9</ele>
        <time>2016-01-03T09:38:38Z</time>
      </trkpt>
      <trkpt lat="44.31898" lon="2.03626">
        <ele>496.1</ele>
        <time>2016-01-03T09:38:39Z</time>
      </trkpt>
      <trkpt lat="44.31901" lon="2.03633">
        <ele>496.1</ele>
        <time>2016-01-03T09:38:40Z</time>
      </trkpt>
      <trkpt lat="44.31904" lon="2.03638">
        <ele>496.1</ele>
        <time>2016-01-03T09:38:41Z</time>
      </trkpt>
      <trkpt lat="44.31906" lon="2.03644">
        <ele>496.1</ele>
        <time>2016-01-03T09:38:42Z</time>
      </trkpt>
      <trkpt lat="44.31909" lon="2.03652">
        <ele>496.3</ele>
        <time>2016-01-03T09:38:43Z</time>
      </trkpt>
      <trkpt lat="44.31912" lon="2.0366">
        <ele>496.5</ele>
        <time>2016-01-03T09:38:44Z</time>
      </trkpt>
      <trkpt lat="44.31915" lon="2.03667">
        <ele>496.7</ele>
        <time>2016-01-03T09:38:45Z</time>
      </trkpt>
      <trkpt lat="44.31917" lon="2.03673">
        <ele>496.9</ele>
        <time>2016-01-03T09:38:46Z</time>
      </trkpt>
      <trkpt lat="44.31919" lon="2.03678">
        <ele>497.1</ele>
        <time>2016-01-03T09:38:47Z</time>
      </trkpt>
      <trkpt lat="44.31921" lon="2.03682">
        <ele>497.2</ele>
        <time>2016-01-03T09:38:48Z</time>
      </trkpt>
      <trkpt lat="44.31924" lon="2.03686">
        <ele>497.1</ele>
        <time>2016-01-03T09:38:49Z</time>
      </trkpt>
      <trkpt lat="44.31927" lon="2.03689">
        <ele>497.1</ele>
        <time>2016-01-03T09:38:50Z</time>
      </trkpt>
      <trkpt lat="44.3193" lon="2.03691">
        <ele>497</ele>
        <time>2016-01-03T09:38:51Z</time>
      </trkpt>
      <trkpt lat="44.31932" lon="2.03693">
        <ele>497</ele>
        <time>2016-01-03T09:38:52Z</time>
      </trkpt>
      <trkpt lat="44.31935" lon="2.03696">
        <ele>496.9</ele>
        <time>2016-01-03T09:38:53Z</time>
      </trkpt>
      <trkpt lat="44.31939" lon="2.03701">
        <ele>497</ele>
        <time>2016-01-03T09:38:55Z</time>
      </trkpt>
      <trkpt lat="44.31942" lon="2.03699">
        <ele>496.5</ele>
        <time>2016-01-03T09:38:57Z</time>
      </trkpt>
      <trkpt lat="44.31948" lon="2.03698">
        <ele>496</ele>
        <time>2016-01-03T09:38:59Z</time>
      </trkpt>
      <trkpt lat="44.31952" lon="2.03701">
        <ele>495.9</ele>
        <time>2016-01-03T09:39:00Z</time>
      </trkpt>
      <trkpt lat="44.31954" lon="2.03705">
        <ele>496</ele>
        <time>2016-01-03T09:39:02Z</time>
      </trkpt>
      <trkpt lat="44.31953" lon="2.0371">
        <ele>496.5</ele>
        <time>2016-01-03T09:39:04Z</time>
      </trkpt>
      <trkpt lat="44.31951" lon="2.03702">
        <ele>496.1</ele>
        <time>2016-01-03T09:39:05Z</time>
      </trkpt>
      <trkpt lat="44.31954" lon="2.03703">
        <ele>495.9</ele>
        <time>2016-01-03T09:39:06Z</time>
      </trkpt>
      <trkpt lat="44.31957" lon="2.03707">
        <ele>496</ele>
        <time>2016-01-03T09:39:08Z</time>
      </trkpt>
      <trkpt lat="44.31958" lon="2.03711">
        <ele>496.2</ele>
        <time>2016-01-03T09:39:09Z</time>
      </trkpt>
      <trkpt lat="44.31958" lon="2.03717">
        <ele>496.3</ele>
        <time>2016-01-03T09:39:10Z</time>
      </trkpt>
      <trkpt lat="44.31959" lon="2.03722">
        <ele>496.4</ele>
        <time>2016-01-03T09:39:11Z</time>
      </trkpt>
      <trkpt lat="44.31964" lon="2.03722">
        <ele>496.2</ele>
        <time>2016-01-03T09:39:12Z</time>
      </trkpt>
      <trkpt lat="44.31967" lon="2.03721">
        <ele>496</ele>
        <time>2016-01-03T09:39:13Z</time>
      </trkpt>
      <trkpt lat="44.31969" lon="2.03725">
        <ele>496</ele>
        <time>2016-01-03T09:39:14Z</time>
      </trkpt>
      <trkpt lat="44.31973" lon="2.0373">
        <ele>496</ele>
        <time>2016-01-03T09:39:16Z</time>
      </trkpt>
      <trkpt lat="44.31975" lon="2.03735">
        <ele>496.1</ele>
        <time>2016-01-03T09:39:18Z</time>
      </trkpt>
      <trkpt lat="44.31977" lon="2.03737">
        <ele>496.1</ele>
        <time>2016-01-03T09:39:19Z</time>
      </trkpt>
      <trkpt lat="44.3198" lon="2.03738">
        <ele>496</ele>
        <time>2016-01-03T09:39:20Z</time>
      </trkpt>
      <trkpt lat="44.31982" lon="2.03741">
        <ele>496</ele>
        <time>2016-01-03T09:39:21Z</time>
      </trkpt>
      <trkpt lat="44.31985" lon="2.03744">
        <ele>496</ele>
        <time>2016-01-03T09:39:22Z</time>
      </trkpt>
      <trkpt lat="44.31988" lon="2.03747">
        <ele>495.9</ele>
        <time>2016-01-03T09:39:23Z</time>
      </trkpt>
      <trkpt lat="44.31991" lon="2.03752">
        <ele>496</ele>
        <time>2016-01-03T09:39:25Z</time>
      </trkpt>
      <trkpt lat="44.31994" lon="2.03756">
        <ele>496.1</ele>
        <time>2016-01-03T09:39:27Z</time>
      </trkpt>
      <trkpt lat="44.31997" lon="2.03761">
        <ele>496.1</ele>
        <time>2016-01-03T09:39:29Z</time>
      </trkpt>
      <trkpt lat="44.32" lon="2.03765">
        <ele>496.2</ele>
        <time>2016-01-03T09:39:31Z</time>
      </trkpt>
      <trkpt lat="44.32004" lon="2.03768">
        <ele>496.2</ele>
        <time>2016-01-03T09:39:33Z</time>
      </trkpt>
      <trkpt lat="44.32007" lon="2.03772">
        <ele>496.2</ele>
        <time>2016-01-03T09:39:35Z</time>
      </trkpt>
      <trkpt lat="44.32011" lon="2.03775">
        <ele>496.2</ele>
        <time>2016-01-03T09:39:37Z</time>
      </trkpt>
      <trkpt lat="44.32014" lon="2.03775">
        <ele>496.1</ele>
        <time>2016-01-03T09:39:41Z</time>
      </trkpt>
      <trkpt lat="44.32017" lon="2.03778">
        <ele>496.1</ele>
        <time>2016-01-03T09:39:43Z</time>
      </trkpt>
      <trkpt lat="44.32019" lon="2.03781">
        <ele>496.3</ele>
        <time>2016-01-03T09:39:46Z</time>
      </trkpt>
      <trkpt lat="44.3202" lon="2.03785">
        <ele>496.4</ele>
        <time>2016-01-03T09:39:48Z</time>
      </trkpt>
      <trkpt lat="44.32018" lon="2.03782">
        <ele>496.3</ele>
        <time>2016-01-03T09:39:49Z</time>
      </trkpt>
      <trkpt lat="44.32015" lon="2.03776">
        <ele>496.2</ele>
        <time>2016-01-03T09:39:50Z</time>
      </trkpt>
      <trkpt lat="44.32012" lon="2.03772">
        <ele>496.1</ele>
        <time>2016-01-03T09:39:52Z</time>
      </trkpt>
      <trkpt lat="44.32008" lon="2.03776">
        <ele>496.4</ele>
        <time>2016-01-03T09:39:57Z</time>
      </trkpt>
      <trkpt lat="44.32005" lon="2.03778">
        <ele>496.6</ele>
        <time>2016-01-03T09:40:00Z</time>
      </trkpt>
      <trkpt lat="44.32001" lon="2.0378">
        <ele>496.9</ele>
        <time>2016-01-03T09:40:02Z</time>
      </trkpt>
      <trkpt lat="44.31998" lon="2.03784">
        <ele>497.2</ele>
        <time>2016-01-03T09:40:03Z</time>
      </trkpt>
      <trkpt lat="44.31996" lon="2.03789">
        <ele>497.5</ele>
        <time>2016-01-03T09:40:04Z</time>
      </trkpt>
      <trkpt lat="44.31994" lon="2.03794">
        <ele>497.9</ele>
        <time>2016-01-03T09:40:05Z</time>
      </trkpt>
      <trkpt lat="44.31998" lon="2.03801">
        <ele>498.3</ele>
        <time>2016-01-03T09:40:06Z</time>
      </trkpt>
      <trkpt lat="44.31997" lon="2.03806">
        <ele>498.7</ele>
        <time>2016-01-03T09:40:07Z</time>
      </trkpt>
      <trkpt lat="44.31997" lon="2.03812">
        <ele>499.2</ele>
        <time>2016-01-03T09:40:08Z</time>
      </trkpt>
      <trkpt lat="44.32001" lon="2.03815">
        <ele>499.3</ele>
        <time>2016-01-03T09:40:09Z</time>
      </trkpt>
      <trkpt lat="44.32007" lon="2.03819">
        <ele>499.4</ele>
        <time>2016-01-03T09:40:10Z</time>
      </trkpt>
      <trkpt lat="44.3201" lon="2.0382">
        <ele>499.4</ele>
        <time>2016-01-03T09:40:11Z</time>
      </trkpt>
      <trkpt lat="44.32016" lon="2.03822">
        <ele>499.3</ele>
        <time>2016-01-03T09:40:12Z</time>
      </trkpt>
      <trkpt lat="44.3202" lon="2.03823">
        <ele>499.3</ele>
        <time>2016-01-03T09:40:16Z</time>
      </trkpt>
      <trkpt lat="44.32024" lon="2.03825">
        <ele>499.4</ele>
        <time>2016-01-03T09:40:18Z</time>
      </trkpt>
      <trkpt lat="44.32026" lon="2.0383">
        <ele>499.7</ele>
        <time>2016-01-03T09:40:19Z</time>
      </trkpt>
      <trkpt lat="44.32028" lon="2.03834">
        <ele>500</ele>
        <time>2016-01-03T09:40:21Z</time>
      </trkpt>
      <trkpt lat="44.32031" lon="2.03838">
        <ele>500.2</ele>
        <time>2016-01-03T09:40:23Z</time>
      </trkpt>
      <trkpt lat="44.32032" lon="2.03842">
        <ele>500.5</ele>
        <time>2016-01-03T09:40:25Z</time>
      </trkpt>
      <trkpt lat="44.32034" lon="2.03859">
        <ele>501.8</ele>
        <time>2016-01-03T09:40:48Z</time>
      </trkpt>
      <trkpt lat="44.32031" lon="2.03854">
        <ele>501.5</ele>
        <time>2016-01-03T09:40:50Z</time>
      </trkpt>
      <trkpt lat="44.32029" lon="2.03851">
        <ele>501.3</ele>
        <time>2016-01-03T09:40:52Z</time>
      </trkpt>
      <trkpt lat="44.32028" lon="2.03852">
        <ele>501.4</ele>
        <time>2016-01-03T09:40:54Z</time>
      </trkpt>
      <trkpt lat="44.32031" lon="2.03854">
        <ele>501.5</ele>
        <time>2016-01-03T09:40:59Z</time>
      </trkpt>
      <trkpt lat="44.32034" lon="2.03855">
        <ele>501.6</ele>
        <time>2016-01-03T09:41:00Z</time>
      </trkpt>
      <trkpt lat="44.32036" lon="2.03861">
        <ele>502</ele>
        <time>2016-01-03T09:41:01Z</time>
      </trkpt>
      <trkpt lat="44.32037" lon="2.03864">
        <ele>502.2</ele>
        <time>2016-01-03T09:41:02Z</time>
      </trkpt>
      <trkpt lat="44.32039" lon="2.03869">
        <ele>502.5</ele>
        <time>2016-01-03T09:41:04Z</time>
      </trkpt>
      <trkpt lat="44.32042" lon="2.03874">
        <ele>502.9</ele>
        <time>2016-01-03T09:41:06Z</time>
      </trkpt>
      <trkpt lat="44.32046" lon="2.03878">
        <ele>503.3</ele>
        <time>2016-01-03T09:41:08Z</time>
      </trkpt>
      <trkpt lat="44.32047" lon="2.03883">
        <ele>503.8</ele>
        <time>2016-01-03T09:41:10Z</time>
      </trkpt>
      <trkpt lat="44.32049" lon="2.03888">
        <ele>504.2</ele>
        <time>2016-01-03T09:41:13Z</time>
      </trkpt>
      <trkpt lat="44.3205" lon="2.03895">
        <ele>504.8</ele>
        <time>2016-01-03T09:42:26Z</time>
      </trkpt>
      <trkpt lat="44.32053" lon="2.03893">
        <ele>504.7</ele>
        <time>2016-01-03T09:42:27Z</time>
      </trkpt>
      <trkpt lat="44.32056" lon="2.0389">
        <ele>504.5</ele>
        <time>2016-01-03T09:42:28Z</time>
      </trkpt>
      <trkpt lat="44.32059" lon="2.03887">
        <ele>504.3</ele>
        <time>2016-01-03T09:42:29Z</time>
      </trkpt>
      <trkpt lat="44.32063" lon="2.03884">
        <ele>504.2</ele>
        <time>2016-01-03T09:42:30Z</time>
      </trkpt>
      <trkpt lat="44.32066" lon="2.03883">
        <ele>504.2</ele>
        <time>2016-01-03T09:42:31Z</time>
      </trkpt>
      <trkpt lat="44.32069" lon="2.03882">
        <ele>504.2</ele>
        <time>2016-01-03T09:42:32Z</time>
      </trkpt>
      <trkpt lat="44.32073" lon="2.03881">
        <ele>504.2</ele>
        <time>2016-01-03T09:42:33Z</time>
      </trkpt>
      <trkpt lat="44.32078" lon="2.03881">
        <ele>504.2</ele>
        <time>2016-01-03T09:42:34Z</time>
      </trkpt>
      <trkpt lat="44.32082" lon="2.03879">
        <ele>504.2</ele>
        <time>2016-01-03T09:42:35Z</time>
      </trkpt>
      <trkpt lat="44.32087" lon="2.03878">
        <ele>504.2</ele>
        <time>2016-01-03T09:42:36Z</time>
      </trkpt>
      <trkpt lat="44.32091" lon="2.03877">
        <ele>504.3</ele>
        <time>2016-01-03T09:42:37Z</time>
      </trkpt>
      <trkpt lat="44.32096" lon="2.03877">
        <ele>504.4</ele>
        <time>2016-01-03T09:42:38Z</time>
      </trkpt>
      <trkpt lat="44.32102" lon="2.03876">
        <ele>504.5</ele>
        <time>2016-01-03T09:42:39Z</time>
      </trkpt>
      <trkpt lat="44.32107" lon="2.03874">
        <ele>504.5</ele>
        <time>2016-01-03T09:42:40Z</time>
      </trkpt>
      <trkpt lat="44.32112" lon="2.03872">
        <ele>504.3</ele>
        <time>2016-01-03T09:42:41Z</time>
      </trkpt>
      <trkpt lat="44.32116" lon="2.03869">
        <ele>504.1</ele>
        <time>2016-01-03T09:42:42Z</time>
      </trkpt>
      <trkpt lat="44.3212" lon="2.03867">
        <ele>504</ele>
        <time>2016-01-03T09:42:43Z</time>
      </trkpt>
      <trkpt lat="44.32124" lon="2.03864">
        <ele>503.8</ele>
        <time>2016-01-03T09:42:44Z</time>
      </trkpt>
      <trkpt lat="44.32129" lon="2.03862">
        <ele>503.6</ele>
        <time>2016-01-03T09:42:45Z</time>
      </trkpt>
      <trkpt lat="44.32133" lon="2.03858">
        <ele>503.3</ele>
        <time>2016-01-03T09:42:46Z</time>
      </trkpt>
      <trkpt lat="44.32138" lon="2.03857">
        <ele>503.2</ele>
        <time>2016-01-03T09:42:47Z</time>
      </trkpt>
      <trkpt lat="44.32144" lon="2.03856">
        <ele>503.1</ele>
        <time>2016-01-03T09:42:48Z</time>
      </trkpt>
      <trkpt lat="44.32148" lon="2.03856">
        <ele>503.2</ele>
        <time>2016-01-03T09:42:49Z</time>
      </trkpt>
      <trkpt lat="44.32153" lon="2.03857">
        <ele>503.4</ele>
        <time>2016-01-03T09:42:50Z</time>
      </trkpt>
      <trkpt lat="44.32158" lon="2.03858">
        <ele>503.5</ele>
        <time>2016-01-03T09:42:51Z</time>
      </trkpt>
      <trkpt lat="44.32162" lon="2.03858">
        <ele>503.5</ele>
        <time>2016-01-03T09:42:52Z</time>
      </trkpt>
      <trkpt lat="44.32167" lon="2.03856">
        <ele>503.4</ele>
        <time>2016-01-03T09:42:53Z</time>
      </trkpt>
      <trkpt lat="44.32173" lon="2.03853">
        <ele>503.1</ele>
        <time>2016-01-03T09:42:54Z</time>
      </trkpt>
      <trkpt lat="44.32178" lon="2.03852">
        <ele>503</ele>
        <time>2016-01-03T09:42:55Z</time>
      </trkpt>
      <trkpt lat="44.32183" lon="2.03851">
        <ele>502.8</ele>
        <time>2016-01-03T09:42:56Z</time>
      </trkpt>
      <trkpt lat="44.32189" lon="2.03848">
        <ele>502.5</ele>
        <time>2016-01-03T09:42:57Z</time>
      </trkpt>
      <trkpt lat="44.32196" lon="2.03846">
        <ele>502.4</ele>
        <time>2016-01-03T09:42:58Z</time>
      </trkpt>
      <trkpt lat="44.32204" lon="2.03844">
        <ele>502.3</ele>
        <time>2016-01-03T09:42:59Z</time>
      </trkpt>
      <trkpt lat="44.32211" lon="2.03841">
        <ele>501.9</ele>
        <time>2016-01-03T09:43:00Z</time>
      </trkpt>
      <trkpt lat="44.32217" lon="2.0384">
        <ele>501.6</ele>
        <time>2016-01-03T09:43:01Z</time>
      </trkpt>
      <trkpt lat="44.32222" lon="2.03838">
        <ele>501.3</ele>
        <time>2016-01-03T09:43:02Z</time>
      </trkpt>
      <trkpt lat="44.32229" lon="2.03837">
        <ele>501</ele>
        <time>2016-01-03T09:43:03Z</time>
      </trkpt>
      <trkpt lat="44.32235" lon="2.03834">
        <ele>500.6</ele>
        <time>2016-01-03T09:43:04Z</time>
      </trkpt>
      <trkpt lat="44.32241" lon="2.03832">
        <ele>500.2</ele>
        <time>2016-01-03T09:43:05Z</time>
      </trkpt>
      <trkpt lat="44.32247" lon="2.03828">
        <ele>499.7</ele>
        <time>2016-01-03T09:43:06Z</time>
      </trkpt>
      <trkpt lat="44.32252" lon="2.03823">
        <ele>499.2</ele>
        <time>2016-01-03T09:43:07Z</time>
      </trkpt>
      <trkpt lat="44.32257" lon="2.0382">
        <ele>498.8</ele>
        <time>2016-01-03T09:43:08Z</time>
      </trkpt>
      <trkpt lat="44.32261" lon="2.03816">
        <ele>498.4</ele>
        <time>2016-01-03T09:43:09Z</time>
      </trkpt>
      <trkpt lat="44.32264" lon="2.03814">
        <ele>498.1</ele>
        <time>2016-01-03T09:43:10Z</time>
      </trkpt>
      <trkpt lat="44.32268" lon="2.03811">
        <ele>497.8</ele>
        <time>2016-01-03T09:43:11Z</time>
      </trkpt>
      <trkpt lat="44.32271" lon="2.03807">
        <ele>497.4</ele>
        <time>2016-01-03T09:43:12Z</time>
      </trkpt>
      <trkpt lat="44.32275" lon="2.03803">
        <ele>497.1</ele>
        <time>2016-01-03T09:43:13Z</time>
      </trkpt>
      <trkpt lat="44.32278" lon="2.038">
        <ele>496.8</ele>
        <time>2016-01-03T09:43:14Z</time>
      </trkpt>
      <trkpt lat="44.32281" lon="2.03797">
        <ele>496.5</ele>
        <time>2016-01-03T09:43:15Z</time>
      </trkpt>
      <trkpt lat="44.32285" lon="2.03793">
        <ele>496.1</ele>
        <time>2016-01-03T09:43:16Z</time>
      </trkpt>
      <trkpt lat="44.32289" lon="2.03789">
        <ele>495.8</ele>
        <time>2016-01-03T09:43:17Z</time>
      </trkpt>
      <trkpt lat="44.32293" lon="2.03786">
        <ele>495.5</ele>
        <time>2016-01-03T09:43:18Z</time>
      </trkpt>
      <trkpt lat="44.32297" lon="2.03783">
        <ele>495.4</ele>
        <time>2016-01-03T09:43:19Z</time>
      </trkpt>
      <trkpt lat="44.32302" lon="2.03778">
        <ele>495.1</ele>
        <time>2016-01-03T09:43:20Z</time>
      </trkpt>
      <trkpt lat="44.32307" lon="2.03775">
        <ele>495</ele>
        <time>2016-01-03T09:43:21Z</time>
      </trkpt>
      <trkpt lat="44.32312" lon="2.03771">
        <ele>494.8</ele>
        <time>2016-01-03T09:43:22Z</time>
      </trkpt>
      <trkpt lat="44.32318" lon="2.03766">
        <ele>494.5</ele>
        <time>2016-01-03T09:43:23Z</time>
      </trkpt>
      <trkpt lat="44.32323" lon="2.0376">
        <ele>494.3</ele>
        <time>2016-01-03T09:43:24Z</time>
      </trkpt>
      <trkpt lat="44.32329" lon="2.03755">
        <ele>494</ele>
        <time>2016-01-03T09:43:25Z</time>
      </trkpt>
      <trkpt lat="44.32334" lon="2.03751">
        <ele>493.8</ele>
        <time>2016-01-03T09:43:26Z</time>
      </trkpt>
      <trkpt lat="44.32338" lon="2.03746">
        <ele>493.6</ele>
        <time>2016-01-03T09:43:27Z</time>
      </trkpt>
      <trkpt lat="44.32343" lon="2.03744">
        <ele>493.6</ele>
        <time>2016-01-03T09:43:28Z</time>
      </trkpt>
      <trkpt lat="44.32347" lon="2.0374">
        <ele>493.4</ele>
        <time>2016-01-03T09:43:29Z</time>
      </trkpt>
      <trkpt lat="44.32351" lon="2.03735">
        <ele>493.1</ele>
        <time>2016-01-03T09:43:30Z</time>
      </trkpt>
      <trkpt lat="44.32356" lon="2.03728">
        <ele>492.8</ele>
        <time>2016-01-03T09:43:31Z</time>
      </trkpt>
      <trkpt lat="44.32363" lon="2.03719">
        <ele>492.3</ele>
        <time>2016-01-03T09:43:32Z</time>
      </trkpt>
      <trkpt lat="44.32368" lon="2.03711">
        <ele>492</ele>
        <time>2016-01-03T09:43:33Z</time>
      </trkpt>
      <trkpt lat="44.32374" lon="2.03703">
        <ele>491.7</ele>
        <time>2016-01-03T09:43:34Z</time>
      </trkpt>
      <trkpt lat="44.3238" lon="2.03696">
        <ele>491.4</ele>
        <time>2016-01-03T09:43:35Z</time>
      </trkpt>
      <trkpt lat="44.32385" lon="2.0369">
        <ele>491</ele>
        <time>2016-01-03T09:43:36Z</time>
      </trkpt>
      <trkpt lat="44.32392" lon="2.03684">
        <ele>490.7</ele>
        <time>2016-01-03T09:43:37Z</time>
      </trkpt>
      <trkpt lat="44.32398" lon="2.03679">
        <ele>490.3</ele>
        <time>2016-01-03T09:43:38Z</time>
      </trkpt>
      <trkpt lat="44.32405" lon="2.03674">
        <ele>489.9</ele>
        <time>2016-01-03T09:43:39Z</time>
      </trkpt>
      <trkpt lat="44.32411" lon="2.03669">
        <ele>489.5</ele>
        <time>2016-01-03T09:43:40Z</time>
      </trkpt>
      <trkpt lat="44.32418" lon="2.03663">
        <ele>488.9</ele>
        <time>2016-01-03T09:43:41Z</time>
      </trkpt>
      <trkpt lat="44.32425" lon="2.03658">
        <ele>488.5</ele>
        <time>2016-01-03T09:43:42Z</time>
      </trkpt>
      <trkpt lat="44.32431" lon="2.03652">
        <ele>488</ele>
        <time>2016-01-03T09:43:43Z</time>
      </trkpt>
      <trkpt lat="44.32437" lon="2.03648">
        <ele>487.5</ele>
        <time>2016-01-03T09:43:44Z</time>
      </trkpt>
      <trkpt lat="44.32443" lon="2.03642">
        <ele>486.9</ele>
        <time>2016-01-03T09:43:45Z</time>
      </trkpt>
      <trkpt lat="44.32449" lon="2.03637">
        <ele>486.3</ele>
        <time>2016-01-03T09:43:46Z</time>
      </trkpt>
      <trkpt lat="44.32455" lon="2.03633">
        <ele>485.7</ele>
        <time>2016-01-03T09:43:47Z</time>
      </trkpt>
      <trkpt lat="44.32462" lon="2.03627">
        <ele>485.4</ele>
        <time>2016-01-03T09:43:48Z</time>
      </trkpt>
      <trkpt lat="44.32469" lon="2.0362">
        <ele>485.4</ele>
        <time>2016-01-03T09:43:49Z</time>
      </trkpt>
      <trkpt lat="44.32476" lon="2.03614">
        <ele>485.5</ele>
        <time>2016-01-03T09:43:50Z</time>
      </trkpt>
      <trkpt lat="44.32484" lon="2.03607">
        <ele>485.5</ele>
        <time>2016-01-03T09:43:51Z</time>
      </trkpt>
      <trkpt lat="44.32491" lon="2.03601">
        <ele>485.6</ele>
        <time>2016-01-03T09:43:52Z</time>
      </trkpt>
      <trkpt lat="44.32499" lon="2.03595">
        <ele>485.6</ele>
        <time>2016-01-03T09:43:53Z</time>
      </trkpt>
      <trkpt lat="44.32505" lon="2.03589">
        <ele>485.6</ele>
        <time>2016-01-03T09:43:54Z</time>
      </trkpt>
      <trkpt lat="44.32512" lon="2.03586">
        <ele>485.7</ele>
        <time>2016-01-03T09:43:55Z</time>
      </trkpt>
      <trkpt lat="44.32519" lon="2.03586">
        <ele>486.1</ele>
        <time>2016-01-03T09:43:56Z</time>
      </trkpt>
      <trkpt lat="44.32526" lon="2.03585">
        <ele>486.4</ele>
        <time>2016-01-03T09:43:57Z</time>
      </trkpt>
      <trkpt lat="44.32533" lon="2.03585">
        <ele>486.7</ele>
        <time>2016-01-03T09:43:58Z</time>
      </trkpt>
      <trkpt lat="44.32541" lon="2.03581">
        <ele>486.8</ele>
        <time>2016-01-03T09:43:59Z</time>
      </trkpt>
      <trkpt lat="44.32548" lon="2.03576">
        <ele>486.1</ele>
        <time>2016-01-03T09:44:00Z</time>
      </trkpt>
      <trkpt lat="44.32554" lon="2.03572">
        <ele>485.5</ele>
        <time>2016-01-03T09:44:01Z</time>
      </trkpt>
      <trkpt lat="44.32558" lon="2.03559">
        <ele>484.3</ele>
        <time>2016-01-03T09:44:02Z</time>
      </trkpt>
      <trkpt lat="44.32562" lon="2.03548">
        <ele>483.3</ele>
        <time>2016-01-03T09:44:03Z</time>
      </trkpt>
      <trkpt lat="44.32566" lon="2.0354">
        <ele>482.3</ele>
        <time>2016-01-03T09:44:04Z</time>
      </trkpt>
      <trkpt lat="44.3257" lon="2.03539">
        <ele>481.9</ele>
        <time>2016-01-03T09:44:05Z</time>
      </trkpt>
      <trkpt lat="44.32575" lon="2.03535">
        <ele>481.1</ele>
        <time>2016-01-03T09:44:06Z</time>
      </trkpt>
      <trkpt lat="44.32582" lon="2.03536">
        <ele>480.8</ele>
        <time>2016-01-03T09:44:07Z</time>
      </trkpt>
      <trkpt lat="44.32586" lon="2.0354">
        <ele>481.1</ele>
        <time>2016-01-03T09:44:08Z</time>
      </trkpt>
      <trkpt lat="44.32591" lon="2.03542">
        <ele>481</ele>
        <time>2016-01-03T09:44:09Z</time>
      </trkpt>
      <trkpt lat="44.32597" lon="2.03543">
        <ele>480.8</ele>
        <time>2016-01-03T09:44:10Z</time>
      </trkpt>
      <trkpt lat="44.32601" lon="2.03545">
        <ele>480.7</ele>
        <time>2016-01-03T09:44:11Z</time>
      </trkpt>
      <trkpt lat="44.32606" lon="2.03546">
        <ele>480.5</ele>
        <time>2016-01-03T09:44:12Z</time>
      </trkpt>
      <trkpt lat="44.3261" lon="2.03546">
        <ele>480.3</ele>
        <time>2016-01-03T09:44:13Z</time>
      </trkpt>
      <trkpt lat="44.32614" lon="2.03547">
        <ele>480.1</ele>
        <time>2016-01-03T09:44:14Z</time>
      </trkpt>
      <trkpt lat="44.32616" lon="2.03548">
        <ele>480.1</ele>
        <time>2016-01-03T09:44:15Z</time>
      </trkpt>
      <trkpt lat="44.3262" lon="2.0355">
        <ele>480</ele>
        <time>2016-01-03T09:44:16Z</time>
      </trkpt>
      <trkpt lat="44.32623" lon="2.0355">
        <ele>479.8</ele>
        <time>2016-01-03T09:44:17Z</time>
      </trkpt>
      <trkpt lat="44.32627" lon="2.03548">
        <ele>479.3</ele>
        <time>2016-01-03T09:44:18Z</time>
      </trkpt>
      <trkpt lat="44.3263" lon="2.03545">
        <ele>478.7</ele>
        <time>2016-01-03T09:44:19Z</time>
      </trkpt>
      <trkpt lat="44.32632" lon="2.03542">
        <ele>478.1</ele>
        <time>2016-01-03T09:44:20Z</time>
      </trkpt>
      <trkpt lat="44.32634" lon="2.03538">
        <ele>477.5</ele>
        <time>2016-01-03T09:44:21Z</time>
      </trkpt>
      <trkpt lat="44.32635" lon="2.03533">
        <ele>476.8</ele>
        <time>2016-01-03T09:44:22Z</time>
      </trkpt>
      <trkpt lat="44.32635" lon="2.03528">
        <ele>476.2</ele>
        <time>2016-01-03T09:44:23Z</time>
      </trkpt>
      <trkpt lat="44.32636" lon="2.03524">
        <ele>475.6</ele>
        <time>2016-01-03T09:44:24Z</time>
      </trkpt>
      <trkpt lat="44.32637" lon="2.0352">
        <ele>475</ele>
        <time>2016-01-03T09:44:25Z</time>
      </trkpt>
      <trkpt lat="44.32639" lon="2.03515">
        <ele>474.3</ele>
        <time>2016-01-03T09:44:26Z</time>
      </trkpt>
      <trkpt lat="44.32642" lon="2.03511">
        <ele>473.5</ele>
        <time>2016-01-03T09:44:27Z</time>
      </trkpt>
      <trkpt lat="44.32646" lon="2.03507">
        <ele>472.6</ele>
        <time>2016-01-03T09:44:28Z</time>
      </trkpt>
      <trkpt lat="44.3265" lon="2.03503">
        <ele>471.8</ele>
        <time>2016-01-03T09:44:29Z</time>
      </trkpt>
      <trkpt lat="44.32656" lon="2.035">
        <ele>470.8</ele>
        <time>2016-01-03T09:44:30Z</time>
      </trkpt>
      <trkpt lat="44.32661" lon="2.03497">
        <ele>470</ele>
        <time>2016-01-03T09:44:31Z</time>
      </trkpt>
      <trkpt lat="44.32666" lon="2.03493">
        <ele>469</ele>
        <time>2016-01-03T09:44:32Z</time>
      </trkpt>
      <trkpt lat="44.32671" lon="2.03488">
        <ele>468.1</ele>
        <time>2016-01-03T09:44:33Z</time>
      </trkpt>
      <trkpt lat="44.32677" lon="2.03481">
        <ele>466.9</ele>
        <time>2016-01-03T09:44:34Z</time>
      </trkpt>
      <trkpt lat="44.32682" lon="2.03474">
        <ele>465.7</ele>
        <time>2016-01-03T09:44:35Z</time>
      </trkpt>
      <trkpt lat="44.32687" lon="2.03468">
        <ele>464.7</ele>
        <time>2016-01-03T09:44:36Z</time>
      </trkpt>
      <trkpt lat="44.32693" lon="2.03462">
        <ele>463.6</ele>
        <time>2016-01-03T09:44:37Z</time>
      </trkpt>
      <trkpt lat="44.32699" lon="2.03456">
        <ele>462.5</ele>
        <time>2016-01-03T09:44:38Z</time>
      </trkpt>
      <trkpt lat="44.32704" lon="2.0345">
        <ele>461.3</ele>
        <time>2016-01-03T09:44:39Z</time>
      </trkpt>
      <trkpt lat="44.32709" lon="2.03445">
        <ele>460.4</ele>
        <time>2016-01-03T09:44:40Z</time>
      </trkpt>
      <trkpt lat="44.32715" lon="2.03442">
        <ele>459.3</ele>
        <time>2016-01-03T09:44:41Z</time>
      </trkpt>
      <trkpt lat="44.32721" lon="2.03439">
        <ele>458.3</ele>
        <time>2016-01-03T09:44:42Z</time>
      </trkpt>
      <trkpt lat="44.32727" lon="2.03437">
        <ele>457.3</ele>
        <time>2016-01-03T09:44:43Z</time>
      </trkpt>
      <trkpt lat="44.32734" lon="2.03434">
        <ele>456.3</ele>
        <time>2016-01-03T09:44:44Z</time>
      </trkpt>
      <trkpt lat="44.3274" lon="2.03431">
        <ele>455.4</ele>
        <time>2016-01-03T09:44:45Z</time>
      </trkpt>
      <trkpt lat="44.32747" lon="2.03429">
        <ele>454.5</ele>
        <time>2016-01-03T09:44:46Z</time>
      </trkpt>
      <trkpt lat="44.32752" lon="2.03424">
        <ele>453.6</ele>
        <time>2016-01-03T09:44:47Z</time>
      </trkpt>
      <trkpt lat="44.32756" lon="2.03419">
        <ele>452.9</ele>
        <time>2016-01-03T09:44:48Z</time>
      </trkpt>
      <trkpt lat="44.32759" lon="2.03413">
        <ele>452.2</ele>
        <time>2016-01-03T09:44:49Z</time>
      </trkpt>
      <trkpt lat="44.32762" lon="2.03406">
        <ele>451.5</ele>
        <time>2016-01-03T09:44:50Z</time>
      </trkpt>
      <trkpt lat="44.32767" lon="2.03401">
        <ele>450.8</ele>
        <time>2016-01-03T09:44:51Z</time>
      </trkpt>
      <trkpt lat="44.3277" lon="2.03397">
        <ele>450.3</ele>
        <time>2016-01-03T09:44:52Z</time>
      </trkpt>
      <trkpt lat="44.32773" lon="2.03393">
        <ele>449.9</ele>
        <time>2016-01-03T09:44:53Z</time>
      </trkpt>
      <trkpt lat="44.32778" lon="2.03388">
        <ele>449.3</ele>
        <time>2016-01-03T09:44:54Z</time>
      </trkpt>
      <trkpt lat="44.32782" lon="2.03382">
        <ele>448.8</ele>
        <time>2016-01-03T09:44:55Z</time>
      </trkpt>
      <trkpt lat="44.32786" lon="2.03377">
        <ele>448.3</ele>
        <time>2016-01-03T09:44:56Z</time>
      </trkpt>
      <trkpt lat="44.32791" lon="2.03371">
        <ele>447.4</ele>
        <time>2016-01-03T09:44:57Z</time>
      </trkpt>
      <trkpt lat="44.32797" lon="2.03364">
        <ele>445.5</ele>
        <time>2016-01-03T09:44:58Z</time>
      </trkpt>
      <trkpt lat="44.328" lon="2.03356">
        <ele>443.9</ele>
        <time>2016-01-03T09:44:59Z</time>
      </trkpt>
      <trkpt lat="44.32803" lon="2.0335">
        <ele>442.7</ele>
        <time>2016-01-03T09:45:00Z</time>
      </trkpt>
      <trkpt lat="44.32806" lon="2.03346">
        <ele>441.7</ele>
        <time>2016-01-03T09:45:01Z</time>
      </trkpt>
      <trkpt lat="44.32809" lon="2.03348">
        <ele>441.6</ele>
        <time>2016-01-03T09:45:02Z</time>
      </trkpt>
      <trkpt lat="44.32813" lon="2.0335">
        <ele>441.3</ele>
        <time>2016-01-03T09:45:03Z</time>
      </trkpt>
      <trkpt lat="44.32817" lon="2.03351">
        <ele>441</ele>
        <time>2016-01-03T09:45:04Z</time>
      </trkpt>
      <trkpt lat="44.32822" lon="2.03352">
        <ele>440.3</ele>
        <time>2016-01-03T09:45:05Z</time>
      </trkpt>
      <trkpt lat="44.32827" lon="2.03353">
        <ele>439.9</ele>
        <time>2016-01-03T09:45:06Z</time>
      </trkpt>
      <trkpt lat="44.3283" lon="2.03355">
        <ele>439.6</ele>
        <time>2016-01-03T09:45:07Z</time>
      </trkpt>
      <trkpt lat="44.32834" lon="2.03354">
        <ele>439.1</ele>
        <time>2016-01-03T09:45:08Z</time>
      </trkpt>
      <trkpt lat="44.32836" lon="2.03351">
        <ele>438.4</ele>
        <time>2016-01-03T09:45:09Z</time>
      </trkpt>
      <trkpt lat="44.32837" lon="2.03347">
        <ele>437.8</ele>
        <time>2016-01-03T09:45:10Z</time>
      </trkpt>
      <trkpt lat="44.32838" lon="2.03342">
        <ele>437.1</ele>
        <time>2016-01-03T09:45:11Z</time>
      </trkpt>
      <trkpt lat="44.3284" lon="2.03337">
        <ele>436.4</ele>
        <time>2016-01-03T09:45:12Z</time>
      </trkpt>
      <trkpt lat="44.32843" lon="2.03333">
        <ele>435.6</ele>
        <time>2016-01-03T09:45:13Z</time>
      </trkpt>
      <trkpt lat="44.32848" lon="2.03331">
        <ele>434.9</ele>
        <time>2016-01-03T09:45:14Z</time>
      </trkpt>
      <trkpt lat="44.32853" lon="2.03329">
        <ele>434.2</ele>
        <time>2016-01-03T09:45:15Z</time>
      </trkpt>
      <trkpt lat="44.32858" lon="2.03328">
        <ele>433.4</ele>
        <time>2016-01-03T09:45:16Z</time>
      </trkpt>
      <trkpt lat="44.32864" lon="2.03326">
        <ele>432.7</ele>
        <time>2016-01-03T09:45:17Z</time>
      </trkpt>
      <trkpt lat="44.32868" lon="2.03325">
        <ele>432.1</ele>
        <time>2016-01-03T09:45:18Z</time>
      </trkpt>
      <trkpt lat="44.32874" lon="2.03325">
        <ele>431.6</ele>
        <time>2016-01-03T09:45:19Z</time>
      </trkpt>
      <trkpt lat="44.32878" lon="2.03327">
        <ele>430.9</ele>
        <time>2016-01-03T09:45:20Z</time>
      </trkpt>
      <trkpt lat="44.32882" lon="2.0333">
        <ele>430.2</ele>
        <time>2016-01-03T09:45:21Z</time>
      </trkpt>
      <trkpt lat="44.32888" lon="2.03331">
        <ele>429.3</ele>
        <time>2016-01-03T09:45:22Z</time>
      </trkpt>
      <trkpt lat="44.32893" lon="2.03332">
        <ele>428.1</ele>
        <time>2016-01-03T09:45:23Z</time>
      </trkpt>
      <trkpt lat="44.32898" lon="2.03331">
        <ele>427.1</ele>
        <time>2016-01-03T09:45:24Z</time>
      </trkpt>
      <trkpt lat="44.32902" lon="2.03327">
        <ele>426</ele>
        <time>2016-01-03T09:45:25Z</time>
      </trkpt>
      <trkpt lat="44.32906" lon="2.03322">
        <ele>425</ele>
        <time>2016-01-03T09:45:26Z</time>
      </trkpt>
      <trkpt lat="44.32911" lon="2.03316">
        <ele>423.8</ele>
        <time>2016-01-03T09:45:27Z</time>
      </trkpt>
      <trkpt lat="44.32915" lon="2.0331">
        <ele>422.8</ele>
        <time>2016-01-03T09:45:28Z</time>
      </trkpt>
      <trkpt lat="44.32917" lon="2.03304">
        <ele>422.2</ele>
        <time>2016-01-03T09:45:29Z</time>
      </trkpt>
      <trkpt lat="44.32918" lon="2.03296">
        <ele>421.9</ele>
        <time>2016-01-03T09:45:30Z</time>
      </trkpt>
      <trkpt lat="44.32917" lon="2.03288">
        <ele>421.1</ele>
        <time>2016-01-03T09:45:31Z</time>
      </trkpt>
      <trkpt lat="44.32915" lon="2.0328">
        <ele>419.3</ele>
        <time>2016-01-03T09:45:32Z</time>
      </trkpt>
      <trkpt lat="44.32913" lon="2.03271">
        <ele>417.3</ele>
        <time>2016-01-03T09:45:33Z</time>
      </trkpt>
      <trkpt lat="44.32911" lon="2.03263">
        <ele>415.8</ele>
        <time>2016-01-03T09:45:34Z</time>
      </trkpt>
      <trkpt lat="44.32909" lon="2.03256">
        <ele>414.5</ele>
        <time>2016-01-03T09:45:35Z</time>
      </trkpt>
      <trkpt lat="44.32906" lon="2.03249">
        <ele>413.3</ele>
        <time>2016-01-03T09:45:36Z</time>
      </trkpt>
      <trkpt lat="44.32902" lon="2.03243">
        <ele>412.7</ele>
        <time>2016-01-03T09:45:37Z</time>
      </trkpt>
      <trkpt lat="44.32898" lon="2.03237">
        <ele>412.3</ele>
        <time>2016-01-03T09:45:38Z</time>
      </trkpt>
      <trkpt lat="44.32892" lon="2.03233">
        <ele>412.6</ele>
        <time>2016-01-03T09:45:39Z</time>
      </trkpt>
      <trkpt lat="44.32888" lon="2.03229">
        <ele>412.6</ele>
        <time>2016-01-03T09:45:40Z</time>
      </trkpt>
      <trkpt lat="44.32884" lon="2.03226">
        <ele>412.6</ele>
        <time>2016-01-03T09:45:41Z</time>
      </trkpt>
      <trkpt lat="44.32881" lon="2.03222">
        <ele>412.5</ele>
        <time>2016-01-03T09:45:42Z</time>
      </trkpt>
      <trkpt lat="44.32878" lon="2.03217">
        <ele>412.3</ele>
        <time>2016-01-03T09:45:43Z</time>
      </trkpt>
      <trkpt lat="44.32876" lon="2.03214">
        <ele>412</ele>
        <time>2016-01-03T09:45:44Z</time>
      </trkpt>
      <trkpt lat="44.32873" lon="2.0321">
        <ele>411.4</ele>
        <time>2016-01-03T09:45:45Z</time>
      </trkpt>
      <trkpt lat="44.32868" lon="2.03205">
        <ele>410.7</ele>
        <time>2016-01-03T09:45:46Z</time>
      </trkpt>
      <trkpt lat="44.32864" lon="2.03201">
        <ele>409.9</ele>
        <time>2016-01-03T09:45:47Z</time>
      </trkpt>
      <trkpt lat="44.32861" lon="2.03197">
        <ele>409.2</ele>
        <time>2016-01-03T09:45:48Z</time>
      </trkpt>
      <trkpt lat="44.32859" lon="2.03194">
        <ele>408.5</ele>
        <time>2016-01-03T09:45:49Z</time>
      </trkpt>
      <trkpt lat="44.32856" lon="2.03189">
        <ele>407.5</ele>
        <time>2016-01-03T09:45:50Z</time>
      </trkpt>
      <trkpt lat="44.32854" lon="2.03186">
        <ele>406.7</ele>
        <time>2016-01-03T09:45:51Z</time>
      </trkpt>
      <trkpt lat="44.32852" lon="2.03181">
        <ele>405.7</ele>
        <time>2016-01-03T09:45:52Z</time>
      </trkpt>
      <trkpt lat="44.32851" lon="2.03177">
        <ele>404.9</ele>
        <time>2016-01-03T09:45:53Z</time>
      </trkpt>
      <trkpt lat="44.32851" lon="2.03173">
        <ele>403.8</ele>
        <time>2016-01-03T09:45:54Z</time>
      </trkpt>
      <trkpt lat="44.32847" lon="2.03165">
        <ele>402.1</ele>
        <time>2016-01-03T09:45:56Z</time>
      </trkpt>
      <trkpt lat="44.32847" lon="2.03159">
        <ele>400.6</ele>
        <time>2016-01-03T09:45:58Z</time>
      </trkpt>
      <trkpt lat="44.32847" lon="2.03153">
        <ele>399.3</ele>
        <time>2016-01-03T09:46:00Z</time>
      </trkpt>
      <trkpt lat="44.32849" lon="2.03147">
        <ele>397.9</ele>
        <time>2016-01-03T09:46:02Z</time>
      </trkpt>
      <trkpt lat="44.32851" lon="2.03142">
        <ele>396.6</ele>
        <time>2016-01-03T09:46:04Z</time>
      </trkpt>
      <trkpt lat="44.32856" lon="2.03138">
        <ele>395.8</ele>
        <time>2016-01-03T09:46:06Z</time>
      </trkpt>
      <trkpt lat="44.32858" lon="2.03136">
        <ele>395.2</ele>
        <time>2016-01-03T09:46:07Z</time>
      </trkpt>
      <trkpt lat="44.32861" lon="2.03133">
        <ele>394.7</ele>
        <time>2016-01-03T09:46:08Z</time>
      </trkpt>
      <trkpt lat="44.32866" lon="2.03129">
        <ele>393.8</ele>
        <time>2016-01-03T09:46:10Z</time>
      </trkpt>
      <trkpt lat="44.32869" lon="2.03126">
        <ele>393.1</ele>
        <time>2016-01-03T09:46:11Z</time>
      </trkpt>
      <trkpt lat="44.32872" lon="2.03122">
        <ele>392.2</ele>
        <time>2016-01-03T09:46:12Z</time>
      </trkpt>
      <trkpt lat="44.32874" lon="2.03118">
        <ele>391.1</ele>
        <time>2016-01-03T09:46:14Z</time>
      </trkpt>
      <trkpt lat="44.32877" lon="2.03115">
        <ele>389.5</ele>
        <time>2016-01-03T09:46:16Z</time>
      </trkpt>
      <trkpt lat="44.32879" lon="2.03111">
        <ele>387.7</ele>
        <time>2016-01-03T09:46:18Z</time>
      </trkpt>
      <trkpt lat="44.32882" lon="2.03108">
        <ele>385.9</ele>
        <time>2016-01-03T09:46:21Z</time>
      </trkpt>
      <trkpt lat="44.32885" lon="2.03106">
        <ele>384.5</ele>
        <time>2016-01-03T09:46:24Z</time>
      </trkpt>
      <trkpt lat="44.32886" lon="2.031">
        <ele>382.5</ele>
        <time>2016-01-03T09:46:26Z</time>
      </trkpt>
      <trkpt lat="44.32893" lon="2.03095">
        <ele>379</ele>
        <time>2016-01-03T09:46:28Z</time>
      </trkpt>
      <trkpt lat="44.32896" lon="2.03094">
        <ele>377.8</ele>
        <time>2016-01-03T09:46:29Z</time>
      </trkpt>
      <trkpt lat="44.32899" lon="2.03094">
        <ele>376.6</ele>
        <time>2016-01-03T09:46:30Z</time>
      </trkpt>
      <trkpt lat="44.32903" lon="2.03096">
        <ele>375.8</ele>
        <time>2016-01-03T09:46:31Z</time>
      </trkpt>
      <trkpt lat="44.32907" lon="2.03096">
        <ele>374.7</ele>
        <time>2016-01-03T09:46:32Z</time>
      </trkpt>
      <trkpt lat="44.32911" lon="2.03094">
        <ele>372.8</ele>
        <time>2016-01-03T09:46:33Z</time>
      </trkpt>
      <trkpt lat="44.32915" lon="2.03093">
        <ele>371.1</ele>
        <time>2016-01-03T09:46:34Z</time>
      </trkpt>
      <trkpt lat="44.3292" lon="2.03093">
        <ele>369.5</ele>
        <time>2016-01-03T09:46:35Z</time>
      </trkpt>
      <trkpt lat="44.32924" lon="2.03095">
        <ele>368.9</ele>
        <time>2016-01-03T09:46:36Z</time>
      </trkpt>
      <trkpt lat="44.32927" lon="2.03098">
        <ele>368.5</ele>
        <time>2016-01-03T09:46:37Z</time>
      </trkpt>
      <trkpt lat="44.32931" lon="2.03101">
        <ele>368.3</ele>
        <time>2016-01-03T09:46:38Z</time>
      </trkpt>
      <trkpt lat="44.32935" lon="2.03105">
        <ele>368.2</ele>
        <time>2016-01-03T09:46:39Z</time>
      </trkpt>
      <trkpt lat="44.32939" lon="2.0311">
        <ele>368.1</ele>
        <time>2016-01-03T09:46:40Z</time>
      </trkpt>
      <trkpt lat="44.32943" lon="2.03114">
        <ele>367.9</ele>
        <time>2016-01-03T09:46:41Z</time>
      </trkpt>
      <trkpt lat="44.32947" lon="2.03118">
        <ele>367.5</ele>
        <time>2016-01-03T09:46:42Z</time>
      </trkpt>
      <trkpt lat="44.32952" lon="2.0312">
        <ele>366.7</ele>
        <time>2016-01-03T09:46:43Z</time>
      </trkpt>
      <trkpt lat="44.32956" lon="2.03122">
        <ele>366</ele>
        <time>2016-01-03T09:46:44Z</time>
      </trkpt>
      <trkpt lat="44.3296" lon="2.03125">
        <ele>365.2</ele>
        <time>2016-01-03T09:46:45Z</time>
      </trkpt>
      <trkpt lat="44.32965" lon="2.0313">
        <ele>363.8</ele>
        <time>2016-01-03T09:46:46Z</time>
      </trkpt>
      <trkpt lat="44.3297" lon="2.03134">
        <ele>362.7</ele>
        <time>2016-01-03T09:46:47Z</time>
      </trkpt>
      <trkpt lat="44.32975" lon="2.03139">
        <ele>361.8</ele>
        <time>2016-01-03T09:46:48Z</time>
      </trkpt>
      <trkpt lat="44.3298" lon="2.03142">
        <ele>360.4</ele>
        <time>2016-01-03T09:46:49Z</time>
      </trkpt>
      <trkpt lat="44.32985" lon="2.03145">
        <ele>358.8</ele>
        <time>2016-01-03T09:46:50Z</time>
      </trkpt>
      <trkpt lat="44.3299" lon="2.03148">
        <ele>356.9</ele>
        <time>2016-01-03T09:46:51Z</time>
      </trkpt>
      <trkpt lat="44.32996" lon="2.0315">
        <ele>354.7</ele>
        <time>2016-01-03T09:46:52Z</time>
      </trkpt>
      <trkpt lat="44.33002" lon="2.03154">
        <ele>352.9</ele>
        <time>2016-01-03T09:46:53Z</time>
      </trkpt>
      <trkpt lat="44.33008" lon="2.03157">
        <ele>351</ele>
        <time>2016-01-03T09:46:54Z</time>
      </trkpt>
      <trkpt lat="44.33013" lon="2.03159">
        <ele>349.3</ele>
        <time>2016-01-03T09:46:55Z</time>
      </trkpt>
      <trkpt lat="44.33018" lon="2.03162">
        <ele>347.7</ele>
        <time>2016-01-03T09:46:56Z</time>
      </trkpt>
      <trkpt lat="44.33023" lon="2.03164">
        <ele>346.3</ele>
        <time>2016-01-03T09:46:57Z</time>
      </trkpt>
      <trkpt lat="44.33028" lon="2.03167">
        <ele>344.5</ele>
        <time>2016-01-03T09:46:58Z</time>
      </trkpt>
      <trkpt lat="44.33033" lon="2.0317">
        <ele>343.5</ele>
        <time>2016-01-03T09:46:59Z</time>
      </trkpt>
      <trkpt lat="44.33036" lon="2.03173">
        <ele>343.2</ele>
        <time>2016-01-03T09:47:00Z</time>
      </trkpt>
      <trkpt lat="44.33039" lon="2.03175">
        <ele>342.5</ele>
        <time>2016-01-03T09:47:01Z</time>
      </trkpt>
      <trkpt lat="44.33042" lon="2.03175">
        <ele>341</ele>
        <time>2016-01-03T09:47:02Z</time>
      </trkpt>
      <trkpt lat="44.33045" lon="2.03175">
        <ele>339.5</ele>
        <time>2016-01-03T09:47:03Z</time>
      </trkpt>
      <trkpt lat="44.33049" lon="2.03177">
        <ele>338.3</ele>
        <time>2016-01-03T09:47:04Z</time>
      </trkpt>
      <trkpt lat="44.33056" lon="2.03182">
        <ele>337</ele>
        <time>2016-01-03T09:47:05Z</time>
      </trkpt>
      <trkpt lat="44.33061" lon="2.03186">
        <ele>336.4</ele>
        <time>2016-01-03T09:47:06Z</time>
      </trkpt>
      <trkpt lat="44.33065" lon="2.03191">
        <ele>336.3</ele>
        <time>2016-01-03T09:47:07Z</time>
      </trkpt>
      <trkpt lat="44.3307" lon="2.03193">
        <ele>334.9</ele>
        <time>2016-01-03T09:47:08Z</time>
      </trkpt>
      <trkpt lat="44.33074" lon="2.03195">
        <ele>334.1</ele>
        <time>2016-01-03T09:47:09Z</time>
      </trkpt>
      <trkpt lat="44.33079" lon="2.03198">
        <ele>333</ele>
        <time>2016-01-03T09:47:10Z</time>
      </trkpt>
      <trkpt lat="44.33084" lon="2.03201">
        <ele>332</ele>
        <time>2016-01-03T09:47:11Z</time>
      </trkpt>
      <trkpt lat="44.33088" lon="2.03204">
        <ele>331.2</ele>
        <time>2016-01-03T09:47:12Z</time>
      </trkpt>
      <trkpt lat="44.33092" lon="2.03207">
        <ele>330.7</ele>
        <time>2016-01-03T09:47:13Z</time>
      </trkpt>
      <trkpt lat="44.33096" lon="2.03209">
        <ele>329.7</ele>
        <time>2016-01-03T09:47:14Z</time>
      </trkpt>
      <trkpt lat="44.33099" lon="2.0321">
        <ele>328.8</ele>
        <time>2016-01-03T09:47:15Z</time>
      </trkpt>
      <trkpt lat="44.33102" lon="2.03212">
        <ele>328.2</ele>
        <time>2016-01-03T09:47:16Z</time>
      </trkpt>
      <trkpt lat="44.33106" lon="2.03214">
        <ele>327.2</ele>
        <time>2016-01-03T09:47:17Z</time>
      </trkpt>
      <trkpt lat="44.33111" lon="2.03215">
        <ele>325.8</ele>
        <time>2016-01-03T09:47:18Z</time>
      </trkpt>
      <trkpt lat="44.33116" lon="2.03217">
        <ele>324.3</ele>
        <time>2016-01-03T09:47:19Z</time>
      </trkpt>
      <trkpt lat="44.33121" lon="2.03218">
        <ele>322.7</ele>
        <time>2016-01-03T09:47:20Z</time>
      </trkpt>
      <trkpt lat="44.33126" lon="2.03219">
        <ele>321</ele>
        <time>2016-01-03T09:47:21Z</time>
      </trkpt>
      <trkpt lat="44.33132" lon="2.03221">
        <ele>319</ele>
        <time>2016-01-03T09:47:22Z</time>
      </trkpt>
      <trkpt lat="44.33137" lon="2.03222">
        <ele>317.2</ele>
        <time>2016-01-03T09:47:23Z</time>
      </trkpt>
      <trkpt lat="44.33142" lon="2.03224">
        <ele>315.6</ele>
        <time>2016-01-03T09:47:24Z</time>
      </trkpt>
      <trkpt lat="44.33148" lon="2.03226">
        <ele>313.5</ele>
        <time>2016-01-03T09:47:25Z</time>
      </trkpt>
      <trkpt lat="44.33153" lon="2.03228">
        <ele>312</ele>
        <time>2016-01-03T09:47:26Z</time>
      </trkpt>
      <trkpt lat="44.33158" lon="2.0323">
        <ele>310.3</ele>
        <time>2016-01-03T09:47:27Z</time>
      </trkpt>
      <trkpt lat="44.33163" lon="2.03232">
        <ele>309</ele>
        <time>2016-01-03T09:47:28Z</time>
      </trkpt>
      <trkpt lat="44.33166" lon="2.03233">
        <ele>308.2</ele>
        <time>2016-01-03T09:47:29Z</time>
      </trkpt>
      <trkpt lat="44.33169" lon="2.03235">
        <ele>307.7</ele>
        <time>2016-01-03T09:47:30Z</time>
      </trkpt>
      <trkpt lat="44.33172" lon="2.03238">
        <ele>307.3</ele>
        <time>2016-01-03T09:47:31Z</time>
      </trkpt>
      <trkpt lat="44.33175" lon="2.03241">
        <ele>306.5</ele>
        <time>2016-01-03T09:47:32Z</time>
      </trkpt>
      <trkpt lat="44.33179" lon="2.03242">
        <ele>305.1</ele>
        <time>2016-01-03T09:47:33Z</time>
      </trkpt>
      <trkpt lat="44.33182" lon="2.03244">
        <ele>304.5</ele>
        <time>2016-01-03T09:47:34Z</time>
      </trkpt>
      <trkpt lat="44.33187" lon="2.03249">
        <ele>304.2</ele>
        <time>2016-01-03T09:47:36Z</time>
      </trkpt>
      <trkpt lat="44.33189" lon="2.03252">
        <ele>304</ele>
        <time>2016-01-03T09:47:37Z</time>
      </trkpt>
      <trkpt lat="44.33192" lon="2.03254">
        <ele>303.7</ele>
        <time>2016-01-03T09:47:38Z</time>
      </trkpt>
      <trkpt lat="44.33193" lon="2.03258">
        <ele>304.4</ele>
        <time>2016-01-03T09:47:39Z</time>
      </trkpt>
      <trkpt lat="44.33194" lon="2.03263">
        <ele>305.6</ele>
        <time>2016-01-03T09:47:40Z</time>
      </trkpt>
      <trkpt lat="44.33195" lon="2.03269">
        <ele>307.4</ele>
        <time>2016-01-03T09:47:41Z</time>
      </trkpt>
      <trkpt lat="44.33196" lon="2.03276">
        <ele>309.4</ele>
        <time>2016-01-03T09:47:42Z</time>
      </trkpt>
      <trkpt lat="44.33197" lon="2.03284">
        <ele>311.6</ele>
        <time>2016-01-03T09:47:43Z</time>
      </trkpt>
      <trkpt lat="44.33199" lon="2.03292">
        <ele>313.6</ele>
        <time>2016-01-03T09:47:44Z</time>
      </trkpt>
      <trkpt lat="44.33201" lon="2.033">
        <ele>313.6</ele>
        <time>2016-01-03T09:47:45Z</time>
      </trkpt>
      <trkpt lat="44.33202" lon="2.03309">
        <ele>313.9</ele>
        <time>2016-01-03T09:47:46Z</time>
      </trkpt>
      <trkpt lat="44.33203" lon="2.03316">
        <ele>314.1</ele>
        <time>2016-01-03T09:47:47Z</time>
      </trkpt>
      <trkpt lat="44.33202" lon="2.03321">
        <ele>315</ele>
        <time>2016-01-03T09:47:48Z</time>
      </trkpt>
      <trkpt lat="44.33203" lon="2.03326">
        <ele>315.5</ele>
        <time>2016-01-03T09:47:49Z</time>
      </trkpt>
      <trkpt lat="44.33203" lon="2.03333">
        <ele>315.9</ele>
        <time>2016-01-03T09:47:50Z</time>
      </trkpt>
      <trkpt lat="44.33206" lon="2.03342">
        <ele>315.7</ele>
        <time>2016-01-03T09:47:51Z</time>
      </trkpt>
      <trkpt lat="44.33208" lon="2.03347">
        <ele>315</ele>
        <time>2016-01-03T09:47:52Z</time>
      </trkpt>
      <trkpt lat="44.33211" lon="2.03351">
        <ele>314.3</ele>
        <time>2016-01-03T09:47:53Z</time>
      </trkpt>
      <trkpt lat="44.33213" lon="2.03355">
        <ele>313.5</ele>
        <time>2016-01-03T09:47:54Z</time>
      </trkpt>
      <trkpt lat="44.33216" lon="2.03359">
        <ele>312.4</ele>
        <time>2016-01-03T09:47:55Z</time>
      </trkpt>
      <trkpt lat="44.33219" lon="2.0336">
        <ele>311.1</ele>
        <time>2016-01-03T09:47:56Z</time>
      </trkpt>
      <trkpt lat="44.33222" lon="2.03354">
        <ele>308.9</ele>
        <time>2016-01-03T09:47:58Z</time>
      </trkpt>
      <trkpt lat="44.33224" lon="2.03349">
        <ele>307.5</ele>
        <time>2016-01-03T09:47:59Z</time>
      </trkpt>
      <trkpt lat="44.33226" lon="2.03343">
        <ele>305.9</ele>
        <time>2016-01-03T09:48:00Z</time>
      </trkpt>
      <trkpt lat="44.33227" lon="2.03334">
        <ele>304.7</ele>
        <time>2016-01-03T09:48:01Z</time>
      </trkpt>
      <trkpt lat="44.33229" lon="2.03325">
        <ele>303.2</ele>
        <time>2016-01-03T09:48:02Z</time>
      </trkpt>
      <trkpt lat="44.33233" lon="2.03317">
        <ele>300.4</ele>
        <time>2016-01-03T09:48:03Z</time>
      </trkpt>
      <trkpt lat="44.33237" lon="2.03308">
        <ele>297.8</ele>
        <time>2016-01-03T09:48:04Z</time>
      </trkpt>
      <trkpt lat="44.33242" lon="2.03299">
        <ele>295.1</ele>
        <time>2016-01-03T09:48:05Z</time>
      </trkpt>
      <trkpt lat="44.33245" lon="2.03291">
        <ele>292.7</ele>
        <time>2016-01-03T09:48:06Z</time>
      </trkpt>
      <trkpt lat="44.33251" lon="2.03283">
        <ele>288</ele>
        <time>2016-01-03T09:48:07Z</time>
      </trkpt>
      <trkpt lat="44.33256" lon="2.03276">
        <ele>284.2</ele>
        <time>2016-01-03T09:48:08Z</time>
      </trkpt>
      <trkpt lat="44.33258" lon="2.03269">
        <ele>281</ele>
        <time>2016-01-03T09:48:09Z</time>
      </trkpt>
      <trkpt lat="44.33261" lon="2.03263">
        <ele>278.2</ele>
        <time>2016-01-03T09:48:10Z</time>
      </trkpt>
      <trkpt lat="44.33265" lon="2.03257">
        <ele>275</ele>
        <time>2016-01-03T09:48:11Z</time>
      </trkpt>
      <trkpt lat="44.33268" lon="2.0325">
        <ele>272.1</ele>
        <time>2016-01-03T09:48:12Z</time>
      </trkpt>
      <trkpt lat="44.33269" lon="2.03242">
        <ele>270</ele>
        <time>2016-01-03T09:48:13Z</time>
      </trkpt>
      <trkpt lat="44.33267" lon="2.03235">
        <ele>268.9</ele>
        <time>2016-01-03T09:48:14Z</time>
      </trkpt>
      <trkpt lat="44.33265" lon="2.03228">
        <ele>267.6</ele>
        <time>2016-01-03T09:48:15Z</time>
      </trkpt>
      <trkpt lat="44.33268" lon="2.03223">
        <ele>265.4</ele>
        <time>2016-01-03T09:48:21Z</time>
      </trkpt>
      <trkpt lat="44.33271" lon="2.03223">
        <ele>264.1</ele>
        <time>2016-01-03T09:48:22Z</time>
      </trkpt>
      <trkpt lat="44.33273" lon="2.03226">
        <ele>264.1</ele>
        <time>2016-01-03T09:48:25Z</time>
      </trkpt>
      <trkpt lat="44.33276" lon="2.0323">
        <ele>264.4</ele>
        <time>2016-01-03T09:48:27Z</time>
      </trkpt>
      <trkpt lat="44.33279" lon="2.03233">
        <ele>264.2</ele>
        <time>2016-01-03T09:48:28Z</time>
      </trkpt>
      <trkpt lat="44.33282" lon="2.03236">
        <ele>263.8</ele>
        <time>2016-01-03T09:48:29Z</time>
      </trkpt>
      <trkpt lat="44.33285" lon="2.03239">
        <ele>263.5</ele>
        <time>2016-01-03T09:48:30Z</time>
      </trkpt>
      <trkpt lat="44.33289" lon="2.03243">
        <ele>262.9</ele>
        <time>2016-01-03T09:48:31Z</time>
      </trkpt>
      <trkpt lat="44.33292" lon="2.03246">
        <ele>262.5</ele>
        <time>2016-01-03T09:48:32Z</time>
      </trkpt>
      <trkpt lat="44.33296" lon="2.0325">
        <ele>262.8</ele>
        <time>2016-01-03T09:48:33Z</time>
      </trkpt>
      <trkpt lat="44.33301" lon="2.03253">
        <ele>262.4</ele>
        <time>2016-01-03T09:48:34Z</time>
      </trkpt>
      <trkpt lat="44.33306" lon="2.03256">
        <ele>262.3</ele>
        <time>2016-01-03T09:48:35Z</time>
      </trkpt>
      <trkpt lat="44.3331" lon="2.0326">
        <ele>262.3</ele>
        <time>2016-01-03T09:48:36Z</time>
      </trkpt>
      <trkpt lat="44.33314" lon="2.03264">
        <ele>262.2</ele>
        <time>2016-01-03T09:48:37Z</time>
      </trkpt>
      <trkpt lat="44.33317" lon="2.03267">
        <ele>262</ele>
        <time>2016-01-03T09:48:38Z</time>
      </trkpt>
      <trkpt lat="44.33321" lon="2.03271">
        <ele>261.8</ele>
        <time>2016-01-03T09:48:39Z</time>
      </trkpt>
      <trkpt lat="44.33325" lon="2.03274">
        <ele>261.4</ele>
        <time>2016-01-03T09:48:40Z</time>
      </trkpt>
      <trkpt lat="44.33329" lon="2.03278">
        <ele>261.1</ele>
        <time>2016-01-03T09:48:41Z</time>
      </trkpt>
      <trkpt lat="44.33333" lon="2.03282">
        <ele>260.6</ele>
        <time>2016-01-03T09:48:42Z</time>
      </trkpt>
      <trkpt lat="44.33337" lon="2.03284">
        <ele>260</ele>
        <time>2016-01-03T09:48:43Z</time>
      </trkpt>
      <trkpt lat="44.33341" lon="2.03286">
        <ele>259.4</ele>
        <time>2016-01-03T09:48:44Z</time>
      </trkpt>
      <trkpt lat="44.33345" lon="2.03289">
        <ele>258.7</ele>
        <time>2016-01-03T09:48:45Z</time>
      </trkpt>
      <trkpt lat="44.33348" lon="2.03292">
        <ele>258.1</ele>
        <time>2016-01-03T09:48:46Z</time>
      </trkpt>
      <trkpt lat="44.33352" lon="2.03295">
        <ele>257.4</ele>
        <time>2016-01-03T09:48:47Z</time>
      </trkpt>
      <trkpt lat="44.33355" lon="2.03298">
        <ele>257</ele>
        <time>2016-01-03T09:48:48Z</time>
      </trkpt>
      <trkpt lat="44.33358" lon="2.03299">
        <ele>256.3</ele>
        <time>2016-01-03T09:48:49Z</time>
      </trkpt>
      <trkpt lat="44.33361" lon="2.033">
        <ele>255.7</ele>
        <time>2016-01-03T09:48:50Z</time>
      </trkpt>
      <trkpt lat="44.33364" lon="2.033">
        <ele>255</ele>
        <time>2016-01-03T09:48:51Z</time>
      </trkpt>
      <trkpt lat="44.33367" lon="2.03301">
        <ele>254.3</ele>
        <time>2016-01-03T09:48:52Z</time>
      </trkpt>
      <trkpt lat="44.3337" lon="2.03302">
        <ele>253.7</ele>
        <time>2016-01-03T09:48:53Z</time>
      </trkpt>
      <trkpt lat="44.33373" lon="2.03304">
        <ele>253</ele>
        <time>2016-01-03T09:48:54Z</time>
      </trkpt>
      <trkpt lat="44.33377" lon="2.03306">
        <ele>252.8</ele>
        <time>2016-01-03T09:48:55Z</time>
      </trkpt>
      <trkpt lat="44.3338" lon="2.03307">
        <ele>253</ele>
        <time>2016-01-03T09:48:56Z</time>
      </trkpt>
      <trkpt lat="44.33383" lon="2.03306">
        <ele>252.8</ele>
        <time>2016-01-03T09:48:57Z</time>
      </trkpt>
      <trkpt lat="44.33386" lon="2.03304">
        <ele>252.5</ele>
        <time>2016-01-03T09:48:58Z</time>
      </trkpt>
      <trkpt lat="44.33389" lon="2.03303">
        <ele>252.3</ele>
        <time>2016-01-03T09:48:59Z</time>
      </trkpt>
      <trkpt lat="44.33391" lon="2.033">
        <ele>251.9</ele>
        <time>2016-01-03T09:49:00Z</time>
      </trkpt>
      <trkpt lat="44.33393" lon="2.03296">
        <ele>251.4</ele>
        <time>2016-01-03T09:49:01Z</time>
      </trkpt>
      <trkpt lat="44.33395" lon="2.03292">
        <ele>250.8</ele>
        <time>2016-01-03T09:49:02Z</time>
      </trkpt>
      <trkpt lat="44.33396" lon="2.03287">
        <ele>250.5</ele>
        <time>2016-01-03T09:49:04Z</time>
      </trkpt>
      <trkpt lat="44.33398" lon="2.03282">
        <ele>250.4</ele>
        <time>2016-01-03T09:49:06Z</time>
      </trkpt>
      <trkpt lat="44.33402" lon="2.03276">
        <ele>250.1</ele>
        <time>2016-01-03T09:49:09Z</time>
      </trkpt>
      <trkpt lat="44.33403" lon="2.03272">
        <ele>249.9</ele>
        <time>2016-01-03T09:49:10Z</time>
      </trkpt>
      <trkpt lat="44.33404" lon="2.03269">
        <ele>249.8</ele>
        <time>2016-01-03T09:49:11Z</time>
      </trkpt>
      <trkpt lat="44.33409" lon="2.03265">
        <ele>249.7</ele>
        <time>2016-01-03T09:49:13Z</time>
      </trkpt>
      <trkpt lat="44.33415" lon="2.03264">
        <ele>249.7</ele>
        <time>2016-01-03T09:49:15Z</time>
      </trkpt>
      <trkpt lat="44.33419" lon="2.03263">
        <ele>249.6</ele>
        <time>2016-01-03T09:49:16Z</time>
      </trkpt>
      <trkpt lat="44.33423" lon="2.03262">
        <ele>249.6</ele>
        <time>2016-01-03T09:49:17Z</time>
      </trkpt>
      <trkpt lat="44.33427" lon="2.03262">
        <ele>249.6</ele>
        <time>2016-01-03T09:49:18Z</time>
      </trkpt>
      <trkpt lat="44.3343" lon="2.03261">
        <ele>249.6</ele>
        <time>2016-01-03T09:49:19Z</time>
      </trkpt>
      <trkpt lat="44.33434" lon="2.03261">
        <ele>249.6</ele>
        <time>2016-01-03T09:49:20Z</time>
      </trkpt>
      <trkpt lat="44.33438" lon="2.0326">
        <ele>249.6</ele>
        <time>2016-01-03T09:49:21Z</time>
      </trkpt>
      <trkpt lat="44.33441" lon="2.0326">
        <ele>249.6</ele>
        <time>2016-01-03T09:49:22Z</time>
      </trkpt>
      <trkpt lat="44.33445" lon="2.0326">
        <ele>249.6</ele>
        <time>2016-01-03T09:49:23Z</time>
      </trkpt>
      <trkpt lat="44.33448" lon="2.03259">
        <ele>249.6</ele>
        <time>2016-01-03T09:49:24Z</time>
      </trkpt>
      <trkpt lat="44.33452" lon="2.03257">
        <ele>249.6</ele>
        <time>2016-01-03T09:49:25Z</time>
      </trkpt>
      <trkpt lat="44.33455" lon="2.03257">
        <ele>249.6</ele>
        <time>2016-01-03T09:49:26Z</time>
      </trkpt>
      <trkpt lat="44.33459" lon="2.03256">
        <ele>249.6</ele>
        <time>2016-01-03T09:49:27Z</time>
      </trkpt>
      <trkpt lat="44.33462" lon="2.03254">
        <ele>249.5</ele>
        <time>2016-01-03T09:49:28Z</time>
      </trkpt>
      <trkpt lat="44.33465" lon="2.03252">
        <ele>249.5</ele>
        <time>2016-01-03T09:49:29Z</time>
      </trkpt>
      <trkpt lat="44.33469" lon="2.03251">
        <ele>249.5</ele>
        <time>2016-01-03T09:49:30Z</time>
      </trkpt>
      <trkpt lat="44.33472" lon="2.03249">
        <ele>249.5</ele>
        <time>2016-01-03T09:49:31Z</time>
      </trkpt>
      <trkpt lat="44.33475" lon="2.03247">
        <ele>249.5</ele>
        <time>2016-01-03T09:49:32Z</time>
      </trkpt>
      <trkpt lat="44.33479" lon="2.03245">
        <ele>249.4</ele>
        <time>2016-01-03T09:49:33Z</time>
      </trkpt>
      <trkpt lat="44.33484" lon="2.03243">
        <ele>249.4</ele>
        <time>2016-01-03T09:49:34Z</time>
      </trkpt>
      <trkpt lat="44.33488" lon="2.03241">
        <ele>249.4</ele>
        <time>2016-01-03T09:49:35Z</time>
      </trkpt>
      <trkpt lat="44.33493" lon="2.03238">
        <ele>249.4</ele>
        <time>2016-01-03T09:49:36Z</time>
      </trkpt>
      <trkpt lat="44.33497" lon="2.03236">
        <ele>249.3</ele>
        <time>2016-01-03T09:49:37Z</time>
      </trkpt>
      <trkpt lat="44.33501" lon="2.03233">
        <ele>249.3</ele>
        <time>2016-01-03T09:49:38Z</time>
      </trkpt>
      <trkpt lat="44.33505" lon="2.03231">
        <ele>249.3</ele>
        <time>2016-01-03T09:49:39Z</time>
      </trkpt>
      <trkpt lat="44.3351" lon="2.03228">
        <ele>249.2</ele>
        <time>2016-01-03T09:49:40Z</time>
      </trkpt>
      <trkpt lat="44.33514" lon="2.03225">
        <ele>249.2</ele>
        <time>2016-01-03T09:49:41Z</time>
      </trkpt>
      <trkpt lat="44.33518" lon="2.03222">
        <ele>249.2</ele>
        <time>2016-01-03T09:49:42Z</time>
      </trkpt>
      <trkpt lat="44.33522" lon="2.03219">
        <ele>249.1</ele>
        <time>2016-01-03T09:49:43Z</time>
      </trkpt>
      <trkpt lat="44.33526" lon="2.0322">
        <ele>249.1</ele>
        <time>2016-01-03T09:49:44Z</time>
      </trkpt>
      <trkpt lat="44.3353" lon="2.03217">
        <ele>249.1</ele>
        <time>2016-01-03T09:49:45Z</time>
      </trkpt>
      <trkpt lat="44.33533" lon="2.03215">
        <ele>249.1</ele>
        <time>2016-01-03T09:49:46Z</time>
      </trkpt>
      <trkpt lat="44.33537" lon="2.03214">
        <ele>249.1</ele>
        <time>2016-01-03T09:49:47Z</time>
      </trkpt>
      <trkpt lat="44.3354" lon="2.03213">
        <ele>249.1</ele>
        <time>2016-01-03T09:49:48Z</time>
      </trkpt>
      <trkpt lat="44.33543" lon="2.03212">
        <ele>249</ele>
        <time>2016-01-03T09:49:49Z</time>
      </trkpt>
      <trkpt lat="44.33546" lon="2.03209">
        <ele>249</ele>
        <time>2016-01-03T09:49:50Z</time>
      </trkpt>
      <trkpt lat="44.33549" lon="2.03206">
        <ele>248.9</ele>
        <time>2016-01-03T09:49:51Z</time>
      </trkpt>
      <trkpt lat="44.33553" lon="2.03203">
        <ele>248.9</ele>
        <time>2016-01-03T09:49:52Z</time>
      </trkpt>
      <trkpt lat="44.33556" lon="2.03198">
        <ele>248.9</ele>
        <time>2016-01-03T09:49:53Z</time>
      </trkpt>
      <trkpt lat="44.33559" lon="2.03193">
        <ele>248.8</ele>
        <time>2016-01-03T09:49:54Z</time>
      </trkpt>
      <trkpt lat="44.33562" lon="2.03189">
        <ele>248.8</ele>
        <time>2016-01-03T09:49:55Z</time>
      </trkpt>
      <trkpt lat="44.33565" lon="2.03185">
        <ele>248.8</ele>
        <time>2016-01-03T09:49:56Z</time>
      </trkpt>
      <trkpt lat="44.33568" lon="2.03181">
        <ele>248.8</ele>
        <time>2016-01-03T09:49:57Z</time>
      </trkpt>
      <trkpt lat="44.33571" lon="2.03178">
        <ele>248.8</ele>
        <time>2016-01-03T09:49:58Z</time>
      </trkpt>
      <trkpt lat="44.33574" lon="2.03175">
        <ele>248.8</ele>
        <time>2016-01-03T09:49:59Z</time>
      </trkpt>
      <trkpt lat="44.33576" lon="2.03172">
        <ele>248.8</ele>
        <time>2016-01-03T09:50:00Z</time>
      </trkpt>
      <trkpt lat="44.33579" lon="2.03169">
        <ele>248.8</ele>
        <time>2016-01-03T09:50:01Z</time>
      </trkpt>
      <trkpt lat="44.33582" lon="2.03165">
        <ele>248.8</ele>
        <time>2016-01-03T09:50:02Z</time>
      </trkpt>
      <trkpt lat="44.33585" lon="2.03161">
        <ele>248.8</ele>
        <time>2016-01-03T09:50:03Z</time>
      </trkpt>
      <trkpt lat="44.33589" lon="2.03158">
        <ele>248.8</ele>
        <time>2016-01-03T09:50:04Z</time>
      </trkpt>
      <trkpt lat="44.33592" lon="2.03154">
        <ele>248.8</ele>
        <time>2016-01-03T09:50:05Z</time>
      </trkpt>
      <trkpt lat="44.33594" lon="2.0315">
        <ele>248.8</ele>
        <time>2016-01-03T09:50:06Z</time>
      </trkpt>
      <trkpt lat="44.33598" lon="2.03145">
        <ele>248.8</ele>
        <time>2016-01-03T09:50:07Z</time>
      </trkpt>
      <trkpt lat="44.33601" lon="2.03142">
        <ele>248.9</ele>
        <time>2016-01-03T09:50:08Z</time>
      </trkpt>
      <trkpt lat="44.33605" lon="2.03139">
        <ele>248.9</ele>
        <time>2016-01-03T09:50:09Z</time>
      </trkpt>
      <trkpt lat="44.33608" lon="2.03135">
        <ele>248.9</ele>
        <time>2016-01-03T09:50:10Z</time>
      </trkpt>
      <trkpt lat="44.33611" lon="2.03129">
        <ele>249</ele>
        <time>2016-01-03T09:50:11Z</time>
      </trkpt>
      <trkpt lat="44.33615" lon="2.03126">
        <ele>249</ele>
        <time>2016-01-03T09:50:12Z</time>
      </trkpt>
      <trkpt lat="44.33618" lon="2.03123">
        <ele>249.1</ele>
        <time>2016-01-03T09:50:13Z</time>
      </trkpt>
      <trkpt lat="44.3362" lon="2.03119">
        <ele>249.4</ele>
        <time>2016-01-03T09:50:14Z</time>
      </trkpt>
      <trkpt lat="44.33623" lon="2.03116">
        <ele>249.7</ele>
        <time>2016-01-03T09:50:15Z</time>
      </trkpt>
      <trkpt lat="44.33625" lon="2.03113">
        <ele>249.9</ele>
        <time>2016-01-03T09:50:16Z</time>
      </trkpt>
      <trkpt lat="44.33628" lon="2.03111">
        <ele>250</ele>
        <time>2016-01-03T09:50:18Z</time>
      </trkpt>
      <trkpt lat="44.33633" lon="2.03113">
        <ele>249.9</ele>
        <time>2016-01-03T09:50:20Z</time>
      </trkpt>
      <trkpt lat="44.33637" lon="2.03115">
        <ele>249.8</ele>
        <time>2016-01-03T09:50:22Z</time>
      </trkpt>
      <trkpt lat="44.3364" lon="2.03114">
        <ele>249.8</ele>
        <time>2016-01-03T09:50:23Z</time>
      </trkpt>
      <trkpt lat="44.33643" lon="2.03113">
        <ele>249.9</ele>
        <time>2016-01-03T09:50:24Z</time>
      </trkpt>
      <trkpt lat="44.33647" lon="2.03113">
        <ele>249.9</ele>
        <time>2016-01-03T09:50:25Z</time>
      </trkpt>
      <trkpt lat="44.3365" lon="2.03112">
        <ele>249.9</ele>
        <time>2016-01-03T09:50:26Z</time>
      </trkpt>
      <trkpt lat="44.33653" lon="2.03111">
        <ele>250</ele>
        <time>2016-01-03T09:50:27Z</time>
      </trkpt>
      <trkpt lat="44.33657" lon="2.03111">
        <ele>250</ele>
        <time>2016-01-03T09:50:28Z</time>
      </trkpt>
      <trkpt lat="44.3366" lon="2.0311">
        <ele>250</ele>
        <time>2016-01-03T09:50:29Z</time>
      </trkpt>
      <trkpt lat="44.33664" lon="2.0311">
        <ele>250.1</ele>
        <time>2016-01-03T09:50:30Z</time>
      </trkpt>
      <trkpt lat="44.33667" lon="2.0311">
        <ele>250</ele>
        <time>2016-01-03T09:50:31Z</time>
      </trkpt>
      <trkpt lat="44.33671" lon="2.0311">
        <ele>250</ele>
        <time>2016-01-03T09:50:32Z</time>
      </trkpt>
      <trkpt lat="44.33675" lon="2.0311">
        <ele>250</ele>
        <time>2016-01-03T09:50:33Z</time>
      </trkpt>
      <trkpt lat="44.33679" lon="2.0311">
        <ele>250</ele>
        <time>2016-01-03T09:50:34Z</time>
      </trkpt>
      <trkpt lat="44.33683" lon="2.03111">
        <ele>250</ele>
        <time>2016-01-03T09:50:35Z</time>
      </trkpt>
      <trkpt lat="44.33687" lon="2.03111">
        <ele>250</ele>
        <time>2016-01-03T09:50:36Z</time>
      </trkpt>
      <trkpt lat="44.33691" lon="2.03111">
        <ele>250</ele>
        <time>2016-01-03T09:50:37Z</time>
      </trkpt>
      <trkpt lat="44.33695" lon="2.03111">
        <ele>250</ele>
        <time>2016-01-03T09:50:38Z</time>
      </trkpt>
      <trkpt lat="44.33699" lon="2.03111">
        <ele>250</ele>
        <time>2016-01-03T09:50:39Z</time>
      </trkpt>
      <trkpt lat="44.33703" lon="2.03111">
        <ele>250</ele>
        <time>2016-01-03T09:50:40Z</time>
      </trkpt>
      <trkpt lat="44.33707" lon="2.03111">
        <ele>250</ele>
        <time>2016-01-03T09:50:41Z</time>
      </trkpt>
      <trkpt lat="44.33712" lon="2.0311">
        <ele>250</ele>
        <time>2016-01-03T09:50:42Z</time>
      </trkpt>
      <trkpt lat="44.33716" lon="2.03109">
        <ele>250.1</ele>
        <time>2016-01-03T09:50:43Z</time>
      </trkpt>
      <trkpt lat="44.3372" lon="2.03109">
        <ele>250.1</ele>
        <time>2016-01-03T09:50:44Z</time>
      </trkpt>
      <trkpt lat="44.33725" lon="2.03109">
        <ele>250.2</ele>
        <time>2016-01-03T09:50:45Z</time>
      </trkpt>
      <trkpt lat="44.33728" lon="2.0311">
        <ele>250.2</ele>
        <time>2016-01-03T09:50:46Z</time>
      </trkpt>
      <trkpt lat="44.33731" lon="2.03113">
        <ele>250.2</ele>
        <time>2016-01-03T09:50:47Z</time>
      </trkpt>
      <trkpt lat="44.33735" lon="2.03118">
        <ele>250.3</ele>
        <time>2016-01-03T09:50:48Z</time>
      </trkpt>
      <trkpt lat="44.3374" lon="2.0312">
        <ele>250.4</ele>
        <time>2016-01-03T09:50:49Z</time>
      </trkpt>
      <trkpt lat="44.33746" lon="2.03119">
        <ele>250.4</ele>
        <time>2016-01-03T09:50:50Z</time>
      </trkpt>
      <trkpt lat="44.33751" lon="2.03121">
        <ele>250.5</ele>
        <time>2016-01-03T09:50:51Z</time>
      </trkpt>
      <trkpt lat="44.33756" lon="2.03122">
        <ele>250.5</ele>
        <time>2016-01-03T09:50:52Z</time>
      </trkpt>
      <trkpt lat="44.3376" lon="2.03123">
        <ele>250.6</ele>
        <time>2016-01-03T09:50:53Z</time>
      </trkpt>
      <trkpt lat="44.33764" lon="2.03125">
        <ele>250.7</ele>
        <time>2016-01-03T09:50:54Z</time>
      </trkpt>
      <trkpt lat="44.33769" lon="2.03126">
        <ele>250.7</ele>
        <time>2016-01-03T09:50:55Z</time>
      </trkpt>
      <trkpt lat="44.33774" lon="2.03125">
        <ele>250.8</ele>
        <time>2016-01-03T09:50:56Z</time>
      </trkpt>
      <trkpt lat="44.33779" lon="2.03125">
        <ele>250.8</ele>
        <time>2016-01-03T09:50:57Z</time>
      </trkpt>
      <trkpt lat="44.33784" lon="2.03125">
        <ele>250.9</ele>
        <time>2016-01-03T09:50:58Z</time>
      </trkpt>
      <trkpt lat="44.33788" lon="2.03125">
        <ele>250.9</ele>
        <time>2016-01-03T09:50:59Z</time>
      </trkpt>
      <trkpt lat="44.33793" lon="2.03123">
        <ele>251</ele>
        <time>2016-01-03T09:51:00Z</time>
      </trkpt>
      <trkpt lat="44.33798" lon="2.03123">
        <ele>251</ele>
        <time>2016-01-03T09:51:01Z</time>
      </trkpt>
      <trkpt lat="44.33803" lon="2.03123">
        <ele>251.1</ele>
        <time>2016-01-03T09:51:02Z</time>
      </trkpt>
      <trkpt lat="44.33807" lon="2.03123">
        <ele>251.2</ele>
        <time>2016-01-03T09:51:03Z</time>
      </trkpt>
      <trkpt lat="44.33811" lon="2.03124">
        <ele>251.2</ele>
        <time>2016-01-03T09:51:04Z</time>
      </trkpt>
      <trkpt lat="44.33816" lon="2.03125">
        <ele>251.3</ele>
        <time>2016-01-03T09:51:05Z</time>
      </trkpt>
      <trkpt lat="44.3382" lon="2.03126">
        <ele>251.3</ele>
        <time>2016-01-03T09:51:06Z</time>
      </trkpt>
      <trkpt lat="44.33824" lon="2.03127">
        <ele>251.4</ele>
        <time>2016-01-03T09:51:07Z</time>
      </trkpt>
      <trkpt lat="44.33829" lon="2.03127">
        <ele>251.4</ele>
        <time>2016-01-03T09:51:08Z</time>
      </trkpt>
      <trkpt lat="44.33833" lon="2.03128">
        <ele>251.5</ele>
        <time>2016-01-03T09:51:09Z</time>
      </trkpt>
      <trkpt lat="44.33837" lon="2.03128">
        <ele>251.6</ele>
        <time>2016-01-03T09:51:10Z</time>
      </trkpt>
      <trkpt lat="44.33842" lon="2.03129">
        <ele>251.6</ele>
        <time>2016-01-03T09:51:11Z</time>
      </trkpt>
      <trkpt lat="44.33846" lon="2.0313">
        <ele>251.7</ele>
        <time>2016-01-03T09:51:12Z</time>
      </trkpt>
      <trkpt lat="44.3385" lon="2.0313">
        <ele>251.7</ele>
        <time>2016-01-03T09:51:13Z</time>
      </trkpt>
      <trkpt lat="44.33854" lon="2.0313">
        <ele>251.8</ele>
        <time>2016-01-03T09:51:14Z</time>
      </trkpt>
      <trkpt lat="44.33858" lon="2.03132">
        <ele>251.8</ele>
        <time>2016-01-03T09:51:15Z</time>
      </trkpt>
      <trkpt lat="44.33861" lon="2.03134">
        <ele>251.9</ele>
        <time>2016-01-03T09:51:16Z</time>
      </trkpt>
      <trkpt lat="44.33866" lon="2.03135">
        <ele>252</ele>
        <time>2016-01-03T09:51:17Z</time>
      </trkpt>
      <trkpt lat="44.3387" lon="2.03136">
        <ele>252.1</ele>
        <time>2016-01-03T09:51:18Z</time>
      </trkpt>
      <trkpt lat="44.33874" lon="2.03137">
        <ele>252.1</ele>
        <time>2016-01-03T09:51:19Z</time>
      </trkpt>
      <trkpt lat="44.33878" lon="2.03137">
        <ele>252.1</ele>
        <time>2016-01-03T09:51:20Z</time>
      </trkpt>
      <trkpt lat="44.33882" lon="2.03138">
        <ele>252.1</ele>
        <time>2016-01-03T09:51:21Z</time>
      </trkpt>
      <trkpt lat="44.33886" lon="2.03139">
        <ele>252.1</ele>
        <time>2016-01-03T09:51:22Z</time>
      </trkpt>
      <trkpt lat="44.3389" lon="2.03139">
        <ele>252</ele>
        <time>2016-01-03T09:51:23Z</time>
      </trkpt>
      <trkpt lat="44.33894" lon="2.0314">
        <ele>252</ele>
        <time>2016-01-03T09:51:24Z</time>
      </trkpt>
      <trkpt lat="44.33898" lon="2.03139">
        <ele>251.9</ele>
        <time>2016-01-03T09:51:25Z</time>
      </trkpt>
      <trkpt lat="44.33902" lon="2.0314">
        <ele>251.9</ele>
        <time>2016-01-03T09:51:26Z</time>
      </trkpt>
      <trkpt lat="44.33906" lon="2.0314">
        <ele>251.9</ele>
        <time>2016-01-03T09:51:27Z</time>
      </trkpt>
      <trkpt lat="44.3391" lon="2.03141">
        <ele>251.9</ele>
        <time>2016-01-03T09:51:28Z</time>
      </trkpt>
      <trkpt lat="44.33914" lon="2.03142">
        <ele>251.8</ele>
        <time>2016-01-03T09:51:29Z</time>
      </trkpt>
      <trkpt lat="44.33918" lon="2.03142">
        <ele>251.8</ele>
        <time>2016-01-03T09:51:30Z</time>
      </trkpt>
      <trkpt lat="44.33921" lon="2.03142">
        <ele>251.8</ele>
        <time>2016-01-03T09:51:31Z</time>
      </trkpt>
      <trkpt lat="44.33925" lon="2.03142">
        <ele>251.7</ele>
        <time>2016-01-03T09:51:32Z</time>
      </trkpt>
      <trkpt lat="44.33929" lon="2.03143">
        <ele>251.7</ele>
        <time>2016-01-03T09:51:33Z</time>
      </trkpt>
      <trkpt lat="44.33932" lon="2.03143">
        <ele>251.7</ele>
        <time>2016-01-03T09:51:34Z</time>
      </trkpt>
      <trkpt lat="44.33936" lon="2.03144">
        <ele>251.7</ele>
        <time>2016-01-03T09:51:35Z</time>
      </trkpt>
      <trkpt lat="44.33939" lon="2.03144">
        <ele>251.6</ele>
        <time>2016-01-03T09:51:36Z</time>
      </trkpt>
      <trkpt lat="44.33942" lon="2.03143">
        <ele>251.6</ele>
        <time>2016-01-03T09:51:37Z</time>
      </trkpt>
      <trkpt lat="44.33946" lon="2.03143">
        <ele>251.5</ele>
        <time>2016-01-03T09:51:38Z</time>
      </trkpt>
      <trkpt lat="44.3395" lon="2.03143">
        <ele>251.5</ele>
        <time>2016-01-03T09:51:39Z</time>
      </trkpt>
      <trkpt lat="44.33953" lon="2.03143">
        <ele>251.5</ele>
        <time>2016-01-03T09:51:40Z</time>
      </trkpt>
      <trkpt lat="44.33957" lon="2.03143">
        <ele>251.4</ele>
        <time>2016-01-03T09:51:41Z</time>
      </trkpt>
      <trkpt lat="44.33962" lon="2.03143">
        <ele>251.4</ele>
        <time>2016-01-03T09:51:42Z</time>
      </trkpt>
      <trkpt lat="44.33965" lon="2.03143">
        <ele>251.5</ele>
        <time>2016-01-03T09:51:43Z</time>
      </trkpt>
      <trkpt lat="44.33968" lon="2.03143">
        <ele>251.5</ele>
        <time>2016-01-03T09:51:44Z</time>
      </trkpt>
      <trkpt lat="44.33971" lon="2.03143">
        <ele>251.5</ele>
        <time>2016-01-03T09:51:45Z</time>
      </trkpt>
      <trkpt lat="44.33975" lon="2.03144">
        <ele>251.5</ele>
        <time>2016-01-03T09:51:46Z</time>
      </trkpt>
      <trkpt lat="44.33978" lon="2.03145">
        <ele>251.5</ele>
        <time>2016-01-03T09:51:47Z</time>
      </trkpt>
      <trkpt lat="44.33982" lon="2.03145">
        <ele>251.5</ele>
        <time>2016-01-03T09:51:48Z</time>
      </trkpt>
      <trkpt lat="44.33985" lon="2.03145">
        <ele>251.5</ele>
        <time>2016-01-03T09:51:49Z</time>
      </trkpt>
      <trkpt lat="44.33988" lon="2.03145">
        <ele>251.6</ele>
        <time>2016-01-03T09:51:50Z</time>
      </trkpt>
      <trkpt lat="44.33991" lon="2.03145">
        <ele>251.6</ele>
        <time>2016-01-03T09:51:51Z</time>
      </trkpt>
      <trkpt lat="44.33996" lon="2.03146">
        <ele>251.6</ele>
        <time>2016-01-03T09:51:53Z</time>
      </trkpt>
      <trkpt lat="44.34001" lon="2.03146">
        <ele>251.6</ele>
        <time>2016-01-03T09:51:55Z</time>
      </trkpt>
      <trkpt lat="44.34004" lon="2.03146">
        <ele>251.6</ele>
        <time>2016-01-03T09:51:56Z</time>
      </trkpt>
      <trkpt lat="44.34007" lon="2.03146">
        <ele>251.6</ele>
        <time>2016-01-03T09:51:57Z</time>
      </trkpt>
      <trkpt lat="44.3401" lon="2.03147">
        <ele>251.7</ele>
        <time>2016-01-03T09:51:58Z</time>
      </trkpt>
      <trkpt lat="44.34014" lon="2.03147">
        <ele>251.7</ele>
        <time>2016-01-03T09:51:59Z</time>
      </trkpt>
      <trkpt lat="44.34017" lon="2.03147">
        <ele>251.7</ele>
        <time>2016-01-03T09:52:00Z</time>
      </trkpt>
      <trkpt lat="44.3402" lon="2.03147">
        <ele>251.7</ele>
        <time>2016-01-03T09:52:01Z</time>
      </trkpt>
      <trkpt lat="44.34024" lon="2.03147">
        <ele>251.7</ele>
        <time>2016-01-03T09:52:02Z</time>
      </trkpt>
      <trkpt lat="44.34027" lon="2.03147">
        <ele>251.7</ele>
        <time>2016-01-03T09:52:03Z</time>
      </trkpt>
      <trkpt lat="44.3403" lon="2.03147">
        <ele>251.7</ele>
        <time>2016-01-03T09:52:04Z</time>
      </trkpt>
      <trkpt lat="44.34033" lon="2.03147">
        <ele>251.8</ele>
        <time>2016-01-03T09:52:05Z</time>
      </trkpt>
      <trkpt lat="44.34037" lon="2.03148">
        <ele>251.8</ele>
        <time>2016-01-03T09:52:06Z</time>
      </trkpt>
      <trkpt lat="44.3404" lon="2.03148">
        <ele>251.8</ele>
        <time>2016-01-03T09:52:07Z</time>
      </trkpt>
      <trkpt lat="44.34043" lon="2.03148">
        <ele>251.9</ele>
        <time>2016-01-03T09:52:08Z</time>
      </trkpt>
      <trkpt lat="44.34047" lon="2.03149">
        <ele>251.9</ele>
        <time>2016-01-03T09:52:09Z</time>
      </trkpt>
      <trkpt lat="44.3405" lon="2.03148">
        <ele>251.9</ele>
        <time>2016-01-03T09:52:10Z</time>
      </trkpt>
      <trkpt lat="44.34054" lon="2.03149">
        <ele>252</ele>
        <time>2016-01-03T09:52:11Z</time>
      </trkpt>
      <trkpt lat="44.34057" lon="2.03149">
        <ele>252.1</ele>
        <time>2016-01-03T09:52:12Z</time>
      </trkpt>
      <trkpt lat="44.34061" lon="2.0315">
        <ele>252.1</ele>
        <time>2016-01-03T09:52:13Z</time>
      </trkpt>
      <trkpt lat="44.34067" lon="2.03151">
        <ele>252.3</ele>
        <time>2016-01-03T09:52:15Z</time>
      </trkpt>
      <trkpt lat="44.34071" lon="2.03152">
        <ele>252.3</ele>
        <time>2016-01-03T09:52:16Z</time>
      </trkpt>
      <trkpt lat="44.34075" lon="2.03154">
        <ele>252.5</ele>
        <time>2016-01-03T09:52:17Z</time>
      </trkpt>
      <trkpt lat="44.34079" lon="2.03156">
        <ele>252.6</ele>
        <time>2016-01-03T09:52:18Z</time>
      </trkpt>
      <trkpt lat="44.34082" lon="2.03157">
        <ele>252.6</ele>
        <time>2016-01-03T09:52:19Z</time>
      </trkpt>
      <trkpt lat="44.34086" lon="2.03157">
        <ele>252.7</ele>
        <time>2016-01-03T09:52:20Z</time>
      </trkpt>
      <trkpt lat="44.34089" lon="2.03157">
        <ele>252.7</ele>
        <time>2016-01-03T09:52:21Z</time>
      </trkpt>
      <trkpt lat="44.34092" lon="2.03157">
        <ele>252.7</ele>
        <time>2016-01-03T09:52:22Z</time>
      </trkpt>
      <trkpt lat="44.34096" lon="2.03157">
        <ele>252.8</ele>
        <time>2016-01-03T09:52:23Z</time>
      </trkpt>
      <trkpt lat="44.34101" lon="2.03159">
        <ele>252.9</ele>
        <time>2016-01-03T09:52:24Z</time>
      </trkpt>
      <trkpt lat="44.34106" lon="2.03161">
        <ele>253.1</ele>
        <time>2016-01-03T09:52:25Z</time>
      </trkpt>
      <trkpt lat="44.3411" lon="2.03162">
        <ele>253.2</ele>
        <time>2016-01-03T09:52:26Z</time>
      </trkpt>
      <trkpt lat="44.34114" lon="2.03163">
        <ele>253.2</ele>
        <time>2016-01-03T09:52:27Z</time>
      </trkpt>
      <trkpt lat="44.34118" lon="2.03164">
        <ele>253.3</ele>
        <time>2016-01-03T09:52:28Z</time>
      </trkpt>
      <trkpt lat="44.34122" lon="2.03165">
        <ele>253.4</ele>
        <time>2016-01-03T09:52:29Z</time>
      </trkpt>
      <trkpt lat="44.34125" lon="2.03166">
        <ele>253.5</ele>
        <time>2016-01-03T09:52:30Z</time>
      </trkpt>
      <trkpt lat="44.34129" lon="2.03168">
        <ele>253.5</ele>
        <time>2016-01-03T09:52:31Z</time>
      </trkpt>
      <trkpt lat="44.34133" lon="2.0317">
        <ele>253.5</ele>
        <time>2016-01-03T09:52:32Z</time>
      </trkpt>
      <trkpt lat="44.34137" lon="2.03172">
        <ele>253.5</ele>
        <time>2016-01-03T09:52:33Z</time>
      </trkpt>
      <trkpt lat="44.34142" lon="2.03173">
        <ele>253.5</ele>
        <time>2016-01-03T09:52:34Z</time>
      </trkpt>
      <trkpt lat="44.34146" lon="2.03175">
        <ele>253.5</ele>
        <time>2016-01-03T09:52:35Z</time>
      </trkpt>
      <trkpt lat="44.34149" lon="2.03176">
        <ele>253.6</ele>
        <time>2016-01-03T09:52:36Z</time>
      </trkpt>
      <trkpt lat="44.34153" lon="2.03178">
        <ele>253.6</ele>
        <time>2016-01-03T09:52:37Z</time>
      </trkpt>
      <trkpt lat="44.34157" lon="2.03179">
        <ele>253.6</ele>
        <time>2016-01-03T09:52:38Z</time>
      </trkpt>
      <trkpt lat="44.34161" lon="2.03181">
        <ele>253.6</ele>
        <time>2016-01-03T09:52:39Z</time>
      </trkpt>
      <trkpt lat="44.34164" lon="2.03182">
        <ele>253.6</ele>
        <time>2016-01-03T09:52:40Z</time>
      </trkpt>
      <trkpt lat="44.34167" lon="2.03184">
        <ele>253.6</ele>
        <time>2016-01-03T09:52:41Z</time>
      </trkpt>
      <trkpt lat="44.34171" lon="2.03185">
        <ele>253.6</ele>
        <time>2016-01-03T09:52:42Z</time>
      </trkpt>
      <trkpt lat="44.34175" lon="2.03186">
        <ele>253.6</ele>
        <time>2016-01-03T09:52:43Z</time>
      </trkpt>
      <trkpt lat="44.34179" lon="2.03187">
        <ele>253.6</ele>
        <time>2016-01-03T09:52:44Z</time>
      </trkpt>
      <trkpt lat="44.34183" lon="2.03188">
        <ele>253.6</ele>
        <time>2016-01-03T09:52:45Z</time>
      </trkpt>
      <trkpt lat="44.34186" lon="2.0319">
        <ele>253.6</ele>
        <time>2016-01-03T09:52:46Z</time>
      </trkpt>
      <trkpt lat="44.3419" lon="2.03191">
        <ele>253.6</ele>
        <time>2016-01-03T09:52:47Z</time>
      </trkpt>
      <trkpt lat="44.34195" lon="2.03191">
        <ele>253.6</ele>
        <time>2016-01-03T09:52:48Z</time>
      </trkpt>
      <trkpt lat="44.34199" lon="2.03192">
        <ele>253.5</ele>
        <time>2016-01-03T09:52:49Z</time>
      </trkpt>
      <trkpt lat="44.34203" lon="2.03193">
        <ele>253.5</ele>
        <time>2016-01-03T09:52:50Z</time>
      </trkpt>
      <trkpt lat="44.34207" lon="2.03194">
        <ele>253.5</ele>
        <time>2016-01-03T09:52:51Z</time>
      </trkpt>
      <trkpt lat="44.34211" lon="2.03196">
        <ele>253.6</ele>
        <time>2016-01-03T09:52:52Z</time>
      </trkpt>
      <trkpt lat="44.34215" lon="2.03197">
        <ele>253.6</ele>
        <time>2016-01-03T09:52:53Z</time>
      </trkpt>
      <trkpt lat="44.34218" lon="2.03197">
        <ele>253.7</ele>
        <time>2016-01-03T09:52:54Z</time>
      </trkpt>
      <trkpt lat="44.34222" lon="2.03197">
        <ele>253.7</ele>
        <time>2016-01-03T09:52:55Z</time>
      </trkpt>
      <trkpt lat="44.34226" lon="2.03199">
        <ele>253.8</ele>
        <time>2016-01-03T09:52:56Z</time>
      </trkpt>
      <trkpt lat="44.3423" lon="2.032">
        <ele>253.9</ele>
        <time>2016-01-03T09:52:57Z</time>
      </trkpt>
      <trkpt lat="44.34234" lon="2.03201">
        <ele>254</ele>
        <time>2016-01-03T09:52:58Z</time>
      </trkpt>
      <trkpt lat="44.34238" lon="2.03202">
        <ele>254.1</ele>
        <time>2016-01-03T09:52:59Z</time>
      </trkpt>
      <trkpt lat="44.34241" lon="2.03204">
        <ele>254.2</ele>
        <time>2016-01-03T09:53:00Z</time>
      </trkpt>
      <trkpt lat="44.34245" lon="2.03207">
        <ele>254.4</ele>
        <time>2016-01-03T09:53:01Z</time>
      </trkpt>
      <trkpt lat="44.34248" lon="2.03209">
        <ele>254.5</ele>
        <time>2016-01-03T09:53:02Z</time>
      </trkpt>
      <trkpt lat="44.34252" lon="2.03211">
        <ele>254.6</ele>
        <time>2016-01-03T09:53:03Z</time>
      </trkpt>
      <trkpt lat="44.34256" lon="2.03213">
        <ele>254.8</ele>
        <time>2016-01-03T09:53:04Z</time>
      </trkpt>
      <trkpt lat="44.3426" lon="2.03214">
        <ele>254.8</ele>
        <time>2016-01-03T09:53:05Z</time>
      </trkpt>
      <trkpt lat="44.34264" lon="2.03215">
        <ele>254.9</ele>
        <time>2016-01-03T09:53:06Z</time>
      </trkpt>
      <trkpt lat="44.34267" lon="2.03215">
        <ele>255</ele>
        <time>2016-01-03T09:53:07Z</time>
      </trkpt>
      <trkpt lat="44.34271" lon="2.03214">
        <ele>255</ele>
        <time>2016-01-03T09:53:08Z</time>
      </trkpt>
      <trkpt lat="44.34275" lon="2.03216">
        <ele>255.1</ele>
        <time>2016-01-03T09:53:09Z</time>
      </trkpt>
      <trkpt lat="44.34278" lon="2.03216">
        <ele>255.1</ele>
        <time>2016-01-03T09:53:10Z</time>
      </trkpt>
      <trkpt lat="44.34282" lon="2.03217">
        <ele>255.2</ele>
        <time>2016-01-03T09:53:11Z</time>
      </trkpt>
      <trkpt lat="44.34286" lon="2.03217">
        <ele>255.2</ele>
        <time>2016-01-03T09:53:12Z</time>
      </trkpt>
      <trkpt lat="44.3429" lon="2.03218">
        <ele>255.3</ele>
        <time>2016-01-03T09:53:13Z</time>
      </trkpt>
      <trkpt lat="44.34294" lon="2.03219">
        <ele>255.3</ele>
        <time>2016-01-03T09:53:14Z</time>
      </trkpt>
      <trkpt lat="44.34298" lon="2.03219">
        <ele>255.2</ele>
        <time>2016-01-03T09:53:15Z</time>
      </trkpt>
      <trkpt lat="44.34302" lon="2.0322">
        <ele>255.1</ele>
        <time>2016-01-03T09:53:16Z</time>
      </trkpt>
      <trkpt lat="44.34307" lon="2.03221">
        <ele>255</ele>
        <time>2016-01-03T09:53:17Z</time>
      </trkpt>
      <trkpt lat="44.34312" lon="2.03221">
        <ele>254.8</ele>
        <time>2016-01-03T09:53:18Z</time>
      </trkpt>
      <trkpt lat="44.34317" lon="2.03221">
        <ele>254.7</ele>
        <time>2016-01-03T09:53:19Z</time>
      </trkpt>
      <trkpt lat="44.34322" lon="2.03222">
        <ele>254.5</ele>
        <time>2016-01-03T09:53:20Z</time>
      </trkpt>
      <trkpt lat="44.34326" lon="2.03222">
        <ele>254.4</ele>
        <time>2016-01-03T09:53:21Z</time>
      </trkpt>
      <trkpt lat="44.3433" lon="2.03222">
        <ele>254.3</ele>
        <time>2016-01-03T09:53:22Z</time>
      </trkpt>
      <trkpt lat="44.34335" lon="2.03222">
        <ele>254.1</ele>
        <time>2016-01-03T09:53:23Z</time>
      </trkpt>
      <trkpt lat="44.34339" lon="2.03223">
        <ele>254</ele>
        <time>2016-01-03T09:53:24Z</time>
      </trkpt>
      <trkpt lat="44.34344" lon="2.03224">
        <ele>253.9</ele>
        <time>2016-01-03T09:53:25Z</time>
      </trkpt>
      <trkpt lat="44.34349" lon="2.03225">
        <ele>253.8</ele>
        <time>2016-01-03T09:53:26Z</time>
      </trkpt>
      <trkpt lat="44.34353" lon="2.03227">
        <ele>253.8</ele>
        <time>2016-01-03T09:53:27Z</time>
      </trkpt>
      <trkpt lat="44.34358" lon="2.03227">
        <ele>253.6</ele>
        <time>2016-01-03T09:53:28Z</time>
      </trkpt>
      <trkpt lat="44.34363" lon="2.03229">
        <ele>253.6</ele>
        <time>2016-01-03T09:53:29Z</time>
      </trkpt>
      <trkpt lat="44.34368" lon="2.0323">
        <ele>253.5</ele>
        <time>2016-01-03T09:53:30Z</time>
      </trkpt>
      <trkpt lat="44.34372" lon="2.03231">
        <ele>253.5</ele>
        <time>2016-01-03T09:53:31Z</time>
      </trkpt>
      <trkpt lat="44.34377" lon="2.03233">
        <ele>253.4</ele>
        <time>2016-01-03T09:53:32Z</time>
      </trkpt>
      <trkpt lat="44.34381" lon="2.03234">
        <ele>253.5</ele>
        <time>2016-01-03T09:53:33Z</time>
      </trkpt>
      <trkpt lat="44.34386" lon="2.03235">
        <ele>253.5</ele>
        <time>2016-01-03T09:53:34Z</time>
      </trkpt>
      <trkpt lat="44.3439" lon="2.03236">
        <ele>253.5</ele>
        <time>2016-01-03T09:53:35Z</time>
      </trkpt>
      <trkpt lat="44.34395" lon="2.03237">
        <ele>253.5</ele>
        <time>2016-01-03T09:53:36Z</time>
      </trkpt>
      <trkpt lat="44.34399" lon="2.03237">
        <ele>253.5</ele>
        <time>2016-01-03T09:53:37Z</time>
      </trkpt>
      <trkpt lat="44.34404" lon="2.03238">
        <ele>253.6</ele>
        <time>2016-01-03T09:53:38Z</time>
      </trkpt>
      <trkpt lat="44.34408" lon="2.03239">
        <ele>253.6</ele>
        <time>2016-01-03T09:53:39Z</time>
      </trkpt>
      <trkpt lat="44.34412" lon="2.0324">
        <ele>253.6</ele>
        <time>2016-01-03T09:53:40Z</time>
      </trkpt>
      <trkpt lat="44.34417" lon="2.03241">
        <ele>253.6</ele>
        <time>2016-01-03T09:53:41Z</time>
      </trkpt>
      <trkpt lat="44.34423" lon="2.03241">
        <ele>253.6</ele>
        <time>2016-01-03T09:53:43Z</time>
      </trkpt>
      <trkpt lat="44.34428" lon="2.03242">
        <ele>253.7</ele>
        <time>2016-01-03T09:53:44Z</time>
      </trkpt>
      <trkpt lat="44.34432" lon="2.03243">
        <ele>253.7</ele>
        <time>2016-01-03T09:53:45Z</time>
      </trkpt>
      <trkpt lat="44.34436" lon="2.03243">
        <ele>253.7</ele>
        <time>2016-01-03T09:53:46Z</time>
      </trkpt>
      <trkpt lat="44.3444" lon="2.03243">
        <ele>253.6</ele>
        <time>2016-01-03T09:53:47Z</time>
      </trkpt>
      <trkpt lat="44.34444" lon="2.03244">
        <ele>253.7</ele>
        <time>2016-01-03T09:53:48Z</time>
      </trkpt>
      <trkpt lat="44.34448" lon="2.03244">
        <ele>253.6</ele>
        <time>2016-01-03T09:53:49Z</time>
      </trkpt>
      <trkpt lat="44.34452" lon="2.03246">
        <ele>253.7</ele>
        <time>2016-01-03T09:53:50Z</time>
      </trkpt>
      <trkpt lat="44.34457" lon="2.0325">
        <ele>254</ele>
        <time>2016-01-03T09:53:51Z</time>
      </trkpt>
      <trkpt lat="44.3446" lon="2.03252">
        <ele>254.2</ele>
        <time>2016-01-03T09:53:52Z</time>
      </trkpt>
      <trkpt lat="44.34464" lon="2.03255">
        <ele>254.4</ele>
        <time>2016-01-03T09:53:53Z</time>
      </trkpt>
      <trkpt lat="44.34469" lon="2.03259">
        <ele>254.7</ele>
        <time>2016-01-03T09:53:54Z</time>
      </trkpt>
      <trkpt lat="44.34472" lon="2.03263">
        <ele>254.9</ele>
        <time>2016-01-03T09:53:55Z</time>
      </trkpt>
      <trkpt lat="44.34474" lon="2.03267">
        <ele>255.1</ele>
        <time>2016-01-03T09:53:56Z</time>
      </trkpt>
      <trkpt lat="44.34476" lon="2.03271">
        <ele>255.3</ele>
        <time>2016-01-03T09:53:57Z</time>
      </trkpt>
      <trkpt lat="44.34479" lon="2.03275">
        <ele>255.5</ele>
        <time>2016-01-03T09:53:58Z</time>
      </trkpt>
      <trkpt lat="44.34482" lon="2.03278">
        <ele>255.7</ele>
        <time>2016-01-03T09:53:59Z</time>
      </trkpt>
      <trkpt lat="44.34484" lon="2.03282">
        <ele>255.9</ele>
        <time>2016-01-03T09:54:00Z</time>
      </trkpt>
      <trkpt lat="44.34487" lon="2.03286">
        <ele>256</ele>
        <time>2016-01-03T09:54:01Z</time>
      </trkpt>
      <trkpt lat="44.34489" lon="2.0329">
        <ele>256.2</ele>
        <time>2016-01-03T09:54:02Z</time>
      </trkpt>
      <trkpt lat="44.34491" lon="2.03294">
        <ele>256.3</ele>
        <time>2016-01-03T09:54:03Z</time>
      </trkpt>
      <trkpt lat="44.34493" lon="2.03298">
        <ele>256.5</ele>
        <time>2016-01-03T09:54:04Z</time>
      </trkpt>
      <trkpt lat="44.34496" lon="2.03302">
        <ele>256.7</ele>
        <time>2016-01-03T09:54:05Z</time>
      </trkpt>
      <trkpt lat="44.34498" lon="2.03306">
        <ele>256.8</ele>
        <time>2016-01-03T09:54:06Z</time>
      </trkpt>
      <trkpt lat="44.34501" lon="2.0331">
        <ele>257</ele>
        <time>2016-01-03T09:54:07Z</time>
      </trkpt>
      <trkpt lat="44.34503" lon="2.03314">
        <ele>257.1</ele>
        <time>2016-01-03T09:54:08Z</time>
      </trkpt>
      <trkpt lat="44.34505" lon="2.03319">
        <ele>257.3</ele>
        <time>2016-01-03T09:54:09Z</time>
      </trkpt>
      <trkpt lat="44.34507" lon="2.03323">
        <ele>257.4</ele>
        <time>2016-01-03T09:54:10Z</time>
      </trkpt>
      <trkpt lat="44.3451" lon="2.03327">
        <ele>257.5</ele>
        <time>2016-01-03T09:54:11Z</time>
      </trkpt>
      <trkpt lat="44.34513" lon="2.03332">
        <ele>257.6</ele>
        <time>2016-01-03T09:54:12Z</time>
      </trkpt>
      <trkpt lat="44.34516" lon="2.03336">
        <ele>257.7</ele>
        <time>2016-01-03T09:54:13Z</time>
      </trkpt>
      <trkpt lat="44.34519" lon="2.0334">
        <ele>257.8</ele>
        <time>2016-01-03T09:54:14Z</time>
      </trkpt>
      <trkpt lat="44.34521" lon="2.03344">
        <ele>257.8</ele>
        <time>2016-01-03T09:54:15Z</time>
      </trkpt>
      <trkpt lat="44.34524" lon="2.03348">
        <ele>257.9</ele>
        <time>2016-01-03T09:54:16Z</time>
      </trkpt>
      <trkpt lat="44.34526" lon="2.03352">
        <ele>257.9</ele>
        <time>2016-01-03T09:54:17Z</time>
      </trkpt>
      <trkpt lat="44.3453" lon="2.03357">
        <ele>258</ele>
        <time>2016-01-03T09:54:18Z</time>
      </trkpt>
      <trkpt lat="44.34532" lon="2.03361">
        <ele>258</ele>
        <time>2016-01-03T09:54:19Z</time>
      </trkpt>
      <trkpt lat="44.34534" lon="2.03366">
        <ele>258.1</ele>
        <time>2016-01-03T09:54:20Z</time>
      </trkpt>
      <trkpt lat="44.34537" lon="2.0337">
        <ele>258.1</ele>
        <time>2016-01-03T09:54:21Z</time>
      </trkpt>
      <trkpt lat="44.34539" lon="2.03375">
        <ele>258.2</ele>
        <time>2016-01-03T09:54:22Z</time>
      </trkpt>
      <trkpt lat="44.34543" lon="2.03379">
        <ele>258.5</ele>
        <time>2016-01-03T09:54:23Z</time>
      </trkpt>
      <trkpt lat="44.34546" lon="2.03384">
        <ele>258.9</ele>
        <time>2016-01-03T09:54:24Z</time>
      </trkpt>
      <trkpt lat="44.34549" lon="2.03389">
        <ele>259.1</ele>
        <time>2016-01-03T09:54:25Z</time>
      </trkpt>
      <trkpt lat="44.34552" lon="2.03392">
        <ele>259.3</ele>
        <time>2016-01-03T09:54:26Z</time>
      </trkpt>
      <trkpt lat="44.34555" lon="2.03396">
        <ele>259.5</ele>
        <time>2016-01-03T09:54:27Z</time>
      </trkpt>
      <trkpt lat="44.34557" lon="2.034">
        <ele>259.7</ele>
        <time>2016-01-03T09:54:28Z</time>
      </trkpt>
      <trkpt lat="44.3456" lon="2.03404">
        <ele>259.9</ele>
        <time>2016-01-03T09:54:29Z</time>
      </trkpt>
      <trkpt lat="44.34563" lon="2.03408">
        <ele>260.1</ele>
        <time>2016-01-03T09:54:30Z</time>
      </trkpt>
      <trkpt lat="44.34565" lon="2.03412">
        <ele>260.3</ele>
        <time>2016-01-03T09:54:31Z</time>
      </trkpt>
      <trkpt lat="44.34568" lon="2.03417">
        <ele>260.5</ele>
        <time>2016-01-03T09:54:32Z</time>
      </trkpt>
      <trkpt lat="44.3457" lon="2.03421">
        <ele>260.7</ele>
        <time>2016-01-03T09:54:33Z</time>
      </trkpt>
      <trkpt lat="44.34573" lon="2.03425">
        <ele>260.8</ele>
        <time>2016-01-03T09:54:34Z</time>
      </trkpt>
      <trkpt lat="44.34575" lon="2.0343">
        <ele>261</ele>
        <time>2016-01-03T09:54:35Z</time>
      </trkpt>
      <trkpt lat="44.34578" lon="2.03434">
        <ele>261.1</ele>
        <time>2016-01-03T09:54:36Z</time>
      </trkpt>
      <trkpt lat="44.3458" lon="2.03439">
        <ele>261.2</ele>
        <time>2016-01-03T09:54:37Z</time>
      </trkpt>
      <trkpt lat="44.34585" lon="2.03443">
        <ele>261.1</ele>
        <time>2016-01-03T09:54:38Z</time>
      </trkpt>
      <trkpt lat="44.34588" lon="2.03448">
        <ele>261</ele>
        <time>2016-01-03T09:54:39Z</time>
      </trkpt>
      <trkpt lat="44.3459" lon="2.03452">
        <ele>261.1</ele>
        <time>2016-01-03T09:54:40Z</time>
      </trkpt>
      <trkpt lat="44.34592" lon="2.03455">
        <ele>261.1</ele>
        <time>2016-01-03T09:54:41Z</time>
      </trkpt>
      <trkpt lat="44.34594" lon="2.03459">
        <ele>261.1</ele>
        <time>2016-01-03T09:54:42Z</time>
      </trkpt>
      <trkpt lat="44.34596" lon="2.03463">
        <ele>261.3</ele>
        <time>2016-01-03T09:54:43Z</time>
      </trkpt>
      <trkpt lat="44.34599" lon="2.03467">
        <ele>261.5</ele>
        <time>2016-01-03T09:54:44Z</time>
      </trkpt>
      <trkpt lat="44.34601" lon="2.03471">
        <ele>261.6</ele>
        <time>2016-01-03T09:54:45Z</time>
      </trkpt>
      <trkpt lat="44.34603" lon="2.03475">
        <ele>261.8</ele>
        <time>2016-01-03T09:54:46Z</time>
      </trkpt>
      <trkpt lat="44.34604" lon="2.03479">
        <ele>262</ele>
        <time>2016-01-03T09:54:47Z</time>
      </trkpt>
      <trkpt lat="44.34607" lon="2.03482">
        <ele>262.1</ele>
        <time>2016-01-03T09:54:48Z</time>
      </trkpt>
      <trkpt lat="44.34609" lon="2.03485">
        <ele>262.2</ele>
        <time>2016-01-03T09:54:49Z</time>
      </trkpt>
      <trkpt lat="44.34612" lon="2.03491">
        <ele>262.5</ele>
        <time>2016-01-03T09:54:50Z</time>
      </trkpt>
      <trkpt lat="44.34613" lon="2.03496">
        <ele>262.9</ele>
        <time>2016-01-03T09:54:52Z</time>
      </trkpt>
      <trkpt lat="44.34614" lon="2.035">
        <ele>263.2</ele>
        <time>2016-01-03T09:54:53Z</time>
      </trkpt>
      <trkpt lat="44.34616" lon="2.03506">
        <ele>263.8</ele>
        <time>2016-01-03T09:54:55Z</time>
      </trkpt>
      <trkpt lat="44.34619" lon="2.03513">
        <ele>264.3</ele>
        <time>2016-01-03T09:54:57Z</time>
      </trkpt>
      <trkpt lat="44.34621" lon="2.03517">
        <ele>264.4</ele>
        <time>2016-01-03T09:54:58Z</time>
      </trkpt>
      <trkpt lat="44.34623" lon="2.0352">
        <ele>264.7</ele>
        <time>2016-01-03T09:54:59Z</time>
      </trkpt>
      <trkpt lat="44.34625" lon="2.03524">
        <ele>264.9</ele>
        <time>2016-01-03T09:55:00Z</time>
      </trkpt>
      <trkpt lat="44.34627" lon="2.03528">
        <ele>265.1</ele>
        <time>2016-01-03T09:55:01Z</time>
      </trkpt>
      <trkpt lat="44.34629" lon="2.03531">
        <ele>265.3</ele>
        <time>2016-01-03T09:55:02Z</time>
      </trkpt>
      <trkpt lat="44.3463" lon="2.03535">
        <ele>265.5</ele>
        <time>2016-01-03T09:55:03Z</time>
      </trkpt>
      <trkpt lat="44.34633" lon="2.03538">
        <ele>265.6</ele>
        <time>2016-01-03T09:55:04Z</time>
      </trkpt>
      <trkpt lat="44.34635" lon="2.03542">
        <ele>265.7</ele>
        <time>2016-01-03T09:55:05Z</time>
      </trkpt>
      <trkpt lat="44.34637" lon="2.03545">
        <ele>265.9</ele>
        <time>2016-01-03T09:55:06Z</time>
      </trkpt>
      <trkpt lat="44.34639" lon="2.03549">
        <ele>266.1</ele>
        <time>2016-01-03T09:55:07Z</time>
      </trkpt>
      <trkpt lat="44.34642" lon="2.03553">
        <ele>266.2</ele>
        <time>2016-01-03T09:55:08Z</time>
      </trkpt>
      <trkpt lat="44.34646" lon="2.03558">
        <ele>266.2</ele>
        <time>2016-01-03T09:55:09Z</time>
      </trkpt>
      <trkpt lat="44.34648" lon="2.03561">
        <ele>266.3</ele>
        <time>2016-01-03T09:55:10Z</time>
      </trkpt>
      <trkpt lat="44.3465" lon="2.03565">
        <ele>266.4</ele>
        <time>2016-01-03T09:55:11Z</time>
      </trkpt>
      <trkpt lat="44.34653" lon="2.03569">
        <ele>266.4</ele>
        <time>2016-01-03T09:55:12Z</time>
      </trkpt>
      <trkpt lat="44.34656" lon="2.03573">
        <ele>266.5</ele>
        <time>2016-01-03T09:55:13Z</time>
      </trkpt>
      <trkpt lat="44.34658" lon="2.03577">
        <ele>266.5</ele>
        <time>2016-01-03T09:55:14Z</time>
      </trkpt>
      <trkpt lat="44.34661" lon="2.03581">
        <ele>266.5</ele>
        <time>2016-01-03T09:55:15Z</time>
      </trkpt>
      <trkpt lat="44.34663" lon="2.03584">
        <ele>266.5</ele>
        <time>2016-01-03T09:55:16Z</time>
      </trkpt>
      <trkpt lat="44.34666" lon="2.03588">
        <ele>266.4</ele>
        <time>2016-01-03T09:55:17Z</time>
      </trkpt>
      <trkpt lat="44.34668" lon="2.03591">
        <ele>266.4</ele>
        <time>2016-01-03T09:55:18Z</time>
      </trkpt>
      <trkpt lat="44.34669" lon="2.03595">
        <ele>266.5</ele>
        <time>2016-01-03T09:55:19Z</time>
      </trkpt>
      <trkpt lat="44.34671" lon="2.03598">
        <ele>266.4</ele>
        <time>2016-01-03T09:55:20Z</time>
      </trkpt>
      <trkpt lat="44.34673" lon="2.03601">
        <ele>266.3</ele>
        <time>2016-01-03T09:55:21Z</time>
      </trkpt>
      <trkpt lat="44.34676" lon="2.03604">
        <ele>266.1</ele>
        <time>2016-01-03T09:55:22Z</time>
      </trkpt>
      <trkpt lat="44.34679" lon="2.03608">
        <ele>265.9</ele>
        <time>2016-01-03T09:55:23Z</time>
      </trkpt>
      <trkpt lat="44.34681" lon="2.03612">
        <ele>265.8</ele>
        <time>2016-01-03T09:55:24Z</time>
      </trkpt>
      <trkpt lat="44.34683" lon="2.03615">
        <ele>265.5</ele>
        <time>2016-01-03T09:55:25Z</time>
      </trkpt>
      <trkpt lat="44.34686" lon="2.03619">
        <ele>265.3</ele>
        <time>2016-01-03T09:55:26Z</time>
      </trkpt>
      <trkpt lat="44.34688" lon="2.03622">
        <ele>265.1</ele>
        <time>2016-01-03T09:55:27Z</time>
      </trkpt>
      <trkpt lat="44.3469" lon="2.03625">
        <ele>265</ele>
        <time>2016-01-03T09:55:28Z</time>
      </trkpt>
      <trkpt lat="44.34692" lon="2.0363">
        <ele>265.2</ele>
        <time>2016-01-03T09:55:29Z</time>
      </trkpt>
      <trkpt lat="44.34689" lon="2.03636">
        <ele>266.9</ele>
        <time>2016-01-03T09:55:30Z</time>
      </trkpt>
      <trkpt lat="44.34689" lon="2.03642">
        <ele>267.8</ele>
        <time>2016-01-03T09:55:31Z</time>
      </trkpt>
      <trkpt lat="44.34689" lon="2.03647">
        <ele>268.5</ele>
        <time>2016-01-03T09:55:32Z</time>
      </trkpt>
      <trkpt lat="44.34691" lon="2.03651">
        <ele>268.8</ele>
        <time>2016-01-03T09:55:33Z</time>
      </trkpt>
      <trkpt lat="44.34694" lon="2.03655">
        <ele>268.7</ele>
        <time>2016-01-03T09:55:34Z</time>
      </trkpt>
      <trkpt lat="44.34696" lon="2.03658">
        <ele>268.8</ele>
        <time>2016-01-03T09:55:35Z</time>
      </trkpt>
      <trkpt lat="44.34698" lon="2.03662">
        <ele>269.1</ele>
        <time>2016-01-03T09:55:36Z</time>
      </trkpt>
      <trkpt lat="44.34699" lon="2.03667">
        <ele>269.4</ele>
        <time>2016-01-03T09:55:37Z</time>
      </trkpt>
      <trkpt lat="44.34701" lon="2.03671">
        <ele>269.6</ele>
        <time>2016-01-03T09:55:38Z</time>
      </trkpt>
      <trkpt lat="44.34704" lon="2.03674">
        <ele>269.5</ele>
        <time>2016-01-03T09:55:39Z</time>
      </trkpt>
      <trkpt lat="44.34706" lon="2.03678">
        <ele>269.8</ele>
        <time>2016-01-03T09:55:40Z</time>
      </trkpt>
      <trkpt lat="44.34708" lon="2.03682">
        <ele>270</ele>
        <time>2016-01-03T09:55:41Z</time>
      </trkpt>
      <trkpt lat="44.34711" lon="2.03686">
        <ele>270.1</ele>
        <time>2016-01-03T09:55:42Z</time>
      </trkpt>
      <trkpt lat="44.34713" lon="2.03689">
        <ele>270.3</ele>
        <time>2016-01-03T09:55:43Z</time>
      </trkpt>
      <trkpt lat="44.34715" lon="2.03693">
        <ele>270.6</ele>
        <time>2016-01-03T09:55:44Z</time>
      </trkpt>
      <trkpt lat="44.34717" lon="2.03696">
        <ele>270.6</ele>
        <time>2016-01-03T09:55:45Z</time>
      </trkpt>
      <trkpt lat="44.3472" lon="2.03699">
        <ele>270.6</ele>
        <time>2016-01-03T09:55:46Z</time>
      </trkpt>
      <trkpt lat="44.34723" lon="2.03703">
        <ele>270.7</ele>
        <time>2016-01-03T09:55:47Z</time>
      </trkpt>
      <trkpt lat="44.34725" lon="2.03707">
        <ele>270.7</ele>
        <time>2016-01-03T09:55:48Z</time>
      </trkpt>
      <trkpt lat="44.34728" lon="2.03711">
        <ele>270.8</ele>
        <time>2016-01-03T09:55:49Z</time>
      </trkpt>
      <trkpt lat="44.3473" lon="2.03714">
        <ele>270.8</ele>
        <time>2016-01-03T09:55:50Z</time>
      </trkpt>
      <trkpt lat="44.34735" lon="2.03718">
        <ele>270.4</ele>
        <time>2016-01-03T09:55:51Z</time>
      </trkpt>
      <trkpt lat="44.34734" lon="2.03722">
        <ele>271.2</ele>
        <time>2016-01-03T09:55:52Z</time>
      </trkpt>
      <trkpt lat="44.34731" lon="2.03728">
        <ele>272.3</ele>
        <time>2016-01-03T09:55:53Z</time>
      </trkpt>
      <trkpt lat="44.34733" lon="2.03732">
        <ele>272.5</ele>
        <time>2016-01-03T09:55:54Z</time>
      </trkpt>
      <trkpt lat="44.34736" lon="2.03735">
        <ele>272.3</ele>
        <time>2016-01-03T09:55:55Z</time>
      </trkpt>
      <trkpt lat="44.34738" lon="2.03738">
        <ele>272.3</ele>
        <time>2016-01-03T09:55:56Z</time>
      </trkpt>
      <trkpt lat="44.34739" lon="2.03741">
        <ele>272.4</ele>
        <time>2016-01-03T09:55:57Z</time>
      </trkpt>
      <trkpt lat="44.34741" lon="2.03745">
        <ele>272.6</ele>
        <time>2016-01-03T09:55:58Z</time>
      </trkpt>
      <trkpt lat="44.3474" lon="2.03752">
        <ele>273.5</ele>
        <time>2016-01-03T09:56:00Z</time>
      </trkpt>
      <trkpt lat="44.34739" lon="2.03758">
        <ele>274.6</ele>
        <time>2016-01-03T09:56:02Z</time>
      </trkpt>
      <trkpt lat="44.3474" lon="2.03764">
        <ele>275</ele>
        <time>2016-01-03T09:56:04Z</time>
      </trkpt>
      <trkpt lat="44.34742" lon="2.0377">
        <ele>275.2</ele>
        <time>2016-01-03T09:56:06Z</time>
      </trkpt>
      <trkpt lat="44.34744" lon="2.03773">
        <ele>275.2</ele>
        <time>2016-01-03T09:56:07Z</time>
      </trkpt>
      <trkpt lat="44.34746" lon="2.03776">
        <ele>275.2</ele>
        <time>2016-01-03T09:56:08Z</time>
      </trkpt>
      <trkpt lat="44.34748" lon="2.03784">
        <ele>275.5</ele>
        <time>2016-01-03T09:56:10Z</time>
      </trkpt>
      <trkpt lat="44.3475" lon="2.03789">
        <ele>275.6</ele>
        <time>2016-01-03T09:56:12Z</time>
      </trkpt>
      <trkpt lat="44.34752" lon="2.03794">
        <ele>275.6</ele>
        <time>2016-01-03T09:56:14Z</time>
      </trkpt>
      <trkpt lat="44.34756" lon="2.03799">
        <ele>275.2</ele>
        <time>2016-01-03T09:56:16Z</time>
      </trkpt>
      <trkpt lat="44.34758" lon="2.03803">
        <ele>275.1</ele>
        <time>2016-01-03T09:56:17Z</time>
      </trkpt>
      <trkpt lat="44.34761" lon="2.0381">
        <ele>274.8</ele>
        <time>2016-01-03T09:56:19Z</time>
      </trkpt>
      <trkpt lat="44.34764" lon="2.03816">
        <ele>274.5</ele>
        <time>2016-01-03T09:56:21Z</time>
      </trkpt>
      <trkpt lat="44.34766" lon="2.0382">
        <ele>274.4</ele>
        <time>2016-01-03T09:56:22Z</time>
      </trkpt>
      <trkpt lat="44.34768" lon="2.03824">
        <ele>274.3</ele>
        <time>2016-01-03T09:56:24Z</time>
      </trkpt>
      <trkpt lat="44.34769" lon="2.03829">
        <ele>274.4</ele>
        <time>2016-01-03T09:56:28Z</time>
      </trkpt>
      <trkpt lat="44.34767" lon="2.03834">
        <ele>275.4</ele>
        <time>2016-01-03T09:56:32Z</time>
      </trkpt>
      <trkpt lat="44.34763" lon="2.03837">
        <ele>276.4</ele>
        <time>2016-01-03T09:56:34Z</time>
      </trkpt>
      <trkpt lat="44.34761" lon="2.03839">
        <ele>277.2</ele>
        <time>2016-01-03T09:56:35Z</time>
      </trkpt>
      <trkpt lat="44.34757" lon="2.03842">
        <ele>278.4</ele>
        <time>2016-01-03T09:56:37Z</time>
      </trkpt>
      <trkpt lat="44.34756" lon="2.03845">
        <ele>279.1</ele>
        <time>2016-01-03T09:56:39Z</time>
      </trkpt>
      <trkpt lat="44.34752" lon="2.0385">
        <ele>280.4</ele>
        <time>2016-01-03T09:56:44Z</time>
      </trkpt>
      <trkpt lat="44.3475" lon="2.03853">
        <ele>281.2</ele>
        <time>2016-01-03T09:56:46Z</time>
      </trkpt>
      <trkpt lat="44.34746" lon="2.03857">
        <ele>282.4</ele>
        <time>2016-01-03T09:57:02Z</time>
      </trkpt>
      <trkpt lat="44.34744" lon="2.03859">
        <ele>283.3</ele>
        <time>2016-01-03T09:57:04Z</time>
      </trkpt>
      <trkpt lat="44.34739" lon="2.03862">
        <ele>284.7</ele>
        <time>2016-01-03T09:57:06Z</time>
      </trkpt>
      <trkpt lat="44.34737" lon="2.03864">
        <ele>285.5</ele>
        <time>2016-01-03T09:57:08Z</time>
      </trkpt>
      <trkpt lat="44.34734" lon="2.03866">
        <ele>286.4</ele>
        <time>2016-01-03T09:57:11Z</time>
      </trkpt>
      <trkpt lat="44.34732" lon="2.03869">
        <ele>287.3</ele>
        <time>2016-01-03T09:57:13Z</time>
      </trkpt>
      <trkpt lat="44.3473" lon="2.03872">
        <ele>288</ele>
        <time>2016-01-03T09:57:15Z</time>
      </trkpt>
      <trkpt lat="44.34727" lon="2.03873">
        <ele>288.9</ele>
        <time>2016-01-03T09:57:18Z</time>
      </trkpt>
      <trkpt lat="44.34723" lon="2.03872">
        <ele>289.8</ele>
        <time>2016-01-03T09:57:21Z</time>
      </trkpt>
      <trkpt lat="44.3472" lon="2.03873">
        <ele>290.7</ele>
        <time>2016-01-03T09:57:23Z</time>
      </trkpt>
      <trkpt lat="44.34717" lon="2.03874">
        <ele>291.6</ele>
        <time>2016-01-03T09:57:25Z</time>
      </trkpt>
      <trkpt lat="44.34715" lon="2.03876">
        <ele>292.4</ele>
        <time>2016-01-03T09:57:28Z</time>
      </trkpt>
      <trkpt lat="44.34711" lon="2.03877">
        <ele>293.5</ele>
        <time>2016-01-03T09:57:32Z</time>
      </trkpt>
      <trkpt lat="44.34708" lon="2.03877">
        <ele>294.4</ele>
        <time>2016-01-03T09:57:34Z</time>
      </trkpt>
      <trkpt lat="44.34703" lon="2.03878">
        <ele>295.5</ele>
        <time>2016-01-03T09:57:37Z</time>
      </trkpt>
      <trkpt lat="44.347" lon="2.03878">
        <ele>296.2</ele>
        <time>2016-01-03T09:57:41Z</time>
      </trkpt>
      <trkpt lat="44.34699" lon="2.03874">
        <ele>296.1</ele>
        <time>2016-01-03T09:57:44Z</time>
      </trkpt>
      <trkpt lat="44.34702" lon="2.0387">
        <ele>295</ele>
        <time>2016-01-03T09:57:48Z</time>
      </trkpt>
      <trkpt lat="44.34703" lon="2.03866">
        <ele>294.5</ele>
        <time>2016-01-03T09:57:52Z</time>
      </trkpt>
      <trkpt lat="44.34704" lon="2.03861">
        <ele>293.8</ele>
        <time>2016-01-03T09:57:56Z</time>
      </trkpt>
      <trkpt lat="44.34704" lon="2.03857">
        <ele>293.2</ele>
        <time>2016-01-03T09:58:00Z</time>
      </trkpt>
      <trkpt lat="44.34705" lon="2.03852">
        <ele>292.5</ele>
        <time>2016-01-03T09:58:04Z</time>
      </trkpt>
      <trkpt lat="44.34706" lon="2.03848">
        <ele>291.9</ele>
        <time>2016-01-03T09:58:06Z</time>
      </trkpt>
      <trkpt lat="44.34706" lon="2.03844">
        <ele>291.5</ele>
        <time>2016-01-03T09:58:09Z</time>
      </trkpt>
      <trkpt lat="44.34706" lon="2.03839">
        <ele>291.2</ele>
        <time>2016-01-03T09:58:12Z</time>
      </trkpt>
      <trkpt lat="44.34705" lon="2.03835">
        <ele>290.8</ele>
        <time>2016-01-03T09:58:15Z</time>
      </trkpt>
      <trkpt lat="44.34703" lon="2.03831">
        <ele>291</ele>
        <time>2016-01-03T09:58:18Z</time>
      </trkpt>
      <trkpt lat="44.34701" lon="2.03826">
        <ele>290.8</ele>
        <time>2016-01-03T09:58:21Z</time>
      </trkpt>
      <trkpt lat="44.347" lon="2.03822">
        <ele>290.6</ele>
        <time>2016-01-03T09:58:24Z</time>
      </trkpt>
      <trkpt lat="44.34698" lon="2.03819">
        <ele>290.8</ele>
        <time>2016-01-03T09:58:26Z</time>
      </trkpt>
      <trkpt lat="44.34696" lon="2.03817">
        <ele>291.1</ele>
        <time>2016-01-03T09:58:29Z</time>
      </trkpt>
      <trkpt lat="44.34693" lon="2.03815">
        <ele>291.5</ele>
        <time>2016-01-03T09:58:34Z</time>
      </trkpt>
      <trkpt lat="44.34689" lon="2.03815">
        <ele>292.2</ele>
        <time>2016-01-03T09:58:37Z</time>
      </trkpt>
      <trkpt lat="44.34686" lon="2.03815">
        <ele>292.8</ele>
        <time>2016-01-03T09:58:40Z</time>
      </trkpt>
      <trkpt lat="44.34683" lon="2.03815">
        <ele>293.6</ele>
        <time>2016-01-03T09:58:42Z</time>
      </trkpt>
      <trkpt lat="44.34679" lon="2.03818">
        <ele>294.5</ele>
        <time>2016-01-03T09:58:46Z</time>
      </trkpt>
      <trkpt lat="44.34676" lon="2.03819">
        <ele>295.3</ele>
        <time>2016-01-03T09:58:48Z</time>
      </trkpt>
      <trkpt lat="44.34674" lon="2.03821">
        <ele>296.1</ele>
        <time>2016-01-03T09:58:50Z</time>
      </trkpt>
      <trkpt lat="44.34671" lon="2.03823">
        <ele>296.9</ele>
        <time>2016-01-03T09:58:53Z</time>
      </trkpt>
      <trkpt lat="44.34668" lon="2.03826">
        <ele>297.7</ele>
        <time>2016-01-03T09:58:55Z</time>
      </trkpt>
      <trkpt lat="44.34665" lon="2.03829">
        <ele>298.9</ele>
        <time>2016-01-03T09:58:58Z</time>
      </trkpt>
      <trkpt lat="44.34662" lon="2.03831">
        <ele>299.6</ele>
        <time>2016-01-03T09:59:00Z</time>
      </trkpt>
      <trkpt lat="44.34659" lon="2.03831">
        <ele>300.5</ele>
        <time>2016-01-03T09:59:02Z</time>
      </trkpt>
      <trkpt lat="44.34656" lon="2.03834">
        <ele>301.4</ele>
        <time>2016-01-03T09:59:04Z</time>
      </trkpt>
      <trkpt lat="44.34653" lon="2.03834">
        <ele>302.1</ele>
        <time>2016-01-03T09:59:07Z</time>
      </trkpt>
      <trkpt lat="44.34648" lon="2.03838">
        <ele>303.6</ele>
        <time>2016-01-03T09:59:10Z</time>
      </trkpt>
      <trkpt lat="44.34645" lon="2.0384">
        <ele>304.6</ele>
        <time>2016-01-03T09:59:12Z</time>
      </trkpt>
      <trkpt lat="44.34642" lon="2.03842">
        <ele>305.5</ele>
        <time>2016-01-03T09:59:14Z</time>
      </trkpt>
      <trkpt lat="44.34639" lon="2.03843">
        <ele>306.3</ele>
        <time>2016-01-03T09:59:19Z</time>
      </trkpt>
      <trkpt lat="44.34636" lon="2.03846">
        <ele>307.3</ele>
        <time>2016-01-03T09:59:23Z</time>
      </trkpt>
      <trkpt lat="44.34634" lon="2.03847">
        <ele>308.1</ele>
        <time>2016-01-03T09:59:25Z</time>
      </trkpt>
      <trkpt lat="44.34631" lon="2.03849">
        <ele>308.9</ele>
        <time>2016-01-03T09:59:29Z</time>
      </trkpt>
      <trkpt lat="44.34627" lon="2.0385">
        <ele>309.8</ele>
        <time>2016-01-03T09:59:33Z</time>
      </trkpt>
      <trkpt lat="44.34624" lon="2.03851">
        <ele>310.6</ele>
        <time>2016-01-03T09:59:36Z</time>
      </trkpt>
      <trkpt lat="44.3462" lon="2.03853">
        <ele>311</ele>
        <time>2016-01-03T09:59:39Z</time>
      </trkpt>
      <trkpt lat="44.34619" lon="2.03857">
        <ele>311.6</ele>
        <time>2016-01-03T09:59:42Z</time>
      </trkpt>
      <trkpt lat="44.34617" lon="2.0386">
        <ele>312.1</ele>
        <time>2016-01-03T09:59:44Z</time>
      </trkpt>
      <trkpt lat="44.34614" lon="2.03862">
        <ele>312.5</ele>
        <time>2016-01-03T09:59:48Z</time>
      </trkpt>
      <trkpt lat="44.34612" lon="2.03865">
        <ele>312.9</ele>
        <time>2016-01-03T09:59:50Z</time>
      </trkpt>
      <trkpt lat="44.34609" lon="2.03867">
        <ele>313.4</ele>
        <time>2016-01-03T09:59:53Z</time>
      </trkpt>
      <trkpt lat="44.34606" lon="2.0387">
        <ele>314</ele>
        <time>2016-01-03T09:59:56Z</time>
      </trkpt>
      <trkpt lat="44.34603" lon="2.03872">
        <ele>314.4</ele>
        <time>2016-01-03T09:59:58Z</time>
      </trkpt>
      <trkpt lat="44.34601" lon="2.03875">
        <ele>314.9</ele>
        <time>2016-01-03T10:00:02Z</time>
      </trkpt>
      <trkpt lat="44.34598" lon="2.03877">
        <ele>315.3</ele>
        <time>2016-01-03T10:00:04Z</time>
      </trkpt>
      <trkpt lat="44.34595" lon="2.03878">
        <ele>315.6</ele>
        <time>2016-01-03T10:00:07Z</time>
      </trkpt>
      <trkpt lat="44.34592" lon="2.0388">
        <ele>316</ele>
        <time>2016-01-03T10:00:11Z</time>
      </trkpt>
      <trkpt lat="44.34589" lon="2.03881">
        <ele>316.3</ele>
        <time>2016-01-03T10:00:14Z</time>
      </trkpt>
      <trkpt lat="44.34586" lon="2.0388">
        <ele>316.3</ele>
        <time>2016-01-03T10:00:19Z</time>
      </trkpt>
      <trkpt lat="44.34582" lon="2.03879">
        <ele>316.3</ele>
        <time>2016-01-03T10:00:25Z</time>
      </trkpt>
      <trkpt lat="44.34578" lon="2.0388">
        <ele>316.6</ele>
        <time>2016-01-03T10:00:28Z</time>
      </trkpt>
      <trkpt lat="44.34571" lon="2.03883">
        <ele>317.5</ele>
        <time>2016-01-03T10:00:30Z</time>
      </trkpt>
      <trkpt lat="44.34568" lon="2.03886">
        <ele>318.2</ele>
        <time>2016-01-03T10:00:32Z</time>
      </trkpt>
      <trkpt lat="44.34564" lon="2.03889">
        <ele>318.9</ele>
        <time>2016-01-03T10:00:36Z</time>
      </trkpt>
      <trkpt lat="44.34561" lon="2.03889">
        <ele>319.2</ele>
        <time>2016-01-03T10:00:43Z</time>
      </trkpt>
      <trkpt lat="44.34557" lon="2.03891">
        <ele>319.7</ele>
        <time>2016-01-03T10:00:45Z</time>
      </trkpt>
      <trkpt lat="44.34553" lon="2.03889">
        <ele>319.5</ele>
        <time>2016-01-03T10:00:47Z</time>
      </trkpt>
      <trkpt lat="44.34549" lon="2.03885">
        <ele>318.8</ele>
        <time>2016-01-03T10:00:49Z</time>
      </trkpt>
      <trkpt lat="44.34542" lon="2.03881">
        <ele>318.4</ele>
        <time>2016-01-03T10:00:51Z</time>
      </trkpt>
      <trkpt lat="44.34539" lon="2.03883">
        <ele>319.1</ele>
        <time>2016-01-03T10:00:53Z</time>
      </trkpt>
      <trkpt lat="44.34539" lon="2.03888">
        <ele>320.2</ele>
        <time>2016-01-03T10:01:00Z</time>
      </trkpt>
      <trkpt lat="44.34536" lon="2.0389">
        <ele>320.8</ele>
        <time>2016-01-03T10:01:03Z</time>
      </trkpt>
      <trkpt lat="44.34533" lon="2.03892">
        <ele>321.6</ele>
        <time>2016-01-03T10:01:09Z</time>
      </trkpt>
      <trkpt lat="44.3453" lon="2.03894">
        <ele>322.4</ele>
        <time>2016-01-03T10:01:11Z</time>
      </trkpt>
      <trkpt lat="44.34527" lon="2.03896">
        <ele>323.2</ele>
        <time>2016-01-03T10:01:16Z</time>
      </trkpt>
      <trkpt lat="44.34524" lon="2.03898">
        <ele>323.8</ele>
        <time>2016-01-03T10:01:19Z</time>
      </trkpt>
      <trkpt lat="44.34522" lon="2.03901">
        <ele>324.6</ele>
        <time>2016-01-03T10:01:23Z</time>
      </trkpt>
      <trkpt lat="44.34519" lon="2.03903">
        <ele>325.4</ele>
        <time>2016-01-03T10:01:26Z</time>
      </trkpt>
      <trkpt lat="44.34516" lon="2.03904">
        <ele>325.9</ele>
        <time>2016-01-03T10:01:30Z</time>
      </trkpt>
      <trkpt lat="44.34511" lon="2.03904">
        <ele>326.2</ele>
        <time>2016-01-03T10:01:34Z</time>
      </trkpt>
      <trkpt lat="44.34507" lon="2.03904">
        <ele>326.5</ele>
        <time>2016-01-03T10:01:36Z</time>
      </trkpt>
      <trkpt lat="44.34505" lon="2.03907">
        <ele>327.4</ele>
        <time>2016-01-03T10:01:40Z</time>
      </trkpt>
      <trkpt lat="44.34502" lon="2.03908">
        <ele>328.1</ele>
        <time>2016-01-03T10:01:43Z</time>
      </trkpt>
      <trkpt lat="44.34499" lon="2.03909">
        <ele>328.6</ele>
        <time>2016-01-03T10:01:46Z</time>
      </trkpt>
      <trkpt lat="44.34496" lon="2.0391">
        <ele>329</ele>
        <time>2016-01-03T10:01:48Z</time>
      </trkpt>
      <trkpt lat="44.34493" lon="2.03911">
        <ele>329.5</ele>
        <time>2016-01-03T10:01:51Z</time>
      </trkpt>
      <trkpt lat="44.3449" lon="2.03911">
        <ele>329.7</ele>
        <time>2016-01-03T10:01:54Z</time>
      </trkpt>
      <trkpt lat="44.34487" lon="2.03911">
        <ele>330.1</ele>
        <time>2016-01-03T10:01:56Z</time>
      </trkpt>
      <trkpt lat="44.34484" lon="2.03912">
        <ele>330.6</ele>
        <time>2016-01-03T10:01:59Z</time>
      </trkpt>
      <trkpt lat="44.3448" lon="2.03913">
        <ele>331</ele>
        <time>2016-01-03T10:02:01Z</time>
      </trkpt>
      <trkpt lat="44.34476" lon="2.03911">
        <ele>331.1</ele>
        <time>2016-01-03T10:02:04Z</time>
      </trkpt>
      <trkpt lat="44.34472" lon="2.03913">
        <ele>331.8</ele>
        <time>2016-01-03T10:02:05Z</time>
      </trkpt>
      <trkpt lat="44.3447" lon="2.03917">
        <ele>333</ele>
        <time>2016-01-03T10:02:10Z</time>
      </trkpt>
      <trkpt lat="44.34468" lon="2.03919">
        <ele>333.8</ele>
        <time>2016-01-03T10:02:14Z</time>
      </trkpt>
      <trkpt lat="44.34464" lon="2.0392">
        <ele>334.2</ele>
        <time>2016-01-03T10:02:17Z</time>
      </trkpt>
      <trkpt lat="44.34461" lon="2.03921">
        <ele>334.8</ele>
        <time>2016-01-03T10:02:21Z</time>
      </trkpt>
      <trkpt lat="44.34457" lon="2.03921">
        <ele>335.2</ele>
        <time>2016-01-03T10:02:24Z</time>
      </trkpt>
      <trkpt lat="44.34453" lon="2.03924">
        <ele>336</ele>
        <time>2016-01-03T10:02:27Z</time>
      </trkpt>
      <trkpt lat="44.3445" lon="2.03926">
        <ele>336.6</ele>
        <time>2016-01-03T10:02:30Z</time>
      </trkpt>
      <trkpt lat="44.34447" lon="2.03928">
        <ele>337.4</ele>
        <time>2016-01-03T10:02:32Z</time>
      </trkpt>
      <trkpt lat="44.34446" lon="2.03932">
        <ele>338.4</ele>
        <time>2016-01-03T10:02:34Z</time>
      </trkpt>
      <trkpt lat="44.34446" lon="2.03936">
        <ele>339.4</ele>
        <time>2016-01-03T10:02:38Z</time>
      </trkpt>
      <trkpt lat="44.34449" lon="2.03938">
        <ele>339.7</ele>
        <time>2016-01-03T10:02:40Z</time>
      </trkpt>
      <trkpt lat="44.34453" lon="2.03941">
        <ele>340.2</ele>
        <time>2016-01-03T10:02:42Z</time>
      </trkpt>
      <trkpt lat="44.34455" lon="2.03943">
        <ele>340.4</ele>
        <time>2016-01-03T10:02:44Z</time>
      </trkpt>
      <trkpt lat="44.34459" lon="2.03944">
        <ele>340.6</ele>
        <time>2016-01-03T10:02:46Z</time>
      </trkpt>
      <trkpt lat="44.34462" lon="2.03945">
        <ele>340.5</ele>
        <time>2016-01-03T10:02:48Z</time>
      </trkpt>
      <trkpt lat="44.34465" lon="2.03946">
        <ele>340.4</ele>
        <time>2016-01-03T10:02:50Z</time>
      </trkpt>
      <trkpt lat="44.34468" lon="2.03947">
        <ele>340.4</ele>
        <time>2016-01-03T10:02:53Z</time>
      </trkpt>
      <trkpt lat="44.34472" lon="2.0395">
        <ele>340.7</ele>
        <time>2016-01-03T10:02:56Z</time>
      </trkpt>
      <trkpt lat="44.34476" lon="2.03952">
        <ele>340.7</ele>
        <time>2016-01-03T10:02:58Z</time>
      </trkpt>
      <trkpt lat="44.34478" lon="2.03955">
        <ele>341.3</ele>
        <time>2016-01-03T10:03:01Z</time>
      </trkpt>
      <trkpt lat="44.34481" lon="2.03958">
        <ele>341.7</ele>
        <time>2016-01-03T10:03:03Z</time>
      </trkpt>
      <trkpt lat="44.34484" lon="2.0396">
        <ele>342</ele>
        <time>2016-01-03T10:03:06Z</time>
      </trkpt>
      <trkpt lat="44.34485" lon="2.03964">
        <ele>342.6</ele>
        <time>2016-01-03T10:03:08Z</time>
      </trkpt>
      <trkpt lat="44.34488" lon="2.03968">
        <ele>343.3</ele>
        <time>2016-01-03T10:03:10Z</time>
      </trkpt>
      <trkpt lat="44.34489" lon="2.03971">
        <ele>343.8</ele>
        <time>2016-01-03T10:03:12Z</time>
      </trkpt>
      <trkpt lat="44.34491" lon="2.03973">
        <ele>344.2</ele>
        <time>2016-01-03T10:03:15Z</time>
      </trkpt>
      <trkpt lat="44.34494" lon="2.03977">
        <ele>344.8</ele>
        <time>2016-01-03T10:03:19Z</time>
      </trkpt>
      <trkpt lat="44.34496" lon="2.0398">
        <ele>345.2</ele>
        <time>2016-01-03T10:03:23Z</time>
      </trkpt>
      <trkpt lat="44.34499" lon="2.03983">
        <ele>345.8</ele>
        <time>2016-01-03T10:03:26Z</time>
      </trkpt>
      <trkpt lat="44.34501" lon="2.03986">
        <ele>346.3</ele>
        <time>2016-01-03T10:03:28Z</time>
      </trkpt>
      <trkpt lat="44.34502" lon="2.03991">
        <ele>347.1</ele>
        <time>2016-01-03T10:03:32Z</time>
      </trkpt>
      <trkpt lat="44.34504" lon="2.03995">
        <ele>347.9</ele>
        <time>2016-01-03T10:03:34Z</time>
      </trkpt>
      <trkpt lat="44.34505" lon="2.03999">
        <ele>348.8</ele>
        <time>2016-01-03T10:03:37Z</time>
      </trkpt>
      <trkpt lat="44.34506" lon="2.04003">
        <ele>349.6</ele>
        <time>2016-01-03T10:03:40Z</time>
      </trkpt>
      <trkpt lat="44.34508" lon="2.04006">
        <ele>350.3</ele>
        <time>2016-01-03T10:03:43Z</time>
      </trkpt>
      <trkpt lat="44.3451" lon="2.0401">
        <ele>350.9</ele>
        <time>2016-01-03T10:03:45Z</time>
      </trkpt>
      <trkpt lat="44.34512" lon="2.04014">
        <ele>351.7</ele>
        <time>2016-01-03T10:03:47Z</time>
      </trkpt>
      <trkpt lat="44.34513" lon="2.04018">
        <ele>352.5</ele>
        <time>2016-01-03T10:03:51Z</time>
      </trkpt>
      <trkpt lat="44.34515" lon="2.04022">
        <ele>353.4</ele>
        <time>2016-01-03T10:03:54Z</time>
      </trkpt>
      <trkpt lat="44.34516" lon="2.04026">
        <ele>354.1</ele>
        <time>2016-01-03T10:03:57Z</time>
      </trkpt>
      <trkpt lat="44.34518" lon="2.04029">
        <ele>354.8</ele>
        <time>2016-01-03T10:04:00Z</time>
      </trkpt>
      <trkpt lat="44.34519" lon="2.04034">
        <ele>355.8</ele>
        <time>2016-01-03T10:04:04Z</time>
      </trkpt>
      <trkpt lat="44.34521" lon="2.04038">
        <ele>356.7</ele>
        <time>2016-01-03T10:04:07Z</time>
      </trkpt>
      <trkpt lat="44.34523" lon="2.04041">
        <ele>357.2</ele>
        <time>2016-01-03T10:04:09Z</time>
      </trkpt>
      <trkpt lat="44.34526" lon="2.04045">
        <ele>357.8</ele>
        <time>2016-01-03T10:04:11Z</time>
      </trkpt>
      <trkpt lat="44.34529" lon="2.04049">
        <ele>358.4</ele>
        <time>2016-01-03T10:04:14Z</time>
      </trkpt>
      <trkpt lat="44.3453" lon="2.04053">
        <ele>359.1</ele>
        <time>2016-01-03T10:04:17Z</time>
      </trkpt>
      <trkpt lat="44.34531" lon="2.04057">
        <ele>359.8</ele>
        <time>2016-01-03T10:04:21Z</time>
      </trkpt>
      <trkpt lat="44.34533" lon="2.04061">
        <ele>360.5</ele>
        <time>2016-01-03T10:04:25Z</time>
      </trkpt>
      <trkpt lat="44.34533" lon="2.04066">
        <ele>361.4</ele>
        <time>2016-01-03T10:04:29Z</time>
      </trkpt>
      <trkpt lat="44.34534" lon="2.04071">
        <ele>362.3</ele>
        <time>2016-01-03T10:04:32Z</time>
      </trkpt>
      <trkpt lat="44.34536" lon="2.04078">
        <ele>363.4</ele>
        <time>2016-01-03T10:04:35Z</time>
      </trkpt>
      <trkpt lat="44.34537" lon="2.04084">
        <ele>364.5</ele>
        <time>2016-01-03T10:04:38Z</time>
      </trkpt>
      <trkpt lat="44.34539" lon="2.0409">
        <ele>365.5</ele>
        <time>2016-01-03T10:04:40Z</time>
      </trkpt>
      <trkpt lat="44.3454" lon="2.04095">
        <ele>366.3</ele>
        <time>2016-01-03T10:04:42Z</time>
      </trkpt>
      <trkpt lat="44.34542" lon="2.04099">
        <ele>366.9</ele>
        <time>2016-01-03T10:04:43Z</time>
      </trkpt>
      <trkpt lat="44.34543" lon="2.04102">
        <ele>367.2</ele>
        <time>2016-01-03T10:04:44Z</time>
      </trkpt>
      <trkpt lat="44.34545" lon="2.04106">
        <ele>367.6</ele>
        <time>2016-01-03T10:04:46Z</time>
      </trkpt>
      <trkpt lat="44.34547" lon="2.04111">
        <ele>368.1</ele>
        <time>2016-01-03T10:04:48Z</time>
      </trkpt>
      <trkpt lat="44.34547" lon="2.04116">
        <ele>368.9</ele>
        <time>2016-01-03T10:04:50Z</time>
      </trkpt>
      <trkpt lat="44.34549" lon="2.04122">
        <ele>369.6</ele>
        <time>2016-01-03T10:04:52Z</time>
      </trkpt>
      <trkpt lat="44.3455" lon="2.04126">
        <ele>370.1</ele>
        <time>2016-01-03T10:04:54Z</time>
      </trkpt>
      <trkpt lat="44.3455" lon="2.0413">
        <ele>370.6</ele>
        <time>2016-01-03T10:04:56Z</time>
      </trkpt>
      <trkpt lat="44.34551" lon="2.04135">
        <ele>371.2</ele>
        <time>2016-01-03T10:04:58Z</time>
      </trkpt>
      <trkpt lat="44.3455" lon="2.0414">
        <ele>372.3</ele>
        <time>2016-01-03T10:05:01Z</time>
      </trkpt>
      <trkpt lat="44.3455" lon="2.04146">
        <ele>373.4</ele>
        <time>2016-01-03T10:05:04Z</time>
      </trkpt>
      <trkpt lat="44.34548" lon="2.0415">
        <ele>374.5</ele>
        <time>2016-01-03T10:05:07Z</time>
      </trkpt>
      <trkpt lat="44.34547" lon="2.04154">
        <ele>375.5</ele>
        <time>2016-01-03T10:05:10Z</time>
      </trkpt>
      <trkpt lat="44.34546" lon="2.04158">
        <ele>376.5</ele>
        <time>2016-01-03T10:05:12Z</time>
      </trkpt>
      <trkpt lat="44.34545" lon="2.04162">
        <ele>377.4</ele>
        <time>2016-01-03T10:05:14Z</time>
      </trkpt>
      <trkpt lat="44.34545" lon="2.04167">
        <ele>378.1</ele>
        <time>2016-01-03T10:05:17Z</time>
      </trkpt>
      <trkpt lat="44.34545" lon="2.04172">
        <ele>378.9</ele>
        <time>2016-01-03T10:05:20Z</time>
      </trkpt>
      <trkpt lat="44.34545" lon="2.04177">
        <ele>379.7</ele>
        <time>2016-01-03T10:05:22Z</time>
      </trkpt>
      <trkpt lat="44.34546" lon="2.04182">
        <ele>380.5</ele>
        <time>2016-01-03T10:05:24Z</time>
      </trkpt>
      <trkpt lat="44.34547" lon="2.04188">
        <ele>381.1</ele>
        <time>2016-01-03T10:05:26Z</time>
      </trkpt>
      <trkpt lat="44.34547" lon="2.04192">
        <ele>381.8</ele>
        <time>2016-01-03T10:05:28Z</time>
      </trkpt>
      <trkpt lat="44.34548" lon="2.04197">
        <ele>382.4</ele>
        <time>2016-01-03T10:05:30Z</time>
      </trkpt>
      <trkpt lat="44.34548" lon="2.04202">
        <ele>383.1</ele>
        <time>2016-01-03T10:05:32Z</time>
      </trkpt>
      <trkpt lat="44.34549" lon="2.04207">
        <ele>383.7</ele>
        <time>2016-01-03T10:05:34Z</time>
      </trkpt>
      <trkpt lat="44.34549" lon="2.04211">
        <ele>384.1</ele>
        <time>2016-01-03T10:05:36Z</time>
      </trkpt>
      <trkpt lat="44.34552" lon="2.04217">
        <ele>384</ele>
        <time>2016-01-03T10:05:38Z</time>
      </trkpt>
      <trkpt lat="44.34553" lon="2.04223">
        <ele>384.1</ele>
        <time>2016-01-03T10:05:40Z</time>
      </trkpt>
      <trkpt lat="44.34554" lon="2.04229">
        <ele>384.3</ele>
        <time>2016-01-03T10:05:42Z</time>
      </trkpt>
      <trkpt lat="44.34557" lon="2.04234">
        <ele>384.1</ele>
        <time>2016-01-03T10:05:43Z</time>
      </trkpt>
      <trkpt lat="44.34559" lon="2.04241">
        <ele>384.2</ele>
        <time>2016-01-03T10:05:45Z</time>
      </trkpt>
      <trkpt lat="44.34559" lon="2.04247">
        <ele>384.5</ele>
        <time>2016-01-03T10:05:47Z</time>
      </trkpt>
      <trkpt lat="44.3456" lon="2.0425">
        <ele>384.5</ele>
        <time>2016-01-03T10:05:48Z</time>
      </trkpt>
      <trkpt lat="44.34561" lon="2.04256">
        <ele>384.7</ele>
        <time>2016-01-03T10:05:50Z</time>
      </trkpt>
      <trkpt lat="44.34561" lon="2.0426">
        <ele>385.1</ele>
        <time>2016-01-03T10:05:52Z</time>
      </trkpt>
      <trkpt lat="44.34561" lon="2.04265">
        <ele>385.6</ele>
        <time>2016-01-03T10:05:54Z</time>
      </trkpt>
      <trkpt lat="44.3456" lon="2.04269">
        <ele>386.2</ele>
        <time>2016-01-03T10:05:56Z</time>
      </trkpt>
      <trkpt lat="44.34559" lon="2.04273">
        <ele>386.7</ele>
        <time>2016-01-03T10:05:58Z</time>
      </trkpt>
      <trkpt lat="44.34558" lon="2.04277">
        <ele>387.4</ele>
        <time>2016-01-03T10:06:00Z</time>
      </trkpt>
      <trkpt lat="44.34558" lon="2.04281">
        <ele>387.9</ele>
        <time>2016-01-03T10:06:02Z</time>
      </trkpt>
      <trkpt lat="44.34556" lon="2.04285">
        <ele>388.6</ele>
        <time>2016-01-03T10:06:04Z</time>
      </trkpt>
      <trkpt lat="44.34554" lon="2.04289">
        <ele>389.5</ele>
        <time>2016-01-03T10:06:07Z</time>
      </trkpt>
      <trkpt lat="44.34553" lon="2.04293">
        <ele>390</ele>
        <time>2016-01-03T10:06:09Z</time>
      </trkpt>
      <trkpt lat="44.34551" lon="2.04297">
        <ele>389.8</ele>
        <time>2016-01-03T10:06:11Z</time>
      </trkpt>
      <trkpt lat="44.34551" lon="2.04303">
        <ele>389.4</ele>
        <time>2016-01-03T10:06:13Z</time>
      </trkpt>
      <trkpt lat="44.34549" lon="2.04305">
        <ele>389.7</ele>
        <time>2016-01-03T10:06:15Z</time>
      </trkpt>
      <trkpt lat="44.34547" lon="2.04308">
        <ele>389.7</ele>
        <time>2016-01-03T10:06:17Z</time>
      </trkpt>
      <trkpt lat="44.34544" lon="2.0431">
        <ele>390</ele>
        <time>2016-01-03T10:06:19Z</time>
      </trkpt>
      <trkpt lat="44.34542" lon="2.04312">
        <ele>390.3</ele>
        <time>2016-01-03T10:06:21Z</time>
      </trkpt>
      <trkpt lat="44.34539" lon="2.04314">
        <ele>390.4</ele>
        <time>2016-01-03T10:06:23Z</time>
      </trkpt>
      <trkpt lat="44.34537" lon="2.04318">
        <ele>390.3</ele>
        <time>2016-01-03T10:06:26Z</time>
      </trkpt>
      <trkpt lat="44.34535" lon="2.04321">
        <ele>390.1</ele>
        <time>2016-01-03T10:06:29Z</time>
      </trkpt>
      <trkpt lat="44.34532" lon="2.04322">
        <ele>390.2</ele>
        <time>2016-01-03T10:06:32Z</time>
      </trkpt>
      <trkpt lat="44.34529" lon="2.04319">
        <ele>391</ele>
        <time>2016-01-03T10:06:37Z</time>
      </trkpt>
      <trkpt lat="44.34531" lon="2.04315">
        <ele>391.4</ele>
        <time>2016-01-03T10:06:39Z</time>
      </trkpt>
      <trkpt lat="44.34527" lon="2.04314">
        <ele>392.2</ele>
        <time>2016-01-03T10:06:42Z</time>
      </trkpt>
      <trkpt lat="44.34524" lon="2.04315">
        <ele>392.3</ele>
        <time>2016-01-03T10:06:43Z</time>
      </trkpt>
      <trkpt lat="44.34519" lon="2.04315">
        <ele>393.1</ele>
        <time>2016-01-03T10:06:45Z</time>
      </trkpt>
      <trkpt lat="44.34516" lon="2.04314">
        <ele>393.7</ele>
        <time>2016-01-03T10:06:46Z</time>
      </trkpt>
      <trkpt lat="44.34513" lon="2.04312">
        <ele>394.3</ele>
        <time>2016-01-03T10:06:47Z</time>
      </trkpt>
      <trkpt lat="44.3451" lon="2.04312">
        <ele>394.8</ele>
        <time>2016-01-03T10:06:48Z</time>
      </trkpt>
      <trkpt lat="44.34506" lon="2.04316">
        <ele>394.8</ele>
        <time>2016-01-03T10:06:50Z</time>
      </trkpt>
      <trkpt lat="44.34503" lon="2.04318">
        <ele>394.8</ele>
        <time>2016-01-03T10:06:51Z</time>
      </trkpt>
      <trkpt lat="44.34499" lon="2.04317">
        <ele>395.5</ele>
        <time>2016-01-03T10:06:52Z</time>
      </trkpt>
      <trkpt lat="44.34497" lon="2.04319">
        <ele>395.6</ele>
        <time>2016-01-03T10:06:53Z</time>
      </trkpt>
      <trkpt lat="44.34494" lon="2.04321">
        <ele>395.6</ele>
        <time>2016-01-03T10:06:54Z</time>
      </trkpt>
      <trkpt lat="44.3449" lon="2.04323">
        <ele>395.9</ele>
        <time>2016-01-03T10:06:56Z</time>
      </trkpt>
      <trkpt lat="44.34487" lon="2.04325">
        <ele>395.8</ele>
        <time>2016-01-03T10:06:58Z</time>
      </trkpt>
      <trkpt lat="44.34488" lon="2.0433">
        <ele>394.9</ele>
        <time>2016-01-03T10:07:00Z</time>
      </trkpt>
      <trkpt lat="44.34485" lon="2.04331">
        <ele>395.2</ele>
        <time>2016-01-03T10:07:02Z</time>
      </trkpt>
      <trkpt lat="44.34482" lon="2.04332">
        <ele>395.4</ele>
        <time>2016-01-03T10:07:04Z</time>
      </trkpt>
      <trkpt lat="44.34478" lon="2.04331">
        <ele>396</ele>
        <time>2016-01-03T10:07:06Z</time>
      </trkpt>
      <trkpt lat="44.34475" lon="2.0433">
        <ele>396.5</ele>
        <time>2016-01-03T10:07:09Z</time>
      </trkpt>
      <trkpt lat="44.3447" lon="2.04331">
        <ele>397</ele>
        <time>2016-01-03T10:07:12Z</time>
      </trkpt>
      <trkpt lat="44.34466" lon="2.0433">
        <ele>397.7</ele>
        <time>2016-01-03T10:07:15Z</time>
      </trkpt>
      <trkpt lat="44.34462" lon="2.0433">
        <ele>398.3</ele>
        <time>2016-01-03T10:07:17Z</time>
      </trkpt>
      <trkpt lat="44.34456" lon="2.04328">
        <ele>399.4</ele>
        <time>2016-01-03T10:07:19Z</time>
      </trkpt>
      <trkpt lat="44.34452" lon="2.04327">
        <ele>400</ele>
        <time>2016-01-03T10:07:21Z</time>
      </trkpt>
      <trkpt lat="44.34449" lon="2.04327">
        <ele>400.5</ele>
        <time>2016-01-03T10:07:23Z</time>
      </trkpt>
      <trkpt lat="44.34446" lon="2.04327">
        <ele>401</ele>
        <time>2016-01-03T10:07:26Z</time>
      </trkpt>
      <trkpt lat="44.34442" lon="2.04326">
        <ele>401.6</ele>
        <time>2016-01-03T10:07:29Z</time>
      </trkpt>
      <trkpt lat="44.34439" lon="2.04326">
        <ele>402.1</ele>
        <time>2016-01-03T10:07:32Z</time>
      </trkpt>
      <trkpt lat="44.34436" lon="2.04325">
        <ele>402.6</ele>
        <time>2016-01-03T10:07:33Z</time>
      </trkpt>
      <trkpt lat="44.34432" lon="2.04325">
        <ele>403.2</ele>
        <time>2016-01-03T10:07:35Z</time>
      </trkpt>
      <trkpt lat="44.34428" lon="2.04324">
        <ele>403.9</ele>
        <time>2016-01-03T10:07:37Z</time>
      </trkpt>
      <trkpt lat="44.34425" lon="2.04323">
        <ele>404.5</ele>
        <time>2016-01-03T10:07:39Z</time>
      </trkpt>
      <trkpt lat="44.34422" lon="2.04323">
        <ele>405</ele>
        <time>2016-01-03T10:07:41Z</time>
      </trkpt>
      <trkpt lat="44.34418" lon="2.04321">
        <ele>405.8</ele>
        <time>2016-01-03T10:07:44Z</time>
      </trkpt>
      <trkpt lat="44.34413" lon="2.04322">
        <ele>406.3</ele>
        <time>2016-01-03T10:07:47Z</time>
      </trkpt>
      <trkpt lat="44.34411" lon="2.0432">
        <ele>407</ele>
        <time>2016-01-03T10:07:49Z</time>
      </trkpt>
      <trkpt lat="44.34408" lon="2.04318">
        <ele>407.7</ele>
        <time>2016-01-03T10:07:51Z</time>
      </trkpt>
      <trkpt lat="44.34405" lon="2.04318">
        <ele>408.3</ele>
        <time>2016-01-03T10:07:53Z</time>
      </trkpt>
      <trkpt lat="44.34401" lon="2.04318">
        <ele>408.8</ele>
        <time>2016-01-03T10:07:55Z</time>
      </trkpt>
      <trkpt lat="44.34397" lon="2.04318">
        <ele>409.4</ele>
        <time>2016-01-03T10:07:57Z</time>
      </trkpt>
      <trkpt lat="44.34391" lon="2.04318">
        <ele>410.1</ele>
        <time>2016-01-03T10:07:59Z</time>
      </trkpt>
      <trkpt lat="44.34387" lon="2.04317">
        <ele>410.9</ele>
        <time>2016-01-03T10:08:01Z</time>
      </trkpt>
      <trkpt lat="44.34382" lon="2.04315">
        <ele>411.8</ele>
        <time>2016-01-03T10:08:03Z</time>
      </trkpt>
      <trkpt lat="44.34379" lon="2.04314">
        <ele>412.4</ele>
        <time>2016-01-03T10:08:05Z</time>
      </trkpt>
      <trkpt lat="44.34382" lon="2.04315">
        <ele>411.8</ele>
        <time>2016-01-03T10:08:10Z</time>
      </trkpt>
      <trkpt lat="44.34385" lon="2.04314">
        <ele>411.6</ele>
        <time>2016-01-03T10:08:13Z</time>
      </trkpt>
      <trkpt lat="44.34388" lon="2.04317">
        <ele>410.8</ele>
        <time>2016-01-03T10:08:16Z</time>
      </trkpt>
      <trkpt lat="44.34391" lon="2.04321">
        <ele>409.7</ele>
        <time>2016-01-03T10:08:18Z</time>
      </trkpt>
      <trkpt lat="44.34394" lon="2.04323">
        <ele>408.9</ele>
        <time>2016-01-03T10:08:20Z</time>
      </trkpt>
      <trkpt lat="44.34395" lon="2.04319">
        <ele>409.3</ele>
        <time>2016-01-03T10:08:21Z</time>
      </trkpt>
      <trkpt lat="44.34398" lon="2.04317">
        <ele>409.4</ele>
        <time>2016-01-03T10:08:23Z</time>
      </trkpt>
      <trkpt lat="44.34401" lon="2.04315">
        <ele>409.3</ele>
        <time>2016-01-03T10:08:25Z</time>
      </trkpt>
      <trkpt lat="44.34404" lon="2.04314">
        <ele>409</ele>
        <time>2016-01-03T10:08:27Z</time>
      </trkpt>
      <trkpt lat="44.34408" lon="2.04313">
        <ele>408.8</ele>
        <time>2016-01-03T10:08:29Z</time>
      </trkpt>
      <trkpt lat="44.34411" lon="2.04309">
        <ele>409.1</ele>
        <time>2016-01-03T10:08:31Z</time>
      </trkpt>
      <trkpt lat="44.34414" lon="2.04305">
        <ele>409.4</ele>
        <time>2016-01-03T10:08:33Z</time>
      </trkpt>
      <trkpt lat="44.34417" lon="2.04303">
        <ele>409.3</ele>
        <time>2016-01-03T10:08:35Z</time>
      </trkpt>
      <trkpt lat="44.3442" lon="2.04302">
        <ele>409.2</ele>
        <time>2016-01-03T10:08:37Z</time>
      </trkpt>
      <trkpt lat="44.34424" lon="2.04301">
        <ele>408.8</ele>
        <time>2016-01-03T10:08:40Z</time>
      </trkpt>
      <trkpt lat="44.34427" lon="2.04301">
        <ele>408.4</ele>
        <time>2016-01-03T10:08:42Z</time>
      </trkpt>
      <trkpt lat="44.3443" lon="2.04299">
        <ele>408.4</ele>
        <time>2016-01-03T10:08:44Z</time>
      </trkpt>
      <trkpt lat="44.34433" lon="2.04299">
        <ele>408</ele>
        <time>2016-01-03T10:08:47Z</time>
      </trkpt>
      <trkpt lat="44.34437" lon="2.04297">
        <ele>407.9</ele>
        <time>2016-01-03T10:08:50Z</time>
      </trkpt>
      <trkpt lat="44.34438" lon="2.04293">
        <ele>408.4</ele>
        <time>2016-01-03T10:08:53Z</time>
      </trkpt>
      <trkpt lat="44.34437" lon="2.04289">
        <ele>408.5</ele>
        <time>2016-01-03T10:08:56Z</time>
      </trkpt>
      <trkpt lat="44.34435" lon="2.04287">
        <ele>408.6</ele>
        <time>2016-01-03T10:09:00Z</time>
      </trkpt>
      <trkpt lat="44.34432" lon="2.04285">
        <ele>408.8</ele>
        <time>2016-01-03T10:09:03Z</time>
      </trkpt>
      <trkpt lat="44.34428" lon="2.04284">
        <ele>409.3</ele>
        <time>2016-01-03T10:09:05Z</time>
      </trkpt>
      <trkpt lat="44.34425" lon="2.04283">
        <ele>409.7</ele>
        <time>2016-01-03T10:09:08Z</time>
      </trkpt>
      <trkpt lat="44.34423" lon="2.0428">
        <ele>409.7</ele>
        <time>2016-01-03T10:09:11Z</time>
      </trkpt>
      <trkpt lat="44.34421" lon="2.04276">
        <ele>409.6</ele>
        <time>2016-01-03T10:09:14Z</time>
      </trkpt>
      <trkpt lat="44.34418" lon="2.04275">
        <ele>410.1</ele>
        <time>2016-01-03T10:09:17Z</time>
      </trkpt>
      <trkpt lat="44.34411" lon="2.04276">
        <ele>411.1</ele>
        <time>2016-01-03T10:09:20Z</time>
      </trkpt>
      <trkpt lat="44.34408" lon="2.04276">
        <ele>411.5</ele>
        <time>2016-01-03T10:09:21Z</time>
      </trkpt>
      <trkpt lat="44.34404" lon="2.04276">
        <ele>412.1</ele>
        <time>2016-01-03T10:09:23Z</time>
      </trkpt>
      <trkpt lat="44.34401" lon="2.04275">
        <ele>412.4</ele>
        <time>2016-01-03T10:09:25Z</time>
      </trkpt>
      <trkpt lat="44.34398" lon="2.04275">
        <ele>412.9</ele>
        <time>2016-01-03T10:09:27Z</time>
      </trkpt>
      <trkpt lat="44.34394" lon="2.04274">
        <ele>413.5</ele>
        <time>2016-01-03T10:09:30Z</time>
      </trkpt>
      <trkpt lat="44.3439" lon="2.04273">
        <ele>413.9</ele>
        <time>2016-01-03T10:09:33Z</time>
      </trkpt>
      <trkpt lat="44.34386" lon="2.04273">
        <ele>414.5</ele>
        <time>2016-01-03T10:09:35Z</time>
      </trkpt>
      <trkpt lat="44.34383" lon="2.04272">
        <ele>414.9</ele>
        <time>2016-01-03T10:09:37Z</time>
      </trkpt>
      <trkpt lat="44.34379" lon="2.04272">
        <ele>415.5</ele>
        <time>2016-01-03T10:09:40Z</time>
      </trkpt>
      <trkpt lat="44.34375" lon="2.04271">
        <ele>416</ele>
        <time>2016-01-03T10:09:43Z</time>
      </trkpt>
      <trkpt lat="44.34371" lon="2.04271">
        <ele>416.5</ele>
        <time>2016-01-03T10:09:46Z</time>
      </trkpt>
      <trkpt lat="44.34368" lon="2.04269">
        <ele>416.8</ele>
        <time>2016-01-03T10:09:50Z</time>
      </trkpt>
      <trkpt lat="44.34365" lon="2.04267">
        <ele>417.1</ele>
        <time>2016-01-03T10:09:54Z</time>
      </trkpt>
      <trkpt lat="44.34361" lon="2.04266">
        <ele>417.5</ele>
        <time>2016-01-03T10:09:57Z</time>
      </trkpt>
      <trkpt lat="44.34358" lon="2.04265">
        <ele>417.8</ele>
        <time>2016-01-03T10:10:00Z</time>
      </trkpt>
      <trkpt lat="44.34355" lon="2.04266">
        <ele>418.3</ele>
        <time>2016-01-03T10:10:03Z</time>
      </trkpt>
      <trkpt lat="44.34352" lon="2.04264">
        <ele>418.5</ele>
        <time>2016-01-03T10:10:06Z</time>
      </trkpt>
      <trkpt lat="44.34348" lon="2.04263">
        <ele>419</ele>
        <time>2016-01-03T10:10:09Z</time>
      </trkpt>
      <trkpt lat="44.34345" lon="2.04263">
        <ele>419.4</ele>
        <time>2016-01-03T10:10:12Z</time>
      </trkpt>
      <trkpt lat="44.34341" lon="2.04264">
        <ele>419.8</ele>
        <time>2016-01-03T10:10:13Z</time>
      </trkpt>
      <trkpt lat="44.34336" lon="2.04254">
        <ele>420.2</ele>
        <time>2016-01-03T10:10:16Z</time>
      </trkpt>
      <trkpt lat="44.34334" lon="2.0425">
        <ele>420.4</ele>
        <time>2016-01-03T10:10:17Z</time>
      </trkpt>
      <trkpt lat="44.34331" lon="2.04252">
        <ele>420.8</ele>
        <time>2016-01-03T10:10:23Z</time>
      </trkpt>
      <trkpt lat="44.34328" lon="2.04254">
        <ele>421.3</ele>
        <time>2016-01-03T10:10:27Z</time>
      </trkpt>
      <trkpt lat="44.34325" lon="2.04255">
        <ele>421.7</ele>
        <time>2016-01-03T10:10:30Z</time>
      </trkpt>
      <trkpt lat="44.34322" lon="2.04254">
        <ele>422</ele>
        <time>2016-01-03T10:10:34Z</time>
      </trkpt>
      <trkpt lat="44.3432" lon="2.04253">
        <ele>422.4</ele>
        <time>2016-01-03T10:10:37Z</time>
      </trkpt>
      <trkpt lat="44.34316" lon="2.0425">
        <ele>422.9</ele>
        <time>2016-01-03T10:10:39Z</time>
      </trkpt>
      <trkpt lat="44.34313" lon="2.04248">
        <ele>423.2</ele>
        <time>2016-01-03T10:10:42Z</time>
      </trkpt>
      <trkpt lat="44.3431" lon="2.04247">
        <ele>423.6</ele>
        <time>2016-01-03T10:10:45Z</time>
      </trkpt>
      <trkpt lat="44.34306" lon="2.04246">
        <ele>424</ele>
        <time>2016-01-03T10:10:48Z</time>
      </trkpt>
      <trkpt lat="44.34303" lon="2.04246">
        <ele>424.4</ele>
        <time>2016-01-03T10:10:51Z</time>
      </trkpt>
      <trkpt lat="44.343" lon="2.04246">
        <ele>424.9</ele>
        <time>2016-01-03T10:10:54Z</time>
      </trkpt>
      <trkpt lat="44.34296" lon="2.04246">
        <ele>425.4</ele>
        <time>2016-01-03T10:10:57Z</time>
      </trkpt>
      <trkpt lat="44.34293" lon="2.04245">
        <ele>425.8</ele>
        <time>2016-01-03T10:11:00Z</time>
      </trkpt>
      <trkpt lat="44.34289" lon="2.04243">
        <ele>426.3</ele>
        <time>2016-01-03T10:11:02Z</time>
      </trkpt>
      <trkpt lat="44.34287" lon="2.04242">
        <ele>426.7</ele>
        <time>2016-01-03T10:11:05Z</time>
      </trkpt>
      <trkpt lat="44.34284" lon="2.04242">
        <ele>427.1</ele>
        <time>2016-01-03T10:11:08Z</time>
      </trkpt>
      <trkpt lat="44.34281" lon="2.04243">
        <ele>427.5</ele>
        <time>2016-01-03T10:11:10Z</time>
      </trkpt>
      <trkpt lat="44.34278" lon="2.04243">
        <ele>428</ele>
        <time>2016-01-03T10:11:12Z</time>
      </trkpt>
      <trkpt lat="44.34274" lon="2.04242">
        <ele>428.4</ele>
        <time>2016-01-03T10:11:15Z</time>
      </trkpt>
      <trkpt lat="44.34271" lon="2.04242">
        <ele>428.8</ele>
        <time>2016-01-03T10:11:17Z</time>
      </trkpt>
      <trkpt lat="44.34268" lon="2.04241">
        <ele>429.2</ele>
        <time>2016-01-03T10:11:19Z</time>
      </trkpt>
      <trkpt lat="44.34264" lon="2.04239">
        <ele>429.7</ele>
        <time>2016-01-03T10:11:22Z</time>
      </trkpt>
      <trkpt lat="44.3426" lon="2.04238">
        <ele>430.3</ele>
        <time>2016-01-03T10:11:25Z</time>
      </trkpt>
      <trkpt lat="44.34257" lon="2.04237">
        <ele>430.7</ele>
        <time>2016-01-03T10:11:27Z</time>
      </trkpt>
      <trkpt lat="44.34253" lon="2.04233">
        <ele>431</ele>
        <time>2016-01-03T10:11:29Z</time>
      </trkpt>
      <trkpt lat="44.3425" lon="2.04231">
        <ele>431.3</ele>
        <time>2016-01-03T10:11:31Z</time>
      </trkpt>
      <trkpt lat="44.34247" lon="2.04234">
        <ele>431.8</ele>
        <time>2016-01-03T10:11:33Z</time>
      </trkpt>
      <trkpt lat="44.34245" lon="2.04237">
        <ele>432.2</ele>
        <time>2016-01-03T10:11:35Z</time>
      </trkpt>
      <trkpt lat="44.34242" lon="2.04238">
        <ele>432.7</ele>
        <time>2016-01-03T10:11:38Z</time>
      </trkpt>
      <trkpt lat="44.34239" lon="2.04239">
        <ele>433.2</ele>
        <time>2016-01-03T10:11:41Z</time>
      </trkpt>
      <trkpt lat="44.34235" lon="2.04241">
        <ele>433.8</ele>
        <time>2016-01-03T10:11:44Z</time>
      </trkpt>
      <trkpt lat="44.34231" lon="2.04241">
        <ele>434.4</ele>
        <time>2016-01-03T10:11:51Z</time>
      </trkpt>
      <trkpt lat="44.34229" lon="2.04239">
        <ele>434.6</ele>
        <time>2016-01-03T10:11:54Z</time>
      </trkpt>
      <trkpt lat="44.34225" lon="2.0424">
        <ele>435.2</ele>
        <time>2016-01-03T10:11:57Z</time>
      </trkpt>
      <trkpt lat="44.34222" lon="2.04241">
        <ele>435.7</ele>
        <time>2016-01-03T10:11:59Z</time>
      </trkpt>
      <trkpt lat="44.34218" lon="2.04243">
        <ele>436.4</ele>
        <time>2016-01-03T10:12:02Z</time>
      </trkpt>
      <trkpt lat="44.34214" lon="2.04243">
        <ele>437</ele>
        <time>2016-01-03T10:12:03Z</time>
      </trkpt>
      <trkpt lat="44.3421" lon="2.04243">
        <ele>437.4</ele>
        <time>2016-01-03T10:12:06Z</time>
      </trkpt>
      <trkpt lat="44.34207" lon="2.04242">
        <ele>437.7</ele>
        <time>2016-01-03T10:12:08Z</time>
      </trkpt>
      <trkpt lat="44.34204" lon="2.04241">
        <ele>437.8</ele>
        <time>2016-01-03T10:12:10Z</time>
      </trkpt>
      <trkpt lat="44.34201" lon="2.04242">
        <ele>438</ele>
        <time>2016-01-03T10:12:12Z</time>
      </trkpt>
      <trkpt lat="44.34198" lon="2.04243">
        <ele>438.3</ele>
        <time>2016-01-03T10:12:16Z</time>
      </trkpt>
      <trkpt lat="44.34196" lon="2.04244">
        <ele>438.7</ele>
        <time>2016-01-03T10:12:21Z</time>
      </trkpt>
      <trkpt lat="44.34193" lon="2.04247">
        <ele>439.2</ele>
        <time>2016-01-03T10:12:25Z</time>
      </trkpt>
      <trkpt lat="44.3419" lon="2.04245">
        <ele>439.2</ele>
        <time>2016-01-03T10:12:32Z</time>
      </trkpt>
      <trkpt lat="44.34186" lon="2.04244">
        <ele>439.4</ele>
        <time>2016-01-03T10:12:39Z</time>
      </trkpt>
      <trkpt lat="44.34184" lon="2.04246">
        <ele>439.7</ele>
        <time>2016-01-03T10:12:43Z</time>
      </trkpt>
      <trkpt lat="44.34181" lon="2.04247">
        <ele>440.1</ele>
        <time>2016-01-03T10:12:47Z</time>
      </trkpt>
      <trkpt lat="44.34178" lon="2.04248">
        <ele>440.5</ele>
        <time>2016-01-03T10:12:51Z</time>
      </trkpt>
      <trkpt lat="44.34175" lon="2.0425">
        <ele>441.1</ele>
        <time>2016-01-03T10:13:00Z</time>
      </trkpt>
      <trkpt lat="44.34172" lon="2.04252">
        <ele>441.7</ele>
        <time>2016-01-03T10:13:04Z</time>
      </trkpt>
      <trkpt lat="44.34169" lon="2.04253">
        <ele>442.2</ele>
        <time>2016-01-03T10:13:07Z</time>
      </trkpt>
      <trkpt lat="44.34165" lon="2.04254">
        <ele>442.6</ele>
        <time>2016-01-03T10:13:09Z</time>
      </trkpt>
      <trkpt lat="44.34162" lon="2.04254">
        <ele>442.8</ele>
        <time>2016-01-03T10:13:11Z</time>
      </trkpt>
      <trkpt lat="44.34158" lon="2.04254">
        <ele>443.3</ele>
        <time>2016-01-03T10:13:13Z</time>
      </trkpt>
      <trkpt lat="44.34155" lon="2.04255">
        <ele>443.6</ele>
        <time>2016-01-03T10:13:16Z</time>
      </trkpt>
      <trkpt lat="44.34151" lon="2.04255">
        <ele>444</ele>
        <time>2016-01-03T10:13:19Z</time>
      </trkpt>
      <trkpt lat="44.34148" lon="2.04255">
        <ele>444.3</ele>
        <time>2016-01-03T10:13:22Z</time>
      </trkpt>
      <trkpt lat="44.34145" lon="2.04255">
        <ele>444.7</ele>
        <time>2016-01-03T10:13:24Z</time>
      </trkpt>
      <trkpt lat="44.34142" lon="2.04256">
        <ele>445.1</ele>
        <time>2016-01-03T10:13:27Z</time>
      </trkpt>
      <trkpt lat="44.34137" lon="2.04256">
        <ele>445.4</ele>
        <time>2016-01-03T10:13:30Z</time>
      </trkpt>
      <trkpt lat="44.34133" lon="2.04256">
        <ele>445.9</ele>
        <time>2016-01-03T10:13:33Z</time>
      </trkpt>
      <trkpt lat="44.3413" lon="2.04257">
        <ele>446.3</ele>
        <time>2016-01-03T10:13:36Z</time>
      </trkpt>
      <trkpt lat="44.34125" lon="2.04258">
        <ele>447.1</ele>
        <time>2016-01-03T10:13:39Z</time>
      </trkpt>
      <trkpt lat="44.34122" lon="2.04258">
        <ele>447.2</ele>
        <time>2016-01-03T10:13:41Z</time>
      </trkpt>
      <trkpt lat="44.34118" lon="2.0426">
        <ele>447.7</ele>
        <time>2016-01-03T10:13:44Z</time>
      </trkpt>
      <trkpt lat="44.34116" lon="2.04263">
        <ele>448.4</ele>
        <time>2016-01-03T10:13:47Z</time>
      </trkpt>
      <trkpt lat="44.34112" lon="2.04264">
        <ele>448.8</ele>
        <time>2016-01-03T10:13:49Z</time>
      </trkpt>
      <trkpt lat="44.3411" lon="2.04266">
        <ele>449.3</ele>
        <time>2016-01-03T10:13:51Z</time>
      </trkpt>
      <trkpt lat="44.34107" lon="2.04268">
        <ele>450</ele>
        <time>2016-01-03T10:13:54Z</time>
      </trkpt>
      <trkpt lat="44.34104" lon="2.0427">
        <ele>450.5</ele>
        <time>2016-01-03T10:13:56Z</time>
      </trkpt>
      <trkpt lat="44.34101" lon="2.04272">
        <ele>451.1</ele>
        <time>2016-01-03T10:13:59Z</time>
      </trkpt>
      <trkpt lat="44.34098" lon="2.04273">
        <ele>451.3</ele>
        <time>2016-01-03T10:14:03Z</time>
      </trkpt>
      <trkpt lat="44.34095" lon="2.04274">
        <ele>451.7</ele>
        <time>2016-01-03T10:14:08Z</time>
      </trkpt>
      <trkpt lat="44.34093" lon="2.04276">
        <ele>452.3</ele>
        <time>2016-01-03T10:14:11Z</time>
      </trkpt>
      <trkpt lat="44.34089" lon="2.04276">
        <ele>452.2</ele>
        <time>2016-01-03T10:14:15Z</time>
      </trkpt>
      <trkpt lat="44.34086" lon="2.04276">
        <ele>452.3</ele>
        <time>2016-01-03T10:14:17Z</time>
      </trkpt>
      <trkpt lat="44.34081" lon="2.04278">
        <ele>453.1</ele>
        <time>2016-01-03T10:14:19Z</time>
      </trkpt>
      <trkpt lat="44.34077" lon="2.04281">
        <ele>453.9</ele>
        <time>2016-01-03T10:14:22Z</time>
      </trkpt>
      <trkpt lat="44.34074" lon="2.04282">
        <ele>454.4</ele>
        <time>2016-01-03T10:14:25Z</time>
      </trkpt>
      <trkpt lat="44.3407" lon="2.04282">
        <ele>454.4</ele>
        <time>2016-01-03T10:14:29Z</time>
      </trkpt>
      <trkpt lat="44.34068" lon="2.04284">
        <ele>455.1</ele>
        <time>2016-01-03T10:14:33Z</time>
      </trkpt>
      <trkpt lat="44.34065" lon="2.04287">
        <ele>456</ele>
        <time>2016-01-03T10:14:36Z</time>
      </trkpt>
      <trkpt lat="44.34062" lon="2.04289">
        <ele>456.7</ele>
        <time>2016-01-03T10:14:39Z</time>
      </trkpt>
      <trkpt lat="44.34059" lon="2.0429">
        <ele>457</ele>
        <time>2016-01-03T10:14:42Z</time>
      </trkpt>
      <trkpt lat="44.34055" lon="2.04292">
        <ele>457.6</ele>
        <time>2016-01-03T10:14:45Z</time>
      </trkpt>
      <trkpt lat="44.34052" lon="2.04293">
        <ele>458</ele>
        <time>2016-01-03T10:14:47Z</time>
      </trkpt>
      <trkpt lat="44.3405" lon="2.04296">
        <ele>458.4</ele>
        <time>2016-01-03T10:14:50Z</time>
      </trkpt>
      <trkpt lat="44.34049" lon="2.043">
        <ele>459</ele>
        <time>2016-01-03T10:14:53Z</time>
      </trkpt>
      <trkpt lat="44.34045" lon="2.04305">
        <ele>459.8</ele>
        <time>2016-01-03T10:15:03Z</time>
      </trkpt>
      <trkpt lat="44.34042" lon="2.04306">
        <ele>460.1</ele>
        <time>2016-01-03T10:15:08Z</time>
      </trkpt>
      <trkpt lat="44.34039" lon="2.04305">
        <ele>459.8</ele>
        <time>2016-01-03T10:15:12Z</time>
      </trkpt>
      <trkpt lat="44.34042" lon="2.04313">
        <ele>461</ele>
        <time>2016-01-03T10:15:37Z</time>
      </trkpt>
      <trkpt lat="44.34039" lon="2.04315">
        <ele>461.1</ele>
        <time>2016-01-03T10:15:40Z</time>
      </trkpt>
      <trkpt lat="44.34036" lon="2.04314">
        <ele>460.8</ele>
        <time>2016-01-03T10:15:42Z</time>
      </trkpt>
      <trkpt lat="44.34032" lon="2.04315">
        <ele>460.6</ele>
        <time>2016-01-03T10:15:45Z</time>
      </trkpt>
      <trkpt lat="44.34029" lon="2.04316">
        <ele>460.6</ele>
        <time>2016-01-03T10:15:47Z</time>
      </trkpt>
      <trkpt lat="44.34027" lon="2.04316">
        <ele>460.5</ele>
        <time>2016-01-03T10:15:49Z</time>
      </trkpt>
      <trkpt lat="44.34024" lon="2.04318">
        <ele>460.6</ele>
        <time>2016-01-03T10:15:52Z</time>
      </trkpt>
      <trkpt lat="44.34021" lon="2.0432">
        <ele>460.8</ele>
        <time>2016-01-03T10:15:54Z</time>
      </trkpt>
      <trkpt lat="44.34018" lon="2.04323">
        <ele>461.1</ele>
        <time>2016-01-03T10:15:57Z</time>
      </trkpt>
      <trkpt lat="44.34015" lon="2.04325">
        <ele>461.3</ele>
        <time>2016-01-03T10:16:00Z</time>
      </trkpt>
      <trkpt lat="44.34012" lon="2.04327">
        <ele>461.5</ele>
        <time>2016-01-03T10:16:03Z</time>
      </trkpt>
      <trkpt lat="44.3401" lon="2.04328">
        <ele>461.6</ele>
        <time>2016-01-03T10:16:06Z</time>
      </trkpt>
      <trkpt lat="44.34008" lon="2.04331">
        <ele>462.2</ele>
        <time>2016-01-03T10:16:10Z</time>
      </trkpt>
      <trkpt lat="44.34005" lon="2.04334">
        <ele>462.5</ele>
        <time>2016-01-03T10:16:13Z</time>
      </trkpt>
      <trkpt lat="44.34002" lon="2.04334">
        <ele>462.5</ele>
        <time>2016-01-03T10:16:15Z</time>
      </trkpt>
      <trkpt lat="44.33999" lon="2.04337">
        <ele>463</ele>
        <time>2016-01-03T10:16:17Z</time>
      </trkpt>
      <trkpt lat="44.33995" lon="2.04338">
        <ele>463.1</ele>
        <time>2016-01-03T10:16:19Z</time>
      </trkpt>
      <trkpt lat="44.33991" lon="2.04342">
        <ele>463.7</ele>
        <time>2016-01-03T10:16:22Z</time>
      </trkpt>
      <trkpt lat="44.33989" lon="2.04344">
        <ele>464.2</ele>
        <time>2016-01-03T10:16:25Z</time>
      </trkpt>
      <trkpt lat="44.33986" lon="2.04347">
        <ele>464.8</ele>
        <time>2016-01-03T10:16:28Z</time>
      </trkpt>
      <trkpt lat="44.33984" lon="2.04351">
        <ele>465.7</ele>
        <time>2016-01-03T10:16:31Z</time>
      </trkpt>
      <trkpt lat="44.33981" lon="2.04354">
        <ele>466.3</ele>
        <time>2016-01-03T10:16:34Z</time>
      </trkpt>
      <trkpt lat="44.33977" lon="2.04356">
        <ele>466.9</ele>
        <time>2016-01-03T10:16:37Z</time>
      </trkpt>
      <trkpt lat="44.33974" lon="2.04357">
        <ele>467.2</ele>
        <time>2016-01-03T10:16:39Z</time>
      </trkpt>
      <trkpt lat="44.33971" lon="2.04358">
        <ele>467.3</ele>
        <time>2016-01-03T10:16:42Z</time>
      </trkpt>
      <trkpt lat="44.33968" lon="2.04359">
        <ele>467.5</ele>
        <time>2016-01-03T10:16:45Z</time>
      </trkpt>
      <trkpt lat="44.33965" lon="2.0436">
        <ele>467.9</ele>
        <time>2016-01-03T10:16:47Z</time>
      </trkpt>
      <trkpt lat="44.3396" lon="2.04364">
        <ele>468.9</ele>
        <time>2016-01-03T10:16:49Z</time>
      </trkpt>
      <trkpt lat="44.33956" lon="2.04367">
        <ele>469.6</ele>
        <time>2016-01-03T10:16:51Z</time>
      </trkpt>
      <trkpt lat="44.33954" lon="2.04371">
        <ele>470.9</ele>
        <time>2016-01-03T10:16:53Z</time>
      </trkpt>
      <trkpt lat="44.33951" lon="2.04379">
        <ele>472.5</ele>
        <time>2016-01-03T10:16:55Z</time>
      </trkpt>
      <trkpt lat="44.3395" lon="2.04383">
        <ele>473.2</ele>
        <time>2016-01-03T10:16:56Z</time>
      </trkpt>
      <trkpt lat="44.33947" lon="2.04387">
        <ele>473.9</ele>
        <time>2016-01-03T10:16:58Z</time>
      </trkpt>
      <trkpt lat="44.33943" lon="2.04387">
        <ele>473.8</ele>
        <time>2016-01-03T10:17:02Z</time>
      </trkpt>
      <trkpt lat="44.33939" lon="2.04388">
        <ele>474</ele>
        <time>2016-01-03T10:17:05Z</time>
      </trkpt>
      <trkpt lat="44.33936" lon="2.0439">
        <ele>474.4</ele>
        <time>2016-01-03T10:17:08Z</time>
      </trkpt>
      <trkpt lat="44.33933" lon="2.04393">
        <ele>475</ele>
        <time>2016-01-03T10:17:11Z</time>
      </trkpt>
      <trkpt lat="44.33931" lon="2.04396">
        <ele>475.4</ele>
        <time>2016-01-03T10:17:13Z</time>
      </trkpt>
      <trkpt lat="44.33928" lon="2.04398">
        <ele>475.8</ele>
        <time>2016-01-03T10:17:15Z</time>
      </trkpt>
      <trkpt lat="44.33925" lon="2.044">
        <ele>476.2</ele>
        <time>2016-01-03T10:17:17Z</time>
      </trkpt>
      <trkpt lat="44.33922" lon="2.04401">
        <ele>476.4</ele>
        <time>2016-01-03T10:17:19Z</time>
      </trkpt>
      <trkpt lat="44.3392" lon="2.04404">
        <ele>477</ele>
        <time>2016-01-03T10:17:21Z</time>
      </trkpt>
      <trkpt lat="44.33914" lon="2.04399">
        <ele>476.1</ele>
        <time>2016-01-03T10:17:23Z</time>
      </trkpt>
      <trkpt lat="44.33911" lon="2.04395">
        <ele>475.3</ele>
        <time>2016-01-03T10:17:24Z</time>
      </trkpt>
      <trkpt lat="44.33908" lon="2.0439">
        <ele>474.4</ele>
        <time>2016-01-03T10:17:25Z</time>
      </trkpt>
      <trkpt lat="44.33906" lon="2.04394">
        <ele>475.1</ele>
        <time>2016-01-03T10:17:28Z</time>
      </trkpt>
      <trkpt lat="44.33906" lon="2.04401">
        <ele>476.6</ele>
        <time>2016-01-03T10:17:30Z</time>
      </trkpt>
      <trkpt lat="44.33903" lon="2.04407">
        <ele>477.8</ele>
        <time>2016-01-03T10:17:32Z</time>
      </trkpt>
      <trkpt lat="44.339" lon="2.04411">
        <ele>478.7</ele>
        <time>2016-01-03T10:17:34Z</time>
      </trkpt>
      <trkpt lat="44.33897" lon="2.04415">
        <ele>479.7</ele>
        <time>2016-01-03T10:17:36Z</time>
      </trkpt>
      <trkpt lat="44.33893" lon="2.0442">
        <ele>480.8</ele>
        <time>2016-01-03T10:17:38Z</time>
      </trkpt>
      <trkpt lat="44.33891" lon="2.04423">
        <ele>481.5</ele>
        <time>2016-01-03T10:17:39Z</time>
      </trkpt>
      <trkpt lat="44.33888" lon="2.04426">
        <ele>482.3</ele>
        <time>2016-01-03T10:17:41Z</time>
      </trkpt>
      <trkpt lat="44.33887" lon="2.0443">
        <ele>483.2</ele>
        <time>2016-01-03T10:17:43Z</time>
      </trkpt>
      <trkpt lat="44.33885" lon="2.04434">
        <ele>484.1</ele>
        <time>2016-01-03T10:17:45Z</time>
      </trkpt>
      <trkpt lat="44.33883" lon="2.04439">
        <ele>485.3</ele>
        <time>2016-01-03T10:17:48Z</time>
      </trkpt>
      <trkpt lat="44.3388" lon="2.04444">
        <ele>486.5</ele>
        <time>2016-01-03T10:17:51Z</time>
      </trkpt>
      <trkpt lat="44.33877" lon="2.04447">
        <ele>487.4</ele>
        <time>2016-01-03T10:17:53Z</time>
      </trkpt>
      <trkpt lat="44.33874" lon="2.04449">
        <ele>487.9</ele>
        <time>2016-01-03T10:17:56Z</time>
      </trkpt>
      <trkpt lat="44.33871" lon="2.04451">
        <ele>488.5</ele>
        <time>2016-01-03T10:17:58Z</time>
      </trkpt>
      <trkpt lat="44.33867" lon="2.04455">
        <ele>489.3</ele>
        <time>2016-01-03T10:18:00Z</time>
      </trkpt>
      <trkpt lat="44.33865" lon="2.04458">
        <ele>490</ele>
        <time>2016-01-03T10:18:02Z</time>
      </trkpt>
      <trkpt lat="44.33862" lon="2.04461">
        <ele>490.3</ele>
        <time>2016-01-03T10:18:04Z</time>
      </trkpt>
      <trkpt lat="44.3386" lon="2.04463">
        <ele>490.6</ele>
        <time>2016-01-03T10:18:06Z</time>
      </trkpt>
      <trkpt lat="44.33859" lon="2.04467">
        <ele>491</ele>
        <time>2016-01-03T10:18:08Z</time>
      </trkpt>
      <trkpt lat="44.33856" lon="2.04471">
        <ele>491.3</ele>
        <time>2016-01-03T10:18:10Z</time>
      </trkpt>
      <trkpt lat="44.33853" lon="2.04473">
        <ele>491.6</ele>
        <time>2016-01-03T10:18:13Z</time>
      </trkpt>
      <trkpt lat="44.3385" lon="2.04474">
        <ele>491.8</ele>
        <time>2016-01-03T10:18:15Z</time>
      </trkpt>
      <trkpt lat="44.33847" lon="2.04476">
        <ele>492</ele>
        <time>2016-01-03T10:18:17Z</time>
      </trkpt>
      <trkpt lat="44.33844" lon="2.04477">
        <ele>492.2</ele>
        <time>2016-01-03T10:18:19Z</time>
      </trkpt>
      <trkpt lat="44.33841" lon="2.04481">
        <ele>492.7</ele>
        <time>2016-01-03T10:18:22Z</time>
      </trkpt>
      <trkpt lat="44.33838" lon="2.04482">
        <ele>492.8</ele>
        <time>2016-01-03T10:18:26Z</time>
      </trkpt>
      <trkpt lat="44.33835" lon="2.04484">
        <ele>493.2</ele>
        <time>2016-01-03T10:18:29Z</time>
      </trkpt>
      <trkpt lat="44.33832" lon="2.04485">
        <ele>493.4</ele>
        <time>2016-01-03T10:18:32Z</time>
      </trkpt>
      <trkpt lat="44.3383" lon="2.04486">
        <ele>493.7</ele>
        <time>2016-01-03T10:18:34Z</time>
      </trkpt>
      <trkpt lat="44.33827" lon="2.04489">
        <ele>494.1</ele>
        <time>2016-01-03T10:18:37Z</time>
      </trkpt>
      <trkpt lat="44.33825" lon="2.04491">
        <ele>494.4</ele>
        <time>2016-01-03T10:18:39Z</time>
      </trkpt>
      <trkpt lat="44.33822" lon="2.04493">
        <ele>494.7</ele>
        <time>2016-01-03T10:18:41Z</time>
      </trkpt>
      <trkpt lat="44.33819" lon="2.04496">
        <ele>495.3</ele>
        <time>2016-01-03T10:18:44Z</time>
      </trkpt>
      <trkpt lat="44.33816" lon="2.045">
        <ele>495.8</ele>
        <time>2016-01-03T10:18:47Z</time>
      </trkpt>
      <trkpt lat="44.33813" lon="2.04503">
        <ele>496.3</ele>
        <time>2016-01-03T10:18:49Z</time>
      </trkpt>
      <trkpt lat="44.3381" lon="2.04505">
        <ele>496.7</ele>
        <time>2016-01-03T10:18:51Z</time>
      </trkpt>
      <trkpt lat="44.33807" lon="2.04508">
        <ele>497.3</ele>
        <time>2016-01-03T10:18:53Z</time>
      </trkpt>
      <trkpt lat="44.33804" lon="2.04513">
        <ele>498.1</ele>
        <time>2016-01-03T10:18:55Z</time>
      </trkpt>
      <trkpt lat="44.33801" lon="2.04515">
        <ele>498.6</ele>
        <time>2016-01-03T10:18:57Z</time>
      </trkpt>
      <trkpt lat="44.33798" lon="2.04519">
        <ele>499.3</ele>
        <time>2016-01-03T10:18:59Z</time>
      </trkpt>
      <trkpt lat="44.33795" lon="2.0452">
        <ele>499.7</ele>
        <time>2016-01-03T10:19:01Z</time>
      </trkpt>
      <trkpt lat="44.33792" lon="2.04523">
        <ele>500.2</ele>
        <time>2016-01-03T10:19:03Z</time>
      </trkpt>
      <trkpt lat="44.3379" lon="2.04528">
        <ele>501.1</ele>
        <time>2016-01-03T10:19:05Z</time>
      </trkpt>
      <trkpt lat="44.33788" lon="2.04533">
        <ele>501.9</ele>
        <time>2016-01-03T10:19:07Z</time>
      </trkpt>
      <trkpt lat="44.33785" lon="2.04538">
        <ele>502.9</ele>
        <time>2016-01-03T10:19:09Z</time>
      </trkpt>
      <trkpt lat="44.33782" lon="2.04536">
        <ele>502.7</ele>
        <time>2016-01-03T10:19:12Z</time>
      </trkpt>
      <trkpt lat="44.33779" lon="2.04533">
        <ele>502.4</ele>
        <time>2016-01-03T10:19:14Z</time>
      </trkpt>
      <trkpt lat="44.33775" lon="2.04532">
        <ele>502.5</ele>
        <time>2016-01-03T10:19:16Z</time>
      </trkpt>
      <trkpt lat="44.33772" lon="2.04535">
        <ele>503</ele>
        <time>2016-01-03T10:19:18Z</time>
      </trkpt>
      <trkpt lat="44.33768" lon="2.04538">
        <ele>503.6</ele>
        <time>2016-01-03T10:19:20Z</time>
      </trkpt>
      <trkpt lat="44.33766" lon="2.04541">
        <ele>504.2</ele>
        <time>2016-01-03T10:19:22Z</time>
      </trkpt>
      <trkpt lat="44.33764" lon="2.04545">
        <ele>504.5</ele>
        <time>2016-01-03T10:19:24Z</time>
      </trkpt>
      <trkpt lat="44.33763" lon="2.0455">
        <ele>504.7</ele>
        <time>2016-01-03T10:19:27Z</time>
      </trkpt>
      <trkpt lat="44.33763" lon="2.04555">
        <ele>504.8</ele>
        <time>2016-01-03T10:19:29Z</time>
      </trkpt>
      <trkpt lat="44.33764" lon="2.0456">
        <ele>504.9</ele>
        <time>2016-01-03T10:19:31Z</time>
      </trkpt>
      <trkpt lat="44.33763" lon="2.04565">
        <ele>505.1</ele>
        <time>2016-01-03T10:19:33Z</time>
      </trkpt>
      <trkpt lat="44.33762" lon="2.04568">
        <ele>505.3</ele>
        <time>2016-01-03T10:19:35Z</time>
      </trkpt>
      <trkpt lat="44.3376" lon="2.04572">
        <ele>505.5</ele>
        <time>2016-01-03T10:19:37Z</time>
      </trkpt>
      <trkpt lat="44.33757" lon="2.04577">
        <ele>505.9</ele>
        <time>2016-01-03T10:19:39Z</time>
      </trkpt>
      <trkpt lat="44.33753" lon="2.04582">
        <ele>506.3</ele>
        <time>2016-01-03T10:19:41Z</time>
      </trkpt>
      <trkpt lat="44.33752" lon="2.04586">
        <ele>506.5</ele>
        <time>2016-01-03T10:19:44Z</time>
      </trkpt>
      <trkpt lat="44.33749" lon="2.04588">
        <ele>506.8</ele>
        <time>2016-01-03T10:19:47Z</time>
      </trkpt>
      <trkpt lat="44.33745" lon="2.04592">
        <ele>507.1</ele>
        <time>2016-01-03T10:19:50Z</time>
      </trkpt>
      <trkpt lat="44.33741" lon="2.04593">
        <ele>507.4</ele>
        <time>2016-01-03T10:19:53Z</time>
      </trkpt>
      <trkpt lat="44.33737" lon="2.04596">
        <ele>507.8</ele>
        <time>2016-01-03T10:19:55Z</time>
      </trkpt>
      <trkpt lat="44.33734" lon="2.04599">
        <ele>508.1</ele>
        <time>2016-01-03T10:19:58Z</time>
      </trkpt>
      <trkpt lat="44.33731" lon="2.046">
        <ele>508.4</ele>
        <time>2016-01-03T10:19:59Z</time>
      </trkpt>
      <trkpt lat="44.33727" lon="2.04599">
        <ele>508.5</ele>
        <time>2016-01-03T10:20:00Z</time>
      </trkpt>
      <trkpt lat="44.33724" lon="2.04598">
        <ele>508.7</ele>
        <time>2016-01-03T10:20:01Z</time>
      </trkpt>
      <trkpt lat="44.3372" lon="2.04596">
        <ele>508.9</ele>
        <time>2016-01-03T10:20:02Z</time>
      </trkpt>
      <trkpt lat="44.33714" lon="2.04595">
        <ele>509.2</ele>
        <time>2016-01-03T10:20:04Z</time>
      </trkpt>
      <trkpt lat="44.3371" lon="2.04596">
        <ele>509.5</ele>
        <time>2016-01-03T10:20:06Z</time>
      </trkpt>
      <trkpt lat="44.33707" lon="2.04596">
        <ele>509.7</ele>
        <time>2016-01-03T10:20:08Z</time>
      </trkpt>
      <trkpt lat="44.33703" lon="2.04597">
        <ele>510</ele>
        <time>2016-01-03T10:20:10Z</time>
      </trkpt>
      <trkpt lat="44.33699" lon="2.04598">
        <ele>510.3</ele>
        <time>2016-01-03T10:20:12Z</time>
      </trkpt>
      <trkpt lat="44.33695" lon="2.04599">
        <ele>510.6</ele>
        <time>2016-01-03T10:20:14Z</time>
      </trkpt>
      <trkpt lat="44.33693" lon="2.04602">
        <ele>510.9</ele>
        <time>2016-01-03T10:20:16Z</time>
      </trkpt>
      <trkpt lat="44.3369" lon="2.04606">
        <ele>511.2</ele>
        <time>2016-01-03T10:20:18Z</time>
      </trkpt>
      <trkpt lat="44.33687" lon="2.04609">
        <ele>511.6</ele>
        <time>2016-01-03T10:20:20Z</time>
      </trkpt>
      <trkpt lat="44.33685" lon="2.04614">
        <ele>511.9</ele>
        <time>2016-01-03T10:20:22Z</time>
      </trkpt>
      <trkpt lat="44.33683" lon="2.04618">
        <ele>512.2</ele>
        <time>2016-01-03T10:20:24Z</time>
      </trkpt>
      <trkpt lat="44.33682" lon="2.04621">
        <ele>512.4</ele>
        <time>2016-01-03T10:20:26Z</time>
      </trkpt>
      <trkpt lat="44.33678" lon="2.04625">
        <ele>512.8</ele>
        <time>2016-01-03T10:20:28Z</time>
      </trkpt>
      <trkpt lat="44.33674" lon="2.04629">
        <ele>512.9</ele>
        <time>2016-01-03T10:20:30Z</time>
      </trkpt>
      <trkpt lat="44.33671" lon="2.04633">
        <ele>513</ele>
        <time>2016-01-03T10:20:32Z</time>
      </trkpt>
      <trkpt lat="44.33668" lon="2.04638">
        <ele>513</ele>
        <time>2016-01-03T10:20:34Z</time>
      </trkpt>
      <trkpt lat="44.33665" lon="2.04642">
        <ele>513</ele>
        <time>2016-01-03T10:20:36Z</time>
      </trkpt>
      <trkpt lat="44.33663" lon="2.04648">
        <ele>512.9</ele>
        <time>2016-01-03T10:20:38Z</time>
      </trkpt>
      <trkpt lat="44.33664" lon="2.04655">
        <ele>512.6</ele>
        <time>2016-01-03T10:20:39Z</time>
      </trkpt>
      <trkpt lat="44.33657" lon="2.04655">
        <ele>513</ele>
        <time>2016-01-03T10:20:41Z</time>
      </trkpt>
      <trkpt lat="44.33653" lon="2.04654">
        <ele>513.3</ele>
        <time>2016-01-03T10:20:42Z</time>
      </trkpt>
      <trkpt lat="44.3365" lon="2.04653">
        <ele>513.5</ele>
        <time>2016-01-03T10:20:43Z</time>
      </trkpt>
      <trkpt lat="44.33647" lon="2.04656">
        <ele>513.6</ele>
        <time>2016-01-03T10:20:44Z</time>
      </trkpt>
      <trkpt lat="44.33644" lon="2.04659">
        <ele>513.6</ele>
        <time>2016-01-03T10:20:45Z</time>
      </trkpt>
      <trkpt lat="44.33641" lon="2.04665">
        <ele>513.6</ele>
        <time>2016-01-03T10:20:47Z</time>
      </trkpt>
      <trkpt lat="44.33635" lon="2.04664">
        <ele>514</ele>
        <time>2016-01-03T10:20:49Z</time>
      </trkpt>
      <trkpt lat="44.33631" lon="2.04665">
        <ele>514.2</ele>
        <time>2016-01-03T10:20:50Z</time>
      </trkpt>
      <trkpt lat="44.33628" lon="2.04669">
        <ele>514.3</ele>
        <time>2016-01-03T10:20:51Z</time>
      </trkpt>
      <trkpt lat="44.33625" lon="2.04671">
        <ele>514.4</ele>
        <time>2016-01-03T10:20:52Z</time>
      </trkpt>
      <trkpt lat="44.33621" lon="2.04674">
        <ele>514.2</ele>
        <time>2016-01-03T10:20:54Z</time>
      </trkpt>
      <trkpt lat="44.33618" lon="2.04679">
        <ele>514</ele>
        <time>2016-01-03T10:20:56Z</time>
      </trkpt>
      <trkpt lat="44.33616" lon="2.04684">
        <ele>513.8</ele>
        <time>2016-01-03T10:20:57Z</time>
      </trkpt>
      <trkpt lat="44.33612" lon="2.04687">
        <ele>513.7</ele>
        <time>2016-01-03T10:20:58Z</time>
      </trkpt>
      <trkpt lat="44.33609" lon="2.04691">
        <ele>513.5</ele>
        <time>2016-01-03T10:20:59Z</time>
      </trkpt>
      <trkpt lat="44.33606" lon="2.04694">
        <ele>513.4</ele>
        <time>2016-01-03T10:21:00Z</time>
      </trkpt>
      <trkpt lat="44.33604" lon="2.04697">
        <ele>513.3</ele>
        <time>2016-01-03T10:21:01Z</time>
      </trkpt>
      <trkpt lat="44.33601" lon="2.047">
        <ele>513.2</ele>
        <time>2016-01-03T10:21:02Z</time>
      </trkpt>
      <trkpt lat="44.33599" lon="2.04702">
        <ele>513.1</ele>
        <time>2016-01-03T10:21:03Z</time>
      </trkpt>
      <trkpt lat="44.33596" lon="2.04705">
        <ele>513.1</ele>
        <time>2016-01-03T10:21:04Z</time>
      </trkpt>
      <trkpt lat="44.33593" lon="2.04707">
        <ele>513</ele>
        <time>2016-01-03T10:21:05Z</time>
      </trkpt>
      <trkpt lat="44.3359" lon="2.04709">
        <ele>513</ele>
        <time>2016-01-03T10:21:06Z</time>
      </trkpt>
      <trkpt lat="44.33587" lon="2.04711">
        <ele>512.9</ele>
        <time>2016-01-03T10:21:07Z</time>
      </trkpt>
      <trkpt lat="44.33585" lon="2.04714">
        <ele>512.9</ele>
        <time>2016-01-03T10:21:08Z</time>
      </trkpt>
      <trkpt lat="44.3358" lon="2.04719">
        <ele>512.8</ele>
        <time>2016-01-03T10:21:10Z</time>
      </trkpt>
      <trkpt lat="44.33578" lon="2.04722">
        <ele>512.8</ele>
        <time>2016-01-03T10:21:11Z</time>
      </trkpt>
      <trkpt lat="44.33576" lon="2.04724">
        <ele>512.8</ele>
        <time>2016-01-03T10:21:12Z</time>
      </trkpt>
      <trkpt lat="44.33572" lon="2.04728">
        <ele>512.7</ele>
        <time>2016-01-03T10:21:14Z</time>
      </trkpt>
      <trkpt lat="44.3357" lon="2.04722">
        <ele>512.8</ele>
        <time>2016-01-03T10:21:15Z</time>
      </trkpt>
      <trkpt lat="44.33568" lon="2.04719">
        <ele>512.9</ele>
        <time>2016-01-03T10:21:16Z</time>
      </trkpt>
      <trkpt lat="44.33562" lon="2.04728">
        <ele>512.8</ele>
        <time>2016-01-03T10:21:18Z</time>
      </trkpt>
      <trkpt lat="44.33558" lon="2.0473">
        <ele>512.8</ele>
        <time>2016-01-03T10:21:19Z</time>
      </trkpt>
      <trkpt lat="44.33536" lon="2.0475">
        <ele>512.8</ele>
        <time>2016-01-03T10:21:21Z</time>
      </trkpt>
      <trkpt lat="44.3353" lon="2.04754">
        <ele>512.5</ele>
        <time>2016-01-03T10:21:22Z</time>
      </trkpt>
      <trkpt lat="44.33524" lon="2.04758">
        <ele>512.2</ele>
        <time>2016-01-03T10:21:23Z</time>
      </trkpt>
      <trkpt lat="44.33519" lon="2.04764">
        <ele>512</ele>
        <time>2016-01-03T10:21:24Z</time>
      </trkpt>
      <trkpt lat="44.33514" lon="2.0477">
        <ele>511.7</ele>
        <time>2016-01-03T10:21:25Z</time>
      </trkpt>
      <trkpt lat="44.3351" lon="2.04777">
        <ele>511.5</ele>
        <time>2016-01-03T10:21:26Z</time>
      </trkpt>
      <trkpt lat="44.33505" lon="2.04784">
        <ele>511.3</ele>
        <time>2016-01-03T10:21:27Z</time>
      </trkpt>
      <trkpt lat="44.335" lon="2.0479">
        <ele>511</ele>
        <time>2016-01-03T10:21:28Z</time>
      </trkpt>
      <trkpt lat="44.33497" lon="2.04796">
        <ele>510.6</ele>
        <time>2016-01-03T10:21:29Z</time>
      </trkpt>
      <trkpt lat="44.33494" lon="2.048">
        <ele>510.3</ele>
        <time>2016-01-03T10:21:30Z</time>
      </trkpt>
      <trkpt lat="44.33491" lon="2.04804">
        <ele>509.9</ele>
        <time>2016-01-03T10:21:31Z</time>
      </trkpt>
      <trkpt lat="44.33487" lon="2.0481">
        <ele>509.6</ele>
        <time>2016-01-03T10:21:32Z</time>
      </trkpt>
      <trkpt lat="44.33483" lon="2.04816">
        <ele>509.2</ele>
        <time>2016-01-03T10:21:33Z</time>
      </trkpt>
      <trkpt lat="44.33478" lon="2.04822">
        <ele>508.8</ele>
        <time>2016-01-03T10:21:34Z</time>
      </trkpt>
      <trkpt lat="44.33474" lon="2.04827">
        <ele>508.5</ele>
        <time>2016-01-03T10:21:35Z</time>
      </trkpt>
      <trkpt lat="44.33469" lon="2.04834">
        <ele>508.2</ele>
        <time>2016-01-03T10:21:36Z</time>
      </trkpt>
      <trkpt lat="44.33466" lon="2.0484">
        <ele>508</ele>
        <time>2016-01-03T10:21:37Z</time>
      </trkpt>
      <trkpt lat="44.33462" lon="2.04846">
        <ele>507.7</ele>
        <time>2016-01-03T10:21:38Z</time>
      </trkpt>
      <trkpt lat="44.33459" lon="2.04853">
        <ele>507.5</ele>
        <time>2016-01-03T10:21:39Z</time>
      </trkpt>
      <trkpt lat="44.33455" lon="2.0486">
        <ele>507.2</ele>
        <time>2016-01-03T10:21:40Z</time>
      </trkpt>
      <trkpt lat="44.33453" lon="2.04866">
        <ele>506.9</ele>
        <time>2016-01-03T10:21:41Z</time>
      </trkpt>
      <trkpt lat="44.33452" lon="2.04873">
        <ele>506.7</ele>
        <time>2016-01-03T10:21:42Z</time>
      </trkpt>
      <trkpt lat="44.33451" lon="2.04881">
        <ele>506.6</ele>
        <time>2016-01-03T10:21:43Z</time>
      </trkpt>
      <trkpt lat="44.33449" lon="2.04888">
        <ele>506.4</ele>
        <time>2016-01-03T10:21:44Z</time>
      </trkpt>
      <trkpt lat="44.33447" lon="2.04894">
        <ele>506.2</ele>
        <time>2016-01-03T10:21:45Z</time>
      </trkpt>
      <trkpt lat="44.33445" lon="2.04902">
        <ele>506</ele>
        <time>2016-01-03T10:21:46Z</time>
      </trkpt>
      <trkpt lat="44.33445" lon="2.04908">
        <ele>506</ele>
        <time>2016-01-03T10:21:47Z</time>
      </trkpt>
      <trkpt lat="44.33436" lon="2.04919">
        <ele>505.4</ele>
        <time>2016-01-03T10:21:48Z</time>
      </trkpt>
      <trkpt lat="44.33434" lon="2.04924">
        <ele>505.2</ele>
        <time>2016-01-03T10:21:49Z</time>
      </trkpt>
      <trkpt lat="44.33431" lon="2.0493">
        <ele>505</ele>
        <time>2016-01-03T10:21:50Z</time>
      </trkpt>
      <trkpt lat="44.33429" lon="2.04935">
        <ele>504.8</ele>
        <time>2016-01-03T10:21:51Z</time>
      </trkpt>
      <trkpt lat="44.33426" lon="2.04936">
        <ele>504.7</ele>
        <time>2016-01-03T10:21:52Z</time>
      </trkpt>
      <trkpt lat="44.33424" lon="2.04942">
        <ele>504.5</ele>
        <time>2016-01-03T10:21:54Z</time>
      </trkpt>
      <trkpt lat="44.33424" lon="2.04947">
        <ele>504.5</ele>
        <time>2016-01-03T10:21:56Z</time>
      </trkpt>
      <trkpt lat="44.33424" lon="2.04951">
        <ele>504.4</ele>
        <time>2016-01-03T10:21:57Z</time>
      </trkpt>
      <trkpt lat="44.33422" lon="2.04957">
        <ele>504.3</ele>
        <time>2016-01-03T10:21:58Z</time>
      </trkpt>
      <trkpt lat="44.33421" lon="2.04962">
        <ele>504.2</ele>
        <time>2016-01-03T10:21:59Z</time>
      </trkpt>
      <trkpt lat="44.3342" lon="2.04967">
        <ele>504.2</ele>
        <time>2016-01-03T10:22:00Z</time>
      </trkpt>
      <trkpt lat="44.33419" lon="2.04974">
        <ele>504.3</ele>
        <time>2016-01-03T10:22:02Z</time>
      </trkpt>
      <trkpt lat="44.33418" lon="2.04978">
        <ele>504.3</ele>
        <time>2016-01-03T10:22:03Z</time>
      </trkpt>
      <trkpt lat="44.33417" lon="2.04982">
        <ele>504.3</ele>
        <time>2016-01-03T10:22:04Z</time>
      </trkpt>
      <trkpt lat="44.33416" lon="2.04986">
        <ele>504.3</ele>
        <time>2016-01-03T10:22:05Z</time>
      </trkpt>
      <trkpt lat="44.33415" lon="2.04989">
        <ele>504.3</ele>
        <time>2016-01-03T10:22:06Z</time>
      </trkpt>
      <trkpt lat="44.33412" lon="2.04994">
        <ele>504.3</ele>
        <time>2016-01-03T10:22:07Z</time>
      </trkpt>
      <trkpt lat="44.33411" lon="2.05">
        <ele>504.3</ele>
        <time>2016-01-03T10:22:08Z</time>
      </trkpt>
      <trkpt lat="44.33409" lon="2.05006">
        <ele>504.3</ele>
        <time>2016-01-03T10:22:09Z</time>
      </trkpt>
      <trkpt lat="44.33408" lon="2.05012">
        <ele>504.4</ele>
        <time>2016-01-03T10:22:10Z</time>
      </trkpt>
      <trkpt lat="44.33406" lon="2.05016">
        <ele>504.4</ele>
        <time>2016-01-03T10:22:11Z</time>
      </trkpt>
      <trkpt lat="44.33406" lon="2.05022">
        <ele>504.5</ele>
        <time>2016-01-03T10:22:12Z</time>
      </trkpt>
      <trkpt lat="44.33407" lon="2.05027">
        <ele>504.5</ele>
        <time>2016-01-03T10:22:13Z</time>
      </trkpt>
      <trkpt lat="44.33404" lon="2.05035">
        <ele>504.6</ele>
        <time>2016-01-03T10:22:14Z</time>
      </trkpt>
      <trkpt lat="44.33403" lon="2.05039">
        <ele>504.6</ele>
        <time>2016-01-03T10:22:15Z</time>
      </trkpt>
      <trkpt lat="44.33401" lon="2.05046">
        <ele>504.6</ele>
        <time>2016-01-03T10:22:16Z</time>
      </trkpt>
      <trkpt lat="44.33401" lon="2.05051">
        <ele>504.7</ele>
        <time>2016-01-03T10:22:17Z</time>
      </trkpt>
      <trkpt lat="44.33401" lon="2.05056">
        <ele>504.7</ele>
        <time>2016-01-03T10:22:18Z</time>
      </trkpt>
      <trkpt lat="44.33401" lon="2.05063">
        <ele>504.7</ele>
        <time>2016-01-03T10:22:19Z</time>
      </trkpt>
      <trkpt lat="44.33402" lon="2.0507">
        <ele>504.8</ele>
        <time>2016-01-03T10:22:20Z</time>
      </trkpt>
      <trkpt lat="44.33402" lon="2.05076">
        <ele>504.8</ele>
        <time>2016-01-03T10:22:21Z</time>
      </trkpt>
      <trkpt lat="44.33403" lon="2.05082">
        <ele>504.8</ele>
        <time>2016-01-03T10:22:22Z</time>
      </trkpt>
      <trkpt lat="44.33404" lon="2.05089">
        <ele>504.9</ele>
        <time>2016-01-03T10:22:23Z</time>
      </trkpt>
      <trkpt lat="44.33404" lon="2.05095">
        <ele>504.9</ele>
        <time>2016-01-03T10:22:24Z</time>
      </trkpt>
      <trkpt lat="44.33404" lon="2.05101">
        <ele>504.9</ele>
        <time>2016-01-03T10:22:25Z</time>
      </trkpt>
      <trkpt lat="44.33403" lon="2.05107">
        <ele>504.9</ele>
        <time>2016-01-03T10:22:26Z</time>
      </trkpt>
      <trkpt lat="44.33403" lon="2.05112">
        <ele>504.9</ele>
        <time>2016-01-03T10:22:27Z</time>
      </trkpt>
      <trkpt lat="44.33402" lon="2.05118">
        <ele>505</ele>
        <time>2016-01-03T10:22:28Z</time>
      </trkpt>
      <trkpt lat="44.33402" lon="2.05124">
        <ele>505</ele>
        <time>2016-01-03T10:22:29Z</time>
      </trkpt>
      <trkpt lat="44.33402" lon="2.05129">
        <ele>505</ele>
        <time>2016-01-03T10:22:30Z</time>
      </trkpt>
      <trkpt lat="44.33402" lon="2.05134">
        <ele>505</ele>
        <time>2016-01-03T10:22:31Z</time>
      </trkpt>
      <trkpt lat="44.334" lon="2.05139">
        <ele>505</ele>
        <time>2016-01-03T10:22:32Z</time>
      </trkpt>
      <trkpt lat="44.33398" lon="2.05145">
        <ele>505</ele>
        <time>2016-01-03T10:22:33Z</time>
      </trkpt>
      <trkpt lat="44.33395" lon="2.0515">
        <ele>505</ele>
        <time>2016-01-03T10:22:34Z</time>
      </trkpt>
      <trkpt lat="44.33392" lon="2.05151">
        <ele>504.9</ele>
        <time>2016-01-03T10:22:35Z</time>
      </trkpt>
      <trkpt lat="44.33388" lon="2.05151">
        <ele>504.7</ele>
        <time>2016-01-03T10:22:36Z</time>
      </trkpt>
      <trkpt lat="44.33381" lon="2.05154">
        <ele>504.5</ele>
        <time>2016-01-03T10:22:37Z</time>
      </trkpt>
      <trkpt lat="44.33377" lon="2.05156">
        <ele>504.4</ele>
        <time>2016-01-03T10:22:38Z</time>
      </trkpt>
      <trkpt lat="44.33373" lon="2.05159">
        <ele>504.3</ele>
        <time>2016-01-03T10:22:39Z</time>
      </trkpt>
      <trkpt lat="44.33371" lon="2.05165">
        <ele>504.2</ele>
        <time>2016-01-03T10:22:40Z</time>
      </trkpt>
      <trkpt lat="44.33373" lon="2.05173">
        <ele>504.4</ele>
        <time>2016-01-03T10:22:41Z</time>
      </trkpt>
      <trkpt lat="44.33371" lon="2.05176">
        <ele>504.3</ele>
        <time>2016-01-03T10:22:42Z</time>
      </trkpt>
      <trkpt lat="44.33372" lon="2.05183">
        <ele>504.5</ele>
        <time>2016-01-03T10:22:43Z</time>
      </trkpt>
      <trkpt lat="44.33373" lon="2.05189">
        <ele>504.6</ele>
        <time>2016-01-03T10:22:44Z</time>
      </trkpt>
      <trkpt lat="44.33383" lon="2.05212">
        <ele>505.2</ele>
        <time>2016-01-03T10:22:46Z</time>
      </trkpt>
      <trkpt lat="44.33382" lon="2.05217">
        <ele>505.1</ele>
        <time>2016-01-03T10:22:47Z</time>
      </trkpt>
      <trkpt lat="44.33381" lon="2.05222">
        <ele>505</ele>
        <time>2016-01-03T10:22:48Z</time>
      </trkpt>
      <trkpt lat="44.3338" lon="2.05227">
        <ele>504.9</ele>
        <time>2016-01-03T10:22:49Z</time>
      </trkpt>
      <trkpt lat="44.33379" lon="2.05232">
        <ele>504.8</ele>
        <time>2016-01-03T10:22:50Z</time>
      </trkpt>
      <trkpt lat="44.33377" lon="2.05237">
        <ele>504.7</ele>
        <time>2016-01-03T10:22:51Z</time>
      </trkpt>
      <trkpt lat="44.33376" lon="2.05242">
        <ele>504.6</ele>
        <time>2016-01-03T10:22:52Z</time>
      </trkpt>
      <trkpt lat="44.33375" lon="2.05247">
        <ele>504.5</ele>
        <time>2016-01-03T10:22:53Z</time>
      </trkpt>
      <trkpt lat="44.33374" lon="2.05252">
        <ele>504.4</ele>
        <time>2016-01-03T10:22:54Z</time>
      </trkpt>
      <trkpt lat="44.33372" lon="2.05257">
        <ele>504.2</ele>
        <time>2016-01-03T10:22:55Z</time>
      </trkpt>
      <trkpt lat="44.3337" lon="2.05261">
        <ele>504</ele>
        <time>2016-01-03T10:22:56Z</time>
      </trkpt>
      <trkpt lat="44.33369" lon="2.05266">
        <ele>503.8</ele>
        <time>2016-01-03T10:22:57Z</time>
      </trkpt>
      <trkpt lat="44.33367" lon="2.0527">
        <ele>503.7</ele>
        <time>2016-01-03T10:22:58Z</time>
      </trkpt>
      <trkpt lat="44.33366" lon="2.05275">
        <ele>503.5</ele>
        <time>2016-01-03T10:22:59Z</time>
      </trkpt>
      <trkpt lat="44.33364" lon="2.05279">
        <ele>503.3</ele>
        <time>2016-01-03T10:23:00Z</time>
      </trkpt>
      <trkpt lat="44.33363" lon="2.05283">
        <ele>503.1</ele>
        <time>2016-01-03T10:23:01Z</time>
      </trkpt>
      <trkpt lat="44.33362" lon="2.05287">
        <ele>503</ele>
        <time>2016-01-03T10:23:02Z</time>
      </trkpt>
      <trkpt lat="44.3336" lon="2.05292">
        <ele>502.8</ele>
        <time>2016-01-03T10:23:03Z</time>
      </trkpt>
      <trkpt lat="44.33359" lon="2.05297">
        <ele>503</ele>
        <time>2016-01-03T10:23:04Z</time>
      </trkpt>
      <trkpt lat="44.33357" lon="2.05302">
        <ele>503.1</ele>
        <time>2016-01-03T10:23:05Z</time>
      </trkpt>
      <trkpt lat="44.33356" lon="2.05307">
        <ele>503.3</ele>
        <time>2016-01-03T10:23:06Z</time>
      </trkpt>
      <trkpt lat="44.33354" lon="2.05311">
        <ele>503.5</ele>
        <time>2016-01-03T10:23:07Z</time>
      </trkpt>
      <trkpt lat="44.33352" lon="2.05315">
        <ele>503.6</ele>
        <time>2016-01-03T10:23:08Z</time>
      </trkpt>
      <trkpt lat="44.33351" lon="2.05319">
        <ele>503.7</ele>
        <time>2016-01-03T10:23:09Z</time>
      </trkpt>
      <trkpt lat="44.3335" lon="2.05323">
        <ele>503.9</ele>
        <time>2016-01-03T10:23:10Z</time>
      </trkpt>
      <trkpt lat="44.33349" lon="2.05327">
        <ele>504.1</ele>
        <time>2016-01-03T10:23:11Z</time>
      </trkpt>
      <trkpt lat="44.33348" lon="2.05331">
        <ele>504.2</ele>
        <time>2016-01-03T10:23:12Z</time>
      </trkpt>
      <trkpt lat="44.33346" lon="2.05338">
        <ele>504.6</ele>
        <time>2016-01-03T10:23:14Z</time>
      </trkpt>
      <trkpt lat="44.33345" lon="2.05342">
        <ele>504.7</ele>
        <time>2016-01-03T10:23:15Z</time>
      </trkpt>
      <trkpt lat="44.33342" lon="2.05348">
        <ele>504.9</ele>
        <time>2016-01-03T10:23:16Z</time>
      </trkpt>
      <trkpt lat="44.33341" lon="2.05352">
        <ele>505.1</ele>
        <time>2016-01-03T10:23:17Z</time>
      </trkpt>
      <trkpt lat="44.3334" lon="2.05356">
        <ele>505.2</ele>
        <time>2016-01-03T10:23:18Z</time>
      </trkpt>
      <trkpt lat="44.33337" lon="2.05361">
        <ele>505.3</ele>
        <time>2016-01-03T10:23:20Z</time>
      </trkpt>
      <trkpt lat="44.33336" lon="2.05367">
        <ele>505.7</ele>
        <time>2016-01-03T10:23:22Z</time>
      </trkpt>
      <trkpt lat="44.33335" lon="2.05374">
        <ele>506</ele>
        <time>2016-01-03T10:23:24Z</time>
      </trkpt>
      <trkpt lat="44.33332" lon="2.05379">
        <ele>506.1</ele>
        <time>2016-01-03T10:23:25Z</time>
      </trkpt>
      <trkpt lat="44.3333" lon="2.05383">
        <ele>506.1</ele>
        <time>2016-01-03T10:23:26Z</time>
      </trkpt>
      <trkpt lat="44.33328" lon="2.05387">
        <ele>506.1</ele>
        <time>2016-01-03T10:23:27Z</time>
      </trkpt>
      <trkpt lat="44.33326" lon="2.05392">
        <ele>506.2</ele>
        <time>2016-01-03T10:23:28Z</time>
      </trkpt>
      <trkpt lat="44.33325" lon="2.05397">
        <ele>506.3</ele>
        <time>2016-01-03T10:23:29Z</time>
      </trkpt>
      <trkpt lat="44.33323" lon="2.05401">
        <ele>506.4</ele>
        <time>2016-01-03T10:23:30Z</time>
      </trkpt>
      <trkpt lat="44.33317" lon="2.05403">
        <ele>506</ele>
        <time>2016-01-03T10:23:32Z</time>
      </trkpt>
      <trkpt lat="44.33315" lon="2.05408">
        <ele>506.1</ele>
        <time>2016-01-03T10:23:34Z</time>
      </trkpt>
      <trkpt lat="44.33312" lon="2.05409">
        <ele>506</ele>
        <time>2016-01-03T10:23:35Z</time>
      </trkpt>
      <trkpt lat="44.33308" lon="2.05411">
        <ele>505.8</ele>
        <time>2016-01-03T10:23:36Z</time>
      </trkpt>
      <trkpt lat="44.33305" lon="2.05414">
        <ele>505.8</ele>
        <time>2016-01-03T10:23:37Z</time>
      </trkpt>
      <trkpt lat="44.33305" lon="2.05418">
        <ele>505.9</ele>
        <time>2016-01-03T10:23:38Z</time>
      </trkpt>
      <trkpt lat="44.33305" lon="2.05423">
        <ele>506.2</ele>
        <time>2016-01-03T10:23:39Z</time>
      </trkpt>
      <trkpt lat="44.33306" lon="2.05428">
        <ele>506.4</ele>
        <time>2016-01-03T10:23:40Z</time>
      </trkpt>
      <trkpt lat="44.33305" lon="2.05433">
        <ele>506.6</ele>
        <time>2016-01-03T10:23:42Z</time>
      </trkpt>
      <trkpt lat="44.33304" lon="2.05439">
        <ele>506.8</ele>
        <time>2016-01-03T10:23:44Z</time>
      </trkpt>
      <trkpt lat="44.33302" lon="2.05443">
        <ele>506.9</ele>
        <time>2016-01-03T10:23:46Z</time>
      </trkpt>
      <trkpt lat="44.33301" lon="2.05449">
        <ele>507.1</ele>
        <time>2016-01-03T10:23:48Z</time>
      </trkpt>
      <trkpt lat="44.33299" lon="2.05453">
        <ele>507.2</ele>
        <time>2016-01-03T10:23:50Z</time>
      </trkpt>
      <trkpt lat="44.33297" lon="2.05458">
        <ele>507.3</ele>
        <time>2016-01-03T10:23:52Z</time>
      </trkpt>
      <trkpt lat="44.33296" lon="2.05464">
        <ele>507.6</ele>
        <time>2016-01-03T10:23:54Z</time>
      </trkpt>
      <trkpt lat="44.33294" lon="2.05471">
        <ele>507.9</ele>
        <time>2016-01-03T10:23:56Z</time>
      </trkpt>
      <trkpt lat="44.33294" lon="2.05477">
        <ele>508.3</ele>
        <time>2016-01-03T10:23:58Z</time>
      </trkpt>
      <trkpt lat="44.33293" lon="2.05483">
        <ele>508.5</ele>
        <time>2016-01-03T10:24:00Z</time>
      </trkpt>
      <trkpt lat="44.33292" lon="2.05486">
        <ele>508.7</ele>
        <time>2016-01-03T10:24:03Z</time>
      </trkpt>
      <trkpt lat="44.33289" lon="2.05489">
        <ele>508.7</ele>
        <time>2016-01-03T10:24:05Z</time>
      </trkpt>
      <trkpt lat="44.33286" lon="2.05494">
        <ele>508.9</ele>
        <time>2016-01-03T10:24:07Z</time>
      </trkpt>
      <trkpt lat="44.33283" lon="2.05498">
        <ele>508.9</ele>
        <time>2016-01-03T10:24:09Z</time>
      </trkpt>
      <trkpt lat="44.33279" lon="2.05494">
        <ele>508.6</ele>
        <time>2016-01-03T10:24:11Z</time>
      </trkpt>
      <trkpt lat="44.33277" lon="2.05502">
        <ele>508.9</ele>
        <time>2016-01-03T10:24:13Z</time>
      </trkpt>
      <trkpt lat="44.33273" lon="2.05505">
        <ele>508.8</ele>
        <time>2016-01-03T10:24:14Z</time>
      </trkpt>
      <trkpt lat="44.33271" lon="2.05508">
        <ele>508.9</ele>
        <time>2016-01-03T10:24:15Z</time>
      </trkpt>
      <trkpt lat="44.33268" lon="2.05511">
        <ele>509</ele>
        <time>2016-01-03T10:24:16Z</time>
      </trkpt>
      <trkpt lat="44.33267" lon="2.05517">
        <ele>509.2</ele>
        <time>2016-01-03T10:24:17Z</time>
      </trkpt>
      <trkpt lat="44.3326" lon="2.05522">
        <ele>509.1</ele>
        <time>2016-01-03T10:24:18Z</time>
      </trkpt>
      <trkpt lat="44.33259" lon="2.05527">
        <ele>509.3</ele>
        <time>2016-01-03T10:24:19Z</time>
      </trkpt>
      <trkpt lat="44.33261" lon="2.05533">
        <ele>509.7</ele>
        <time>2016-01-03T10:24:20Z</time>
      </trkpt>
      <trkpt lat="44.33269" lon="2.05543">
        <ele>510.7</ele>
        <time>2016-01-03T10:24:21Z</time>
      </trkpt>
      <trkpt lat="44.3327" lon="2.05547">
        <ele>511</ele>
        <time>2016-01-03T10:24:22Z</time>
      </trkpt>
      <trkpt lat="44.3327" lon="2.05551">
        <ele>511.2</ele>
        <time>2016-01-03T10:24:23Z</time>
      </trkpt>
      <trkpt lat="44.3327" lon="2.05557">
        <ele>511.5</ele>
        <time>2016-01-03T10:24:25Z</time>
      </trkpt>
      <trkpt lat="44.33268" lon="2.05562">
        <ele>511.7</ele>
        <time>2016-01-03T10:24:27Z</time>
      </trkpt>
      <trkpt lat="44.33267" lon="2.05566">
        <ele>511.8</ele>
        <time>2016-01-03T10:24:28Z</time>
      </trkpt>
      <trkpt lat="44.33266" lon="2.05571">
        <ele>512</ele>
        <time>2016-01-03T10:24:29Z</time>
      </trkpt>
      <trkpt lat="44.33266" lon="2.05575">
        <ele>512.2</ele>
        <time>2016-01-03T10:24:30Z</time>
      </trkpt>
      <trkpt lat="44.33265" lon="2.0558">
        <ele>512.4</ele>
        <time>2016-01-03T10:24:31Z</time>
      </trkpt>
      <trkpt lat="44.33265" lon="2.05589">
        <ele>512.9</ele>
        <time>2016-01-03T10:24:32Z</time>
      </trkpt>
      <trkpt lat="44.33264" lon="2.05594">
        <ele>513.1</ele>
        <time>2016-01-03T10:24:33Z</time>
      </trkpt>
      <trkpt lat="44.33262" lon="2.05598">
        <ele>513.1</ele>
        <time>2016-01-03T10:24:34Z</time>
      </trkpt>
      <trkpt lat="44.33262" lon="2.05603">
        <ele>513.3</ele>
        <time>2016-01-03T10:24:35Z</time>
      </trkpt>
      <trkpt lat="44.33261" lon="2.05609">
        <ele>513.6</ele>
        <time>2016-01-03T10:24:36Z</time>
      </trkpt>
      <trkpt lat="44.33262" lon="2.05614">
        <ele>513.9</ele>
        <time>2016-01-03T10:24:37Z</time>
      </trkpt>
      <trkpt lat="44.33261" lon="2.05618">
        <ele>514</ele>
        <time>2016-01-03T10:24:38Z</time>
      </trkpt>
      <trkpt lat="44.3326" lon="2.05623">
        <ele>514.2</ele>
        <time>2016-01-03T10:24:39Z</time>
      </trkpt>
      <trkpt lat="44.33259" lon="2.05627">
        <ele>514.3</ele>
        <time>2016-01-03T10:24:40Z</time>
      </trkpt>
      <trkpt lat="44.33256" lon="2.05632">
        <ele>514.2</ele>
        <time>2016-01-03T10:24:42Z</time>
      </trkpt>
      <trkpt lat="44.33255" lon="2.05636">
        <ele>514.2</ele>
        <time>2016-01-03T10:24:43Z</time>
      </trkpt>
      <trkpt lat="44.33255" lon="2.05642">
        <ele>514.2</ele>
        <time>2016-01-03T10:24:44Z</time>
      </trkpt>
      <trkpt lat="44.33254" lon="2.05647">
        <ele>514.2</ele>
        <time>2016-01-03T10:24:45Z</time>
      </trkpt>
      <trkpt lat="44.33252" lon="2.05653">
        <ele>514.2</ele>
        <time>2016-01-03T10:24:46Z</time>
      </trkpt>
      <trkpt lat="44.33251" lon="2.05657">
        <ele>514.2</ele>
        <time>2016-01-03T10:24:47Z</time>
      </trkpt>
      <trkpt lat="44.3325" lon="2.05662">
        <ele>514.1</ele>
        <time>2016-01-03T10:24:48Z</time>
      </trkpt>
      <trkpt lat="44.33247" lon="2.05667">
        <ele>514</ele>
        <time>2016-01-03T10:24:49Z</time>
      </trkpt>
      <trkpt lat="44.33246" lon="2.0567">
        <ele>513.9</ele>
        <time>2016-01-03T10:24:50Z</time>
      </trkpt>
      <trkpt lat="44.33244" lon="2.05674">
        <ele>513.8</ele>
        <time>2016-01-03T10:24:51Z</time>
      </trkpt>
      <trkpt lat="44.33243" lon="2.05677">
        <ele>513.7</ele>
        <time>2016-01-03T10:24:52Z</time>
      </trkpt>
      <trkpt lat="44.33239" lon="2.05684">
        <ele>513.6</ele>
        <time>2016-01-03T10:24:54Z</time>
      </trkpt>
      <trkpt lat="44.33238" lon="2.05687">
        <ele>513.5</ele>
        <time>2016-01-03T10:24:55Z</time>
      </trkpt>
      <trkpt lat="44.33237" lon="2.05691">
        <ele>513.4</ele>
        <time>2016-01-03T10:24:56Z</time>
      </trkpt>
      <trkpt lat="44.33236" lon="2.05695">
        <ele>513.4</ele>
        <time>2016-01-03T10:24:57Z</time>
      </trkpt>
      <trkpt lat="44.33233" lon="2.05702">
        <ele>513.2</ele>
        <time>2016-01-03T10:24:59Z</time>
      </trkpt>
      <trkpt lat="44.33231" lon="2.05706">
        <ele>513.2</ele>
        <time>2016-01-03T10:25:00Z</time>
      </trkpt>
      <trkpt lat="44.3323" lon="2.05712">
        <ele>513.1</ele>
        <time>2016-01-03T10:25:02Z</time>
      </trkpt>
      <trkpt lat="44.33229" lon="2.05718">
        <ele>513.1</ele>
        <time>2016-01-03T10:25:04Z</time>
      </trkpt>
      <trkpt lat="44.33228" lon="2.05724">
        <ele>513</ele>
        <time>2016-01-03T10:25:06Z</time>
      </trkpt>
      <trkpt lat="44.33227" lon="2.05729">
        <ele>513</ele>
        <time>2016-01-03T10:25:07Z</time>
      </trkpt>
      <trkpt lat="44.33227" lon="2.05735">
        <ele>513</ele>
        <time>2016-01-03T10:25:08Z</time>
      </trkpt>
      <trkpt lat="44.33225" lon="2.05743">
        <ele>512.9</ele>
        <time>2016-01-03T10:25:09Z</time>
      </trkpt>
      <trkpt lat="44.33223" lon="2.05747">
        <ele>512.8</ele>
        <time>2016-01-03T10:25:10Z</time>
      </trkpt>
      <trkpt lat="44.33222" lon="2.05743">
        <ele>512.6</ele>
        <time>2016-01-03T10:25:11Z</time>
      </trkpt>
      <trkpt lat="44.33224" lon="2.05751">
        <ele>512.9</ele>
        <time>2016-01-03T10:25:12Z</time>
      </trkpt>
      <trkpt lat="44.33225" lon="2.05755">
        <ele>513</ele>
        <time>2016-01-03T10:25:13Z</time>
      </trkpt>
      <trkpt lat="44.33224" lon="2.05758">
        <ele>513</ele>
        <time>2016-01-03T10:25:14Z</time>
      </trkpt>
      <trkpt lat="44.33221" lon="2.05764">
        <ele>512.7</ele>
        <time>2016-01-03T10:25:16Z</time>
      </trkpt>
      <trkpt lat="44.33218" lon="2.05768">
        <ele>512.6</ele>
        <time>2016-01-03T10:25:18Z</time>
      </trkpt>
      <trkpt lat="44.33216" lon="2.05773">
        <ele>512.4</ele>
        <time>2016-01-03T10:25:19Z</time>
      </trkpt>
      <trkpt lat="44.33218" lon="2.05778">
        <ele>512.7</ele>
        <time>2016-01-03T10:25:21Z</time>
      </trkpt>
      <trkpt lat="44.3322" lon="2.05782">
        <ele>512.8</ele>
        <time>2016-01-03T10:25:22Z</time>
      </trkpt>
      <trkpt lat="44.33219" lon="2.05788">
        <ele>512.8</ele>
        <time>2016-01-03T10:25:24Z</time>
      </trkpt>
      <trkpt lat="44.33217" lon="2.05792">
        <ele>512.7</ele>
        <time>2016-01-03T10:25:25Z</time>
      </trkpt>
      <trkpt lat="44.33215" lon="2.05797">
        <ele>512.8</ele>
        <time>2016-01-03T10:25:26Z</time>
      </trkpt>
      <trkpt lat="44.33214" lon="2.05802">
        <ele>512.8</ele>
        <time>2016-01-03T10:25:27Z</time>
      </trkpt>
      <trkpt lat="44.33213" lon="2.05807">
        <ele>512.9</ele>
        <time>2016-01-03T10:25:28Z</time>
      </trkpt>
      <trkpt lat="44.33211" lon="2.05812">
        <ele>513</ele>
        <time>2016-01-03T10:25:29Z</time>
      </trkpt>
      <trkpt lat="44.3321" lon="2.05818">
        <ele>513</ele>
        <time>2016-01-03T10:25:30Z</time>
      </trkpt>
      <trkpt lat="44.33209" lon="2.05824">
        <ele>513.2</ele>
        <time>2016-01-03T10:25:31Z</time>
      </trkpt>
      <trkpt lat="44.3321" lon="2.05829">
        <ele>513.5</ele>
        <time>2016-01-03T10:25:32Z</time>
      </trkpt>
      <trkpt lat="44.33209" lon="2.05834">
        <ele>513.6</ele>
        <time>2016-01-03T10:25:33Z</time>
      </trkpt>
      <trkpt lat="44.3321" lon="2.0584">
        <ele>513.8</ele>
        <time>2016-01-03T10:25:34Z</time>
      </trkpt>
      <trkpt lat="44.33209" lon="2.05847">
        <ele>514</ele>
        <time>2016-01-03T10:25:35Z</time>
      </trkpt>
      <trkpt lat="44.33209" lon="2.05852">
        <ele>514.2</ele>
        <time>2016-01-03T10:25:36Z</time>
      </trkpt>
      <trkpt lat="44.33208" lon="2.05856">
        <ele>514.3</ele>
        <time>2016-01-03T10:25:37Z</time>
      </trkpt>
      <trkpt lat="44.33208" lon="2.0586">
        <ele>514.4</ele>
        <time>2016-01-03T10:25:38Z</time>
      </trkpt>
      <trkpt lat="44.33208" lon="2.05864">
        <ele>514.6</ele>
        <time>2016-01-03T10:25:39Z</time>
      </trkpt>
      <trkpt lat="44.33208" lon="2.05869">
        <ele>514.8</ele>
        <time>2016-01-03T10:25:40Z</time>
      </trkpt>
      <trkpt lat="44.33208" lon="2.05873">
        <ele>514.8</ele>
        <time>2016-01-03T10:25:41Z</time>
      </trkpt>
      <trkpt lat="44.33206" lon="2.0588">
        <ele>514.4</ele>
        <time>2016-01-03T10:25:43Z</time>
      </trkpt>
      <trkpt lat="44.33205" lon="2.05885">
        <ele>514.2</ele>
        <time>2016-01-03T10:25:44Z</time>
      </trkpt>
      <trkpt lat="44.33206" lon="2.0589">
        <ele>514.2</ele>
        <time>2016-01-03T10:25:45Z</time>
      </trkpt>
      <trkpt lat="44.33206" lon="2.05896">
        <ele>514</ele>
        <time>2016-01-03T10:25:46Z</time>
      </trkpt>
      <trkpt lat="44.33205" lon="2.059">
        <ele>513.8</ele>
        <time>2016-01-03T10:25:47Z</time>
      </trkpt>
      <trkpt lat="44.33205" lon="2.05905">
        <ele>513.7</ele>
        <time>2016-01-03T10:25:48Z</time>
      </trkpt>
      <trkpt lat="44.33205" lon="2.0591">
        <ele>513.5</ele>
        <time>2016-01-03T10:25:49Z</time>
      </trkpt>
      <trkpt lat="44.33204" lon="2.05916">
        <ele>513.3</ele>
        <time>2016-01-03T10:25:50Z</time>
      </trkpt>
      <trkpt lat="44.33204" lon="2.05923">
        <ele>513</ele>
        <time>2016-01-03T10:25:51Z</time>
      </trkpt>
      <trkpt lat="44.33203" lon="2.0593">
        <ele>512.8</ele>
        <time>2016-01-03T10:25:52Z</time>
      </trkpt>
      <trkpt lat="44.33203" lon="2.05936">
        <ele>512.6</ele>
        <time>2016-01-03T10:25:53Z</time>
      </trkpt>
      <trkpt lat="44.33202" lon="2.05943">
        <ele>512.4</ele>
        <time>2016-01-03T10:25:54Z</time>
      </trkpt>
      <trkpt lat="44.332" lon="2.05948">
        <ele>511.9</ele>
        <time>2016-01-03T10:25:55Z</time>
      </trkpt>
      <trkpt lat="44.33197" lon="2.05952">
        <ele>511.3</ele>
        <time>2016-01-03T10:25:56Z</time>
      </trkpt>
      <trkpt lat="44.33193" lon="2.05957">
        <ele>510.6</ele>
        <time>2016-01-03T10:25:57Z</time>
      </trkpt>
      <trkpt lat="44.3319" lon="2.05964">
        <ele>510.1</ele>
        <time>2016-01-03T10:25:58Z</time>
      </trkpt>
      <trkpt lat="44.33188" lon="2.0597">
        <ele>509.5</ele>
        <time>2016-01-03T10:25:59Z</time>
      </trkpt>
      <trkpt lat="44.33191" lon="2.05981">
        <ele>509.8</ele>
        <time>2016-01-03T10:26:00Z</time>
      </trkpt>
      <trkpt lat="44.33191" lon="2.0599">
        <ele>509.7</ele>
        <time>2016-01-03T10:26:01Z</time>
      </trkpt>
      <trkpt lat="44.33191" lon="2.05998">
        <ele>509.5</ele>
        <time>2016-01-03T10:26:02Z</time>
      </trkpt>
      <trkpt lat="44.3319" lon="2.06006">
        <ele>509.3</ele>
        <time>2016-01-03T10:26:03Z</time>
      </trkpt>
      <trkpt lat="44.3319" lon="2.06014">
        <ele>509</ele>
        <time>2016-01-03T10:26:04Z</time>
      </trkpt>
      <trkpt lat="44.33189" lon="2.06022">
        <ele>508.8</ele>
        <time>2016-01-03T10:26:05Z</time>
      </trkpt>
      <trkpt lat="44.33191" lon="2.06031">
        <ele>508.9</ele>
        <time>2016-01-03T10:26:06Z</time>
      </trkpt>
      <trkpt lat="44.33193" lon="2.06041">
        <ele>509</ele>
        <time>2016-01-03T10:26:07Z</time>
      </trkpt>
      <trkpt lat="44.33196" lon="2.0605">
        <ele>509.1</ele>
        <time>2016-01-03T10:26:08Z</time>
      </trkpt>
      <trkpt lat="44.33207" lon="2.06064">
        <ele>510</ele>
        <time>2016-01-03T10:26:09Z</time>
      </trkpt>
      <trkpt lat="44.33212" lon="2.06074">
        <ele>510.1</ele>
        <time>2016-01-03T10:26:10Z</time>
      </trkpt>
      <trkpt lat="44.33212" lon="2.06082">
        <ele>509.9</ele>
        <time>2016-01-03T10:26:11Z</time>
      </trkpt>
      <trkpt lat="44.33213" lon="2.0609">
        <ele>509.7</ele>
        <time>2016-01-03T10:26:12Z</time>
      </trkpt>
      <trkpt lat="44.33213" lon="2.06098">
        <ele>509.5</ele>
        <time>2016-01-03T10:26:13Z</time>
      </trkpt>
      <trkpt lat="44.33213" lon="2.06104">
        <ele>509.2</ele>
        <time>2016-01-03T10:26:14Z</time>
      </trkpt>
      <trkpt lat="44.33213" lon="2.06112">
        <ele>508.9</ele>
        <time>2016-01-03T10:26:15Z</time>
      </trkpt>
      <trkpt lat="44.33212" lon="2.06119">
        <ele>508.7</ele>
        <time>2016-01-03T10:26:16Z</time>
      </trkpt>
      <trkpt lat="44.33213" lon="2.06125">
        <ele>508.5</ele>
        <time>2016-01-03T10:26:17Z</time>
      </trkpt>
      <trkpt lat="44.33212" lon="2.06131">
        <ele>508.5</ele>
        <time>2016-01-03T10:26:18Z</time>
      </trkpt>
      <trkpt lat="44.33211" lon="2.06137">
        <ele>508.4</ele>
        <time>2016-01-03T10:26:19Z</time>
      </trkpt>
      <trkpt lat="44.3321" lon="2.06143">
        <ele>508.4</ele>
        <time>2016-01-03T10:26:20Z</time>
      </trkpt>
      <trkpt lat="44.33209" lon="2.06149">
        <ele>508.3</ele>
        <time>2016-01-03T10:26:21Z</time>
      </trkpt>
      <trkpt lat="44.33207" lon="2.06154">
        <ele>508.1</ele>
        <time>2016-01-03T10:26:22Z</time>
      </trkpt>
      <trkpt lat="44.33205" lon="2.06159">
        <ele>507.9</ele>
        <time>2016-01-03T10:26:23Z</time>
      </trkpt>
      <trkpt lat="44.33202" lon="2.06165">
        <ele>507.6</ele>
        <time>2016-01-03T10:26:24Z</time>
      </trkpt>
      <trkpt lat="44.33201" lon="2.06169">
        <ele>507.3</ele>
        <time>2016-01-03T10:26:25Z</time>
      </trkpt>
      <trkpt lat="44.332" lon="2.06174">
        <ele>507.3</ele>
        <time>2016-01-03T10:26:26Z</time>
      </trkpt>
      <trkpt lat="44.33199" lon="2.06179">
        <ele>507.2</ele>
        <time>2016-01-03T10:26:27Z</time>
      </trkpt>
      <trkpt lat="44.33199" lon="2.06184">
        <ele>507.2</ele>
        <time>2016-01-03T10:26:28Z</time>
      </trkpt>
      <trkpt lat="44.33198" lon="2.0619">
        <ele>507.1</ele>
        <time>2016-01-03T10:26:29Z</time>
      </trkpt>
      <trkpt lat="44.33196" lon="2.06195">
        <ele>506.9</ele>
        <time>2016-01-03T10:26:30Z</time>
      </trkpt>
      <trkpt lat="44.33195" lon="2.06201">
        <ele>506.7</ele>
        <time>2016-01-03T10:26:31Z</time>
      </trkpt>
      <trkpt lat="44.33194" lon="2.06207">
        <ele>506.5</ele>
        <time>2016-01-03T10:26:32Z</time>
      </trkpt>
      <trkpt lat="44.33192" lon="2.06212">
        <ele>506.2</ele>
        <time>2016-01-03T10:26:33Z</time>
      </trkpt>
      <trkpt lat="44.33191" lon="2.06218">
        <ele>506.1</ele>
        <time>2016-01-03T10:26:34Z</time>
      </trkpt>
      <trkpt lat="44.33191" lon="2.06225">
        <ele>506.1</ele>
        <time>2016-01-03T10:26:35Z</time>
      </trkpt>
      <trkpt lat="44.3319" lon="2.06231">
        <ele>506</ele>
        <time>2016-01-03T10:26:36Z</time>
      </trkpt>
      <trkpt lat="44.33189" lon="2.06237">
        <ele>505.9</ele>
        <time>2016-01-03T10:26:37Z</time>
      </trkpt>
      <trkpt lat="44.33188" lon="2.06244">
        <ele>505.7</ele>
        <time>2016-01-03T10:26:38Z</time>
      </trkpt>
      <trkpt lat="44.33187" lon="2.06251">
        <ele>505.7</ele>
        <time>2016-01-03T10:26:39Z</time>
      </trkpt>
      <trkpt lat="44.33187" lon="2.06257">
        <ele>505.7</ele>
        <time>2016-01-03T10:26:40Z</time>
      </trkpt>
      <trkpt lat="44.33187" lon="2.06264">
        <ele>505.8</ele>
        <time>2016-01-03T10:26:41Z</time>
      </trkpt>
      <trkpt lat="44.33186" lon="2.0627">
        <ele>505.6</ele>
        <time>2016-01-03T10:26:42Z</time>
      </trkpt>
      <trkpt lat="44.33186" lon="2.06277">
        <ele>505.7</ele>
        <time>2016-01-03T10:26:43Z</time>
      </trkpt>
      <trkpt lat="44.33186" lon="2.06284">
        <ele>505.8</ele>
        <time>2016-01-03T10:26:44Z</time>
      </trkpt>
      <trkpt lat="44.33187" lon="2.06292">
        <ele>505.9</ele>
        <time>2016-01-03T10:26:45Z</time>
      </trkpt>
      <trkpt lat="44.33189" lon="2.06301">
        <ele>506.1</ele>
        <time>2016-01-03T10:26:46Z</time>
      </trkpt>
      <trkpt lat="44.33192" lon="2.06311">
        <ele>506.4</ele>
        <time>2016-01-03T10:26:47Z</time>
      </trkpt>
      <trkpt lat="44.33193" lon="2.06319">
        <ele>506.5</ele>
        <time>2016-01-03T10:26:48Z</time>
      </trkpt>
      <trkpt lat="44.33194" lon="2.06327">
        <ele>506.5</ele>
        <time>2016-01-03T10:26:49Z</time>
      </trkpt>
      <trkpt lat="44.33195" lon="2.06336">
        <ele>506.7</ele>
        <time>2016-01-03T10:26:50Z</time>
      </trkpt>
      <trkpt lat="44.33197" lon="2.06343">
        <ele>506.8</ele>
        <time>2016-01-03T10:26:51Z</time>
      </trkpt>
      <trkpt lat="44.33198" lon="2.0635">
        <ele>506.8</ele>
        <time>2016-01-03T10:26:52Z</time>
      </trkpt>
      <trkpt lat="44.33199" lon="2.06355">
        <ele>506.9</ele>
        <time>2016-01-03T10:26:53Z</time>
      </trkpt>
      <trkpt lat="44.332" lon="2.0636">
        <ele>507.1</ele>
        <time>2016-01-03T10:26:54Z</time>
      </trkpt>
      <trkpt lat="44.33202" lon="2.06364">
        <ele>507.3</ele>
        <time>2016-01-03T10:26:55Z</time>
      </trkpt>
      <trkpt lat="44.33205" lon="2.06368">
        <ele>507.7</ele>
        <time>2016-01-03T10:26:56Z</time>
      </trkpt>
      <trkpt lat="44.33208" lon="2.06371">
        <ele>508</ele>
        <time>2016-01-03T10:26:57Z</time>
      </trkpt>
      <trkpt lat="44.33212" lon="2.06373">
        <ele>508.3</ele>
        <time>2016-01-03T10:26:58Z</time>
      </trkpt>
      <trkpt lat="44.33216" lon="2.06376">
        <ele>508.5</ele>
        <time>2016-01-03T10:26:59Z</time>
      </trkpt>
      <trkpt lat="44.33222" lon="2.06378">
        <ele>508.8</ele>
        <time>2016-01-03T10:27:00Z</time>
      </trkpt>
      <trkpt lat="44.33224" lon="2.06381">
        <ele>508.8</ele>
        <time>2016-01-03T10:27:01Z</time>
      </trkpt>
      <trkpt lat="44.33225" lon="2.06385">
        <ele>508.5</ele>
        <time>2016-01-03T10:27:02Z</time>
      </trkpt>
      <trkpt lat="44.33226" lon="2.06391">
        <ele>508.3</ele>
        <time>2016-01-03T10:27:03Z</time>
      </trkpt>
      <trkpt lat="44.33228" lon="2.06396">
        <ele>508.1</ele>
        <time>2016-01-03T10:27:04Z</time>
      </trkpt>
      <trkpt lat="44.3323" lon="2.064">
        <ele>508</ele>
        <time>2016-01-03T10:27:05Z</time>
      </trkpt>
      <trkpt lat="44.33233" lon="2.06403">
        <ele>508</ele>
        <time>2016-01-03T10:27:07Z</time>
      </trkpt>
      <trkpt lat="44.33237" lon="2.06407">
        <ele>508</ele>
        <time>2016-01-03T10:27:09Z</time>
      </trkpt>
      <trkpt lat="44.33237" lon="2.06413">
        <ele>507.6</ele>
        <time>2016-01-03T10:27:11Z</time>
      </trkpt>
      <trkpt lat="44.33237" lon="2.06417">
        <ele>507.3</ele>
        <time>2016-01-03T10:27:12Z</time>
      </trkpt>
      <trkpt lat="44.33238" lon="2.06423">
        <ele>507.1</ele>
        <time>2016-01-03T10:27:13Z</time>
      </trkpt>
      <trkpt lat="44.33238" lon="2.06427">
        <ele>506.8</ele>
        <time>2016-01-03T10:27:14Z</time>
      </trkpt>
      <trkpt lat="44.33239" lon="2.06431">
        <ele>506.6</ele>
        <time>2016-01-03T10:27:15Z</time>
      </trkpt>
      <trkpt lat="44.33238" lon="2.06436">
        <ele>506.2</ele>
        <time>2016-01-03T10:27:16Z</time>
      </trkpt>
      <trkpt lat="44.33239" lon="2.06441">
        <ele>505.9</ele>
        <time>2016-01-03T10:27:17Z</time>
      </trkpt>
      <trkpt lat="44.33239" lon="2.06447">
        <ele>505.6</ele>
        <time>2016-01-03T10:27:18Z</time>
      </trkpt>
      <trkpt lat="44.33241" lon="2.06453">
        <ele>505.3</ele>
        <time>2016-01-03T10:27:19Z</time>
      </trkpt>
      <trkpt lat="44.33241" lon="2.06459">
        <ele>505</ele>
        <time>2016-01-03T10:27:20Z</time>
      </trkpt>
      <trkpt lat="44.33243" lon="2.06466">
        <ele>505.1</ele>
        <time>2016-01-03T10:27:21Z</time>
      </trkpt>
      <trkpt lat="44.33245" lon="2.06472">
        <ele>505.3</ele>
        <time>2016-01-03T10:27:22Z</time>
      </trkpt>
      <trkpt lat="44.33245" lon="2.06477">
        <ele>505.3</ele>
        <time>2016-01-03T10:27:23Z</time>
      </trkpt>
      <trkpt lat="44.33246" lon="2.06483">
        <ele>505.4</ele>
        <time>2016-01-03T10:27:24Z</time>
      </trkpt>
      <trkpt lat="44.33246" lon="2.06488">
        <ele>505.5</ele>
        <time>2016-01-03T10:27:25Z</time>
      </trkpt>
      <trkpt lat="44.33247" lon="2.06494">
        <ele>505.6</ele>
        <time>2016-01-03T10:27:26Z</time>
      </trkpt>
      <trkpt lat="44.33248" lon="2.06499">
        <ele>505.6</ele>
        <time>2016-01-03T10:27:27Z</time>
      </trkpt>
      <trkpt lat="44.33249" lon="2.06504">
        <ele>505.7</ele>
        <time>2016-01-03T10:27:28Z</time>
      </trkpt>
      <trkpt lat="44.33251" lon="2.06509">
        <ele>505.8</ele>
        <time>2016-01-03T10:27:29Z</time>
      </trkpt>
      <trkpt lat="44.33252" lon="2.06514">
        <ele>505.9</ele>
        <time>2016-01-03T10:27:30Z</time>
      </trkpt>
      <trkpt lat="44.33254" lon="2.06519">
        <ele>506</ele>
        <time>2016-01-03T10:27:31Z</time>
      </trkpt>
      <trkpt lat="44.33255" lon="2.06524">
        <ele>506.2</ele>
        <time>2016-01-03T10:27:32Z</time>
      </trkpt>
      <trkpt lat="44.33256" lon="2.06529">
        <ele>506.2</ele>
        <time>2016-01-03T10:27:33Z</time>
      </trkpt>
      <trkpt lat="44.33258" lon="2.06534">
        <ele>506.3</ele>
        <time>2016-01-03T10:27:34Z</time>
      </trkpt>
      <trkpt lat="44.33259" lon="2.06538">
        <ele>506.4</ele>
        <time>2016-01-03T10:27:35Z</time>
      </trkpt>
      <trkpt lat="44.3326" lon="2.06542">
        <ele>506.5</ele>
        <time>2016-01-03T10:27:36Z</time>
      </trkpt>
      <trkpt lat="44.33261" lon="2.06546">
        <ele>506.5</ele>
        <time>2016-01-03T10:27:37Z</time>
      </trkpt>
      <trkpt lat="44.33263" lon="2.06551">
        <ele>506.6</ele>
        <time>2016-01-03T10:27:38Z</time>
      </trkpt>
      <trkpt lat="44.33265" lon="2.06555">
        <ele>506.7</ele>
        <time>2016-01-03T10:27:39Z</time>
      </trkpt>
      <trkpt lat="44.33266" lon="2.0656">
        <ele>506.8</ele>
        <time>2016-01-03T10:27:40Z</time>
      </trkpt>
      <trkpt lat="44.33268" lon="2.06565">
        <ele>506.8</ele>
        <time>2016-01-03T10:27:41Z</time>
      </trkpt>
      <trkpt lat="44.33269" lon="2.06569">
        <ele>506.9</ele>
        <time>2016-01-03T10:27:42Z</time>
      </trkpt>
      <trkpt lat="44.33271" lon="2.06574">
        <ele>507</ele>
        <time>2016-01-03T10:27:43Z</time>
      </trkpt>
      <trkpt lat="44.33273" lon="2.06579">
        <ele>507.1</ele>
        <time>2016-01-03T10:27:44Z</time>
      </trkpt>
      <trkpt lat="44.33271" lon="2.06585">
        <ele>507</ele>
        <time>2016-01-03T10:27:45Z</time>
      </trkpt>
      <trkpt lat="44.3327" lon="2.06589">
        <ele>507</ele>
        <time>2016-01-03T10:27:46Z</time>
      </trkpt>
      <trkpt lat="44.33269" lon="2.06594">
        <ele>506.9</ele>
        <time>2016-01-03T10:27:47Z</time>
      </trkpt>
      <trkpt lat="44.3327" lon="2.06598">
        <ele>506.9</ele>
        <time>2016-01-03T10:27:48Z</time>
      </trkpt>
      <trkpt lat="44.3327" lon="2.06603">
        <ele>507</ele>
        <time>2016-01-03T10:27:49Z</time>
      </trkpt>
      <trkpt lat="44.33273" lon="2.06607">
        <ele>507.1</ele>
        <time>2016-01-03T10:27:50Z</time>
      </trkpt>
      <trkpt lat="44.33276" lon="2.06612">
        <ele>507.2</ele>
        <time>2016-01-03T10:27:51Z</time>
      </trkpt>
      <trkpt lat="44.33279" lon="2.06617">
        <ele>507.4</ele>
        <time>2016-01-03T10:27:52Z</time>
      </trkpt>
      <trkpt lat="44.33281" lon="2.06622">
        <ele>507.5</ele>
        <time>2016-01-03T10:27:53Z</time>
      </trkpt>
      <trkpt lat="44.33283" lon="2.06626">
        <ele>507.6</ele>
        <time>2016-01-03T10:27:54Z</time>
      </trkpt>
      <trkpt lat="44.33285" lon="2.0663">
        <ele>507.7</ele>
        <time>2016-01-03T10:27:55Z</time>
      </trkpt>
      <trkpt lat="44.33289" lon="2.06633">
        <ele>507.9</ele>
        <time>2016-01-03T10:27:56Z</time>
      </trkpt>
      <trkpt lat="44.33292" lon="2.06636">
        <ele>508.1</ele>
        <time>2016-01-03T10:27:57Z</time>
      </trkpt>
      <trkpt lat="44.33295" lon="2.06639">
        <ele>508.2</ele>
        <time>2016-01-03T10:27:58Z</time>
      </trkpt>
      <trkpt lat="44.33298" lon="2.06642">
        <ele>508.3</ele>
        <time>2016-01-03T10:27:59Z</time>
      </trkpt>
      <trkpt lat="44.33301" lon="2.06646">
        <ele>508.5</ele>
        <time>2016-01-03T10:28:00Z</time>
      </trkpt>
      <trkpt lat="44.33303" lon="2.0665">
        <ele>508.6</ele>
        <time>2016-01-03T10:28:01Z</time>
      </trkpt>
      <trkpt lat="44.33306" lon="2.06653">
        <ele>508.8</ele>
        <time>2016-01-03T10:28:02Z</time>
      </trkpt>
      <trkpt lat="44.33308" lon="2.06657">
        <ele>509</ele>
        <time>2016-01-03T10:28:03Z</time>
      </trkpt>
      <trkpt lat="44.3331" lon="2.06659">
        <ele>509.1</ele>
        <time>2016-01-03T10:28:04Z</time>
      </trkpt>
      <trkpt lat="44.33313" lon="2.06662">
        <ele>509.4</ele>
        <time>2016-01-03T10:28:05Z</time>
      </trkpt>
      <trkpt lat="44.33316" lon="2.06665">
        <ele>509.6</ele>
        <time>2016-01-03T10:28:06Z</time>
      </trkpt>
      <trkpt lat="44.33319" lon="2.06668">
        <ele>509.9</ele>
        <time>2016-01-03T10:28:07Z</time>
      </trkpt>
      <trkpt lat="44.33322" lon="2.0667">
        <ele>510.1</ele>
        <time>2016-01-03T10:28:08Z</time>
      </trkpt>
      <trkpt lat="44.33326" lon="2.06672">
        <ele>510.4</ele>
        <time>2016-01-03T10:28:10Z</time>
      </trkpt>
      <trkpt lat="44.33331" lon="2.06674">
        <ele>510.8</ele>
        <time>2016-01-03T10:28:12Z</time>
      </trkpt>
      <trkpt lat="44.33335" lon="2.06676">
        <ele>511.1</ele>
        <time>2016-01-03T10:28:14Z</time>
      </trkpt>
      <trkpt lat="44.33337" lon="2.06679">
        <ele>511.4</ele>
        <time>2016-01-03T10:28:16Z</time>
      </trkpt>
      <trkpt lat="44.33332" lon="2.06687">
        <ele>511.6</ele>
        <time>2016-01-03T10:29:32Z</time>
      </trkpt>
      <trkpt lat="44.33328" lon="2.06689">
        <ele>511.4</ele>
        <time>2016-01-03T10:30:35Z</time>
      </trkpt>
      <trkpt lat="44.33332" lon="2.06685">
        <ele>511.5</ele>
        <time>2016-01-03T10:30:53Z</time>
      </trkpt>
      <trkpt lat="44.33336" lon="2.06683">
        <ele>511.7</ele>
        <time>2016-01-03T10:30:55Z</time>
      </trkpt>
      <trkpt lat="44.33339" lon="2.0668">
        <ele>511.6</ele>
        <time>2016-01-03T10:30:57Z</time>
      </trkpt>
      <trkpt lat="44.33343" lon="2.06674">
        <ele>511.5</ele>
        <time>2016-01-03T10:30:59Z</time>
      </trkpt>
      <trkpt lat="44.33346" lon="2.06669">
        <ele>511.3</ele>
        <time>2016-01-03T10:31:01Z</time>
      </trkpt>
      <trkpt lat="44.33348" lon="2.06667">
        <ele>511.2</ele>
        <time>2016-01-03T10:31:03Z</time>
      </trkpt>
      <trkpt lat="44.33352" lon="2.06666">
        <ele>511.3</ele>
        <time>2016-01-03T10:31:05Z</time>
      </trkpt>
      <trkpt lat="44.33364" lon="2.06658">
        <ele>511.2</ele>
        <time>2016-01-03T10:31:20Z</time>
      </trkpt>
      <trkpt lat="44.33366" lon="2.06655">
        <ele>510.9</ele>
        <time>2016-01-03T10:31:21Z</time>
      </trkpt>
      <trkpt lat="44.33374" lon="2.06652">
        <ele>510.9</ele>
        <time>2016-01-03T10:31:23Z</time>
      </trkpt>
      <trkpt lat="44.33378" lon="2.0665">
        <ele>510.6</ele>
        <time>2016-01-03T10:31:24Z</time>
      </trkpt>
      <trkpt lat="44.33383" lon="2.06646">
        <ele>509.8</ele>
        <time>2016-01-03T10:31:26Z</time>
      </trkpt>
      <trkpt lat="44.33388" lon="2.06643">
        <ele>509.1</ele>
        <time>2016-01-03T10:31:27Z</time>
      </trkpt>
      <trkpt lat="44.33392" lon="2.0664">
        <ele>508.6</ele>
        <time>2016-01-03T10:31:28Z</time>
      </trkpt>
      <trkpt lat="44.33396" lon="2.06638">
        <ele>508.1</ele>
        <time>2016-01-03T10:31:29Z</time>
      </trkpt>
      <trkpt lat="44.33401" lon="2.06635">
        <ele>507.5</ele>
        <time>2016-01-03T10:31:30Z</time>
      </trkpt>
      <trkpt lat="44.33404" lon="2.06632">
        <ele>507</ele>
        <time>2016-01-03T10:31:31Z</time>
      </trkpt>
      <trkpt lat="44.33407" lon="2.0663">
        <ele>506.6</ele>
        <time>2016-01-03T10:31:32Z</time>
      </trkpt>
      <trkpt lat="44.33409" lon="2.06627">
        <ele>506.2</ele>
        <time>2016-01-03T10:31:33Z</time>
      </trkpt>
      <trkpt lat="44.33412" lon="2.06625">
        <ele>505.7</ele>
        <time>2016-01-03T10:31:34Z</time>
      </trkpt>
      <trkpt lat="44.33416" lon="2.06622">
        <ele>505.1</ele>
        <time>2016-01-03T10:31:35Z</time>
      </trkpt>
      <trkpt lat="44.3342" lon="2.06619">
        <ele>504.5</ele>
        <time>2016-01-03T10:31:36Z</time>
      </trkpt>
      <trkpt lat="44.33422" lon="2.06617">
        <ele>504.1</ele>
        <time>2016-01-03T10:31:37Z</time>
      </trkpt>
      <trkpt lat="44.33426" lon="2.06615">
        <ele>503.6</ele>
        <time>2016-01-03T10:31:38Z</time>
      </trkpt>
      <trkpt lat="44.3343" lon="2.06612">
        <ele>503</ele>
        <time>2016-01-03T10:31:39Z</time>
      </trkpt>
      <trkpt lat="44.33433" lon="2.0661">
        <ele>502.5</ele>
        <time>2016-01-03T10:31:40Z</time>
      </trkpt>
      <trkpt lat="44.33435" lon="2.06607">
        <ele>502</ele>
        <time>2016-01-03T10:31:41Z</time>
      </trkpt>
      <trkpt lat="44.33435" lon="2.06602">
        <ele>501.2</ele>
        <time>2016-01-03T10:31:42Z</time>
      </trkpt>
      <trkpt lat="44.33437" lon="2.06592">
        <ele>499.7</ele>
        <time>2016-01-03T10:31:43Z</time>
      </trkpt>
      <trkpt lat="44.33437" lon="2.06585">
        <ele>498.8</ele>
        <time>2016-01-03T10:31:44Z</time>
      </trkpt>
      <trkpt lat="44.3344" lon="2.06575">
        <ele>497.1</ele>
        <time>2016-01-03T10:31:45Z</time>
      </trkpt>
      <trkpt lat="44.3344" lon="2.06566">
        <ele>495.9</ele>
        <time>2016-01-03T10:31:46Z</time>
      </trkpt>
      <trkpt lat="44.3344" lon="2.06559">
        <ele>494.9</ele>
        <time>2016-01-03T10:31:47Z</time>
      </trkpt>
      <trkpt lat="44.3344" lon="2.06553">
        <ele>494.1</ele>
        <time>2016-01-03T10:31:48Z</time>
      </trkpt>
      <trkpt lat="44.33439" lon="2.06548">
        <ele>493.4</ele>
        <time>2016-01-03T10:31:49Z</time>
      </trkpt>
      <trkpt lat="44.33437" lon="2.06541">
        <ele>492.7</ele>
        <time>2016-01-03T10:31:50Z</time>
      </trkpt>
      <trkpt lat="44.33437" lon="2.06535">
        <ele>492.2</ele>
        <time>2016-01-03T10:31:51Z</time>
      </trkpt>
      <trkpt lat="44.33435" lon="2.0653">
        <ele>492</ele>
        <time>2016-01-03T10:31:52Z</time>
      </trkpt>
      <trkpt lat="44.33433" lon="2.06526">
        <ele>491.9</ele>
        <time>2016-01-03T10:31:53Z</time>
      </trkpt>
      <trkpt lat="44.3343" lon="2.0652">
        <ele>491.7</ele>
        <time>2016-01-03T10:31:55Z</time>
      </trkpt>
      <trkpt lat="44.33429" lon="2.06514">
        <ele>491.3</ele>
        <time>2016-01-03T10:31:58Z</time>
      </trkpt>
      <trkpt lat="44.33428" lon="2.0651">
        <ele>491.2</ele>
        <time>2016-01-03T10:32:00Z</time>
      </trkpt>
      <trkpt lat="44.3343" lon="2.06507">
        <ele>490.7</ele>
        <time>2016-01-03T10:32:02Z</time>
      </trkpt>
      <trkpt lat="44.33429" lon="2.065">
        <ele>490.2</ele>
        <time>2016-01-03T10:32:07Z</time>
      </trkpt>
      <trkpt lat="44.33427" lon="2.06496">
        <ele>490.2</ele>
        <time>2016-01-03T10:32:09Z</time>
      </trkpt>
      <trkpt lat="44.33426" lon="2.06491">
        <ele>490</ele>
        <time>2016-01-03T10:32:15Z</time>
      </trkpt>
      <trkpt lat="44.33427" lon="2.06486">
        <ele>489.4</ele>
        <time>2016-01-03T10:32:18Z</time>
      </trkpt>
      <trkpt lat="44.33427" lon="2.06481">
        <ele>489</ele>
        <time>2016-01-03T10:32:20Z</time>
      </trkpt>
      <trkpt lat="44.33428" lon="2.06476">
        <ele>488.5</ele>
        <time>2016-01-03T10:32:21Z</time>
      </trkpt>
      <trkpt lat="44.33429" lon="2.06471">
        <ele>487.9</ele>
        <time>2016-01-03T10:32:22Z</time>
      </trkpt>
      <trkpt lat="44.33432" lon="2.06468">
        <ele>487.2</ele>
        <time>2016-01-03T10:32:23Z</time>
      </trkpt>
      <trkpt lat="44.33434" lon="2.06463">
        <ele>486.5</ele>
        <time>2016-01-03T10:32:24Z</time>
      </trkpt>
      <trkpt lat="44.33436" lon="2.06457">
        <ele>485.6</ele>
        <time>2016-01-03T10:32:25Z</time>
      </trkpt>
      <trkpt lat="44.33438" lon="2.06453">
        <ele>485.3</ele>
        <time>2016-01-03T10:32:26Z</time>
      </trkpt>
      <trkpt lat="44.3344" lon="2.06449">
        <ele>485.2</ele>
        <time>2016-01-03T10:32:27Z</time>
      </trkpt>
      <trkpt lat="44.33441" lon="2.06443">
        <ele>485.1</ele>
        <time>2016-01-03T10:32:29Z</time>
      </trkpt>
      <trkpt lat="44.33442" lon="2.06437">
        <ele>485.1</ele>
        <time>2016-01-03T10:32:31Z</time>
      </trkpt>
      <trkpt lat="44.33442" lon="2.06432">
        <ele>485.3</ele>
        <time>2016-01-03T10:32:32Z</time>
      </trkpt>
      <trkpt lat="44.33443" lon="2.06428">
        <ele>485.3</ele>
        <time>2016-01-03T10:32:33Z</time>
      </trkpt>
      <trkpt lat="44.33444" lon="2.06423">
        <ele>485.1</ele>
        <time>2016-01-03T10:32:34Z</time>
      </trkpt>
      <trkpt lat="44.33444" lon="2.06416">
        <ele>485.3</ele>
        <time>2016-01-03T10:32:36Z</time>
      </trkpt>
      <trkpt lat="44.33444" lon="2.06411">
        <ele>485.7</ele>
        <time>2016-01-03T10:32:37Z</time>
      </trkpt>
      <trkpt lat="44.33445" lon="2.06408">
        <ele>485.5</ele>
        <time>2016-01-03T10:32:39Z</time>
      </trkpt>
      <trkpt lat="44.33448" lon="2.06406">
        <ele>484.8</ele>
        <time>2016-01-03T10:32:41Z</time>
      </trkpt>
      <trkpt lat="44.3345" lon="2.06403">
        <ele>484.3</ele>
        <time>2016-01-03T10:32:42Z</time>
      </trkpt>
      <trkpt lat="44.33452" lon="2.06399">
        <ele>484.1</ele>
        <time>2016-01-03T10:32:43Z</time>
      </trkpt>
      <trkpt lat="44.33453" lon="2.06395">
        <ele>484</ele>
        <time>2016-01-03T10:32:44Z</time>
      </trkpt>
      <trkpt lat="44.33454" lon="2.06391">
        <ele>483.8</ele>
        <time>2016-01-03T10:32:45Z</time>
      </trkpt>
      <trkpt lat="44.33455" lon="2.06387">
        <ele>483.5</ele>
        <time>2016-01-03T10:32:46Z</time>
      </trkpt>
      <trkpt lat="44.33457" lon="2.06383">
        <ele>483.1</ele>
        <time>2016-01-03T10:32:47Z</time>
      </trkpt>
      <trkpt lat="44.33459" lon="2.0638">
        <ele>482.7</ele>
        <time>2016-01-03T10:32:48Z</time>
      </trkpt>
      <trkpt lat="44.33461" lon="2.06377">
        <ele>482.4</ele>
        <time>2016-01-03T10:32:49Z</time>
      </trkpt>
      <trkpt lat="44.33463" lon="2.06374">
        <ele>482.2</ele>
        <time>2016-01-03T10:32:50Z</time>
      </trkpt>
      <trkpt lat="44.33468" lon="2.06369">
        <ele>481.6</ele>
        <time>2016-01-03T10:32:52Z</time>
      </trkpt>
      <trkpt lat="44.3347" lon="2.06365">
        <ele>481.4</ele>
        <time>2016-01-03T10:32:53Z</time>
      </trkpt>
      <trkpt lat="44.33471" lon="2.06358">
        <ele>481.6</ele>
        <time>2016-01-03T10:32:54Z</time>
      </trkpt>
      <trkpt lat="44.3347" lon="2.0635">
        <ele>482.5</ele>
        <time>2016-01-03T10:32:55Z</time>
      </trkpt>
      <trkpt lat="44.33469" lon="2.06346">
        <ele>483</ele>
        <time>2016-01-03T10:32:56Z</time>
      </trkpt>
      <trkpt lat="44.33474" lon="2.0634">
        <ele>482</ele>
        <time>2016-01-03T10:32:57Z</time>
      </trkpt>
      <trkpt lat="44.33473" lon="2.06335">
        <ele>482.5</ele>
        <time>2016-01-03T10:32:58Z</time>
      </trkpt>
      <trkpt lat="44.33474" lon="2.06331">
        <ele>482.6</ele>
        <time>2016-01-03T10:33:00Z</time>
      </trkpt>
      <trkpt lat="44.33475" lon="2.06326">
        <ele>482.6</ele>
        <time>2016-01-03T10:33:03Z</time>
      </trkpt>
      <trkpt lat="44.33476" lon="2.06321">
        <ele>482.6</ele>
        <time>2016-01-03T10:33:06Z</time>
      </trkpt>
      <trkpt lat="44.33476" lon="2.06317">
        <ele>482.7</ele>
        <time>2016-01-03T10:33:08Z</time>
      </trkpt>
      <trkpt lat="44.33478" lon="2.06312">
        <ele>482.4</ele>
        <time>2016-01-03T10:33:10Z</time>
      </trkpt>
      <trkpt lat="44.33478" lon="2.06308">
        <ele>482.5</ele>
        <time>2016-01-03T10:33:13Z</time>
      </trkpt>
      <trkpt lat="44.3348" lon="2.06303">
        <ele>482.1</ele>
        <time>2016-01-03T10:33:16Z</time>
      </trkpt>
      <trkpt lat="44.33482" lon="2.06299">
        <ele>481.7</ele>
        <time>2016-01-03T10:33:17Z</time>
      </trkpt>
      <trkpt lat="44.33484" lon="2.06294">
        <ele>481.1</ele>
        <time>2016-01-03T10:33:18Z</time>
      </trkpt>
      <trkpt lat="44.33486" lon="2.06287">
        <ele>480.7</ele>
        <time>2016-01-03T10:33:19Z</time>
      </trkpt>
      <trkpt lat="44.33488" lon="2.06279">
        <ele>480</ele>
        <time>2016-01-03T10:33:20Z</time>
      </trkpt>
      <trkpt lat="44.33493" lon="2.06272">
        <ele>478.5</ele>
        <time>2016-01-03T10:33:21Z</time>
      </trkpt>
      <trkpt lat="44.33498" lon="2.06266">
        <ele>476.8</ele>
        <time>2016-01-03T10:33:22Z</time>
      </trkpt>
      <trkpt lat="44.33501" lon="2.06259">
        <ele>475.9</ele>
        <time>2016-01-03T10:33:23Z</time>
      </trkpt>
      <trkpt lat="44.33509" lon="2.06256">
        <ele>473</ele>
        <time>2016-01-03T10:33:24Z</time>
      </trkpt>
      <trkpt lat="44.33517" lon="2.06252">
        <ele>470.2</ele>
        <time>2016-01-03T10:33:25Z</time>
      </trkpt>
      <trkpt lat="44.33525" lon="2.06244">
        <ele>467.6</ele>
        <time>2016-01-03T10:33:26Z</time>
      </trkpt>
      <trkpt lat="44.3353" lon="2.06239">
        <ele>465.8</ele>
        <time>2016-01-03T10:33:27Z</time>
      </trkpt>
      <trkpt lat="44.33536" lon="2.06232">
        <ele>464</ele>
        <time>2016-01-03T10:33:28Z</time>
      </trkpt>
      <trkpt lat="44.33541" lon="2.06224">
        <ele>462.4</ele>
        <time>2016-01-03T10:33:29Z</time>
      </trkpt>
      <trkpt lat="44.33545" lon="2.06217">
        <ele>461.7</ele>
        <time>2016-01-03T10:33:30Z</time>
      </trkpt>
      <trkpt lat="44.33551" lon="2.0621">
        <ele>460.2</ele>
        <time>2016-01-03T10:33:31Z</time>
      </trkpt>
      <trkpt lat="44.33557" lon="2.06205">
        <ele>458.8</ele>
        <time>2016-01-03T10:33:32Z</time>
      </trkpt>
      <trkpt lat="44.33563" lon="2.06201">
        <ele>457.4</ele>
        <time>2016-01-03T10:33:33Z</time>
      </trkpt>
      <trkpt lat="44.33569" lon="2.06197">
        <ele>456.1</ele>
        <time>2016-01-03T10:33:34Z</time>
      </trkpt>
      <trkpt lat="44.33575" lon="2.06195">
        <ele>454.5</ele>
        <time>2016-01-03T10:33:35Z</time>
      </trkpt>
      <trkpt lat="44.3358" lon="2.06193">
        <ele>453</ele>
        <time>2016-01-03T10:33:36Z</time>
      </trkpt>
      <trkpt lat="44.33582" lon="2.0619">
        <ele>452.7</ele>
        <time>2016-01-03T10:33:37Z</time>
      </trkpt>
      <trkpt lat="44.33586" lon="2.06184">
        <ele>451.9</ele>
        <time>2016-01-03T10:33:38Z</time>
      </trkpt>
      <trkpt lat="44.33588" lon="2.06179">
        <ele>451.7</ele>
        <time>2016-01-03T10:33:39Z</time>
      </trkpt>
      <trkpt lat="44.33592" lon="2.06173">
        <ele>451</ele>
        <time>2016-01-03T10:33:40Z</time>
      </trkpt>
      <trkpt lat="44.33596" lon="2.06166">
        <ele>450.4</ele>
        <time>2016-01-03T10:33:41Z</time>
      </trkpt>
      <trkpt lat="44.336" lon="2.06159">
        <ele>449.4</ele>
        <time>2016-01-03T10:33:42Z</time>
      </trkpt>
      <trkpt lat="44.33605" lon="2.06151">
        <ele>448.6</ele>
        <time>2016-01-03T10:33:43Z</time>
      </trkpt>
      <trkpt lat="44.33609" lon="2.06144">
        <ele>447.7</ele>
        <time>2016-01-03T10:33:44Z</time>
      </trkpt>
      <trkpt lat="44.33616" lon="2.06137">
        <ele>446.1</ele>
        <time>2016-01-03T10:33:45Z</time>
      </trkpt>
      <trkpt lat="44.33621" lon="2.06129">
        <ele>444.9</ele>
        <time>2016-01-03T10:33:46Z</time>
      </trkpt>
      <trkpt lat="44.33625" lon="2.06127">
        <ele>444</ele>
        <time>2016-01-03T10:33:47Z</time>
      </trkpt>
      <trkpt lat="44.33628" lon="2.06126">
        <ele>443</ele>
        <time>2016-01-03T10:33:48Z</time>
      </trkpt>
      <trkpt lat="44.3363" lon="2.0612">
        <ele>442.3</ele>
        <time>2016-01-03T10:33:49Z</time>
      </trkpt>
      <trkpt lat="44.33631" lon="2.06117">
        <ele>441.9</ele>
        <time>2016-01-03T10:33:50Z</time>
      </trkpt>
      <trkpt lat="44.33631" lon="2.06122">
        <ele>441.8</ele>
        <time>2016-01-03T10:33:52Z</time>
      </trkpt>
      <trkpt lat="44.33628" lon="2.06128">
        <ele>442.9</ele>
        <time>2016-01-03T10:33:54Z</time>
      </trkpt>
      <trkpt lat="44.33624" lon="2.06126">
        <ele>444.2</ele>
        <time>2016-01-03T10:33:55Z</time>
      </trkpt>
      <trkpt lat="44.33624" lon="2.06131">
        <ele>443.9</ele>
        <time>2016-01-03T10:33:56Z</time>
      </trkpt>
      <trkpt lat="44.33626" lon="2.06136">
        <ele>443</ele>
        <time>2016-01-03T10:33:57Z</time>
      </trkpt>
      <trkpt lat="44.33632" lon="2.06136">
        <ele>441.1</ele>
        <time>2016-01-03T10:33:59Z</time>
      </trkpt>
      <trkpt lat="44.33635" lon="2.06132">
        <ele>440</ele>
        <time>2016-01-03T10:34:00Z</time>
      </trkpt>
      <trkpt lat="44.33639" lon="2.06129">
        <ele>439</ele>
        <time>2016-01-03T10:34:01Z</time>
      </trkpt>
      <trkpt lat="44.33642" lon="2.06126">
        <ele>437.8</ele>
        <time>2016-01-03T10:34:02Z</time>
      </trkpt>
      <trkpt lat="44.33648" lon="2.06124">
        <ele>435.8</ele>
        <time>2016-01-03T10:34:03Z</time>
      </trkpt>
      <trkpt lat="44.33653" lon="2.06117">
        <ele>433.7</ele>
        <time>2016-01-03T10:34:04Z</time>
      </trkpt>
      <trkpt lat="44.33658" lon="2.06111">
        <ele>431.9</ele>
        <time>2016-01-03T10:34:05Z</time>
      </trkpt>
      <trkpt lat="44.33662" lon="2.06105">
        <ele>430.5</ele>
        <time>2016-01-03T10:34:06Z</time>
      </trkpt>
      <trkpt lat="44.33665" lon="2.06099">
        <ele>429.4</ele>
        <time>2016-01-03T10:34:07Z</time>
      </trkpt>
      <trkpt lat="44.33667" lon="2.06091">
        <ele>428.5</ele>
        <time>2016-01-03T10:34:08Z</time>
      </trkpt>
      <trkpt lat="44.33671" lon="2.06083">
        <ele>427.1</ele>
        <time>2016-01-03T10:34:09Z</time>
      </trkpt>
      <trkpt lat="44.33674" lon="2.06076">
        <ele>425.6</ele>
        <time>2016-01-03T10:34:10Z</time>
      </trkpt>
      <trkpt lat="44.33677" lon="2.0607">
        <ele>424.3</ele>
        <time>2016-01-03T10:34:11Z</time>
      </trkpt>
      <trkpt lat="44.33679" lon="2.06065">
        <ele>423.7</ele>
        <time>2016-01-03T10:34:12Z</time>
      </trkpt>
      <trkpt lat="44.33682" lon="2.06054">
        <ele>422.2</ele>
        <time>2016-01-03T10:34:13Z</time>
      </trkpt>
      <trkpt lat="44.33683" lon="2.06046">
        <ele>421.8</ele>
        <time>2016-01-03T10:34:14Z</time>
      </trkpt>
      <trkpt lat="44.33685" lon="2.0604">
        <ele>421</ele>
        <time>2016-01-03T10:34:15Z</time>
      </trkpt>
      <trkpt lat="44.33687" lon="2.06034">
        <ele>420</ele>
        <time>2016-01-03T10:34:16Z</time>
      </trkpt>
      <trkpt lat="44.33691" lon="2.06029">
        <ele>418.7</ele>
        <time>2016-01-03T10:34:17Z</time>
      </trkpt>
      <trkpt lat="44.33693" lon="2.06024">
        <ele>417.8</ele>
        <time>2016-01-03T10:34:18Z</time>
      </trkpt>
      <trkpt lat="44.33694" lon="2.06021">
        <ele>417.3</ele>
        <time>2016-01-03T10:34:19Z</time>
      </trkpt>
      <trkpt lat="44.33689" lon="2.06013">
        <ele>419.1</ele>
        <time>2016-01-03T10:34:20Z</time>
      </trkpt>
      <trkpt lat="44.33691" lon="2.06008">
        <ele>418.6</ele>
        <time>2016-01-03T10:34:22Z</time>
      </trkpt>
      <trkpt lat="44.33689" lon="2.06005">
        <ele>419.1</ele>
        <time>2016-01-03T10:34:23Z</time>
      </trkpt>
      <trkpt lat="44.33686" lon="2.06002">
        <ele>420.2</ele>
        <time>2016-01-03T10:34:24Z</time>
      </trkpt>
      <trkpt lat="44.33682" lon="2.05998">
        <ele>421.6</ele>
        <time>2016-01-03T10:34:25Z</time>
      </trkpt>
      <trkpt lat="44.33674" lon="2.05993">
        <ele>424</ele>
        <time>2016-01-03T10:34:26Z</time>
      </trkpt>
      <trkpt lat="44.3367" lon="2.05988">
        <ele>425.2</ele>
        <time>2016-01-03T10:34:27Z</time>
      </trkpt>
      <trkpt lat="44.33667" lon="2.05986">
        <ele>426.1</ele>
        <time>2016-01-03T10:34:28Z</time>
      </trkpt>
      <trkpt lat="44.33664" lon="2.05982">
        <ele>427</ele>
        <time>2016-01-03T10:34:29Z</time>
      </trkpt>
      <trkpt lat="44.33662" lon="2.05979">
        <ele>427.6</ele>
        <time>2016-01-03T10:34:30Z</time>
      </trkpt>
      <trkpt lat="44.33659" lon="2.05975">
        <ele>428.4</ele>
        <time>2016-01-03T10:34:31Z</time>
      </trkpt>
      <trkpt lat="44.33655" lon="2.05971">
        <ele>429.6</ele>
        <time>2016-01-03T10:34:32Z</time>
      </trkpt>
      <trkpt lat="44.33653" lon="2.05966">
        <ele>429.9</ele>
        <time>2016-01-03T10:34:34Z</time>
      </trkpt>
      <trkpt lat="44.33655" lon="2.05949">
        <ele>430.4</ele>
        <time>2016-01-03T10:34:41Z</time>
      </trkpt>
      <trkpt lat="44.33657" lon="2.05945">
        <ele>430.2</ele>
        <time>2016-01-03T10:34:43Z</time>
      </trkpt>
      <trkpt lat="44.33659" lon="2.05942">
        <ele>430.1</ele>
        <time>2016-01-03T10:34:47Z</time>
      </trkpt>
      <trkpt lat="44.33661" lon="2.05939">
        <ele>430</ele>
        <time>2016-01-03T10:34:59Z</time>
      </trkpt>
      <trkpt lat="44.33664" lon="2.05935">
        <ele>429.9</ele>
        <time>2016-01-03T10:35:00Z</time>
      </trkpt>
      <trkpt lat="44.33668" lon="2.05932">
        <ele>429.1</ele>
        <time>2016-01-03T10:35:02Z</time>
      </trkpt>
      <trkpt lat="44.3367" lon="2.05927">
        <ele>429.4</ele>
        <time>2016-01-03T10:35:04Z</time>
      </trkpt>
      <trkpt lat="44.33678" lon="2.05922">
        <ele>428</ele>
        <time>2016-01-03T10:35:07Z</time>
      </trkpt>
      <trkpt lat="44.33681" lon="2.05926">
        <ele>426.5</ele>
        <time>2016-01-03T10:35:10Z</time>
      </trkpt>
      <trkpt lat="44.33683" lon="2.05923">
        <ele>426.3</ele>
        <time>2016-01-03T10:35:12Z</time>
      </trkpt>
      <trkpt lat="44.33687" lon="2.05921">
        <ele>425.5</ele>
        <time>2016-01-03T10:35:15Z</time>
      </trkpt>
      <trkpt lat="44.3369" lon="2.05918">
        <ele>425.4</ele>
        <time>2016-01-03T10:35:17Z</time>
      </trkpt>
      <trkpt lat="44.33693" lon="2.05915">
        <ele>425</ele>
        <time>2016-01-03T10:35:18Z</time>
      </trkpt>
      <trkpt lat="44.33696" lon="2.05913">
        <ele>424.6</ele>
        <time>2016-01-03T10:35:19Z</time>
      </trkpt>
      <trkpt lat="44.33698" lon="2.05911">
        <ele>424.1</ele>
        <time>2016-01-03T10:35:20Z</time>
      </trkpt>
      <trkpt lat="44.33701" lon="2.05909">
        <ele>423.7</ele>
        <time>2016-01-03T10:35:21Z</time>
      </trkpt>
      <trkpt lat="44.33704" lon="2.05906">
        <ele>423.5</ele>
        <time>2016-01-03T10:35:22Z</time>
      </trkpt>
      <trkpt lat="44.33708" lon="2.05904">
        <ele>422.9</ele>
        <time>2016-01-03T10:35:23Z</time>
      </trkpt>
      <trkpt lat="44.33711" lon="2.05902">
        <ele>422.5</ele>
        <time>2016-01-03T10:35:24Z</time>
      </trkpt>
      <trkpt lat="44.33716" lon="2.05901">
        <ele>421.4</ele>
        <time>2016-01-03T10:35:26Z</time>
      </trkpt>
      <trkpt lat="44.33719" lon="2.059">
        <ele>420.7</ele>
        <time>2016-01-03T10:35:27Z</time>
      </trkpt>
      <trkpt lat="44.33723" lon="2.059">
        <ele>419.9</ele>
        <time>2016-01-03T10:35:28Z</time>
      </trkpt>
      <trkpt lat="44.33726" lon="2.05899">
        <ele>419.1</ele>
        <time>2016-01-03T10:35:29Z</time>
      </trkpt>
      <trkpt lat="44.33729" lon="2.059">
        <ele>418.2</ele>
        <time>2016-01-03T10:35:30Z</time>
      </trkpt>
      <trkpt lat="44.33733" lon="2.059">
        <ele>417.1</ele>
        <time>2016-01-03T10:35:31Z</time>
      </trkpt>
      <trkpt lat="44.33739" lon="2.05898">
        <ele>415.9</ele>
        <time>2016-01-03T10:35:32Z</time>
      </trkpt>
      <trkpt lat="44.33744" lon="2.05896">
        <ele>415.1</ele>
        <time>2016-01-03T10:35:33Z</time>
      </trkpt>
      <trkpt lat="44.33748" lon="2.05894">
        <ele>414.4</ele>
        <time>2016-01-03T10:35:34Z</time>
      </trkpt>
      <trkpt lat="44.33753" lon="2.05891">
        <ele>413.9</ele>
        <time>2016-01-03T10:35:35Z</time>
      </trkpt>
      <trkpt lat="44.33757" lon="2.05889">
        <ele>413.2</ele>
        <time>2016-01-03T10:35:36Z</time>
      </trkpt>
      <trkpt lat="44.33765" lon="2.05889">
        <ele>411.1</ele>
        <time>2016-01-03T10:35:37Z</time>
      </trkpt>
      <trkpt lat="44.33772" lon="2.05887">
        <ele>409.9</ele>
        <time>2016-01-03T10:35:38Z</time>
      </trkpt>
      <trkpt lat="44.33779" lon="2.05883">
        <ele>409.1</ele>
        <time>2016-01-03T10:35:39Z</time>
      </trkpt>
      <trkpt lat="44.33785" lon="2.05879">
        <ele>408.7</ele>
        <time>2016-01-03T10:35:40Z</time>
      </trkpt>
      <trkpt lat="44.33791" lon="2.05872">
        <ele>408.8</ele>
        <time>2016-01-03T10:35:41Z</time>
      </trkpt>
      <trkpt lat="44.33796" lon="2.05866">
        <ele>407.9</ele>
        <time>2016-01-03T10:35:42Z</time>
      </trkpt>
      <trkpt lat="44.33801" lon="2.05861">
        <ele>407</ele>
        <time>2016-01-03T10:35:43Z</time>
      </trkpt>
      <trkpt lat="44.33807" lon="2.05855">
        <ele>406</ele>
        <time>2016-01-03T10:35:44Z</time>
      </trkpt>
      <trkpt lat="44.33811" lon="2.0585">
        <ele>405.1</ele>
        <time>2016-01-03T10:35:45Z</time>
      </trkpt>
      <trkpt lat="44.33815" lon="2.05846">
        <ele>404.3</ele>
        <time>2016-01-03T10:35:46Z</time>
      </trkpt>
      <trkpt lat="44.33819" lon="2.05842">
        <ele>403.9</ele>
        <time>2016-01-03T10:35:47Z</time>
      </trkpt>
      <trkpt lat="44.33822" lon="2.05837">
        <ele>403.6</ele>
        <time>2016-01-03T10:35:48Z</time>
      </trkpt>
      <trkpt lat="44.33825" lon="2.05832">
        <ele>403.7</ele>
        <time>2016-01-03T10:35:49Z</time>
      </trkpt>
      <trkpt lat="44.33828" lon="2.05822">
        <ele>404.4</ele>
        <time>2016-01-03T10:35:50Z</time>
      </trkpt>
      <trkpt lat="44.33831" lon="2.05816">
        <ele>404.9</ele>
        <time>2016-01-03T10:35:51Z</time>
      </trkpt>
      <trkpt lat="44.33835" lon="2.05808">
        <ele>405.1</ele>
        <time>2016-01-03T10:35:52Z</time>
      </trkpt>
      <trkpt lat="44.33838" lon="2.05806">
        <ele>404.2</ele>
        <time>2016-01-03T10:35:53Z</time>
      </trkpt>
      <trkpt lat="44.33844" lon="2.05801">
        <ele>402.9</ele>
        <time>2016-01-03T10:35:54Z</time>
      </trkpt>
      <trkpt lat="44.33851" lon="2.05795">
        <ele>401.8</ele>
        <time>2016-01-03T10:35:55Z</time>
      </trkpt>
      <trkpt lat="44.33859" lon="2.0579">
        <ele>400.1</ele>
        <time>2016-01-03T10:35:56Z</time>
      </trkpt>
      <trkpt lat="44.33864" lon="2.05786">
        <ele>398.9</ele>
        <time>2016-01-03T10:35:57Z</time>
      </trkpt>
      <trkpt lat="44.33869" lon="2.05783">
        <ele>397.7</ele>
        <time>2016-01-03T10:35:58Z</time>
      </trkpt>
      <trkpt lat="44.33875" lon="2.05779">
        <ele>396.5</ele>
        <time>2016-01-03T10:35:59Z</time>
      </trkpt>
      <trkpt lat="44.3388" lon="2.05775">
        <ele>395.7</ele>
        <time>2016-01-03T10:36:00Z</time>
      </trkpt>
      <trkpt lat="44.33885" lon="2.05771">
        <ele>394.5</ele>
        <time>2016-01-03T10:36:01Z</time>
      </trkpt>
      <trkpt lat="44.33891" lon="2.05768">
        <ele>393.1</ele>
        <time>2016-01-03T10:36:02Z</time>
      </trkpt>
      <trkpt lat="44.33898" lon="2.05764">
        <ele>392</ele>
        <time>2016-01-03T10:36:03Z</time>
      </trkpt>
      <trkpt lat="44.33904" lon="2.0576">
        <ele>390.7</ele>
        <time>2016-01-03T10:36:04Z</time>
      </trkpt>
      <trkpt lat="44.3391" lon="2.05755">
        <ele>390.1</ele>
        <time>2016-01-03T10:36:05Z</time>
      </trkpt>
      <trkpt lat="44.33916" lon="2.05748">
        <ele>389.7</ele>
        <time>2016-01-03T10:36:06Z</time>
      </trkpt>
      <trkpt lat="44.33923" lon="2.05743">
        <ele>388.9</ele>
        <time>2016-01-03T10:36:07Z</time>
      </trkpt>
      <trkpt lat="44.33929" lon="2.05735">
        <ele>388.9</ele>
        <time>2016-01-03T10:36:08Z</time>
      </trkpt>
      <trkpt lat="44.33936" lon="2.05728">
        <ele>388.8</ele>
        <time>2016-01-03T10:36:09Z</time>
      </trkpt>
      <trkpt lat="44.33943" lon="2.05718">
        <ele>389.3</ele>
        <time>2016-01-03T10:36:10Z</time>
      </trkpt>
      <trkpt lat="44.3395" lon="2.0571">
        <ele>389.3</ele>
        <time>2016-01-03T10:36:11Z</time>
      </trkpt>
      <trkpt lat="44.33957" lon="2.05704">
        <ele>388.4</ele>
        <time>2016-01-03T10:36:12Z</time>
      </trkpt>
      <trkpt lat="44.33964" lon="2.05698">
        <ele>385.7</ele>
        <time>2016-01-03T10:36:13Z</time>
      </trkpt>
      <trkpt lat="44.33975" lon="2.05695">
        <ele>381.2</ele>
        <time>2016-01-03T10:36:14Z</time>
      </trkpt>
      <trkpt lat="44.33983" lon="2.05689">
        <ele>378</ele>
        <time>2016-01-03T10:36:15Z</time>
      </trkpt>
      <trkpt lat="44.33989" lon="2.05684">
        <ele>376</ele>
        <time>2016-01-03T10:36:16Z</time>
      </trkpt>
      <trkpt lat="44.33994" lon="2.05678">
        <ele>374.1</ele>
        <time>2016-01-03T10:36:17Z</time>
      </trkpt>
      <trkpt lat="44.33999" lon="2.05674">
        <ele>372.8</ele>
        <time>2016-01-03T10:36:18Z</time>
      </trkpt>
      <trkpt lat="44.34002" lon="2.05664">
        <ele>372.5</ele>
        <time>2016-01-03T10:36:19Z</time>
      </trkpt>
      <trkpt lat="44.34005" lon="2.05656">
        <ele>372.8</ele>
        <time>2016-01-03T10:36:20Z</time>
      </trkpt>
      <trkpt lat="44.34009" lon="2.05649">
        <ele>372.1</ele>
        <time>2016-01-03T10:36:21Z</time>
      </trkpt>
      <trkpt lat="44.3401" lon="2.05646">
        <ele>371.7</ele>
        <time>2016-01-03T10:36:22Z</time>
      </trkpt>
      <trkpt lat="44.34011" lon="2.05641">
        <ele>372.1</ele>
        <time>2016-01-03T10:36:23Z</time>
      </trkpt>
      <trkpt lat="44.34012" lon="2.05635">
        <ele>372.8</ele>
        <time>2016-01-03T10:36:24Z</time>
      </trkpt>
      <trkpt lat="44.34013" lon="2.05628">
        <ele>373.9</ele>
        <time>2016-01-03T10:36:26Z</time>
      </trkpt>
      <trkpt lat="44.34013" lon="2.05623">
        <ele>374.3</ele>
        <time>2016-01-03T10:36:27Z</time>
      </trkpt>
      <trkpt lat="44.34014" lon="2.05615">
        <ele>374.3</ele>
        <time>2016-01-03T10:36:29Z</time>
      </trkpt>
      <trkpt lat="44.34015" lon="2.05611">
        <ele>374.4</ele>
        <time>2016-01-03T10:36:30Z</time>
      </trkpt>
      <trkpt lat="44.34015" lon="2.05607">
        <ele>374.3</ele>
        <time>2016-01-03T10:36:31Z</time>
      </trkpt>
      <trkpt lat="44.34016" lon="2.05602">
        <ele>374.2</ele>
        <time>2016-01-03T10:36:32Z</time>
      </trkpt>
      <trkpt lat="44.34018" lon="2.05597">
        <ele>373.8</ele>
        <time>2016-01-03T10:36:33Z</time>
      </trkpt>
      <trkpt lat="44.34019" lon="2.05593">
        <ele>373.7</ele>
        <time>2016-01-03T10:36:34Z</time>
      </trkpt>
      <trkpt lat="44.34018" lon="2.05588">
        <ele>374.7</ele>
        <time>2016-01-03T10:36:35Z</time>
      </trkpt>
      <trkpt lat="44.34017" lon="2.05584">
        <ele>375.3</ele>
        <time>2016-01-03T10:36:36Z</time>
      </trkpt>
      <trkpt lat="44.34019" lon="2.05579">
        <ele>374.7</ele>
        <time>2016-01-03T10:36:38Z</time>
      </trkpt>
      <trkpt lat="44.34024" lon="2.05576">
        <ele>372.9</ele>
        <time>2016-01-03T10:36:40Z</time>
      </trkpt>
      <trkpt lat="44.34026" lon="2.05574">
        <ele>371.8</ele>
        <time>2016-01-03T10:36:41Z</time>
      </trkpt>
      <trkpt lat="44.3403" lon="2.0557">
        <ele>370.5</ele>
        <time>2016-01-03T10:36:42Z</time>
      </trkpt>
      <trkpt lat="44.34033" lon="2.05567">
        <ele>369.6</ele>
        <time>2016-01-03T10:36:43Z</time>
      </trkpt>
      <trkpt lat="44.34034" lon="2.05563">
        <ele>369.2</ele>
        <time>2016-01-03T10:36:44Z</time>
      </trkpt>
      <trkpt lat="44.34035" lon="2.05559">
        <ele>369.3</ele>
        <time>2016-01-03T10:36:45Z</time>
      </trkpt>
      <trkpt lat="44.34038" lon="2.05554">
        <ele>368.4</ele>
        <time>2016-01-03T10:36:46Z</time>
      </trkpt>
      <trkpt lat="44.3404" lon="2.0555">
        <ele>367.8</ele>
        <time>2016-01-03T10:36:47Z</time>
      </trkpt>
      <trkpt lat="44.34043" lon="2.05547">
        <ele>367.1</ele>
        <time>2016-01-03T10:36:48Z</time>
      </trkpt>
      <trkpt lat="44.34045" lon="2.05544">
        <ele>366</ele>
        <time>2016-01-03T10:36:49Z</time>
      </trkpt>
      <trkpt lat="44.34048" lon="2.05541">
        <ele>365.1</ele>
        <time>2016-01-03T10:36:50Z</time>
      </trkpt>
      <trkpt lat="44.3405" lon="2.05538">
        <ele>364</ele>
        <time>2016-01-03T10:36:51Z</time>
      </trkpt>
      <trkpt lat="44.34051" lon="2.05533">
        <ele>363.1</ele>
        <time>2016-01-03T10:36:52Z</time>
      </trkpt>
      <trkpt lat="44.34054" lon="2.0553">
        <ele>361.6</ele>
        <time>2016-01-03T10:36:53Z</time>
      </trkpt>
      <trkpt lat="44.34057" lon="2.05528">
        <ele>360.5</ele>
        <time>2016-01-03T10:36:54Z</time>
      </trkpt>
      <trkpt lat="44.3406" lon="2.05524">
        <ele>359.1</ele>
        <time>2016-01-03T10:36:55Z</time>
      </trkpt>
      <trkpt lat="44.34062" lon="2.05522">
        <ele>358.1</ele>
        <time>2016-01-03T10:36:56Z</time>
      </trkpt>
      <trkpt lat="44.34065" lon="2.05517">
        <ele>356.6</ele>
        <time>2016-01-03T10:36:57Z</time>
      </trkpt>
      <trkpt lat="44.34068" lon="2.05513">
        <ele>355.4</ele>
        <time>2016-01-03T10:36:58Z</time>
      </trkpt>
      <trkpt lat="44.34072" lon="2.05509">
        <ele>353.6</ele>
        <time>2016-01-03T10:36:59Z</time>
      </trkpt>
      <trkpt lat="44.34074" lon="2.05506">
        <ele>352.5</ele>
        <time>2016-01-03T10:37:00Z</time>
      </trkpt>
      <trkpt lat="44.34077" lon="2.05503">
        <ele>351.5</ele>
        <time>2016-01-03T10:37:01Z</time>
      </trkpt>
      <trkpt lat="44.3408" lon="2.055">
        <ele>350.3</ele>
        <time>2016-01-03T10:37:03Z</time>
      </trkpt>
      <trkpt lat="44.34083" lon="2.05497">
        <ele>348.9</ele>
        <time>2016-01-03T10:37:05Z</time>
      </trkpt>
      <trkpt lat="44.34087" lon="2.05495">
        <ele>347.5</ele>
        <time>2016-01-03T10:37:07Z</time>
      </trkpt>
      <trkpt lat="44.34091" lon="2.05492">
        <ele>346</ele>
        <time>2016-01-03T10:37:09Z</time>
      </trkpt>
      <trkpt lat="44.34093" lon="2.05488">
        <ele>345.1</ele>
        <time>2016-01-03T10:37:11Z</time>
      </trkpt>
      <trkpt lat="44.34097" lon="2.05485">
        <ele>343.8</ele>
        <time>2016-01-03T10:37:13Z</time>
      </trkpt>
      <trkpt lat="44.341" lon="2.05481">
        <ele>343</ele>
        <time>2016-01-03T10:37:14Z</time>
      </trkpt>
      <trkpt lat="44.34102" lon="2.05477">
        <ele>342.4</ele>
        <time>2016-01-03T10:37:16Z</time>
      </trkpt>
      <trkpt lat="44.34105" lon="2.05477">
        <ele>340.9</ele>
        <time>2016-01-03T10:37:18Z</time>
      </trkpt>
      <trkpt lat="44.34109" lon="2.05472">
        <ele>339.7</ele>
        <time>2016-01-03T10:37:21Z</time>
      </trkpt>
      <trkpt lat="44.34113" lon="2.0547">
        <ele>338.4</ele>
        <time>2016-01-03T10:37:22Z</time>
      </trkpt>
      <trkpt lat="44.34117" lon="2.05465">
        <ele>337.3</ele>
        <time>2016-01-03T10:37:23Z</time>
      </trkpt>
      <trkpt lat="44.34121" lon="2.05461">
        <ele>336.2</ele>
        <time>2016-01-03T10:37:24Z</time>
      </trkpt>
      <trkpt lat="44.34127" lon="2.05454">
        <ele>334.3</ele>
        <time>2016-01-03T10:37:25Z</time>
      </trkpt>
      <trkpt lat="44.34132" lon="2.05451">
        <ele>332.6</ele>
        <time>2016-01-03T10:37:26Z</time>
      </trkpt>
      <trkpt lat="44.34136" lon="2.05447">
        <ele>330.7</ele>
        <time>2016-01-03T10:37:27Z</time>
      </trkpt>
      <trkpt lat="44.34139" lon="2.05443">
        <ele>329.6</ele>
        <time>2016-01-03T10:37:28Z</time>
      </trkpt>
      <trkpt lat="44.34141" lon="2.05438">
        <ele>329.4</ele>
        <time>2016-01-03T10:37:29Z</time>
      </trkpt>
      <trkpt lat="44.34144" lon="2.05433">
        <ele>328.5</ele>
        <time>2016-01-03T10:37:30Z</time>
      </trkpt>
      <trkpt lat="44.34147" lon="2.05427">
        <ele>327.4</ele>
        <time>2016-01-03T10:37:31Z</time>
      </trkpt>
      <trkpt lat="44.34156" lon="2.05419">
        <ele>323.9</ele>
        <time>2016-01-03T10:37:32Z</time>
      </trkpt>
      <trkpt lat="44.34162" lon="2.05412">
        <ele>321.8</ele>
        <time>2016-01-03T10:37:33Z</time>
      </trkpt>
      <trkpt lat="44.34168" lon="2.05404">
        <ele>319.7</ele>
        <time>2016-01-03T10:37:34Z</time>
      </trkpt>
      <trkpt lat="44.34171" lon="2.05398">
        <ele>318.5</ele>
        <time>2016-01-03T10:37:35Z</time>
      </trkpt>
      <trkpt lat="44.34174" lon="2.05394">
        <ele>317.6</ele>
        <time>2016-01-03T10:37:36Z</time>
      </trkpt>
      <trkpt lat="44.34179" lon="2.05391">
        <ele>315.5</ele>
        <time>2016-01-03T10:37:37Z</time>
      </trkpt>
      <trkpt lat="44.34181" lon="2.05388">
        <ele>314.6</ele>
        <time>2016-01-03T10:37:39Z</time>
      </trkpt>
      <trkpt lat="44.34183" lon="2.05384">
        <ele>314.2</ele>
        <time>2016-01-03T10:37:40Z</time>
      </trkpt>
      <trkpt lat="44.34187" lon="2.05372">
        <ele>312.9</ele>
        <time>2016-01-03T10:37:41Z</time>
      </trkpt>
      <trkpt lat="44.34189" lon="2.05366">
        <ele>312.3</ele>
        <time>2016-01-03T10:37:42Z</time>
      </trkpt>
      <trkpt lat="44.3419" lon="2.0536">
        <ele>311.6</ele>
        <time>2016-01-03T10:37:43Z</time>
      </trkpt>
      <trkpt lat="44.34194" lon="2.05354">
        <ele>310.1</ele>
        <time>2016-01-03T10:37:44Z</time>
      </trkpt>
      <trkpt lat="44.34195" lon="2.0535">
        <ele>309.5</ele>
        <time>2016-01-03T10:37:45Z</time>
      </trkpt>
      <trkpt lat="44.342" lon="2.05338">
        <ele>307.2</ele>
        <time>2016-01-03T10:37:46Z</time>
      </trkpt>
      <trkpt lat="44.34201" lon="2.05333">
        <ele>306.6</ele>
        <time>2016-01-03T10:37:47Z</time>
      </trkpt>
      <trkpt lat="44.34202" lon="2.05329">
        <ele>306.3</ele>
        <time>2016-01-03T10:37:48Z</time>
      </trkpt>
      <trkpt lat="44.34207" lon="2.05317">
        <ele>303.9</ele>
        <time>2016-01-03T10:37:56Z</time>
      </trkpt>
      <trkpt lat="44.34209" lon="2.05314">
        <ele>302.9</ele>
        <time>2016-01-03T10:37:58Z</time>
      </trkpt>
      <trkpt lat="44.34209" lon="2.05308">
        <ele>302.6</ele>
        <time>2016-01-03T10:38:00Z</time>
      </trkpt>
      <trkpt lat="44.34207" lon="2.05304">
        <ele>303.5</ele>
        <time>2016-01-03T10:38:03Z</time>
      </trkpt>
      <trkpt lat="44.34205" lon="2.05302">
        <ele>304.8</ele>
        <time>2016-01-03T10:38:09Z</time>
      </trkpt>
      <trkpt lat="44.34203" lon="2.05298">
        <ele>305.5</ele>
        <time>2016-01-03T10:38:15Z</time>
      </trkpt>
      <trkpt lat="44.34203" lon="2.05292">
        <ele>305.6</ele>
        <time>2016-01-03T10:38:18Z</time>
      </trkpt>
      <trkpt lat="44.34203" lon="2.05287">
        <ele>305.8</ele>
        <time>2016-01-03T10:38:20Z</time>
      </trkpt>
      <trkpt lat="44.34203" lon="2.05279">
        <ele>305.4</ele>
        <time>2016-01-03T10:38:22Z</time>
      </trkpt>
      <trkpt lat="44.34203" lon="2.05275">
        <ele>305.5</ele>
        <time>2016-01-03T10:38:23Z</time>
      </trkpt>
      <trkpt lat="44.34202" lon="2.05271">
        <ele>306</ele>
        <time>2016-01-03T10:38:24Z</time>
      </trkpt>
      <trkpt lat="44.34201" lon="2.05266">
        <ele>306.4</ele>
        <time>2016-01-03T10:38:25Z</time>
      </trkpt>
      <trkpt lat="44.34201" lon="2.05261">
        <ele>306.4</ele>
        <time>2016-01-03T10:38:26Z</time>
      </trkpt>
      <trkpt lat="44.34201" lon="2.05254">
        <ele>306.4</ele>
        <time>2016-01-03T10:38:27Z</time>
      </trkpt>
      <trkpt lat="44.34202" lon="2.05246">
        <ele>306.1</ele>
        <time>2016-01-03T10:38:28Z</time>
      </trkpt>
      <trkpt lat="44.34202" lon="2.05238">
        <ele>306</ele>
        <time>2016-01-03T10:38:29Z</time>
      </trkpt>
      <trkpt lat="44.34203" lon="2.05231">
        <ele>305.5</ele>
        <time>2016-01-03T10:38:30Z</time>
      </trkpt>
      <trkpt lat="44.34204" lon="2.05224">
        <ele>304.6</ele>
        <time>2016-01-03T10:38:31Z</time>
      </trkpt>
      <trkpt lat="44.34206" lon="2.05217">
        <ele>303.3</ele>
        <time>2016-01-03T10:38:32Z</time>
      </trkpt>
      <trkpt lat="44.34208" lon="2.05209">
        <ele>302.3</ele>
        <time>2016-01-03T10:38:33Z</time>
      </trkpt>
      <trkpt lat="44.34209" lon="2.05202">
        <ele>302.9</ele>
        <time>2016-01-03T10:38:34Z</time>
      </trkpt>
      <trkpt lat="44.34209" lon="2.05195">
        <ele>303.9</ele>
        <time>2016-01-03T10:38:35Z</time>
      </trkpt>
      <trkpt lat="44.3421" lon="2.05186">
        <ele>304.9</ele>
        <time>2016-01-03T10:38:36Z</time>
      </trkpt>
      <trkpt lat="44.34214" lon="2.05172">
        <ele>305.1</ele>
        <time>2016-01-03T10:38:37Z</time>
      </trkpt>
      <trkpt lat="44.34217" lon="2.05161">
        <ele>305.2</ele>
        <time>2016-01-03T10:38:38Z</time>
      </trkpt>
      <trkpt lat="44.3422" lon="2.05149">
        <ele>305.2</ele>
        <time>2016-01-03T10:38:39Z</time>
      </trkpt>
      <trkpt lat="44.34223" lon="2.05139">
        <ele>305.2</ele>
        <time>2016-01-03T10:38:40Z</time>
      </trkpt>
      <trkpt lat="44.34225" lon="2.05128">
        <ele>305</ele>
        <time>2016-01-03T10:38:41Z</time>
      </trkpt>
      <trkpt lat="44.34229" lon="2.05118">
        <ele>305.3</ele>
        <time>2016-01-03T10:38:42Z</time>
      </trkpt>
      <trkpt lat="44.34234" lon="2.05109">
        <ele>304.2</ele>
        <time>2016-01-03T10:38:43Z</time>
      </trkpt>
      <trkpt lat="44.34239" lon="2.05101">
        <ele>303</ele>
        <time>2016-01-03T10:38:44Z</time>
      </trkpt>
      <trkpt lat="44.34245" lon="2.0509">
        <ele>301.7</ele>
        <time>2016-01-03T10:38:45Z</time>
      </trkpt>
      <trkpt lat="44.34252" lon="2.05076">
        <ele>300.2</ele>
        <time>2016-01-03T10:38:46Z</time>
      </trkpt>
      <trkpt lat="44.3426" lon="2.05064">
        <ele>297.8</ele>
        <time>2016-01-03T10:38:47Z</time>
      </trkpt>
      <trkpt lat="44.34266" lon="2.05052">
        <ele>295.7</ele>
        <time>2016-01-03T10:38:48Z</time>
      </trkpt>
      <trkpt lat="44.34271" lon="2.05041">
        <ele>294</ele>
        <time>2016-01-03T10:38:49Z</time>
      </trkpt>
      <trkpt lat="44.34275" lon="2.05031">
        <ele>293.3</ele>
        <time>2016-01-03T10:38:50Z</time>
      </trkpt>
      <trkpt lat="44.34279" lon="2.05021">
        <ele>292.9</ele>
        <time>2016-01-03T10:38:51Z</time>
      </trkpt>
      <trkpt lat="44.34282" lon="2.05011">
        <ele>293.3</ele>
        <time>2016-01-03T10:38:52Z</time>
      </trkpt>
      <trkpt lat="44.34286" lon="2.05002">
        <ele>292.8</ele>
        <time>2016-01-03T10:38:53Z</time>
      </trkpt>
      <trkpt lat="44.34288" lon="2.04993">
        <ele>292.9</ele>
        <time>2016-01-03T10:38:54Z</time>
      </trkpt>
      <trkpt lat="44.34291" lon="2.04986">
        <ele>293</ele>
        <time>2016-01-03T10:38:55Z</time>
      </trkpt>
      <trkpt lat="44.34293" lon="2.04977">
        <ele>293.7</ele>
        <time>2016-01-03T10:38:56Z</time>
      </trkpt>
      <trkpt lat="44.34295" lon="2.0497">
        <ele>294.8</ele>
        <time>2016-01-03T10:38:57Z</time>
      </trkpt>
      <trkpt lat="44.34298" lon="2.04961">
        <ele>295.7</ele>
        <time>2016-01-03T10:38:58Z</time>
      </trkpt>
      <trkpt lat="44.343" lon="2.04954">
        <ele>296</ele>
        <time>2016-01-03T10:38:59Z</time>
      </trkpt>
      <trkpt lat="44.34304" lon="2.04947">
        <ele>295.4</ele>
        <time>2016-01-03T10:39:00Z</time>
      </trkpt>
      <trkpt lat="44.34307" lon="2.0494">
        <ele>294.9</ele>
        <time>2016-01-03T10:39:01Z</time>
      </trkpt>
      <trkpt lat="44.34309" lon="2.04935">
        <ele>294.3</ele>
        <time>2016-01-03T10:39:02Z</time>
      </trkpt>
      <trkpt lat="44.34311" lon="2.04931">
        <ele>293.9</ele>
        <time>2016-01-03T10:39:03Z</time>
      </trkpt>
      <trkpt lat="44.34313" lon="2.04927">
        <ele>293.8</ele>
        <time>2016-01-03T10:39:04Z</time>
      </trkpt>
      <trkpt lat="44.34313" lon="2.04919">
        <ele>294.5</ele>
        <time>2016-01-03T10:39:05Z</time>
      </trkpt>
      <trkpt lat="44.34315" lon="2.04913">
        <ele>294.4</ele>
        <time>2016-01-03T10:39:06Z</time>
      </trkpt>
      <trkpt lat="44.34317" lon="2.04907">
        <ele>293.9</ele>
        <time>2016-01-03T10:39:07Z</time>
      </trkpt>
      <trkpt lat="44.3432" lon="2.04899">
        <ele>293.5</ele>
        <time>2016-01-03T10:39:08Z</time>
      </trkpt>
      <trkpt lat="44.3432" lon="2.04893">
        <ele>293.9</ele>
        <time>2016-01-03T10:39:09Z</time>
      </trkpt>
      <trkpt lat="44.34321" lon="2.04887">
        <ele>294.2</ele>
        <time>2016-01-03T10:39:10Z</time>
      </trkpt>
      <trkpt lat="44.34323" lon="2.04879">
        <ele>293.8</ele>
        <time>2016-01-03T10:39:11Z</time>
      </trkpt>
      <trkpt lat="44.34326" lon="2.04875">
        <ele>293.1</ele>
        <time>2016-01-03T10:39:12Z</time>
      </trkpt>
      <trkpt lat="44.34326" lon="2.04868">
        <ele>293.7</ele>
        <time>2016-01-03T10:39:13Z</time>
      </trkpt>
      <trkpt lat="44.34326" lon="2.04863">
        <ele>294.3</ele>
        <time>2016-01-03T10:39:14Z</time>
      </trkpt>
      <trkpt lat="44.34327" lon="2.04857">
        <ele>294.1</ele>
        <time>2016-01-03T10:39:15Z</time>
      </trkpt>
      <trkpt lat="44.34327" lon="2.0485">
        <ele>294.9</ele>
        <time>2016-01-03T10:39:16Z</time>
      </trkpt>
      <trkpt lat="44.34329" lon="2.04846">
        <ele>294.4</ele>
        <time>2016-01-03T10:39:17Z</time>
      </trkpt>
      <trkpt lat="44.34333" lon="2.04838">
        <ele>293.1</ele>
        <time>2016-01-03T10:39:18Z</time>
      </trkpt>
      <trkpt lat="44.34335" lon="2.04832">
        <ele>292.7</ele>
        <time>2016-01-03T10:39:19Z</time>
      </trkpt>
      <trkpt lat="44.34338" lon="2.04824">
        <ele>291.8</ele>
        <time>2016-01-03T10:39:20Z</time>
      </trkpt>
      <trkpt lat="44.34338" lon="2.04814">
        <ele>292.4</ele>
        <time>2016-01-03T10:39:21Z</time>
      </trkpt>
      <trkpt lat="44.34339" lon="2.04801">
        <ele>293.4</ele>
        <time>2016-01-03T10:39:22Z</time>
      </trkpt>
      <trkpt lat="44.3434" lon="2.0479">
        <ele>293.8</ele>
        <time>2016-01-03T10:39:23Z</time>
      </trkpt>
      <trkpt lat="44.34342" lon="2.04782">
        <ele>293.3</ele>
        <time>2016-01-03T10:39:24Z</time>
      </trkpt>
      <trkpt lat="44.34344" lon="2.04776">
        <ele>293.3</ele>
        <time>2016-01-03T10:39:25Z</time>
      </trkpt>
      <trkpt lat="44.34347" lon="2.04767">
        <ele>292.5</ele>
        <time>2016-01-03T10:39:26Z</time>
      </trkpt>
      <trkpt lat="44.34351" lon="2.04761">
        <ele>291.1</ele>
        <time>2016-01-03T10:39:27Z</time>
      </trkpt>
      <trkpt lat="44.34354" lon="2.04755">
        <ele>289.8</ele>
        <time>2016-01-03T10:39:28Z</time>
      </trkpt>
      <trkpt lat="44.34356" lon="2.0475">
        <ele>289.4</ele>
        <time>2016-01-03T10:39:29Z</time>
      </trkpt>
      <trkpt lat="44.3436" lon="2.04745">
        <ele>288.1</ele>
        <time>2016-01-03T10:39:30Z</time>
      </trkpt>
      <trkpt lat="44.34363" lon="2.04741">
        <ele>286.6</ele>
        <time>2016-01-03T10:39:31Z</time>
      </trkpt>
      <trkpt lat="44.34366" lon="2.04736">
        <ele>286.1</ele>
        <time>2016-01-03T10:39:32Z</time>
      </trkpt>
      <trkpt lat="44.34368" lon="2.04732">
        <ele>285.5</ele>
        <time>2016-01-03T10:39:33Z</time>
      </trkpt>
      <trkpt lat="44.34369" lon="2.04728">
        <ele>285.5</ele>
        <time>2016-01-03T10:39:34Z</time>
      </trkpt>
      <trkpt lat="44.34372" lon="2.04724">
        <ele>284.4</ele>
        <time>2016-01-03T10:39:35Z</time>
      </trkpt>
      <trkpt lat="44.34374" lon="2.04721">
        <ele>283.7</ele>
        <time>2016-01-03T10:39:36Z</time>
      </trkpt>
      <trkpt lat="44.34376" lon="2.04718">
        <ele>283.4</ele>
        <time>2016-01-03T10:39:37Z</time>
      </trkpt>
      <trkpt lat="44.3438" lon="2.04711">
        <ele>283.3</ele>
        <time>2016-01-03T10:39:38Z</time>
      </trkpt>
      <trkpt lat="44.34383" lon="2.04707">
        <ele>283.4</ele>
        <time>2016-01-03T10:39:39Z</time>
      </trkpt>
      <trkpt lat="44.34385" lon="2.04701">
        <ele>284.5</ele>
        <time>2016-01-03T10:39:40Z</time>
      </trkpt>
      <trkpt lat="44.34388" lon="2.04696">
        <ele>285.3</ele>
        <time>2016-01-03T10:39:41Z</time>
      </trkpt>
      <trkpt lat="44.34391" lon="2.04692">
        <ele>286</ele>
        <time>2016-01-03T10:39:42Z</time>
      </trkpt>
      <trkpt lat="44.34394" lon="2.04688">
        <ele>286.6</ele>
        <time>2016-01-03T10:39:43Z</time>
      </trkpt>
      <trkpt lat="44.34396" lon="2.04684">
        <ele>287.2</ele>
        <time>2016-01-03T10:39:44Z</time>
      </trkpt>
      <trkpt lat="44.34399" lon="2.0468">
        <ele>287.8</ele>
        <time>2016-01-03T10:39:45Z</time>
      </trkpt>
      <trkpt lat="44.34404" lon="2.04675">
        <ele>288.1</ele>
        <time>2016-01-03T10:39:46Z</time>
      </trkpt>
      <trkpt lat="44.34408" lon="2.0467">
        <ele>288.6</ele>
        <time>2016-01-03T10:39:47Z</time>
      </trkpt>
      <trkpt lat="44.34411" lon="2.04666">
        <ele>289</ele>
        <time>2016-01-03T10:39:48Z</time>
      </trkpt>
      <trkpt lat="44.34413" lon="2.04663">
        <ele>289.5</ele>
        <time>2016-01-03T10:39:49Z</time>
      </trkpt>
      <trkpt lat="44.34416" lon="2.0466">
        <ele>289.8</ele>
        <time>2016-01-03T10:39:50Z</time>
      </trkpt>
      <trkpt lat="44.3442" lon="2.04655">
        <ele>290.2</ele>
        <time>2016-01-03T10:39:51Z</time>
      </trkpt>
      <trkpt lat="44.34425" lon="2.0465">
        <ele>290.5</ele>
        <time>2016-01-03T10:39:52Z</time>
      </trkpt>
      <trkpt lat="44.34428" lon="2.04647">
        <ele>290.9</ele>
        <time>2016-01-03T10:39:53Z</time>
      </trkpt>
      <trkpt lat="44.3443" lon="2.04644">
        <ele>291.3</ele>
        <time>2016-01-03T10:39:54Z</time>
      </trkpt>
      <trkpt lat="44.34434" lon="2.0464">
        <ele>291.5</ele>
        <time>2016-01-03T10:39:55Z</time>
      </trkpt>
      <trkpt lat="44.34438" lon="2.04635">
        <ele>292.1</ele>
        <time>2016-01-03T10:39:57Z</time>
      </trkpt>
      <trkpt lat="44.34441" lon="2.04632">
        <ele>292.2</ele>
        <time>2016-01-03T10:39:58Z</time>
      </trkpt>
      <trkpt lat="44.34445" lon="2.04628">
        <ele>292.4</ele>
        <time>2016-01-03T10:39:59Z</time>
      </trkpt>
      <trkpt lat="44.3445" lon="2.04625">
        <ele>292.3</ele>
        <time>2016-01-03T10:40:00Z</time>
      </trkpt>
      <trkpt lat="44.34453" lon="2.04622">
        <ele>292.5</ele>
        <time>2016-01-03T10:40:01Z</time>
      </trkpt>
      <trkpt lat="44.34457" lon="2.04621">
        <ele>292.5</ele>
        <time>2016-01-03T10:40:02Z</time>
      </trkpt>
      <trkpt lat="44.3446" lon="2.04619">
        <ele>292.5</ele>
        <time>2016-01-03T10:40:03Z</time>
      </trkpt>
      <trkpt lat="44.34466" lon="2.04614">
        <ele>293.5</ele>
        <time>2016-01-03T10:40:05Z</time>
      </trkpt>
      <trkpt lat="44.34472" lon="2.04609">
        <ele>294.6</ele>
        <time>2016-01-03T10:40:07Z</time>
      </trkpt>
      <trkpt lat="44.34475" lon="2.04608">
        <ele>294.9</ele>
        <time>2016-01-03T10:40:08Z</time>
      </trkpt>
      <trkpt lat="44.3448" lon="2.04604">
        <ele>295.7</ele>
        <time>2016-01-03T10:40:09Z</time>
      </trkpt>
      <trkpt lat="44.34484" lon="2.046">
        <ele>296.8</ele>
        <time>2016-01-03T10:40:10Z</time>
      </trkpt>
      <trkpt lat="44.34487" lon="2.04597">
        <ele>297.5</ele>
        <time>2016-01-03T10:40:11Z</time>
      </trkpt>
      <trkpt lat="44.34491" lon="2.04595">
        <ele>298</ele>
        <time>2016-01-03T10:40:12Z</time>
      </trkpt>
      <trkpt lat="44.34494" lon="2.04592">
        <ele>298.9</ele>
        <time>2016-01-03T10:40:13Z</time>
      </trkpt>
      <trkpt lat="44.34497" lon="2.04588">
        <ele>300</ele>
        <time>2016-01-03T10:40:14Z</time>
      </trkpt>
      <trkpt lat="44.34499" lon="2.04585">
        <ele>301</ele>
        <time>2016-01-03T10:40:15Z</time>
      </trkpt>
      <trkpt lat="44.34502" lon="2.04583">
        <ele>301.5</ele>
        <time>2016-01-03T10:40:16Z</time>
      </trkpt>
      <trkpt lat="44.34505" lon="2.04581">
        <ele>302.1</ele>
        <time>2016-01-03T10:40:17Z</time>
      </trkpt>
      <trkpt lat="44.34509" lon="2.04579">
        <ele>302.2</ele>
        <time>2016-01-03T10:40:18Z</time>
      </trkpt>
      <trkpt lat="44.34515" lon="2.04577">
        <ele>302.4</ele>
        <time>2016-01-03T10:40:19Z</time>
      </trkpt>
      <trkpt lat="44.3452" lon="2.04574">
        <ele>302.8</ele>
        <time>2016-01-03T10:40:20Z</time>
      </trkpt>
      <trkpt lat="44.34524" lon="2.04572">
        <ele>303.1</ele>
        <time>2016-01-03T10:40:21Z</time>
      </trkpt>
      <trkpt lat="44.34527" lon="2.04571">
        <ele>303</ele>
        <time>2016-01-03T10:40:22Z</time>
      </trkpt>
      <trkpt lat="44.34531" lon="2.0457">
        <ele>303</ele>
        <time>2016-01-03T10:40:23Z</time>
      </trkpt>
      <trkpt lat="44.34535" lon="2.04569">
        <ele>302.6</ele>
        <time>2016-01-03T10:40:24Z</time>
      </trkpt>
      <trkpt lat="44.34538" lon="2.04569">
        <ele>302.2</ele>
        <time>2016-01-03T10:40:25Z</time>
      </trkpt>
      <trkpt lat="44.34541" lon="2.04569">
        <ele>301.7</ele>
        <time>2016-01-03T10:40:26Z</time>
      </trkpt>
      <trkpt lat="44.34544" lon="2.04569">
        <ele>301.7</ele>
        <time>2016-01-03T10:40:27Z</time>
      </trkpt>
      <trkpt lat="44.34547" lon="2.04569">
        <ele>301.8</ele>
        <time>2016-01-03T10:40:28Z</time>
      </trkpt>
      <trkpt lat="44.3455" lon="2.04569">
        <ele>301.9</ele>
        <time>2016-01-03T10:40:29Z</time>
      </trkpt>
      <trkpt lat="44.34553" lon="2.04569">
        <ele>301.7</ele>
        <time>2016-01-03T10:40:30Z</time>
      </trkpt>
      <trkpt lat="44.34556" lon="2.0457">
        <ele>301.6</ele>
        <time>2016-01-03T10:40:31Z</time>
      </trkpt>
      <trkpt lat="44.34559" lon="2.0457">
        <ele>301.6</ele>
        <time>2016-01-03T10:40:32Z</time>
      </trkpt>
      <trkpt lat="44.34562" lon="2.04571">
        <ele>300.9</ele>
        <time>2016-01-03T10:40:33Z</time>
      </trkpt>
      <trkpt lat="44.34565" lon="2.04574">
        <ele>299.7</ele>
        <time>2016-01-03T10:40:34Z</time>
      </trkpt>
      <trkpt lat="44.34568" lon="2.04577">
        <ele>298.4</ele>
        <time>2016-01-03T10:40:35Z</time>
      </trkpt>
      <trkpt lat="44.34571" lon="2.0458">
        <ele>296.8</ele>
        <time>2016-01-03T10:40:36Z</time>
      </trkpt>
      <trkpt lat="44.34575" lon="2.04583">
        <ele>295.4</ele>
        <time>2016-01-03T10:40:37Z</time>
      </trkpt>
      <trkpt lat="44.34579" lon="2.04585">
        <ele>294.2</ele>
        <time>2016-01-03T10:40:38Z</time>
      </trkpt>
      <trkpt lat="44.34583" lon="2.04587">
        <ele>293.5</ele>
        <time>2016-01-03T10:40:39Z</time>
      </trkpt>
      <trkpt lat="44.34588" lon="2.04587">
        <ele>293.5</ele>
        <time>2016-01-03T10:40:40Z</time>
      </trkpt>
      <trkpt lat="44.34593" lon="2.04587">
        <ele>293.7</ele>
        <time>2016-01-03T10:40:41Z</time>
      </trkpt>
      <trkpt lat="44.34598" lon="2.04586">
        <ele>294</ele>
        <time>2016-01-03T10:40:42Z</time>
      </trkpt>
      <trkpt lat="44.34604" lon="2.04586">
        <ele>294.1</ele>
        <time>2016-01-03T10:40:43Z</time>
      </trkpt>
      <trkpt lat="44.34609" lon="2.04587">
        <ele>294.1</ele>
        <time>2016-01-03T10:40:44Z</time>
      </trkpt>
      <trkpt lat="44.34615" lon="2.04587">
        <ele>293.8</ele>
        <time>2016-01-03T10:40:45Z</time>
      </trkpt>
      <trkpt lat="44.3462" lon="2.04589">
        <ele>293.1</ele>
        <time>2016-01-03T10:40:46Z</time>
      </trkpt>
      <trkpt lat="44.34625" lon="2.0459">
        <ele>292.3</ele>
        <time>2016-01-03T10:40:47Z</time>
      </trkpt>
      <trkpt lat="44.34631" lon="2.04595">
        <ele>289.6</ele>
        <time>2016-01-03T10:40:48Z</time>
      </trkpt>
      <trkpt lat="44.34636" lon="2.04596">
        <ele>288.7</ele>
        <time>2016-01-03T10:40:49Z</time>
      </trkpt>
      <trkpt lat="44.34642" lon="2.04597">
        <ele>287.5</ele>
        <time>2016-01-03T10:40:50Z</time>
      </trkpt>
      <trkpt lat="44.34647" lon="2.04599">
        <ele>286.2</ele>
        <time>2016-01-03T10:40:51Z</time>
      </trkpt>
      <trkpt lat="44.34653" lon="2.04599">
        <ele>285.6</ele>
        <time>2016-01-03T10:40:52Z</time>
      </trkpt>
      <trkpt lat="44.34659" lon="2.04598">
        <ele>285.5</ele>
        <time>2016-01-03T10:40:53Z</time>
      </trkpt>
      <trkpt lat="44.34666" lon="2.04599">
        <ele>284.8</ele>
        <time>2016-01-03T10:40:54Z</time>
      </trkpt>
      <trkpt lat="44.34672" lon="2.046">
        <ele>283.7</ele>
        <time>2016-01-03T10:40:55Z</time>
      </trkpt>
      <trkpt lat="44.34679" lon="2.046">
        <ele>283</ele>
        <time>2016-01-03T10:40:56Z</time>
      </trkpt>
      <trkpt lat="44.34685" lon="2.04601">
        <ele>282.4</ele>
        <time>2016-01-03T10:40:57Z</time>
      </trkpt>
      <trkpt lat="44.34691" lon="2.04601">
        <ele>282</ele>
        <time>2016-01-03T10:40:58Z</time>
      </trkpt>
      <trkpt lat="44.34697" lon="2.046">
        <ele>281.7</ele>
        <time>2016-01-03T10:40:59Z</time>
      </trkpt>
      <trkpt lat="44.34703" lon="2.04599">
        <ele>281.9</ele>
        <time>2016-01-03T10:41:00Z</time>
      </trkpt>
      <trkpt lat="44.34709" lon="2.04598">
        <ele>282</ele>
        <time>2016-01-03T10:41:01Z</time>
      </trkpt>
      <trkpt lat="44.34714" lon="2.04597">
        <ele>282.2</ele>
        <time>2016-01-03T10:41:02Z</time>
      </trkpt>
      <trkpt lat="44.34719" lon="2.04596">
        <ele>282.1</ele>
        <time>2016-01-03T10:41:03Z</time>
      </trkpt>
      <trkpt lat="44.34724" lon="2.04595">
        <ele>282.7</ele>
        <time>2016-01-03T10:41:04Z</time>
      </trkpt>
      <trkpt lat="44.34729" lon="2.04592">
        <ele>283.5</ele>
        <time>2016-01-03T10:41:05Z</time>
      </trkpt>
      <trkpt lat="44.34734" lon="2.0459">
        <ele>284</ele>
        <time>2016-01-03T10:41:06Z</time>
      </trkpt>
      <trkpt lat="44.34739" lon="2.04589">
        <ele>284.4</ele>
        <time>2016-01-03T10:41:07Z</time>
      </trkpt>
      <trkpt lat="44.34744" lon="2.04587">
        <ele>284.9</ele>
        <time>2016-01-03T10:41:08Z</time>
      </trkpt>
      <trkpt lat="44.34748" lon="2.04585">
        <ele>285.5</ele>
        <time>2016-01-03T10:41:09Z</time>
      </trkpt>
      <trkpt lat="44.34753" lon="2.04582">
        <ele>286.3</ele>
        <time>2016-01-03T10:41:10Z</time>
      </trkpt>
      <trkpt lat="44.34757" lon="2.04581">
        <ele>286.6</ele>
        <time>2016-01-03T10:41:11Z</time>
      </trkpt>
      <trkpt lat="44.34761" lon="2.04579">
        <ele>287.1</ele>
        <time>2016-01-03T10:41:12Z</time>
      </trkpt>
      <trkpt lat="44.34765" lon="2.04577">
        <ele>287.4</ele>
        <time>2016-01-03T10:41:13Z</time>
      </trkpt>
      <trkpt lat="44.34769" lon="2.04575">
        <ele>287.9</ele>
        <time>2016-01-03T10:41:14Z</time>
      </trkpt>
      <trkpt lat="44.34772" lon="2.04574">
        <ele>288.1</ele>
        <time>2016-01-03T10:41:15Z</time>
      </trkpt>
      <trkpt lat="44.34775" lon="2.04572">
        <ele>288.6</ele>
        <time>2016-01-03T10:41:16Z</time>
      </trkpt>
      <trkpt lat="44.34779" lon="2.04571">
        <ele>288.8</ele>
        <time>2016-01-03T10:41:17Z</time>
      </trkpt>
      <trkpt lat="44.34782" lon="2.04568">
        <ele>289.5</ele>
        <time>2016-01-03T10:41:18Z</time>
      </trkpt>
      <trkpt lat="44.34785" lon="2.04567">
        <ele>289.8</ele>
        <time>2016-01-03T10:41:19Z</time>
      </trkpt>
      <trkpt lat="44.34789" lon="2.04566">
        <ele>289.7</ele>
        <time>2016-01-03T10:41:20Z</time>
      </trkpt>
      <trkpt lat="44.34792" lon="2.04565">
        <ele>289.7</ele>
        <time>2016-01-03T10:41:21Z</time>
      </trkpt>
      <trkpt lat="44.34795" lon="2.04564">
        <ele>289.6</ele>
        <time>2016-01-03T10:41:22Z</time>
      </trkpt>
      <trkpt lat="44.34798" lon="2.04562">
        <ele>289.5</ele>
        <time>2016-01-03T10:41:23Z</time>
      </trkpt>
      <trkpt lat="44.34802" lon="2.0456">
        <ele>289.6</ele>
        <time>2016-01-03T10:41:24Z</time>
      </trkpt>
      <trkpt lat="44.34806" lon="2.04558">
        <ele>289.5</ele>
        <time>2016-01-03T10:41:25Z</time>
      </trkpt>
      <trkpt lat="44.34811" lon="2.04556">
        <ele>289.4</ele>
        <time>2016-01-03T10:41:26Z</time>
      </trkpt>
      <trkpt lat="44.34815" lon="2.04554">
        <ele>288.9</ele>
        <time>2016-01-03T10:41:27Z</time>
      </trkpt>
      <trkpt lat="44.3482" lon="2.04552">
        <ele>288.9</ele>
        <time>2016-01-03T10:41:28Z</time>
      </trkpt>
      <trkpt lat="44.34824" lon="2.0455">
        <ele>288.6</ele>
        <time>2016-01-03T10:41:29Z</time>
      </trkpt>
      <trkpt lat="44.34829" lon="2.04547">
        <ele>288.4</ele>
        <time>2016-01-03T10:41:30Z</time>
      </trkpt>
      <trkpt lat="44.34833" lon="2.04546">
        <ele>287.7</ele>
        <time>2016-01-03T10:41:31Z</time>
      </trkpt>
      <trkpt lat="44.34838" lon="2.04545">
        <ele>286.7</ele>
        <time>2016-01-03T10:41:32Z</time>
      </trkpt>
      <trkpt lat="44.34844" lon="2.04544">
        <ele>285.7</ele>
        <time>2016-01-03T10:41:33Z</time>
      </trkpt>
      <trkpt lat="44.34849" lon="2.04543">
        <ele>284.7</ele>
        <time>2016-01-03T10:41:34Z</time>
      </trkpt>
      <trkpt lat="44.34855" lon="2.04542">
        <ele>283.9</ele>
        <time>2016-01-03T10:41:35Z</time>
      </trkpt>
      <trkpt lat="44.3486" lon="2.0454">
        <ele>283.4</ele>
        <time>2016-01-03T10:41:36Z</time>
      </trkpt>
      <trkpt lat="44.34866" lon="2.04536">
        <ele>283.2</ele>
        <time>2016-01-03T10:41:37Z</time>
      </trkpt>
      <trkpt lat="44.34872" lon="2.04532">
        <ele>283.6</ele>
        <time>2016-01-03T10:41:38Z</time>
      </trkpt>
      <trkpt lat="44.34877" lon="2.04527">
        <ele>284.1</ele>
        <time>2016-01-03T10:41:39Z</time>
      </trkpt>
      <trkpt lat="44.34882" lon="2.04523">
        <ele>284.2</ele>
        <time>2016-01-03T10:41:40Z</time>
      </trkpt>
      <trkpt lat="44.34887" lon="2.04519">
        <ele>284.4</ele>
        <time>2016-01-03T10:41:41Z</time>
      </trkpt>
      <trkpt lat="44.34891" lon="2.04516">
        <ele>284.5</ele>
        <time>2016-01-03T10:41:42Z</time>
      </trkpt>
      <trkpt lat="44.34894" lon="2.04513">
        <ele>284.6</ele>
        <time>2016-01-03T10:41:43Z</time>
      </trkpt>
      <trkpt lat="44.34898" lon="2.04509">
        <ele>284.6</ele>
        <time>2016-01-03T10:41:44Z</time>
      </trkpt>
      <trkpt lat="44.34902" lon="2.04505">
        <ele>284.9</ele>
        <time>2016-01-03T10:41:45Z</time>
      </trkpt>
      <trkpt lat="44.34905" lon="2.04501">
        <ele>285</ele>
        <time>2016-01-03T10:41:46Z</time>
      </trkpt>
      <trkpt lat="44.34909" lon="2.04496">
        <ele>285.1</ele>
        <time>2016-01-03T10:41:47Z</time>
      </trkpt>
      <trkpt lat="44.34912" lon="2.04491">
        <ele>285</ele>
        <time>2016-01-03T10:41:48Z</time>
      </trkpt>
      <trkpt lat="44.34916" lon="2.04486">
        <ele>285.2</ele>
        <time>2016-01-03T10:41:49Z</time>
      </trkpt>
      <trkpt lat="44.34919" lon="2.04481">
        <ele>285.1</ele>
        <time>2016-01-03T10:41:50Z</time>
      </trkpt>
      <trkpt lat="44.34924" lon="2.04473">
        <ele>285.1</ele>
        <time>2016-01-03T10:41:51Z</time>
      </trkpt>
      <trkpt lat="44.34927" lon="2.04469">
        <ele>284.5</ele>
        <time>2016-01-03T10:41:52Z</time>
      </trkpt>
      <trkpt lat="44.3493" lon="2.04465">
        <ele>283.9</ele>
        <time>2016-01-03T10:41:53Z</time>
      </trkpt>
      <trkpt lat="44.34933" lon="2.0446">
        <ele>283.5</ele>
        <time>2016-01-03T10:41:54Z</time>
      </trkpt>
      <trkpt lat="44.34936" lon="2.04455">
        <ele>282.8</ele>
        <time>2016-01-03T10:41:55Z</time>
      </trkpt>
      <trkpt lat="44.34939" lon="2.0445">
        <ele>282.3</ele>
        <time>2016-01-03T10:41:56Z</time>
      </trkpt>
      <trkpt lat="44.34941" lon="2.04446">
        <ele>281.8</ele>
        <time>2016-01-03T10:41:57Z</time>
      </trkpt>
      <trkpt lat="44.34944" lon="2.04441">
        <ele>281.2</ele>
        <time>2016-01-03T10:41:58Z</time>
      </trkpt>
      <trkpt lat="44.34948" lon="2.04437">
        <ele>279.9</ele>
        <time>2016-01-03T10:41:59Z</time>
      </trkpt>
      <trkpt lat="44.3495" lon="2.0443">
        <ele>279.3</ele>
        <time>2016-01-03T10:42:00Z</time>
      </trkpt>
      <trkpt lat="44.34952" lon="2.04425">
        <ele>278.8</ele>
        <time>2016-01-03T10:42:01Z</time>
      </trkpt>
      <trkpt lat="44.34955" lon="2.0442">
        <ele>278.1</ele>
        <time>2016-01-03T10:42:02Z</time>
      </trkpt>
      <trkpt lat="44.34957" lon="2.04416">
        <ele>277.6</ele>
        <time>2016-01-03T10:42:03Z</time>
      </trkpt>
      <trkpt lat="44.34958" lon="2.04411">
        <ele>277.2</ele>
        <time>2016-01-03T10:42:04Z</time>
      </trkpt>
      <trkpt lat="44.3496" lon="2.04406">
        <ele>277.2</ele>
        <time>2016-01-03T10:42:05Z</time>
      </trkpt>
      <trkpt lat="44.34962" lon="2.04402">
        <ele>277.2</ele>
        <time>2016-01-03T10:42:06Z</time>
      </trkpt>
      <trkpt lat="44.34964" lon="2.04398">
        <ele>277.2</ele>
        <time>2016-01-03T10:42:07Z</time>
      </trkpt>
      <trkpt lat="44.34965" lon="2.04392">
        <ele>277.3</ele>
        <time>2016-01-03T10:42:08Z</time>
      </trkpt>
      <trkpt lat="44.34967" lon="2.04387">
        <ele>277.4</ele>
        <time>2016-01-03T10:42:09Z</time>
      </trkpt>
      <trkpt lat="44.34968" lon="2.04382">
        <ele>277.5</ele>
        <time>2016-01-03T10:42:10Z</time>
      </trkpt>
      <trkpt lat="44.3497" lon="2.04376">
        <ele>277.5</ele>
        <time>2016-01-03T10:42:11Z</time>
      </trkpt>
      <trkpt lat="44.34972" lon="2.04371">
        <ele>277</ele>
        <time>2016-01-03T10:42:12Z</time>
      </trkpt>
      <trkpt lat="44.34973" lon="2.04365">
        <ele>276.6</ele>
        <time>2016-01-03T10:42:13Z</time>
      </trkpt>
      <trkpt lat="44.34975" lon="2.04359">
        <ele>276.1</ele>
        <time>2016-01-03T10:42:14Z</time>
      </trkpt>
      <trkpt lat="44.34976" lon="2.04354">
        <ele>275.8</ele>
        <time>2016-01-03T10:42:15Z</time>
      </trkpt>
      <trkpt lat="44.34976" lon="2.04349">
        <ele>275.6</ele>
        <time>2016-01-03T10:42:16Z</time>
      </trkpt>
      <trkpt lat="44.34977" lon="2.04344">
        <ele>275.4</ele>
        <time>2016-01-03T10:42:17Z</time>
      </trkpt>
      <trkpt lat="44.34977" lon="2.04339">
        <ele>275.3</ele>
        <time>2016-01-03T10:42:18Z</time>
      </trkpt>
      <trkpt lat="44.34978" lon="2.04332">
        <ele>274.9</ele>
        <time>2016-01-03T10:42:20Z</time>
      </trkpt>
      <trkpt lat="44.34979" lon="2.04327">
        <ele>274.6</ele>
        <time>2016-01-03T10:42:21Z</time>
      </trkpt>
      <trkpt lat="44.3498" lon="2.04322">
        <ele>274.2</ele>
        <time>2016-01-03T10:42:22Z</time>
      </trkpt>
      <trkpt lat="44.34981" lon="2.04317">
        <ele>273.9</ele>
        <time>2016-01-03T10:42:23Z</time>
      </trkpt>
      <trkpt lat="44.34983" lon="2.04311">
        <ele>273.4</ele>
        <time>2016-01-03T10:42:24Z</time>
      </trkpt>
      <trkpt lat="44.34985" lon="2.04305">
        <ele>272.8</ele>
        <time>2016-01-03T10:42:25Z</time>
      </trkpt>
      <trkpt lat="44.34986" lon="2.043">
        <ele>272.6</ele>
        <time>2016-01-03T10:42:26Z</time>
      </trkpt>
      <trkpt lat="44.34988" lon="2.04294">
        <ele>271.8</ele>
        <time>2016-01-03T10:42:27Z</time>
      </trkpt>
      <trkpt lat="44.34988" lon="2.04287">
        <ele>271.6</ele>
        <time>2016-01-03T10:42:28Z</time>
      </trkpt>
      <trkpt lat="44.34988" lon="2.04281">
        <ele>271.3</ele>
        <time>2016-01-03T10:42:29Z</time>
      </trkpt>
      <trkpt lat="44.34989" lon="2.04274">
        <ele>270.7</ele>
        <time>2016-01-03T10:42:30Z</time>
      </trkpt>
      <trkpt lat="44.34989" lon="2.04268">
        <ele>270.5</ele>
        <time>2016-01-03T10:42:31Z</time>
      </trkpt>
      <trkpt lat="44.34989" lon="2.04264">
        <ele>270.2</ele>
        <time>2016-01-03T10:42:32Z</time>
      </trkpt>
      <trkpt lat="44.34991" lon="2.04259">
        <ele>269.6</ele>
        <time>2016-01-03T10:42:33Z</time>
      </trkpt>
      <trkpt lat="44.34992" lon="2.04254">
        <ele>269.1</ele>
        <time>2016-01-03T10:42:34Z</time>
      </trkpt>
      <trkpt lat="44.34995" lon="2.04248">
        <ele>268.2</ele>
        <time>2016-01-03T10:42:35Z</time>
      </trkpt>
      <trkpt lat="44.34996" lon="2.04242">
        <ele>267.7</ele>
        <time>2016-01-03T10:42:36Z</time>
      </trkpt>
      <trkpt lat="44.34996" lon="2.04237">
        <ele>267.4</ele>
        <time>2016-01-03T10:42:37Z</time>
      </trkpt>
      <trkpt lat="44.34997" lon="2.04232">
        <ele>267.1</ele>
        <time>2016-01-03T10:42:38Z</time>
      </trkpt>
      <trkpt lat="44.34997" lon="2.04228">
        <ele>266.9</ele>
        <time>2016-01-03T10:42:39Z</time>
      </trkpt>
      <trkpt lat="44.34997" lon="2.04224">
        <ele>266.8</ele>
        <time>2016-01-03T10:42:40Z</time>
      </trkpt>
      <trkpt lat="44.34996" lon="2.0422">
        <ele>266.8</ele>
        <time>2016-01-03T10:42:41Z</time>
      </trkpt>
      <trkpt lat="44.34995" lon="2.04215">
        <ele>266.8</ele>
        <time>2016-01-03T10:42:42Z</time>
      </trkpt>
      <trkpt lat="44.34994" lon="2.04211">
        <ele>266.8</ele>
        <time>2016-01-03T10:42:43Z</time>
      </trkpt>
      <trkpt lat="44.34993" lon="2.04207">
        <ele>266.8</ele>
        <time>2016-01-03T10:42:44Z</time>
      </trkpt>
      <trkpt lat="44.34992" lon="2.04203">
        <ele>266.9</ele>
        <time>2016-01-03T10:42:45Z</time>
      </trkpt>
      <trkpt lat="44.3499" lon="2.04198">
        <ele>267.1</ele>
        <time>2016-01-03T10:42:46Z</time>
      </trkpt>
      <trkpt lat="44.34989" lon="2.04194">
        <ele>267.2</ele>
        <time>2016-01-03T10:42:47Z</time>
      </trkpt>
      <trkpt lat="44.34987" lon="2.04189">
        <ele>267.3</ele>
        <time>2016-01-03T10:42:48Z</time>
      </trkpt>
      <trkpt lat="44.34987" lon="2.04183">
        <ele>267.1</ele>
        <time>2016-01-03T10:42:49Z</time>
      </trkpt>
      <trkpt lat="44.34986" lon="2.04178">
        <ele>267.1</ele>
        <time>2016-01-03T10:42:50Z</time>
      </trkpt>
      <trkpt lat="44.34985" lon="2.04173">
        <ele>267</ele>
        <time>2016-01-03T10:42:51Z</time>
      </trkpt>
      <trkpt lat="44.34984" lon="2.04169">
        <ele>266.9</ele>
        <time>2016-01-03T10:42:52Z</time>
      </trkpt>
      <trkpt lat="44.34984" lon="2.04164">
        <ele>266.8</ele>
        <time>2016-01-03T10:42:53Z</time>
      </trkpt>
      <trkpt lat="44.34986" lon="2.04156">
        <ele>266.1</ele>
        <time>2016-01-03T10:42:54Z</time>
      </trkpt>
      <trkpt lat="44.34985" lon="2.0415">
        <ele>265.9</ele>
        <time>2016-01-03T10:42:55Z</time>
      </trkpt>
      <trkpt lat="44.34984" lon="2.04144">
        <ele>265.9</ele>
        <time>2016-01-03T10:42:56Z</time>
      </trkpt>
      <trkpt lat="44.34983" lon="2.04138">
        <ele>265.8</ele>
        <time>2016-01-03T10:42:57Z</time>
      </trkpt>
      <trkpt lat="44.34981" lon="2.04132">
        <ele>265.8</ele>
        <time>2016-01-03T10:42:58Z</time>
      </trkpt>
      <trkpt lat="44.3498" lon="2.04126">
        <ele>265.8</ele>
        <time>2016-01-03T10:42:59Z</time>
      </trkpt>
      <trkpt lat="44.34978" lon="2.0412">
        <ele>265.6</ele>
        <time>2016-01-03T10:43:00Z</time>
      </trkpt>
      <trkpt lat="44.34977" lon="2.04115">
        <ele>265.5</ele>
        <time>2016-01-03T10:43:01Z</time>
      </trkpt>
      <trkpt lat="44.34976" lon="2.0411">
        <ele>265.3</ele>
        <time>2016-01-03T10:43:02Z</time>
      </trkpt>
      <trkpt lat="44.34975" lon="2.04106">
        <ele>265.2</ele>
        <time>2016-01-03T10:43:03Z</time>
      </trkpt>
      <trkpt lat="44.34973" lon="2.04102">
        <ele>265.1</ele>
        <time>2016-01-03T10:43:05Z</time>
      </trkpt>
      <trkpt lat="44.34973" lon="2.04096">
        <ele>264.8</ele>
        <time>2016-01-03T10:43:06Z</time>
      </trkpt>
      <trkpt lat="44.3497" lon="2.04088">
        <ele>264.5</ele>
        <time>2016-01-03T10:43:07Z</time>
      </trkpt>
      <trkpt lat="44.34969" lon="2.04082">
        <ele>264.2</ele>
        <time>2016-01-03T10:43:08Z</time>
      </trkpt>
      <trkpt lat="44.34969" lon="2.04078">
        <ele>264</ele>
        <time>2016-01-03T10:43:09Z</time>
      </trkpt>
      <trkpt lat="44.34967" lon="2.04074">
        <ele>263.9</ele>
        <time>2016-01-03T10:43:10Z</time>
      </trkpt>
      <trkpt lat="44.34965" lon="2.04069">
        <ele>263.6</ele>
        <time>2016-01-03T10:43:11Z</time>
      </trkpt>
      <trkpt lat="44.34964" lon="2.04064">
        <ele>263.4</ele>
        <time>2016-01-03T10:43:12Z</time>
      </trkpt>
      <trkpt lat="44.34963" lon="2.04058">
        <ele>263</ele>
        <time>2016-01-03T10:43:13Z</time>
      </trkpt>
      <trkpt lat="44.34962" lon="2.04052">
        <ele>262.6</ele>
        <time>2016-01-03T10:43:14Z</time>
      </trkpt>
      <trkpt lat="44.34962" lon="2.04047">
        <ele>262.2</ele>
        <time>2016-01-03T10:43:15Z</time>
      </trkpt>
      <trkpt lat="44.34963" lon="2.04042">
        <ele>261.7</ele>
        <time>2016-01-03T10:43:16Z</time>
      </trkpt>
      <trkpt lat="44.34963" lon="2.04037">
        <ele>261.4</ele>
        <time>2016-01-03T10:43:17Z</time>
      </trkpt>
      <trkpt lat="44.34965" lon="2.0403">
        <ele>261</ele>
        <time>2016-01-03T10:43:18Z</time>
      </trkpt>
      <trkpt lat="44.34965" lon="2.0402">
        <ele>260.4</ele>
        <time>2016-01-03T10:43:20Z</time>
      </trkpt>
      <trkpt lat="44.34963" lon="2.04012">
        <ele>260</ele>
        <time>2016-01-03T10:43:21Z</time>
      </trkpt>
      <trkpt lat="44.34962" lon="2.04005">
        <ele>259.7</ele>
        <time>2016-01-03T10:43:22Z</time>
      </trkpt>
      <trkpt lat="44.34962" lon="2.03998">
        <ele>259.3</ele>
        <time>2016-01-03T10:43:23Z</time>
      </trkpt>
      <trkpt lat="44.34961" lon="2.03991">
        <ele>258.9</ele>
        <time>2016-01-03T10:43:24Z</time>
      </trkpt>
      <trkpt lat="44.3496" lon="2.03985">
        <ele>258.6</ele>
        <time>2016-01-03T10:43:25Z</time>
      </trkpt>
      <trkpt lat="44.34959" lon="2.03979">
        <ele>258.2</ele>
        <time>2016-01-03T10:43:26Z</time>
      </trkpt>
      <trkpt lat="44.34958" lon="2.03973">
        <ele>257.9</ele>
        <time>2016-01-03T10:43:27Z</time>
      </trkpt>
      <trkpt lat="44.34957" lon="2.03968">
        <ele>257.8</ele>
        <time>2016-01-03T10:43:28Z</time>
      </trkpt>
      <trkpt lat="44.34955" lon="2.03961">
        <ele>257.5</ele>
        <time>2016-01-03T10:43:29Z</time>
      </trkpt>
      <trkpt lat="44.34954" lon="2.03956">
        <ele>257.5</ele>
        <time>2016-01-03T10:43:30Z</time>
      </trkpt>
      <trkpt lat="44.34953" lon="2.03951">
        <ele>257.5</ele>
        <time>2016-01-03T10:43:31Z</time>
      </trkpt>
      <trkpt lat="44.34952" lon="2.03945">
        <ele>257.7</ele>
        <time>2016-01-03T10:43:32Z</time>
      </trkpt>
      <trkpt lat="44.3495" lon="2.0394">
        <ele>257.9</ele>
        <time>2016-01-03T10:43:33Z</time>
      </trkpt>
      <trkpt lat="44.34949" lon="2.03934">
        <ele>257.9</ele>
        <time>2016-01-03T10:43:34Z</time>
      </trkpt>
      <trkpt lat="44.34949" lon="2.03929">
        <ele>258</ele>
        <time>2016-01-03T10:43:35Z</time>
      </trkpt>
      <trkpt lat="44.34948" lon="2.03923">
        <ele>258.1</ele>
        <time>2016-01-03T10:43:36Z</time>
      </trkpt>
      <trkpt lat="44.34947" lon="2.03918">
        <ele>258.2</ele>
        <time>2016-01-03T10:43:37Z</time>
      </trkpt>
      <trkpt lat="44.34946" lon="2.03912">
        <ele>258.3</ele>
        <time>2016-01-03T10:43:38Z</time>
      </trkpt>
      <trkpt lat="44.34944" lon="2.03906">
        <ele>258.4</ele>
        <time>2016-01-03T10:43:39Z</time>
      </trkpt>
      <trkpt lat="44.34943" lon="2.039">
        <ele>258.5</ele>
        <time>2016-01-03T10:43:40Z</time>
      </trkpt>
      <trkpt lat="44.34941" lon="2.03894">
        <ele>258.7</ele>
        <time>2016-01-03T10:43:41Z</time>
      </trkpt>
      <trkpt lat="44.3494" lon="2.03889">
        <ele>258.8</ele>
        <time>2016-01-03T10:43:42Z</time>
      </trkpt>
      <trkpt lat="44.34939" lon="2.03884">
        <ele>258.9</ele>
        <time>2016-01-03T10:43:43Z</time>
      </trkpt>
      <trkpt lat="44.34939" lon="2.0388">
        <ele>258.9</ele>
        <time>2016-01-03T10:43:44Z</time>
      </trkpt>
      <trkpt lat="44.34938" lon="2.03875">
        <ele>259</ele>
        <time>2016-01-03T10:43:45Z</time>
      </trkpt>
      <trkpt lat="44.34936" lon="2.0387">
        <ele>259.1</ele>
        <time>2016-01-03T10:43:46Z</time>
      </trkpt>
      <trkpt lat="44.34935" lon="2.03866">
        <ele>259.1</ele>
        <time>2016-01-03T10:43:47Z</time>
      </trkpt>
      <trkpt lat="44.34935" lon="2.03858">
        <ele>259.1</ele>
        <time>2016-01-03T10:43:48Z</time>
      </trkpt>
      <trkpt lat="44.34936" lon="2.03851">
        <ele>259</ele>
        <time>2016-01-03T10:43:49Z</time>
      </trkpt>
      <trkpt lat="44.34939" lon="2.03846">
        <ele>258.8</ele>
        <time>2016-01-03T10:43:50Z</time>
      </trkpt>
      <trkpt lat="44.34941" lon="2.03842">
        <ele>258.6</ele>
        <time>2016-01-03T10:43:51Z</time>
      </trkpt>
      <trkpt lat="44.34943" lon="2.03837">
        <ele>258.4</ele>
        <time>2016-01-03T10:43:52Z</time>
      </trkpt>
      <trkpt lat="44.34944" lon="2.03834">
        <ele>258.4</ele>
        <time>2016-01-03T10:43:53Z</time>
      </trkpt>
      <trkpt lat="44.34943" lon="2.0383">
        <ele>258.4</ele>
        <time>2016-01-03T10:43:54Z</time>
      </trkpt>
      <trkpt lat="44.34943" lon="2.03826">
        <ele>258.4</ele>
        <time>2016-01-03T10:43:55Z</time>
      </trkpt>
      <trkpt lat="44.3494" lon="2.03821">
        <ele>258.6</ele>
        <time>2016-01-03T10:43:56Z</time>
      </trkpt>
      <trkpt lat="44.34938" lon="2.03818">
        <ele>258.6</ele>
        <time>2016-01-03T10:43:57Z</time>
      </trkpt>
      <trkpt lat="44.34936" lon="2.03812">
        <ele>258.7</ele>
        <time>2016-01-03T10:43:59Z</time>
      </trkpt>
      <trkpt lat="44.34934" lon="2.03807">
        <ele>258.7</ele>
        <time>2016-01-03T10:44:01Z</time>
      </trkpt>
      <trkpt lat="44.34931" lon="2.03803">
        <ele>258.8</ele>
        <time>2016-01-03T10:44:02Z</time>
      </trkpt>
      <trkpt lat="44.34928" lon="2.038">
        <ele>258.9</ele>
        <time>2016-01-03T10:44:03Z</time>
      </trkpt>
      <trkpt lat="44.34925" lon="2.03797">
        <ele>258.9</ele>
        <time>2016-01-03T10:44:04Z</time>
      </trkpt>
      <trkpt lat="44.34923" lon="2.03793">
        <ele>258.9</ele>
        <time>2016-01-03T10:44:05Z</time>
      </trkpt>
      <trkpt lat="44.34924" lon="2.03787">
        <ele>258.7</ele>
        <time>2016-01-03T10:44:06Z</time>
      </trkpt>
      <trkpt lat="44.34922" lon="2.03779">
        <ele>258.6</ele>
        <time>2016-01-03T10:44:07Z</time>
      </trkpt>
      <trkpt lat="44.34916" lon="2.03778">
        <ele>258.7</ele>
        <time>2016-01-03T10:44:08Z</time>
      </trkpt>
      <trkpt lat="44.3491" lon="2.03774">
        <ele>258.7</ele>
        <time>2016-01-03T10:44:09Z</time>
      </trkpt>
      <trkpt lat="44.34908" lon="2.03767">
        <ele>258.6</ele>
        <time>2016-01-03T10:44:10Z</time>
      </trkpt>
      <trkpt lat="44.34908" lon="2.03761">
        <ele>258.5</ele>
        <time>2016-01-03T10:44:12Z</time>
      </trkpt>
      <trkpt lat="44.34911" lon="2.03755">
        <ele>258.3</ele>
        <time>2016-01-03T10:44:14Z</time>
      </trkpt>
      <trkpt lat="44.34914" lon="2.03752">
        <ele>258.1</ele>
        <time>2016-01-03T10:44:15Z</time>
      </trkpt>
      <trkpt lat="44.34916" lon="2.0375">
        <ele>258</ele>
        <time>2016-01-03T10:44:16Z</time>
      </trkpt>
      <trkpt lat="44.34919" lon="2.03749">
        <ele>257.9</ele>
        <time>2016-01-03T10:44:17Z</time>
      </trkpt>
      <trkpt lat="44.34923" lon="2.03747">
        <ele>257.8</ele>
        <time>2016-01-03T10:44:18Z</time>
      </trkpt>
      <trkpt lat="44.34926" lon="2.03746">
        <ele>257.7</ele>
        <time>2016-01-03T10:44:19Z</time>
      </trkpt>
      <trkpt lat="44.34929" lon="2.03739">
        <ele>257.4</ele>
        <time>2016-01-03T10:44:20Z</time>
      </trkpt>
      <trkpt lat="44.34933" lon="2.03737">
        <ele>257.3</ele>
        <time>2016-01-03T10:44:21Z</time>
      </trkpt>
      <trkpt lat="44.34937" lon="2.0374">
        <ele>257.3</ele>
        <time>2016-01-03T10:44:23Z</time>
      </trkpt>
      <trkpt lat="44.34941" lon="2.03743">
        <ele>257.2</ele>
        <time>2016-01-03T10:44:25Z</time>
      </trkpt>
      <trkpt lat="44.34943" lon="2.03744">
        <ele>257.2</ele>
        <time>2016-01-03T10:44:26Z</time>
      </trkpt>
      <trkpt lat="44.34947" lon="2.0374">
        <ele>257</ele>
        <time>2016-01-03T10:44:27Z</time>
      </trkpt>
      <trkpt lat="44.34948" lon="2.03734">
        <ele>256.9</ele>
        <time>2016-01-03T10:44:28Z</time>
      </trkpt>
      <trkpt lat="44.34951" lon="2.03732">
        <ele>256.7</ele>
        <time>2016-01-03T10:44:29Z</time>
      </trkpt>
      <trkpt lat="44.34956" lon="2.03728">
        <ele>256.5</ele>
        <time>2016-01-03T10:44:30Z</time>
      </trkpt>
      <trkpt lat="44.34961" lon="2.03728">
        <ele>256.6</ele>
        <time>2016-01-03T10:44:31Z</time>
      </trkpt>
      <trkpt lat="44.34967" lon="2.03728">
        <ele>257</ele>
        <time>2016-01-03T10:44:32Z</time>
      </trkpt>
      <trkpt lat="44.34973" lon="2.03728">
        <ele>257.3</ele>
        <time>2016-01-03T10:44:33Z</time>
      </trkpt>
      <trkpt lat="44.34978" lon="2.03728">
        <ele>257.7</ele>
        <time>2016-01-03T10:44:34Z</time>
      </trkpt>
      <trkpt lat="44.34984" lon="2.03728">
        <ele>258</ele>
        <time>2016-01-03T10:44:35Z</time>
      </trkpt>
      <trkpt lat="44.34989" lon="2.03728">
        <ele>258.3</ele>
        <time>2016-01-03T10:44:36Z</time>
      </trkpt>
      <trkpt lat="44.34993" lon="2.03728">
        <ele>258.5</ele>
        <time>2016-01-03T10:44:37Z</time>
      </trkpt>
      <trkpt lat="44.34998" lon="2.03728">
        <ele>258.8</ele>
        <time>2016-01-03T10:44:38Z</time>
      </trkpt>
      <trkpt lat="44.35003" lon="2.03728">
        <ele>259.1</ele>
        <time>2016-01-03T10:44:39Z</time>
      </trkpt>
      <trkpt lat="44.35007" lon="2.03727">
        <ele>259.4</ele>
        <time>2016-01-03T10:44:40Z</time>
      </trkpt>
      <trkpt lat="44.35012" lon="2.03726">
        <ele>259.7</ele>
        <time>2016-01-03T10:44:41Z</time>
      </trkpt>
      <trkpt lat="44.35016" lon="2.03726">
        <ele>259.9</ele>
        <time>2016-01-03T10:44:42Z</time>
      </trkpt>
      <trkpt lat="44.3502" lon="2.03726">
        <ele>260.1</ele>
        <time>2016-01-03T10:44:43Z</time>
      </trkpt>
      <trkpt lat="44.35024" lon="2.03727">
        <ele>260.4</ele>
        <time>2016-01-03T10:44:44Z</time>
      </trkpt>
      <trkpt lat="44.35027" lon="2.03727">
        <ele>260.6</ele>
        <time>2016-01-03T10:44:45Z</time>
      </trkpt>
      <trkpt lat="44.35031" lon="2.03728">
        <ele>260.8</ele>
        <time>2016-01-03T10:44:46Z</time>
      </trkpt>
      <trkpt lat="44.35034" lon="2.0373">
        <ele>261</ele>
        <time>2016-01-03T10:44:47Z</time>
      </trkpt>
      <trkpt lat="44.35037" lon="2.03731">
        <ele>261.3</ele>
        <time>2016-01-03T10:44:48Z</time>
      </trkpt>
      <trkpt lat="44.3504" lon="2.03732">
        <ele>261.4</ele>
        <time>2016-01-03T10:44:49Z</time>
      </trkpt>
      <trkpt lat="44.35045" lon="2.0373">
        <ele>261.6</ele>
        <time>2016-01-03T10:44:51Z</time>
      </trkpt>
      <trkpt lat="44.35049" lon="2.03728">
        <ele>261.7</ele>
        <time>2016-01-03T10:44:53Z</time>
      </trkpt>
      <trkpt lat="44.35054" lon="2.03728">
        <ele>261.9</ele>
        <time>2016-01-03T10:44:55Z</time>
      </trkpt>
      <trkpt lat="44.35061" lon="2.03727">
        <ele>262.2</ele>
        <time>2016-01-03T10:44:57Z</time>
      </trkpt>
      <trkpt lat="44.35064" lon="2.03727">
        <ele>262.3</ele>
        <time>2016-01-03T10:44:58Z</time>
      </trkpt>
      <trkpt lat="44.3507" lon="2.03727">
        <ele>262.5</ele>
        <time>2016-01-03T10:44:59Z</time>
      </trkpt>
      <trkpt lat="44.35075" lon="2.03728">
        <ele>262.7</ele>
        <time>2016-01-03T10:45:00Z</time>
      </trkpt>
      <trkpt lat="44.3508" lon="2.0373">
        <ele>262.9</ele>
        <time>2016-01-03T10:45:01Z</time>
      </trkpt>
      <trkpt lat="44.35084" lon="2.03731">
        <ele>263.1</ele>
        <time>2016-01-03T10:45:02Z</time>
      </trkpt>
      <trkpt lat="44.35087" lon="2.03732">
        <ele>263.2</ele>
        <time>2016-01-03T10:45:03Z</time>
      </trkpt>
      <trkpt lat="44.35093" lon="2.03732">
        <ele>263.4</ele>
        <time>2016-01-03T10:45:04Z</time>
      </trkpt>
      <trkpt lat="44.35096" lon="2.03734">
        <ele>263.6</ele>
        <time>2016-01-03T10:45:05Z</time>
      </trkpt>
      <trkpt lat="44.35099" lon="2.03736">
        <ele>263.7</ele>
        <time>2016-01-03T10:45:06Z</time>
      </trkpt>
      <trkpt lat="44.35103" lon="2.03738">
        <ele>263.9</ele>
        <time>2016-01-03T10:45:07Z</time>
      </trkpt>
      <trkpt lat="44.35105" lon="2.03741">
        <ele>264.1</ele>
        <time>2016-01-03T10:45:08Z</time>
      </trkpt>
      <trkpt lat="44.35108" lon="2.03743">
        <ele>264.2</ele>
        <time>2016-01-03T10:45:09Z</time>
      </trkpt>
      <trkpt lat="44.35112" lon="2.03746">
        <ele>264.4</ele>
        <time>2016-01-03T10:45:11Z</time>
      </trkpt>
      <trkpt lat="44.35117" lon="2.03749">
        <ele>264.7</ele>
        <time>2016-01-03T10:45:13Z</time>
      </trkpt>
      <trkpt lat="44.35121" lon="2.0375">
        <ele>264.9</ele>
        <time>2016-01-03T10:45:15Z</time>
      </trkpt>
      <trkpt lat="44.35124" lon="2.03751">
        <ele>265</ele>
        <time>2016-01-03T10:45:16Z</time>
      </trkpt>
      <trkpt lat="44.35128" lon="2.03754">
        <ele>265.3</ele>
        <time>2016-01-03T10:45:19Z</time>
      </trkpt>
      <trkpt lat="44.35125" lon="2.03744">
        <ele>264.8</ele>
        <time>2016-01-03T10:45:22Z</time>
      </trkpt>
      <trkpt lat="44.35121" lon="2.03744">
        <ele>264.7</ele>
        <time>2016-01-03T10:45:23Z</time>
      </trkpt>
      <trkpt lat="44.35119" lon="2.03745">
        <ele>264.7</ele>
        <time>2016-01-03T10:45:24Z</time>
      </trkpt>
      <trkpt lat="44.35123" lon="2.03747">
        <ele>264.8</ele>
        <time>2016-01-03T10:45:26Z</time>
      </trkpt>
      <trkpt lat="44.35124" lon="2.0375">
        <ele>265</ele>
        <time>2016-01-03T10:45:27Z</time>
      </trkpt>
      <trkpt lat="44.35133" lon="2.03753">
        <ele>265.6</ele>
        <time>2016-01-03T10:45:28Z</time>
      </trkpt>
      <trkpt lat="44.35137" lon="2.03756">
        <ele>266</ele>
        <time>2016-01-03T10:45:29Z</time>
      </trkpt>
      <trkpt lat="44.35144" lon="2.03759">
        <ele>266.6</ele>
        <time>2016-01-03T10:45:30Z</time>
      </trkpt>
      <trkpt lat="44.35149" lon="2.03761">
        <ele>267.1</ele>
        <time>2016-01-03T10:45:31Z</time>
      </trkpt>
      <trkpt lat="44.35154" lon="2.03763">
        <ele>267.5</ele>
        <time>2016-01-03T10:45:32Z</time>
      </trkpt>
      <trkpt lat="44.35159" lon="2.03767">
        <ele>268</ele>
        <time>2016-01-03T10:45:33Z</time>
      </trkpt>
      <trkpt lat="44.35163" lon="2.03769">
        <ele>268.4</ele>
        <time>2016-01-03T10:45:34Z</time>
      </trkpt>
      <trkpt lat="44.35168" lon="2.0377">
        <ele>268.8</ele>
        <time>2016-01-03T10:45:35Z</time>
      </trkpt>
      <trkpt lat="44.35171" lon="2.03769">
        <ele>269</ele>
        <time>2016-01-03T10:45:36Z</time>
      </trkpt>
      <trkpt lat="44.35173" lon="2.03772">
        <ele>269.3</ele>
        <time>2016-01-03T10:45:38Z</time>
      </trkpt>
      <trkpt lat="44.35176" lon="2.03774">
        <ele>269.6</ele>
        <time>2016-01-03T10:45:39Z</time>
      </trkpt>
      <trkpt lat="44.35183" lon="2.03777">
        <ele>270.3</ele>
        <time>2016-01-03T10:45:40Z</time>
      </trkpt>
      <trkpt lat="44.35187" lon="2.0378">
        <ele>270.7</ele>
        <time>2016-01-03T10:45:41Z</time>
      </trkpt>
      <trkpt lat="44.35193" lon="2.03781">
        <ele>271.2</ele>
        <time>2016-01-03T10:45:42Z</time>
      </trkpt>
      <trkpt lat="44.35198" lon="2.03781">
        <ele>271.7</ele>
        <time>2016-01-03T10:45:43Z</time>
      </trkpt>
      <trkpt lat="44.35203" lon="2.03783">
        <ele>272.1</ele>
        <time>2016-01-03T10:45:44Z</time>
      </trkpt>
      <trkpt lat="44.35206" lon="2.03785">
        <ele>272.4</ele>
        <time>2016-01-03T10:45:45Z</time>
      </trkpt>
      <trkpt lat="44.35209" lon="2.03787">
        <ele>272.8</ele>
        <time>2016-01-03T10:45:46Z</time>
      </trkpt>
      <trkpt lat="44.35213" lon="2.03789">
        <ele>273.2</ele>
        <time>2016-01-03T10:45:47Z</time>
      </trkpt>
      <trkpt lat="44.35217" lon="2.03791">
        <ele>273.5</ele>
        <time>2016-01-03T10:45:48Z</time>
      </trkpt>
      <trkpt lat="44.35221" lon="2.03793">
        <ele>273.9</ele>
        <time>2016-01-03T10:45:49Z</time>
      </trkpt>
      <trkpt lat="44.35225" lon="2.03795">
        <ele>274.1</ele>
        <time>2016-01-03T10:45:50Z</time>
      </trkpt>
      <trkpt lat="44.35229" lon="2.03796">
        <ele>274.4</ele>
        <time>2016-01-03T10:45:51Z</time>
      </trkpt>
      <trkpt lat="44.35233" lon="2.038">
        <ele>274.6</ele>
        <time>2016-01-03T10:45:52Z</time>
      </trkpt>
      <trkpt lat="44.35237" lon="2.038">
        <ele>274.9</ele>
        <time>2016-01-03T10:45:53Z</time>
      </trkpt>
      <trkpt lat="44.35244" lon="2.03796">
        <ele>275.5</ele>
        <time>2016-01-03T10:45:54Z</time>
      </trkpt>
      <trkpt lat="44.35248" lon="2.03788">
        <ele>275.7</ele>
        <time>2016-01-03T10:45:55Z</time>
      </trkpt>
      <trkpt lat="44.35251" lon="2.03793">
        <ele>276</ele>
        <time>2016-01-03T10:45:56Z</time>
      </trkpt>
      <trkpt lat="44.35246" lon="2.03793">
        <ele>275.7</ele>
        <time>2016-01-03T10:45:57Z</time>
      </trkpt>
      <trkpt lat="44.35248" lon="2.03796">
        <ele>275.8</ele>
        <time>2016-01-03T10:46:00Z</time>
      </trkpt>
      <trkpt lat="44.35252" lon="2.03793">
        <ele>276.1</ele>
        <time>2016-01-03T10:46:02Z</time>
      </trkpt>
      <trkpt lat="44.35251" lon="2.03799">
        <ele>275.9</ele>
        <time>2016-01-03T10:46:06Z</time>
      </trkpt>
      <trkpt lat="44.35247" lon="2.03795">
        <ele>275.7</ele>
        <time>2016-01-03T10:46:07Z</time>
      </trkpt>
      <trkpt lat="44.35243" lon="2.03792">
        <ele>275.5</ele>
        <time>2016-01-03T10:46:08Z</time>
      </trkpt>
      <trkpt lat="44.35238" lon="2.03792">
        <ele>275.1</ele>
        <time>2016-01-03T10:46:09Z</time>
      </trkpt>
      <trkpt lat="44.35235" lon="2.03794">
        <ele>274.9</ele>
        <time>2016-01-03T10:46:12Z</time>
      </trkpt>
      <trkpt lat="44.35237" lon="2.038">
        <ele>274.9</ele>
        <time>2016-01-03T10:46:16Z</time>
      </trkpt>
      <trkpt lat="44.3525" lon="2.03808">
        <ele>275.6</ele>
        <time>2016-01-03T10:46:22Z</time>
      </trkpt>
      <trkpt lat="44.35258" lon="2.03805">
        <ele>276.2</ele>
        <time>2016-01-03T10:46:23Z</time>
      </trkpt>
      <trkpt lat="44.35265" lon="2.03803">
        <ele>276.7</ele>
        <time>2016-01-03T10:46:24Z</time>
      </trkpt>
      <trkpt lat="44.35271" lon="2.03801">
        <ele>277.2</ele>
        <time>2016-01-03T10:46:25Z</time>
      </trkpt>
      <trkpt lat="44.35275" lon="2.03799">
        <ele>277.5</ele>
        <time>2016-01-03T10:46:26Z</time>
      </trkpt>
      <trkpt lat="44.35279" lon="2.03798">
        <ele>277.9</ele>
        <time>2016-01-03T10:46:27Z</time>
      </trkpt>
      <trkpt lat="44.35284" lon="2.03796">
        <ele>278.3</ele>
        <time>2016-01-03T10:46:28Z</time>
      </trkpt>
      <trkpt lat="44.35289" lon="2.03794">
        <ele>278.7</ele>
        <time>2016-01-03T10:46:29Z</time>
      </trkpt>
      <trkpt lat="44.35292" lon="2.03792">
        <ele>279</ele>
        <time>2016-01-03T10:46:30Z</time>
      </trkpt>
      <trkpt lat="44.35296" lon="2.03792">
        <ele>279.1</ele>
        <time>2016-01-03T10:46:31Z</time>
      </trkpt>
      <trkpt lat="44.353" lon="2.03793">
        <ele>279.1</ele>
        <time>2016-01-03T10:46:32Z</time>
      </trkpt>
      <trkpt lat="44.35306" lon="2.03792">
        <ele>279.3</ele>
        <time>2016-01-03T10:46:33Z</time>
      </trkpt>
      <trkpt lat="44.3531" lon="2.03792">
        <ele>279.4</ele>
        <time>2016-01-03T10:46:34Z</time>
      </trkpt>
      <trkpt lat="44.35313" lon="2.03792">
        <ele>279.5</ele>
        <time>2016-01-03T10:46:36Z</time>
      </trkpt>
      <trkpt lat="44.35318" lon="2.03791">
        <ele>279.6</ele>
        <time>2016-01-03T10:46:38Z</time>
      </trkpt>
      <trkpt lat="44.35323" lon="2.03792">
        <ele>279.8</ele>
        <time>2016-01-03T10:46:40Z</time>
      </trkpt>
      <trkpt lat="44.35328" lon="2.0379">
        <ele>279.8</ele>
        <time>2016-01-03T10:46:42Z</time>
      </trkpt>
      <trkpt lat="44.35332" lon="2.03791">
        <ele>280</ele>
        <time>2016-01-03T10:46:44Z</time>
      </trkpt>
      <trkpt lat="44.35336" lon="2.03792">
        <ele>280</ele>
        <time>2016-01-03T10:46:46Z</time>
      </trkpt>
      <trkpt lat="44.35339" lon="2.03795">
        <ele>280</ele>
        <time>2016-01-03T10:46:48Z</time>
      </trkpt>
      <trkpt lat="44.35343" lon="2.03799">
        <ele>279.9</ele>
        <time>2016-01-03T10:46:50Z</time>
      </trkpt>
      <trkpt lat="44.35346" lon="2.03801">
        <ele>279.9</ele>
        <time>2016-01-03T10:46:52Z</time>
      </trkpt>
      <trkpt lat="44.3535" lon="2.03803">
        <ele>279.9</ele>
        <time>2016-01-03T10:46:53Z</time>
      </trkpt>
      <trkpt lat="44.35353" lon="2.03805">
        <ele>279.9</ele>
        <time>2016-01-03T10:46:54Z</time>
      </trkpt>
      <trkpt lat="44.35357" lon="2.03806">
        <ele>279.9</ele>
        <time>2016-01-03T10:46:55Z</time>
      </trkpt>
      <trkpt lat="44.3536" lon="2.03807">
        <ele>279.9</ele>
        <time>2016-01-03T10:46:56Z</time>
      </trkpt>
      <trkpt lat="44.35364" lon="2.03808">
        <ele>280</ele>
        <time>2016-01-03T10:46:58Z</time>
      </trkpt>
      <trkpt lat="44.35367" lon="2.03809">
        <ele>280</ele>
        <time>2016-01-03T10:47:00Z</time>
      </trkpt>
      <trkpt lat="44.35371" lon="2.0381">
        <ele>280</ele>
        <time>2016-01-03T10:47:02Z</time>
      </trkpt>
      <trkpt lat="44.35375" lon="2.03811">
        <ele>280.1</ele>
        <time>2016-01-03T10:47:03Z</time>
      </trkpt>
      <trkpt lat="44.3538" lon="2.03812">
        <ele>280.3</ele>
        <time>2016-01-03T10:47:05Z</time>
      </trkpt>
      <trkpt lat="44.35385" lon="2.03811">
        <ele>280.6</ele>
        <time>2016-01-03T10:47:07Z</time>
      </trkpt>
      <trkpt lat="44.35389" lon="2.03811">
        <ele>280.8</ele>
        <time>2016-01-03T10:47:09Z</time>
      </trkpt>
      <trkpt lat="44.35393" lon="2.03811">
        <ele>281.1</ele>
        <time>2016-01-03T10:47:10Z</time>
      </trkpt>
      <trkpt lat="44.35396" lon="2.03808">
        <ele>281.3</ele>
        <time>2016-01-03T10:47:11Z</time>
      </trkpt>
      <trkpt lat="44.35398" lon="2.03805">
        <ele>281.6</ele>
        <time>2016-01-03T10:47:12Z</time>
      </trkpt>
      <trkpt lat="44.35402" lon="2.03802">
        <ele>281.8</ele>
        <time>2016-01-03T10:47:14Z</time>
      </trkpt>
      <trkpt lat="44.35405" lon="2.03803">
        <ele>282</ele>
        <time>2016-01-03T10:47:18Z</time>
      </trkpt>
      <trkpt lat="44.35409" lon="2.03801">
        <ele>282.3</ele>
        <time>2016-01-03T10:47:28Z</time>
      </trkpt>
      <trkpt lat="44.35413" lon="2.03799">
        <ele>282.6</ele>
        <time>2016-01-03T10:47:30Z</time>
      </trkpt>
      <trkpt lat="44.35415" lon="2.03795">
        <ele>282.8</ele>
        <time>2016-01-03T10:47:33Z</time>
      </trkpt>
      <trkpt lat="44.35419" lon="2.03792">
        <ele>283.1</ele>
        <time>2016-01-03T10:47:35Z</time>
      </trkpt>
      <trkpt lat="44.35423" lon="2.03787">
        <ele>283.4</ele>
        <time>2016-01-03T10:47:37Z</time>
      </trkpt>
      <trkpt lat="44.35426" lon="2.03784">
        <ele>283.7</ele>
        <time>2016-01-03T10:47:39Z</time>
      </trkpt>
      <trkpt lat="44.35427" lon="2.03777">
        <ele>283.9</ele>
        <time>2016-01-03T10:47:41Z</time>
      </trkpt>
      <trkpt lat="44.35428" lon="2.03772">
        <ele>284.1</ele>
        <time>2016-01-03T10:47:43Z</time>
      </trkpt>
      <trkpt lat="44.35428" lon="2.03766">
        <ele>284.3</ele>
        <time>2016-01-03T10:47:45Z</time>
      </trkpt>
      <trkpt lat="44.35429" lon="2.03762">
        <ele>284.5</ele>
        <time>2016-01-03T10:47:47Z</time>
      </trkpt>
      <trkpt lat="44.3543" lon="2.03756">
        <ele>284.7</ele>
        <time>2016-01-03T10:47:49Z</time>
      </trkpt>
      <trkpt lat="44.35429" lon="2.03752">
        <ele>284.8</ele>
        <time>2016-01-03T10:47:50Z</time>
      </trkpt>
      <trkpt lat="44.35428" lon="2.03747">
        <ele>284.9</ele>
        <time>2016-01-03T10:47:52Z</time>
      </trkpt>
      <trkpt lat="44.35428" lon="2.03742">
        <ele>285</ele>
        <time>2016-01-03T10:47:54Z</time>
      </trkpt>
      <trkpt lat="44.35429" lon="2.03739">
        <ele>285.2</ele>
        <time>2016-01-03T10:47:56Z</time>
      </trkpt>
      <trkpt lat="44.3543" lon="2.03735">
        <ele>285.5</ele>
        <time>2016-01-03T10:47:58Z</time>
      </trkpt>
      <trkpt lat="44.35433" lon="2.03732">
        <ele>285.8</ele>
        <time>2016-01-03T10:48:01Z</time>
      </trkpt>
      <trkpt lat="44.35436" lon="2.0373">
        <ele>286.1</ele>
        <time>2016-01-03T10:48:03Z</time>
      </trkpt>
      <trkpt lat="44.35439" lon="2.03727">
        <ele>286.4</ele>
        <time>2016-01-03T10:48:05Z</time>
      </trkpt>
      <trkpt lat="44.35443" lon="2.03726">
        <ele>286.8</ele>
        <time>2016-01-03T10:48:08Z</time>
      </trkpt>
      <trkpt lat="44.35446" lon="2.03723">
        <ele>287.2</ele>
        <time>2016-01-03T10:48:09Z</time>
      </trkpt>
      <trkpt lat="44.3545" lon="2.0372">
        <ele>287.7</ele>
        <time>2016-01-03T10:48:11Z</time>
      </trkpt>
      <trkpt lat="44.35452" lon="2.03716">
        <ele>288.1</ele>
        <time>2016-01-03T10:48:13Z</time>
      </trkpt>
      <trkpt lat="44.35456" lon="2.03717">
        <ele>288.3</ele>
        <time>2016-01-03T10:48:17Z</time>
      </trkpt>
      <trkpt lat="44.35459" lon="2.03719">
        <ele>288.5</ele>
        <time>2016-01-03T10:48:20Z</time>
      </trkpt>
      <trkpt lat="44.35462" lon="2.0372">
        <ele>289.1</ele>
        <time>2016-01-03T10:48:23Z</time>
      </trkpt>
      <trkpt lat="44.35465" lon="2.03722">
        <ele>289.5</ele>
        <time>2016-01-03T10:48:25Z</time>
      </trkpt>
      <trkpt lat="44.35469" lon="2.03724">
        <ele>290</ele>
        <time>2016-01-03T10:48:28Z</time>
      </trkpt>
      <trkpt lat="44.35472" lon="2.03728">
        <ele>290.5</ele>
        <time>2016-01-03T10:48:31Z</time>
      </trkpt>
      <trkpt lat="44.35475" lon="2.03731">
        <ele>290.8</ele>
        <time>2016-01-03T10:48:34Z</time>
      </trkpt>
      <trkpt lat="44.35477" lon="2.03734">
        <ele>291</ele>
        <time>2016-01-03T10:48:36Z</time>
      </trkpt>
      <trkpt lat="44.35479" lon="2.03739">
        <ele>291.1</ele>
        <time>2016-01-03T10:48:39Z</time>
      </trkpt>
      <trkpt lat="44.3548" lon="2.03745">
        <ele>291.2</ele>
        <time>2016-01-03T10:48:42Z</time>
      </trkpt>
      <trkpt lat="44.35483" lon="2.03748">
        <ele>291.6</ele>
        <time>2016-01-03T10:48:46Z</time>
      </trkpt>
      <trkpt lat="44.35487" lon="2.03751">
        <ele>292</ele>
        <time>2016-01-03T10:48:48Z</time>
      </trkpt>
      <trkpt lat="44.35491" lon="2.03753">
        <ele>292.7</ele>
        <time>2016-01-03T10:48:50Z</time>
      </trkpt>
      <trkpt lat="44.35493" lon="2.03757">
        <ele>293</ele>
        <time>2016-01-03T10:48:53Z</time>
      </trkpt>
      <trkpt lat="44.35495" lon="2.03761">
        <ele>293.2</ele>
        <time>2016-01-03T10:48:55Z</time>
      </trkpt>
      <trkpt lat="44.35498" lon="2.03762">
        <ele>293.7</ele>
        <time>2016-01-03T10:48:58Z</time>
      </trkpt>
      <trkpt lat="44.35501" lon="2.03766">
        <ele>294.1</ele>
        <time>2016-01-03T10:49:01Z</time>
      </trkpt>
      <trkpt lat="44.35503" lon="2.0377">
        <ele>294.3</ele>
        <time>2016-01-03T10:49:04Z</time>
      </trkpt>
      <trkpt lat="44.35505" lon="2.03773">
        <ele>294.6</ele>
        <time>2016-01-03T10:49:07Z</time>
      </trkpt>
      <trkpt lat="44.35507" lon="2.03776">
        <ele>294.9</ele>
        <time>2016-01-03T10:49:10Z</time>
      </trkpt>
      <trkpt lat="44.3551" lon="2.03779">
        <ele>295.3</ele>
        <time>2016-01-03T10:49:12Z</time>
      </trkpt>
      <trkpt lat="44.35513" lon="2.03781">
        <ele>295.8</ele>
        <time>2016-01-03T10:49:15Z</time>
      </trkpt>
      <trkpt lat="44.35517" lon="2.03783">
        <ele>296.5</ele>
        <time>2016-01-03T10:49:17Z</time>
      </trkpt>
      <trkpt lat="44.3552" lon="2.03785">
        <ele>297</ele>
        <time>2016-01-03T10:49:19Z</time>
      </trkpt>
      <trkpt lat="44.35524" lon="2.03788">
        <ele>297.8</ele>
        <time>2016-01-03T10:49:21Z</time>
      </trkpt>
      <trkpt lat="44.35531" lon="2.0379">
        <ele>298.9</ele>
        <time>2016-01-03T10:49:23Z</time>
      </trkpt>
      <trkpt lat="44.35535" lon="2.03791">
        <ele>299.8</ele>
        <time>2016-01-03T10:49:25Z</time>
      </trkpt>
      <trkpt lat="44.35538" lon="2.03793">
        <ele>300.2</ele>
        <time>2016-01-03T10:49:27Z</time>
      </trkpt>
      <trkpt lat="44.3554" lon="2.03795">
        <ele>300.5</ele>
        <time>2016-01-03T10:49:29Z</time>
      </trkpt>
      <trkpt lat="44.35543" lon="2.03797">
        <ele>300.9</ele>
        <time>2016-01-03T10:49:31Z</time>
      </trkpt>
      <trkpt lat="44.35547" lon="2.03799">
        <ele>301.3</ele>
        <time>2016-01-03T10:49:33Z</time>
      </trkpt>
      <trkpt lat="44.35551" lon="2.03801">
        <ele>301.7</ele>
        <time>2016-01-03T10:49:35Z</time>
      </trkpt>
      <trkpt lat="44.35555" lon="2.03802">
        <ele>302.2</ele>
        <time>2016-01-03T10:49:37Z</time>
      </trkpt>
      <trkpt lat="44.35558" lon="2.03803">
        <ele>302.6</ele>
        <time>2016-01-03T10:49:39Z</time>
      </trkpt>
      <trkpt lat="44.35561" lon="2.03805">
        <ele>302.9</ele>
        <time>2016-01-03T10:49:41Z</time>
      </trkpt>
      <trkpt lat="44.35564" lon="2.03805">
        <ele>303.4</ele>
        <time>2016-01-03T10:49:43Z</time>
      </trkpt>
      <trkpt lat="44.35568" lon="2.03806">
        <ele>303.8</ele>
        <time>2016-01-03T10:49:45Z</time>
      </trkpt>
      <trkpt lat="44.35572" lon="2.03807">
        <ele>304.3</ele>
        <time>2016-01-03T10:49:47Z</time>
      </trkpt>
      <trkpt lat="44.35575" lon="2.03808">
        <ele>304.6</ele>
        <time>2016-01-03T10:49:49Z</time>
      </trkpt>
      <trkpt lat="44.35579" lon="2.03808">
        <ele>305.1</ele>
        <time>2016-01-03T10:49:51Z</time>
      </trkpt>
      <trkpt lat="44.35582" lon="2.03809">
        <ele>305.6</ele>
        <time>2016-01-03T10:49:53Z</time>
      </trkpt>
      <trkpt lat="44.35587" lon="2.0381">
        <ele>306.2</ele>
        <time>2016-01-03T10:49:55Z</time>
      </trkpt>
      <trkpt lat="44.35591" lon="2.0381">
        <ele>306.7</ele>
        <time>2016-01-03T10:49:57Z</time>
      </trkpt>
      <trkpt lat="44.35595" lon="2.03811">
        <ele>307.2</ele>
        <time>2016-01-03T10:49:59Z</time>
      </trkpt>
      <trkpt lat="44.35599" lon="2.03812">
        <ele>307.7</ele>
        <time>2016-01-03T10:50:01Z</time>
      </trkpt>
      <trkpt lat="44.35602" lon="2.03813">
        <ele>308.1</ele>
        <time>2016-01-03T10:50:02Z</time>
      </trkpt>
      <trkpt lat="44.35606" lon="2.03815">
        <ele>308.5</ele>
        <time>2016-01-03T10:50:04Z</time>
      </trkpt>
      <trkpt lat="44.3561" lon="2.03818">
        <ele>308.8</ele>
        <time>2016-01-03T10:50:06Z</time>
      </trkpt>
      <trkpt lat="44.35613" lon="2.03818">
        <ele>309.1</ele>
        <time>2016-01-03T10:50:07Z</time>
      </trkpt>
      <trkpt lat="44.35617" lon="2.03816">
        <ele>309.8</ele>
        <time>2016-01-03T10:50:08Z</time>
      </trkpt>
      <trkpt lat="44.3562" lon="2.03818">
        <ele>310</ele>
        <time>2016-01-03T10:50:10Z</time>
      </trkpt>
      <trkpt lat="44.35623" lon="2.03823">
        <ele>310</ele>
        <time>2016-01-03T10:50:12Z</time>
      </trkpt>
      <trkpt lat="44.35625" lon="2.03823">
        <ele>310.4</ele>
        <time>2016-01-03T10:50:13Z</time>
      </trkpt>
      <trkpt lat="44.3563" lon="2.03824">
        <ele>310.7</ele>
        <time>2016-01-03T10:50:15Z</time>
      </trkpt>
      <trkpt lat="44.35635" lon="2.03826">
        <ele>310.9</ele>
        <time>2016-01-03T10:50:17Z</time>
      </trkpt>
      <trkpt lat="44.35637" lon="2.03827">
        <ele>311</ele>
        <time>2016-01-03T10:50:18Z</time>
      </trkpt>
      <trkpt lat="44.3564" lon="2.03829">
        <ele>311</ele>
        <time>2016-01-03T10:50:19Z</time>
      </trkpt>
      <trkpt lat="44.35643" lon="2.03828">
        <ele>311.3</ele>
        <time>2016-01-03T10:50:20Z</time>
      </trkpt>
      <trkpt lat="44.35646" lon="2.03829">
        <ele>311.5</ele>
        <time>2016-01-03T10:50:21Z</time>
      </trkpt>
      <trkpt lat="44.3565" lon="2.0383">
        <ele>311.7</ele>
        <time>2016-01-03T10:50:23Z</time>
      </trkpt>
      <trkpt lat="44.35653" lon="2.03834">
        <ele>311.7</ele>
        <time>2016-01-03T10:50:25Z</time>
      </trkpt>
      <trkpt lat="44.35658" lon="2.03836">
        <ele>311.9</ele>
        <time>2016-01-03T10:50:27Z</time>
      </trkpt>
      <trkpt lat="44.35663" lon="2.03838">
        <ele>312.1</ele>
        <time>2016-01-03T10:50:29Z</time>
      </trkpt>
      <trkpt lat="44.35667" lon="2.03837">
        <ele>312.5</ele>
        <time>2016-01-03T10:50:30Z</time>
      </trkpt>
      <trkpt lat="44.3567" lon="2.03837">
        <ele>312.7</ele>
        <time>2016-01-03T10:50:31Z</time>
      </trkpt>
      <trkpt lat="44.35673" lon="2.03836">
        <ele>313</ele>
        <time>2016-01-03T10:50:32Z</time>
      </trkpt>
      <trkpt lat="44.35678" lon="2.03838">
        <ele>313.3</ele>
        <time>2016-01-03T10:50:34Z</time>
      </trkpt>
      <trkpt lat="44.35682" lon="2.03839">
        <ele>313.5</ele>
        <time>2016-01-03T10:50:35Z</time>
      </trkpt>
      <trkpt lat="44.35685" lon="2.03841">
        <ele>313.6</ele>
        <time>2016-01-03T10:50:36Z</time>
      </trkpt>
      <trkpt lat="44.35689" lon="2.03843">
        <ele>313.8</ele>
        <time>2016-01-03T10:50:37Z</time>
      </trkpt>
      <trkpt lat="44.35693" lon="2.03844">
        <ele>314</ele>
        <time>2016-01-03T10:50:38Z</time>
      </trkpt>
      <trkpt lat="44.35696" lon="2.03844">
        <ele>314.3</ele>
        <time>2016-01-03T10:50:39Z</time>
      </trkpt>
      <trkpt lat="44.35699" lon="2.03845">
        <ele>314.4</ele>
        <time>2016-01-03T10:50:40Z</time>
      </trkpt>
      <trkpt lat="44.35702" lon="2.03847">
        <ele>314.5</ele>
        <time>2016-01-03T10:50:41Z</time>
      </trkpt>
      <trkpt lat="44.35705" lon="2.03848">
        <ele>314.7</ele>
        <time>2016-01-03T10:50:42Z</time>
      </trkpt>
      <trkpt lat="44.35708" lon="2.0385">
        <ele>314.8</ele>
        <time>2016-01-03T10:50:43Z</time>
      </trkpt>
      <trkpt lat="44.35711" lon="2.03851">
        <ele>314.9</ele>
        <time>2016-01-03T10:50:44Z</time>
      </trkpt>
      <trkpt lat="44.35714" lon="2.03852">
        <ele>314.9</ele>
        <time>2016-01-03T10:50:45Z</time>
      </trkpt>
      <trkpt lat="44.35717" lon="2.03854">
        <ele>314.9</ele>
        <time>2016-01-03T10:50:46Z</time>
      </trkpt>
      <trkpt lat="44.3572" lon="2.03857">
        <ele>314.8</ele>
        <time>2016-01-03T10:50:48Z</time>
      </trkpt>
      <trkpt lat="44.35718" lon="2.03863">
        <ele>314.4</ele>
        <time>2016-01-03T10:50:49Z</time>
      </trkpt>
      <trkpt lat="44.3572" lon="2.03856">
        <ele>314.9</ele>
        <time>2016-01-03T10:50:50Z</time>
      </trkpt>
      <trkpt lat="44.35723" lon="2.03856">
        <ele>315.1</ele>
        <time>2016-01-03T10:50:51Z</time>
      </trkpt>
      <trkpt lat="44.35728" lon="2.03856">
        <ele>315.3</ele>
        <time>2016-01-03T10:50:52Z</time>
      </trkpt>
      <trkpt lat="44.35731" lon="2.03858">
        <ele>315.4</ele>
        <time>2016-01-03T10:50:53Z</time>
      </trkpt>
      <trkpt lat="44.35735" lon="2.03858">
        <ele>315.5</ele>
        <time>2016-01-03T10:50:54Z</time>
      </trkpt>
      <trkpt lat="44.35738" lon="2.0386">
        <ele>315.5</ele>
        <time>2016-01-03T10:50:55Z</time>
      </trkpt>
      <trkpt lat="44.35742" lon="2.0386">
        <ele>315.7</ele>
        <time>2016-01-03T10:50:56Z</time>
      </trkpt>
      <trkpt lat="44.35746" lon="2.03862">
        <ele>315.7</ele>
        <time>2016-01-03T10:50:57Z</time>
      </trkpt>
      <trkpt lat="44.35749" lon="2.03863">
        <ele>315.8</ele>
        <time>2016-01-03T10:50:58Z</time>
      </trkpt>
      <trkpt lat="44.35753" lon="2.03864">
        <ele>315.9</ele>
        <time>2016-01-03T10:50:59Z</time>
      </trkpt>
      <trkpt lat="44.35757" lon="2.03865">
        <ele>316</ele>
        <time>2016-01-03T10:51:00Z</time>
      </trkpt>
      <trkpt lat="44.35761" lon="2.03866">
        <ele>316.1</ele>
        <time>2016-01-03T10:51:01Z</time>
      </trkpt>
      <trkpt lat="44.35764" lon="2.03868">
        <ele>316.2</ele>
        <time>2016-01-03T10:51:02Z</time>
      </trkpt>
      <trkpt lat="44.35766" lon="2.0387">
        <ele>316.1</ele>
        <time>2016-01-03T10:51:03Z</time>
      </trkpt>
      <trkpt lat="44.35769" lon="2.03873">
        <ele>316.1</ele>
        <time>2016-01-03T10:51:04Z</time>
      </trkpt>
      <trkpt lat="44.35771" lon="2.03876">
        <ele>316</ele>
        <time>2016-01-03T10:51:05Z</time>
      </trkpt>
      <trkpt lat="44.35774" lon="2.03878">
        <ele>315.8</ele>
        <time>2016-01-03T10:51:06Z</time>
      </trkpt>
      <trkpt lat="44.35777" lon="2.03882">
        <ele>315.6</ele>
        <time>2016-01-03T10:51:07Z</time>
      </trkpt>
      <trkpt lat="44.35778" lon="2.03887">
        <ele>315.2</ele>
        <time>2016-01-03T10:51:08Z</time>
      </trkpt>
      <trkpt lat="44.35781" lon="2.03891">
        <ele>315</ele>
        <time>2016-01-03T10:51:09Z</time>
      </trkpt>
      <trkpt lat="44.35778" lon="2.03897">
        <ele>314.2</ele>
        <time>2016-01-03T10:51:10Z</time>
      </trkpt>
      <trkpt lat="44.35782" lon="2.039">
        <ele>314.2</ele>
        <time>2016-01-03T10:51:11Z</time>
      </trkpt>
      <trkpt lat="44.35787" lon="2.03905">
        <ele>314.1</ele>
        <time>2016-01-03T10:51:12Z</time>
      </trkpt>
      <trkpt lat="44.35791" lon="2.03908">
        <ele>314.2</ele>
        <time>2016-01-03T10:51:13Z</time>
      </trkpt>
      <trkpt lat="44.35796" lon="2.03909">
        <ele>314.4</ele>
        <time>2016-01-03T10:51:14Z</time>
      </trkpt>
      <trkpt lat="44.358" lon="2.03911">
        <ele>314.5</ele>
        <time>2016-01-03T10:51:15Z</time>
      </trkpt>
      <trkpt lat="44.35803" lon="2.03913">
        <ele>314.5</ele>
        <time>2016-01-03T10:51:16Z</time>
      </trkpt>
      <trkpt lat="44.35801" lon="2.03919">
        <ele>314</ele>
        <time>2016-01-03T10:51:21Z</time>
      </trkpt>
      <trkpt lat="44.35801" lon="2.03923">
        <ele>313.6</ele>
        <time>2016-01-03T10:51:22Z</time>
      </trkpt>
      <trkpt lat="44.35803" lon="2.03929">
        <ele>313.3</ele>
        <time>2016-01-03T10:51:24Z</time>
      </trkpt>
      <trkpt lat="44.35807" lon="2.03933">
        <ele>313.3</ele>
        <time>2016-01-03T10:51:26Z</time>
      </trkpt>
      <trkpt lat="44.35809" lon="2.03938">
        <ele>313.1</ele>
        <time>2016-01-03T10:51:28Z</time>
      </trkpt>
      <trkpt lat="44.35811" lon="2.03943">
        <ele>313</ele>
        <time>2016-01-03T10:51:30Z</time>
      </trkpt>
      <trkpt lat="44.35813" lon="2.0395">
        <ele>312.6</ele>
        <time>2016-01-03T10:51:32Z</time>
      </trkpt>
      <trkpt lat="44.35814" lon="2.03955">
        <ele>312.4</ele>
        <time>2016-01-03T10:51:33Z</time>
      </trkpt>
      <trkpt lat="44.35816" lon="2.03958">
        <ele>312.3</ele>
        <time>2016-01-03T10:51:34Z</time>
      </trkpt>
      <trkpt lat="44.35817" lon="2.03962">
        <ele>312.5</ele>
        <time>2016-01-03T10:51:36Z</time>
      </trkpt>
      <trkpt lat="44.35816" lon="2.03966">
        <ele>312.4</ele>
        <time>2016-01-03T10:51:38Z</time>
      </trkpt>
      <trkpt lat="44.35816" lon="2.03973">
        <ele>312.4</ele>
        <time>2016-01-03T10:51:40Z</time>
      </trkpt>
      <trkpt lat="44.35817" lon="2.03981">
        <ele>312.6</ele>
        <time>2016-01-03T10:51:42Z</time>
      </trkpt>
      <trkpt lat="44.35818" lon="2.03988">
        <ele>312.7</ele>
        <time>2016-01-03T10:51:44Z</time>
      </trkpt>
      <trkpt lat="44.35819" lon="2.04">
        <ele>313</ele>
        <time>2016-01-03T10:51:47Z</time>
      </trkpt>
      <trkpt lat="44.35817" lon="2.04008">
        <ele>312.8</ele>
        <time>2016-01-03T10:51:48Z</time>
      </trkpt>
      <trkpt lat="44.35814" lon="2.04015">
        <ele>312.7</ele>
        <time>2016-01-03T10:51:49Z</time>
      </trkpt>
      <trkpt lat="44.35816" lon="2.04019">
        <ele>312.9</ele>
        <time>2016-01-03T10:51:51Z</time>
      </trkpt>
      <trkpt lat="44.35817" lon="2.04023">
        <ele>312.9</ele>
        <time>2016-01-03T10:51:53Z</time>
      </trkpt>
      <trkpt lat="44.35815" lon="2.04027">
        <ele>312.8</ele>
        <time>2016-01-03T10:51:59Z</time>
      </trkpt>
      <trkpt lat="44.35813" lon="2.04031">
        <ele>312.7</ele>
        <time>2016-01-03T10:52:01Z</time>
      </trkpt>
      <trkpt lat="44.35811" lon="2.04035">
        <ele>312.6</ele>
        <time>2016-01-03T10:52:03Z</time>
      </trkpt>
      <trkpt lat="44.35811" lon="2.04041">
        <ele>312.6</ele>
        <time>2016-01-03T10:52:05Z</time>
      </trkpt>
      <trkpt lat="44.35813" lon="2.04045">
        <ele>313.1</ele>
        <time>2016-01-03T10:52:06Z</time>
      </trkpt>
      <trkpt lat="44.35814" lon="2.0405">
        <ele>313.7</ele>
        <time>2016-01-03T10:52:08Z</time>
      </trkpt>
      <trkpt lat="44.35815" lon="2.04056">
        <ele>314.3</ele>
        <time>2016-01-03T10:52:10Z</time>
      </trkpt>
      <trkpt lat="44.35816" lon="2.04061">
        <ele>314.9</ele>
        <time>2016-01-03T10:52:12Z</time>
      </trkpt>
      <trkpt lat="44.35818" lon="2.04065">
        <ele>315.5</ele>
        <time>2016-01-03T10:52:14Z</time>
      </trkpt>
      <trkpt lat="44.35818" lon="2.0407">
        <ele>315.9</ele>
        <time>2016-01-03T10:52:16Z</time>
      </trkpt>
      <trkpt lat="44.35817" lon="2.04075">
        <ele>316.3</ele>
        <time>2016-01-03T10:52:18Z</time>
      </trkpt>
      <trkpt lat="44.35816" lon="2.0408">
        <ele>316.7</ele>
        <time>2016-01-03T10:52:19Z</time>
      </trkpt>
      <trkpt lat="44.35815" lon="2.04084">
        <ele>317.1</ele>
        <time>2016-01-03T10:52:21Z</time>
      </trkpt>
      <trkpt lat="44.35815" lon="2.04089">
        <ele>317.6</ele>
        <time>2016-01-03T10:52:23Z</time>
      </trkpt>
      <trkpt lat="44.35816" lon="2.04094">
        <ele>318.1</ele>
        <time>2016-01-03T10:52:25Z</time>
      </trkpt>
      <trkpt lat="44.35817" lon="2.04097">
        <ele>318.5</ele>
        <time>2016-01-03T10:52:27Z</time>
      </trkpt>
      <trkpt lat="44.35813" lon="2.04096">
        <ele>318.1</ele>
        <time>2016-01-03T10:52:29Z</time>
      </trkpt>
      <trkpt lat="44.35811" lon="2.04092">
        <ele>317.6</ele>
        <time>2016-01-03T10:52:30Z</time>
      </trkpt>
      <trkpt lat="44.35807" lon="2.04093">
        <ele>317.4</ele>
        <time>2016-01-03T10:52:32Z</time>
      </trkpt>
      <trkpt lat="44.35811" lon="2.04102">
        <ele>318.6</ele>
        <time>2016-01-03T10:52:33Z</time>
      </trkpt>
      <trkpt lat="44.35812" lon="2.04106">
        <ele>319.1</ele>
        <time>2016-01-03T10:52:34Z</time>
      </trkpt>
      <trkpt lat="44.3581" lon="2.04111">
        <ele>319.5</ele>
        <time>2016-01-03T10:52:36Z</time>
      </trkpt>
      <trkpt lat="44.3581" lon="2.04116">
        <ele>319.9</ele>
        <time>2016-01-03T10:52:37Z</time>
      </trkpt>
      <trkpt lat="44.3581" lon="2.04122">
        <ele>320.5</ele>
        <time>2016-01-03T10:52:39Z</time>
      </trkpt>
      <trkpt lat="44.3581" lon="2.0413">
        <ele>321.4</ele>
        <time>2016-01-03T10:52:41Z</time>
      </trkpt>
      <trkpt lat="44.3581" lon="2.04134">
        <ele>321.8</ele>
        <time>2016-01-03T10:52:43Z</time>
      </trkpt>
      <trkpt lat="44.3581" lon="2.04138">
        <ele>322.2</ele>
        <time>2016-01-03T10:52:46Z</time>
      </trkpt>
      <trkpt lat="44.3581" lon="2.04142">
        <ele>322.6</ele>
        <time>2016-01-03T10:52:48Z</time>
      </trkpt>
      <trkpt lat="44.3581" lon="2.04146">
        <ele>323</ele>
        <time>2016-01-03T10:52:50Z</time>
      </trkpt>
      <trkpt lat="44.3581" lon="2.0415">
        <ele>323.4</ele>
        <time>2016-01-03T10:52:53Z</time>
      </trkpt>
      <trkpt lat="44.3581" lon="2.04154">
        <ele>323.9</ele>
        <time>2016-01-03T10:52:56Z</time>
      </trkpt>
      <trkpt lat="44.3581" lon="2.04158">
        <ele>324.3</ele>
        <time>2016-01-03T10:52:59Z</time>
      </trkpt>
      <trkpt lat="44.3581" lon="2.04162">
        <ele>324.7</ele>
        <time>2016-01-03T10:53:00Z</time>
      </trkpt>
      <trkpt lat="44.3581" lon="2.04167">
        <ele>325.2</ele>
        <time>2016-01-03T10:53:02Z</time>
      </trkpt>
      <trkpt lat="44.35809" lon="2.04172">
        <ele>325.8</ele>
        <time>2016-01-03T10:53:07Z</time>
      </trkpt>
      <trkpt lat="44.35806" lon="2.04171">
        <ele>325.5</ele>
        <time>2016-01-03T10:53:09Z</time>
      </trkpt>
      <trkpt lat="44.35804" lon="2.04174">
        <ele>325.8</ele>
        <time>2016-01-03T10:53:11Z</time>
      </trkpt>
      <trkpt lat="44.35807" lon="2.04183">
        <ele>326.9</ele>
        <time>2016-01-03T10:53:13Z</time>
      </trkpt>
      <trkpt lat="44.35808" lon="2.04187">
        <ele>327.4</ele>
        <time>2016-01-03T10:53:14Z</time>
      </trkpt>
      <trkpt lat="44.35809" lon="2.04192">
        <ele>327.8</ele>
        <time>2016-01-03T10:53:15Z</time>
      </trkpt>
      <trkpt lat="44.35808" lon="2.04198">
        <ele>328.5</ele>
        <time>2016-01-03T10:53:17Z</time>
      </trkpt>
      <trkpt lat="44.35807" lon="2.04202">
        <ele>328.9</ele>
        <time>2016-01-03T10:53:19Z</time>
      </trkpt>
      <trkpt lat="44.35805" lon="2.04206">
        <ele>329.2</ele>
        <time>2016-01-03T10:53:22Z</time>
      </trkpt>
      <trkpt lat="44.35805" lon="2.04211">
        <ele>329.7</ele>
        <time>2016-01-03T10:53:25Z</time>
      </trkpt>
      <trkpt lat="44.35805" lon="2.04216">
        <ele>330.3</ele>
        <time>2016-01-03T10:53:27Z</time>
      </trkpt>
      <trkpt lat="44.35803" lon="2.04221">
        <ele>330.8</ele>
        <time>2016-01-03T10:53:29Z</time>
      </trkpt>
      <trkpt lat="44.35801" lon="2.04225">
        <ele>331.2</ele>
        <time>2016-01-03T10:53:31Z</time>
      </trkpt>
      <trkpt lat="44.35801" lon="2.04231">
        <ele>331.8</ele>
        <time>2016-01-03T10:53:34Z</time>
      </trkpt>
      <trkpt lat="44.358" lon="2.04234">
        <ele>332.1</ele>
        <time>2016-01-03T10:53:36Z</time>
      </trkpt>
      <trkpt lat="44.35799" lon="2.04239">
        <ele>332.6</ele>
        <time>2016-01-03T10:53:39Z</time>
      </trkpt>
      <trkpt lat="44.358" lon="2.04244">
        <ele>333.2</ele>
        <time>2016-01-03T10:53:42Z</time>
      </trkpt>
      <trkpt lat="44.358" lon="2.04249">
        <ele>333.7</ele>
        <time>2016-01-03T10:53:45Z</time>
      </trkpt>
      <trkpt lat="44.35801" lon="2.04254">
        <ele>334.3</ele>
        <time>2016-01-03T10:53:48Z</time>
      </trkpt>
      <trkpt lat="44.35804" lon="2.04257">
        <ele>334.7</ele>
        <time>2016-01-03T10:53:49Z</time>
      </trkpt>
      <trkpt lat="44.35802" lon="2.04251">
        <ele>334</ele>
        <time>2016-01-03T10:53:52Z</time>
      </trkpt>
      <trkpt lat="44.358" lon="2.04256">
        <ele>334.5</ele>
        <time>2016-01-03T10:53:57Z</time>
      </trkpt>
      <trkpt lat="44.35802" lon="2.04261">
        <ele>335.2</ele>
        <time>2016-01-03T10:53:59Z</time>
      </trkpt>
      <trkpt lat="44.35802" lon="2.04266">
        <ele>335.7</ele>
        <time>2016-01-03T10:54:01Z</time>
      </trkpt>
      <trkpt lat="44.35802" lon="2.04274">
        <ele>336.5</ele>
        <time>2016-01-03T10:54:03Z</time>
      </trkpt>
      <trkpt lat="44.35801" lon="2.04279">
        <ele>337</ele>
        <time>2016-01-03T10:54:05Z</time>
      </trkpt>
      <trkpt lat="44.358" lon="2.04284">
        <ele>337.5</ele>
        <time>2016-01-03T10:54:06Z</time>
      </trkpt>
      <trkpt lat="44.35798" lon="2.04287">
        <ele>337.8</ele>
        <time>2016-01-03T10:54:07Z</time>
      </trkpt>
      <trkpt lat="44.35799" lon="2.04293">
        <ele>338.6</ele>
        <time>2016-01-03T10:54:09Z</time>
      </trkpt>
      <trkpt lat="44.358" lon="2.04298">
        <ele>339.2</ele>
        <time>2016-01-03T10:54:11Z</time>
      </trkpt>
      <trkpt lat="44.35801" lon="2.04302">
        <ele>339.8</ele>
        <time>2016-01-03T10:54:13Z</time>
      </trkpt>
      <trkpt lat="44.35803" lon="2.04308">
        <ele>340.6</ele>
        <time>2016-01-03T10:54:16Z</time>
      </trkpt>
      <trkpt lat="44.35804" lon="2.04312">
        <ele>341.2</ele>
        <time>2016-01-03T10:54:18Z</time>
      </trkpt>
      <trkpt lat="44.35805" lon="2.04317">
        <ele>341.8</ele>
        <time>2016-01-03T10:54:20Z</time>
      </trkpt>
      <trkpt lat="44.35805" lon="2.04321">
        <ele>342.4</ele>
        <time>2016-01-03T10:54:22Z</time>
      </trkpt>
      <trkpt lat="44.35804" lon="2.04325">
        <ele>342.9</ele>
        <time>2016-01-03T10:54:25Z</time>
      </trkpt>
      <trkpt lat="44.35807" lon="2.04329">
        <ele>343.5</ele>
        <time>2016-01-03T10:54:28Z</time>
      </trkpt>
      <trkpt lat="44.3581" lon="2.04331">
        <ele>343.9</ele>
        <time>2016-01-03T10:54:29Z</time>
      </trkpt>
      <trkpt lat="44.35814" lon="2.04335">
        <ele>344.5</ele>
        <time>2016-01-03T10:54:31Z</time>
      </trkpt>
      <trkpt lat="44.35817" lon="2.04338">
        <ele>344.9</ele>
        <time>2016-01-03T10:54:33Z</time>
      </trkpt>
      <trkpt lat="44.3582" lon="2.04339">
        <ele>345.2</ele>
        <time>2016-01-03T10:54:35Z</time>
      </trkpt>
      <trkpt lat="44.35823" lon="2.04338">
        <ele>345.2</ele>
        <time>2016-01-03T10:54:39Z</time>
      </trkpt>
      <trkpt lat="44.35826" lon="2.04341">
        <ele>345.6</ele>
        <time>2016-01-03T10:54:41Z</time>
      </trkpt>
      <trkpt lat="44.35828" lon="2.04344">
        <ele>346.1</ele>
        <time>2016-01-03T10:54:42Z</time>
      </trkpt>
      <trkpt lat="44.35831" lon="2.04345">
        <ele>346.3</ele>
        <time>2016-01-03T10:54:43Z</time>
      </trkpt>
      <trkpt lat="44.35835" lon="2.04349">
        <ele>346.9</ele>
        <time>2016-01-03T10:54:45Z</time>
      </trkpt>
      <trkpt lat="44.35837" lon="2.04353">
        <ele>347.4</ele>
        <time>2016-01-03T10:54:47Z</time>
      </trkpt>
      <trkpt lat="44.35838" lon="2.04359">
        <ele>348.2</ele>
        <time>2016-01-03T10:54:49Z</time>
      </trkpt>
      <trkpt lat="44.35835" lon="2.04362">
        <ele>348.5</ele>
        <time>2016-01-03T10:54:51Z</time>
      </trkpt>
      <trkpt lat="44.35836" lon="2.04367">
        <ele>349</ele>
        <time>2016-01-03T10:54:54Z</time>
      </trkpt>
      <trkpt lat="44.35834" lon="2.0437">
        <ele>349.4</ele>
        <time>2016-01-03T10:54:57Z</time>
      </trkpt>
      <trkpt lat="44.35832" lon="2.04374">
        <ele>349.8</ele>
        <time>2016-01-03T10:54:59Z</time>
      </trkpt>
      <trkpt lat="44.35831" lon="2.04378">
        <ele>350.2</ele>
        <time>2016-01-03T10:55:01Z</time>
      </trkpt>
      <trkpt lat="44.35829" lon="2.04381">
        <ele>350.6</ele>
        <time>2016-01-03T10:55:03Z</time>
      </trkpt>
      <trkpt lat="44.35826" lon="2.04384">
        <ele>351</ele>
        <time>2016-01-03T10:55:06Z</time>
      </trkpt>
      <trkpt lat="44.35824" lon="2.04388">
        <ele>351.4</ele>
        <time>2016-01-03T10:55:10Z</time>
      </trkpt>
      <trkpt lat="44.35823" lon="2.04393">
        <ele>352</ele>
        <time>2016-01-03T10:55:13Z</time>
      </trkpt>
      <trkpt lat="44.35821" lon="2.04398">
        <ele>352.7</ele>
        <time>2016-01-03T10:55:15Z</time>
      </trkpt>
      <trkpt lat="44.3582" lon="2.04402">
        <ele>353.3</ele>
        <time>2016-01-03T10:55:17Z</time>
      </trkpt>
      <trkpt lat="44.35819" lon="2.04407">
        <ele>353.9</ele>
        <time>2016-01-03T10:55:19Z</time>
      </trkpt>
      <trkpt lat="44.35819" lon="2.04412">
        <ele>354.5</ele>
        <time>2016-01-03T10:55:20Z</time>
      </trkpt>
      <trkpt lat="44.35817" lon="2.04419">
        <ele>355.5</ele>
        <time>2016-01-03T10:55:22Z</time>
      </trkpt>
      <trkpt lat="44.35818" lon="2.04423">
        <ele>356</ele>
        <time>2016-01-03T10:55:23Z</time>
      </trkpt>
      <trkpt lat="44.35819" lon="2.04431">
        <ele>357.1</ele>
        <time>2016-01-03T10:55:25Z</time>
      </trkpt>
      <trkpt lat="44.35821" lon="2.04434">
        <ele>357.4</ele>
        <time>2016-01-03T10:55:26Z</time>
      </trkpt>
      <trkpt lat="44.35824" lon="2.04438">
        <ele>357.8</ele>
        <time>2016-01-03T10:55:27Z</time>
      </trkpt>
      <trkpt lat="44.35828" lon="2.04442">
        <ele>358.2</ele>
        <time>2016-01-03T10:55:28Z</time>
      </trkpt>
      <trkpt lat="44.35831" lon="2.04445">
        <ele>358.4</ele>
        <time>2016-01-03T10:55:29Z</time>
      </trkpt>
      <trkpt lat="44.35835" lon="2.04449">
        <ele>358.8</ele>
        <time>2016-01-03T10:55:30Z</time>
      </trkpt>
      <trkpt lat="44.35838" lon="2.04453">
        <ele>359.1</ele>
        <time>2016-01-03T10:55:31Z</time>
      </trkpt>
      <trkpt lat="44.35841" lon="2.04457">
        <ele>359.5</ele>
        <time>2016-01-03T10:55:32Z</time>
      </trkpt>
      <trkpt lat="44.35844" lon="2.04461">
        <ele>359.8</ele>
        <time>2016-01-03T10:55:33Z</time>
      </trkpt>
      <trkpt lat="44.35848" lon="2.04466">
        <ele>360.2</ele>
        <time>2016-01-03T10:55:34Z</time>
      </trkpt>
      <trkpt lat="44.35847" lon="2.04473">
        <ele>361.1</ele>
        <time>2016-01-03T10:55:36Z</time>
      </trkpt>
      <trkpt lat="44.35844" lon="2.04477">
        <ele>361.8</ele>
        <time>2016-01-03T10:55:38Z</time>
      </trkpt>
      <trkpt lat="44.35846" lon="2.04483">
        <ele>362.3</ele>
        <time>2016-01-03T10:55:40Z</time>
      </trkpt>
      <trkpt lat="44.3585" lon="2.04486">
        <ele>362.4</ele>
        <time>2016-01-03T10:55:42Z</time>
      </trkpt>
      <trkpt lat="44.35853" lon="2.04487">
        <ele>362.3</ele>
        <time>2016-01-03T10:55:43Z</time>
      </trkpt>
      <trkpt lat="44.35857" lon="2.04488">
        <ele>362.2</ele>
        <time>2016-01-03T10:55:44Z</time>
      </trkpt>
      <trkpt lat="44.3586" lon="2.04489">
        <ele>362</ele>
        <time>2016-01-03T10:55:45Z</time>
      </trkpt>
      <trkpt lat="44.35866" lon="2.0449">
        <ele>361.8</ele>
        <time>2016-01-03T10:55:46Z</time>
      </trkpt>
      <trkpt lat="44.35869" lon="2.04492">
        <ele>361.7</ele>
        <time>2016-01-03T10:55:47Z</time>
      </trkpt>
      <trkpt lat="44.35872" lon="2.04494">
        <ele>361.7</ele>
        <time>2016-01-03T10:55:48Z</time>
      </trkpt>
      <trkpt lat="44.35875" lon="2.04501">
        <ele>362</ele>
        <time>2016-01-03T10:55:51Z</time>
      </trkpt>
      <trkpt lat="44.35879" lon="2.04505">
        <ele>362.1</ele>
        <time>2016-01-03T10:55:54Z</time>
      </trkpt>
      <trkpt lat="44.35878" lon="2.04509">
        <ele>362.6</ele>
        <time>2016-01-03T10:55:57Z</time>
      </trkpt>
      <trkpt lat="44.35875" lon="2.04509">
        <ele>362.9</ele>
        <time>2016-01-03T10:55:59Z</time>
      </trkpt>
      <trkpt lat="44.35872" lon="2.04509">
        <ele>363.2</ele>
        <time>2016-01-03T10:56:01Z</time>
      </trkpt>
      <trkpt lat="44.3587" lon="2.04506">
        <ele>363</ele>
        <time>2016-01-03T10:56:03Z</time>
      </trkpt>
      <trkpt lat="44.3588" lon="2.04506">
        <ele>362.2</ele>
        <time>2016-01-03T10:56:05Z</time>
      </trkpt>
      <trkpt lat="44.35883" lon="2.04504">
        <ele>361.8</ele>
        <time>2016-01-03T10:56:06Z</time>
      </trkpt>
      <trkpt lat="44.35886" lon="2.04505">
        <ele>361.6</ele>
        <time>2016-01-03T10:56:08Z</time>
      </trkpt>
      <trkpt lat="44.35892" lon="2.04509">
        <ele>361.6</ele>
        <time>2016-01-03T10:56:10Z</time>
      </trkpt>
      <trkpt lat="44.35894" lon="2.04512">
        <ele>361.7</ele>
        <time>2016-01-03T10:56:13Z</time>
      </trkpt>
      <trkpt lat="44.35897" lon="2.04514">
        <ele>361.7</ele>
        <time>2016-01-03T10:56:19Z</time>
      </trkpt>
      <trkpt lat="44.35898" lon="2.04518">
        <ele>362</ele>
        <time>2016-01-03T10:56:23Z</time>
      </trkpt>
      <trkpt lat="44.35895" lon="2.04516">
        <ele>362.1</ele>
        <time>2016-01-03T10:56:27Z</time>
      </trkpt>
      <trkpt lat="44.35891" lon="2.04513">
        <ele>362</ele>
        <time>2016-01-03T10:56:28Z</time>
      </trkpt>
      <trkpt lat="44.35889" lon="2.04511">
        <ele>361.9</ele>
        <time>2016-01-03T10:56:31Z</time>
      </trkpt>
      <trkpt lat="44.35888" lon="2.04516">
        <ele>362.5</ele>
        <time>2016-01-03T10:56:35Z</time>
      </trkpt>
      <trkpt lat="44.35888" lon="2.0452">
        <ele>363</ele>
        <time>2016-01-03T10:56:37Z</time>
      </trkpt>
      <trkpt lat="44.35887" lon="2.04525">
        <ele>363.6</ele>
        <time>2016-01-03T10:56:40Z</time>
      </trkpt>
      <trkpt lat="44.35888" lon="2.0453">
        <ele>363.9</ele>
        <time>2016-01-03T10:56:44Z</time>
      </trkpt>
      <trkpt lat="44.35889" lon="2.04534">
        <ele>364.2</ele>
        <time>2016-01-03T10:56:46Z</time>
      </trkpt>
      <trkpt lat="44.3589" lon="2.04539">
        <ele>364.7</ele>
        <time>2016-01-03T10:56:51Z</time>
      </trkpt>
      <trkpt lat="44.35887" lon="2.04533">
        <ele>364.3</ele>
        <time>2016-01-03T10:57:04Z</time>
      </trkpt>
      <trkpt lat="44.35886" lon="2.04528">
        <ele>363.9</ele>
        <time>2016-01-03T10:57:05Z</time>
      </trkpt>
      <trkpt lat="44.35887" lon="2.04524">
        <ele>363.4</ele>
        <time>2016-01-03T10:57:06Z</time>
      </trkpt>
      <trkpt lat="44.35887" lon="2.0452">
        <ele>363</ele>
        <time>2016-01-03T10:57:08Z</time>
      </trkpt>
      <trkpt lat="44.35887" lon="2.04527">
        <ele>363.7</ele>
        <time>2016-01-03T10:57:11Z</time>
      </trkpt>
      <trkpt lat="44.35888" lon="2.04531">
        <ele>364</ele>
        <time>2016-01-03T10:57:12Z</time>
      </trkpt>
      <trkpt lat="44.35889" lon="2.04534">
        <ele>364.3</ele>
        <time>2016-01-03T10:57:15Z</time>
      </trkpt>
      <trkpt lat="44.35888" lon="2.0454">
        <ele>364.9</ele>
        <time>2016-01-03T10:57:16Z</time>
      </trkpt>
      <trkpt lat="44.35888" lon="2.04546">
        <ele>365.9</ele>
        <time>2016-01-03T10:57:17Z</time>
      </trkpt>
      <trkpt lat="44.35888" lon="2.04552">
        <ele>366.9</ele>
        <time>2016-01-03T10:57:18Z</time>
      </trkpt>
      <trkpt lat="44.35888" lon="2.04559">
        <ele>368.1</ele>
        <time>2016-01-03T10:57:20Z</time>
      </trkpt>
      <trkpt lat="44.35889" lon="2.04563">
        <ele>368.8</ele>
        <time>2016-01-03T10:57:22Z</time>
      </trkpt>
      <trkpt lat="44.35888" lon="2.04568">
        <ele>369.8</ele>
        <time>2016-01-03T10:57:24Z</time>
      </trkpt>
      <trkpt lat="44.35885" lon="2.04567">
        <ele>369.9</ele>
        <time>2016-01-03T10:57:26Z</time>
      </trkpt>
      <trkpt lat="44.35888" lon="2.04566">
        <ele>369.5</ele>
        <time>2016-01-03T10:57:29Z</time>
      </trkpt>
      <trkpt lat="44.3589" lon="2.0457">
        <ele>370.1</ele>
        <time>2016-01-03T10:57:36Z</time>
      </trkpt>
      <trkpt lat="44.35878" lon="2.04587">
        <ele>374</ele>
        <time>2016-01-03T10:58:06Z</time>
      </trkpt>
      <trkpt lat="44.35877" lon="2.04591">
        <ele>374.8</ele>
        <time>2016-01-03T10:58:08Z</time>
      </trkpt>
      <trkpt lat="44.35878" lon="2.046">
        <ele>376.3</ele>
        <time>2016-01-03T10:58:17Z</time>
      </trkpt>
      <trkpt lat="44.35864" lon="2.04634">
        <ele>383.6</ele>
        <time>2016-01-03T10:59:23Z</time>
      </trkpt>
      <trkpt lat="44.35861" lon="2.04636">
        <ele>384.1</ele>
        <time>2016-01-03T10:59:29Z</time>
      </trkpt>
      <trkpt lat="44.35859" lon="2.04638">
        <ele>384.7</ele>
        <time>2016-01-03T10:59:34Z</time>
      </trkpt>
      <trkpt lat="44.35857" lon="2.0464">
        <ele>385.1</ele>
        <time>2016-01-03T10:59:42Z</time>
      </trkpt>
      <trkpt lat="44.35856" lon="2.04645">
        <ele>386</ele>
        <time>2016-01-03T10:59:44Z</time>
      </trkpt>
      <trkpt lat="44.35855" lon="2.0465">
        <ele>386.7</ele>
        <time>2016-01-03T10:59:48Z</time>
      </trkpt>
      <trkpt lat="44.35855" lon="2.04654">
        <ele>387.4</ele>
        <time>2016-01-03T10:59:51Z</time>
      </trkpt>
      <trkpt lat="44.35855" lon="2.04658">
        <ele>388</ele>
        <time>2016-01-03T10:59:57Z</time>
      </trkpt>
      <trkpt lat="44.35854" lon="2.04661">
        <ele>388.6</ele>
        <time>2016-01-03T11:00:01Z</time>
      </trkpt>
      <trkpt lat="44.35853" lon="2.04666">
        <ele>389.3</ele>
        <time>2016-01-03T11:00:03Z</time>
      </trkpt>
      <trkpt lat="44.35854" lon="2.04672">
        <ele>390.2</ele>
        <time>2016-01-03T11:00:09Z</time>
      </trkpt>
      <trkpt lat="44.35855" lon="2.04676">
        <ele>390.8</ele>
        <time>2016-01-03T11:00:14Z</time>
      </trkpt>
      <trkpt lat="44.35854" lon="2.04681">
        <ele>391.5</ele>
        <time>2016-01-03T11:00:19Z</time>
      </trkpt>
      <trkpt lat="44.35851" lon="2.04701">
        <ele>394.5</ele>
        <time>2016-01-03T11:00:55Z</time>
      </trkpt>
      <trkpt lat="44.35849" lon="2.04704">
        <ele>394.8</ele>
        <time>2016-01-03T11:00:59Z</time>
      </trkpt>
      <trkpt lat="44.35846" lon="2.04704">
        <ele>394.7</ele>
        <time>2016-01-03T11:01:05Z</time>
      </trkpt>
      <trkpt lat="44.35844" lon="2.04707">
        <ele>395</ele>
        <time>2016-01-03T11:01:08Z</time>
      </trkpt>
      <trkpt lat="44.35844" lon="2.04711">
        <ele>394.7</ele>
        <time>2016-01-03T11:01:15Z</time>
      </trkpt>
      <trkpt lat="44.35849" lon="2.04717">
        <ele>394.2</ele>
        <time>2016-01-03T11:01:28Z</time>
      </trkpt>
      <trkpt lat="44.35852" lon="2.04715">
        <ele>394.7</ele>
        <time>2016-01-03T11:01:33Z</time>
      </trkpt>
      <trkpt lat="44.35854" lon="2.04712">
        <ele>395.3</ele>
        <time>2016-01-03T11:01:40Z</time>
      </trkpt>
      <trkpt lat="44.35849" lon="2.04706">
        <ele>395.1</ele>
        <time>2016-01-03T11:01:56Z</time>
      </trkpt>
      <trkpt lat="44.35847" lon="2.04703">
        <ele>394.6</ele>
        <time>2016-01-03T11:01:58Z</time>
      </trkpt>
      <trkpt lat="44.35841" lon="2.04703">
        <ele>394.3</ele>
        <time>2016-01-03T11:02:00Z</time>
      </trkpt>
      <trkpt lat="44.35836" lon="2.047">
        <ele>393.6</ele>
        <time>2016-01-03T11:02:02Z</time>
      </trkpt>
      <trkpt lat="44.35833" lon="2.04695">
        <ele>393</ele>
        <time>2016-01-03T11:02:04Z</time>
      </trkpt>
      <trkpt lat="44.35829" lon="2.04693">
        <ele>392.6</ele>
        <time>2016-01-03T11:02:06Z</time>
      </trkpt>
      <trkpt lat="44.35826" lon="2.04691">
        <ele>392.3</ele>
        <time>2016-01-03T11:02:07Z</time>
      </trkpt>
      <trkpt lat="44.35823" lon="2.0469">
        <ele>392.1</ele>
        <time>2016-01-03T11:02:08Z</time>
      </trkpt>
      <trkpt lat="44.35817" lon="2.04688">
        <ele>391.8</ele>
        <time>2016-01-03T11:02:09Z</time>
      </trkpt>
      <trkpt lat="44.35813" lon="2.04683">
        <ele>391.3</ele>
        <time>2016-01-03T11:02:10Z</time>
      </trkpt>
      <trkpt lat="44.35809" lon="2.04679">
        <ele>391</ele>
        <time>2016-01-03T11:02:11Z</time>
      </trkpt>
      <trkpt lat="44.35806" lon="2.04676">
        <ele>390.8</ele>
        <time>2016-01-03T11:02:12Z</time>
      </trkpt>
      <trkpt lat="44.35802" lon="2.04673">
        <ele>390.6</ele>
        <time>2016-01-03T11:02:13Z</time>
      </trkpt>
      <trkpt lat="44.358" lon="2.0467">
        <ele>390.5</ele>
        <time>2016-01-03T11:02:14Z</time>
      </trkpt>
      <trkpt lat="44.35797" lon="2.04667">
        <ele>390.4</ele>
        <time>2016-01-03T11:02:15Z</time>
      </trkpt>
      <trkpt lat="44.35793" lon="2.04662">
        <ele>390.3</ele>
        <time>2016-01-03T11:02:16Z</time>
      </trkpt>
      <trkpt lat="44.35788" lon="2.04659">
        <ele>390.4</ele>
        <time>2016-01-03T11:02:17Z</time>
      </trkpt>
      <trkpt lat="44.35778" lon="2.04653">
        <ele>390.6</ele>
        <time>2016-01-03T11:02:18Z</time>
      </trkpt>
      <trkpt lat="44.35769" lon="2.0465">
        <ele>390.9</ele>
        <time>2016-01-03T11:02:19Z</time>
      </trkpt>
      <trkpt lat="44.35763" lon="2.04648">
        <ele>391.2</ele>
        <time>2016-01-03T11:02:20Z</time>
      </trkpt>
      <trkpt lat="44.35751" lon="2.04644">
        <ele>391.7</ele>
        <time>2016-01-03T11:02:21Z</time>
      </trkpt>
      <trkpt lat="44.35745" lon="2.04642">
        <ele>392</ele>
        <time>2016-01-03T11:02:22Z</time>
      </trkpt>
      <trkpt lat="44.35735" lon="2.0464">
        <ele>392.4</ele>
        <time>2016-01-03T11:02:23Z</time>
      </trkpt>
      <trkpt lat="44.35729" lon="2.04638">
        <ele>392.8</ele>
        <time>2016-01-03T11:02:24Z</time>
      </trkpt>
      <trkpt lat="44.35722" lon="2.04635">
        <ele>393.1</ele>
        <time>2016-01-03T11:02:25Z</time>
      </trkpt>
      <trkpt lat="44.35718" lon="2.0463">
        <ele>393.4</ele>
        <time>2016-01-03T11:02:26Z</time>
      </trkpt>
      <trkpt lat="44.35714" lon="2.04625">
        <ele>393.6</ele>
        <time>2016-01-03T11:02:27Z</time>
      </trkpt>
      <trkpt lat="44.35709" lon="2.04621">
        <ele>393.3</ele>
        <time>2016-01-03T11:02:28Z</time>
      </trkpt>
      <trkpt lat="44.35704" lon="2.04617">
        <ele>392.3</ele>
        <time>2016-01-03T11:02:29Z</time>
      </trkpt>
      <trkpt lat="44.35698" lon="2.04614">
        <ele>391.5</ele>
        <time>2016-01-03T11:02:30Z</time>
      </trkpt>
      <trkpt lat="44.35692" lon="2.04613">
        <ele>390.9</ele>
        <time>2016-01-03T11:02:31Z</time>
      </trkpt>
      <trkpt lat="44.35686" lon="2.0461">
        <ele>390.1</ele>
        <time>2016-01-03T11:02:32Z</time>
      </trkpt>
      <trkpt lat="44.35677" lon="2.04607">
        <ele>389</ele>
        <time>2016-01-03T11:02:33Z</time>
      </trkpt>
      <trkpt lat="44.3567" lon="2.04604">
        <ele>388.2</ele>
        <time>2016-01-03T11:02:34Z</time>
      </trkpt>
      <trkpt lat="44.35664" lon="2.04602">
        <ele>387.5</ele>
        <time>2016-01-03T11:02:35Z</time>
      </trkpt>
      <trkpt lat="44.35659" lon="2.04599">
        <ele>386.8</ele>
        <time>2016-01-03T11:02:36Z</time>
      </trkpt>
      <trkpt lat="44.35654" lon="2.04597">
        <ele>386.3</ele>
        <time>2016-01-03T11:02:37Z</time>
      </trkpt>
      <trkpt lat="44.3565" lon="2.04595">
        <ele>385.7</ele>
        <time>2016-01-03T11:02:38Z</time>
      </trkpt>
      <trkpt lat="44.35644" lon="2.04593">
        <ele>385.2</ele>
        <time>2016-01-03T11:02:39Z</time>
      </trkpt>
      <trkpt lat="44.35638" lon="2.0459">
        <ele>384.4</ele>
        <time>2016-01-03T11:02:40Z</time>
      </trkpt>
      <trkpt lat="44.35633" lon="2.04587">
        <ele>383.8</ele>
        <time>2016-01-03T11:02:41Z</time>
      </trkpt>
      <trkpt lat="44.35627" lon="2.04586">
        <ele>383.4</ele>
        <time>2016-01-03T11:02:42Z</time>
      </trkpt>
      <trkpt lat="44.35622" lon="2.04586">
        <ele>382.3</ele>
        <time>2016-01-03T11:02:43Z</time>
      </trkpt>
      <trkpt lat="44.35616" lon="2.04586">
        <ele>380.2</ele>
        <time>2016-01-03T11:02:44Z</time>
      </trkpt>
      <trkpt lat="44.35609" lon="2.04587">
        <ele>378.3</ele>
        <time>2016-01-03T11:02:45Z</time>
      </trkpt>
      <trkpt lat="44.35603" lon="2.04591">
        <ele>376.6</ele>
        <time>2016-01-03T11:02:46Z</time>
      </trkpt>
      <trkpt lat="44.35597" lon="2.04594">
        <ele>374.9</ele>
        <time>2016-01-03T11:02:47Z</time>
      </trkpt>
      <trkpt lat="44.35592" lon="2.04596">
        <ele>373.2</ele>
        <time>2016-01-03T11:02:48Z</time>
      </trkpt>
      <trkpt lat="44.35588" lon="2.04598">
        <ele>371.9</ele>
        <time>2016-01-03T11:02:49Z</time>
      </trkpt>
      <trkpt lat="44.35584" lon="2.04599">
        <ele>370.7</ele>
        <time>2016-01-03T11:02:50Z</time>
      </trkpt>
      <trkpt lat="44.35581" lon="2.04598">
        <ele>369.5</ele>
        <time>2016-01-03T11:02:51Z</time>
      </trkpt>
      <trkpt lat="44.35578" lon="2.04596">
        <ele>368.6</ele>
        <time>2016-01-03T11:02:52Z</time>
      </trkpt>
      <trkpt lat="44.35574" lon="2.0459">
        <ele>366.9</ele>
        <time>2016-01-03T11:02:53Z</time>
      </trkpt>
      <trkpt lat="44.35573" lon="2.04583">
        <ele>366.4</ele>
        <time>2016-01-03T11:02:54Z</time>
      </trkpt>
      <trkpt lat="44.3557" lon="2.04579">
        <ele>365.5</ele>
        <time>2016-01-03T11:02:55Z</time>
      </trkpt>
      <trkpt lat="44.35569" lon="2.04573">
        <ele>364.9</ele>
        <time>2016-01-03T11:02:56Z</time>
      </trkpt>
      <trkpt lat="44.35567" lon="2.04568">
        <ele>364.4</ele>
        <time>2016-01-03T11:02:57Z</time>
      </trkpt>
      <trkpt lat="44.35567" lon="2.04557">
        <ele>364.2</ele>
        <time>2016-01-03T11:02:58Z</time>
      </trkpt>
      <trkpt lat="44.35564" lon="2.04548">
        <ele>363.4</ele>
        <time>2016-01-03T11:02:59Z</time>
      </trkpt>
      <trkpt lat="44.35562" lon="2.04535">
        <ele>362.8</ele>
        <time>2016-01-03T11:03:00Z</time>
      </trkpt>
      <trkpt lat="44.3556" lon="2.04517">
        <ele>362.3</ele>
        <time>2016-01-03T11:03:01Z</time>
      </trkpt>
      <trkpt lat="44.35556" lon="2.04502">
        <ele>361.6</ele>
        <time>2016-01-03T11:03:02Z</time>
      </trkpt>
      <trkpt lat="44.35549" lon="2.04482">
        <ele>361</ele>
        <time>2016-01-03T11:03:03Z</time>
      </trkpt>
      <trkpt lat="44.35544" lon="2.04466">
        <ele>360.9</ele>
        <time>2016-01-03T11:03:04Z</time>
      </trkpt>
      <trkpt lat="44.35538" lon="2.04453">
        <ele>359.8</ele>
        <time>2016-01-03T11:03:05Z</time>
      </trkpt>
      <trkpt lat="44.35531" lon="2.0444">
        <ele>357.9</ele>
        <time>2016-01-03T11:03:06Z</time>
      </trkpt>
      <trkpt lat="44.35523" lon="2.04429">
        <ele>356.2</ele>
        <time>2016-01-03T11:03:07Z</time>
      </trkpt>
      <trkpt lat="44.35515" lon="2.04419">
        <ele>354.9</ele>
        <time>2016-01-03T11:03:08Z</time>
      </trkpt>
      <trkpt lat="44.3551" lon="2.04408">
        <ele>354.1</ele>
        <time>2016-01-03T11:03:09Z</time>
      </trkpt>
      <trkpt lat="44.35502" lon="2.04397">
        <ele>353.4</ele>
        <time>2016-01-03T11:03:10Z</time>
      </trkpt>
      <trkpt lat="44.35493" lon="2.04388">
        <ele>353</ele>
        <time>2016-01-03T11:03:11Z</time>
      </trkpt>
      <trkpt lat="44.35483" lon="2.04378">
        <ele>352.9</ele>
        <time>2016-01-03T11:03:12Z</time>
      </trkpt>
      <trkpt lat="44.35474" lon="2.0437">
        <ele>352.3</ele>
        <time>2016-01-03T11:03:13Z</time>
      </trkpt>
      <trkpt lat="44.35464" lon="2.04362">
        <ele>351.4</ele>
        <time>2016-01-03T11:03:14Z</time>
      </trkpt>
      <trkpt lat="44.35454" lon="2.04355">
        <ele>350.4</ele>
        <time>2016-01-03T11:03:15Z</time>
      </trkpt>
      <trkpt lat="44.35444" lon="2.04348">
        <ele>349.1</ele>
        <time>2016-01-03T11:03:16Z</time>
      </trkpt>
      <trkpt lat="44.35438" lon="2.04339">
        <ele>347.5</ele>
        <time>2016-01-03T11:03:17Z</time>
      </trkpt>
      <trkpt lat="44.35431" lon="2.04334">
        <ele>346.5</ele>
        <time>2016-01-03T11:03:18Z</time>
      </trkpt>
      <trkpt lat="44.35429" lon="2.04329">
        <ele>345.7</ele>
        <time>2016-01-03T11:03:19Z</time>
      </trkpt>
      <trkpt lat="44.35428" lon="2.04325">
        <ele>345</ele>
        <time>2016-01-03T11:03:20Z</time>
      </trkpt>
      <trkpt lat="44.35427" lon="2.04319">
        <ele>344.1</ele>
        <time>2016-01-03T11:03:21Z</time>
      </trkpt>
      <trkpt lat="44.35426" lon="2.0431">
        <ele>342.8</ele>
        <time>2016-01-03T11:03:22Z</time>
      </trkpt>
      <trkpt lat="44.35425" lon="2.04302">
        <ele>341.6</ele>
        <time>2016-01-03T11:03:23Z</time>
      </trkpt>
      <trkpt lat="44.35424" lon="2.04294">
        <ele>340.4</ele>
        <time>2016-01-03T11:03:24Z</time>
      </trkpt>
      <trkpt lat="44.35424" lon="2.04284">
        <ele>338.4</ele>
        <time>2016-01-03T11:03:25Z</time>
      </trkpt>
      <trkpt lat="44.35423" lon="2.04271">
        <ele>335.5</ele>
        <time>2016-01-03T11:03:26Z</time>
      </trkpt>
      <trkpt lat="44.35421" lon="2.04259">
        <ele>332.9</ele>
        <time>2016-01-03T11:03:27Z</time>
      </trkpt>
      <trkpt lat="44.3542" lon="2.0425">
        <ele>330.9</ele>
        <time>2016-01-03T11:03:28Z</time>
      </trkpt>
      <trkpt lat="44.35421" lon="2.04241">
        <ele>329.1</ele>
        <time>2016-01-03T11:03:29Z</time>
      </trkpt>
      <trkpt lat="44.35421" lon="2.04237">
        <ele>328.2</ele>
        <time>2016-01-03T11:03:30Z</time>
      </trkpt>
      <trkpt lat="44.35421" lon="2.04232">
        <ele>327</ele>
        <time>2016-01-03T11:03:31Z</time>
      </trkpt>
      <trkpt lat="44.35418" lon="2.04228">
        <ele>325.8</ele>
        <time>2016-01-03T11:03:32Z</time>
      </trkpt>
      <trkpt lat="44.35417" lon="2.04223">
        <ele>324.6</ele>
        <time>2016-01-03T11:03:33Z</time>
      </trkpt>
      <trkpt lat="44.35416" lon="2.04217">
        <ele>323.2</ele>
        <time>2016-01-03T11:03:34Z</time>
      </trkpt>
      <trkpt lat="44.35413" lon="2.04211">
        <ele>321.6</ele>
        <time>2016-01-03T11:03:35Z</time>
      </trkpt>
      <trkpt lat="44.35415" lon="2.04205">
        <ele>320.8</ele>
        <time>2016-01-03T11:03:36Z</time>
      </trkpt>
      <trkpt lat="44.35417" lon="2.04201">
        <ele>320.4</ele>
        <time>2016-01-03T11:03:37Z</time>
      </trkpt>
      <trkpt lat="44.35429" lon="2.04198">
        <ele>321.4</ele>
        <time>2016-01-03T11:03:38Z</time>
      </trkpt>
      <trkpt lat="44.3544" lon="2.04191">
        <ele>321.7</ele>
        <time>2016-01-03T11:03:39Z</time>
      </trkpt>
      <trkpt lat="44.35452" lon="2.04186">
        <ele>322.5</ele>
        <time>2016-01-03T11:03:40Z</time>
      </trkpt>
      <trkpt lat="44.35456" lon="2.04178">
        <ele>321.6</ele>
        <time>2016-01-03T11:03:41Z</time>
      </trkpt>
      <trkpt lat="44.35463" lon="2.04169">
        <ele>320.6</ele>
        <time>2016-01-03T11:03:42Z</time>
      </trkpt>
      <trkpt lat="44.35468" lon="2.04159">
        <ele>319.1</ele>
        <time>2016-01-03T11:03:43Z</time>
      </trkpt>
      <trkpt lat="44.35475" lon="2.04146">
        <ele>317.3</ele>
        <time>2016-01-03T11:03:44Z</time>
      </trkpt>
      <trkpt lat="44.35481" lon="2.04141">
        <ele>316.8</ele>
        <time>2016-01-03T11:03:45Z</time>
      </trkpt>
      <trkpt lat="44.35486" lon="2.04137">
        <ele>316.4</ele>
        <time>2016-01-03T11:03:46Z</time>
      </trkpt>
      <trkpt lat="44.35492" lon="2.04133">
        <ele>316.2</ele>
        <time>2016-01-03T11:03:47Z</time>
      </trkpt>
      <trkpt lat="44.35498" lon="2.0413">
        <ele>316.1</ele>
        <time>2016-01-03T11:03:48Z</time>
      </trkpt>
      <trkpt lat="44.35505" lon="2.04122">
        <ele>315.2</ele>
        <time>2016-01-03T11:03:49Z</time>
      </trkpt>
      <trkpt lat="44.35505" lon="2.04116">
        <ele>314.2</ele>
        <time>2016-01-03T11:03:50Z</time>
      </trkpt>
      <trkpt lat="44.35497" lon="2.041">
        <ele>310.8</ele>
        <time>2016-01-03T11:03:52Z</time>
      </trkpt>
      <trkpt lat="44.35494" lon="2.04099">
        <ele>310.4</ele>
        <time>2016-01-03T11:03:53Z</time>
      </trkpt>
      <trkpt lat="44.35489" lon="2.04096">
        <ele>309.5</ele>
        <time>2016-01-03T11:03:55Z</time>
      </trkpt>
      <trkpt lat="44.35485" lon="2.04095">
        <ele>309.1</ele>
        <time>2016-01-03T11:03:56Z</time>
      </trkpt>
      <trkpt lat="44.35479" lon="2.04096">
        <ele>308.9</ele>
        <time>2016-01-03T11:03:57Z</time>
      </trkpt>
      <trkpt lat="44.35474" lon="2.04097">
        <ele>308.7</ele>
        <time>2016-01-03T11:03:58Z</time>
      </trkpt>
      <trkpt lat="44.35469" lon="2.04098">
        <ele>308.6</ele>
        <time>2016-01-03T11:03:59Z</time>
      </trkpt>
      <trkpt lat="44.35463" lon="2.041">
        <ele>308.6</ele>
        <time>2016-01-03T11:04:00Z</time>
      </trkpt>
      <trkpt lat="44.35458" lon="2.04103">
        <ele>308.7</ele>
        <time>2016-01-03T11:04:01Z</time>
      </trkpt>
      <trkpt lat="44.35453" lon="2.04105">
        <ele>308.5</ele>
        <time>2016-01-03T11:04:02Z</time>
      </trkpt>
      <trkpt lat="44.35448" lon="2.04108">
        <ele>308.5</ele>
        <time>2016-01-03T11:04:03Z</time>
      </trkpt>
      <trkpt lat="44.35444" lon="2.04112">
        <ele>309</ele>
        <time>2016-01-03T11:04:04Z</time>
      </trkpt>
      <trkpt lat="44.35439" lon="2.04115">
        <ele>309</ele>
        <time>2016-01-03T11:04:05Z</time>
      </trkpt>
      <trkpt lat="44.35434" lon="2.04117">
        <ele>308.8</ele>
        <time>2016-01-03T11:04:06Z</time>
      </trkpt>
      <trkpt lat="44.35429" lon="2.0412">
        <ele>308.9</ele>
        <time>2016-01-03T11:04:07Z</time>
      </trkpt>
      <trkpt lat="44.35425" lon="2.04122">
        <ele>308.8</ele>
        <time>2016-01-03T11:04:08Z</time>
      </trkpt>
      <trkpt lat="44.3542" lon="2.04125">
        <ele>308.9</ele>
        <time>2016-01-03T11:04:09Z</time>
      </trkpt>
      <trkpt lat="44.35418" lon="2.04129">
        <ele>309.2</ele>
        <time>2016-01-03T11:04:10Z</time>
      </trkpt>
      <trkpt lat="44.35414" lon="2.04133">
        <ele>309.4</ele>
        <time>2016-01-03T11:04:11Z</time>
      </trkpt>
      <trkpt lat="44.35411" lon="2.04137">
        <ele>309.6</ele>
        <time>2016-01-03T11:04:12Z</time>
      </trkpt>
      <trkpt lat="44.35407" lon="2.0414">
        <ele>309.8</ele>
        <time>2016-01-03T11:04:13Z</time>
      </trkpt>
      <trkpt lat="44.35403" lon="2.04143">
        <ele>309.8</ele>
        <time>2016-01-03T11:04:14Z</time>
      </trkpt>
      <trkpt lat="44.35399" lon="2.04147">
        <ele>310</ele>
        <time>2016-01-03T11:04:15Z</time>
      </trkpt>
      <trkpt lat="44.35396" lon="2.0415">
        <ele>309.9</ele>
        <time>2016-01-03T11:04:16Z</time>
      </trkpt>
      <trkpt lat="44.35392" lon="2.04152">
        <ele>309.8</ele>
        <time>2016-01-03T11:04:17Z</time>
      </trkpt>
      <trkpt lat="44.35388" lon="2.04155">
        <ele>309.7</ele>
        <time>2016-01-03T11:04:18Z</time>
      </trkpt>
      <trkpt lat="44.35384" lon="2.04156">
        <ele>309.5</ele>
        <time>2016-01-03T11:04:19Z</time>
      </trkpt>
      <trkpt lat="44.35381" lon="2.04155">
        <ele>308.9</ele>
        <time>2016-01-03T11:04:20Z</time>
      </trkpt>
      <trkpt lat="44.35375" lon="2.04154">
        <ele>308.2</ele>
        <time>2016-01-03T11:04:21Z</time>
      </trkpt>
      <trkpt lat="44.35371" lon="2.04157">
        <ele>307.9</ele>
        <time>2016-01-03T11:04:22Z</time>
      </trkpt>
      <trkpt lat="44.35367" lon="2.04162">
        <ele>308</ele>
        <time>2016-01-03T11:04:24Z</time>
      </trkpt>
      <trkpt lat="44.35365" lon="2.04166">
        <ele>308.2</ele>
        <time>2016-01-03T11:04:25Z</time>
      </trkpt>
      <trkpt lat="44.35362" lon="2.04168">
        <ele>308.2</ele>
        <time>2016-01-03T11:04:26Z</time>
      </trkpt>
      <trkpt lat="44.35359" lon="2.04173">
        <ele>308.5</ele>
        <time>2016-01-03T11:04:27Z</time>
      </trkpt>
      <trkpt lat="44.35356" lon="2.04178">
        <ele>308.8</ele>
        <time>2016-01-03T11:04:28Z</time>
      </trkpt>
      <trkpt lat="44.35354" lon="2.04184">
        <ele>309.5</ele>
        <time>2016-01-03T11:04:29Z</time>
      </trkpt>
      <trkpt lat="44.3535" lon="2.04189">
        <ele>309.8</ele>
        <time>2016-01-03T11:04:30Z</time>
      </trkpt>
      <trkpt lat="44.35346" lon="2.04193">
        <ele>310</ele>
        <time>2016-01-03T11:04:31Z</time>
      </trkpt>
      <trkpt lat="44.35343" lon="2.04197">
        <ele>310.2</ele>
        <time>2016-01-03T11:04:32Z</time>
      </trkpt>
      <trkpt lat="44.3534" lon="2.04198">
        <ele>310.1</ele>
        <time>2016-01-03T11:04:33Z</time>
      </trkpt>
      <trkpt lat="44.35336" lon="2.04201">
        <ele>310</ele>
        <time>2016-01-03T11:04:34Z</time>
      </trkpt>
      <trkpt lat="44.35334" lon="2.04202">
        <ele>309.9</ele>
        <time>2016-01-03T11:04:35Z</time>
      </trkpt>
      <trkpt lat="44.3533" lon="2.04205">
        <ele>309.9</ele>
        <time>2016-01-03T11:04:36Z</time>
      </trkpt>
      <trkpt lat="44.35326" lon="2.04207">
        <ele>310</ele>
        <time>2016-01-03T11:04:37Z</time>
      </trkpt>
      <trkpt lat="44.35322" lon="2.0421">
        <ele>310.1</ele>
        <time>2016-01-03T11:04:38Z</time>
      </trkpt>
      <trkpt lat="44.35319" lon="2.04213">
        <ele>310.3</ele>
        <time>2016-01-03T11:04:39Z</time>
      </trkpt>
      <trkpt lat="44.35315" lon="2.04214">
        <ele>310.3</ele>
        <time>2016-01-03T11:04:40Z</time>
      </trkpt>
      <trkpt lat="44.35312" lon="2.04216">
        <ele>310.4</ele>
        <time>2016-01-03T11:04:41Z</time>
      </trkpt>
      <trkpt lat="44.35309" lon="2.04219">
        <ele>310.6</ele>
        <time>2016-01-03T11:04:42Z</time>
      </trkpt>
      <trkpt lat="44.35306" lon="2.0422">
        <ele>310.7</ele>
        <time>2016-01-03T11:04:43Z</time>
      </trkpt>
      <trkpt lat="44.35304" lon="2.04222">
        <ele>310.9</ele>
        <time>2016-01-03T11:04:44Z</time>
      </trkpt>
      <trkpt lat="44.353" lon="2.04224">
        <ele>310.9</ele>
        <time>2016-01-03T11:04:46Z</time>
      </trkpt>
      <trkpt lat="44.35295" lon="2.04224">
        <ele>310.3</ele>
        <time>2016-01-03T11:04:48Z</time>
      </trkpt>
      <trkpt lat="44.35293" lon="2.04221">
        <ele>309.3</ele>
        <time>2016-01-03T11:04:51Z</time>
      </trkpt>
      <trkpt lat="44.35293" lon="2.04217">
        <ele>308.3</ele>
        <time>2016-01-03T11:04:52Z</time>
      </trkpt>
      <trkpt lat="44.35294" lon="2.04213">
        <ele>307.5</ele>
        <time>2016-01-03T11:04:53Z</time>
      </trkpt>
      <trkpt lat="44.35295" lon="2.04207">
        <ele>306.2</ele>
        <time>2016-01-03T11:04:55Z</time>
      </trkpt>
      <trkpt lat="44.35299" lon="2.04197">
        <ele>304.3</ele>
        <time>2016-01-03T11:04:57Z</time>
      </trkpt>
      <trkpt lat="44.353" lon="2.04189">
        <ele>302.9</ele>
        <time>2016-01-03T11:04:58Z</time>
      </trkpt>
      <trkpt lat="44.35304" lon="2.04191">
        <ele>304</ele>
        <time>2016-01-03T11:05:00Z</time>
      </trkpt>
      <trkpt lat="44.35307" lon="2.04188">
        <ele>303.6</ele>
        <time>2016-01-03T11:05:01Z</time>
      </trkpt>
      <trkpt lat="44.35308" lon="2.04181">
        <ele>302.4</ele>
        <time>2016-01-03T11:05:02Z</time>
      </trkpt>
      <trkpt lat="44.3531" lon="2.04176">
        <ele>301.7</ele>
        <time>2016-01-03T11:05:03Z</time>
      </trkpt>
      <trkpt lat="44.35308" lon="2.0417">
        <ele>300.2</ele>
        <time>2016-01-03T11:05:05Z</time>
      </trkpt>
      <trkpt lat="44.35308" lon="2.04166">
        <ele>299.4</ele>
        <time>2016-01-03T11:05:06Z</time>
      </trkpt>
      <trkpt lat="44.35306" lon="2.04162">
        <ele>298.4</ele>
        <time>2016-01-03T11:05:07Z</time>
      </trkpt>
      <trkpt lat="44.35303" lon="2.04156">
        <ele>296.6</ele>
        <time>2016-01-03T11:05:09Z</time>
      </trkpt>
      <trkpt lat="44.35301" lon="2.04153">
        <ele>295.5</ele>
        <time>2016-01-03T11:05:10Z</time>
      </trkpt>
      <trkpt lat="44.35298" lon="2.04148">
        <ele>294.1</ele>
        <time>2016-01-03T11:05:11Z</time>
      </trkpt>
      <trkpt lat="44.35296" lon="2.04145">
        <ele>292.9</ele>
        <time>2016-01-03T11:05:12Z</time>
      </trkpt>
      <trkpt lat="44.35293" lon="2.04143">
        <ele>292</ele>
        <time>2016-01-03T11:05:13Z</time>
      </trkpt>
      <trkpt lat="44.35293" lon="2.04139">
        <ele>291.1</ele>
        <time>2016-01-03T11:05:14Z</time>
      </trkpt>
      <trkpt lat="44.35293" lon="2.04134">
        <ele>290.2</ele>
        <time>2016-01-03T11:05:15Z</time>
      </trkpt>
      <trkpt lat="44.35291" lon="2.04128">
        <ele>288.6</ele>
        <time>2016-01-03T11:05:17Z</time>
      </trkpt>
      <trkpt lat="44.35287" lon="2.04125">
        <ele>287.2</ele>
        <time>2016-01-03T11:05:19Z</time>
      </trkpt>
      <trkpt lat="44.35284" lon="2.04122">
        <ele>286.3</ele>
        <time>2016-01-03T11:05:20Z</time>
      </trkpt>
      <trkpt lat="44.35281" lon="2.04117">
        <ele>285</ele>
        <time>2016-01-03T11:05:21Z</time>
      </trkpt>
      <trkpt lat="44.35278" lon="2.04112">
        <ele>283.8</ele>
        <time>2016-01-03T11:05:22Z</time>
      </trkpt>
      <trkpt lat="44.35274" lon="2.04107">
        <ele>282.5</ele>
        <time>2016-01-03T11:05:23Z</time>
      </trkpt>
      <trkpt lat="44.3527" lon="2.04102">
        <ele>281.1</ele>
        <time>2016-01-03T11:05:24Z</time>
      </trkpt>
      <trkpt lat="44.35266" lon="2.04096">
        <ele>279.7</ele>
        <time>2016-01-03T11:05:25Z</time>
      </trkpt>
      <trkpt lat="44.35263" lon="2.0409">
        <ele>278.5</ele>
        <time>2016-01-03T11:05:26Z</time>
      </trkpt>
      <trkpt lat="44.35261" lon="2.04086">
        <ele>277.6</ele>
        <time>2016-01-03T11:05:27Z</time>
      </trkpt>
      <trkpt lat="44.35258" lon="2.0408">
        <ele>276.4</ele>
        <time>2016-01-03T11:05:28Z</time>
      </trkpt>
      <trkpt lat="44.35254" lon="2.04075">
        <ele>275.3</ele>
        <time>2016-01-03T11:05:29Z</time>
      </trkpt>
      <trkpt lat="44.35252" lon="2.04072">
        <ele>274.6</ele>
        <time>2016-01-03T11:05:30Z</time>
      </trkpt>
      <trkpt lat="44.35247" lon="2.04068">
        <ele>273.5</ele>
        <time>2016-01-03T11:05:31Z</time>
      </trkpt>
      <trkpt lat="44.35243" lon="2.04065">
        <ele>272.5</ele>
        <time>2016-01-03T11:05:32Z</time>
      </trkpt>
      <trkpt lat="44.35236" lon="2.04059">
        <ele>271</ele>
        <time>2016-01-03T11:05:33Z</time>
      </trkpt>
      <trkpt lat="44.3523" lon="2.04053">
        <ele>269.7</ele>
        <time>2016-01-03T11:05:34Z</time>
      </trkpt>
      <trkpt lat="44.35225" lon="2.04045">
        <ele>268.2</ele>
        <time>2016-01-03T11:05:35Z</time>
      </trkpt>
      <trkpt lat="44.3522" lon="2.04037">
        <ele>267.3</ele>
        <time>2016-01-03T11:05:36Z</time>
      </trkpt>
      <trkpt lat="44.35216" lon="2.04031">
        <ele>266.9</ele>
        <time>2016-01-03T11:05:37Z</time>
      </trkpt>
      <trkpt lat="44.35214" lon="2.04027">
        <ele>266.7</ele>
        <time>2016-01-03T11:05:38Z</time>
      </trkpt>
      <trkpt lat="44.35211" lon="2.04022">
        <ele>266.5</ele>
        <time>2016-01-03T11:05:40Z</time>
      </trkpt>
      <trkpt lat="44.35211" lon="2.04017">
        <ele>266.5</ele>
        <time>2016-01-03T11:05:41Z</time>
      </trkpt>
      <trkpt lat="44.35216" lon="2.04013">
        <ele>266.9</ele>
        <time>2016-01-03T11:05:42Z</time>
      </trkpt>
      <trkpt lat="44.35217" lon="2.04009">
        <ele>267.1</ele>
        <time>2016-01-03T11:05:43Z</time>
      </trkpt>
      <trkpt lat="44.35217" lon="2.04002">
        <ele>267.1</ele>
        <time>2016-01-03T11:05:46Z</time>
      </trkpt>
      <trkpt lat="44.35221" lon="2.03999">
        <ele>267.4</ele>
        <time>2016-01-03T11:05:47Z</time>
      </trkpt>
      <trkpt lat="44.3522" lon="2.03993">
        <ele>267.3</ele>
        <time>2016-01-03T11:05:48Z</time>
      </trkpt>
      <trkpt lat="44.35221" lon="2.03982">
        <ele>267.4</ele>
        <time>2016-01-03T11:05:50Z</time>
      </trkpt>
      <trkpt lat="44.35225" lon="2.03973">
        <ele>267.6</ele>
        <time>2016-01-03T11:05:51Z</time>
      </trkpt>
      <trkpt lat="44.35227" lon="2.03967">
        <ele>267.7</ele>
        <time>2016-01-03T11:05:52Z</time>
      </trkpt>
      <trkpt lat="44.35228" lon="2.03962">
        <ele>267.7</ele>
        <time>2016-01-03T11:05:53Z</time>
      </trkpt>
      <trkpt lat="44.35225" lon="2.03958">
        <ele>267.6</ele>
        <time>2016-01-03T11:05:54Z</time>
      </trkpt>
      <trkpt lat="44.35222" lon="2.03953">
        <ele>267.8</ele>
        <time>2016-01-03T11:05:55Z</time>
      </trkpt>
      <trkpt lat="44.35218" lon="2.03951">
        <ele>267.8</ele>
        <time>2016-01-03T11:05:56Z</time>
      </trkpt>
      <trkpt lat="44.35214" lon="2.03953">
        <ele>267.6</ele>
        <time>2016-01-03T11:05:57Z</time>
      </trkpt>
      <trkpt lat="44.35212" lon="2.03958">
        <ele>267.2</ele>
        <time>2016-01-03T11:05:59Z</time>
      </trkpt>
      <trkpt lat="44.35209" lon="2.03961">
        <ele>267</ele>
        <time>2016-01-03T11:06:00Z</time>
      </trkpt>
      <trkpt lat="44.35204" lon="2.03966">
        <ele>266.6</ele>
        <time>2016-01-03T11:06:01Z</time>
      </trkpt>
      <trkpt lat="44.352" lon="2.03968">
        <ele>266.3</ele>
        <time>2016-01-03T11:06:02Z</time>
      </trkpt>
      <trkpt lat="44.35194" lon="2.03969">
        <ele>265.9</ele>
        <time>2016-01-03T11:06:03Z</time>
      </trkpt>
      <trkpt lat="44.35188" lon="2.03971">
        <ele>265.4</ele>
        <time>2016-01-03T11:06:04Z</time>
      </trkpt>
      <trkpt lat="44.35181" lon="2.03974">
        <ele>265</ele>
        <time>2016-01-03T11:06:05Z</time>
      </trkpt>
      <trkpt lat="44.35175" lon="2.03977">
        <ele>264.6</ele>
        <time>2016-01-03T11:06:06Z</time>
      </trkpt>
      <trkpt lat="44.35169" lon="2.0398">
        <ele>264.1</ele>
        <time>2016-01-03T11:06:07Z</time>
      </trkpt>
      <trkpt lat="44.3516" lon="2.03984">
        <ele>263.6</ele>
        <time>2016-01-03T11:06:08Z</time>
      </trkpt>
      <trkpt lat="44.35154" lon="2.03989">
        <ele>263.2</ele>
        <time>2016-01-03T11:06:09Z</time>
      </trkpt>
      <trkpt lat="44.35147" lon="2.03994">
        <ele>262.8</ele>
        <time>2016-01-03T11:06:10Z</time>
      </trkpt>
      <trkpt lat="44.35141" lon="2.03999">
        <ele>262.4</ele>
        <time>2016-01-03T11:06:11Z</time>
      </trkpt>
      <trkpt lat="44.35135" lon="2.04006">
        <ele>262.1</ele>
        <time>2016-01-03T11:06:12Z</time>
      </trkpt>
      <trkpt lat="44.3513" lon="2.04012">
        <ele>261.9</ele>
        <time>2016-01-03T11:06:13Z</time>
      </trkpt>
      <trkpt lat="44.35125" lon="2.04017">
        <ele>261.7</ele>
        <time>2016-01-03T11:06:14Z</time>
      </trkpt>
      <trkpt lat="44.3512" lon="2.04022">
        <ele>261.5</ele>
        <time>2016-01-03T11:06:15Z</time>
      </trkpt>
      <trkpt lat="44.35114" lon="2.04027">
        <ele>261.2</ele>
        <time>2016-01-03T11:06:16Z</time>
      </trkpt>
      <trkpt lat="44.35109" lon="2.04033">
        <ele>260.9</ele>
        <time>2016-01-03T11:06:17Z</time>
      </trkpt>
      <trkpt lat="44.35103" lon="2.04038">
        <ele>260.7</ele>
        <time>2016-01-03T11:06:18Z</time>
      </trkpt>
      <trkpt lat="44.35099" lon="2.0404">
        <ele>260.4</ele>
        <time>2016-01-03T11:06:19Z</time>
      </trkpt>
      <trkpt lat="44.35093" lon="2.04042">
        <ele>260.1</ele>
        <time>2016-01-03T11:06:20Z</time>
      </trkpt>
      <trkpt lat="44.3509" lon="2.04044">
        <ele>259.9</ele>
        <time>2016-01-03T11:06:21Z</time>
      </trkpt>
      <trkpt lat="44.35087" lon="2.04042">
        <ele>259.7</ele>
        <time>2016-01-03T11:06:22Z</time>
      </trkpt>
      <trkpt lat="44.35084" lon="2.04044">
        <ele>259.5</ele>
        <time>2016-01-03T11:06:24Z</time>
      </trkpt>
      <trkpt lat="44.35082" lon="2.04049">
        <ele>259.4</ele>
        <time>2016-01-03T11:06:29Z</time>
      </trkpt>
      <trkpt lat="44.35079" lon="2.04048">
        <ele>259.2</ele>
        <time>2016-01-03T11:06:32Z</time>
      </trkpt>
      <trkpt lat="44.35076" lon="2.04046">
        <ele>259.1</ele>
        <time>2016-01-03T11:06:34Z</time>
      </trkpt>
      <trkpt lat="44.35074" lon="2.04043">
        <ele>258.9</ele>
        <time>2016-01-03T11:06:35Z</time>
      </trkpt>
      <trkpt lat="44.35072" lon="2.04039">
        <ele>258.8</ele>
        <time>2016-01-03T11:06:36Z</time>
      </trkpt>
      <trkpt lat="44.35069" lon="2.04035">
        <ele>258.6</ele>
        <time>2016-01-03T11:06:37Z</time>
      </trkpt>
      <trkpt lat="44.35067" lon="2.04031">
        <ele>258.5</ele>
        <time>2016-01-03T11:06:38Z</time>
      </trkpt>
      <trkpt lat="44.35064" lon="2.04029">
        <ele>258.3</ele>
        <time>2016-01-03T11:06:39Z</time>
      </trkpt>
      <trkpt lat="44.3506" lon="2.04025">
        <ele>258.1</ele>
        <time>2016-01-03T11:06:41Z</time>
      </trkpt>
      <trkpt lat="44.35058" lon="2.04022">
        <ele>257.9</ele>
        <time>2016-01-03T11:06:42Z</time>
      </trkpt>
      <trkpt lat="44.35055" lon="2.04019">
        <ele>257.7</ele>
        <time>2016-01-03T11:06:43Z</time>
      </trkpt>
      <trkpt lat="44.35052" lon="2.04016">
        <ele>257.6</ele>
        <time>2016-01-03T11:06:44Z</time>
      </trkpt>
      <trkpt lat="44.3505" lon="2.04014">
        <ele>257.4</ele>
        <time>2016-01-03T11:06:45Z</time>
      </trkpt>
      <trkpt lat="44.35044" lon="2.04009">
        <ele>257.1</ele>
        <time>2016-01-03T11:06:46Z</time>
      </trkpt>
      <trkpt lat="44.35038" lon="2.04005">
        <ele>257.1</ele>
        <time>2016-01-03T11:06:47Z</time>
      </trkpt>
      <trkpt lat="44.35033" lon="2.04002">
        <ele>257.3</ele>
        <time>2016-01-03T11:06:48Z</time>
      </trkpt>
      <trkpt lat="44.35029" lon="2.03998">
        <ele>257.4</ele>
        <time>2016-01-03T11:06:49Z</time>
      </trkpt>
      <trkpt lat="44.35025" lon="2.03996">
        <ele>257.5</ele>
        <time>2016-01-03T11:06:50Z</time>
      </trkpt>
      <trkpt lat="44.3502" lon="2.03993">
        <ele>257.5</ele>
        <time>2016-01-03T11:06:51Z</time>
      </trkpt>
      <trkpt lat="44.35013" lon="2.03988">
        <ele>257.6</ele>
        <time>2016-01-03T11:06:52Z</time>
      </trkpt>
      <trkpt lat="44.35008" lon="2.03988">
        <ele>257.7</ele>
        <time>2016-01-03T11:06:53Z</time>
      </trkpt>
      <trkpt lat="44.35005" lon="2.03992">
        <ele>257.9</ele>
        <time>2016-01-03T11:06:54Z</time>
      </trkpt>
      <trkpt lat="44.35014" lon="2.04004">
        <ele>257.9</ele>
        <time>2016-01-03T11:06:55Z</time>
      </trkpt>
      <trkpt lat="44.35011" lon="2.04001">
        <ele>257.9</ele>
        <time>2016-01-03T11:06:56Z</time>
      </trkpt>
      <trkpt lat="44.35008" lon="2.03998">
        <ele>258</ele>
        <time>2016-01-03T11:06:59Z</time>
      </trkpt>
      <trkpt lat="44.35006" lon="2.03994">
        <ele>257.9</ele>
        <time>2016-01-03T11:07:00Z</time>
      </trkpt>
      <trkpt lat="44.35004" lon="2.03988">
        <ele>257.8</ele>
        <time>2016-01-03T11:07:02Z</time>
      </trkpt>
      <trkpt lat="44.35002" lon="2.03984">
        <ele>257.7</ele>
        <time>2016-01-03T11:07:03Z</time>
      </trkpt>
      <trkpt lat="44.35003" lon="2.03979">
        <ele>257.6</ele>
        <time>2016-01-03T11:07:04Z</time>
      </trkpt>
      <trkpt lat="44.35003" lon="2.03975">
        <ele>257.5</ele>
        <time>2016-01-03T11:07:05Z</time>
      </trkpt>
      <trkpt lat="44.35002" lon="2.03971">
        <ele>257.4</ele>
        <time>2016-01-03T11:07:06Z</time>
      </trkpt>
      <trkpt lat="44.35" lon="2.03967">
        <ele>257.3</ele>
        <time>2016-01-03T11:07:07Z</time>
      </trkpt>
      <trkpt lat="44.34996" lon="2.03961">
        <ele>257.1</ele>
        <time>2016-01-03T11:07:09Z</time>
      </trkpt>
      <trkpt lat="44.34992" lon="2.03956">
        <ele>257</ele>
        <time>2016-01-03T11:07:11Z</time>
      </trkpt>
      <trkpt lat="44.3499" lon="2.03954">
        <ele>257.1</ele>
        <time>2016-01-03T11:07:12Z</time>
      </trkpt>
      <trkpt lat="44.34986" lon="2.03949">
        <ele>257.1</ele>
        <time>2016-01-03T11:07:14Z</time>
      </trkpt>
      <trkpt lat="44.34985" lon="2.03945">
        <ele>257.1</ele>
        <time>2016-01-03T11:07:15Z</time>
      </trkpt>
      <trkpt lat="44.34984" lon="2.03938">
        <ele>257.2</ele>
        <time>2016-01-03T11:07:16Z</time>
      </trkpt>
      <trkpt lat="44.34982" lon="2.03933">
        <ele>257.3</ele>
        <time>2016-01-03T11:07:17Z</time>
      </trkpt>
      <trkpt lat="44.34979" lon="2.03929">
        <ele>257.3</ele>
        <time>2016-01-03T11:07:18Z</time>
      </trkpt>
      <trkpt lat="44.34977" lon="2.03923">
        <ele>257.3</ele>
        <time>2016-01-03T11:07:19Z</time>
      </trkpt>
      <trkpt lat="44.34979" lon="2.03915">
        <ele>257.4</ele>
        <time>2016-01-03T11:07:20Z</time>
      </trkpt>
      <trkpt lat="44.34977" lon="2.03907">
        <ele>257.4</ele>
        <time>2016-01-03T11:07:21Z</time>
      </trkpt>
      <trkpt lat="44.34976" lon="2.039">
        <ele>257.5</ele>
        <time>2016-01-03T11:07:22Z</time>
      </trkpt>
      <trkpt lat="44.34976" lon="2.03893">
        <ele>257.5</ele>
        <time>2016-01-03T11:07:23Z</time>
      </trkpt>
      <trkpt lat="44.34974" lon="2.03888">
        <ele>257.5</ele>
        <time>2016-01-03T11:07:24Z</time>
      </trkpt>
      <trkpt lat="44.34973" lon="2.03884">
        <ele>257.5</ele>
        <time>2016-01-03T11:07:25Z</time>
      </trkpt>
      <trkpt lat="44.34972" lon="2.03879">
        <ele>257.5</ele>
        <time>2016-01-03T11:07:26Z</time>
      </trkpt>
      <trkpt lat="44.34971" lon="2.03876">
        <ele>257.4</ele>
        <time>2016-01-03T11:07:27Z</time>
      </trkpt>
      <trkpt lat="44.34967" lon="2.03871">
        <ele>257.4</ele>
        <time>2016-01-03T11:07:28Z</time>
      </trkpt>
      <trkpt lat="44.34965" lon="2.03864">
        <ele>257.4</ele>
        <time>2016-01-03T11:07:29Z</time>
      </trkpt>
      <trkpt lat="44.34965" lon="2.03858">
        <ele>257.5</ele>
        <time>2016-01-03T11:07:30Z</time>
      </trkpt>
      <trkpt lat="44.34964" lon="2.03852">
        <ele>257.5</ele>
        <time>2016-01-03T11:07:31Z</time>
      </trkpt>
      <trkpt lat="44.34964" lon="2.03846">
        <ele>257.6</ele>
        <time>2016-01-03T11:07:32Z</time>
      </trkpt>
      <trkpt lat="44.34964" lon="2.0384">
        <ele>257.7</ele>
        <time>2016-01-03T11:07:33Z</time>
      </trkpt>
      <trkpt lat="44.34962" lon="2.03836">
        <ele>257.7</ele>
        <time>2016-01-03T11:07:34Z</time>
      </trkpt>
      <trkpt lat="44.3496" lon="2.03829">
        <ele>257.7</ele>
        <time>2016-01-03T11:07:36Z</time>
      </trkpt>
      <trkpt lat="44.34959" lon="2.03825">
        <ele>257.6</ele>
        <time>2016-01-03T11:07:37Z</time>
      </trkpt>
      <trkpt lat="44.34957" lon="2.03821">
        <ele>257.7</ele>
        <time>2016-01-03T11:07:38Z</time>
      </trkpt>
      <trkpt lat="44.34959" lon="2.03811">
        <ele>257.8</ele>
        <time>2016-01-03T11:07:39Z</time>
      </trkpt>
      <trkpt lat="44.3496" lon="2.03803">
        <ele>257.9</ele>
        <time>2016-01-03T11:07:40Z</time>
      </trkpt>
      <trkpt lat="44.34959" lon="2.03798">
        <ele>257.9</ele>
        <time>2016-01-03T11:07:41Z</time>
      </trkpt>
      <trkpt lat="44.34959" lon="2.03791">
        <ele>258</ele>
        <time>2016-01-03T11:07:42Z</time>
      </trkpt>
      <trkpt lat="44.3496" lon="2.03784">
        <ele>257.9</ele>
        <time>2016-01-03T11:07:43Z</time>
      </trkpt>
      <trkpt lat="44.3496" lon="2.03777">
        <ele>257.7</ele>
        <time>2016-01-03T11:07:44Z</time>
      </trkpt>
      <trkpt lat="44.34961" lon="2.03772">
        <ele>257.7</ele>
        <time>2016-01-03T11:07:45Z</time>
      </trkpt>
      <trkpt lat="44.34962" lon="2.03767">
        <ele>257.6</ele>
        <time>2016-01-03T11:07:46Z</time>
      </trkpt>
      <trkpt lat="44.34963" lon="2.03762">
        <ele>257.5</ele>
        <time>2016-01-03T11:07:47Z</time>
      </trkpt>
      <trkpt lat="44.34964" lon="2.03757">
        <ele>257.5</ele>
        <time>2016-01-03T11:07:48Z</time>
      </trkpt>
      <trkpt lat="44.34966" lon="2.03751">
        <ele>257.4</ele>
        <time>2016-01-03T11:07:50Z</time>
      </trkpt>
      <trkpt lat="44.34967" lon="2.03742">
        <ele>257.3</ele>
        <time>2016-01-03T11:07:52Z</time>
      </trkpt>
      <trkpt lat="44.34968" lon="2.03736">
        <ele>257.3</ele>
        <time>2016-01-03T11:07:53Z</time>
      </trkpt>
      <trkpt lat="44.3497" lon="2.03731">
        <ele>257.2</ele>
        <time>2016-01-03T11:07:54Z</time>
      </trkpt>
      <trkpt lat="44.34972" lon="2.03726">
        <ele>257.2</ele>
        <time>2016-01-03T11:07:55Z</time>
      </trkpt>
      <trkpt lat="44.34976" lon="2.0373">
        <ele>257.6</ele>
        <time>2016-01-03T11:07:56Z</time>
      </trkpt>
      <trkpt lat="44.34979" lon="2.03732">
        <ele>257.8</ele>
        <time>2016-01-03T11:07:58Z</time>
      </trkpt>
      <trkpt lat="44.34979" lon="2.03735">
        <ele>257.9</ele>
        <time>2016-01-03T11:08:00Z</time>
      </trkpt>
      <trkpt lat="44.34976" lon="2.03736">
        <ele>257.7</ele>
        <time>2016-01-03T11:08:03Z</time>
      </trkpt>
      <trkpt lat="44.34973" lon="2.03738">
        <ele>257.6</ele>
        <time>2016-01-03T11:08:04Z</time>
      </trkpt>
      <trkpt lat="44.3497" lon="2.03739">
        <ele>257.4</ele>
        <time>2016-01-03T11:08:06Z</time>
      </trkpt>
      <trkpt lat="44.34963" lon="2.03736">
        <ele>256.9</ele>
        <time>2016-01-03T11:08:09Z</time>
      </trkpt>
      <trkpt lat="44.34961" lon="2.0373">
        <ele>256.7</ele>
        <time>2016-01-03T11:08:10Z</time>
      </trkpt>
      <trkpt lat="44.34947" lon="2.0371">
        <ele>256.3</ele>
        <time>2016-01-03T11:08:19Z</time>
      </trkpt>
      <trkpt lat="44.34942" lon="2.0371">
        <ele>256.4</ele>
        <time>2016-01-03T11:08:21Z</time>
      </trkpt>
      <trkpt lat="44.34939" lon="2.03711">
        <ele>256.5</ele>
        <time>2016-01-03T11:08:22Z</time>
      </trkpt>
      <trkpt lat="44.34937" lon="2.03713">
        <ele>256.6</ele>
        <time>2016-01-03T11:08:23Z</time>
      </trkpt>
      <trkpt lat="44.34931" lon="2.03714">
        <ele>256.8</ele>
        <time>2016-01-03T11:08:25Z</time>
      </trkpt>
      <trkpt lat="44.34927" lon="2.03715">
        <ele>256.9</ele>
        <time>2016-01-03T11:08:26Z</time>
      </trkpt>
      <trkpt lat="44.34922" lon="2.03715">
        <ele>257</ele>
        <time>2016-01-03T11:08:27Z</time>
      </trkpt>
      <trkpt lat="44.34918" lon="2.03716">
        <ele>257.2</ele>
        <time>2016-01-03T11:08:28Z</time>
      </trkpt>
      <trkpt lat="44.34914" lon="2.03718">
        <ele>257.3</ele>
        <time>2016-01-03T11:08:29Z</time>
      </trkpt>
      <trkpt lat="44.3491" lon="2.03719">
        <ele>257.4</ele>
        <time>2016-01-03T11:08:30Z</time>
      </trkpt>
      <trkpt lat="44.34907" lon="2.03721">
        <ele>257.5</ele>
        <time>2016-01-03T11:08:31Z</time>
      </trkpt>
      <trkpt lat="44.34903" lon="2.03722">
        <ele>257.7</ele>
        <time>2016-01-03T11:08:33Z</time>
      </trkpt>
      <trkpt lat="44.349" lon="2.03719">
        <ele>257.6</ele>
        <time>2016-01-03T11:08:35Z</time>
      </trkpt>
      <trkpt lat="44.349" lon="2.03714">
        <ele>257.5</ele>
        <time>2016-01-03T11:08:36Z</time>
      </trkpt>
      <trkpt lat="44.349" lon="2.0371">
        <ele>257.4</ele>
        <time>2016-01-03T11:08:37Z</time>
      </trkpt>
      <trkpt lat="44.349" lon="2.03706">
        <ele>257.4</ele>
        <time>2016-01-03T11:08:39Z</time>
      </trkpt>
      <trkpt lat="44.349" lon="2.03701">
        <ele>257.3</ele>
        <time>2016-01-03T11:08:41Z</time>
      </trkpt>
      <trkpt lat="44.349" lon="2.03697">
        <ele>257.3</ele>
        <time>2016-01-03T11:08:43Z</time>
      </trkpt>
      <trkpt lat="44.34904" lon="2.03693">
        <ele>257.1</ele>
        <time>2016-01-03T11:08:45Z</time>
      </trkpt>
      <trkpt lat="44.34906" lon="2.03689">
        <ele>257.1</ele>
        <time>2016-01-03T11:08:46Z</time>
      </trkpt>
      <trkpt lat="44.34906" lon="2.03682">
        <ele>257</ele>
        <time>2016-01-03T11:08:48Z</time>
      </trkpt>
      <trkpt lat="44.34907" lon="2.03678">
        <ele>256.9</ele>
        <time>2016-01-03T11:08:49Z</time>
      </trkpt>
      <trkpt lat="44.34907" lon="2.03673">
        <ele>256.9</ele>
        <time>2016-01-03T11:08:50Z</time>
      </trkpt>
      <trkpt lat="44.34906" lon="2.03666">
        <ele>256.8</ele>
        <time>2016-01-03T11:08:51Z</time>
      </trkpt>
      <trkpt lat="44.34905" lon="2.03659">
        <ele>256.7</ele>
        <time>2016-01-03T11:08:52Z</time>
      </trkpt>
      <trkpt lat="44.34904" lon="2.0365">
        <ele>256.6</ele>
        <time>2016-01-03T11:08:53Z</time>
      </trkpt>
      <trkpt lat="44.34904" lon="2.03638">
        <ele>256.5</ele>
        <time>2016-01-03T11:08:54Z</time>
      </trkpt>
      <trkpt lat="44.34903" lon="2.03632">
        <ele>256.4</ele>
        <time>2016-01-03T11:08:55Z</time>
      </trkpt>
      <trkpt lat="44.34903" lon="2.03626">
        <ele>256.3</ele>
        <time>2016-01-03T11:08:56Z</time>
      </trkpt>
      <trkpt lat="44.34903" lon="2.0362">
        <ele>256.2</ele>
        <time>2016-01-03T11:08:58Z</time>
      </trkpt>
      <trkpt lat="44.34905" lon="2.03616">
        <ele>256.1</ele>
        <time>2016-01-03T11:08:59Z</time>
      </trkpt>
      <trkpt lat="44.34904" lon="2.03609">
        <ele>256</ele>
        <time>2016-01-03T11:09:01Z</time>
      </trkpt>
      <trkpt lat="44.34902" lon="2.03604">
        <ele>255.8</ele>
        <time>2016-01-03T11:09:02Z</time>
      </trkpt>
      <trkpt lat="44.34901" lon="2.03596">
        <ele>255.6</ele>
        <time>2016-01-03T11:09:03Z</time>
      </trkpt>
      <trkpt lat="44.34902" lon="2.03585">
        <ele>255.4</ele>
        <time>2016-01-03T11:09:04Z</time>
      </trkpt>
      <trkpt lat="44.34901" lon="2.03578">
        <ele>255.2</ele>
        <time>2016-01-03T11:09:05Z</time>
      </trkpt>
      <trkpt lat="44.34894" lon="2.03564">
        <ele>254.8</ele>
        <time>2016-01-03T11:09:06Z</time>
      </trkpt>
      <trkpt lat="44.3489" lon="2.03556">
        <ele>254.5</ele>
        <time>2016-01-03T11:09:07Z</time>
      </trkpt>
      <trkpt lat="44.3489" lon="2.03541">
        <ele>254.2</ele>
        <time>2016-01-03T11:09:08Z</time>
      </trkpt>
      <trkpt lat="44.34887" lon="2.03531">
        <ele>254.3</ele>
        <time>2016-01-03T11:09:09Z</time>
      </trkpt>
      <trkpt lat="44.34892" lon="2.03515">
        <ele>254.7</ele>
        <time>2016-01-03T11:09:10Z</time>
      </trkpt>
      <trkpt lat="44.34891" lon="2.03506">
        <ele>254.8</ele>
        <time>2016-01-03T11:09:11Z</time>
      </trkpt>
      <trkpt lat="44.3489" lon="2.03496">
        <ele>254.9</ele>
        <time>2016-01-03T11:09:12Z</time>
      </trkpt>
      <trkpt lat="44.34889" lon="2.03488">
        <ele>255</ele>
        <time>2016-01-03T11:09:13Z</time>
      </trkpt>
      <trkpt lat="44.34887" lon="2.03481">
        <ele>255.1</ele>
        <time>2016-01-03T11:09:14Z</time>
      </trkpt>
      <trkpt lat="44.34886" lon="2.03476">
        <ele>255.1</ele>
        <time>2016-01-03T11:09:15Z</time>
      </trkpt>
      <trkpt lat="44.34885" lon="2.03471">
        <ele>255.2</ele>
        <time>2016-01-03T11:09:16Z</time>
      </trkpt>
      <trkpt lat="44.34884" lon="2.03466">
        <ele>255.2</ele>
        <time>2016-01-03T11:09:17Z</time>
      </trkpt>
      <trkpt lat="44.34884" lon="2.0346">
        <ele>255.3</ele>
        <time>2016-01-03T11:09:18Z</time>
      </trkpt>
      <trkpt lat="44.3488" lon="2.03455">
        <ele>255.2</ele>
        <time>2016-01-03T11:09:19Z</time>
      </trkpt>
      <trkpt lat="44.34877" lon="2.03449">
        <ele>255</ele>
        <time>2016-01-03T11:09:20Z</time>
      </trkpt>
      <trkpt lat="44.34873" lon="2.03444">
        <ele>254.8</ele>
        <time>2016-01-03T11:09:21Z</time>
      </trkpt>
      <trkpt lat="44.34869" lon="2.03439">
        <ele>254.7</ele>
        <time>2016-01-03T11:09:22Z</time>
      </trkpt>
      <trkpt lat="44.34867" lon="2.03432">
        <ele>254.6</ele>
        <time>2016-01-03T11:09:23Z</time>
      </trkpt>
      <trkpt lat="44.34864" lon="2.03426">
        <ele>254.5</ele>
        <time>2016-01-03T11:09:24Z</time>
      </trkpt>
      <trkpt lat="44.34862" lon="2.03421">
        <ele>254.4</ele>
        <time>2016-01-03T11:09:25Z</time>
      </trkpt>
      <trkpt lat="44.34862" lon="2.03415">
        <ele>254.3</ele>
        <time>2016-01-03T11:09:26Z</time>
      </trkpt>
      <trkpt lat="44.34861" lon="2.03409">
        <ele>254.2</ele>
        <time>2016-01-03T11:09:27Z</time>
      </trkpt>
      <trkpt lat="44.3486" lon="2.03403">
        <ele>254.2</ele>
        <time>2016-01-03T11:09:28Z</time>
      </trkpt>
      <trkpt lat="44.34858" lon="2.03396">
        <ele>254</ele>
        <time>2016-01-03T11:09:29Z</time>
      </trkpt>
      <trkpt lat="44.34856" lon="2.03391">
        <ele>254</ele>
        <time>2016-01-03T11:09:30Z</time>
      </trkpt>
      <trkpt lat="44.34853" lon="2.03386">
        <ele>253.9</ele>
        <time>2016-01-03T11:09:31Z</time>
      </trkpt>
      <trkpt lat="44.34851" lon="2.03381">
        <ele>253.8</ele>
        <time>2016-01-03T11:09:32Z</time>
      </trkpt>
      <trkpt lat="44.34849" lon="2.03377">
        <ele>253.7</ele>
        <time>2016-01-03T11:09:33Z</time>
      </trkpt>
      <trkpt lat="44.34847" lon="2.03373">
        <ele>253.7</ele>
        <time>2016-01-03T11:09:34Z</time>
      </trkpt>
      <trkpt lat="44.34845" lon="2.03369">
        <ele>253.6</ele>
        <time>2016-01-03T11:09:35Z</time>
      </trkpt>
      <trkpt lat="44.34844" lon="2.03365">
        <ele>253.6</ele>
        <time>2016-01-03T11:09:36Z</time>
      </trkpt>
      <trkpt lat="44.34842" lon="2.03362">
        <ele>253.5</ele>
        <time>2016-01-03T11:09:37Z</time>
      </trkpt>
      <trkpt lat="44.3484" lon="2.03357">
        <ele>253.5</ele>
        <time>2016-01-03T11:09:38Z</time>
      </trkpt>
      <trkpt lat="44.34838" lon="2.03353">
        <ele>253.4</ele>
        <time>2016-01-03T11:09:39Z</time>
      </trkpt>
      <trkpt lat="44.34837" lon="2.0335">
        <ele>253.4</ele>
        <time>2016-01-03T11:09:40Z</time>
      </trkpt>
      <trkpt lat="44.34835" lon="2.03346">
        <ele>253.4</ele>
        <time>2016-01-03T11:09:41Z</time>
      </trkpt>
      <trkpt lat="44.34833" lon="2.03341">
        <ele>253.3</ele>
        <time>2016-01-03T11:09:42Z</time>
      </trkpt>
      <trkpt lat="44.34831" lon="2.03337">
        <ele>253.2</ele>
        <time>2016-01-03T11:09:43Z</time>
      </trkpt>
      <trkpt lat="44.34828" lon="2.03333">
        <ele>253.2</ele>
        <time>2016-01-03T11:09:44Z</time>
      </trkpt>
      <trkpt lat="44.34826" lon="2.03329">
        <ele>253.1</ele>
        <time>2016-01-03T11:09:45Z</time>
      </trkpt>
      <trkpt lat="44.34824" lon="2.03326">
        <ele>253</ele>
        <time>2016-01-03T11:09:46Z</time>
      </trkpt>
      <trkpt lat="44.34821" lon="2.03321">
        <ele>252.9</ele>
        <time>2016-01-03T11:09:47Z</time>
      </trkpt>
      <trkpt lat="44.34818" lon="2.03315">
        <ele>252.8</ele>
        <time>2016-01-03T11:09:48Z</time>
      </trkpt>
      <trkpt lat="44.34817" lon="2.0331">
        <ele>252.8</ele>
        <time>2016-01-03T11:09:49Z</time>
      </trkpt>
      <trkpt lat="44.34815" lon="2.03304">
        <ele>252.7</ele>
        <time>2016-01-03T11:09:50Z</time>
      </trkpt>
      <trkpt lat="44.34812" lon="2.03298">
        <ele>252.6</ele>
        <time>2016-01-03T11:09:51Z</time>
      </trkpt>
      <trkpt lat="44.3481" lon="2.03293">
        <ele>252.5</ele>
        <time>2016-01-03T11:09:52Z</time>
      </trkpt>
      <trkpt lat="44.34808" lon="2.03286">
        <ele>252.5</ele>
        <time>2016-01-03T11:09:53Z</time>
      </trkpt>
      <trkpt lat="44.34806" lon="2.03281">
        <ele>252.5</ele>
        <time>2016-01-03T11:09:54Z</time>
      </trkpt>
      <trkpt lat="44.34803" lon="2.03276">
        <ele>252.6</ele>
        <time>2016-01-03T11:09:55Z</time>
      </trkpt>
      <trkpt lat="44.348" lon="2.03271">
        <ele>252.6</ele>
        <time>2016-01-03T11:09:56Z</time>
      </trkpt>
      <trkpt lat="44.34798" lon="2.03266">
        <ele>252.7</ele>
        <time>2016-01-03T11:09:57Z</time>
      </trkpt>
      <trkpt lat="44.34797" lon="2.03262">
        <ele>252.8</ele>
        <time>2016-01-03T11:09:58Z</time>
      </trkpt>
      <trkpt lat="44.34797" lon="2.03259">
        <ele>252.9</ele>
        <time>2016-01-03T11:09:59Z</time>
      </trkpt>
      <trkpt lat="44.34796" lon="2.03255">
        <ele>252.9</ele>
        <time>2016-01-03T11:10:00Z</time>
      </trkpt>
      <trkpt lat="44.34794" lon="2.03251">
        <ele>253</ele>
        <time>2016-01-03T11:10:01Z</time>
      </trkpt>
      <trkpt lat="44.34793" lon="2.03247">
        <ele>253.1</ele>
        <time>2016-01-03T11:10:02Z</time>
      </trkpt>
      <trkpt lat="44.34795" lon="2.03241">
        <ele>253.3</ele>
        <time>2016-01-03T11:10:04Z</time>
      </trkpt>
      <trkpt lat="44.34795" lon="2.03237">
        <ele>253.3</ele>
        <time>2016-01-03T11:10:05Z</time>
      </trkpt>
      <trkpt lat="44.34792" lon="2.03229">
        <ele>253.5</ele>
        <time>2016-01-03T11:10:06Z</time>
      </trkpt>
      <trkpt lat="44.34788" lon="2.03225">
        <ele>253.6</ele>
        <time>2016-01-03T11:10:07Z</time>
      </trkpt>
      <trkpt lat="44.34787" lon="2.03214">
        <ele>253.8</ele>
        <time>2016-01-03T11:10:08Z</time>
      </trkpt>
      <trkpt lat="44.34784" lon="2.03207">
        <ele>253.9</ele>
        <time>2016-01-03T11:10:09Z</time>
      </trkpt>
      <trkpt lat="44.3478" lon="2.03202">
        <ele>253.9</ele>
        <time>2016-01-03T11:10:10Z</time>
      </trkpt>
      <trkpt lat="44.34778" lon="2.03195">
        <ele>253.8</ele>
        <time>2016-01-03T11:10:11Z</time>
      </trkpt>
      <trkpt lat="44.34775" lon="2.0319">
        <ele>253.8</ele>
        <time>2016-01-03T11:10:12Z</time>
      </trkpt>
      <trkpt lat="44.34772" lon="2.03185">
        <ele>253.7</ele>
        <time>2016-01-03T11:10:13Z</time>
      </trkpt>
      <trkpt lat="44.3477" lon="2.03178">
        <ele>253.6</ele>
        <time>2016-01-03T11:10:14Z</time>
      </trkpt>
      <trkpt lat="44.34766" lon="2.03172">
        <ele>253.6</ele>
        <time>2016-01-03T11:10:15Z</time>
      </trkpt>
      <trkpt lat="44.34763" lon="2.03168">
        <ele>253.5</ele>
        <time>2016-01-03T11:10:16Z</time>
      </trkpt>
      <trkpt lat="44.34762" lon="2.03163">
        <ele>253.4</ele>
        <time>2016-01-03T11:10:17Z</time>
      </trkpt>
      <trkpt lat="44.34759" lon="2.03155">
        <ele>253.4</ele>
        <time>2016-01-03T11:10:18Z</time>
      </trkpt>
      <trkpt lat="44.34758" lon="2.0315">
        <ele>253.3</ele>
        <time>2016-01-03T11:10:19Z</time>
      </trkpt>
      <trkpt lat="44.34756" lon="2.03146">
        <ele>253.2</ele>
        <time>2016-01-03T11:10:20Z</time>
      </trkpt>
      <trkpt lat="44.34753" lon="2.03141">
        <ele>253.2</ele>
        <time>2016-01-03T11:10:21Z</time>
      </trkpt>
      <trkpt lat="44.3475" lon="2.03136">
        <ele>253.1</ele>
        <time>2016-01-03T11:10:22Z</time>
      </trkpt>
      <trkpt lat="44.34747" lon="2.03131">
        <ele>253</ele>
        <time>2016-01-03T11:10:23Z</time>
      </trkpt>
      <trkpt lat="44.34744" lon="2.03127">
        <ele>252.9</ele>
        <time>2016-01-03T11:10:24Z</time>
      </trkpt>
      <trkpt lat="44.34741" lon="2.03124">
        <ele>252.8</ele>
        <time>2016-01-03T11:10:25Z</time>
      </trkpt>
      <trkpt lat="44.34738" lon="2.03118">
        <ele>252.6</ele>
        <time>2016-01-03T11:10:26Z</time>
      </trkpt>
      <trkpt lat="44.34735" lon="2.03113">
        <ele>252.5</ele>
        <time>2016-01-03T11:10:27Z</time>
      </trkpt>
      <trkpt lat="44.34732" lon="2.03109">
        <ele>252.4</ele>
        <time>2016-01-03T11:10:28Z</time>
      </trkpt>
      <trkpt lat="44.34729" lon="2.03104">
        <ele>252.3</ele>
        <time>2016-01-03T11:10:29Z</time>
      </trkpt>
      <trkpt lat="44.34726" lon="2.03099">
        <ele>252.2</ele>
        <time>2016-01-03T11:10:31Z</time>
      </trkpt>
      <trkpt lat="44.34724" lon="2.03096">
        <ele>252.1</ele>
        <time>2016-01-03T11:10:32Z</time>
      </trkpt>
      <trkpt lat="44.34722" lon="2.03089">
        <ele>251.9</ele>
        <time>2016-01-03T11:10:34Z</time>
      </trkpt>
      <trkpt lat="44.3472" lon="2.03085">
        <ele>251.9</ele>
        <time>2016-01-03T11:10:35Z</time>
      </trkpt>
      <trkpt lat="44.34718" lon="2.03082">
        <ele>251.8</ele>
        <time>2016-01-03T11:10:36Z</time>
      </trkpt>
      <trkpt lat="44.34719" lon="2.03075">
        <ele>251.7</ele>
        <time>2016-01-03T11:10:38Z</time>
      </trkpt>
      <trkpt lat="44.3472" lon="2.03071">
        <ele>251.7</ele>
        <time>2016-01-03T11:10:39Z</time>
      </trkpt>
      <trkpt lat="44.34722" lon="2.03066">
        <ele>251.7</ele>
        <time>2016-01-03T11:10:40Z</time>
      </trkpt>
      <trkpt lat="44.34725" lon="2.0306">
        <ele>251.8</ele>
        <time>2016-01-03T11:10:41Z</time>
      </trkpt>
      <trkpt lat="44.34727" lon="2.03055">
        <ele>251.8</ele>
        <time>2016-01-03T11:10:42Z</time>
      </trkpt>
      <trkpt lat="44.34726" lon="2.03051">
        <ele>251.7</ele>
        <time>2016-01-03T11:10:44Z</time>
      </trkpt>
      <trkpt lat="44.34724" lon="2.03048">
        <ele>251.6</ele>
        <time>2016-01-03T11:10:45Z</time>
      </trkpt>
      <trkpt lat="44.34716" lon="2.03044">
        <ele>251.3</ele>
        <time>2016-01-03T11:10:46Z</time>
      </trkpt>
      <trkpt lat="44.34709" lon="2.03041">
        <ele>251</ele>
        <time>2016-01-03T11:10:47Z</time>
      </trkpt>
      <trkpt lat="44.34704" lon="2.03037">
        <ele>251.1</ele>
        <time>2016-01-03T11:10:48Z</time>
      </trkpt>
      <trkpt lat="44.347" lon="2.03035">
        <ele>251.2</ele>
        <time>2016-01-03T11:10:49Z</time>
      </trkpt>
      <trkpt lat="44.34696" lon="2.03032">
        <ele>251.2</ele>
        <time>2016-01-03T11:10:50Z</time>
      </trkpt>
      <trkpt lat="44.34691" lon="2.03029">
        <ele>251.3</ele>
        <time>2016-01-03T11:10:51Z</time>
      </trkpt>
      <trkpt lat="44.34687" lon="2.03029">
        <ele>251.3</ele>
        <time>2016-01-03T11:10:52Z</time>
      </trkpt>
      <trkpt lat="44.34681" lon="2.03025">
        <ele>251.4</ele>
        <time>2016-01-03T11:10:54Z</time>
      </trkpt>
      <trkpt lat="44.34677" lon="2.03023">
        <ele>251.4</ele>
        <time>2016-01-03T11:10:55Z</time>
      </trkpt>
      <trkpt lat="44.34672" lon="2.03021">
        <ele>251.5</ele>
        <time>2016-01-03T11:10:56Z</time>
      </trkpt>
      <trkpt lat="44.34667" lon="2.03017">
        <ele>251.5</ele>
        <time>2016-01-03T11:10:57Z</time>
      </trkpt>
      <trkpt lat="44.34663" lon="2.03016">
        <ele>251.5</ele>
        <time>2016-01-03T11:10:58Z</time>
      </trkpt>
      <trkpt lat="44.34659" lon="2.03013">
        <ele>251.5</ele>
        <time>2016-01-03T11:10:59Z</time>
      </trkpt>
      <trkpt lat="44.34657" lon="2.03011">
        <ele>251.5</ele>
        <time>2016-01-03T11:11:00Z</time>
      </trkpt>
      <trkpt lat="44.34654" lon="2.03009">
        <ele>251.5</ele>
        <time>2016-01-03T11:11:01Z</time>
      </trkpt>
      <trkpt lat="44.34651" lon="2.03007">
        <ele>251.5</ele>
        <time>2016-01-03T11:11:02Z</time>
      </trkpt>
      <trkpt lat="44.34648" lon="2.03004">
        <ele>251.5</ele>
        <time>2016-01-03T11:11:03Z</time>
      </trkpt>
      <trkpt lat="44.34645" lon="2.03001">
        <ele>251.5</ele>
        <time>2016-01-03T11:11:04Z</time>
      </trkpt>
      <trkpt lat="44.34641" lon="2.02998">
        <ele>251.5</ele>
        <time>2016-01-03T11:11:05Z</time>
      </trkpt>
      <trkpt lat="44.34638" lon="2.02996">
        <ele>251.5</ele>
        <time>2016-01-03T11:11:06Z</time>
      </trkpt>
      <trkpt lat="44.34634" lon="2.02993">
        <ele>251.4</ele>
        <time>2016-01-03T11:11:07Z</time>
      </trkpt>
      <trkpt lat="44.34631" lon="2.02991">
        <ele>251.4</ele>
        <time>2016-01-03T11:11:08Z</time>
      </trkpt>
      <trkpt lat="44.34626" lon="2.02988">
        <ele>251.4</ele>
        <time>2016-01-03T11:11:09Z</time>
      </trkpt>
      <trkpt lat="44.34622" lon="2.02984">
        <ele>251.3</ele>
        <time>2016-01-03T11:11:10Z</time>
      </trkpt>
      <trkpt lat="44.34618" lon="2.02981">
        <ele>251.2</ele>
        <time>2016-01-03T11:11:11Z</time>
      </trkpt>
      <trkpt lat="44.34616" lon="2.02978">
        <ele>251.2</ele>
        <time>2016-01-03T11:11:12Z</time>
      </trkpt>
      <trkpt lat="44.34613" lon="2.02975">
        <ele>251.2</ele>
        <time>2016-01-03T11:11:13Z</time>
      </trkpt>
      <trkpt lat="44.3461" lon="2.02972">
        <ele>251.1</ele>
        <time>2016-01-03T11:11:14Z</time>
      </trkpt>
      <trkpt lat="44.34607" lon="2.02968">
        <ele>251.1</ele>
        <time>2016-01-03T11:11:16Z</time>
      </trkpt>
      <trkpt lat="44.34603" lon="2.02962">
        <ele>251</ele>
        <time>2016-01-03T11:11:18Z</time>
      </trkpt>
      <trkpt lat="44.34599" lon="2.02959">
        <ele>251</ele>
        <time>2016-01-03T11:11:20Z</time>
      </trkpt>
      <trkpt lat="44.34596" lon="2.02958">
        <ele>251</ele>
        <time>2016-01-03T11:11:21Z</time>
      </trkpt>
      <trkpt lat="44.34592" lon="2.02956">
        <ele>251</ele>
        <time>2016-01-03T11:11:23Z</time>
      </trkpt>
      <trkpt lat="44.34588" lon="2.02955">
        <ele>251</ele>
        <time>2016-01-03T11:11:24Z</time>
      </trkpt>
      <trkpt lat="44.34585" lon="2.02954">
        <ele>251</ele>
        <time>2016-01-03T11:11:25Z</time>
      </trkpt>
      <trkpt lat="44.3458" lon="2.02952">
        <ele>250.9</ele>
        <time>2016-01-03T11:11:27Z</time>
      </trkpt>
      <trkpt lat="44.34577" lon="2.0295">
        <ele>250.9</ele>
        <time>2016-01-03T11:11:28Z</time>
      </trkpt>
      <trkpt lat="44.34571" lon="2.02948">
        <ele>250.9</ele>
        <time>2016-01-03T11:11:29Z</time>
      </trkpt>
      <trkpt lat="44.34566" lon="2.02947">
        <ele>250.9</ele>
        <time>2016-01-03T11:11:30Z</time>
      </trkpt>
      <trkpt lat="44.34559" lon="2.02945">
        <ele>250.8</ele>
        <time>2016-01-03T11:11:31Z</time>
      </trkpt>
      <trkpt lat="44.34553" lon="2.02946">
        <ele>250.8</ele>
        <time>2016-01-03T11:11:32Z</time>
      </trkpt>
      <trkpt lat="44.34549" lon="2.02946">
        <ele>250.9</ele>
        <time>2016-01-03T11:11:33Z</time>
      </trkpt>
      <trkpt lat="44.34545" lon="2.02948">
        <ele>250.9</ele>
        <time>2016-01-03T11:11:34Z</time>
      </trkpt>
      <trkpt lat="44.34542" lon="2.02952">
        <ele>250.9</ele>
        <time>2016-01-03T11:11:35Z</time>
      </trkpt>
      <trkpt lat="44.34539" lon="2.02957">
        <ele>250.9</ele>
        <time>2016-01-03T11:11:36Z</time>
      </trkpt>
      <trkpt lat="44.34537" lon="2.02961">
        <ele>250.9</ele>
        <time>2016-01-03T11:11:37Z</time>
      </trkpt>
      <trkpt lat="44.34533" lon="2.02967">
        <ele>250.9</ele>
        <time>2016-01-03T11:11:38Z</time>
      </trkpt>
      <trkpt lat="44.34531" lon="2.02972">
        <ele>250.9</ele>
        <time>2016-01-03T11:11:39Z</time>
      </trkpt>
      <trkpt lat="44.34526" lon="2.02975">
        <ele>250.8</ele>
        <time>2016-01-03T11:11:40Z</time>
      </trkpt>
      <trkpt lat="44.34522" lon="2.02978">
        <ele>250.8</ele>
        <time>2016-01-03T11:11:41Z</time>
      </trkpt>
      <trkpt lat="44.34519" lon="2.02981">
        <ele>250.7</ele>
        <time>2016-01-03T11:11:42Z</time>
      </trkpt>
      <trkpt lat="44.34517" lon="2.02985">
        <ele>250.7</ele>
        <time>2016-01-03T11:11:43Z</time>
      </trkpt>
      <trkpt lat="44.34515" lon="2.02989">
        <ele>250.7</ele>
        <time>2016-01-03T11:11:44Z</time>
      </trkpt>
      <trkpt lat="44.34513" lon="2.02994">
        <ele>250.7</ele>
        <time>2016-01-03T11:11:45Z</time>
      </trkpt>
      <trkpt lat="44.34511" lon="2.02998">
        <ele>250.6</ele>
        <time>2016-01-03T11:11:46Z</time>
      </trkpt>
      <trkpt lat="44.34508" lon="2.03003">
        <ele>250.6</ele>
        <time>2016-01-03T11:11:47Z</time>
      </trkpt>
      <trkpt lat="44.34506" lon="2.03007">
        <ele>250.6</ele>
        <time>2016-01-03T11:11:48Z</time>
      </trkpt>
      <trkpt lat="44.34504" lon="2.0301">
        <ele>250.6</ele>
        <time>2016-01-03T11:11:49Z</time>
      </trkpt>
      <trkpt lat="44.34502" lon="2.03018">
        <ele>250.5</ele>
        <time>2016-01-03T11:11:51Z</time>
      </trkpt>
      <trkpt lat="44.34501" lon="2.03022">
        <ele>250.5</ele>
        <time>2016-01-03T11:11:52Z</time>
      </trkpt>
      <trkpt lat="44.345" lon="2.03027">
        <ele>250.5</ele>
        <time>2016-01-03T11:11:53Z</time>
      </trkpt>
      <trkpt lat="44.34499" lon="2.03032">
        <ele>250.5</ele>
        <time>2016-01-03T11:11:54Z</time>
      </trkpt>
      <trkpt lat="44.34499" lon="2.03036">
        <ele>250.5</ele>
        <time>2016-01-03T11:11:55Z</time>
      </trkpt>
      <trkpt lat="44.34499" lon="2.03041">
        <ele>250.5</ele>
        <time>2016-01-03T11:11:56Z</time>
      </trkpt>
      <trkpt lat="44.34499" lon="2.03045">
        <ele>250.5</ele>
        <time>2016-01-03T11:11:57Z</time>
      </trkpt>
      <trkpt lat="44.34499" lon="2.0305">
        <ele>250.5</ele>
        <time>2016-01-03T11:11:58Z</time>
      </trkpt>
      <trkpt lat="44.34499" lon="2.03054">
        <ele>250.6</ele>
        <time>2016-01-03T11:11:59Z</time>
      </trkpt>
      <trkpt lat="44.34498" lon="2.03058">
        <ele>250.6</ele>
        <time>2016-01-03T11:12:00Z</time>
      </trkpt>
      <trkpt lat="44.34499" lon="2.03064">
        <ele>250.6</ele>
        <time>2016-01-03T11:12:01Z</time>
      </trkpt>
      <trkpt lat="44.34498" lon="2.03071">
        <ele>250.6</ele>
        <time>2016-01-03T11:12:02Z</time>
      </trkpt>
      <trkpt lat="44.34498" lon="2.03079">
        <ele>250.7</ele>
        <time>2016-01-03T11:12:03Z</time>
      </trkpt>
      <trkpt lat="44.34498" lon="2.03086">
        <ele>250.7</ele>
        <time>2016-01-03T11:12:04Z</time>
      </trkpt>
      <trkpt lat="44.34498" lon="2.03093">
        <ele>250.8</ele>
        <time>2016-01-03T11:12:05Z</time>
      </trkpt>
      <trkpt lat="44.34498" lon="2.03099">
        <ele>250.8</ele>
        <time>2016-01-03T11:12:06Z</time>
      </trkpt>
      <trkpt lat="44.34497" lon="2.03105">
        <ele>250.8</ele>
        <time>2016-01-03T11:12:07Z</time>
      </trkpt>
      <trkpt lat="44.34496" lon="2.0311">
        <ele>250.8</ele>
        <time>2016-01-03T11:12:08Z</time>
      </trkpt>
      <trkpt lat="44.34497" lon="2.03116">
        <ele>250.9</ele>
        <time>2016-01-03T11:12:09Z</time>
      </trkpt>
      <trkpt lat="44.34498" lon="2.03122">
        <ele>250.9</ele>
        <time>2016-01-03T11:12:10Z</time>
      </trkpt>
      <trkpt lat="44.34499" lon="2.03129">
        <ele>251</ele>
        <time>2016-01-03T11:12:11Z</time>
      </trkpt>
      <trkpt lat="44.34499" lon="2.03134">
        <ele>251.1</ele>
        <time>2016-01-03T11:12:12Z</time>
      </trkpt>
      <trkpt lat="44.34499" lon="2.03139">
        <ele>251.2</ele>
        <time>2016-01-03T11:12:13Z</time>
      </trkpt>
      <trkpt lat="44.34499" lon="2.03144">
        <ele>251.3</ele>
        <time>2016-01-03T11:12:14Z</time>
      </trkpt>
      <trkpt lat="44.34496" lon="2.03154">
        <ele>251.4</ele>
        <time>2016-01-03T11:12:15Z</time>
      </trkpt>
      <trkpt lat="44.34495" lon="2.03162">
        <ele>251.5</ele>
        <time>2016-01-03T11:12:16Z</time>
      </trkpt>
      <trkpt lat="44.34494" lon="2.03168">
        <ele>251.6</ele>
        <time>2016-01-03T11:12:17Z</time>
      </trkpt>
      <trkpt lat="44.34494" lon="2.03175">
        <ele>251.7</ele>
        <time>2016-01-03T11:12:18Z</time>
      </trkpt>
      <trkpt lat="44.34494" lon="2.03182">
        <ele>251.8</ele>
        <time>2016-01-03T11:12:19Z</time>
      </trkpt>
      <trkpt lat="44.34494" lon="2.03188">
        <ele>251.9</ele>
        <time>2016-01-03T11:12:20Z</time>
      </trkpt>
      <trkpt lat="44.34494" lon="2.03193">
        <ele>252</ele>
        <time>2016-01-03T11:12:21Z</time>
      </trkpt>
      <trkpt lat="44.34494" lon="2.03197">
        <ele>252.1</ele>
        <time>2016-01-03T11:12:22Z</time>
      </trkpt>
      <trkpt lat="44.34493" lon="2.03202">
        <ele>252.1</ele>
        <time>2016-01-03T11:12:23Z</time>
      </trkpt>
      <trkpt lat="44.34492" lon="2.03209">
        <ele>252.2</ele>
        <time>2016-01-03T11:12:25Z</time>
      </trkpt>
      <trkpt lat="44.34489" lon="2.03212">
        <ele>252.3</ele>
        <time>2016-01-03T11:12:27Z</time>
      </trkpt>
      <trkpt lat="44.34486" lon="2.03211">
        <ele>252.1</ele>
        <time>2016-01-03T11:12:28Z</time>
      </trkpt>
      <trkpt lat="44.34483" lon="2.03207">
        <ele>251.9</ele>
        <time>2016-01-03T11:12:29Z</time>
      </trkpt>
      <trkpt lat="44.3448" lon="2.03204">
        <ele>251.7</ele>
        <time>2016-01-03T11:12:30Z</time>
      </trkpt>
      <trkpt lat="44.34474" lon="2.03201">
        <ele>251.5</ele>
        <time>2016-01-03T11:12:32Z</time>
      </trkpt>
      <trkpt lat="44.3447" lon="2.03197">
        <ele>251.3</ele>
        <time>2016-01-03T11:12:33Z</time>
      </trkpt>
      <trkpt lat="44.34466" lon="2.03194">
        <ele>251.1</ele>
        <time>2016-01-03T11:12:34Z</time>
      </trkpt>
      <trkpt lat="44.34462" lon="2.0319">
        <ele>250.9</ele>
        <time>2016-01-03T11:12:35Z</time>
      </trkpt>
      <trkpt lat="44.34457" lon="2.03187">
        <ele>250.7</ele>
        <time>2016-01-03T11:12:36Z</time>
      </trkpt>
      <trkpt lat="44.34453" lon="2.03183">
        <ele>250.7</ele>
        <time>2016-01-03T11:12:37Z</time>
      </trkpt>
      <trkpt lat="44.34449" lon="2.03181">
        <ele>250.7</ele>
        <time>2016-01-03T11:12:38Z</time>
      </trkpt>
      <trkpt lat="44.34444" lon="2.03178">
        <ele>250.7</ele>
        <time>2016-01-03T11:12:39Z</time>
      </trkpt>
      <trkpt lat="44.3444" lon="2.03175">
        <ele>250.6</ele>
        <time>2016-01-03T11:12:40Z</time>
      </trkpt>
      <trkpt lat="44.34436" lon="2.03173">
        <ele>250.6</ele>
        <time>2016-01-03T11:12:41Z</time>
      </trkpt>
      <trkpt lat="44.34433" lon="2.03171">
        <ele>250.6</ele>
        <time>2016-01-03T11:12:42Z</time>
      </trkpt>
      <trkpt lat="44.34428" lon="2.03169">
        <ele>250.5</ele>
        <time>2016-01-03T11:12:43Z</time>
      </trkpt>
      <trkpt lat="44.34423" lon="2.03166">
        <ele>250.5</ele>
        <time>2016-01-03T11:12:44Z</time>
      </trkpt>
      <trkpt lat="44.34418" lon="2.03164">
        <ele>250.4</ele>
        <time>2016-01-03T11:12:45Z</time>
      </trkpt>
      <trkpt lat="44.34413" lon="2.03163">
        <ele>250.4</ele>
        <time>2016-01-03T11:12:46Z</time>
      </trkpt>
      <trkpt lat="44.34409" lon="2.03161">
        <ele>250.3</ele>
        <time>2016-01-03T11:12:47Z</time>
      </trkpt>
      <trkpt lat="44.34406" lon="2.03159">
        <ele>250.3</ele>
        <time>2016-01-03T11:12:48Z</time>
      </trkpt>
      <trkpt lat="44.34402" lon="2.03157">
        <ele>250.2</ele>
        <time>2016-01-03T11:12:49Z</time>
      </trkpt>
      <trkpt lat="44.34399" lon="2.03156">
        <ele>250.2</ele>
        <time>2016-01-03T11:12:50Z</time>
      </trkpt>
      <trkpt lat="44.34395" lon="2.03154">
        <ele>250.1</ele>
        <time>2016-01-03T11:12:51Z</time>
      </trkpt>
      <trkpt lat="44.3439" lon="2.03152">
        <ele>250</ele>
        <time>2016-01-03T11:12:52Z</time>
      </trkpt>
      <trkpt lat="44.34386" lon="2.03151">
        <ele>250</ele>
        <time>2016-01-03T11:12:53Z</time>
      </trkpt>
      <trkpt lat="44.34382" lon="2.0315">
        <ele>249.9</ele>
        <time>2016-01-03T11:12:54Z</time>
      </trkpt>
      <trkpt lat="44.34378" lon="2.03149">
        <ele>249.9</ele>
        <time>2016-01-03T11:12:55Z</time>
      </trkpt>
      <trkpt lat="44.34373" lon="2.03148">
        <ele>249.9</ele>
        <time>2016-01-03T11:12:56Z</time>
      </trkpt>
      <trkpt lat="44.34369" lon="2.03147">
        <ele>249.9</ele>
        <time>2016-01-03T11:12:57Z</time>
      </trkpt>
      <trkpt lat="44.34364" lon="2.03145">
        <ele>249.9</ele>
        <time>2016-01-03T11:12:58Z</time>
      </trkpt>
      <trkpt lat="44.34361" lon="2.03145">
        <ele>250</ele>
        <time>2016-01-03T11:12:59Z</time>
      </trkpt>
      <trkpt lat="44.34356" lon="2.03144">
        <ele>250</ele>
        <time>2016-01-03T11:13:00Z</time>
      </trkpt>
      <trkpt lat="44.34353" lon="2.03142">
        <ele>250</ele>
        <time>2016-01-03T11:13:01Z</time>
      </trkpt>
      <trkpt lat="44.3435" lon="2.0314">
        <ele>249.9</ele>
        <time>2016-01-03T11:13:02Z</time>
      </trkpt>
      <trkpt lat="44.34344" lon="2.03139">
        <ele>250</ele>
        <time>2016-01-03T11:13:03Z</time>
      </trkpt>
      <trkpt lat="44.3434" lon="2.03137">
        <ele>250</ele>
        <time>2016-01-03T11:13:04Z</time>
      </trkpt>
      <trkpt lat="44.34337" lon="2.03136">
        <ele>250</ele>
        <time>2016-01-03T11:13:05Z</time>
      </trkpt>
      <trkpt lat="44.34332" lon="2.03135">
        <ele>250</ele>
        <time>2016-01-03T11:13:06Z</time>
      </trkpt>
      <trkpt lat="44.34329" lon="2.03135">
        <ele>250.1</ele>
        <time>2016-01-03T11:13:07Z</time>
      </trkpt>
      <trkpt lat="44.34324" lon="2.03134">
        <ele>250.1</ele>
        <time>2016-01-03T11:13:08Z</time>
      </trkpt>
      <trkpt lat="44.3432" lon="2.03133">
        <ele>250.1</ele>
        <time>2016-01-03T11:13:09Z</time>
      </trkpt>
      <trkpt lat="44.34315" lon="2.03131">
        <ele>250.1</ele>
        <time>2016-01-03T11:13:10Z</time>
      </trkpt>
      <trkpt lat="44.34307" lon="2.0313">
        <ele>250.1</ele>
        <time>2016-01-03T11:13:11Z</time>
      </trkpt>
      <trkpt lat="44.34301" lon="2.03129">
        <ele>250.1</ele>
        <time>2016-01-03T11:13:12Z</time>
      </trkpt>
      <trkpt lat="44.34295" lon="2.03127">
        <ele>250.1</ele>
        <time>2016-01-03T11:13:13Z</time>
      </trkpt>
      <trkpt lat="44.3429" lon="2.03126">
        <ele>250.1</ele>
        <time>2016-01-03T11:13:14Z</time>
      </trkpt>
      <trkpt lat="44.34285" lon="2.03127">
        <ele>250.2</ele>
        <time>2016-01-03T11:13:15Z</time>
      </trkpt>
      <trkpt lat="44.34282" lon="2.03128">
        <ele>250.3</ele>
        <time>2016-01-03T11:13:16Z</time>
      </trkpt>
      <trkpt lat="44.34279" lon="2.0313">
        <ele>250.4</ele>
        <time>2016-01-03T11:13:17Z</time>
      </trkpt>
      <trkpt lat="44.34276" lon="2.03131">
        <ele>250.5</ele>
        <time>2016-01-03T11:13:18Z</time>
      </trkpt>
      <trkpt lat="44.34274" lon="2.03133">
        <ele>250.7</ele>
        <time>2016-01-03T11:13:19Z</time>
      </trkpt>
      <trkpt lat="44.34268" lon="2.03135">
        <ele>250.8</ele>
        <time>2016-01-03T11:13:21Z</time>
      </trkpt>
      <trkpt lat="44.34265" lon="2.03134">
        <ele>250.8</ele>
        <time>2016-01-03T11:13:22Z</time>
      </trkpt>
      <trkpt lat="44.34261" lon="2.03134">
        <ele>250.8</ele>
        <time>2016-01-03T11:13:23Z</time>
      </trkpt>
      <trkpt lat="44.34256" lon="2.03133">
        <ele>250.8</ele>
        <time>2016-01-03T11:13:24Z</time>
      </trkpt>
      <trkpt lat="44.34251" lon="2.03132">
        <ele>250.8</ele>
        <time>2016-01-03T11:13:25Z</time>
      </trkpt>
      <trkpt lat="44.34246" lon="2.03132">
        <ele>250.9</ele>
        <time>2016-01-03T11:13:26Z</time>
      </trkpt>
      <trkpt lat="44.34241" lon="2.03131">
        <ele>250.9</ele>
        <time>2016-01-03T11:13:27Z</time>
      </trkpt>
      <trkpt lat="44.34234" lon="2.03129">
        <ele>250.9</ele>
        <time>2016-01-03T11:13:28Z</time>
      </trkpt>
      <trkpt lat="44.34229" lon="2.03128">
        <ele>250.9</ele>
        <time>2016-01-03T11:13:29Z</time>
      </trkpt>
      <trkpt lat="44.34225" lon="2.03126">
        <ele>250.8</ele>
        <time>2016-01-03T11:13:30Z</time>
      </trkpt>
      <trkpt lat="44.34221" lon="2.03123">
        <ele>250.8</ele>
        <time>2016-01-03T11:13:31Z</time>
      </trkpt>
      <trkpt lat="44.34218" lon="2.03119">
        <ele>250.8</ele>
        <time>2016-01-03T11:13:32Z</time>
      </trkpt>
      <trkpt lat="44.34216" lon="2.03112">
        <ele>250.8</ele>
        <time>2016-01-03T11:13:33Z</time>
      </trkpt>
      <trkpt lat="44.34212" lon="2.03107">
        <ele>250.8</ele>
        <time>2016-01-03T11:13:34Z</time>
      </trkpt>
      <trkpt lat="44.34208" lon="2.03103">
        <ele>250.7</ele>
        <time>2016-01-03T11:13:35Z</time>
      </trkpt>
      <trkpt lat="44.34205" lon="2.03099">
        <ele>250.7</ele>
        <time>2016-01-03T11:13:36Z</time>
      </trkpt>
      <trkpt lat="44.34203" lon="2.03105">
        <ele>250.8</ele>
        <time>2016-01-03T11:13:37Z</time>
      </trkpt>
      <trkpt lat="44.342" lon="2.0311">
        <ele>250.9</ele>
        <time>2016-01-03T11:13:38Z</time>
      </trkpt>
      <trkpt lat="44.34193" lon="2.0311">
        <ele>251</ele>
        <time>2016-01-03T11:13:39Z</time>
      </trkpt>
      <trkpt lat="44.34184" lon="2.03108">
        <ele>251</ele>
        <time>2016-01-03T11:13:40Z</time>
      </trkpt>
      <trkpt lat="44.34178" lon="2.03108">
        <ele>251.1</ele>
        <time>2016-01-03T11:13:41Z</time>
      </trkpt>
      <trkpt lat="44.34173" lon="2.03108">
        <ele>251.1</ele>
        <time>2016-01-03T11:13:42Z</time>
      </trkpt>
      <trkpt lat="44.34169" lon="2.03107">
        <ele>251.2</ele>
        <time>2016-01-03T11:13:43Z</time>
      </trkpt>
      <trkpt lat="44.34163" lon="2.0311">
        <ele>251.3</ele>
        <time>2016-01-03T11:13:44Z</time>
      </trkpt>
      <trkpt lat="44.34153" lon="2.03112">
        <ele>251.4</ele>
        <time>2016-01-03T11:13:45Z</time>
      </trkpt>
      <trkpt lat="44.34149" lon="2.03113">
        <ele>251.5</ele>
        <time>2016-01-03T11:13:46Z</time>
      </trkpt>
      <trkpt lat="44.34146" lon="2.03113">
        <ele>251.5</ele>
        <time>2016-01-03T11:13:47Z</time>
      </trkpt>
      <trkpt lat="44.34141" lon="2.03115">
        <ele>251.6</ele>
        <time>2016-01-03T11:13:48Z</time>
      </trkpt>
      <trkpt lat="44.34136" lon="2.03116">
        <ele>251.7</ele>
        <time>2016-01-03T11:13:49Z</time>
      </trkpt>
      <trkpt lat="44.34131" lon="2.03116">
        <ele>251.7</ele>
        <time>2016-01-03T11:13:50Z</time>
      </trkpt>
      <trkpt lat="44.34126" lon="2.03117">
        <ele>251.8</ele>
        <time>2016-01-03T11:13:51Z</time>
      </trkpt>
      <trkpt lat="44.34122" lon="2.03117">
        <ele>251.8</ele>
        <time>2016-01-03T11:13:52Z</time>
      </trkpt>
      <trkpt lat="44.34118" lon="2.03117">
        <ele>251.7</ele>
        <time>2016-01-03T11:13:53Z</time>
      </trkpt>
      <trkpt lat="44.34113" lon="2.03119">
        <ele>251.7</ele>
        <time>2016-01-03T11:13:54Z</time>
      </trkpt>
      <trkpt lat="44.34109" lon="2.03119">
        <ele>251.7</ele>
        <time>2016-01-03T11:13:55Z</time>
      </trkpt>
      <trkpt lat="44.34103" lon="2.03116">
        <ele>251.5</ele>
        <time>2016-01-03T11:13:56Z</time>
      </trkpt>
      <trkpt lat="44.34098" lon="2.03115">
        <ele>251.4</ele>
        <time>2016-01-03T11:13:57Z</time>
      </trkpt>
      <trkpt lat="44.34093" lon="2.03115">
        <ele>251.4</ele>
        <time>2016-01-03T11:13:58Z</time>
      </trkpt>
      <trkpt lat="44.3409" lon="2.03115">
        <ele>251.3</ele>
        <time>2016-01-03T11:13:59Z</time>
      </trkpt>
      <trkpt lat="44.34086" lon="2.03115">
        <ele>251.3</ele>
        <time>2016-01-03T11:14:00Z</time>
      </trkpt>
      <trkpt lat="44.34081" lon="2.03115">
        <ele>251.2</ele>
        <time>2016-01-03T11:14:01Z</time>
      </trkpt>
      <trkpt lat="44.34077" lon="2.03114">
        <ele>251.1</ele>
        <time>2016-01-03T11:14:02Z</time>
      </trkpt>
      <trkpt lat="44.34074" lon="2.03113">
        <ele>251.1</ele>
        <time>2016-01-03T11:14:03Z</time>
      </trkpt>
      <trkpt lat="44.34069" lon="2.03112">
        <ele>251</ele>
        <time>2016-01-03T11:14:05Z</time>
      </trkpt>
      <trkpt lat="44.34066" lon="2.03112">
        <ele>251</ele>
        <time>2016-01-03T11:14:06Z</time>
      </trkpt>
      <trkpt lat="44.34062" lon="2.03111">
        <ele>250.9</ele>
        <time>2016-01-03T11:14:07Z</time>
      </trkpt>
      <trkpt lat="44.34059" lon="2.03111">
        <ele>250.9</ele>
        <time>2016-01-03T11:14:08Z</time>
      </trkpt>
      <trkpt lat="44.34054" lon="2.03111">
        <ele>250.8</ele>
        <time>2016-01-03T11:14:09Z</time>
      </trkpt>
      <trkpt lat="44.3405" lon="2.03111">
        <ele>250.8</ele>
        <time>2016-01-03T11:14:10Z</time>
      </trkpt>
      <trkpt lat="44.34047" lon="2.03111">
        <ele>250.7</ele>
        <time>2016-01-03T11:14:11Z</time>
      </trkpt>
      <trkpt lat="44.34041" lon="2.0311">
        <ele>250.6</ele>
        <time>2016-01-03T11:14:13Z</time>
      </trkpt>
      <trkpt lat="44.34037" lon="2.03111">
        <ele>250.7</ele>
        <time>2016-01-03T11:14:14Z</time>
      </trkpt>
      <trkpt lat="44.34033" lon="2.03111">
        <ele>250.7</ele>
        <time>2016-01-03T11:14:15Z</time>
      </trkpt>
      <trkpt lat="44.34028" lon="2.03112">
        <ele>250.7</ele>
        <time>2016-01-03T11:14:16Z</time>
      </trkpt>
      <trkpt lat="44.34024" lon="2.03111">
        <ele>250.7</ele>
        <time>2016-01-03T11:14:17Z</time>
      </trkpt>
      <trkpt lat="44.3402" lon="2.03112">
        <ele>250.7</ele>
        <time>2016-01-03T11:14:18Z</time>
      </trkpt>
      <trkpt lat="44.34016" lon="2.03112">
        <ele>250.7</ele>
        <time>2016-01-03T11:14:19Z</time>
      </trkpt>
      <trkpt lat="44.34013" lon="2.03113">
        <ele>250.7</ele>
        <time>2016-01-03T11:14:20Z</time>
      </trkpt>
      <trkpt lat="44.3401" lon="2.03113">
        <ele>250.7</ele>
        <time>2016-01-03T11:14:21Z</time>
      </trkpt>
      <trkpt lat="44.34004" lon="2.03113">
        <ele>250.7</ele>
        <time>2016-01-03T11:14:23Z</time>
      </trkpt>
      <trkpt lat="44.34" lon="2.03113">
        <ele>250.7</ele>
        <time>2016-01-03T11:14:24Z</time>
      </trkpt>
      <trkpt lat="44.33995" lon="2.03113">
        <ele>250.7</ele>
        <time>2016-01-03T11:14:25Z</time>
      </trkpt>
      <trkpt lat="44.33993" lon="2.03115">
        <ele>250.8</ele>
        <time>2016-01-03T11:14:26Z</time>
      </trkpt>
      <trkpt lat="44.33989" lon="2.03115">
        <ele>250.8</ele>
        <time>2016-01-03T11:14:27Z</time>
      </trkpt>
      <trkpt lat="44.33986" lon="2.03115">
        <ele>250.8</ele>
        <time>2016-01-03T11:14:28Z</time>
      </trkpt>
      <trkpt lat="44.33982" lon="2.03114">
        <ele>250.7</ele>
        <time>2016-01-03T11:14:29Z</time>
      </trkpt>
      <trkpt lat="44.33978" lon="2.03114">
        <ele>250.7</ele>
        <time>2016-01-03T11:14:30Z</time>
      </trkpt>
      <trkpt lat="44.33972" lon="2.03112">
        <ele>250.7</ele>
        <time>2016-01-03T11:14:31Z</time>
      </trkpt>
      <trkpt lat="44.33966" lon="2.03111">
        <ele>250.7</ele>
        <time>2016-01-03T11:14:32Z</time>
      </trkpt>
      <trkpt lat="44.3396" lon="2.03111">
        <ele>250.7</ele>
        <time>2016-01-03T11:14:33Z</time>
      </trkpt>
      <trkpt lat="44.33955" lon="2.0311">
        <ele>250.7</ele>
        <time>2016-01-03T11:14:34Z</time>
      </trkpt>
      <trkpt lat="44.3395" lon="2.0311">
        <ele>250.7</ele>
        <time>2016-01-03T11:14:35Z</time>
      </trkpt>
      <trkpt lat="44.33945" lon="2.03109">
        <ele>250.7</ele>
        <time>2016-01-03T11:14:36Z</time>
      </trkpt>
      <trkpt lat="44.3394" lon="2.03108">
        <ele>250.7</ele>
        <time>2016-01-03T11:14:37Z</time>
      </trkpt>
      <trkpt lat="44.33935" lon="2.03108">
        <ele>250.8</ele>
        <time>2016-01-03T11:14:38Z</time>
      </trkpt>
      <trkpt lat="44.3393" lon="2.03108">
        <ele>250.8</ele>
        <time>2016-01-03T11:14:39Z</time>
      </trkpt>
      <trkpt lat="44.33926" lon="2.03108">
        <ele>250.8</ele>
        <time>2016-01-03T11:14:40Z</time>
      </trkpt>
      <trkpt lat="44.33922" lon="2.03107">
        <ele>250.8</ele>
        <time>2016-01-03T11:14:41Z</time>
      </trkpt>
      <trkpt lat="44.33917" lon="2.03107">
        <ele>250.9</ele>
        <time>2016-01-03T11:14:42Z</time>
      </trkpt>
      <trkpt lat="44.33912" lon="2.03107">
        <ele>250.9</ele>
        <time>2016-01-03T11:14:43Z</time>
      </trkpt>
      <trkpt lat="44.33907" lon="2.03106">
        <ele>250.9</ele>
        <time>2016-01-03T11:14:44Z</time>
      </trkpt>
      <trkpt lat="44.33904" lon="2.03105">
        <ele>250.9</ele>
        <time>2016-01-03T11:14:45Z</time>
      </trkpt>
      <trkpt lat="44.33899" lon="2.03104">
        <ele>250.9</ele>
        <time>2016-01-03T11:14:46Z</time>
      </trkpt>
      <trkpt lat="44.33895" lon="2.03104">
        <ele>250.9</ele>
        <time>2016-01-03T11:14:47Z</time>
      </trkpt>
      <trkpt lat="44.3389" lon="2.03103">
        <ele>250.9</ele>
        <time>2016-01-03T11:14:48Z</time>
      </trkpt>
      <trkpt lat="44.33885" lon="2.03102">
        <ele>250.9</ele>
        <time>2016-01-03T11:14:49Z</time>
      </trkpt>
      <trkpt lat="44.3388" lon="2.03101">
        <ele>250.8</ele>
        <time>2016-01-03T11:14:50Z</time>
      </trkpt>
      <trkpt lat="44.33875" lon="2.03099">
        <ele>250.7</ele>
        <time>2016-01-03T11:14:51Z</time>
      </trkpt>
      <trkpt lat="44.33871" lon="2.03097">
        <ele>250.7</ele>
        <time>2016-01-03T11:14:52Z</time>
      </trkpt>
      <trkpt lat="44.33866" lon="2.03095">
        <ele>250.6</ele>
        <time>2016-01-03T11:14:53Z</time>
      </trkpt>
      <trkpt lat="44.33861" lon="2.03093">
        <ele>250.5</ele>
        <time>2016-01-03T11:14:54Z</time>
      </trkpt>
      <trkpt lat="44.33857" lon="2.03091">
        <ele>250.4</ele>
        <time>2016-01-03T11:14:55Z</time>
      </trkpt>
      <trkpt lat="44.33852" lon="2.03088">
        <ele>250.3</ele>
        <time>2016-01-03T11:14:56Z</time>
      </trkpt>
      <trkpt lat="44.33847" lon="2.03086">
        <ele>250.3</ele>
        <time>2016-01-03T11:14:57Z</time>
      </trkpt>
      <trkpt lat="44.33842" lon="2.03084">
        <ele>250.2</ele>
        <time>2016-01-03T11:14:58Z</time>
      </trkpt>
      <trkpt lat="44.33837" lon="2.03082">
        <ele>250.2</ele>
        <time>2016-01-03T11:14:59Z</time>
      </trkpt>
      <trkpt lat="44.33833" lon="2.03081">
        <ele>250.2</ele>
        <time>2016-01-03T11:15:00Z</time>
      </trkpt>
      <trkpt lat="44.33828" lon="2.03079">
        <ele>250.1</ele>
        <time>2016-01-03T11:15:01Z</time>
      </trkpt>
      <trkpt lat="44.33824" lon="2.03077">
        <ele>250.1</ele>
        <time>2016-01-03T11:15:02Z</time>
      </trkpt>
      <trkpt lat="44.3382" lon="2.03075">
        <ele>250.1</ele>
        <time>2016-01-03T11:15:03Z</time>
      </trkpt>
      <trkpt lat="44.33815" lon="2.03074">
        <ele>250.1</ele>
        <time>2016-01-03T11:15:04Z</time>
      </trkpt>
      <trkpt lat="44.3381" lon="2.03072">
        <ele>250.2</ele>
        <time>2016-01-03T11:15:05Z</time>
      </trkpt>
      <trkpt lat="44.33806" lon="2.03072">
        <ele>250.2</ele>
        <time>2016-01-03T11:15:06Z</time>
      </trkpt>
      <trkpt lat="44.33802" lon="2.03071">
        <ele>250.2</ele>
        <time>2016-01-03T11:15:07Z</time>
      </trkpt>
      <trkpt lat="44.33797" lon="2.03069">
        <ele>250.3</ele>
        <time>2016-01-03T11:15:08Z</time>
      </trkpt>
      <trkpt lat="44.33792" lon="2.03067">
        <ele>250.3</ele>
        <time>2016-01-03T11:15:09Z</time>
      </trkpt>
      <trkpt lat="44.33787" lon="2.03065">
        <ele>250.3</ele>
        <time>2016-01-03T11:15:10Z</time>
      </trkpt>
      <trkpt lat="44.33782" lon="2.03064">
        <ele>250.2</ele>
        <time>2016-01-03T11:15:11Z</time>
      </trkpt>
      <trkpt lat="44.33778" lon="2.03063">
        <ele>250.2</ele>
        <time>2016-01-03T11:15:12Z</time>
      </trkpt>
      <trkpt lat="44.33773" lon="2.03062">
        <ele>250.2</ele>
        <time>2016-01-03T11:15:14Z</time>
      </trkpt>
      <trkpt lat="44.33769" lon="2.03062">
        <ele>250.2</ele>
        <time>2016-01-03T11:15:16Z</time>
      </trkpt>
      <trkpt lat="44.33765" lon="2.03062">
        <ele>250.2</ele>
        <time>2016-01-03T11:15:18Z</time>
      </trkpt>
      <trkpt lat="44.33761" lon="2.03061">
        <ele>250.1</ele>
        <time>2016-01-03T11:15:20Z</time>
      </trkpt>
      <trkpt lat="44.33757" lon="2.0306">
        <ele>250.1</ele>
        <time>2016-01-03T11:15:22Z</time>
      </trkpt>
      <trkpt lat="44.33753" lon="2.03057">
        <ele>250.1</ele>
        <time>2016-01-03T11:15:24Z</time>
      </trkpt>
      <trkpt lat="44.33749" lon="2.03056">
        <ele>250.1</ele>
        <time>2016-01-03T11:15:25Z</time>
      </trkpt>
      <trkpt lat="44.33744" lon="2.03057">
        <ele>250.1</ele>
        <time>2016-01-03T11:15:27Z</time>
      </trkpt>
      <trkpt lat="44.33741" lon="2.03055">
        <ele>250.1</ele>
        <time>2016-01-03T11:15:28Z</time>
      </trkpt>
      <trkpt lat="44.33735" lon="2.03054">
        <ele>250</ele>
        <time>2016-01-03T11:15:29Z</time>
      </trkpt>
      <trkpt lat="44.33731" lon="2.03054">
        <ele>250</ele>
        <time>2016-01-03T11:15:30Z</time>
      </trkpt>
      <trkpt lat="44.33722" lon="2.03048">
        <ele>250</ele>
        <time>2016-01-03T11:15:31Z</time>
      </trkpt>
      <trkpt lat="44.33716" lon="2.03046">
        <ele>250</ele>
        <time>2016-01-03T11:15:32Z</time>
      </trkpt>
      <trkpt lat="44.33709" lon="2.03042">
        <ele>250</ele>
        <time>2016-01-03T11:15:33Z</time>
      </trkpt>
      <trkpt lat="44.33704" lon="2.03039">
        <ele>250.4</ele>
        <time>2016-01-03T11:15:34Z</time>
      </trkpt>
      <trkpt lat="44.33699" lon="2.03037">
        <ele>250.8</ele>
        <time>2016-01-03T11:15:35Z</time>
      </trkpt>
      <trkpt lat="44.33695" lon="2.03035">
        <ele>251.2</ele>
        <time>2016-01-03T11:15:36Z</time>
      </trkpt>
      <trkpt lat="44.33691" lon="2.03035">
        <ele>251.4</ele>
        <time>2016-01-03T11:15:37Z</time>
      </trkpt>
      <trkpt lat="44.33688" lon="2.03033">
        <ele>251.7</ele>
        <time>2016-01-03T11:15:38Z</time>
      </trkpt>
      <trkpt lat="44.33683" lon="2.03031">
        <ele>252.2</ele>
        <time>2016-01-03T11:15:40Z</time>
      </trkpt>
      <trkpt lat="44.33679" lon="2.03029">
        <ele>252.6</ele>
        <time>2016-01-03T11:15:41Z</time>
      </trkpt>
      <trkpt lat="44.33676" lon="2.03026">
        <ele>253</ele>
        <time>2016-01-03T11:15:42Z</time>
      </trkpt>
      <trkpt lat="44.3367" lon="2.03022">
        <ele>253.7</ele>
        <time>2016-01-03T11:15:43Z</time>
      </trkpt>
      <trkpt lat="44.33659" lon="2.03018">
        <ele>255</ele>
        <time>2016-01-03T11:15:44Z</time>
      </trkpt>
      <trkpt lat="44.33654" lon="2.03019">
        <ele>255.4</ele>
        <time>2016-01-03T11:15:45Z</time>
      </trkpt>
      <trkpt lat="44.33649" lon="2.03022">
        <ele>255.5</ele>
        <time>2016-01-03T11:15:46Z</time>
      </trkpt>
      <trkpt lat="44.33648" lon="2.03026">
        <ele>255.2</ele>
        <time>2016-01-03T11:15:47Z</time>
      </trkpt>
      <trkpt lat="44.33646" lon="2.03031">
        <ele>254.8</ele>
        <time>2016-01-03T11:15:48Z</time>
      </trkpt>
      <trkpt lat="44.33645" lon="2.03035">
        <ele>254.5</ele>
        <time>2016-01-03T11:15:49Z</time>
      </trkpt>
      <trkpt lat="44.33642" lon="2.03042">
        <ele>254</ele>
        <time>2016-01-03T11:15:51Z</time>
      </trkpt>
      <trkpt lat="44.33639" lon="2.03045">
        <ele>253.9</ele>
        <time>2016-01-03T11:15:52Z</time>
      </trkpt>
      <trkpt lat="44.33636" lon="2.0305">
        <ele>253.8</ele>
        <time>2016-01-03T11:15:53Z</time>
      </trkpt>
      <trkpt lat="44.33633" lon="2.03055">
        <ele>253.7</ele>
        <time>2016-01-03T11:15:55Z</time>
      </trkpt>
      <trkpt lat="44.33632" lon="2.03059">
        <ele>253.5</ele>
        <time>2016-01-03T11:15:56Z</time>
      </trkpt>
      <trkpt lat="44.33626" lon="2.03067">
        <ele>253.2</ele>
        <time>2016-01-03T11:15:58Z</time>
      </trkpt>
      <trkpt lat="44.33624" lon="2.03074">
        <ele>252.6</ele>
        <time>2016-01-03T11:16:00Z</time>
      </trkpt>
      <trkpt lat="44.33623" lon="2.03078">
        <ele>252.3</ele>
        <time>2016-01-03T11:16:01Z</time>
      </trkpt>
      <trkpt lat="44.33622" lon="2.03082">
        <ele>252</ele>
        <time>2016-01-03T11:16:02Z</time>
      </trkpt>
      <trkpt lat="44.33623" lon="2.0309">
        <ele>251.5</ele>
        <time>2016-01-03T11:16:04Z</time>
      </trkpt>
      <trkpt lat="44.33622" lon="2.03096">
        <ele>251.1</ele>
        <time>2016-01-03T11:16:06Z</time>
      </trkpt>
      <trkpt lat="44.33619" lon="2.03101">
        <ele>250.7</ele>
        <time>2016-01-03T11:16:08Z</time>
      </trkpt>
      <trkpt lat="44.33616" lon="2.03103">
        <ele>250.5</ele>
        <time>2016-01-03T11:16:09Z</time>
      </trkpt>
      <trkpt lat="44.33614" lon="2.03105">
        <ele>250.3</ele>
        <time>2016-01-03T11:16:10Z</time>
      </trkpt>
      <trkpt lat="44.33611" lon="2.03108">
        <ele>250.1</ele>
        <time>2016-01-03T11:16:11Z</time>
      </trkpt>
      <trkpt lat="44.33609" lon="2.0311">
        <ele>249.9</ele>
        <time>2016-01-03T11:16:12Z</time>
      </trkpt>
      <trkpt lat="44.33606" lon="2.03112">
        <ele>249.8</ele>
        <time>2016-01-03T11:16:13Z</time>
      </trkpt>
      <trkpt lat="44.33604" lon="2.03115">
        <ele>249.6</ele>
        <time>2016-01-03T11:16:14Z</time>
      </trkpt>
      <trkpt lat="44.33601" lon="2.03119">
        <ele>249.4</ele>
        <time>2016-01-03T11:16:16Z</time>
      </trkpt>
      <trkpt lat="44.33599" lon="2.03121">
        <ele>249.2</ele>
        <time>2016-01-03T11:16:17Z</time>
      </trkpt>
      <trkpt lat="44.33595" lon="2.03125">
        <ele>249</ele>
        <time>2016-01-03T11:16:19Z</time>
      </trkpt>
      <trkpt lat="44.33592" lon="2.03128">
        <ele>249</ele>
        <time>2016-01-03T11:16:20Z</time>
      </trkpt>
      <trkpt lat="44.33589" lon="2.03132">
        <ele>249</ele>
        <time>2016-01-03T11:16:21Z</time>
      </trkpt>
      <trkpt lat="44.33587" lon="2.03134">
        <ele>248.9</ele>
        <time>2016-01-03T11:16:22Z</time>
      </trkpt>
      <trkpt lat="44.33583" lon="2.03138">
        <ele>248.9</ele>
        <time>2016-01-03T11:16:23Z</time>
      </trkpt>
      <trkpt lat="44.3358" lon="2.03141">
        <ele>248.9</ele>
        <time>2016-01-03T11:16:24Z</time>
      </trkpt>
      <trkpt lat="44.33578" lon="2.03143">
        <ele>248.9</ele>
        <time>2016-01-03T11:16:25Z</time>
      </trkpt>
      <trkpt lat="44.33575" lon="2.03146">
        <ele>248.9</ele>
        <time>2016-01-03T11:16:26Z</time>
      </trkpt>
      <trkpt lat="44.33573" lon="2.03148">
        <ele>248.9</ele>
        <time>2016-01-03T11:16:27Z</time>
      </trkpt>
      <trkpt lat="44.3357" lon="2.03151">
        <ele>248.9</ele>
        <time>2016-01-03T11:16:28Z</time>
      </trkpt>
      <trkpt lat="44.33565" lon="2.03157">
        <ele>248.9</ele>
        <time>2016-01-03T11:16:29Z</time>
      </trkpt>
      <trkpt lat="44.3356" lon="2.03161">
        <ele>248.9</ele>
        <time>2016-01-03T11:16:30Z</time>
      </trkpt>
      <trkpt lat="44.33555" lon="2.03165">
        <ele>248.9</ele>
        <time>2016-01-03T11:16:31Z</time>
      </trkpt>
      <trkpt lat="44.33552" lon="2.03169">
        <ele>248.9</ele>
        <time>2016-01-03T11:16:32Z</time>
      </trkpt>
      <trkpt lat="44.33549" lon="2.03171">
        <ele>248.9</ele>
        <time>2016-01-03T11:16:33Z</time>
      </trkpt>
      <trkpt lat="44.33547" lon="2.03175">
        <ele>249</ele>
        <time>2016-01-03T11:16:34Z</time>
      </trkpt>
      <trkpt lat="44.33544" lon="2.03178">
        <ele>249</ele>
        <time>2016-01-03T11:16:35Z</time>
      </trkpt>
      <trkpt lat="44.33542" lon="2.0318">
        <ele>249</ele>
        <time>2016-01-03T11:16:36Z</time>
      </trkpt>
      <trkpt lat="44.33538" lon="2.03182">
        <ele>249</ele>
        <time>2016-01-03T11:16:37Z</time>
      </trkpt>
      <trkpt lat="44.33535" lon="2.03184">
        <ele>249</ele>
        <time>2016-01-03T11:16:38Z</time>
      </trkpt>
      <trkpt lat="44.33532" lon="2.03186">
        <ele>249</ele>
        <time>2016-01-03T11:16:39Z</time>
      </trkpt>
      <trkpt lat="44.33529" lon="2.03188">
        <ele>249</ele>
        <time>2016-01-03T11:16:40Z</time>
      </trkpt>
      <trkpt lat="44.33526" lon="2.0319">
        <ele>249</ele>
        <time>2016-01-03T11:16:41Z</time>
      </trkpt>
      <trkpt lat="44.33522" lon="2.03193">
        <ele>249</ele>
        <time>2016-01-03T11:16:43Z</time>
      </trkpt>
      <trkpt lat="44.33519" lon="2.03195">
        <ele>249</ele>
        <time>2016-01-03T11:16:44Z</time>
      </trkpt>
      <trkpt lat="44.33516" lon="2.03198">
        <ele>249</ele>
        <time>2016-01-03T11:16:45Z</time>
      </trkpt>
      <trkpt lat="44.33513" lon="2.03202">
        <ele>249</ele>
        <time>2016-01-03T11:16:46Z</time>
      </trkpt>
      <trkpt lat="44.33511" lon="2.03205">
        <ele>249</ele>
        <time>2016-01-03T11:16:47Z</time>
      </trkpt>
      <trkpt lat="44.33508" lon="2.03209">
        <ele>249</ele>
        <time>2016-01-03T11:16:48Z</time>
      </trkpt>
      <trkpt lat="44.33505" lon="2.03211">
        <ele>249</ele>
        <time>2016-01-03T11:16:49Z</time>
      </trkpt>
      <trkpt lat="44.33502" lon="2.03214">
        <ele>249.1</ele>
        <time>2016-01-03T11:16:50Z</time>
      </trkpt>
      <trkpt lat="44.33498" lon="2.03217">
        <ele>249.1</ele>
        <time>2016-01-03T11:16:51Z</time>
      </trkpt>
      <trkpt lat="44.33495" lon="2.03219">
        <ele>249.1</ele>
        <time>2016-01-03T11:16:52Z</time>
      </trkpt>
      <trkpt lat="44.33492" lon="2.03222">
        <ele>249.2</ele>
        <time>2016-01-03T11:16:53Z</time>
      </trkpt>
      <trkpt lat="44.33488" lon="2.03224">
        <ele>249.2</ele>
        <time>2016-01-03T11:16:54Z</time>
      </trkpt>
      <trkpt lat="44.33485" lon="2.03226">
        <ele>249.2</ele>
        <time>2016-01-03T11:16:55Z</time>
      </trkpt>
      <trkpt lat="44.33481" lon="2.03228">
        <ele>249.2</ele>
        <time>2016-01-03T11:16:56Z</time>
      </trkpt>
      <trkpt lat="44.33477" lon="2.0323">
        <ele>249.3</ele>
        <time>2016-01-03T11:16:57Z</time>
      </trkpt>
      <trkpt lat="44.33473" lon="2.03233">
        <ele>249.3</ele>
        <time>2016-01-03T11:16:58Z</time>
      </trkpt>
      <trkpt lat="44.3347" lon="2.03235">
        <ele>249.3</ele>
        <time>2016-01-03T11:16:59Z</time>
      </trkpt>
      <trkpt lat="44.33465" lon="2.03234">
        <ele>249.3</ele>
        <time>2016-01-03T11:17:00Z</time>
      </trkpt>
      <trkpt lat="44.3346" lon="2.03236">
        <ele>249.3</ele>
        <time>2016-01-03T11:17:01Z</time>
      </trkpt>
      <trkpt lat="44.33455" lon="2.03239">
        <ele>249.3</ele>
        <time>2016-01-03T11:17:02Z</time>
      </trkpt>
      <trkpt lat="44.33451" lon="2.03241">
        <ele>249.3</ele>
        <time>2016-01-03T11:17:03Z</time>
      </trkpt>
      <trkpt lat="44.33447" lon="2.03243">
        <ele>249.3</ele>
        <time>2016-01-03T11:17:04Z</time>
      </trkpt>
      <trkpt lat="44.33443" lon="2.03245">
        <ele>249.3</ele>
        <time>2016-01-03T11:17:05Z</time>
      </trkpt>
      <trkpt lat="44.3344" lon="2.03246">
        <ele>249.3</ele>
        <time>2016-01-03T11:17:06Z</time>
      </trkpt>
      <trkpt lat="44.33436" lon="2.03246">
        <ele>249.3</ele>
        <time>2016-01-03T11:17:07Z</time>
      </trkpt>
      <trkpt lat="44.33433" lon="2.03248">
        <ele>249.3</ele>
        <time>2016-01-03T11:17:08Z</time>
      </trkpt>
      <trkpt lat="44.33428" lon="2.0325">
        <ele>249.3</ele>
        <time>2016-01-03T11:17:10Z</time>
      </trkpt>
      <trkpt lat="44.33424" lon="2.03251">
        <ele>249.3</ele>
        <time>2016-01-03T11:17:11Z</time>
      </trkpt>
      <trkpt lat="44.33421" lon="2.03253">
        <ele>249.4</ele>
        <time>2016-01-03T11:17:12Z</time>
      </trkpt>
      <trkpt lat="44.33418" lon="2.03254">
        <ele>249.4</ele>
        <time>2016-01-03T11:17:13Z</time>
      </trkpt>
      <trkpt lat="44.33415" lon="2.03256">
        <ele>249.4</ele>
        <time>2016-01-03T11:17:15Z</time>
      </trkpt>
      <trkpt lat="44.33412" lon="2.03258">
        <ele>249.5</ele>
        <time>2016-01-03T11:17:17Z</time>
      </trkpt>
      <trkpt lat="44.33409" lon="2.03257">
        <ele>249.4</ele>
        <time>2016-01-03T11:17:22Z</time>
      </trkpt>
      <trkpt lat="44.33407" lon="2.03259">
        <ele>249.5</ele>
        <time>2016-01-03T11:17:25Z</time>
      </trkpt>
      <trkpt lat="44.33401" lon="2.03268">
        <ele>249.8</ele>
        <time>2016-01-03T11:17:32Z</time>
      </trkpt>
      <trkpt lat="44.33399" lon="2.03272">
        <ele>250</ele>
        <time>2016-01-03T11:17:34Z</time>
      </trkpt>
      <trkpt lat="44.33399" lon="2.03277">
        <ele>250.1</ele>
        <time>2016-01-03T11:17:37Z</time>
      </trkpt>
      <trkpt lat="44.33397" lon="2.03283">
        <ele>250.4</ele>
        <time>2016-01-03T11:17:40Z</time>
      </trkpt>
      <trkpt lat="44.33397" lon="2.03287">
        <ele>250.6</ele>
        <time>2016-01-03T11:17:42Z</time>
      </trkpt>
      <trkpt lat="44.33394" lon="2.03293">
        <ele>250.9</ele>
        <time>2016-01-03T11:17:44Z</time>
      </trkpt>
      <trkpt lat="44.33389" lon="2.03295">
        <ele>251.3</ele>
        <time>2016-01-03T11:17:46Z</time>
      </trkpt>
      <trkpt lat="44.33386" lon="2.03294">
        <ele>251.2</ele>
        <time>2016-01-03T11:17:47Z</time>
      </trkpt>
      <trkpt lat="44.33383" lon="2.03294">
        <ele>251.2</ele>
        <time>2016-01-03T11:17:48Z</time>
      </trkpt>
      <trkpt lat="44.33378" lon="2.03295">
        <ele>251.3</ele>
        <time>2016-01-03T11:17:50Z</time>
      </trkpt>
      <trkpt lat="44.33374" lon="2.03293">
        <ele>251.3</ele>
        <time>2016-01-03T11:17:52Z</time>
      </trkpt>
      <trkpt lat="44.33372" lon="2.03289">
        <ele>251.8</ele>
        <time>2016-01-03T11:17:54Z</time>
      </trkpt>
      <trkpt lat="44.33369" lon="2.03288">
        <ele>252.5</ele>
        <time>2016-01-03T11:17:55Z</time>
      </trkpt>
      <trkpt lat="44.33366" lon="2.03287">
        <ele>253.2</ele>
        <time>2016-01-03T11:17:56Z</time>
      </trkpt>
      <trkpt lat="44.33363" lon="2.03286">
        <ele>253.8</ele>
        <time>2016-01-03T11:17:57Z</time>
      </trkpt>
      <trkpt lat="44.3336" lon="2.03284">
        <ele>254.4</ele>
        <time>2016-01-03T11:17:58Z</time>
      </trkpt>
      <trkpt lat="44.33357" lon="2.03282">
        <ele>254.9</ele>
        <time>2016-01-03T11:17:59Z</time>
      </trkpt>
      <trkpt lat="44.33353" lon="2.03278">
        <ele>255.6</ele>
        <time>2016-01-03T11:18:01Z</time>
      </trkpt>
      <trkpt lat="44.3335" lon="2.03276">
        <ele>256</ele>
        <time>2016-01-03T11:18:02Z</time>
      </trkpt>
      <trkpt lat="44.33347" lon="2.03275">
        <ele>256.5</ele>
        <time>2016-01-03T11:18:03Z</time>
      </trkpt>
      <trkpt lat="44.33345" lon="2.03273">
        <ele>256.9</ele>
        <time>2016-01-03T11:18:04Z</time>
      </trkpt>
      <trkpt lat="44.33342" lon="2.03271">
        <ele>257.2</ele>
        <time>2016-01-03T11:18:05Z</time>
      </trkpt>
      <trkpt lat="44.3334" lon="2.03269">
        <ele>257.5</ele>
        <time>2016-01-03T11:18:06Z</time>
      </trkpt>
      <trkpt lat="44.33337" lon="2.03267">
        <ele>257.9</ele>
        <time>2016-01-03T11:18:07Z</time>
      </trkpt>
      <trkpt lat="44.33334" lon="2.03265">
        <ele>258.1</ele>
        <time>2016-01-03T11:18:08Z</time>
      </trkpt>
      <trkpt lat="44.33332" lon="2.03262">
        <ele>258.3</ele>
        <time>2016-01-03T11:18:09Z</time>
      </trkpt>
      <trkpt lat="44.33329" lon="2.0326">
        <ele>258.5</ele>
        <time>2016-01-03T11:18:10Z</time>
      </trkpt>
      <trkpt lat="44.33325" lon="2.03258">
        <ele>259</ele>
        <time>2016-01-03T11:18:12Z</time>
      </trkpt>
      <trkpt lat="44.33321" lon="2.03255">
        <ele>259.2</ele>
        <time>2016-01-03T11:18:14Z</time>
      </trkpt>
      <trkpt lat="44.33318" lon="2.0325">
        <ele>259.1</ele>
        <time>2016-01-03T11:18:16Z</time>
      </trkpt>
      <trkpt lat="44.33315" lon="2.03247">
        <ele>259</ele>
        <time>2016-01-03T11:18:17Z</time>
      </trkpt>
      <trkpt lat="44.33313" lon="2.03244">
        <ele>258.6</ele>
        <time>2016-01-03T11:18:19Z</time>
      </trkpt>
      <trkpt lat="44.3331" lon="2.03239">
        <ele>258.2</ele>
        <time>2016-01-03T11:18:21Z</time>
      </trkpt>
      <trkpt lat="44.33308" lon="2.03232">
        <ele>257.3</ele>
        <time>2016-01-03T11:18:23Z</time>
      </trkpt>
      <trkpt lat="44.33307" lon="2.03228">
        <ele>256.5</ele>
        <time>2016-01-03T11:18:24Z</time>
      </trkpt>
      <trkpt lat="44.33305" lon="2.03224">
        <ele>255.9</ele>
        <time>2016-01-03T11:18:25Z</time>
      </trkpt>
      <trkpt lat="44.33303" lon="2.03219">
        <ele>255.3</ele>
        <time>2016-01-03T11:18:26Z</time>
      </trkpt>
      <trkpt lat="44.33301" lon="2.03215">
        <ele>254.6</ele>
        <time>2016-01-03T11:18:27Z</time>
      </trkpt>
      <trkpt lat="44.33298" lon="2.0321">
        <ele>253.9</ele>
        <time>2016-01-03T11:18:28Z</time>
      </trkpt>
      <trkpt lat="44.33295" lon="2.03205">
        <ele>253.6</ele>
        <time>2016-01-03T11:18:29Z</time>
      </trkpt>
      <trkpt lat="44.33292" lon="2.032">
        <ele>253.7</ele>
        <time>2016-01-03T11:18:30Z</time>
      </trkpt>
      <trkpt lat="44.33289" lon="2.03195">
        <ele>254.3</ele>
        <time>2016-01-03T11:18:31Z</time>
      </trkpt>
      <trkpt lat="44.33286" lon="2.0319">
        <ele>254.9</ele>
        <time>2016-01-03T11:18:32Z</time>
      </trkpt>
      <trkpt lat="44.33282" lon="2.03185">
        <ele>255.6</ele>
        <time>2016-01-03T11:18:33Z</time>
      </trkpt>
      <trkpt lat="44.33278" lon="2.03179">
        <ele>256.1</ele>
        <time>2016-01-03T11:18:34Z</time>
      </trkpt>
      <trkpt lat="44.33274" lon="2.03174">
        <ele>256.5</ele>
        <time>2016-01-03T11:18:35Z</time>
      </trkpt>
      <trkpt lat="44.33271" lon="2.0317">
        <ele>256.7</ele>
        <time>2016-01-03T11:18:36Z</time>
      </trkpt>
      <trkpt lat="44.33268" lon="2.03166">
        <ele>256.9</ele>
        <time>2016-01-03T11:18:37Z</time>
      </trkpt>
      <trkpt lat="44.33265" lon="2.03162">
        <ele>256.9</ele>
        <time>2016-01-03T11:18:38Z</time>
      </trkpt>
      <trkpt lat="44.33262" lon="2.03158">
        <ele>257</ele>
        <time>2016-01-03T11:18:39Z</time>
      </trkpt>
      <trkpt lat="44.33259" lon="2.03155">
        <ele>257</ele>
        <time>2016-01-03T11:18:40Z</time>
      </trkpt>
      <trkpt lat="44.33255" lon="2.03151">
        <ele>257</ele>
        <time>2016-01-03T11:18:41Z</time>
      </trkpt>
      <trkpt lat="44.33251" lon="2.03148">
        <ele>257.1</ele>
        <time>2016-01-03T11:18:42Z</time>
      </trkpt>
      <trkpt lat="44.33247" lon="2.03143">
        <ele>256.8</ele>
        <time>2016-01-03T11:18:43Z</time>
      </trkpt>
      <trkpt lat="44.33244" lon="2.03139">
        <ele>256.4</ele>
        <time>2016-01-03T11:18:44Z</time>
      </trkpt>
      <trkpt lat="44.33241" lon="2.03135">
        <ele>255.9</ele>
        <time>2016-01-03T11:18:45Z</time>
      </trkpt>
      <trkpt lat="44.33237" lon="2.03132">
        <ele>255.6</ele>
        <time>2016-01-03T11:18:46Z</time>
      </trkpt>
      <trkpt lat="44.33234" lon="2.03128">
        <ele>255.1</ele>
        <time>2016-01-03T11:18:47Z</time>
      </trkpt>
      <trkpt lat="44.33231" lon="2.03125">
        <ele>254.6</ele>
        <time>2016-01-03T11:18:48Z</time>
      </trkpt>
      <trkpt lat="44.33227" lon="2.03121">
        <ele>254.6</ele>
        <time>2016-01-03T11:18:49Z</time>
      </trkpt>
      <trkpt lat="44.33223" lon="2.03117">
        <ele>254.6</ele>
        <time>2016-01-03T11:18:50Z</time>
      </trkpt>
      <trkpt lat="44.3322" lon="2.03113">
        <ele>254.5</ele>
        <time>2016-01-03T11:18:51Z</time>
      </trkpt>
      <trkpt lat="44.33216" lon="2.0311">
        <ele>254.5</ele>
        <time>2016-01-03T11:18:52Z</time>
      </trkpt>
      <trkpt lat="44.33213" lon="2.03107">
        <ele>254.5</ele>
        <time>2016-01-03T11:18:53Z</time>
      </trkpt>
      <trkpt lat="44.33208" lon="2.03103">
        <ele>254.4</ele>
        <time>2016-01-03T11:18:54Z</time>
      </trkpt>
      <trkpt lat="44.33205" lon="2.031">
        <ele>255.1</ele>
        <time>2016-01-03T11:18:55Z</time>
      </trkpt>
      <trkpt lat="44.33202" lon="2.03096">
        <ele>255.6</ele>
        <time>2016-01-03T11:18:56Z</time>
      </trkpt>
      <trkpt lat="44.33198" lon="2.03093">
        <ele>256.2</ele>
        <time>2016-01-03T11:18:57Z</time>
      </trkpt>
      <trkpt lat="44.33196" lon="2.03089">
        <ele>256.6</ele>
        <time>2016-01-03T11:18:58Z</time>
      </trkpt>
      <trkpt lat="44.33193" lon="2.03086">
        <ele>256.9</ele>
        <time>2016-01-03T11:18:59Z</time>
      </trkpt>
      <trkpt lat="44.3319" lon="2.03084">
        <ele>257.3</ele>
        <time>2016-01-03T11:19:00Z</time>
      </trkpt>
      <trkpt lat="44.33187" lon="2.03082">
        <ele>257.8</ele>
        <time>2016-01-03T11:19:01Z</time>
      </trkpt>
      <trkpt lat="44.33183" lon="2.03079">
        <ele>258</ele>
        <time>2016-01-03T11:19:02Z</time>
      </trkpt>
      <trkpt lat="44.3318" lon="2.03074">
        <ele>258.2</ele>
        <time>2016-01-03T11:19:03Z</time>
      </trkpt>
      <trkpt lat="44.33177" lon="2.03071">
        <ele>258.4</ele>
        <time>2016-01-03T11:19:04Z</time>
      </trkpt>
      <trkpt lat="44.33174" lon="2.03068">
        <ele>258.4</ele>
        <time>2016-01-03T11:19:05Z</time>
      </trkpt>
      <trkpt lat="44.33171" lon="2.03064">
        <ele>258.2</ele>
        <time>2016-01-03T11:19:06Z</time>
      </trkpt>
      <trkpt lat="44.33169" lon="2.03061">
        <ele>258.1</ele>
        <time>2016-01-03T11:19:07Z</time>
      </trkpt>
      <trkpt lat="44.33167" lon="2.03058">
        <ele>257.9</ele>
        <time>2016-01-03T11:19:08Z</time>
      </trkpt>
      <trkpt lat="44.33165" lon="2.03055">
        <ele>257.7</ele>
        <time>2016-01-03T11:19:09Z</time>
      </trkpt>
      <trkpt lat="44.33163" lon="2.03052">
        <ele>257.4</ele>
        <time>2016-01-03T11:19:10Z</time>
      </trkpt>
      <trkpt lat="44.33161" lon="2.03048">
        <ele>257</ele>
        <time>2016-01-03T11:19:11Z</time>
      </trkpt>
      <trkpt lat="44.33159" lon="2.03044">
        <ele>256.5</ele>
        <time>2016-01-03T11:19:12Z</time>
      </trkpt>
      <trkpt lat="44.33156" lon="2.03041">
        <ele>256.3</ele>
        <time>2016-01-03T11:19:13Z</time>
      </trkpt>
      <trkpt lat="44.33153" lon="2.03036">
        <ele>256.3</ele>
        <time>2016-01-03T11:19:14Z</time>
      </trkpt>
      <trkpt lat="44.33152" lon="2.03032">
        <ele>256.2</ele>
        <time>2016-01-03T11:19:15Z</time>
      </trkpt>
      <trkpt lat="44.3315" lon="2.03028">
        <ele>256.1</ele>
        <time>2016-01-03T11:19:16Z</time>
      </trkpt>
      <trkpt lat="44.3315" lon="2.03023">
        <ele>255.9</ele>
        <time>2016-01-03T11:19:17Z</time>
      </trkpt>
      <trkpt lat="44.33148" lon="2.03019">
        <ele>255.8</ele>
        <time>2016-01-03T11:19:18Z</time>
      </trkpt>
      <trkpt lat="44.33148" lon="2.03012">
        <ele>255.4</ele>
        <time>2016-01-03T11:19:20Z</time>
      </trkpt>
      <trkpt lat="44.33147" lon="2.03007">
        <ele>255.2</ele>
        <time>2016-01-03T11:19:21Z</time>
      </trkpt>
      <trkpt lat="44.33146" lon="2.03003">
        <ele>255</ele>
        <time>2016-01-03T11:19:22Z</time>
      </trkpt>
      <trkpt lat="44.33145" lon="2.02999">
        <ele>254.9</ele>
        <time>2016-01-03T11:19:23Z</time>
      </trkpt>
      <trkpt lat="44.33143" lon="2.02993">
        <ele>254.6</ele>
        <time>2016-01-03T11:19:25Z</time>
      </trkpt>
      <trkpt lat="44.33142" lon="2.02986">
        <ele>254.3</ele>
        <time>2016-01-03T11:19:27Z</time>
      </trkpt>
      <trkpt lat="44.33141" lon="2.02982">
        <ele>254.1</ele>
        <time>2016-01-03T11:19:28Z</time>
      </trkpt>
      <trkpt lat="44.33139" lon="2.02975">
        <ele>253.7</ele>
        <time>2016-01-03T11:19:30Z</time>
      </trkpt>
      <trkpt lat="44.33139" lon="2.02972">
        <ele>253.4</ele>
        <time>2016-01-03T11:19:31Z</time>
      </trkpt>
      <trkpt lat="44.33139" lon="2.02967">
        <ele>253.1</ele>
        <time>2016-01-03T11:19:32Z</time>
      </trkpt>
      <trkpt lat="44.33135" lon="2.02962">
        <ele>252.9</ele>
        <time>2016-01-03T11:19:33Z</time>
      </trkpt>
      <trkpt lat="44.33135" lon="2.02958">
        <ele>252.7</ele>
        <time>2016-01-03T11:19:34Z</time>
      </trkpt>
      <trkpt lat="44.33134" lon="2.02953">
        <ele>252.8</ele>
        <time>2016-01-03T11:19:35Z</time>
      </trkpt>
      <trkpt lat="44.33132" lon="2.02948">
        <ele>253.1</ele>
        <time>2016-01-03T11:19:36Z</time>
      </trkpt>
      <trkpt lat="44.33128" lon="2.02942">
        <ele>253.5</ele>
        <time>2016-01-03T11:19:37Z</time>
      </trkpt>
      <trkpt lat="44.33126" lon="2.02937">
        <ele>253.7</ele>
        <time>2016-01-03T11:19:38Z</time>
      </trkpt>
      <trkpt lat="44.33125" lon="2.02931">
        <ele>254.2</ele>
        <time>2016-01-03T11:19:39Z</time>
      </trkpt>
      <trkpt lat="44.33123" lon="2.02926">
        <ele>255</ele>
        <time>2016-01-03T11:19:40Z</time>
      </trkpt>
      <trkpt lat="44.33122" lon="2.0292">
        <ele>255.5</ele>
        <time>2016-01-03T11:19:41Z</time>
      </trkpt>
      <trkpt lat="44.3312" lon="2.02913">
        <ele>256.2</ele>
        <time>2016-01-03T11:19:42Z</time>
      </trkpt>
      <trkpt lat="44.3312" lon="2.02906">
        <ele>256.6</ele>
        <time>2016-01-03T11:19:43Z</time>
      </trkpt>
      <trkpt lat="44.33118" lon="2.02899">
        <ele>257.3</ele>
        <time>2016-01-03T11:19:44Z</time>
      </trkpt>
      <trkpt lat="44.33117" lon="2.02892">
        <ele>258</ele>
        <time>2016-01-03T11:19:45Z</time>
      </trkpt>
      <trkpt lat="44.33115" lon="2.02886">
        <ele>258.6</ele>
        <time>2016-01-03T11:19:46Z</time>
      </trkpt>
      <trkpt lat="44.33114" lon="2.02879">
        <ele>259.1</ele>
        <time>2016-01-03T11:19:47Z</time>
      </trkpt>
      <trkpt lat="44.33113" lon="2.02872">
        <ele>259.4</ele>
        <time>2016-01-03T11:19:48Z</time>
      </trkpt>
      <trkpt lat="44.33113" lon="2.02865">
        <ele>259.3</ele>
        <time>2016-01-03T11:19:49Z</time>
      </trkpt>
      <trkpt lat="44.33112" lon="2.0286">
        <ele>259.4</ele>
        <time>2016-01-03T11:19:50Z</time>
      </trkpt>
      <trkpt lat="44.3311" lon="2.02856">
        <ele>259.8</ele>
        <time>2016-01-03T11:19:51Z</time>
      </trkpt>
      <trkpt lat="44.33109" lon="2.0285">
        <ele>260</ele>
        <time>2016-01-03T11:19:52Z</time>
      </trkpt>
      <trkpt lat="44.33107" lon="2.02846">
        <ele>260.2</ele>
        <time>2016-01-03T11:19:53Z</time>
      </trkpt>
      <trkpt lat="44.33106" lon="2.02842">
        <ele>260.3</ele>
        <time>2016-01-03T11:19:54Z</time>
      </trkpt>
      <trkpt lat="44.33104" lon="2.02834">
        <ele>260.6</ele>
        <time>2016-01-03T11:19:56Z</time>
      </trkpt>
      <trkpt lat="44.33103" lon="2.02828">
        <ele>260.6</ele>
        <time>2016-01-03T11:19:57Z</time>
      </trkpt>
      <trkpt lat="44.33103" lon="2.02823">
        <ele>260.5</ele>
        <time>2016-01-03T11:19:58Z</time>
      </trkpt>
      <trkpt lat="44.33103" lon="2.02816">
        <ele>260.2</ele>
        <time>2016-01-03T11:19:59Z</time>
      </trkpt>
      <trkpt lat="44.33103" lon="2.02809">
        <ele>259.8</ele>
        <time>2016-01-03T11:20:00Z</time>
      </trkpt>
      <trkpt lat="44.33104" lon="2.02804">
        <ele>259.6</ele>
        <time>2016-01-03T11:20:01Z</time>
      </trkpt>
      <trkpt lat="44.33104" lon="2.02798">
        <ele>259.3</ele>
        <time>2016-01-03T11:20:02Z</time>
      </trkpt>
      <trkpt lat="44.33103" lon="2.02793">
        <ele>259.2</ele>
        <time>2016-01-03T11:20:03Z</time>
      </trkpt>
      <trkpt lat="44.33104" lon="2.02783">
        <ele>258.3</ele>
        <time>2016-01-03T11:20:05Z</time>
      </trkpt>
      <trkpt lat="44.33105" lon="2.02777">
        <ele>257.6</ele>
        <time>2016-01-03T11:20:06Z</time>
      </trkpt>
      <trkpt lat="44.33105" lon="2.02771">
        <ele>257.1</ele>
        <time>2016-01-03T11:20:07Z</time>
      </trkpt>
      <trkpt lat="44.33107" lon="2.02764">
        <ele>256.2</ele>
        <time>2016-01-03T11:20:08Z</time>
      </trkpt>
      <trkpt lat="44.33108" lon="2.02757">
        <ele>255.4</ele>
        <time>2016-01-03T11:20:09Z</time>
      </trkpt>
      <trkpt lat="44.3311" lon="2.0275">
        <ele>254.6</ele>
        <time>2016-01-03T11:20:10Z</time>
      </trkpt>
      <trkpt lat="44.33111" lon="2.02746">
        <ele>254.1</ele>
        <time>2016-01-03T11:20:11Z</time>
      </trkpt>
      <trkpt lat="44.3311" lon="2.02738">
        <ele>253.6</ele>
        <time>2016-01-03T11:20:13Z</time>
      </trkpt>
      <trkpt lat="44.3311" lon="2.02733">
        <ele>253.2</ele>
        <time>2016-01-03T11:20:15Z</time>
      </trkpt>
      <trkpt lat="44.33104" lon="2.02728">
        <ele>253.4</ele>
        <time>2016-01-03T11:20:17Z</time>
      </trkpt>
      <trkpt lat="44.33101" lon="2.02726">
        <ele>253.6</ele>
        <time>2016-01-03T11:20:18Z</time>
      </trkpt>
      <trkpt lat="44.33097" lon="2.02723">
        <ele>253.8</ele>
        <time>2016-01-03T11:20:19Z</time>
      </trkpt>
      <trkpt lat="44.33094" lon="2.02723">
        <ele>254.1</ele>
        <time>2016-01-03T11:20:20Z</time>
      </trkpt>
      <trkpt lat="44.33089" lon="2.02721">
        <ele>254.4</ele>
        <time>2016-01-03T11:20:22Z</time>
      </trkpt>
      <trkpt lat="44.33085" lon="2.02718">
        <ele>254.4</ele>
        <time>2016-01-03T11:20:24Z</time>
      </trkpt>
      <trkpt lat="44.33084" lon="2.02714">
        <ele>254.1</ele>
        <time>2016-01-03T11:20:25Z</time>
      </trkpt>
      <trkpt lat="44.33082" lon="2.02711">
        <ele>253.9</ele>
        <time>2016-01-03T11:20:28Z</time>
      </trkpt>
      <trkpt lat="44.33078" lon="2.02706">
        <ele>253.8</ele>
        <time>2016-01-03T11:20:30Z</time>
      </trkpt>
      <trkpt lat="44.33075" lon="2.02702">
        <ele>253.9</ele>
        <time>2016-01-03T11:20:31Z</time>
      </trkpt>
      <trkpt lat="44.33072" lon="2.02698">
        <ele>253.8</ele>
        <time>2016-01-03T11:20:33Z</time>
      </trkpt>
      <trkpt lat="44.3307" lon="2.02695">
        <ele>253.9</ele>
        <time>2016-01-03T11:20:34Z</time>
      </trkpt>
      <trkpt lat="44.33068" lon="2.0269">
        <ele>253.7</ele>
        <time>2016-01-03T11:20:36Z</time>
      </trkpt>
      <trkpt lat="44.33051" lon="2.02662">
        <ele>253.1</ele>
        <time>2016-01-03T11:20:43Z</time>
      </trkpt>
      <trkpt lat="44.33049" lon="2.02658">
        <ele>252.9</ele>
        <time>2016-01-03T11:20:44Z</time>
      </trkpt>
      <trkpt lat="44.33047" lon="2.02654">
        <ele>252.8</ele>
        <time>2016-01-03T11:20:45Z</time>
      </trkpt>
      <trkpt lat="44.33044" lon="2.02651">
        <ele>252.7</ele>
        <time>2016-01-03T11:20:46Z</time>
      </trkpt>
      <trkpt lat="44.33041" lon="2.02649">
        <ele>252.9</ele>
        <time>2016-01-03T11:20:48Z</time>
      </trkpt>
      <trkpt lat="44.33039" lon="2.02645">
        <ele>253</ele>
        <time>2016-01-03T11:20:50Z</time>
      </trkpt>
      <trkpt lat="44.33037" lon="2.0264">
        <ele>253.1</ele>
        <time>2016-01-03T11:20:52Z</time>
      </trkpt>
      <trkpt lat="44.33036" lon="2.02636">
        <ele>253</ele>
        <time>2016-01-03T11:20:53Z</time>
      </trkpt>
      <trkpt lat="44.33033" lon="2.02631">
        <ele>253.1</ele>
        <time>2016-01-03T11:20:55Z</time>
      </trkpt>
      <trkpt lat="44.33031" lon="2.02628">
        <ele>253.4</ele>
        <time>2016-01-03T11:20:56Z</time>
      </trkpt>
      <trkpt lat="44.33029" lon="2.02623">
        <ele>253.4</ele>
        <time>2016-01-03T11:20:58Z</time>
      </trkpt>
      <trkpt lat="44.33028" lon="2.02619">
        <ele>253.3</ele>
        <time>2016-01-03T11:21:00Z</time>
      </trkpt>
      <trkpt lat="44.33028" lon="2.02614">
        <ele>253</ele>
        <time>2016-01-03T11:21:02Z</time>
      </trkpt>
      <trkpt lat="44.33024" lon="2.02608">
        <ele>253.4</ele>
        <time>2016-01-03T11:21:04Z</time>
      </trkpt>
      <trkpt lat="44.33015" lon="2.02601">
        <ele>254.4</ele>
        <time>2016-01-03T11:21:07Z</time>
      </trkpt>
      <trkpt lat="44.33011" lon="2.02597">
        <ele>254.9</ele>
        <time>2016-01-03T11:21:09Z</time>
      </trkpt>
      <trkpt lat="44.33008" lon="2.02593">
        <ele>255.1</ele>
        <time>2016-01-03T11:21:13Z</time>
      </trkpt>
      <trkpt lat="44.33006" lon="2.02588">
        <ele>255.1</ele>
        <time>2016-01-03T11:21:15Z</time>
      </trkpt>
      <trkpt lat="44.33006" lon="2.02581">
        <ele>254.4</ele>
        <time>2016-01-03T11:21:17Z</time>
      </trkpt>
      <trkpt lat="44.33005" lon="2.02574">
        <ele>254.2</ele>
        <time>2016-01-03T11:21:19Z</time>
      </trkpt>
      <trkpt lat="44.33004" lon="2.02568">
        <ele>253.9</ele>
        <time>2016-01-03T11:21:21Z</time>
      </trkpt>
      <trkpt lat="44.33003" lon="2.02563">
        <ele>253.7</ele>
        <time>2016-01-03T11:21:23Z</time>
      </trkpt>
      <trkpt lat="44.33" lon="2.02559">
        <ele>253.9</ele>
        <time>2016-01-03T11:21:24Z</time>
      </trkpt>
      <trkpt lat="44.32996" lon="2.02555">
        <ele>254.2</ele>
        <time>2016-01-03T11:21:25Z</time>
      </trkpt>
      <trkpt lat="44.32993" lon="2.02551">
        <ele>254.3</ele>
        <time>2016-01-03T11:21:26Z</time>
      </trkpt>
      <trkpt lat="44.32991" lon="2.02547">
        <ele>254.4</ele>
        <time>2016-01-03T11:21:27Z</time>
      </trkpt>
      <trkpt lat="44.32986" lon="2.02542">
        <ele>254.7</ele>
        <time>2016-01-03T11:21:28Z</time>
      </trkpt>
      <trkpt lat="44.32984" lon="2.02538">
        <ele>254.9</ele>
        <time>2016-01-03T11:21:29Z</time>
      </trkpt>
      <trkpt lat="44.3298" lon="2.02535">
        <ele>255.3</ele>
        <time>2016-01-03T11:21:30Z</time>
      </trkpt>
      <trkpt lat="44.32977" lon="2.02531">
        <ele>255.7</ele>
        <time>2016-01-03T11:21:31Z</time>
      </trkpt>
      <trkpt lat="44.32973" lon="2.02529">
        <ele>256.1</ele>
        <time>2016-01-03T11:21:32Z</time>
      </trkpt>
      <trkpt lat="44.3297" lon="2.02527">
        <ele>256.5</ele>
        <time>2016-01-03T11:21:33Z</time>
      </trkpt>
      <trkpt lat="44.32968" lon="2.02523">
        <ele>256.7</ele>
        <time>2016-01-03T11:21:34Z</time>
      </trkpt>
      <trkpt lat="44.32965" lon="2.0252">
        <ele>257</ele>
        <time>2016-01-03T11:21:35Z</time>
      </trkpt>
      <trkpt lat="44.32948" lon="2.02494">
        <ele>261.8</ele>
        <time>2016-01-03T11:21:46Z</time>
      </trkpt>
      <trkpt lat="44.32945" lon="2.02491">
        <ele>262.7</ele>
        <time>2016-01-03T11:21:47Z</time>
      </trkpt>
      <trkpt lat="44.32943" lon="2.02483">
        <ele>263.5</ele>
        <time>2016-01-03T11:21:49Z</time>
      </trkpt>
      <trkpt lat="44.32941" lon="2.02479">
        <ele>264.3</ele>
        <time>2016-01-03T11:21:50Z</time>
      </trkpt>
      <trkpt lat="44.32939" lon="2.02475">
        <ele>264.9</ele>
        <time>2016-01-03T11:21:51Z</time>
      </trkpt>
      <trkpt lat="44.32938" lon="2.02472">
        <ele>265.2</ele>
        <time>2016-01-03T11:21:52Z</time>
      </trkpt>
      <trkpt lat="44.32936" lon="2.02466">
        <ele>265.5</ele>
        <time>2016-01-03T11:21:54Z</time>
      </trkpt>
      <trkpt lat="44.32936" lon="2.0246">
        <ele>265.4</ele>
        <time>2016-01-03T11:21:56Z</time>
      </trkpt>
      <trkpt lat="44.32935" lon="2.02455">
        <ele>265.6</ele>
        <time>2016-01-03T11:21:58Z</time>
      </trkpt>
      <trkpt lat="44.32934" lon="2.0245">
        <ele>265.7</ele>
        <time>2016-01-03T11:22:00Z</time>
      </trkpt>
      <trkpt lat="44.32932" lon="2.02444">
        <ele>266.2</ele>
        <time>2016-01-03T11:22:02Z</time>
      </trkpt>
      <trkpt lat="44.32931" lon="2.02439">
        <ele>266.1</ele>
        <time>2016-01-03T11:22:04Z</time>
      </trkpt>
      <trkpt lat="44.32928" lon="2.02436">
        <ele>267.1</ele>
        <time>2016-01-03T11:22:05Z</time>
      </trkpt>
      <trkpt lat="44.32928" lon="2.02431">
        <ele>267</ele>
        <time>2016-01-03T11:22:07Z</time>
      </trkpt>
      <trkpt lat="44.32927" lon="2.02425">
        <ele>266.9</ele>
        <time>2016-01-03T11:22:09Z</time>
      </trkpt>
      <trkpt lat="44.32924" lon="2.0242">
        <ele>267.8</ele>
        <time>2016-01-03T11:22:11Z</time>
      </trkpt>
      <trkpt lat="44.32922" lon="2.02416">
        <ele>268.5</ele>
        <time>2016-01-03T11:22:12Z</time>
      </trkpt>
      <trkpt lat="44.32919" lon="2.02414">
        <ele>269.4</ele>
        <time>2016-01-03T11:22:13Z</time>
      </trkpt>
      <trkpt lat="44.32917" lon="2.02409">
        <ele>269.9</ele>
        <time>2016-01-03T11:22:15Z</time>
      </trkpt>
      <trkpt lat="44.32915" lon="2.02403">
        <ele>270.4</ele>
        <time>2016-01-03T11:22:18Z</time>
      </trkpt>
      <trkpt lat="44.3281" lon="2.02207">
        <ele>283.2</ele>
        <time>2016-01-03T11:24:37Z</time>
      </trkpt>
      <trkpt lat="44.32808" lon="2.02203">
        <ele>283.6</ele>
        <time>2016-01-03T11:24:39Z</time>
      </trkpt>
      <trkpt lat="44.32805" lon="2.022">
        <ele>284.6</ele>
        <time>2016-01-03T11:24:41Z</time>
      </trkpt>
      <trkpt lat="44.32803" lon="2.02197">
        <ele>285</ele>
        <time>2016-01-03T11:24:43Z</time>
      </trkpt>
      <trkpt lat="44.32802" lon="2.02193">
        <ele>285.2</ele>
        <time>2016-01-03T11:24:45Z</time>
      </trkpt>
      <trkpt lat="44.328" lon="2.02188">
        <ele>285.3</ele>
        <time>2016-01-03T11:24:47Z</time>
      </trkpt>
      <trkpt lat="44.328" lon="2.02184">
        <ele>285.3</ele>
        <time>2016-01-03T11:24:50Z</time>
      </trkpt>
      <trkpt lat="44.32797" lon="2.0218">
        <ele>285.9</ele>
        <time>2016-01-03T11:24:53Z</time>
      </trkpt>
      <trkpt lat="44.32794" lon="2.02179">
        <ele>287</ele>
        <time>2016-01-03T11:24:56Z</time>
      </trkpt>
      <trkpt lat="44.3279" lon="2.02176">
        <ele>287.7</ele>
        <time>2016-01-03T11:24:59Z</time>
      </trkpt>
      <trkpt lat="44.32787" lon="2.02171">
        <ele>287.5</ele>
        <time>2016-01-03T11:25:02Z</time>
      </trkpt>
      <trkpt lat="44.32786" lon="2.02165">
        <ele>287.1</ele>
        <time>2016-01-03T11:25:04Z</time>
      </trkpt>
      <trkpt lat="44.32784" lon="2.02161">
        <ele>286.8</ele>
        <time>2016-01-03T11:25:06Z</time>
      </trkpt>
      <trkpt lat="44.32782" lon="2.02156">
        <ele>286.5</ele>
        <time>2016-01-03T11:25:08Z</time>
      </trkpt>
      <trkpt lat="44.32775" lon="2.02141">
        <ele>285.5</ele>
        <time>2016-01-03T11:25:10Z</time>
      </trkpt>
      <trkpt lat="44.32769" lon="2.0213">
        <ele>284.7</ele>
        <time>2016-01-03T11:25:13Z</time>
      </trkpt>
      <trkpt lat="44.32762" lon="2.0212">
        <ele>283.9</ele>
        <time>2016-01-03T11:26:15Z</time>
      </trkpt>
      <trkpt lat="44.32756" lon="2.02109">
        <ele>283.1</ele>
        <time>2016-01-03T11:26:20Z</time>
      </trkpt>
      <trkpt lat="44.3275" lon="2.02098">
        <ele>282.3</ele>
        <time>2016-01-03T11:26:21Z</time>
      </trkpt>
      <trkpt lat="44.32748" lon="2.02096">
        <ele>282</ele>
        <time>2016-01-03T11:26:23Z</time>
      </trkpt>
      <trkpt lat="44.32748" lon="2.02101">
        <ele>282.5</ele>
        <time>2016-01-03T11:26:28Z</time>
      </trkpt>
      <trkpt lat="44.32746" lon="2.02097">
        <ele>282.2</ele>
        <time>2016-01-03T11:26:37Z</time>
      </trkpt>
      <trkpt lat="44.32749" lon="2.02099">
        <ele>282.3</ele>
        <time>2016-01-03T11:26:44Z</time>
      </trkpt>
      <trkpt lat="44.32751" lon="2.02102">
        <ele>282.5</ele>
        <time>2016-01-03T11:26:46Z</time>
      </trkpt>
      <trkpt lat="44.32747" lon="2.02116">
        <ele>283.8</ele>
        <time>2016-01-03T11:27:42Z</time>
      </trkpt>
      <trkpt lat="44.32752" lon="2.02118">
        <ele>283.9</ele>
        <time>2016-01-03T11:29:04Z</time>
      </trkpt>
      <trkpt lat="44.32749" lon="2.02119">
        <ele>284</ele>
        <time>2016-01-03T11:29:07Z</time>
      </trkpt>
      <trkpt lat="44.32747" lon="2.02123">
        <ele>284.4</ele>
        <time>2016-01-03T11:29:10Z</time>
      </trkpt>
      <trkpt lat="44.32745" lon="2.02129">
        <ele>284.9</ele>
        <time>2016-01-03T11:29:13Z</time>
      </trkpt>
      <trkpt lat="44.32743" lon="2.02132">
        <ele>285.2</ele>
        <time>2016-01-03T11:29:16Z</time>
      </trkpt>
      <trkpt lat="44.32741" lon="2.02136">
        <ele>285.7</ele>
        <time>2016-01-03T11:29:19Z</time>
      </trkpt>
      <trkpt lat="44.32741" lon="2.02146">
        <ele>286.6</ele>
        <time>2016-01-03T11:29:23Z</time>
      </trkpt>
      <trkpt lat="44.32741" lon="2.02152">
        <ele>287.2</ele>
        <time>2016-01-03T11:29:26Z</time>
      </trkpt>
      <trkpt lat="44.32741" lon="2.02156">
        <ele>287.5</ele>
        <time>2016-01-03T11:29:28Z</time>
      </trkpt>
      <trkpt lat="44.32741" lon="2.0216">
        <ele>287.9</ele>
        <time>2016-01-03T11:29:30Z</time>
      </trkpt>
      <trkpt lat="44.32741" lon="2.02165">
        <ele>288.4</ele>
        <time>2016-01-03T11:29:33Z</time>
      </trkpt>
      <trkpt lat="44.32738" lon="2.02198">
        <ele>291.6</ele>
        <time>2016-01-03T11:29:48Z</time>
      </trkpt>
      <trkpt lat="44.3274" lon="2.02203">
        <ele>292</ele>
        <time>2016-01-03T11:29:50Z</time>
      </trkpt>
      <trkpt lat="44.3274" lon="2.02207">
        <ele>292.3</ele>
        <time>2016-01-03T11:29:52Z</time>
      </trkpt>
      <trkpt lat="44.3274" lon="2.02211">
        <ele>292.7</ele>
        <time>2016-01-03T11:29:54Z</time>
      </trkpt>
      <trkpt lat="44.3274" lon="2.02215">
        <ele>293.1</ele>
        <time>2016-01-03T11:29:56Z</time>
      </trkpt>
      <trkpt lat="44.32739" lon="2.0222">
        <ele>293.5</ele>
        <time>2016-01-03T11:29:58Z</time>
      </trkpt>
      <trkpt lat="44.32739" lon="2.02224">
        <ele>293.9</ele>
        <time>2016-01-03T11:30:00Z</time>
      </trkpt>
      <trkpt lat="44.32739" lon="2.0223">
        <ele>294.4</ele>
        <time>2016-01-03T11:30:03Z</time>
      </trkpt>
      <trkpt lat="44.3274" lon="2.02235">
        <ele>294.8</ele>
        <time>2016-01-03T11:30:07Z</time>
      </trkpt>
      <trkpt lat="44.32741" lon="2.0224">
        <ele>295.2</ele>
        <time>2016-01-03T11:30:09Z</time>
      </trkpt>
      <trkpt lat="44.32742" lon="2.02244">
        <ele>295.5</ele>
        <time>2016-01-03T11:30:11Z</time>
      </trkpt>
      <trkpt lat="44.32742" lon="2.02248">
        <ele>295.9</ele>
        <time>2016-01-03T11:30:13Z</time>
      </trkpt>
      <trkpt lat="44.32741" lon="2.02253">
        <ele>296.4</ele>
        <time>2016-01-03T11:30:15Z</time>
      </trkpt>
      <trkpt lat="44.32742" lon="2.02258">
        <ele>296.8</ele>
        <time>2016-01-03T11:30:17Z</time>
      </trkpt>
      <trkpt lat="44.32743" lon="2.02262">
        <ele>297.1</ele>
        <time>2016-01-03T11:30:19Z</time>
      </trkpt>
      <trkpt lat="44.32743" lon="2.02267">
        <ele>297.6</ele>
        <time>2016-01-03T11:30:22Z</time>
      </trkpt>
      <trkpt lat="44.32742" lon="2.02272">
        <ele>298</ele>
        <time>2016-01-03T11:30:26Z</time>
      </trkpt>
      <trkpt lat="44.32742" lon="2.02278">
        <ele>298.5</ele>
        <time>2016-01-03T11:30:28Z</time>
      </trkpt>
      <trkpt lat="44.3274" lon="2.02285">
        <ele>299.3</ele>
        <time>2016-01-03T11:30:30Z</time>
      </trkpt>
      <trkpt lat="44.32739" lon="2.02289">
        <ele>299.7</ele>
        <time>2016-01-03T11:30:33Z</time>
      </trkpt>
      <trkpt lat="44.32738" lon="2.02294">
        <ele>300.1</ele>
        <time>2016-01-03T11:30:35Z</time>
      </trkpt>
      <trkpt lat="44.32737" lon="2.02298">
        <ele>300.4</ele>
        <time>2016-01-03T11:30:37Z</time>
      </trkpt>
      <trkpt lat="44.32736" lon="2.02302">
        <ele>300.8</ele>
        <time>2016-01-03T11:30:40Z</time>
      </trkpt>
      <trkpt lat="44.32734" lon="2.02306">
        <ele>301.1</ele>
        <time>2016-01-03T11:30:42Z</time>
      </trkpt>
      <trkpt lat="44.32733" lon="2.0231">
        <ele>301.5</ele>
        <time>2016-01-03T11:30:44Z</time>
      </trkpt>
      <trkpt lat="44.32732" lon="2.02314">
        <ele>301.8</ele>
        <time>2016-01-03T11:30:50Z</time>
      </trkpt>
      <trkpt lat="44.32731" lon="2.02318">
        <ele>302.2</ele>
        <time>2016-01-03T11:30:51Z</time>
      </trkpt>
      <trkpt lat="44.32731" lon="2.02325">
        <ele>302.7</ele>
        <time>2016-01-03T11:30:53Z</time>
      </trkpt>
      <trkpt lat="44.32731" lon="2.02332">
        <ele>303.2</ele>
        <time>2016-01-03T11:30:55Z</time>
      </trkpt>
      <trkpt lat="44.32732" lon="2.02336">
        <ele>303.5</ele>
        <time>2016-01-03T11:30:56Z</time>
      </trkpt>
      <trkpt lat="44.32733" lon="2.02342">
        <ele>303.9</ele>
        <time>2016-01-03T11:30:58Z</time>
      </trkpt>
      <trkpt lat="44.32734" lon="2.02349">
        <ele>304.4</ele>
        <time>2016-01-03T11:31:00Z</time>
      </trkpt>
      <trkpt lat="44.32734" lon="2.02354">
        <ele>304.8</ele>
        <time>2016-01-03T11:31:02Z</time>
      </trkpt>
      <trkpt lat="44.32734" lon="2.02358">
        <ele>305.1</ele>
        <time>2016-01-03T11:31:04Z</time>
      </trkpt>
      <trkpt lat="44.32734" lon="2.02362">
        <ele>305.4</ele>
        <time>2016-01-03T11:31:06Z</time>
      </trkpt>
      <trkpt lat="44.32733" lon="2.02367">
        <ele>305.8</ele>
        <time>2016-01-03T11:31:09Z</time>
      </trkpt>
      <trkpt lat="44.32732" lon="2.02372">
        <ele>306.2</ele>
        <time>2016-01-03T11:31:11Z</time>
      </trkpt>
      <trkpt lat="44.32732" lon="2.02376">
        <ele>306.5</ele>
        <time>2016-01-03T11:31:13Z</time>
      </trkpt>
      <trkpt lat="44.32731" lon="2.02382">
        <ele>306.9</ele>
        <time>2016-01-03T11:31:16Z</time>
      </trkpt>
      <trkpt lat="44.32731" lon="2.02387">
        <ele>307.3</ele>
        <time>2016-01-03T11:31:18Z</time>
      </trkpt>
      <trkpt lat="44.32731" lon="2.02392">
        <ele>307.6</ele>
        <time>2016-01-03T11:31:20Z</time>
      </trkpt>
      <trkpt lat="44.32731" lon="2.02397">
        <ele>308</ele>
        <time>2016-01-03T11:31:22Z</time>
      </trkpt>
      <trkpt lat="44.32731" lon="2.02402">
        <ele>308.3</ele>
        <time>2016-01-03T11:31:24Z</time>
      </trkpt>
      <trkpt lat="44.3273" lon="2.02407">
        <ele>308.7</ele>
        <time>2016-01-03T11:31:27Z</time>
      </trkpt>
      <trkpt lat="44.3273" lon="2.02412">
        <ele>309</ele>
        <time>2016-01-03T11:31:29Z</time>
      </trkpt>
      <trkpt lat="44.3273" lon="2.02416">
        <ele>309.3</ele>
        <time>2016-01-03T11:31:31Z</time>
      </trkpt>
      <trkpt lat="44.3273" lon="2.0242">
        <ele>309.6</ele>
        <time>2016-01-03T11:31:33Z</time>
      </trkpt>
      <trkpt lat="44.32729" lon="2.02425">
        <ele>309.9</ele>
        <time>2016-01-03T11:31:36Z</time>
      </trkpt>
      <trkpt lat="44.32729" lon="2.02429">
        <ele>310.3</ele>
        <time>2016-01-03T11:31:38Z</time>
      </trkpt>
      <trkpt lat="44.32728" lon="2.02433">
        <ele>310.5</ele>
        <time>2016-01-03T11:31:40Z</time>
      </trkpt>
      <trkpt lat="44.32728" lon="2.02438">
        <ele>310.9</ele>
        <time>2016-01-03T11:31:43Z</time>
      </trkpt>
      <trkpt lat="44.32728" lon="2.02443">
        <ele>311.3</ele>
        <time>2016-01-03T11:31:46Z</time>
      </trkpt>
      <trkpt lat="44.32727" lon="2.02448">
        <ele>311.6</ele>
        <time>2016-01-03T11:31:50Z</time>
      </trkpt>
      <trkpt lat="44.32727" lon="2.02452">
        <ele>311.9</ele>
        <time>2016-01-03T11:31:52Z</time>
      </trkpt>
      <trkpt lat="44.32727" lon="2.02457">
        <ele>312.2</ele>
        <time>2016-01-03T11:31:55Z</time>
      </trkpt>
      <trkpt lat="44.32727" lon="2.02462">
        <ele>312.6</ele>
        <time>2016-01-03T11:31:58Z</time>
      </trkpt>
      <trkpt lat="44.32727" lon="2.02466">
        <ele>312.9</ele>
        <time>2016-01-03T11:32:01Z</time>
      </trkpt>
      <trkpt lat="44.32728" lon="2.02471">
        <ele>313.2</ele>
        <time>2016-01-03T11:32:04Z</time>
      </trkpt>
      <trkpt lat="44.32728" lon="2.02475">
        <ele>313.5</ele>
        <time>2016-01-03T11:32:06Z</time>
      </trkpt>
      <trkpt lat="44.32727" lon="2.02479">
        <ele>313.9</ele>
        <time>2016-01-03T11:32:08Z</time>
      </trkpt>
      <trkpt lat="44.32726" lon="2.02483">
        <ele>314.2</ele>
        <time>2016-01-03T11:32:11Z</time>
      </trkpt>
      <trkpt lat="44.32725" lon="2.02487">
        <ele>314.5</ele>
        <time>2016-01-03T11:32:13Z</time>
      </trkpt>
      <trkpt lat="44.32725" lon="2.02492">
        <ele>314.9</ele>
        <time>2016-01-03T11:32:15Z</time>
      </trkpt>
      <trkpt lat="44.32724" lon="2.02496">
        <ele>315.2</ele>
        <time>2016-01-03T11:32:17Z</time>
      </trkpt>
      <trkpt lat="44.32725" lon="2.02501">
        <ele>315.6</ele>
        <time>2016-01-03T11:32:19Z</time>
      </trkpt>
      <trkpt lat="44.32724" lon="2.02505">
        <ele>315.9</ele>
        <time>2016-01-03T11:32:21Z</time>
      </trkpt>
      <trkpt lat="44.32724" lon="2.0251">
        <ele>316.2</ele>
        <time>2016-01-03T11:32:23Z</time>
      </trkpt>
      <trkpt lat="44.32724" lon="2.02515">
        <ele>316.6</ele>
        <time>2016-01-03T11:32:27Z</time>
      </trkpt>
      <trkpt lat="44.32723" lon="2.02519">
        <ele>316.9</ele>
        <time>2016-01-03T11:32:30Z</time>
      </trkpt>
      <trkpt lat="44.32721" lon="2.02522">
        <ele>317.3</ele>
        <time>2016-01-03T11:32:32Z</time>
      </trkpt>
      <trkpt lat="44.32719" lon="2.02528">
        <ele>317.7</ele>
        <time>2016-01-03T11:32:35Z</time>
      </trkpt>
      <trkpt lat="44.32719" lon="2.02532">
        <ele>318.1</ele>
        <time>2016-01-03T11:32:37Z</time>
      </trkpt>
      <trkpt lat="44.32718" lon="2.02537">
        <ele>318.4</ele>
        <time>2016-01-03T11:32:39Z</time>
      </trkpt>
      <trkpt lat="44.32717" lon="2.02541">
        <ele>318.7</ele>
        <time>2016-01-03T11:32:41Z</time>
      </trkpt>
      <trkpt lat="44.32716" lon="2.02546">
        <ele>319.1</ele>
        <time>2016-01-03T11:32:44Z</time>
      </trkpt>
      <trkpt lat="44.32715" lon="2.0255">
        <ele>319.5</ele>
        <time>2016-01-03T11:32:46Z</time>
      </trkpt>
      <trkpt lat="44.32714" lon="2.02555">
        <ele>319.8</ele>
        <time>2016-01-03T11:32:48Z</time>
      </trkpt>
      <trkpt lat="44.32713" lon="2.0255">
        <ele>319.5</ele>
        <time>2016-01-03T11:32:53Z</time>
      </trkpt>
      <trkpt lat="44.3271" lon="2.02554">
        <ele>319.8</ele>
        <time>2016-01-03T11:32:58Z</time>
      </trkpt>
      <trkpt lat="44.32709" lon="2.02559">
        <ele>320.3</ele>
        <time>2016-01-03T11:33:00Z</time>
      </trkpt>
      <trkpt lat="44.32708" lon="2.02565">
        <ele>320.6</ele>
        <time>2016-01-03T11:33:02Z</time>
      </trkpt>
      <trkpt lat="44.32707" lon="2.0257">
        <ele>321</ele>
        <time>2016-01-03T11:33:04Z</time>
      </trkpt>
      <trkpt lat="44.32707" lon="2.02575">
        <ele>321.4</ele>
        <time>2016-01-03T11:33:06Z</time>
      </trkpt>
      <trkpt lat="44.32707" lon="2.0258">
        <ele>321.8</ele>
        <time>2016-01-03T11:33:08Z</time>
      </trkpt>
      <trkpt lat="44.32706" lon="2.02584">
        <ele>322.1</ele>
        <time>2016-01-03T11:33:10Z</time>
      </trkpt>
      <trkpt lat="44.32705" lon="2.0259">
        <ele>322.6</ele>
        <time>2016-01-03T11:33:12Z</time>
      </trkpt>
      <trkpt lat="44.32704" lon="2.02595">
        <ele>322.9</ele>
        <time>2016-01-03T11:33:13Z</time>
      </trkpt>
      <trkpt lat="44.32703" lon="2.02599">
        <ele>323.2</ele>
        <time>2016-01-03T11:33:15Z</time>
      </trkpt>
      <trkpt lat="44.32702" lon="2.02603">
        <ele>323.5</ele>
        <time>2016-01-03T11:33:17Z</time>
      </trkpt>
      <trkpt lat="44.32701" lon="2.02606">
        <ele>323.8</ele>
        <time>2016-01-03T11:33:19Z</time>
      </trkpt>
      <trkpt lat="44.32699" lon="2.0261">
        <ele>324.1</ele>
        <time>2016-01-03T11:33:21Z</time>
      </trkpt>
      <trkpt lat="44.32698" lon="2.02613">
        <ele>324.4</ele>
        <time>2016-01-03T11:33:23Z</time>
      </trkpt>
      <trkpt lat="44.32697" lon="2.0262">
        <ele>324.9</ele>
        <time>2016-01-03T11:33:25Z</time>
      </trkpt>
      <trkpt lat="44.32697" lon="2.02624">
        <ele>325.2</ele>
        <time>2016-01-03T11:33:26Z</time>
      </trkpt>
      <trkpt lat="44.32695" lon="2.02629">
        <ele>325.7</ele>
        <time>2016-01-03T11:33:28Z</time>
      </trkpt>
      <trkpt lat="44.32695" lon="2.02633">
        <ele>326.2</ele>
        <time>2016-01-03T11:33:30Z</time>
      </trkpt>
      <trkpt lat="44.32695" lon="2.02637">
        <ele>326.6</ele>
        <time>2016-01-03T11:33:32Z</time>
      </trkpt>
      <trkpt lat="44.32694" lon="2.02641">
        <ele>327.1</ele>
        <time>2016-01-03T11:33:35Z</time>
      </trkpt>
      <trkpt lat="44.32693" lon="2.02645">
        <ele>327.5</ele>
        <time>2016-01-03T11:33:37Z</time>
      </trkpt>
      <trkpt lat="44.32692" lon="2.02649">
        <ele>328</ele>
        <time>2016-01-03T11:33:39Z</time>
      </trkpt>
      <trkpt lat="44.32691" lon="2.02654">
        <ele>328.6</ele>
        <time>2016-01-03T11:33:42Z</time>
      </trkpt>
      <trkpt lat="44.32691" lon="2.02658">
        <ele>329</ele>
        <time>2016-01-03T11:33:45Z</time>
      </trkpt>
      <trkpt lat="44.32691" lon="2.02663">
        <ele>329.5</ele>
        <time>2016-01-03T11:33:48Z</time>
      </trkpt>
      <trkpt lat="44.32689" lon="2.02668">
        <ele>330.1</ele>
        <time>2016-01-03T11:33:51Z</time>
      </trkpt>
      <trkpt lat="44.32688" lon="2.02672">
        <ele>330.5</ele>
        <time>2016-01-03T11:33:54Z</time>
      </trkpt>
      <trkpt lat="44.32687" lon="2.02676">
        <ele>331</ele>
        <time>2016-01-03T11:33:57Z</time>
      </trkpt>
      <trkpt lat="44.32683" lon="2.02677">
        <ele>331.2</ele>
        <time>2016-01-03T11:34:00Z</time>
      </trkpt>
      <trkpt lat="44.32681" lon="2.02681">
        <ele>331.6</ele>
        <time>2016-01-03T11:34:04Z</time>
      </trkpt>
      <trkpt lat="44.3268" lon="2.02685">
        <ele>332.2</ele>
        <time>2016-01-03T11:34:06Z</time>
      </trkpt>
      <trkpt lat="44.3268" lon="2.0269">
        <ele>332.7</ele>
        <time>2016-01-03T11:34:08Z</time>
      </trkpt>
      <trkpt lat="44.32678" lon="2.02694">
        <ele>333.2</ele>
        <time>2016-01-03T11:34:10Z</time>
      </trkpt>
      <trkpt lat="44.32677" lon="2.02699">
        <ele>333.7</ele>
        <time>2016-01-03T11:34:12Z</time>
      </trkpt>
      <trkpt lat="44.32677" lon="2.02706">
        <ele>334.5</ele>
        <time>2016-01-03T11:34:16Z</time>
      </trkpt>
      <trkpt lat="44.32677" lon="2.02701">
        <ele>333.9</ele>
        <time>2016-01-03T11:34:18Z</time>
      </trkpt>
      <trkpt lat="44.32677" lon="2.02695">
        <ele>333.3</ele>
        <time>2016-01-03T11:34:20Z</time>
      </trkpt>
      <trkpt lat="44.32676" lon="2.027">
        <ele>333.8</ele>
        <time>2016-01-03T11:34:21Z</time>
      </trkpt>
      <trkpt lat="44.32677" lon="2.02703">
        <ele>334.2</ele>
        <time>2016-01-03T11:34:27Z</time>
      </trkpt>
      <trkpt lat="44.32677" lon="2.02708">
        <ele>334.7</ele>
        <time>2016-01-03T11:34:31Z</time>
      </trkpt>
      <trkpt lat="44.32673" lon="2.02717">
        <ele>336.1</ele>
        <time>2016-01-03T11:34:42Z</time>
      </trkpt>
      <trkpt lat="44.32671" lon="2.0272">
        <ele>336.7</ele>
        <time>2016-01-03T11:34:45Z</time>
      </trkpt>
      <trkpt lat="44.32669" lon="2.02724">
        <ele>337.4</ele>
        <time>2016-01-03T11:34:48Z</time>
      </trkpt>
      <trkpt lat="44.32667" lon="2.02726">
        <ele>337.8</ele>
        <time>2016-01-03T11:34:50Z</time>
      </trkpt>
      <trkpt lat="44.32664" lon="2.0273">
        <ele>338.5</ele>
        <time>2016-01-03T11:34:53Z</time>
      </trkpt>
      <trkpt lat="44.32662" lon="2.02734">
        <ele>339.2</ele>
        <time>2016-01-03T11:34:56Z</time>
      </trkpt>
      <trkpt lat="44.32659" lon="2.02736">
        <ele>339.7</ele>
        <time>2016-01-03T11:34:59Z</time>
      </trkpt>
      <trkpt lat="44.32656" lon="2.02738">
        <ele>340.2</ele>
        <time>2016-01-03T11:35:03Z</time>
      </trkpt>
      <trkpt lat="44.32654" lon="2.02741">
        <ele>340.8</ele>
        <time>2016-01-03T11:35:06Z</time>
      </trkpt>
      <trkpt lat="44.32652" lon="2.02745">
        <ele>341.6</ele>
        <time>2016-01-03T11:35:09Z</time>
      </trkpt>
      <trkpt lat="44.32649" lon="2.02749">
        <ele>342.4</ele>
        <time>2016-01-03T11:35:12Z</time>
      </trkpt>
      <trkpt lat="44.32647" lon="2.02752">
        <ele>343.1</ele>
        <time>2016-01-03T11:35:15Z</time>
      </trkpt>
      <trkpt lat="44.32645" lon="2.02757">
        <ele>343.9</ele>
        <time>2016-01-03T11:35:18Z</time>
      </trkpt>
      <trkpt lat="44.32644" lon="2.02761">
        <ele>344.7</ele>
        <time>2016-01-03T11:35:19Z</time>
      </trkpt>
      <trkpt lat="44.32643" lon="2.02765">
        <ele>345.6</ele>
        <time>2016-01-03T11:35:22Z</time>
      </trkpt>
      <trkpt lat="44.32641" lon="2.0277">
        <ele>346.7</ele>
        <time>2016-01-03T11:35:25Z</time>
      </trkpt>
      <trkpt lat="44.32641" lon="2.02775">
        <ele>347.6</ele>
        <time>2016-01-03T11:35:28Z</time>
      </trkpt>
      <trkpt lat="44.32639" lon="2.0278">
        <ele>348.5</ele>
        <time>2016-01-03T11:35:34Z</time>
      </trkpt>
      <trkpt lat="44.32638" lon="2.02785">
        <ele>349.5</ele>
        <time>2016-01-03T11:35:37Z</time>
      </trkpt>
      <trkpt lat="44.32637" lon="2.0279">
        <ele>350.5</ele>
        <time>2016-01-03T11:35:41Z</time>
      </trkpt>
      <trkpt lat="44.32636" lon="2.02794">
        <ele>351.4</ele>
        <time>2016-01-03T11:35:45Z</time>
      </trkpt>
      <trkpt lat="44.32635" lon="2.02797">
        <ele>352.2</ele>
        <time>2016-01-03T11:35:48Z</time>
      </trkpt>
      <trkpt lat="44.32634" lon="2.02802">
        <ele>353.1</ele>
        <time>2016-01-03T11:35:53Z</time>
      </trkpt>
      <trkpt lat="44.32633" lon="2.02805">
        <ele>354</ele>
        <time>2016-01-03T11:35:56Z</time>
      </trkpt>
      <trkpt lat="44.32633" lon="2.0281">
        <ele>355</ele>
        <time>2016-01-03T11:36:00Z</time>
      </trkpt>
      <trkpt lat="44.32633" lon="2.02814">
        <ele>355.8</ele>
        <time>2016-01-03T11:36:04Z</time>
      </trkpt>
      <trkpt lat="44.32633" lon="2.02819">
        <ele>356.8</ele>
        <time>2016-01-03T11:36:09Z</time>
      </trkpt>
      <trkpt lat="44.32632" lon="2.02823">
        <ele>357.8</ele>
        <time>2016-01-03T11:36:14Z</time>
      </trkpt>
      <trkpt lat="44.32632" lon="2.02828">
        <ele>358.8</ele>
        <time>2016-01-03T11:36:18Z</time>
      </trkpt>
      <trkpt lat="44.32632" lon="2.02832">
        <ele>359.5</ele>
        <time>2016-01-03T11:36:24Z</time>
      </trkpt>
      <trkpt lat="44.32632" lon="2.02836">
        <ele>360.5</ele>
        <time>2016-01-03T11:36:31Z</time>
      </trkpt>
      <trkpt lat="44.32633" lon="2.0284">
        <ele>361.3</ele>
        <time>2016-01-03T11:36:34Z</time>
      </trkpt>
      <trkpt lat="44.32633" lon="2.02845">
        <ele>362</ele>
        <time>2016-01-03T11:36:38Z</time>
      </trkpt>
      <trkpt lat="44.32633" lon="2.02849">
        <ele>363</ele>
        <time>2016-01-03T11:36:41Z</time>
      </trkpt>
      <trkpt lat="44.32632" lon="2.02853">
        <ele>363.9</ele>
        <time>2016-01-03T11:36:45Z</time>
      </trkpt>
      <trkpt lat="44.32631" lon="2.02857">
        <ele>364.9</ele>
        <time>2016-01-03T11:36:49Z</time>
      </trkpt>
      <trkpt lat="44.3263" lon="2.0286">
        <ele>365.9</ele>
        <time>2016-01-03T11:36:55Z</time>
      </trkpt>
      <trkpt lat="44.32625" lon="2.02906">
        <ele>378.5</ele>
        <time>2016-01-03T11:37:43Z</time>
      </trkpt>
      <trkpt lat="44.32628" lon="2.02909">
        <ele>378.4</ele>
        <time>2016-01-03T11:37:46Z</time>
      </trkpt>
      <trkpt lat="44.32631" lon="2.02912">
        <ele>378.6</ele>
        <time>2016-01-03T11:37:49Z</time>
      </trkpt>
      <trkpt lat="44.32633" lon="2.02915">
        <ele>378.7</ele>
        <time>2016-01-03T11:37:52Z</time>
      </trkpt>
      <trkpt lat="44.32632" lon="2.02919">
        <ele>380.1</ele>
        <time>2016-01-03T11:37:56Z</time>
      </trkpt>
      <trkpt lat="44.32636" lon="2.02966">
        <ele>390.9</ele>
        <time>2016-01-03T11:38:42Z</time>
      </trkpt>
      <trkpt lat="44.32636" lon="2.0297">
        <ele>391.8</ele>
        <time>2016-01-03T11:38:46Z</time>
      </trkpt>
      <trkpt lat="44.32636" lon="2.02974">
        <ele>392.4</ele>
        <time>2016-01-03T11:38:49Z</time>
      </trkpt>
      <trkpt lat="44.32638" lon="2.02979">
        <ele>392.9</ele>
        <time>2016-01-03T11:38:52Z</time>
      </trkpt>
      <trkpt lat="44.32638" lon="2.02983">
        <ele>393.4</ele>
        <time>2016-01-03T11:38:54Z</time>
      </trkpt>
      <trkpt lat="44.3264" lon="2.02986">
        <ele>393.5</ele>
        <time>2016-01-03T11:38:57Z</time>
      </trkpt>
      <trkpt lat="44.32643" lon="2.02989">
        <ele>393.2</ele>
        <time>2016-01-03T11:39:00Z</time>
      </trkpt>
      <trkpt lat="44.32643" lon="2.02993">
        <ele>393.7</ele>
        <time>2016-01-03T11:39:02Z</time>
      </trkpt>
      <trkpt lat="44.32644" lon="2.02997">
        <ele>394.3</ele>
        <time>2016-01-03T11:39:07Z</time>
      </trkpt>
      <trkpt lat="44.32642" lon="2.03001">
        <ele>395.7</ele>
        <time>2016-01-03T11:39:09Z</time>
      </trkpt>
      <trkpt lat="44.32642" lon="2.03004">
        <ele>396.5</ele>
        <time>2016-01-03T11:39:13Z</time>
      </trkpt>
      <trkpt lat="44.32644" lon="2.03009">
        <ele>396.9</ele>
        <time>2016-01-03T11:39:17Z</time>
      </trkpt>
      <trkpt lat="44.32643" lon="2.03013">
        <ele>398.1</ele>
        <time>2016-01-03T11:39:21Z</time>
      </trkpt>
      <trkpt lat="44.32672" lon="2.0312">
        <ele>403.2</ele>
        <time>2016-01-03T11:40:29Z</time>
      </trkpt>
      <trkpt lat="44.32674" lon="2.03121">
        <ele>402.1</ele>
        <time>2016-01-03T11:40:33Z</time>
      </trkpt>
      <trkpt lat="44.32672" lon="2.03124">
        <ele>403.4</ele>
        <time>2016-01-03T11:40:34Z</time>
      </trkpt>
      <trkpt lat="44.32675" lon="2.03126">
        <ele>402.5</ele>
        <time>2016-01-03T11:40:37Z</time>
      </trkpt>
      <trkpt lat="44.32678" lon="2.03127">
        <ele>401.4</ele>
        <time>2016-01-03T11:40:40Z</time>
      </trkpt>
      <trkpt lat="44.32681" lon="2.03127">
        <ele>400.1</ele>
        <time>2016-01-03T11:40:44Z</time>
      </trkpt>
      <trkpt lat="44.32683" lon="2.03123">
        <ele>398.8</ele>
        <time>2016-01-03T11:40:50Z</time>
      </trkpt>
      <trkpt lat="44.32687" lon="2.03124">
        <ele>397</ele>
        <time>2016-01-03T11:40:52Z</time>
      </trkpt>
      <trkpt lat="44.32692" lon="2.03123">
        <ele>394.7</ele>
        <time>2016-01-03T11:40:54Z</time>
      </trkpt>
      <trkpt lat="44.32695" lon="2.03122">
        <ele>393.3</ele>
        <time>2016-01-03T11:40:55Z</time>
      </trkpt>
      <trkpt lat="44.32699" lon="2.03122">
        <ele>391.8</ele>
        <time>2016-01-03T11:40:57Z</time>
      </trkpt>
      <trkpt lat="44.32703" lon="2.03122">
        <ele>390</ele>
        <time>2016-01-03T11:40:59Z</time>
      </trkpt>
      <trkpt lat="44.32706" lon="2.0312">
        <ele>388.3</ele>
        <time>2016-01-03T11:41:01Z</time>
      </trkpt>
      <trkpt lat="44.3271" lon="2.03119">
        <ele>387.3</ele>
        <time>2016-01-03T11:41:03Z</time>
      </trkpt>
      <trkpt lat="44.32713" lon="2.03117">
        <ele>387.2</ele>
        <time>2016-01-03T11:41:05Z</time>
      </trkpt>
      <trkpt lat="44.32717" lon="2.03115">
        <ele>387</ele>
        <time>2016-01-03T11:41:07Z</time>
      </trkpt>
      <trkpt lat="44.3272" lon="2.03114">
        <ele>386.9</ele>
        <time>2016-01-03T11:41:10Z</time>
      </trkpt>
      <trkpt lat="44.32723" lon="2.03114">
        <ele>387</ele>
        <time>2016-01-03T11:41:15Z</time>
      </trkpt>
      <trkpt lat="44.32726" lon="2.03114">
        <ele>387.1</ele>
        <time>2016-01-03T11:41:18Z</time>
      </trkpt>
      <trkpt lat="44.3273" lon="2.03117">
        <ele>387.6</ele>
        <time>2016-01-03T11:41:26Z</time>
      </trkpt>
      <trkpt lat="44.32733" lon="2.03117">
        <ele>387.7</ele>
        <time>2016-01-03T11:41:30Z</time>
      </trkpt>
      <trkpt lat="44.32746" lon="2.03122">
        <ele>389.2</ele>
        <time>2016-01-03T11:41:54Z</time>
      </trkpt>
      <trkpt lat="44.32747" lon="2.03126">
        <ele>390.2</ele>
        <time>2016-01-03T11:42:00Z</time>
      </trkpt>
      <trkpt lat="44.32748" lon="2.0313">
        <ele>391.2</ele>
        <time>2016-01-03T11:42:04Z</time>
      </trkpt>
      <trkpt lat="44.32751" lon="2.03129">
        <ele>391</ele>
        <time>2016-01-03T11:42:09Z</time>
      </trkpt>
      <trkpt lat="44.32756" lon="2.03128">
        <ele>390.9</ele>
        <time>2016-01-03T11:42:25Z</time>
      </trkpt>
      <trkpt lat="44.32759" lon="2.03127">
        <ele>390.8</ele>
        <time>2016-01-03T11:42:27Z</time>
      </trkpt>
      <trkpt lat="44.32762" lon="2.03127">
        <ele>391</ele>
        <time>2016-01-03T11:42:30Z</time>
      </trkpt>
      <trkpt lat="44.32765" lon="2.03127">
        <ele>391.3</ele>
        <time>2016-01-03T11:42:33Z</time>
      </trkpt>
      <trkpt lat="44.32768" lon="2.03129">
        <ele>391.9</ele>
        <time>2016-01-03T11:42:36Z</time>
      </trkpt>
      <trkpt lat="44.32771" lon="2.03131">
        <ele>392.5</ele>
        <time>2016-01-03T11:42:38Z</time>
      </trkpt>
      <trkpt lat="44.32774" lon="2.03131">
        <ele>392.8</ele>
        <time>2016-01-03T11:42:41Z</time>
      </trkpt>
      <trkpt lat="44.32772" lon="2.03135">
        <ele>393.7</ele>
        <time>2016-01-03T11:42:47Z</time>
      </trkpt>
      <trkpt lat="44.32769" lon="2.03136">
        <ele>393.8</ele>
        <time>2016-01-03T11:42:52Z</time>
      </trkpt>
      <trkpt lat="44.32761" lon="2.03152">
        <ele>397.5</ele>
        <time>2016-01-03T11:43:24Z</time>
      </trkpt>
      <trkpt lat="44.32757" lon="2.03152">
        <ele>397.2</ele>
        <time>2016-01-03T11:43:30Z</time>
      </trkpt>
      <trkpt lat="44.32753" lon="2.03152">
        <ele>397.1</ele>
        <time>2016-01-03T11:43:34Z</time>
      </trkpt>
      <trkpt lat="44.3275" lon="2.03154">
        <ele>397.2</ele>
        <time>2016-01-03T11:43:37Z</time>
      </trkpt>
      <trkpt lat="44.32746" lon="2.03156">
        <ele>397.6</ele>
        <time>2016-01-03T11:43:40Z</time>
      </trkpt>
      <trkpt lat="44.32743" lon="2.03158">
        <ele>397.8</ele>
        <time>2016-01-03T11:43:42Z</time>
      </trkpt>
      <trkpt lat="44.32741" lon="2.0316">
        <ele>398.3</ele>
        <time>2016-01-03T11:43:44Z</time>
      </trkpt>
      <trkpt lat="44.32738" lon="2.03163">
        <ele>398.6</ele>
        <time>2016-01-03T11:43:47Z</time>
      </trkpt>
      <trkpt lat="44.32735" lon="2.03165">
        <ele>399</ele>
        <time>2016-01-03T11:43:49Z</time>
      </trkpt>
      <trkpt lat="44.32733" lon="2.03169">
        <ele>399.9</ele>
        <time>2016-01-03T11:43:52Z</time>
      </trkpt>
      <trkpt lat="44.32732" lon="2.03173">
        <ele>400.8</ele>
        <time>2016-01-03T11:43:55Z</time>
      </trkpt>
      <trkpt lat="44.32729" lon="2.03174">
        <ele>400.8</ele>
        <time>2016-01-03T11:43:59Z</time>
      </trkpt>
      <trkpt lat="44.32726" lon="2.03176">
        <ele>401.1</ele>
        <time>2016-01-03T11:44:02Z</time>
      </trkpt>
      <trkpt lat="44.32724" lon="2.0318">
        <ele>401.6</ele>
        <time>2016-01-03T11:44:06Z</time>
      </trkpt>
      <trkpt lat="44.32722" lon="2.03183">
        <ele>402.2</ele>
        <time>2016-01-03T11:44:13Z</time>
      </trkpt>
      <trkpt lat="44.32719" lon="2.03187">
        <ele>402.9</ele>
        <time>2016-01-03T11:44:16Z</time>
      </trkpt>
      <trkpt lat="44.32716" lon="2.03189">
        <ele>403.2</ele>
        <time>2016-01-03T11:44:17Z</time>
      </trkpt>
      <trkpt lat="44.32714" lon="2.03192">
        <ele>403.8</ele>
        <time>2016-01-03T11:44:20Z</time>
      </trkpt>
      <trkpt lat="44.32712" lon="2.03196">
        <ele>404.4</ele>
        <time>2016-01-03T11:44:23Z</time>
      </trkpt>
      <trkpt lat="44.32709" lon="2.03198">
        <ele>404.6</ele>
        <time>2016-01-03T11:44:27Z</time>
      </trkpt>
      <trkpt lat="44.32707" lon="2.032">
        <ele>405.6</ele>
        <time>2016-01-03T11:44:31Z</time>
      </trkpt>
      <trkpt lat="44.32706" lon="2.03205">
        <ele>406.8</ele>
        <time>2016-01-03T11:44:36Z</time>
      </trkpt>
      <trkpt lat="44.32705" lon="2.03211">
        <ele>408.8</ele>
        <time>2016-01-03T11:44:43Z</time>
      </trkpt>
      <trkpt lat="44.32702" lon="2.03215">
        <ele>410.6</ele>
        <time>2016-01-03T11:44:52Z</time>
      </trkpt>
      <trkpt lat="44.327" lon="2.03218">
        <ele>412</ele>
        <time>2016-01-03T11:44:56Z</time>
      </trkpt>
      <trkpt lat="44.32694" lon="2.03231">
        <ele>417.2</ele>
        <time>2016-01-03T11:45:16Z</time>
      </trkpt>
      <trkpt lat="44.32691" lon="2.03232">
        <ele>418.2</ele>
        <time>2016-01-03T11:45:20Z</time>
      </trkpt>
      <trkpt lat="44.32689" lon="2.03235">
        <ele>419.3</ele>
        <time>2016-01-03T11:45:23Z</time>
      </trkpt>
      <trkpt lat="44.32686" lon="2.03236">
        <ele>420</ele>
        <time>2016-01-03T11:45:27Z</time>
      </trkpt>
      <trkpt lat="44.32684" lon="2.03238">
        <ele>421</ele>
        <time>2016-01-03T11:45:32Z</time>
      </trkpt>
      <trkpt lat="44.32682" lon="2.03241">
        <ele>422.2</ele>
        <time>2016-01-03T11:45:35Z</time>
      </trkpt>
      <trkpt lat="44.32678" lon="2.03252">
        <ele>425.7</ele>
        <time>2016-01-03T11:45:59Z</time>
      </trkpt>
      <trkpt lat="44.32676" lon="2.03255">
        <ele>426.6</ele>
        <time>2016-01-03T11:46:05Z</time>
      </trkpt>
      <trkpt lat="44.32672" lon="2.03257">
        <ele>427.6</ele>
        <time>2016-01-03T11:46:12Z</time>
      </trkpt>
      <trkpt lat="44.3267" lon="2.03261">
        <ele>428.6</ele>
        <time>2016-01-03T11:46:16Z</time>
      </trkpt>
      <trkpt lat="44.32668" lon="2.03264">
        <ele>429.6</ele>
        <time>2016-01-03T11:46:19Z</time>
      </trkpt>
      <trkpt lat="44.32663" lon="2.03272">
        <ele>431.6</ele>
        <time>2016-01-03T11:46:29Z</time>
      </trkpt>
      <trkpt lat="44.3266" lon="2.03275">
        <ele>432.6</ele>
        <time>2016-01-03T11:46:33Z</time>
      </trkpt>
      <trkpt lat="44.32659" lon="2.03279">
        <ele>433.4</ele>
        <time>2016-01-03T11:46:38Z</time>
      </trkpt>
      <trkpt lat="44.32656" lon="2.03281">
        <ele>434</ele>
        <time>2016-01-03T11:46:42Z</time>
      </trkpt>
      <trkpt lat="44.32653" lon="2.03283">
        <ele>434.5</ele>
        <time>2016-01-03T11:46:48Z</time>
      </trkpt>
      <trkpt lat="44.32651" lon="2.03287">
        <ele>435.2</ele>
        <time>2016-01-03T11:46:58Z</time>
      </trkpt>
      <trkpt lat="44.3265" lon="2.033">
        <ele>438</ele>
        <time>2016-01-03T11:47:11Z</time>
      </trkpt>
      <trkpt lat="44.32648" lon="2.03304">
        <ele>439</ele>
        <time>2016-01-03T11:47:14Z</time>
      </trkpt>
      <trkpt lat="44.32646" lon="2.03308">
        <ele>440</ele>
        <time>2016-01-03T11:47:18Z</time>
      </trkpt>
      <trkpt lat="44.32646" lon="2.03312">
        <ele>440.8</ele>
        <time>2016-01-03T11:47:22Z</time>
      </trkpt>
      <trkpt lat="44.32646" lon="2.03316">
        <ele>441.7</ele>
        <time>2016-01-03T11:47:25Z</time>
      </trkpt>
      <trkpt lat="44.32645" lon="2.03319">
        <ele>442.5</ele>
        <time>2016-01-03T11:47:28Z</time>
      </trkpt>
      <trkpt lat="44.32642" lon="2.03323">
        <ele>443.3</ele>
        <time>2016-01-03T11:47:32Z</time>
      </trkpt>
      <trkpt lat="44.32641" lon="2.03327">
        <ele>444.4</ele>
        <time>2016-01-03T11:47:44Z</time>
      </trkpt>
      <trkpt lat="44.3264" lon="2.03331">
        <ele>445.4</ele>
        <time>2016-01-03T11:47:48Z</time>
      </trkpt>
      <trkpt lat="44.32641" lon="2.03335">
        <ele>446.2</ele>
        <time>2016-01-03T11:47:56Z</time>
      </trkpt>
      <trkpt lat="44.32639" lon="2.03339">
        <ele>447.1</ele>
        <time>2016-01-03T11:47:59Z</time>
      </trkpt>
      <trkpt lat="44.32638" lon="2.03343">
        <ele>448</ele>
        <time>2016-01-03T11:48:02Z</time>
      </trkpt>
      <trkpt lat="44.32636" lon="2.03347">
        <ele>449.2</ele>
        <time>2016-01-03T11:48:08Z</time>
      </trkpt>
      <trkpt lat="44.32633" lon="2.03356">
        <ele>451.4</ele>
        <time>2016-01-03T11:48:16Z</time>
      </trkpt>
      <trkpt lat="44.32631" lon="2.03361">
        <ele>452.4</ele>
        <time>2016-01-03T11:48:19Z</time>
      </trkpt>
      <trkpt lat="44.32632" lon="2.03366">
        <ele>453.6</ele>
        <time>2016-01-03T11:48:24Z</time>
      </trkpt>
      <trkpt lat="44.3263" lon="2.03369">
        <ele>454.3</ele>
        <time>2016-01-03T11:48:26Z</time>
      </trkpt>
      <trkpt lat="44.32631" lon="2.03373">
        <ele>455.2</ele>
        <time>2016-01-03T11:48:32Z</time>
      </trkpt>
      <trkpt lat="44.32628" lon="2.03374">
        <ele>455.6</ele>
        <time>2016-01-03T11:48:46Z</time>
      </trkpt>
      <trkpt lat="44.32626" lon="2.03378">
        <ele>456.3</ele>
        <time>2016-01-03T11:48:49Z</time>
      </trkpt>
      <trkpt lat="44.32627" lon="2.03381">
        <ele>456.9</ele>
        <time>2016-01-03T11:48:51Z</time>
      </trkpt>
      <trkpt lat="44.32629" lon="2.03383">
        <ele>457.1</ele>
        <time>2016-01-03T11:48:53Z</time>
      </trkpt>
      <trkpt lat="44.32626" lon="2.03389">
        <ele>458.1</ele>
        <time>2016-01-03T11:48:54Z</time>
      </trkpt>
      <trkpt lat="44.32626" lon="2.03393">
        <ele>458.8</ele>
        <time>2016-01-03T11:48:56Z</time>
      </trkpt>
      <trkpt lat="44.32625" lon="2.03397">
        <ele>459.5</ele>
        <time>2016-01-03T11:49:01Z</time>
      </trkpt>
      <trkpt lat="44.32632" lon="2.03412">
        <ele>461.3</ele>
        <time>2016-01-03T11:49:28Z</time>
      </trkpt>
      <trkpt lat="44.32635" lon="2.03412">
        <ele>461.1</ele>
        <time>2016-01-03T11:49:30Z</time>
      </trkpt>
      <trkpt lat="44.32637" lon="2.03414">
        <ele>461.3</ele>
        <time>2016-01-03T11:49:35Z</time>
      </trkpt>
      <trkpt lat="44.32637" lon="2.03418">
        <ele>461.9</ele>
        <time>2016-01-03T11:49:39Z</time>
      </trkpt>
      <trkpt lat="44.32638" lon="2.03422">
        <ele>462.4</ele>
        <time>2016-01-03T11:49:43Z</time>
      </trkpt>
      <trkpt lat="44.32638" lon="2.03426">
        <ele>463</ele>
        <time>2016-01-03T11:49:46Z</time>
      </trkpt>
      <trkpt lat="44.32642" lon="2.03437">
        <ele>464.4</ele>
        <time>2016-01-03T11:50:02Z</time>
      </trkpt>
      <trkpt lat="44.32644" lon="2.03441">
        <ele>464.8</ele>
        <time>2016-01-03T11:50:06Z</time>
      </trkpt>
      <trkpt lat="44.32646" lon="2.03443">
        <ele>464.9</ele>
        <time>2016-01-03T11:50:10Z</time>
      </trkpt>
      <trkpt lat="44.32649" lon="2.03445">
        <ele>465.1</ele>
        <time>2016-01-03T11:50:14Z</time>
      </trkpt>
      <trkpt lat="44.3265" lon="2.03448">
        <ele>465.4</ele>
        <time>2016-01-03T11:50:18Z</time>
      </trkpt>
      <trkpt lat="44.32652" lon="2.03452">
        <ele>465.8</ele>
        <time>2016-01-03T11:50:24Z</time>
      </trkpt>
      <trkpt lat="44.32651" lon="2.03456">
        <ele>466.4</ele>
        <time>2016-01-03T11:50:28Z</time>
      </trkpt>
      <trkpt lat="44.3265" lon="2.0346">
        <ele>467</ele>
        <time>2016-01-03T11:50:32Z</time>
      </trkpt>
      <trkpt lat="44.32652" lon="2.03463">
        <ele>467.3</ele>
        <time>2016-01-03T11:50:37Z</time>
      </trkpt>
      <trkpt lat="44.32654" lon="2.03466">
        <ele>467.4</ele>
        <time>2016-01-03T11:50:42Z</time>
      </trkpt>
      <trkpt lat="44.32653" lon="2.0347">
        <ele>467.9</ele>
        <time>2016-01-03T11:50:46Z</time>
      </trkpt>
      <trkpt lat="44.32651" lon="2.03473">
        <ele>468.4</ele>
        <time>2016-01-03T11:50:49Z</time>
      </trkpt>
      <trkpt lat="44.32651" lon="2.03477">
        <ele>468.9</ele>
        <time>2016-01-03T11:50:53Z</time>
      </trkpt>
      <trkpt lat="44.32649" lon="2.03483">
        <ele>469.6</ele>
        <time>2016-01-03T11:50:56Z</time>
      </trkpt>
      <trkpt lat="44.32648" lon="2.03487">
        <ele>470.3</ele>
        <time>2016-01-03T11:50:59Z</time>
      </trkpt>
      <trkpt lat="44.32647" lon="2.03491">
        <ele>470.8</ele>
        <time>2016-01-03T11:51:01Z</time>
      </trkpt>
      <trkpt lat="44.32645" lon="2.03495">
        <ele>471.4</ele>
        <time>2016-01-03T11:51:04Z</time>
      </trkpt>
      <trkpt lat="44.32643" lon="2.03497">
        <ele>471.9</ele>
        <time>2016-01-03T11:51:08Z</time>
      </trkpt>
      <trkpt lat="44.32652" lon="2.03499">
        <ele>471.1</ele>
        <time>2016-01-03T11:52:08Z</time>
      </trkpt>
      <trkpt lat="44.32656" lon="2.03496">
        <ele>470.4</ele>
        <time>2016-01-03T11:52:10Z</time>
      </trkpt>
      <trkpt lat="44.32662" lon="2.03492">
        <ele>469.4</ele>
        <time>2016-01-03T11:52:12Z</time>
      </trkpt>
      <trkpt lat="44.32665" lon="2.03489">
        <ele>468.8</ele>
        <time>2016-01-03T11:52:13Z</time>
      </trkpt>
      <trkpt lat="44.32667" lon="2.03485">
        <ele>468.2</ele>
        <time>2016-01-03T11:52:14Z</time>
      </trkpt>
      <trkpt lat="44.3267" lon="2.03483">
        <ele>467.7</ele>
        <time>2016-01-03T11:52:15Z</time>
      </trkpt>
      <trkpt lat="44.32672" lon="2.03481">
        <ele>467.3</ele>
        <time>2016-01-03T11:52:16Z</time>
      </trkpt>
      <trkpt lat="44.32677" lon="2.03477">
        <ele>466.5</ele>
        <time>2016-01-03T11:52:17Z</time>
      </trkpt>
      <trkpt lat="44.3268" lon="2.03473">
        <ele>465.7</ele>
        <time>2016-01-03T11:52:18Z</time>
      </trkpt>
      <trkpt lat="44.32685" lon="2.03468">
        <ele>464.9</ele>
        <time>2016-01-03T11:52:19Z</time>
      </trkpt>
      <trkpt lat="44.32689" lon="2.03464">
        <ele>464.1</ele>
        <time>2016-01-03T11:52:20Z</time>
      </trkpt>
      <trkpt lat="44.32693" lon="2.03459">
        <ele>463.4</ele>
        <time>2016-01-03T11:52:21Z</time>
      </trkpt>
      <trkpt lat="44.32698" lon="2.03455">
        <ele>462.4</ele>
        <time>2016-01-03T11:52:22Z</time>
      </trkpt>
      <trkpt lat="44.32703" lon="2.03448">
        <ele>461.2</ele>
        <time>2016-01-03T11:52:23Z</time>
      </trkpt>
      <trkpt lat="44.32708" lon="2.03442">
        <ele>460.1</ele>
        <time>2016-01-03T11:52:24Z</time>
      </trkpt>
      <trkpt lat="44.32713" lon="2.03436">
        <ele>458.8</ele>
        <time>2016-01-03T11:52:25Z</time>
      </trkpt>
      <trkpt lat="44.3272" lon="2.03433">
        <ele>457.7</ele>
        <time>2016-01-03T11:52:26Z</time>
      </trkpt>
      <trkpt lat="44.32726" lon="2.0343">
        <ele>456.8</ele>
        <time>2016-01-03T11:52:27Z</time>
      </trkpt>
      <trkpt lat="44.32732" lon="2.03427">
        <ele>455.9</ele>
        <time>2016-01-03T11:52:28Z</time>
      </trkpt>
      <trkpt lat="44.32737" lon="2.03424">
        <ele>455.1</ele>
        <time>2016-01-03T11:52:29Z</time>
      </trkpt>
      <trkpt lat="44.32742" lon="2.03421">
        <ele>454.3</ele>
        <time>2016-01-03T11:52:30Z</time>
      </trkpt>
      <trkpt lat="44.32748" lon="2.03417">
        <ele>453.4</ele>
        <time>2016-01-03T11:52:31Z</time>
      </trkpt>
      <trkpt lat="44.32753" lon="2.03413">
        <ele>452.7</ele>
        <time>2016-01-03T11:52:32Z</time>
      </trkpt>
      <trkpt lat="44.32757" lon="2.03408">
        <ele>452</ele>
        <time>2016-01-03T11:52:33Z</time>
      </trkpt>
      <trkpt lat="44.32761" lon="2.03401">
        <ele>451.2</ele>
        <time>2016-01-03T11:52:34Z</time>
      </trkpt>
      <trkpt lat="44.32765" lon="2.03396">
        <ele>450.6</ele>
        <time>2016-01-03T11:52:35Z</time>
      </trkpt>
      <trkpt lat="44.32768" lon="2.0339">
        <ele>450</ele>
        <time>2016-01-03T11:52:36Z</time>
      </trkpt>
      <trkpt lat="44.3277" lon="2.03384">
        <ele>449.6</ele>
        <time>2016-01-03T11:52:37Z</time>
      </trkpt>
      <trkpt lat="44.32772" lon="2.03379">
        <ele>449.2</ele>
        <time>2016-01-03T11:52:38Z</time>
      </trkpt>
      <trkpt lat="44.32774" lon="2.03373">
        <ele>448.6</ele>
        <time>2016-01-03T11:52:39Z</time>
      </trkpt>
      <trkpt lat="44.32776" lon="2.0337">
        <ele>447.9</ele>
        <time>2016-01-03T11:52:40Z</time>
      </trkpt>
      <trkpt lat="44.3278" lon="2.0337">
        <ele>447.7</ele>
        <time>2016-01-03T11:52:41Z</time>
      </trkpt>
      <trkpt lat="44.32785" lon="2.03369">
        <ele>447.4</ele>
        <time>2016-01-03T11:52:42Z</time>
      </trkpt>
      <trkpt lat="44.3279" lon="2.03368">
        <ele>447</ele>
        <time>2016-01-03T11:52:43Z</time>
      </trkpt>
      <trkpt lat="44.32794" lon="2.03364">
        <ele>445.9</ele>
        <time>2016-01-03T11:52:44Z</time>
      </trkpt>
      <trkpt lat="44.32798" lon="2.03359">
        <ele>444.6</ele>
        <time>2016-01-03T11:52:45Z</time>
      </trkpt>
      <trkpt lat="44.32802" lon="2.03354">
        <ele>443.4</ele>
        <time>2016-01-03T11:52:46Z</time>
      </trkpt>
      <trkpt lat="44.32804" lon="2.03351">
        <ele>442.6</ele>
        <time>2016-01-03T11:52:47Z</time>
      </trkpt>
      <trkpt lat="44.32808" lon="2.03349">
        <ele>441.8</ele>
        <time>2016-01-03T11:52:48Z</time>
      </trkpt>
      <trkpt lat="44.32811" lon="2.03349">
        <ele>441.4</ele>
        <time>2016-01-03T11:52:49Z</time>
      </trkpt>
      <trkpt lat="44.32816" lon="2.03354">
        <ele>441.4</ele>
        <time>2016-01-03T11:52:51Z</time>
      </trkpt>
      <trkpt lat="44.32819" lon="2.03356">
        <ele>441.3</ele>
        <time>2016-01-03T11:52:52Z</time>
      </trkpt>
      <trkpt lat="44.32823" lon="2.03359">
        <ele>441.1</ele>
        <time>2016-01-03T11:52:53Z</time>
      </trkpt>
      <trkpt lat="44.32827" lon="2.03361">
        <ele>440.8</ele>
        <time>2016-01-03T11:52:54Z</time>
      </trkpt>
      <trkpt lat="44.32832" lon="2.03361">
        <ele>440.1</ele>
        <time>2016-01-03T11:52:55Z</time>
      </trkpt>
      <trkpt lat="44.32835" lon="2.03358">
        <ele>439.3</ele>
        <time>2016-01-03T11:52:56Z</time>
      </trkpt>
      <trkpt lat="44.32838" lon="2.03356">
        <ele>438.7</ele>
        <time>2016-01-03T11:52:57Z</time>
      </trkpt>
      <trkpt lat="44.32843" lon="2.03355">
        <ele>437.9</ele>
        <time>2016-01-03T11:52:59Z</time>
      </trkpt>
      <trkpt lat="44.32848" lon="2.03349">
        <ele>436.7</ele>
        <time>2016-01-03T11:53:01Z</time>
      </trkpt>
      <trkpt lat="44.32851" lon="2.03343">
        <ele>435.7</ele>
        <time>2016-01-03T11:53:02Z</time>
      </trkpt>
      <trkpt lat="44.32854" lon="2.03338">
        <ele>434.8</ele>
        <time>2016-01-03T11:53:03Z</time>
      </trkpt>
      <trkpt lat="44.32857" lon="2.03336">
        <ele>434.3</ele>
        <time>2016-01-03T11:53:04Z</time>
      </trkpt>
      <trkpt lat="44.3286" lon="2.03334">
        <ele>433.8</ele>
        <time>2016-01-03T11:53:05Z</time>
      </trkpt>
      <trkpt lat="44.32863" lon="2.03333">
        <ele>433.4</ele>
        <time>2016-01-03T11:53:06Z</time>
      </trkpt>
      <trkpt lat="44.32868" lon="2.03334">
        <ele>432.9</ele>
        <time>2016-01-03T11:53:08Z</time>
      </trkpt>
      <trkpt lat="44.3287" lon="2.03335">
        <ele>432.7</ele>
        <time>2016-01-03T11:53:09Z</time>
      </trkpt>
      <trkpt lat="44.32874" lon="2.03335">
        <ele>432.3</ele>
        <time>2016-01-03T11:53:10Z</time>
      </trkpt>
      <trkpt lat="44.32877" lon="2.03336">
        <ele>431.9</ele>
        <time>2016-01-03T11:53:11Z</time>
      </trkpt>
      <trkpt lat="44.32881" lon="2.03338">
        <ele>431.1</ele>
        <time>2016-01-03T11:53:13Z</time>
      </trkpt>
      <trkpt lat="44.32883" lon="2.03341">
        <ele>430.8</ele>
        <time>2016-01-03T11:53:15Z</time>
      </trkpt>
      <trkpt lat="44.32881" lon="2.03344">
        <ele>431.6</ele>
        <time>2016-01-03T11:53:18Z</time>
      </trkpt>
      <trkpt lat="44.32879" lon="2.03349">
        <ele>432.2</ele>
        <time>2016-01-03T11:53:20Z</time>
      </trkpt>
      <trkpt lat="44.32877" lon="2.03356">
        <ele>433.1</ele>
        <time>2016-01-03T11:53:22Z</time>
      </trkpt>
      <trkpt lat="44.32875" lon="2.03362">
        <ele>434.1</ele>
        <time>2016-01-03T11:53:23Z</time>
      </trkpt>
      <trkpt lat="44.32874" lon="2.03368">
        <ele>434.7</ele>
        <time>2016-01-03T11:53:25Z</time>
      </trkpt>
      <trkpt lat="44.32871" lon="2.03372">
        <ele>435.4</ele>
        <time>2016-01-03T11:53:26Z</time>
      </trkpt>
      <trkpt lat="44.3287" lon="2.03376">
        <ele>435.8</ele>
        <time>2016-01-03T11:53:27Z</time>
      </trkpt>
      <trkpt lat="44.32867" lon="2.0338">
        <ele>435.8</ele>
        <time>2016-01-03T11:53:28Z</time>
      </trkpt>
      <trkpt lat="44.32864" lon="2.03386">
        <ele>435.8</ele>
        <time>2016-01-03T11:53:29Z</time>
      </trkpt>
      <trkpt lat="44.32863" lon="2.03393">
        <ele>435.5</ele>
        <time>2016-01-03T11:53:30Z</time>
      </trkpt>
      <trkpt lat="44.3286" lon="2.03399">
        <ele>435.6</ele>
        <time>2016-01-03T11:53:31Z</time>
      </trkpt>
      <trkpt lat="44.32858" lon="2.03405">
        <ele>435.6</ele>
        <time>2016-01-03T11:53:32Z</time>
      </trkpt>
      <trkpt lat="44.32855" lon="2.0341">
        <ele>435.9</ele>
        <time>2016-01-03T11:53:33Z</time>
      </trkpt>
      <trkpt lat="44.32852" lon="2.03416">
        <ele>436.1</ele>
        <time>2016-01-03T11:53:34Z</time>
      </trkpt>
      <trkpt lat="44.3285" lon="2.03421">
        <ele>436.4</ele>
        <time>2016-01-03T11:53:35Z</time>
      </trkpt>
      <trkpt lat="44.32847" lon="2.03426">
        <ele>436.7</ele>
        <time>2016-01-03T11:53:36Z</time>
      </trkpt>
      <trkpt lat="44.32845" lon="2.03432">
        <ele>436.9</ele>
        <time>2016-01-03T11:53:37Z</time>
      </trkpt>
      <trkpt lat="44.32843" lon="2.03438">
        <ele>437.1</ele>
        <time>2016-01-03T11:53:38Z</time>
      </trkpt>
      <trkpt lat="44.32842" lon="2.03444">
        <ele>437.2</ele>
        <time>2016-01-03T11:53:39Z</time>
      </trkpt>
      <trkpt lat="44.3284" lon="2.03449">
        <ele>437.5</ele>
        <time>2016-01-03T11:53:40Z</time>
      </trkpt>
      <trkpt lat="44.32837" lon="2.03454">
        <ele>438</ele>
        <time>2016-01-03T11:53:41Z</time>
      </trkpt>
      <trkpt lat="44.32835" lon="2.03459">
        <ele>438.4</ele>
        <time>2016-01-03T11:53:42Z</time>
      </trkpt>
      <trkpt lat="44.32833" lon="2.03464">
        <ele>438.1</ele>
        <time>2016-01-03T11:53:43Z</time>
      </trkpt>
      <trkpt lat="44.32831" lon="2.0347">
        <ele>437.4</ele>
        <time>2016-01-03T11:53:44Z</time>
      </trkpt>
      <trkpt lat="44.32829" lon="2.03476">
        <ele>437</ele>
        <time>2016-01-03T11:53:45Z</time>
      </trkpt>
      <trkpt lat="44.32826" lon="2.03482">
        <ele>436.7</ele>
        <time>2016-01-03T11:53:46Z</time>
      </trkpt>
      <trkpt lat="44.32823" lon="2.03488">
        <ele>436.7</ele>
        <time>2016-01-03T11:53:47Z</time>
      </trkpt>
      <trkpt lat="44.3282" lon="2.03495">
        <ele>436.5</ele>
        <time>2016-01-03T11:53:48Z</time>
      </trkpt>
      <trkpt lat="44.32818" lon="2.03502">
        <ele>436.2</ele>
        <time>2016-01-03T11:53:49Z</time>
      </trkpt>
      <trkpt lat="44.32817" lon="2.03507">
        <ele>435.7</ele>
        <time>2016-01-03T11:53:50Z</time>
      </trkpt>
      <trkpt lat="44.32815" lon="2.03511">
        <ele>435.8</ele>
        <time>2016-01-03T11:53:51Z</time>
      </trkpt>
      <trkpt lat="44.32813" lon="2.03517">
        <ele>435.5</ele>
        <time>2016-01-03T11:53:53Z</time>
      </trkpt>
      <trkpt lat="44.32813" lon="2.03525">
        <ele>434.6</ele>
        <time>2016-01-03T11:53:55Z</time>
      </trkpt>
      <trkpt lat="44.32812" lon="2.03531">
        <ele>433.8</ele>
        <time>2016-01-03T11:53:56Z</time>
      </trkpt>
      <trkpt lat="44.32809" lon="2.03535">
        <ele>434.6</ele>
        <time>2016-01-03T11:53:58Z</time>
      </trkpt>
      <trkpt lat="44.32807" lon="2.03539">
        <ele>435</ele>
        <time>2016-01-03T11:54:02Z</time>
      </trkpt>
      <trkpt lat="44.32804" lon="2.03542">
        <ele>435.8</ele>
        <time>2016-01-03T11:54:05Z</time>
      </trkpt>
      <trkpt lat="44.32801" lon="2.03547">
        <ele>436.5</ele>
        <time>2016-01-03T11:54:07Z</time>
      </trkpt>
      <trkpt lat="44.32802" lon="2.03555">
        <ele>435.8</ele>
        <time>2016-01-03T11:54:09Z</time>
      </trkpt>
      <trkpt lat="44.32804" lon="2.03558">
        <ele>434.6</ele>
        <time>2016-01-03T11:54:10Z</time>
      </trkpt>
      <trkpt lat="44.32824" lon="2.03588">
        <ele>423</ele>
        <time>2016-01-03T11:54:18Z</time>
      </trkpt>
      <trkpt lat="44.32829" lon="2.03594">
        <ele>420</ele>
        <time>2016-01-03T11:54:19Z</time>
      </trkpt>
      <trkpt lat="44.32832" lon="2.03599">
        <ele>417.9</ele>
        <time>2016-01-03T11:54:20Z</time>
      </trkpt>
      <trkpt lat="44.32834" lon="2.03603">
        <ele>416.7</ele>
        <time>2016-01-03T11:54:21Z</time>
      </trkpt>
      <trkpt lat="44.32833" lon="2.03608">
        <ele>416.7</ele>
        <time>2016-01-03T11:54:22Z</time>
      </trkpt>
      <trkpt lat="44.32833" lon="2.03613">
        <ele>415.8</ele>
        <time>2016-01-03T11:54:23Z</time>
      </trkpt>
      <trkpt lat="44.32834" lon="2.0362">
        <ele>414.8</ele>
        <time>2016-01-03T11:54:24Z</time>
      </trkpt>
      <trkpt lat="44.32833" lon="2.03628">
        <ele>414.5</ele>
        <time>2016-01-03T11:54:25Z</time>
      </trkpt>
      <trkpt lat="44.32832" lon="2.03635">
        <ele>414.6</ele>
        <time>2016-01-03T11:54:26Z</time>
      </trkpt>
      <trkpt lat="44.3283" lon="2.03641">
        <ele>415.1</ele>
        <time>2016-01-03T11:54:27Z</time>
      </trkpt>
      <trkpt lat="44.32827" lon="2.03647">
        <ele>416.4</ele>
        <time>2016-01-03T11:54:28Z</time>
      </trkpt>
      <trkpt lat="44.32826" lon="2.03653">
        <ele>416.6</ele>
        <time>2016-01-03T11:54:29Z</time>
      </trkpt>
      <trkpt lat="44.32824" lon="2.03659">
        <ele>417.3</ele>
        <time>2016-01-03T11:54:30Z</time>
      </trkpt>
      <trkpt lat="44.3282" lon="2.03663">
        <ele>418.7</ele>
        <time>2016-01-03T11:54:31Z</time>
      </trkpt>
      <trkpt lat="44.32818" lon="2.03666">
        <ele>419.7</ele>
        <time>2016-01-03T11:54:32Z</time>
      </trkpt>
      <trkpt lat="44.32814" lon="2.03671">
        <ele>421.6</ele>
        <time>2016-01-03T11:54:34Z</time>
      </trkpt>
      <trkpt lat="44.3281" lon="2.03672">
        <ele>423.1</ele>
        <time>2016-01-03T11:54:35Z</time>
      </trkpt>
      <trkpt lat="44.32807" lon="2.03676">
        <ele>424.7</ele>
        <time>2016-01-03T11:54:37Z</time>
      </trkpt>
      <trkpt lat="44.32806" lon="2.03683">
        <ele>424.7</ele>
        <time>2016-01-03T11:54:39Z</time>
      </trkpt>
      <trkpt lat="44.32803" lon="2.03687">
        <ele>425.7</ele>
        <time>2016-01-03T11:54:41Z</time>
      </trkpt>
      <trkpt lat="44.32801" lon="2.03691">
        <ele>426.5</ele>
        <time>2016-01-03T11:54:43Z</time>
      </trkpt>
      <trkpt lat="44.32801" lon="2.03697">
        <ele>426</ele>
        <time>2016-01-03T11:54:46Z</time>
      </trkpt>
      <trkpt lat="44.32785" lon="2.03696">
        <ele>433.9</ele>
        <time>2016-01-03T11:54:48Z</time>
      </trkpt>
      <trkpt lat="44.32784" lon="2.037">
        <ele>434.5</ele>
        <time>2016-01-03T11:54:50Z</time>
      </trkpt>
      <trkpt lat="44.3278" lon="2.03703">
        <ele>436.2</ele>
        <time>2016-01-03T11:54:51Z</time>
      </trkpt>
      <trkpt lat="44.32775" lon="2.03702">
        <ele>438.4</ele>
        <time>2016-01-03T11:54:52Z</time>
      </trkpt>
      <trkpt lat="44.32779" lon="2.03705">
        <ele>436.2</ele>
        <time>2016-01-03T11:54:53Z</time>
      </trkpt>
      <trkpt lat="44.32783" lon="2.03711">
        <ele>433.9</ele>
        <time>2016-01-03T11:54:54Z</time>
      </trkpt>
      <trkpt lat="44.3279" lon="2.03721">
        <ele>430.4</ele>
        <time>2016-01-03T11:54:55Z</time>
      </trkpt>
      <trkpt lat="44.32791" lon="2.03727">
        <ele>429.8</ele>
        <time>2016-01-03T11:54:56Z</time>
      </trkpt>
      <trkpt lat="44.32792" lon="2.03732">
        <ele>429.3</ele>
        <time>2016-01-03T11:54:58Z</time>
      </trkpt>
      <trkpt lat="44.32794" lon="2.03738">
        <ele>428.1</ele>
        <time>2016-01-03T11:55:00Z</time>
      </trkpt>
      <trkpt lat="44.32795" lon="2.03742">
        <ele>427.7</ele>
        <time>2016-01-03T11:55:02Z</time>
      </trkpt>
      <trkpt lat="44.32797" lon="2.03746">
        <ele>426.4</ele>
        <time>2016-01-03T11:55:04Z</time>
      </trkpt>
      <trkpt lat="44.32845" lon="2.03816">
        <ele>408.2</ele>
        <time>2016-01-03T11:55:50Z</time>
      </trkpt>
      <trkpt lat="44.32848" lon="2.03818">
        <ele>407.3</ele>
        <time>2016-01-03T11:55:51Z</time>
      </trkpt>
      <trkpt lat="44.32843" lon="2.0382">
        <ele>409.9</ele>
        <time>2016-01-03T11:55:54Z</time>
      </trkpt>
      <trkpt lat="44.32845" lon="2.03823">
        <ele>409.6</ele>
        <time>2016-01-03T11:55:59Z</time>
      </trkpt>
      <trkpt lat="44.32842" lon="2.03824">
        <ele>411.2</ele>
        <time>2016-01-03T11:56:06Z</time>
      </trkpt>
      <trkpt lat="44.32842" lon="2.03828">
        <ele>412.1</ele>
        <time>2016-01-03T11:56:11Z</time>
      </trkpt>
      <trkpt lat="44.32856" lon="2.03856">
        <ele>411.5</ele>
        <time>2016-01-03T11:56:24Z</time>
      </trkpt>
      <trkpt lat="44.32858" lon="2.03862">
        <ele>411.5</ele>
        <time>2016-01-03T11:56:26Z</time>
      </trkpt>
      <trkpt lat="44.3286" lon="2.03867">
        <ele>411.6</ele>
        <time>2016-01-03T11:56:28Z</time>
      </trkpt>
      <trkpt lat="44.32862" lon="2.03871">
        <ele>411.9</ele>
        <time>2016-01-03T11:56:30Z</time>
      </trkpt>
      <trkpt lat="44.32866" lon="2.03876">
        <ele>411</ele>
        <time>2016-01-03T11:56:32Z</time>
      </trkpt>
      <trkpt lat="44.32869" lon="2.03882">
        <ele>410.3</ele>
        <time>2016-01-03T11:56:34Z</time>
      </trkpt>
      <trkpt lat="44.3287" lon="2.03886">
        <ele>410.2</ele>
        <time>2016-01-03T11:56:36Z</time>
      </trkpt>
      <trkpt lat="44.32871" lon="2.0389">
        <ele>409.9</ele>
        <time>2016-01-03T11:56:38Z</time>
      </trkpt>
      <trkpt lat="44.32874" lon="2.03893">
        <ele>409</ele>
        <time>2016-01-03T11:56:40Z</time>
      </trkpt>
      <trkpt lat="44.32878" lon="2.03896">
        <ele>407.3</ele>
        <time>2016-01-03T11:56:42Z</time>
      </trkpt>
      <trkpt lat="44.32881" lon="2.03894">
        <ele>405.9</ele>
        <time>2016-01-03T11:56:44Z</time>
      </trkpt>
      <trkpt lat="44.32885" lon="2.03895">
        <ele>404.5</ele>
        <time>2016-01-03T11:56:46Z</time>
      </trkpt>
      <trkpt lat="44.32888" lon="2.03894">
        <ele>403.2</ele>
        <time>2016-01-03T11:56:47Z</time>
      </trkpt>
      <trkpt lat="44.32893" lon="2.03895">
        <ele>400.9</ele>
        <time>2016-01-03T11:56:49Z</time>
      </trkpt>
      <trkpt lat="44.32897" lon="2.03893">
        <ele>399.3</ele>
        <time>2016-01-03T11:56:50Z</time>
      </trkpt>
      <trkpt lat="44.329" lon="2.03891">
        <ele>397.7</ele>
        <time>2016-01-03T11:56:51Z</time>
      </trkpt>
      <trkpt lat="44.32903" lon="2.03889">
        <ele>396.2</ele>
        <time>2016-01-03T11:56:52Z</time>
      </trkpt>
      <trkpt lat="44.32907" lon="2.0389">
        <ele>394.8</ele>
        <time>2016-01-03T11:56:54Z</time>
      </trkpt>
      <trkpt lat="44.32912" lon="2.03892">
        <ele>392.7</ele>
        <time>2016-01-03T11:56:56Z</time>
      </trkpt>
      <trkpt lat="44.32915" lon="2.03892">
        <ele>391.4</ele>
        <time>2016-01-03T11:56:57Z</time>
      </trkpt>
      <trkpt lat="44.3292" lon="2.03891">
        <ele>389.2</ele>
        <time>2016-01-03T11:56:59Z</time>
      </trkpt>
      <trkpt lat="44.32923" lon="2.03892">
        <ele>387.9</ele>
        <time>2016-01-03T11:57:00Z</time>
      </trkpt>
      <trkpt lat="44.32926" lon="2.03893">
        <ele>386.8</ele>
        <time>2016-01-03T11:57:01Z</time>
      </trkpt>
      <trkpt lat="44.3293" lon="2.03894">
        <ele>385.2</ele>
        <time>2016-01-03T11:57:02Z</time>
      </trkpt>
      <trkpt lat="44.32933" lon="2.03895">
        <ele>383.9</ele>
        <time>2016-01-03T11:57:03Z</time>
      </trkpt>
      <trkpt lat="44.32938" lon="2.03895">
        <ele>381.7</ele>
        <time>2016-01-03T11:57:05Z</time>
      </trkpt>
      <trkpt lat="44.32942" lon="2.03895">
        <ele>380</ele>
        <time>2016-01-03T11:57:07Z</time>
      </trkpt>
      <trkpt lat="44.32946" lon="2.03894">
        <ele>378.3</ele>
        <time>2016-01-03T11:57:09Z</time>
      </trkpt>
      <trkpt lat="44.32949" lon="2.03891">
        <ele>376.7</ele>
        <time>2016-01-03T11:57:12Z</time>
      </trkpt>
      <trkpt lat="44.32953" lon="2.03892">
        <ele>375</ele>
        <time>2016-01-03T11:57:14Z</time>
      </trkpt>
      <trkpt lat="44.32957" lon="2.03891">
        <ele>373.3</ele>
        <time>2016-01-03T11:57:16Z</time>
      </trkpt>
      <trkpt lat="44.32961" lon="2.03891">
        <ele>371.6</ele>
        <time>2016-01-03T11:57:18Z</time>
      </trkpt>
      <trkpt lat="44.32968" lon="2.03892">
        <ele>369.2</ele>
        <time>2016-01-03T11:57:20Z</time>
      </trkpt>
      <trkpt lat="44.32972" lon="2.03896">
        <ele>367.7</ele>
        <time>2016-01-03T11:57:21Z</time>
      </trkpt>
      <trkpt lat="44.32975" lon="2.03898">
        <ele>366.7</ele>
        <time>2016-01-03T11:57:28Z</time>
      </trkpt>
      <trkpt lat="44.32979" lon="2.03898">
        <ele>365.3</ele>
        <time>2016-01-03T11:57:29Z</time>
      </trkpt>
      <trkpt lat="44.32982" lon="2.03898">
        <ele>364</ele>
        <time>2016-01-03T11:57:30Z</time>
      </trkpt>
      <trkpt lat="44.32987" lon="2.03897">
        <ele>362.1</ele>
        <time>2016-01-03T11:57:32Z</time>
      </trkpt>
      <trkpt lat="44.32989" lon="2.03897">
        <ele>361</ele>
        <time>2016-01-03T11:57:34Z</time>
      </trkpt>
      <trkpt lat="44.32993" lon="2.03899">
        <ele>359.9</ele>
        <time>2016-01-03T11:57:36Z</time>
      </trkpt>
      <trkpt lat="44.32996" lon="2.03899">
        <ele>358.8</ele>
        <time>2016-01-03T11:57:38Z</time>
      </trkpt>
      <trkpt lat="44.32999" lon="2.039">
        <ele>357.4</ele>
        <time>2016-01-03T11:57:41Z</time>
      </trkpt>
      <trkpt lat="44.33004" lon="2.03899">
        <ele>355.5</ele>
        <time>2016-01-03T11:57:43Z</time>
      </trkpt>
      <trkpt lat="44.33007" lon="2.03897">
        <ele>354.2</ele>
        <time>2016-01-03T11:57:44Z</time>
      </trkpt>
      <trkpt lat="44.33012" lon="2.03894">
        <ele>352.1</ele>
        <time>2016-01-03T11:57:46Z</time>
      </trkpt>
      <trkpt lat="44.33015" lon="2.03894">
        <ele>350.7</ele>
        <time>2016-01-03T11:57:48Z</time>
      </trkpt>
      <trkpt lat="44.33018" lon="2.03894">
        <ele>349.6</ele>
        <time>2016-01-03T11:57:50Z</time>
      </trkpt>
      <trkpt lat="44.33022" lon="2.03896">
        <ele>348</ele>
        <time>2016-01-03T11:57:52Z</time>
      </trkpt>
      <trkpt lat="44.33026" lon="2.03899">
        <ele>346.9</ele>
        <time>2016-01-03T11:57:57Z</time>
      </trkpt>
      <trkpt lat="44.33031" lon="2.039">
        <ele>345.1</ele>
        <time>2016-01-03T11:57:59Z</time>
      </trkpt>
      <trkpt lat="44.33034" lon="2.03899">
        <ele>343.9</ele>
        <time>2016-01-03T11:58:00Z</time>
      </trkpt>
      <trkpt lat="44.33037" lon="2.03898">
        <ele>342.7</ele>
        <time>2016-01-03T11:58:01Z</time>
      </trkpt>
      <trkpt lat="44.3304" lon="2.03898">
        <ele>341.5</ele>
        <time>2016-01-03T11:58:02Z</time>
      </trkpt>
      <trkpt lat="44.33043" lon="2.03898">
        <ele>340.5</ele>
        <time>2016-01-03T11:58:03Z</time>
      </trkpt>
      <trkpt lat="44.33048" lon="2.039">
        <ele>339.4</ele>
        <time>2016-01-03T11:58:05Z</time>
      </trkpt>
      <trkpt lat="44.33052" lon="2.03901">
        <ele>338.4</ele>
        <time>2016-01-03T11:58:07Z</time>
      </trkpt>
      <trkpt lat="44.33055" lon="2.03901">
        <ele>337.7</ele>
        <time>2016-01-03T11:58:08Z</time>
      </trkpt>
      <trkpt lat="44.33058" lon="2.03904">
        <ele>337.1</ele>
        <time>2016-01-03T11:58:10Z</time>
      </trkpt>
      <trkpt lat="44.33062" lon="2.03904">
        <ele>336.1</ele>
        <time>2016-01-03T11:58:12Z</time>
      </trkpt>
      <trkpt lat="44.33065" lon="2.03903">
        <ele>335.2</ele>
        <time>2016-01-03T11:58:14Z</time>
      </trkpt>
      <trkpt lat="44.33067" lon="2.03899">
        <ele>334.3</ele>
        <time>2016-01-03T11:58:16Z</time>
      </trkpt>
      <trkpt lat="44.33069" lon="2.03895">
        <ele>333.3</ele>
        <time>2016-01-03T11:58:18Z</time>
      </trkpt>
      <trkpt lat="44.33072" lon="2.03894">
        <ele>332.2</ele>
        <time>2016-01-03T11:58:21Z</time>
      </trkpt>
      <trkpt lat="44.33074" lon="2.03891">
        <ele>331.3</ele>
        <time>2016-01-03T11:58:23Z</time>
      </trkpt>
      <trkpt lat="44.33076" lon="2.03886">
        <ele>330.2</ele>
        <time>2016-01-03T11:58:25Z</time>
      </trkpt>
      <trkpt lat="44.33076" lon="2.0388">
        <ele>329.2</ele>
        <time>2016-01-03T11:58:27Z</time>
      </trkpt>
      <trkpt lat="44.33076" lon="2.03873">
        <ele>328</ele>
        <time>2016-01-03T11:58:29Z</time>
      </trkpt>
      <trkpt lat="44.33074" lon="2.03867">
        <ele>326.4</ele>
        <time>2016-01-03T11:58:31Z</time>
      </trkpt>
      <trkpt lat="44.33072" lon="2.03864">
        <ele>326</ele>
        <time>2016-01-03T11:58:33Z</time>
      </trkpt>
      <trkpt lat="44.33077" lon="2.03865">
        <ele>324.8</ele>
        <time>2016-01-03T11:58:39Z</time>
      </trkpt>
      <trkpt lat="44.33081" lon="2.03867">
        <ele>324.3</ele>
        <time>2016-01-03T11:58:41Z</time>
      </trkpt>
      <trkpt lat="44.33084" lon="2.03868">
        <ele>323.9</ele>
        <time>2016-01-03T11:58:42Z</time>
      </trkpt>
      <trkpt lat="44.33087" lon="2.03869">
        <ele>323.7</ele>
        <time>2016-01-03T11:58:43Z</time>
      </trkpt>
      <trkpt lat="44.33089" lon="2.03873">
        <ele>324.2</ele>
        <time>2016-01-03T11:58:46Z</time>
      </trkpt>
      <trkpt lat="44.33092" lon="2.03875">
        <ele>324.2</ele>
        <time>2016-01-03T11:58:48Z</time>
      </trkpt>
      <trkpt lat="44.33094" lon="2.03881">
        <ele>324.3</ele>
        <time>2016-01-03T11:58:50Z</time>
      </trkpt>
      <trkpt lat="44.33097" lon="2.03885">
        <ele>324</ele>
        <time>2016-01-03T11:58:52Z</time>
      </trkpt>
      <trkpt lat="44.33099" lon="2.03888">
        <ele>324</ele>
        <time>2016-01-03T11:58:54Z</time>
      </trkpt>
      <trkpt lat="44.33101" lon="2.03891">
        <ele>324.1</ele>
        <time>2016-01-03T11:58:56Z</time>
      </trkpt>
      <trkpt lat="44.33103" lon="2.03897">
        <ele>324.2</ele>
        <time>2016-01-03T11:58:58Z</time>
      </trkpt>
      <trkpt lat="44.33105" lon="2.039">
        <ele>324.1</ele>
        <time>2016-01-03T11:58:59Z</time>
      </trkpt>
      <trkpt lat="44.33108" lon="2.03902">
        <ele>323.8</ele>
        <time>2016-01-03T11:59:01Z</time>
      </trkpt>
      <trkpt lat="44.33112" lon="2.03903">
        <ele>322.8</ele>
        <time>2016-01-03T11:59:05Z</time>
      </trkpt>
      <trkpt lat="44.33115" lon="2.03903">
        <ele>321.9</ele>
        <time>2016-01-03T11:59:08Z</time>
      </trkpt>
      <trkpt lat="44.3312" lon="2.03903">
        <ele>320.7</ele>
        <time>2016-01-03T11:59:11Z</time>
      </trkpt>
      <trkpt lat="44.33125" lon="2.03903">
        <ele>319.3</ele>
        <time>2016-01-03T11:59:13Z</time>
      </trkpt>
      <trkpt lat="44.33121" lon="2.039">
        <ele>320</ele>
        <time>2016-01-03T12:00:42Z</time>
      </trkpt>
      <trkpt lat="44.33124" lon="2.03899">
        <ele>319.1</ele>
        <time>2016-01-03T12:00:50Z</time>
      </trkpt>
      <trkpt lat="44.33124" lon="2.03894">
        <ele>318.3</ele>
        <time>2016-01-03T12:00:58Z</time>
      </trkpt>
      <trkpt lat="44.33125" lon="2.0389">
        <ele>317.3</ele>
        <time>2016-01-03T12:00:59Z</time>
      </trkpt>
      <trkpt lat="44.33128" lon="2.03887">
        <ele>316.5</ele>
        <time>2016-01-03T12:01:00Z</time>
      </trkpt>
      <trkpt lat="44.33129" lon="2.0388">
        <ele>315.5</ele>
        <time>2016-01-03T12:01:02Z</time>
      </trkpt>
      <trkpt lat="44.33129" lon="2.03872">
        <ele>313.8</ele>
        <time>2016-01-03T12:01:04Z</time>
      </trkpt>
      <trkpt lat="44.33131" lon="2.03867">
        <ele>312</ele>
        <time>2016-01-03T12:01:05Z</time>
      </trkpt>
      <trkpt lat="44.33131" lon="2.03862">
        <ele>310.6</ele>
        <time>2016-01-03T12:01:06Z</time>
      </trkpt>
      <trkpt lat="44.33131" lon="2.03857">
        <ele>309.3</ele>
        <time>2016-01-03T12:01:07Z</time>
      </trkpt>
      <trkpt lat="44.33131" lon="2.03853">
        <ele>307.9</ele>
        <time>2016-01-03T12:01:08Z</time>
      </trkpt>
      <trkpt lat="44.3313" lon="2.03848">
        <ele>306.7</ele>
        <time>2016-01-03T12:01:09Z</time>
      </trkpt>
      <trkpt lat="44.3313" lon="2.03844">
        <ele>305.5</ele>
        <time>2016-01-03T12:01:10Z</time>
      </trkpt>
      <trkpt lat="44.33131" lon="2.03837">
        <ele>303.4</ele>
        <time>2016-01-03T12:01:12Z</time>
      </trkpt>
      <trkpt lat="44.33128" lon="2.03831">
        <ele>301.5</ele>
        <time>2016-01-03T12:01:14Z</time>
      </trkpt>
      <trkpt lat="44.33128" lon="2.03826">
        <ele>299.9</ele>
        <time>2016-01-03T12:01:15Z</time>
      </trkpt>
      <trkpt lat="44.33127" lon="2.03822">
        <ele>298.6</ele>
        <time>2016-01-03T12:01:16Z</time>
      </trkpt>
      <trkpt lat="44.33125" lon="2.03815">
        <ele>296.4</ele>
        <time>2016-01-03T12:01:18Z</time>
      </trkpt>
      <trkpt lat="44.33125" lon="2.03809">
        <ele>294.5</ele>
        <time>2016-01-03T12:01:20Z</time>
      </trkpt>
      <trkpt lat="44.33125" lon="2.03803">
        <ele>292.7</ele>
        <time>2016-01-03T12:01:22Z</time>
      </trkpt>
      <trkpt lat="44.33126" lon="2.03799">
        <ele>291.5</ele>
        <time>2016-01-03T12:01:24Z</time>
      </trkpt>
      <trkpt lat="44.3313" lon="2.03799">
        <ele>292</ele>
        <time>2016-01-03T12:01:25Z</time>
      </trkpt>
      <trkpt lat="44.33132" lon="2.03799">
        <ele>292.4</ele>
        <time>2016-01-03T12:01:27Z</time>
      </trkpt>
      <trkpt lat="44.33137" lon="2.03802">
        <ele>294</ele>
        <time>2016-01-03T12:01:29Z</time>
      </trkpt>
      <trkpt lat="44.33142" lon="2.03801">
        <ele>294.5</ele>
        <time>2016-01-03T12:01:32Z</time>
      </trkpt>
      <trkpt lat="44.33143" lon="2.03797">
        <ele>293.8</ele>
        <time>2016-01-03T12:01:35Z</time>
      </trkpt>
      <trkpt lat="44.33103" lon="2.03757">
        <ele>291.7</ele>
        <time>2016-01-03T12:02:43Z</time>
      </trkpt>
      <trkpt lat="44.33099" lon="2.03757">
        <ele>292.6</ele>
        <time>2016-01-03T12:02:45Z</time>
      </trkpt>
      <trkpt lat="44.33094" lon="2.03755">
        <ele>293.7</ele>
        <time>2016-01-03T12:02:47Z</time>
      </trkpt>
      <trkpt lat="44.33091" lon="2.03754">
        <ele>294.4</ele>
        <time>2016-01-03T12:02:49Z</time>
      </trkpt>
      <trkpt lat="44.33086" lon="2.03755">
        <ele>295.5</ele>
        <time>2016-01-03T12:02:50Z</time>
      </trkpt>
      <trkpt lat="44.33082" lon="2.03751">
        <ele>296.1</ele>
        <time>2016-01-03T12:02:52Z</time>
      </trkpt>
      <trkpt lat="44.3308" lon="2.03749">
        <ele>296.4</ele>
        <time>2016-01-03T12:02:53Z</time>
      </trkpt>
      <trkpt lat="44.33077" lon="2.03747">
        <ele>297</ele>
        <time>2016-01-03T12:02:54Z</time>
      </trkpt>
      <trkpt lat="44.33074" lon="2.03747">
        <ele>297.6</ele>
        <time>2016-01-03T12:02:55Z</time>
      </trkpt>
      <trkpt lat="44.33069" lon="2.03747">
        <ele>298.8</ele>
        <time>2016-01-03T12:02:57Z</time>
      </trkpt>
      <trkpt lat="44.33065" lon="2.03746">
        <ele>299.7</ele>
        <time>2016-01-03T12:02:59Z</time>
      </trkpt>
      <trkpt lat="44.33061" lon="2.03743">
        <ele>300.4</ele>
        <time>2016-01-03T12:03:00Z</time>
      </trkpt>
      <trkpt lat="44.33058" lon="2.03743">
        <ele>301.1</ele>
        <time>2016-01-03T12:03:02Z</time>
      </trkpt>
      <trkpt lat="44.33055" lon="2.0374">
        <ele>301.6</ele>
        <time>2016-01-03T12:03:04Z</time>
      </trkpt>
      <trkpt lat="44.33052" lon="2.03739">
        <ele>302.2</ele>
        <time>2016-01-03T12:03:06Z</time>
      </trkpt>
      <trkpt lat="44.33048" lon="2.03738">
        <ele>302.9</ele>
        <time>2016-01-03T12:03:08Z</time>
      </trkpt>
      <trkpt lat="44.33046" lon="2.03736">
        <ele>303.3</ele>
        <time>2016-01-03T12:03:09Z</time>
      </trkpt>
      <trkpt lat="44.33042" lon="2.03732">
        <ele>303.9</ele>
        <time>2016-01-03T12:03:11Z</time>
      </trkpt>
      <trkpt lat="44.33039" lon="2.03729">
        <ele>305.3</ele>
        <time>2016-01-03T12:03:12Z</time>
      </trkpt>
      <trkpt lat="44.33036" lon="2.03724">
        <ele>306.3</ele>
        <time>2016-01-03T12:03:14Z</time>
      </trkpt>
      <trkpt lat="44.33035" lon="2.03717">
        <ele>306</ele>
        <time>2016-01-03T12:03:16Z</time>
      </trkpt>
      <trkpt lat="44.33034" lon="2.03713">
        <ele>306.4</ele>
        <time>2016-01-03T12:03:18Z</time>
      </trkpt>
      <trkpt lat="44.33034" lon="2.03709">
        <ele>305.8</ele>
        <time>2016-01-03T12:03:23Z</time>
      </trkpt>
      <trkpt lat="44.33071" lon="2.03664">
        <ele>300.8</ele>
        <time>2016-01-03T12:05:09Z</time>
      </trkpt>
      <trkpt lat="44.33071" lon="2.0366">
        <ele>301.3</ele>
        <time>2016-01-03T12:05:14Z</time>
      </trkpt>
      <trkpt lat="44.33069" lon="2.03658">
        <ele>302.3</ele>
        <time>2016-01-03T12:05:19Z</time>
      </trkpt>
      <trkpt lat="44.33089" lon="2.03605">
        <ele>303.5</ele>
        <time>2016-01-03T12:05:59Z</time>
      </trkpt>
      <trkpt lat="44.33087" lon="2.036">
        <ele>305.2</ele>
        <time>2016-01-03T12:06:01Z</time>
      </trkpt>
      <trkpt lat="44.33085" lon="2.03596">
        <ele>306.8</ele>
        <time>2016-01-03T12:06:03Z</time>
      </trkpt>
      <trkpt lat="44.33085" lon="2.03592">
        <ele>307.7</ele>
        <time>2016-01-03T12:06:05Z</time>
      </trkpt>
      <trkpt lat="44.33085" lon="2.03588">
        <ele>308.4</ele>
        <time>2016-01-03T12:06:07Z</time>
      </trkpt>
      <trkpt lat="44.33086" lon="2.03581">
        <ele>309.2</ele>
        <time>2016-01-03T12:06:09Z</time>
      </trkpt>
      <trkpt lat="44.33088" lon="2.03576">
        <ele>309.6</ele>
        <time>2016-01-03T12:06:10Z</time>
      </trkpt>
      <trkpt lat="44.33089" lon="2.03572">
        <ele>309.9</ele>
        <time>2016-01-03T12:06:11Z</time>
      </trkpt>
      <trkpt lat="44.3309" lon="2.03568">
        <ele>310.3</ele>
        <time>2016-01-03T12:06:12Z</time>
      </trkpt>
      <trkpt lat="44.33093" lon="2.03565">
        <ele>309.5</ele>
        <time>2016-01-03T12:06:13Z</time>
      </trkpt>
      <trkpt lat="44.33099" lon="2.03561">
        <ele>307.5</ele>
        <time>2016-01-03T12:06:15Z</time>
      </trkpt>
      <trkpt lat="44.33098" lon="2.03558">
        <ele>308.8</ele>
        <time>2016-01-03T12:06:16Z</time>
      </trkpt>
      <trkpt lat="44.33102" lon="2.03556">
        <ele>307.1</ele>
        <time>2016-01-03T12:06:18Z</time>
      </trkpt>
      <trkpt lat="44.33107" lon="2.03554">
        <ele>305.1</ele>
        <time>2016-01-03T12:06:20Z</time>
      </trkpt>
      <trkpt lat="44.33111" lon="2.03552">
        <ele>304</ele>
        <time>2016-01-03T12:06:23Z</time>
      </trkpt>
      <trkpt lat="44.33115" lon="2.03549">
        <ele>302.8</ele>
        <time>2016-01-03T12:06:25Z</time>
      </trkpt>
      <trkpt lat="44.33119" lon="2.03547">
        <ele>300.9</ele>
        <time>2016-01-03T12:06:26Z</time>
      </trkpt>
      <trkpt lat="44.33123" lon="2.03543">
        <ele>299.6</ele>
        <time>2016-01-03T12:06:27Z</time>
      </trkpt>
      <trkpt lat="44.33127" lon="2.0354">
        <ele>298.9</ele>
        <time>2016-01-03T12:06:28Z</time>
      </trkpt>
      <trkpt lat="44.33131" lon="2.03536">
        <ele>299.2</ele>
        <time>2016-01-03T12:06:29Z</time>
      </trkpt>
      <trkpt lat="44.33128" lon="2.03531">
        <ele>301.5</ele>
        <time>2016-01-03T12:06:30Z</time>
      </trkpt>
      <trkpt lat="44.33132" lon="2.03526">
        <ele>301.9</ele>
        <time>2016-01-03T12:06:32Z</time>
      </trkpt>
      <trkpt lat="44.33137" lon="2.03526">
        <ele>300.5</ele>
        <time>2016-01-03T12:06:33Z</time>
      </trkpt>
      <trkpt lat="44.33133" lon="2.03523">
        <ele>302.5</ele>
        <time>2016-01-03T12:06:35Z</time>
      </trkpt>
      <trkpt lat="44.3313" lon="2.0352">
        <ele>304.3</ele>
        <time>2016-01-03T12:06:41Z</time>
      </trkpt>
      <trkpt lat="44.33128" lon="2.03517">
        <ele>305.7</ele>
        <time>2016-01-03T12:06:43Z</time>
      </trkpt>
      <trkpt lat="44.33134" lon="2.03515">
        <ele>304.8</ele>
        <time>2016-01-03T12:06:49Z</time>
      </trkpt>
      <trkpt lat="44.33163" lon="2.03466">
        <ele>310.1</ele>
        <time>2016-01-03T12:08:41Z</time>
      </trkpt>
      <trkpt lat="44.33167" lon="2.03464">
        <ele>309.5</ele>
        <time>2016-01-03T12:08:46Z</time>
      </trkpt>
      <trkpt lat="44.33164" lon="2.03461">
        <ele>311.1</ele>
        <time>2016-01-03T12:08:51Z</time>
      </trkpt>
      <trkpt lat="44.33167" lon="2.03459">
        <ele>310.8</ele>
        <time>2016-01-03T12:08:59Z</time>
      </trkpt>
      <trkpt lat="44.3317" lon="2.03458">
        <ele>309.8</ele>
        <time>2016-01-03T12:09:02Z</time>
      </trkpt>
      <trkpt lat="44.33168" lon="2.03453">
        <ele>312.2</ele>
        <time>2016-01-03T12:09:13Z</time>
      </trkpt>
      <trkpt lat="44.33173" lon="2.03453">
        <ele>310.7</ele>
        <time>2016-01-03T12:09:18Z</time>
      </trkpt>
      <trkpt lat="44.33176" lon="2.03454">
        <ele>309.2</ele>
        <time>2016-01-03T12:09:21Z</time>
      </trkpt>
      <trkpt lat="44.33179" lon="2.03455">
        <ele>307.8</ele>
        <time>2016-01-03T12:09:25Z</time>
      </trkpt>
      <trkpt lat="44.33185" lon="2.03454">
        <ele>306.1</ele>
        <time>2016-01-03T12:09:27Z</time>
      </trkpt>
      <trkpt lat="44.3319" lon="2.03453">
        <ele>304.5</ele>
        <time>2016-01-03T12:09:29Z</time>
      </trkpt>
      <trkpt lat="44.33194" lon="2.03453">
        <ele>303.2</ele>
        <time>2016-01-03T12:09:30Z</time>
      </trkpt>
      <trkpt lat="44.33197" lon="2.03453">
        <ele>302.4</ele>
        <time>2016-01-03T12:09:31Z</time>
      </trkpt>
      <trkpt lat="44.332" lon="2.03451">
        <ele>301.6</ele>
        <time>2016-01-03T12:09:32Z</time>
      </trkpt>
      <trkpt lat="44.33203" lon="2.03449">
        <ele>301.1</ele>
        <time>2016-01-03T12:09:33Z</time>
      </trkpt>
      <trkpt lat="44.33207" lon="2.03445">
        <ele>300.8</ele>
        <time>2016-01-03T12:09:35Z</time>
      </trkpt>
      <trkpt lat="44.33209" lon="2.03442">
        <ele>301</ele>
        <time>2016-01-03T12:09:37Z</time>
      </trkpt>
      <trkpt lat="44.33213" lon="2.03439">
        <ele>300.2</ele>
        <time>2016-01-03T12:09:39Z</time>
      </trkpt>
      <trkpt lat="44.33216" lon="2.03436">
        <ele>299.7</ele>
        <time>2016-01-03T12:09:41Z</time>
      </trkpt>
      <trkpt lat="44.33219" lon="2.03432">
        <ele>299.3</ele>
        <time>2016-01-03T12:09:43Z</time>
      </trkpt>
      <trkpt lat="44.33223" lon="2.0343">
        <ele>298.1</ele>
        <time>2016-01-03T12:09:45Z</time>
      </trkpt>
      <trkpt lat="44.33226" lon="2.03428">
        <ele>297.2</ele>
        <time>2016-01-03T12:09:47Z</time>
      </trkpt>
      <trkpt lat="44.33228" lon="2.03423">
        <ele>297.6</ele>
        <time>2016-01-03T12:09:49Z</time>
      </trkpt>
      <trkpt lat="44.33229" lon="2.03414">
        <ele>298.8</ele>
        <time>2016-01-03T12:09:51Z</time>
      </trkpt>
      <trkpt lat="44.33231" lon="2.03408">
        <ele>299.5</ele>
        <time>2016-01-03T12:09:52Z</time>
      </trkpt>
      <trkpt lat="44.33232" lon="2.03401">
        <ele>300.2</ele>
        <time>2016-01-03T12:09:53Z</time>
      </trkpt>
      <trkpt lat="44.33234" lon="2.03394">
        <ele>301.1</ele>
        <time>2016-01-03T12:09:54Z</time>
      </trkpt>
      <trkpt lat="44.33236" lon="2.03386">
        <ele>301.7</ele>
        <time>2016-01-03T12:09:55Z</time>
      </trkpt>
      <trkpt lat="44.33238" lon="2.03377">
        <ele>302.1</ele>
        <time>2016-01-03T12:09:56Z</time>
      </trkpt>
      <trkpt lat="44.3324" lon="2.03368">
        <ele>301.2</ele>
        <time>2016-01-03T12:09:57Z</time>
      </trkpt>
      <trkpt lat="44.33242" lon="2.03359">
        <ele>299.4</ele>
        <time>2016-01-03T12:09:58Z</time>
      </trkpt>
      <trkpt lat="44.33244" lon="2.0335">
        <ele>298</ele>
        <time>2016-01-03T12:09:59Z</time>
      </trkpt>
      <trkpt lat="44.33244" lon="2.03342">
        <ele>297.1</ele>
        <time>2016-01-03T12:10:00Z</time>
      </trkpt>
      <trkpt lat="44.33246" lon="2.03333">
        <ele>295.5</ele>
        <time>2016-01-03T12:10:01Z</time>
      </trkpt>
      <trkpt lat="44.33251" lon="2.03324">
        <ele>292.9</ele>
        <time>2016-01-03T12:10:02Z</time>
      </trkpt>
      <trkpt lat="44.33254" lon="2.03315">
        <ele>290.8</ele>
        <time>2016-01-03T12:10:03Z</time>
      </trkpt>
      <trkpt lat="44.33255" lon="2.03305">
        <ele>289.8</ele>
        <time>2016-01-03T12:10:04Z</time>
      </trkpt>
      <trkpt lat="44.33258" lon="2.03293">
        <ele>287.8</ele>
        <time>2016-01-03T12:10:05Z</time>
      </trkpt>
      <trkpt lat="44.3326" lon="2.03285">
        <ele>284.8</ele>
        <time>2016-01-03T12:10:06Z</time>
      </trkpt>
      <trkpt lat="44.33263" lon="2.03279">
        <ele>282</ele>
        <time>2016-01-03T12:10:07Z</time>
      </trkpt>
      <trkpt lat="44.33262" lon="2.03272">
        <ele>280.2</ele>
        <time>2016-01-03T12:10:08Z</time>
      </trkpt>
      <trkpt lat="44.33261" lon="2.03267">
        <ele>279.6</ele>
        <time>2016-01-03T12:10:09Z</time>
      </trkpt>
      <trkpt lat="44.3326" lon="2.03261">
        <ele>278.3</ele>
        <time>2016-01-03T12:10:10Z</time>
      </trkpt>
      <trkpt lat="44.33261" lon="2.03256">
        <ele>276.6</ele>
        <time>2016-01-03T12:10:12Z</time>
      </trkpt>
      <trkpt lat="44.33261" lon="2.03251">
        <ele>275.1</ele>
        <time>2016-01-03T12:10:16Z</time>
      </trkpt>
      <trkpt lat="44.33258" lon="2.03252">
        <ele>276.5</ele>
        <time>2016-01-03T12:10:17Z</time>
      </trkpt>
      <trkpt lat="44.33253" lon="2.03253">
        <ele>278.7</ele>
        <time>2016-01-03T12:10:18Z</time>
      </trkpt>
      <trkpt lat="44.33258" lon="2.03255">
        <ele>277.6</ele>
        <time>2016-01-03T12:10:20Z</time>
      </trkpt>
      <trkpt lat="44.33261" lon="2.03255">
        <ele>276.2</ele>
        <time>2016-01-03T12:10:21Z</time>
      </trkpt>
      <trkpt lat="44.33266" lon="2.03256">
        <ele>274.7</ele>
        <time>2016-01-03T12:10:22Z</time>
      </trkpt>
      <trkpt lat="44.33269" lon="2.03257">
        <ele>273.9</ele>
        <time>2016-01-03T12:10:23Z</time>
      </trkpt>
      <trkpt lat="44.33274" lon="2.03262">
        <ele>273.3</ele>
        <time>2016-01-03T12:10:25Z</time>
      </trkpt>
      <trkpt lat="44.33277" lon="2.03264">
        <ele>272.6</ele>
        <time>2016-01-03T12:10:26Z</time>
      </trkpt>
      <trkpt lat="44.33279" lon="2.03266">
        <ele>272.1</ele>
        <time>2016-01-03T12:10:27Z</time>
      </trkpt>
      <trkpt lat="44.33283" lon="2.03268">
        <ele>271.3</ele>
        <time>2016-01-03T12:10:28Z</time>
      </trkpt>
      <trkpt lat="44.33287" lon="2.03271">
        <ele>270.2</ele>
        <time>2016-01-03T12:10:29Z</time>
      </trkpt>
      <trkpt lat="44.33291" lon="2.03275">
        <ele>269.5</ele>
        <time>2016-01-03T12:10:30Z</time>
      </trkpt>
      <trkpt lat="44.33296" lon="2.03278">
        <ele>268.8</ele>
        <time>2016-01-03T12:10:31Z</time>
      </trkpt>
      <trkpt lat="44.33301" lon="2.0328">
        <ele>268.3</ele>
        <time>2016-01-03T12:10:32Z</time>
      </trkpt>
      <trkpt lat="44.33305" lon="2.03283">
        <ele>267.8</ele>
        <time>2016-01-03T12:10:33Z</time>
      </trkpt>
      <trkpt lat="44.33309" lon="2.03285">
        <ele>267.2</ele>
        <time>2016-01-03T12:10:34Z</time>
      </trkpt>
      <trkpt lat="44.33313" lon="2.03288">
        <ele>266.7</ele>
        <time>2016-01-03T12:10:35Z</time>
      </trkpt>
      <trkpt lat="44.33318" lon="2.0329">
        <ele>265.8</ele>
        <time>2016-01-03T12:10:36Z</time>
      </trkpt>
      <trkpt lat="44.33322" lon="2.03292">
        <ele>265.1</ele>
        <time>2016-01-03T12:10:37Z</time>
      </trkpt>
      <trkpt lat="44.33326" lon="2.03294">
        <ele>264.2</ele>
        <time>2016-01-03T12:10:38Z</time>
      </trkpt>
      <trkpt lat="44.3333" lon="2.03296">
        <ele>263.2</ele>
        <time>2016-01-03T12:10:39Z</time>
      </trkpt>
      <trkpt lat="44.33334" lon="2.03299">
        <ele>262.5</ele>
        <time>2016-01-03T12:10:40Z</time>
      </trkpt>
      <trkpt lat="44.33337" lon="2.03301">
        <ele>261.8</ele>
        <time>2016-01-03T12:10:41Z</time>
      </trkpt>
      <trkpt lat="44.33341" lon="2.03303">
        <ele>261</ele>
        <time>2016-01-03T12:10:42Z</time>
      </trkpt>
      <trkpt lat="44.33345" lon="2.03305">
        <ele>260.3</ele>
        <time>2016-01-03T12:10:43Z</time>
      </trkpt>
      <trkpt lat="44.33348" lon="2.03308">
        <ele>259.7</ele>
        <time>2016-01-03T12:10:44Z</time>
      </trkpt>
      <trkpt lat="44.33352" lon="2.0331">
        <ele>259</ele>
        <time>2016-01-03T12:10:45Z</time>
      </trkpt>
      <trkpt lat="44.33355" lon="2.03311">
        <ele>258.3</ele>
        <time>2016-01-03T12:10:46Z</time>
      </trkpt>
      <trkpt lat="44.33358" lon="2.03312">
        <ele>257.8</ele>
        <time>2016-01-03T12:10:57Z</time>
      </trkpt>
      <trkpt lat="44.33361" lon="2.03313">
        <ele>257.2</ele>
        <time>2016-01-03T12:11:00Z</time>
      </trkpt>
      <trkpt lat="44.33363" lon="2.03312">
        <ele>256.5</ele>
        <time>2016-01-03T12:11:03Z</time>
      </trkpt>
      <trkpt lat="44.33388" lon="2.0331">
        <ele>253.2</ele>
        <time>2016-01-03T12:11:45Z</time>
      </trkpt>
      <trkpt lat="44.33386" lon="2.03308">
        <ele>253</ele>
        <time>2016-01-03T12:11:51Z</time>
      </trkpt>
      <trkpt lat="44.33361" lon="2.03337">
        <ele>259.8</ele>
        <time>2016-01-03T12:12:09Z</time>
      </trkpt>
      <trkpt lat="44.33357" lon="2.03342">
        <ele>261.3</ele>
        <time>2016-01-03T12:12:10Z</time>
      </trkpt>
      <trkpt lat="44.33353" lon="2.03341">
        <ele>261.9</ele>
        <time>2016-01-03T12:12:12Z</time>
      </trkpt>
      <trkpt lat="44.33352" lon="2.03336">
        <ele>261.7</ele>
        <time>2016-01-03T12:12:14Z</time>
      </trkpt>
      <trkpt lat="44.33358" lon="2.03333">
        <ele>259.9</ele>
        <time>2016-01-03T12:12:16Z</time>
      </trkpt>
      <trkpt lat="44.33362" lon="2.03329">
        <ele>258.7</ele>
        <time>2016-01-03T12:12:18Z</time>
      </trkpt>
      <trkpt lat="44.33368" lon="2.03322">
        <ele>256.6</ele>
        <time>2016-01-03T12:12:19Z</time>
      </trkpt>
      <trkpt lat="44.33373" lon="2.03317">
        <ele>254.8</ele>
        <time>2016-01-03T12:12:20Z</time>
      </trkpt>
      <trkpt lat="44.33376" lon="2.03313">
        <ele>253.8</ele>
        <time>2016-01-03T12:12:22Z</time>
      </trkpt>
      <trkpt lat="44.33379" lon="2.03312">
        <ele>253.6</ele>
        <time>2016-01-03T12:12:42Z</time>
      </trkpt>
      <trkpt lat="44.33377" lon="2.03312">
        <ele>253.6</ele>
        <time>2016-01-03T12:12:44Z</time>
      </trkpt>
      <trkpt lat="44.33373" lon="2.03311">
        <ele>254</ele>
        <time>2016-01-03T12:12:50Z</time>
      </trkpt>
    </trkseg>
  </trk>
</gpx>